﻿<?xml version="1.0" encoding="utf-8"?><gpx version="1.1" creator="izvne.com" xmlns="http://www.topografix.com/GPX/1/1"><trk><name>crimea-overview</name><trkseg><trkpt lat="44.727032" lon="33.840244"><ele>119.0</ele><time>2011-10-10T07:22:37.0000000+00:00</time></trkpt><trkpt lat="44.727066" lon="33.840328"><ele>119.0</ele><time>2011-10-10T07:22:42.0000000+00:00</time></trkpt><trkpt lat="44.727139" lon="33.84042"><ele>118.7</ele><time>2011-10-10T07:22:47.0000000+00:00</time></trkpt><trkpt lat="44.727245" lon="33.84053"><ele>118.4</ele><time>2011-10-10T07:22:52.0000000+00:00</time></trkpt><trkpt lat="44.727345" lon="33.840633"><ele>118.0</ele><time>2011-10-10T07:22:57.0000000+00:00</time></trkpt><trkpt lat="44.727474" lon="33.84063"><ele>92.2</ele><time>2011-10-10T07:23:02.0000000+00:00</time></trkpt><trkpt lat="44.727467" lon="33.840595"><ele>94.2</ele><time>2011-10-10T07:23:07.0000000+00:00</time></trkpt><trkpt lat="44.727406" lon="33.840519"><ele>97.4</ele><time>2011-10-10T07:23:12.0000000+00:00</time></trkpt><trkpt lat="44.727303" lon="33.840389"><ele>99.7</ele><time>2011-10-10T07:23:17.0000000+00:00</time></trkpt><trkpt lat="44.727192" lon="33.840248"><ele>100.7</ele><time>2011-10-10T07:23:22.0000000+00:00</time></trkpt><trkpt lat="44.727146" lon="33.840103"><ele>102.5</ele><time>2011-10-10T07:23:27.0000000+00:00</time></trkpt><trkpt lat="44.727135" lon="33.84008"><ele>103.1</ele><time>2011-10-10T07:23:32.0000000+00:00</time></trkpt><trkpt lat="44.727135" lon="33.840076"><ele>103.6</ele><time>2011-10-10T07:23:37.0000000+00:00</time></trkpt><trkpt lat="44.727135" lon="33.840076"><ele>103.8</ele><time>2011-10-10T07:23:42.0000000+00:00</time></trkpt><trkpt lat="44.727135" lon="33.84008"><ele>103.9</ele><time>2011-10-10T07:23:47.0000000+00:00</time></trkpt><trkpt lat="44.727135" lon="33.840084"><ele>104.0</ele><time>2011-10-10T07:23:52.0000000+00:00</time></trkpt><trkpt lat="44.727139" lon="33.840084"><ele>104.1</ele><time>2011-10-10T07:23:57.0000000+00:00</time></trkpt><trkpt lat="44.727139" lon="33.840084"><ele>104.3</ele><time>2011-10-10T07:24:02.0000000+00:00</time></trkpt><trkpt lat="44.727139" lon="33.840084"><ele>104.4</ele><time>2011-10-10T07:24:07.0000000+00:00</time></trkpt><trkpt lat="44.727139" lon="33.840088"><ele>104.5</ele><time>2011-10-10T07:24:12.0000000+00:00</time></trkpt><trkpt lat="44.727139" lon="33.840088"><ele>104.6</ele><time>2011-10-10T07:24:17.0000000+00:00</time></trkpt><trkpt lat="44.727139" lon="33.840088"><ele>104.6</ele><time>2011-10-10T07:24:22.0000000+00:00</time></trkpt><trkpt lat="44.727139" lon="33.840088"><ele>104.7</ele><time>2011-10-10T07:24:27.0000000+00:00</time></trkpt><trkpt lat="44.727139" lon="33.840088"><ele>104.7</ele><time>2011-10-10T07:24:32.0000000+00:00</time></trkpt><trkpt lat="44.727139" lon="33.840088"><ele>104.8</ele><time>2011-10-10T07:24:37.0000000+00:00</time></trkpt><trkpt lat="44.727139" lon="33.840088"><ele>104.8</ele><time>2011-10-10T07:24:42.0000000+00:00</time></trkpt><trkpt lat="44.727139" lon="33.840088"><ele>104.8</ele><time>2011-10-10T07:24:47.0000000+00:00</time></trkpt><trkpt lat="44.727139" lon="33.840088"><ele>104.9</ele><time>2011-10-10T07:24:52.0000000+00:00</time></trkpt><trkpt lat="44.727139" lon="33.840088"><ele>104.9</ele><time>2011-10-10T07:24:57.0000000+00:00</time></trkpt><trkpt lat="44.727139" lon="33.840088"><ele>105.0</ele><time>2011-10-10T07:25:02.0000000+00:00</time></trkpt><trkpt lat="44.727161" lon="33.840076"><ele>105.2</ele><time>2011-10-10T07:25:07.0000000+00:00</time></trkpt><trkpt lat="44.727161" lon="33.840076"><ele>105.2</ele><time>2011-10-10T07:25:12.0000000+00:00</time></trkpt><trkpt lat="44.727161" lon="33.840076"><ele>105.1</ele><time>2011-10-10T07:25:17.0000000+00:00</time></trkpt><trkpt lat="44.727161" lon="33.840076"><ele>105.1</ele><time>2011-10-10T07:25:22.0000000+00:00</time></trkpt><trkpt lat="44.727161" lon="33.84008"><ele>105.1</ele><time>2011-10-10T07:25:27.0000000+00:00</time></trkpt><trkpt lat="44.727161" lon="33.84008"><ele>105.1</ele><time>2011-10-10T07:25:32.0000000+00:00</time></trkpt><trkpt lat="44.727161" lon="33.84008"><ele>105.1</ele><time>2011-10-10T07:25:37.0000000+00:00</time></trkpt><trkpt lat="44.727161" lon="33.84008"><ele>105.1</ele><time>2011-10-10T07:25:42.0000000+00:00</time></trkpt><trkpt lat="44.727161" lon="33.84008"><ele>105.1</ele><time>2011-10-10T07:25:47.0000000+00:00</time></trkpt><trkpt lat="44.727161" lon="33.84008"><ele>105.0</ele><time>2011-10-10T07:25:52.0000000+00:00</time></trkpt><trkpt lat="44.727139" lon="33.840099"><ele>104.6</ele><time>2011-10-10T07:25:57.0000000+00:00</time></trkpt><trkpt lat="44.727131" lon="33.840118"><ele>106.7</ele><time>2011-10-10T07:26:02.0000000+00:00</time></trkpt><trkpt lat="44.727131" lon="33.840118"><ele>106.8</ele><time>2011-10-10T07:26:07.0000000+00:00</time></trkpt><trkpt lat="44.727131" lon="33.840122"><ele>106.8</ele><time>2011-10-10T07:26:12.0000000+00:00</time></trkpt><trkpt lat="44.727131" lon="33.840122"><ele>106.8</ele><time>2011-10-10T07:26:17.0000000+00:00</time></trkpt><trkpt lat="44.727131" lon="33.840122"><ele>106.8</ele><time>2011-10-10T07:26:22.0000000+00:00</time></trkpt><trkpt lat="44.727131" lon="33.840122"><ele>106.9</ele><time>2011-10-10T07:26:27.0000000+00:00</time></trkpt><trkpt lat="44.727131" lon="33.840122"><ele>106.9</ele><time>2011-10-10T07:26:32.0000000+00:00</time></trkpt><trkpt lat="44.727131" lon="33.840122"><ele>106.9</ele><time>2011-10-10T07:26:37.0000000+00:00</time></trkpt><trkpt lat="44.727131" lon="33.840122"><ele>106.9</ele><time>2011-10-10T07:26:42.0000000+00:00</time></trkpt><trkpt lat="44.727131" lon="33.840122"><ele>107.0</ele><time>2011-10-10T07:26:47.0000000+00:00</time></trkpt><trkpt lat="44.727131" lon="33.840122"><ele>107.0</ele><time>2011-10-10T07:26:52.0000000+00:00</time></trkpt><trkpt lat="44.727131" lon="33.840126"><ele>107.1</ele><time>2011-10-10T07:26:57.0000000+00:00</time></trkpt><trkpt lat="44.727131" lon="33.840126"><ele>107.1</ele><time>2011-10-10T07:27:02.0000000+00:00</time></trkpt><trkpt lat="44.727131" lon="33.840126"><ele>107.1</ele><time>2011-10-10T07:27:07.0000000+00:00</time></trkpt><trkpt lat="44.727131" lon="33.840126"><ele>107.1</ele><time>2011-10-10T07:27:12.0000000+00:00</time></trkpt><trkpt lat="44.727131" lon="33.840126"><ele>107.2</ele><time>2011-10-10T07:27:17.0000000+00:00</time></trkpt><trkpt lat="44.727127" lon="33.840126"><ele>107.2</ele><time>2011-10-10T07:27:22.0000000+00:00</time></trkpt><trkpt lat="44.727127" lon="33.840126"><ele>107.2</ele><time>2011-10-10T07:27:27.0000000+00:00</time></trkpt><trkpt lat="44.727127" lon="33.840126"><ele>107.3</ele><time>2011-10-10T07:27:32.0000000+00:00</time></trkpt><trkpt lat="44.727127" lon="33.840126"><ele>107.3</ele><time>2011-10-10T07:27:37.0000000+00:00</time></trkpt><trkpt lat="44.727127" lon="33.840126"><ele>107.3</ele><time>2011-10-10T07:27:42.0000000+00:00</time></trkpt><trkpt lat="44.727127" lon="33.840126"><ele>107.4</ele><time>2011-10-10T07:27:47.0000000+00:00</time></trkpt><trkpt lat="44.727127" lon="33.840126"><ele>107.4</ele><time>2011-10-10T07:27:52.0000000+00:00</time></trkpt><trkpt lat="44.727127" lon="33.840126"><ele>107.4</ele><time>2011-10-10T07:27:57.0000000+00:00</time></trkpt><trkpt lat="44.727127" lon="33.840126"><ele>107.5</ele><time>2011-10-10T07:28:02.0000000+00:00</time></trkpt><trkpt lat="44.727127" lon="33.840126"><ele>107.5</ele><time>2011-10-10T07:28:07.0000000+00:00</time></trkpt><trkpt lat="44.727127" lon="33.840126"><ele>107.5</ele><time>2011-10-10T07:28:12.0000000+00:00</time></trkpt><trkpt lat="44.727127" lon="33.840126"><ele>107.6</ele><time>2011-10-10T07:28:17.0000000+00:00</time></trkpt><trkpt lat="44.727127" lon="33.840126"><ele>107.6</ele><time>2011-10-10T07:28:22.0000000+00:00</time></trkpt><trkpt lat="44.727127" lon="33.84013"><ele>107.6</ele><time>2011-10-10T07:28:27.0000000+00:00</time></trkpt><trkpt lat="44.727127" lon="33.84013"><ele>107.7</ele><time>2011-10-10T07:28:32.0000000+00:00</time></trkpt><trkpt lat="44.727127" lon="33.84013"><ele>107.7</ele><time>2011-10-10T07:28:37.0000000+00:00</time></trkpt><trkpt lat="44.727127" lon="33.84013"><ele>107.7</ele><time>2011-10-10T07:28:42.0000000+00:00</time></trkpt><trkpt lat="44.727123" lon="33.84013"><ele>107.8</ele><time>2011-10-10T07:28:47.0000000+00:00</time></trkpt><trkpt lat="44.727123" lon="33.84013"><ele>107.8</ele><time>2011-10-10T07:28:52.0000000+00:00</time></trkpt><trkpt lat="44.727119" lon="33.840137"><ele>109.4</ele><time>2011-10-10T07:28:57.0000000+00:00</time></trkpt><trkpt lat="44.727119" lon="33.840137"><ele>110.0</ele><time>2011-10-10T07:29:02.0000000+00:00</time></trkpt><trkpt lat="44.727119" lon="33.840137"><ele>110.0</ele><time>2011-10-10T07:29:07.0000000+00:00</time></trkpt><trkpt lat="44.727119" lon="33.840137"><ele>110.0</ele><time>2011-10-10T07:29:12.0000000+00:00</time></trkpt><trkpt lat="44.727119" lon="33.840137"><ele>110.0</ele><time>2011-10-10T07:29:17.0000000+00:00</time></trkpt><trkpt lat="44.727119" lon="33.840137"><ele>110.1</ele><time>2011-10-10T07:29:22.0000000+00:00</time></trkpt><trkpt lat="44.727119" lon="33.840137"><ele>110.1</ele><time>2011-10-10T07:29:27.0000000+00:00</time></trkpt><trkpt lat="44.727119" lon="33.840141"><ele>110.1</ele><time>2011-10-10T07:29:32.0000000+00:00</time></trkpt><trkpt lat="44.727119" lon="33.840141"><ele>110.1</ele><time>2011-10-10T07:29:37.0000000+00:00</time></trkpt><trkpt lat="44.727119" lon="33.840141"><ele>110.2</ele><time>2011-10-10T07:29:42.0000000+00:00</time></trkpt><trkpt lat="44.727119" lon="33.840141"><ele>110.2</ele><time>2011-10-10T07:29:47.0000000+00:00</time></trkpt><trkpt lat="44.727119" lon="33.840141"><ele>110.2</ele><time>2011-10-10T07:29:52.0000000+00:00</time></trkpt><trkpt lat="44.727119" lon="33.840141"><ele>110.3</ele><time>2011-10-10T07:29:57.0000000+00:00</time></trkpt><trkpt lat="44.727119" lon="33.840141"><ele>110.3</ele><time>2011-10-10T07:30:02.0000000+00:00</time></trkpt><trkpt lat="44.727119" lon="33.840141"><ele>110.3</ele><time>2011-10-10T07:30:07.0000000+00:00</time></trkpt><trkpt lat="44.727119" lon="33.840141"><ele>110.3</ele><time>2011-10-10T07:30:12.0000000+00:00</time></trkpt><trkpt lat="44.727119" lon="33.840141"><ele>110.4</ele><time>2011-10-10T07:30:17.0000000+00:00</time></trkpt><trkpt lat="44.727119" lon="33.840141"><ele>110.4</ele><time>2011-10-10T07:30:22.0000000+00:00</time></trkpt><trkpt lat="44.727116" lon="33.840141"><ele>110.4</ele><time>2011-10-10T07:30:27.0000000+00:00</time></trkpt><trkpt lat="44.727116" lon="33.840141"><ele>110.4</ele><time>2011-10-10T07:30:32.0000000+00:00</time></trkpt><trkpt lat="44.727116" lon="33.840141"><ele>110.5</ele><time>2011-10-10T07:30:37.0000000+00:00</time></trkpt><trkpt lat="44.727116" lon="33.840141"><ele>110.5</ele><time>2011-10-10T07:30:42.0000000+00:00</time></trkpt><trkpt lat="44.727116" lon="33.840141"><ele>110.5</ele><time>2011-10-10T07:30:47.0000000+00:00</time></trkpt><trkpt lat="44.727116" lon="33.840141"><ele>110.5</ele><time>2011-10-10T07:30:52.0000000+00:00</time></trkpt><trkpt lat="44.727116" lon="33.840141"><ele>110.5</ele><time>2011-10-10T07:30:57.0000000+00:00</time></trkpt><trkpt lat="44.727116" lon="33.840141"><ele>110.5</ele><time>2011-10-10T07:31:02.0000000+00:00</time></trkpt><trkpt lat="44.727116" lon="33.840141"><ele>110.5</ele><time>2011-10-10T07:31:07.0000000+00:00</time></trkpt><trkpt lat="44.727116" lon="33.840145"><ele>110.6</ele><time>2011-10-10T07:31:12.0000000+00:00</time></trkpt><trkpt lat="44.727116" lon="33.840145"><ele>110.6</ele><time>2011-10-10T07:31:17.0000000+00:00</time></trkpt><trkpt lat="44.727116" lon="33.840145"><ele>110.6</ele><time>2011-10-10T07:31:22.0000000+00:00</time></trkpt><trkpt lat="44.727116" lon="33.840145"><ele>110.7</ele><time>2011-10-10T07:31:27.0000000+00:00</time></trkpt><trkpt lat="44.727116" lon="33.840145"><ele>110.7</ele><time>2011-10-10T07:31:32.0000000+00:00</time></trkpt><trkpt lat="44.727116" lon="33.840145"><ele>110.7</ele><time>2011-10-10T07:31:37.0000000+00:00</time></trkpt><trkpt lat="44.727116" lon="33.840145"><ele>110.7</ele><time>2011-10-10T07:31:42.0000000+00:00</time></trkpt><trkpt lat="44.727116" lon="33.840145"><ele>110.7</ele><time>2011-10-10T07:31:47.0000000+00:00</time></trkpt><trkpt lat="44.727116" lon="33.840145"><ele>110.8</ele><time>2011-10-10T07:31:52.0000000+00:00</time></trkpt><trkpt lat="44.727116" lon="33.840145"><ele>110.8</ele><time>2011-10-10T07:31:57.0000000+00:00</time></trkpt><trkpt lat="44.727116" lon="33.840145"><ele>110.8</ele><time>2011-10-10T07:32:02.0000000+00:00</time></trkpt><trkpt lat="44.727116" lon="33.840149"><ele>110.8</ele><time>2011-10-10T07:32:07.0000000+00:00</time></trkpt><trkpt lat="44.727116" lon="33.840149"><ele>110.9</ele><time>2011-10-10T07:32:12.0000000+00:00</time></trkpt><trkpt lat="44.727116" lon="33.840149"><ele>110.9</ele><time>2011-10-10T07:32:17.0000000+00:00</time></trkpt><trkpt lat="44.727112" lon="33.840164"><ele>112.0</ele><time>2011-10-10T07:32:22.0000000+00:00</time></trkpt><trkpt lat="44.727112" lon="33.840179"><ele>113.0</ele><time>2011-10-10T07:32:27.0000000+00:00</time></trkpt><trkpt lat="44.727116" lon="33.840199"><ele>114.2</ele><time>2011-10-10T07:32:32.0000000+00:00</time></trkpt><trkpt lat="44.727119" lon="33.840202"><ele>114.8</ele><time>2011-10-10T07:32:37.0000000+00:00</time></trkpt><trkpt lat="44.727119" lon="33.840199"><ele>114.9</ele><time>2011-10-10T07:32:42.0000000+00:00</time></trkpt><trkpt lat="44.727119" lon="33.840199"><ele>115.0</ele><time>2011-10-10T07:32:47.0000000+00:00</time></trkpt><trkpt lat="44.727108" lon="33.840214"><ele>115.6</ele><time>2011-10-10T07:32:52.0000000+00:00</time></trkpt><trkpt lat="44.727104" lon="33.840225"><ele>116.1</ele><time>2011-10-10T07:32:57.0000000+00:00</time></trkpt><trkpt lat="44.727104" lon="33.840229"><ele>116.2</ele><time>2011-10-10T07:33:02.0000000+00:00</time></trkpt><trkpt lat="44.727104" lon="33.840229"><ele>116.2</ele><time>2011-10-10T07:33:07.0000000+00:00</time></trkpt><trkpt lat="44.727104" lon="33.840229"><ele>116.3</ele><time>2011-10-10T07:33:12.0000000+00:00</time></trkpt><trkpt lat="44.727108" lon="33.840233"><ele>117.3</ele><time>2011-10-10T07:33:17.0000000+00:00</time></trkpt><trkpt lat="44.727108" lon="33.840233"><ele>117.3</ele><time>2011-10-10T07:33:22.0000000+00:00</time></trkpt><trkpt lat="44.727108" lon="33.840233"><ele>117.3</ele><time>2011-10-10T07:33:27.0000000+00:00</time></trkpt><trkpt lat="44.727108" lon="33.840233"><ele>117.3</ele><time>2011-10-10T07:33:32.0000000+00:00</time></trkpt><trkpt lat="44.727108" lon="33.840233"><ele>117.4</ele><time>2011-10-10T07:33:37.0000000+00:00</time></trkpt><trkpt lat="44.727108" lon="33.840237"><ele>117.3</ele><time>2011-10-10T07:33:42.0000000+00:00</time></trkpt><trkpt lat="44.727108" lon="33.840233"><ele>117.3</ele><time>2011-10-10T07:33:47.0000000+00:00</time></trkpt><trkpt lat="44.727108" lon="33.840233"><ele>117.3</ele><time>2011-10-10T07:33:52.0000000+00:00</time></trkpt><trkpt lat="44.727108" lon="33.840221"><ele>117.4</ele><time>2011-10-10T07:33:57.0000000+00:00</time></trkpt><trkpt lat="44.727108" lon="33.840221"><ele>117.4</ele><time>2011-10-10T07:34:02.0000000+00:00</time></trkpt><trkpt lat="44.727108" lon="33.840221"><ele>117.4</ele><time>2011-10-10T07:34:07.0000000+00:00</time></trkpt><trkpt lat="44.727108" lon="33.840221"><ele>117.4</ele><time>2011-10-10T07:34:12.0000000+00:00</time></trkpt><trkpt lat="44.727108" lon="33.840221"><ele>117.4</ele><time>2011-10-10T07:34:17.0000000+00:00</time></trkpt><trkpt lat="44.727108" lon="33.840221"><ele>117.4</ele><time>2011-10-10T07:34:22.0000000+00:00</time></trkpt><trkpt lat="44.727108" lon="33.840221"><ele>117.4</ele><time>2011-10-10T07:34:27.0000000+00:00</time></trkpt><trkpt lat="44.727108" lon="33.840221"><ele>117.4</ele><time>2011-10-10T07:34:32.0000000+00:00</time></trkpt><trkpt lat="44.727108" lon="33.840221"><ele>117.4</ele><time>2011-10-10T07:34:37.0000000+00:00</time></trkpt><trkpt lat="44.727108" lon="33.840221"><ele>117.4</ele><time>2011-10-10T07:34:42.0000000+00:00</time></trkpt><trkpt lat="44.727108" lon="33.840221"><ele>117.4</ele><time>2011-10-10T07:34:47.0000000+00:00</time></trkpt><trkpt lat="44.727108" lon="33.840221"><ele>117.4</ele><time>2011-10-10T07:34:52.0000000+00:00</time></trkpt><trkpt lat="44.727108" lon="33.840221"><ele>117.5</ele><time>2011-10-10T07:34:57.0000000+00:00</time></trkpt><trkpt lat="44.727108" lon="33.840221"><ele>117.5</ele><time>2011-10-10T07:35:02.0000000+00:00</time></trkpt><trkpt lat="44.727108" lon="33.840221"><ele>117.5</ele><time>2011-10-10T07:35:07.0000000+00:00</time></trkpt><trkpt lat="44.727108" lon="33.840221"><ele>117.5</ele><time>2011-10-10T07:35:12.0000000+00:00</time></trkpt><trkpt lat="44.727108" lon="33.840221"><ele>117.6</ele><time>2011-10-10T07:35:17.0000000+00:00</time></trkpt><trkpt lat="44.727108" lon="33.840225"><ele>117.6</ele><time>2011-10-10T07:35:22.0000000+00:00</time></trkpt><trkpt lat="44.727108" lon="33.840225"><ele>117.6</ele><time>2011-10-10T07:35:27.0000000+00:00</time></trkpt><trkpt lat="44.727108" lon="33.840221"><ele>117.7</ele><time>2011-10-10T07:35:32.0000000+00:00</time></trkpt><trkpt lat="44.727108" lon="33.840221"><ele>117.7</ele><time>2011-10-10T07:35:37.0000000+00:00</time></trkpt><trkpt lat="44.727108" lon="33.840221"><ele>117.7</ele><time>2011-10-10T07:35:42.0000000+00:00</time></trkpt><trkpt lat="44.727108" lon="33.840221"><ele>117.7</ele><time>2011-10-10T07:35:47.0000000+00:00</time></trkpt><trkpt lat="44.727108" lon="33.840221"><ele>117.8</ele><time>2011-10-10T07:35:52.0000000+00:00</time></trkpt><trkpt lat="44.727112" lon="33.840221"><ele>117.7</ele><time>2011-10-10T07:35:57.0000000+00:00</time></trkpt><trkpt lat="44.727112" lon="33.840221"><ele>117.7</ele><time>2011-10-10T07:36:02.0000000+00:00</time></trkpt><trkpt lat="44.727112" lon="33.840221"><ele>117.7</ele><time>2011-10-10T07:36:07.0000000+00:00</time></trkpt><trkpt lat="44.727112" lon="33.840221"><ele>117.7</ele><time>2011-10-10T07:36:12.0000000+00:00</time></trkpt><trkpt lat="44.727116" lon="33.840252"><ele>117.6</ele><time>2011-10-10T07:36:17.0000000+00:00</time></trkpt><trkpt lat="44.727108" lon="33.840263"><ele>117.0</ele><time>2011-10-10T07:36:22.0000000+00:00</time></trkpt><trkpt lat="44.727108" lon="33.840263"><ele>116.7</ele><time>2011-10-10T07:36:27.0000000+00:00</time></trkpt><trkpt lat="44.727108" lon="33.840263"><ele>116.6</ele><time>2011-10-10T07:36:32.0000000+00:00</time></trkpt><trkpt lat="44.727108" lon="33.840263"><ele>116.6</ele><time>2011-10-10T07:36:37.0000000+00:00</time></trkpt><trkpt lat="44.727108" lon="33.840267"><ele>116.6</ele><time>2011-10-10T07:36:42.0000000+00:00</time></trkpt><trkpt lat="44.727108" lon="33.840267"><ele>116.6</ele><time>2011-10-10T07:36:47.0000000+00:00</time></trkpt><trkpt lat="44.727108" lon="33.840267"><ele>116.6</ele><time>2011-10-10T07:36:52.0000000+00:00</time></trkpt><trkpt lat="44.727108" lon="33.840267"><ele>116.6</ele><time>2011-10-10T07:36:57.0000000+00:00</time></trkpt><trkpt lat="44.727108" lon="33.840267"><ele>116.6</ele><time>2011-10-10T07:37:02.0000000+00:00</time></trkpt><trkpt lat="44.727108" lon="33.840267"><ele>116.6</ele><time>2011-10-10T07:37:07.0000000+00:00</time></trkpt><trkpt lat="44.727108" lon="33.840267"><ele>116.6</ele><time>2011-10-10T07:37:12.0000000+00:00</time></trkpt><trkpt lat="44.727108" lon="33.840267"><ele>116.6</ele><time>2011-10-10T07:37:17.0000000+00:00</time></trkpt><trkpt lat="44.727108" lon="33.840267"><ele>116.6</ele><time>2011-10-10T07:37:22.0000000+00:00</time></trkpt><trkpt lat="44.727108" lon="33.840267"><ele>116.6</ele><time>2011-10-10T07:37:27.0000000+00:00</time></trkpt><trkpt lat="44.727108" lon="33.840267"><ele>116.6</ele><time>2011-10-10T07:37:32.0000000+00:00</time></trkpt><trkpt lat="44.727104" lon="33.840267"><ele>116.6</ele><time>2011-10-10T07:37:37.0000000+00:00</time></trkpt><trkpt lat="44.727104" lon="33.840267"><ele>116.6</ele><time>2011-10-10T07:37:42.0000000+00:00</time></trkpt><trkpt lat="44.727104" lon="33.840267"><ele>116.7</ele><time>2011-10-10T07:37:47.0000000+00:00</time></trkpt><trkpt lat="44.727104" lon="33.840267"><ele>116.7</ele><time>2011-10-10T07:37:52.0000000+00:00</time></trkpt><trkpt lat="44.727104" lon="33.840267"><ele>116.7</ele><time>2011-10-10T07:37:57.0000000+00:00</time></trkpt><trkpt lat="44.727104" lon="33.840271"><ele>116.7</ele><time>2011-10-10T07:38:02.0000000+00:00</time></trkpt><trkpt lat="44.727104" lon="33.840271"><ele>116.7</ele><time>2011-10-10T07:38:07.0000000+00:00</time></trkpt><trkpt lat="44.727104" lon="33.840271"><ele>116.8</ele><time>2011-10-10T07:38:12.0000000+00:00</time></trkpt><trkpt lat="44.727104" lon="33.840271"><ele>116.8</ele><time>2011-10-10T07:38:17.0000000+00:00</time></trkpt><trkpt lat="44.727104" lon="33.840271"><ele>116.8</ele><time>2011-10-10T07:38:22.0000000+00:00</time></trkpt><trkpt lat="44.727104" lon="33.840271"><ele>116.8</ele><time>2011-10-10T07:38:27.0000000+00:00</time></trkpt><trkpt lat="44.727104" lon="33.840271"><ele>116.8</ele><time>2011-10-10T07:38:32.0000000+00:00</time></trkpt><trkpt lat="44.727104" lon="33.840271"><ele>116.8</ele><time>2011-10-10T07:38:37.0000000+00:00</time></trkpt><trkpt lat="44.727104" lon="33.840271"><ele>116.9</ele><time>2011-10-10T07:38:42.0000000+00:00</time></trkpt><trkpt lat="44.727104" lon="33.840271"><ele>116.9</ele><time>2011-10-10T07:38:47.0000000+00:00</time></trkpt><trkpt lat="44.727104" lon="33.840271"><ele>116.9</ele><time>2011-10-10T07:38:52.0000000+00:00</time></trkpt><trkpt lat="44.727104" lon="33.840271"><ele>117.0</ele><time>2011-10-10T07:38:57.0000000+00:00</time></trkpt><trkpt lat="44.727104" lon="33.840271"><ele>117.0</ele><time>2011-10-10T07:39:02.0000000+00:00</time></trkpt><trkpt lat="44.727104" lon="33.840271"><ele>117.1</ele><time>2011-10-10T07:39:07.0000000+00:00</time></trkpt><trkpt lat="44.727104" lon="33.840271"><ele>117.1</ele><time>2011-10-10T07:39:12.0000000+00:00</time></trkpt><trkpt lat="44.727104" lon="33.840271"><ele>117.1</ele><time>2011-10-10T07:39:17.0000000+00:00</time></trkpt><trkpt lat="44.727104" lon="33.840271"><ele>117.1</ele><time>2011-10-10T07:39:22.0000000+00:00</time></trkpt><trkpt lat="44.727104" lon="33.840271"><ele>117.1</ele><time>2011-10-10T07:39:27.0000000+00:00</time></trkpt><trkpt lat="44.727104" lon="33.840271"><ele>117.1</ele><time>2011-10-10T07:39:32.0000000+00:00</time></trkpt><trkpt lat="44.727119" lon="33.840328"><ele>118.0</ele><time>2011-10-10T07:39:37.0000000+00:00</time></trkpt><trkpt lat="44.727165" lon="33.84042"><ele>118.7</ele><time>2011-10-10T07:39:42.0000000+00:00</time></trkpt><trkpt lat="44.727226" lon="33.840466"><ele>118.5</ele><time>2011-10-10T07:39:47.0000000+00:00</time></trkpt><trkpt lat="44.727318" lon="33.840576"><ele>118.9</ele><time>2011-10-10T07:39:52.0000000+00:00</time></trkpt><trkpt lat="44.727421" lon="33.840721"><ele>118.5</ele><time>2011-10-10T07:39:57.0000000+00:00</time></trkpt><trkpt lat="44.727524" lon="33.840862"><ele>117.3</ele><time>2011-10-10T07:40:02.0000000+00:00</time></trkpt><trkpt lat="44.727654" lon="33.841007"><ele>117.6</ele><time>2011-10-10T07:40:07.0000000+00:00</time></trkpt><trkpt lat="44.727768" lon="33.841164"><ele>117.9</ele><time>2011-10-10T07:40:12.0000000+00:00</time></trkpt><trkpt lat="44.727856" lon="33.841293"><ele>115.2</ele><time>2011-10-10T07:40:17.0000000+00:00</time></trkpt><trkpt lat="44.727962" lon="33.841404"><ele>114.7</ele><time>2011-10-10T07:40:22.0000000+00:00</time></trkpt><trkpt lat="44.72802" lon="33.841545"><ele>117.7</ele><time>2011-10-10T07:40:27.0000000+00:00</time></trkpt><trkpt lat="44.728031" lon="33.841743"><ele>119.2</ele><time>2011-10-10T07:40:32.0000000+00:00</time></trkpt><trkpt lat="44.728085" lon="33.841976"><ele>122.1</ele><time>2011-10-10T07:40:37.0000000+00:00</time></trkpt><trkpt lat="44.7281" lon="33.8423"><ele>121.4</ele><time>2011-10-10T07:40:42.0000000+00:00</time></trkpt><trkpt lat="44.728142" lon="33.842522"><ele>121.3</ele><time>2011-10-10T07:40:47.0000000+00:00</time></trkpt><trkpt lat="44.728252" lon="33.842686"><ele>124.9</ele><time>2011-10-10T07:40:52.0000000+00:00</time></trkpt><trkpt lat="44.728329" lon="33.842884"><ele>125.3</ele><time>2011-10-10T07:40:57.0000000+00:00</time></trkpt><trkpt lat="44.728367" lon="33.843098"><ele>126.1</ele><time>2011-10-10T07:41:02.0000000+00:00</time></trkpt><trkpt lat="44.728363" lon="33.843311"><ele>127.6</ele><time>2011-10-10T07:41:07.0000000+00:00</time></trkpt><trkpt lat="44.728382" lon="33.843529"><ele>125.8</ele><time>2011-10-10T07:41:12.0000000+00:00</time></trkpt><trkpt lat="44.72842" lon="33.843746"><ele>126.0</ele><time>2011-10-10T07:41:17.0000000+00:00</time></trkpt><trkpt lat="44.728455" lon="33.84396"><ele>126.5</ele><time>2011-10-10T07:41:22.0000000+00:00</time></trkpt><trkpt lat="44.728485" lon="33.844181"><ele>127.6</ele><time>2011-10-10T07:41:27.0000000+00:00</time></trkpt><trkpt lat="44.728516" lon="33.844402"><ele>129.9</ele><time>2011-10-10T07:41:32.0000000+00:00</time></trkpt><trkpt lat="44.728527" lon="33.844627"><ele>131.1</ele><time>2011-10-10T07:41:37.0000000+00:00</time></trkpt><trkpt lat="44.728508" lon="33.844845"><ele>131.0</ele><time>2011-10-10T07:41:42.0000000+00:00</time></trkpt><trkpt lat="44.728462" lon="33.845074"><ele>130.5</ele><time>2011-10-10T07:41:47.0000000+00:00</time></trkpt><trkpt lat="44.728413" lon="33.845291"><ele>130.7</ele><time>2011-10-10T07:41:52.0000000+00:00</time></trkpt><trkpt lat="44.728363" lon="33.845486"><ele>130.9</ele><time>2011-10-10T07:41:57.0000000+00:00</time></trkpt><trkpt lat="44.728321" lon="33.845688"><ele>131.6</ele><time>2011-10-10T07:42:02.0000000+00:00</time></trkpt><trkpt lat="44.728344" lon="33.845921"><ele>132.9</ele><time>2011-10-10T07:42:07.0000000+00:00</time></trkpt><trkpt lat="44.728371" lon="33.846142"><ele>132.9</ele><time>2011-10-10T07:42:12.0000000+00:00</time></trkpt><trkpt lat="44.728416" lon="33.846344"><ele>131.7</ele><time>2011-10-10T07:42:17.0000000+00:00</time></trkpt><trkpt lat="44.728474" lon="33.846527"><ele>131.1</ele><time>2011-10-10T07:42:22.0000000+00:00</time></trkpt><trkpt lat="44.728519" lon="33.84668"><ele>131.2</ele><time>2011-10-10T07:42:27.0000000+00:00</time></trkpt><trkpt lat="44.728577" lon="33.846798"><ele>132.1</ele><time>2011-10-10T07:42:32.0000000+00:00</time></trkpt><trkpt lat="44.728672" lon="33.846859"><ele>133.2</ele><time>2011-10-10T07:42:37.0000000+00:00</time></trkpt><trkpt lat="44.72879" lon="33.846905"><ele>133.3</ele><time>2011-10-10T07:42:42.0000000+00:00</time></trkpt><trkpt lat="44.728916" lon="33.84692"><ele>135.0</ele><time>2011-10-10T07:42:47.0000000+00:00</time></trkpt><trkpt lat="44.729023" lon="33.846928"><ele>136.3</ele><time>2011-10-10T07:42:52.0000000+00:00</time></trkpt><trkpt lat="44.729149" lon="33.846931"><ele>136.3</ele><time>2011-10-10T07:42:57.0000000+00:00</time></trkpt><trkpt lat="44.729305" lon="33.846947"><ele>136.5</ele><time>2011-10-10T07:43:02.0000000+00:00</time></trkpt><trkpt lat="44.729454" lon="33.846966"><ele>136.7</ele><time>2011-10-10T07:43:07.0000000+00:00</time></trkpt><trkpt lat="44.729542" lon="33.846977"><ele>136.5</ele><time>2011-10-10T07:43:12.0000000+00:00</time></trkpt><trkpt lat="44.729637" lon="33.847008"><ele>136.4</ele><time>2011-10-10T07:43:17.0000000+00:00</time></trkpt><trkpt lat="44.729759" lon="33.847027"><ele>136.0</ele><time>2011-10-10T07:43:22.0000000+00:00</time></trkpt><trkpt lat="44.729885" lon="33.847031"><ele>135.2</ele><time>2011-10-10T07:43:27.0000000+00:00</time></trkpt><trkpt lat="44.730026" lon="33.847042"><ele>134.9</ele><time>2011-10-10T07:43:32.0000000+00:00</time></trkpt><trkpt lat="44.730122" lon="33.847061"><ele>134.4</ele><time>2011-10-10T07:43:37.0000000+00:00</time></trkpt><trkpt lat="44.730232" lon="33.847069"><ele>134.4</ele><time>2011-10-10T07:43:42.0000000+00:00</time></trkpt><trkpt lat="44.730293" lon="33.847092"><ele>134.1</ele><time>2011-10-10T07:43:47.0000000+00:00</time></trkpt><trkpt lat="44.730293" lon="33.847095"><ele>134.0</ele><time>2011-10-10T07:43:52.0000000+00:00</time></trkpt><trkpt lat="44.730293" lon="33.847095"><ele>134.1</ele><time>2011-10-10T07:43:57.0000000+00:00</time></trkpt><trkpt lat="44.730293" lon="33.847095"><ele>134.0</ele><time>2011-10-10T07:44:02.0000000+00:00</time></trkpt><trkpt lat="44.730293" lon="33.847095"><ele>134.0</ele><time>2011-10-10T07:44:07.0000000+00:00</time></trkpt><trkpt lat="44.730293" lon="33.847099"><ele>134.0</ele><time>2011-10-10T07:44:12.0000000+00:00</time></trkpt><trkpt lat="44.730293" lon="33.847099"><ele>134.0</ele><time>2011-10-10T07:44:17.0000000+00:00</time></trkpt><trkpt lat="44.730293" lon="33.847099"><ele>134.0</ele><time>2011-10-10T07:44:22.0000000+00:00</time></trkpt><trkpt lat="44.730293" lon="33.847099"><ele>134.0</ele><time>2011-10-10T07:44:27.0000000+00:00</time></trkpt><trkpt lat="44.730293" lon="33.847099"><ele>134.0</ele><time>2011-10-10T07:44:32.0000000+00:00</time></trkpt><trkpt lat="44.730293" lon="33.847099"><ele>134.0</ele><time>2011-10-10T07:44:37.0000000+00:00</time></trkpt><trkpt lat="44.730293" lon="33.847103"><ele>134.2</ele><time>2011-10-10T07:44:42.0000000+00:00</time></trkpt><trkpt lat="44.730293" lon="33.847103"><ele>134.2</ele><time>2011-10-10T07:44:47.0000000+00:00</time></trkpt><trkpt lat="44.730293" lon="33.847103"><ele>134.2</ele><time>2011-10-10T07:44:52.0000000+00:00</time></trkpt><trkpt lat="44.730293" lon="33.847103"><ele>134.2</ele><time>2011-10-10T07:44:57.0000000+00:00</time></trkpt><trkpt lat="44.730293" lon="33.847099"><ele>134.2</ele><time>2011-10-10T07:45:02.0000000+00:00</time></trkpt><trkpt lat="44.730293" lon="33.847103"><ele>134.1</ele><time>2011-10-10T07:45:07.0000000+00:00</time></trkpt><trkpt lat="44.730293" lon="33.847103"><ele>134.1</ele><time>2011-10-10T07:45:12.0000000+00:00</time></trkpt><trkpt lat="44.730293" lon="33.847103"><ele>134.1</ele><time>2011-10-10T07:45:17.0000000+00:00</time></trkpt><trkpt lat="44.730293" lon="33.847103"><ele>134.1</ele><time>2011-10-10T07:45:22.0000000+00:00</time></trkpt><trkpt lat="44.730293" lon="33.847103"><ele>134.2</ele><time>2011-10-10T07:45:27.0000000+00:00</time></trkpt><trkpt lat="44.730293" lon="33.847103"><ele>134.2</ele><time>2011-10-10T07:45:32.0000000+00:00</time></trkpt><trkpt lat="44.730293" lon="33.847103"><ele>134.2</ele><time>2011-10-10T07:45:37.0000000+00:00</time></trkpt><trkpt lat="44.730293" lon="33.847103"><ele>134.2</ele><time>2011-10-10T07:45:42.0000000+00:00</time></trkpt><trkpt lat="44.730293" lon="33.847103"><ele>134.2</ele><time>2011-10-10T07:45:47.0000000+00:00</time></trkpt><trkpt lat="44.730297" lon="33.847103"><ele>134.2</ele><time>2011-10-10T07:45:52.0000000+00:00</time></trkpt><trkpt lat="44.730301" lon="33.847065"><ele>134.2</ele><time>2011-10-10T07:45:57.0000000+00:00</time></trkpt><trkpt lat="44.73016" lon="33.847019"><ele>134.9</ele><time>2011-10-10T07:46:02.0000000+00:00</time></trkpt><trkpt lat="44.729961" lon="33.846973"><ele>135.1</ele><time>2011-10-10T07:46:07.0000000+00:00</time></trkpt><trkpt lat="44.729786" lon="33.846943"><ele>135.8</ele><time>2011-10-10T07:46:12.0000000+00:00</time></trkpt><trkpt lat="44.729603" lon="33.846916"><ele>135.3</ele><time>2011-10-10T07:46:17.0000000+00:00</time></trkpt><trkpt lat="44.729431" lon="33.846897"><ele>134.2</ele><time>2011-10-10T07:46:22.0000000+00:00</time></trkpt><trkpt lat="44.729275" lon="33.84687"><ele>133.0</ele><time>2011-10-10T07:46:27.0000000+00:00</time></trkpt><trkpt lat="44.72913" lon="33.846817"><ele>131.8</ele><time>2011-10-10T07:46:32.0000000+00:00</time></trkpt><trkpt lat="44.729046" lon="33.846832"><ele>131.5</ele><time>2011-10-10T07:46:37.0000000+00:00</time></trkpt><trkpt lat="44.729046" lon="33.846909"><ele>131.1</ele><time>2011-10-10T07:46:42.0000000+00:00</time></trkpt><trkpt lat="44.729042" lon="33.846897"><ele>130.7</ele><time>2011-10-10T07:46:47.0000000+00:00</time></trkpt><trkpt lat="44.729031" lon="33.846909"><ele>130.2</ele><time>2011-10-10T07:46:52.0000000+00:00</time></trkpt><trkpt lat="44.729031" lon="33.846912"><ele>130.2</ele><time>2011-10-10T07:46:57.0000000+00:00</time></trkpt><trkpt lat="44.729034" lon="33.846905"><ele>130.1</ele><time>2011-10-10T07:47:02.0000000+00:00</time></trkpt><trkpt lat="44.729034" lon="33.846901"><ele>130.1</ele><time>2011-10-10T07:47:07.0000000+00:00</time></trkpt><trkpt lat="44.729034" lon="33.846897"><ele>130.1</ele><time>2011-10-10T07:47:12.0000000+00:00</time></trkpt><trkpt lat="44.729034" lon="33.846893"><ele>130.1</ele><time>2011-10-10T07:47:17.0000000+00:00</time></trkpt><trkpt lat="44.729034" lon="33.846897"><ele>130.1</ele><time>2011-10-10T07:47:22.0000000+00:00</time></trkpt><trkpt lat="44.729034" lon="33.846901"><ele>130.1</ele><time>2011-10-10T07:47:27.0000000+00:00</time></trkpt><trkpt lat="44.729034" lon="33.846909"><ele>130.1</ele><time>2011-10-10T07:47:32.0000000+00:00</time></trkpt><trkpt lat="44.729034" lon="33.846909"><ele>130.1</ele><time>2011-10-10T07:47:37.0000000+00:00</time></trkpt><trkpt lat="44.729034" lon="33.846909"><ele>130.1</ele><time>2011-10-10T07:47:42.0000000+00:00</time></trkpt><trkpt lat="44.729034" lon="33.846909"><ele>130.1</ele><time>2011-10-10T07:47:47.0000000+00:00</time></trkpt><trkpt lat="44.729034" lon="33.846909"><ele>130.1</ele><time>2011-10-10T07:47:52.0000000+00:00</time></trkpt><trkpt lat="44.729034" lon="33.846909"><ele>130.1</ele><time>2011-10-10T07:47:57.0000000+00:00</time></trkpt><trkpt lat="44.729034" lon="33.846912"><ele>130.1</ele><time>2011-10-10T07:48:02.0000000+00:00</time></trkpt><trkpt lat="44.729034" lon="33.846912"><ele>130.1</ele><time>2011-10-10T07:48:07.0000000+00:00</time></trkpt><trkpt lat="44.729034" lon="33.846912"><ele>130.1</ele><time>2011-10-10T07:48:12.0000000+00:00</time></trkpt><trkpt lat="44.729076" lon="33.846905"><ele>129.9</ele><time>2011-10-10T07:48:17.0000000+00:00</time></trkpt><trkpt lat="44.72924" lon="33.846931"><ele>130.3</ele><time>2011-10-10T07:48:22.0000000+00:00</time></trkpt><trkpt lat="44.729427" lon="33.846958"><ele>130.3</ele><time>2011-10-10T07:48:27.0000000+00:00</time></trkpt><trkpt lat="44.729622" lon="33.846985"><ele>130.6</ele><time>2011-10-10T07:48:32.0000000+00:00</time></trkpt><trkpt lat="44.729851" lon="33.847023"><ele>131.4</ele><time>2011-10-10T07:48:37.0000000+00:00</time></trkpt><trkpt lat="44.73011" lon="33.847065"><ele>131.3</ele><time>2011-10-10T07:48:42.0000000+00:00</time></trkpt><trkpt lat="44.730396" lon="33.847088"><ele>131.0</ele><time>2011-10-10T07:48:47.0000000+00:00</time></trkpt><trkpt lat="44.730682" lon="33.847126"><ele>130.7</ele><time>2011-10-10T07:48:52.0000000+00:00</time></trkpt><trkpt lat="44.730923" lon="33.847153"><ele>132.0</ele><time>2011-10-10T07:48:57.0000000+00:00</time></trkpt><trkpt lat="44.731159" lon="33.847198"><ele>132.4</ele><time>2011-10-10T07:49:02.0000000+00:00</time></trkpt><trkpt lat="44.731468" lon="33.84724"><ele>131.6</ele><time>2011-10-10T07:49:07.0000000+00:00</time></trkpt><trkpt lat="44.731766" lon="33.84729"><ele>132.9</ele><time>2011-10-10T07:49:12.0000000+00:00</time></trkpt><trkpt lat="44.732052" lon="33.847324"><ele>133.2</ele><time>2011-10-10T07:49:17.0000000+00:00</time></trkpt><trkpt lat="44.732319" lon="33.847378"><ele>133.4</ele><time>2011-10-10T07:49:22.0000000+00:00</time></trkpt><trkpt lat="44.732635" lon="33.847393"><ele>136.2</ele><time>2011-10-10T07:49:27.0000000+00:00</time></trkpt><trkpt lat="44.73291" lon="33.847412"><ele>138.3</ele><time>2011-10-10T07:49:32.0000000+00:00</time></trkpt><trkpt lat="44.733181" lon="33.847446"><ele>138.1</ele><time>2011-10-10T07:49:37.0000000+00:00</time></trkpt><trkpt lat="44.733479" lon="33.847492"><ele>138.1</ele><time>2011-10-10T07:49:42.0000000+00:00</time></trkpt><trkpt lat="44.733738" lon="33.847519"><ele>138.2</ele><time>2011-10-10T07:49:47.0000000+00:00</time></trkpt><trkpt lat="44.733967" lon="33.847542"><ele>139.0</ele><time>2011-10-10T07:49:52.0000000+00:00</time></trkpt><trkpt lat="44.734222" lon="33.847591"><ele>138.8</ele><time>2011-10-10T07:49:57.0000000+00:00</time></trkpt><trkpt lat="44.73439" lon="33.847599"><ele>138.7</ele><time>2011-10-10T07:50:02.0000000+00:00</time></trkpt><trkpt lat="44.734589" lon="33.847492"><ele>139.5</ele><time>2011-10-10T07:50:07.0000000+00:00</time></trkpt><trkpt lat="44.734665" lon="33.847164"><ele>136.2</ele><time>2011-10-10T07:50:12.0000000+00:00</time></trkpt><trkpt lat="44.734634" lon="33.846764"><ele>134.7</ele><time>2011-10-10T07:50:17.0000000+00:00</time></trkpt><trkpt lat="44.734695" lon="33.846458"><ele>133.9</ele><time>2011-10-10T07:50:22.0000000+00:00</time></trkpt><trkpt lat="44.734806" lon="33.846218"><ele>133.3</ele><time>2011-10-10T07:50:27.0000000+00:00</time></trkpt><trkpt lat="44.734913" lon="33.845959"><ele>133.5</ele><time>2011-10-10T07:50:32.0000000+00:00</time></trkpt><trkpt lat="44.73502" lon="33.845707"><ele>133.0</ele><time>2011-10-10T07:50:37.0000000+00:00</time></trkpt><trkpt lat="44.7351" lon="33.845474"><ele>132.9</ele><time>2011-10-10T07:50:42.0000000+00:00</time></trkpt><trkpt lat="44.735199" lon="33.845196"><ele>133.1</ele><time>2011-10-10T07:50:47.0000000+00:00</time></trkpt><trkpt lat="44.735298" lon="33.844875"><ele>133.0</ele><time>2011-10-10T07:50:52.0000000+00:00</time></trkpt><trkpt lat="44.735409" lon="33.844543"><ele>132.8</ele><time>2011-10-10T07:50:57.0000000+00:00</time></trkpt><trkpt lat="44.735535" lon="33.844196"><ele>132.5</ele><time>2011-10-10T07:51:02.0000000+00:00</time></trkpt><trkpt lat="44.735664" lon="33.843857"><ele>132.4</ele><time>2011-10-10T07:51:07.0000000+00:00</time></trkpt><trkpt lat="44.735798" lon="33.843479"><ele>132.2</ele><time>2011-10-10T07:51:12.0000000+00:00</time></trkpt><trkpt lat="44.735909" lon="33.843094"><ele>133.8</ele><time>2011-10-10T07:51:17.0000000+00:00</time></trkpt><trkpt lat="44.736042" lon="33.842678"><ele>131.6</ele><time>2011-10-10T07:51:22.0000000+00:00</time></trkpt><trkpt lat="44.736179" lon="33.842289"><ele>131.4</ele><time>2011-10-10T07:51:27.0000000+00:00</time></trkpt><trkpt lat="44.73632" lon="33.841885"><ele>131.6</ele><time>2011-10-10T07:51:32.0000000+00:00</time></trkpt><trkpt lat="44.736454" lon="33.841518"><ele>131.0</ele><time>2011-10-10T07:51:37.0000000+00:00</time></trkpt><trkpt lat="44.736568" lon="33.841148"><ele>130.9</ele><time>2011-10-10T07:51:42.0000000+00:00</time></trkpt><trkpt lat="44.736694" lon="33.840752"><ele>131.6</ele><time>2011-10-10T07:51:47.0000000+00:00</time></trkpt><trkpt lat="44.73682" lon="33.840343"><ele>129.9</ele><time>2011-10-10T07:51:52.0000000+00:00</time></trkpt><trkpt lat="44.736946" lon="33.839947"><ele>128.6</ele><time>2011-10-10T07:51:57.0000000+00:00</time></trkpt><trkpt lat="44.737083" lon="33.839523"><ele>128.2</ele><time>2011-10-10T07:52:02.0000000+00:00</time></trkpt><trkpt lat="44.737225" lon="33.839092"><ele>128.5</ele><time>2011-10-10T07:52:07.0000000+00:00</time></trkpt><trkpt lat="44.737362" lon="33.838692"><ele>126.8</ele><time>2011-10-10T07:52:12.0000000+00:00</time></trkpt><trkpt lat="44.737495" lon="33.838276"><ele>126.2</ele><time>2011-10-10T07:52:17.0000000+00:00</time></trkpt><trkpt lat="44.737637" lon="33.837849"><ele>127.0</ele><time>2011-10-10T07:52:22.0000000+00:00</time></trkpt><trkpt lat="44.737785" lon="33.837406"><ele>126.6</ele><time>2011-10-10T07:52:27.0000000+00:00</time></trkpt><trkpt lat="44.737915" lon="33.836971"><ele>126.7</ele><time>2011-10-10T07:52:32.0000000+00:00</time></trkpt><trkpt lat="44.738026" lon="33.836693"><ele>126.4</ele><time>2011-10-10T07:52:37.0000000+00:00</time></trkpt><trkpt lat="44.738091" lon="33.836548"><ele>126.1</ele><time>2011-10-10T07:52:42.0000000+00:00</time></trkpt><trkpt lat="44.738091" lon="33.836536"><ele>125.6</ele><time>2011-10-10T07:52:47.0000000+00:00</time></trkpt><trkpt lat="44.738037" lon="33.836292"><ele>124.7</ele><time>2011-10-10T07:52:52.0000000+00:00</time></trkpt><trkpt lat="44.737858" lon="33.835979"><ele>124.4</ele><time>2011-10-10T07:52:57.0000000+00:00</time></trkpt><trkpt lat="44.73764" lon="33.835613"><ele>122.5</ele><time>2011-10-10T07:53:02.0000000+00:00</time></trkpt><trkpt lat="44.737419" lon="33.83522"><ele>120.4</ele><time>2011-10-10T07:53:07.0000000+00:00</time></trkpt><trkpt lat="44.737179" lon="33.834801"><ele>117.2</ele><time>2011-10-10T07:53:12.0000000+00:00</time></trkpt><trkpt lat="44.736942" lon="33.834389"><ele>115.8</ele><time>2011-10-10T07:53:17.0000000+00:00</time></trkpt><trkpt lat="44.736706" lon="33.833969"><ele>116.4</ele><time>2011-10-10T07:53:22.0000000+00:00</time></trkpt><trkpt lat="44.736477" lon="33.833569"><ele>118.0</ele><time>2011-10-10T07:53:27.0000000+00:00</time></trkpt><trkpt lat="44.736252" lon="33.833172"><ele>118.6</ele><time>2011-10-10T07:53:32.0000000+00:00</time></trkpt><trkpt lat="44.736027" lon="33.832783"><ele>119.3</ele><time>2011-10-10T07:53:37.0000000+00:00</time></trkpt><trkpt lat="44.735802" lon="33.83239"><ele>118.2</ele><time>2011-10-10T07:53:42.0000000+00:00</time></trkpt><trkpt lat="44.735588" lon="33.832005"><ele>118.8</ele><time>2011-10-10T07:53:47.0000000+00:00</time></trkpt><trkpt lat="44.735371" lon="33.831619"><ele>117.3</ele><time>2011-10-10T07:53:52.0000000+00:00</time></trkpt><trkpt lat="44.735157" lon="33.831226"><ele>116.7</ele><time>2011-10-10T07:53:57.0000000+00:00</time></trkpt><trkpt lat="44.734936" lon="33.830845"><ele>115.0</ele><time>2011-10-10T07:54:02.0000000+00:00</time></trkpt><trkpt lat="44.734707" lon="33.830452"><ele>115.6</ele><time>2011-10-10T07:54:07.0000000+00:00</time></trkpt><trkpt lat="44.734474" lon="33.830055"><ele>115.7</ele><time>2011-10-10T07:54:12.0000000+00:00</time></trkpt><trkpt lat="44.73423" lon="33.82962"><ele>113.1</ele><time>2011-10-10T07:54:17.0000000+00:00</time></trkpt><trkpt lat="44.733959" lon="33.829155"><ele>111.1</ele><time>2011-10-10T07:54:22.0000000+00:00</time></trkpt><trkpt lat="44.733685" lon="33.828678"><ele>110.3</ele><time>2011-10-10T07:54:27.0000000+00:00</time></trkpt><trkpt lat="44.733452" lon="33.828251"><ele>109.1</ele><time>2011-10-10T07:54:32.0000000+00:00</time></trkpt><trkpt lat="44.733215" lon="33.827831"><ele>109.5</ele><time>2011-10-10T07:54:37.0000000+00:00</time></trkpt><trkpt lat="44.732967" lon="33.8274"><ele>109.5</ele><time>2011-10-10T07:54:42.0000000+00:00</time></trkpt><trkpt lat="44.732723" lon="33.827007"><ele>110.4</ele><time>2011-10-10T07:54:47.0000000+00:00</time></trkpt><trkpt lat="44.732506" lon="33.826611"><ele>111.1</ele><time>2011-10-10T07:54:52.0000000+00:00</time></trkpt><trkpt lat="44.732273" lon="33.826214"><ele>112.4</ele><time>2011-10-10T07:54:57.0000000+00:00</time></trkpt><trkpt lat="44.732063" lon="33.825817"><ele>113.1</ele><time>2011-10-10T07:55:02.0000000+00:00</time></trkpt><trkpt lat="44.731831" lon="33.825417"><ele>112.8</ele><time>2011-10-10T07:55:07.0000000+00:00</time></trkpt><trkpt lat="44.731621" lon="33.825027"><ele>112.9</ele><time>2011-10-10T07:55:12.0000000+00:00</time></trkpt><trkpt lat="44.73143" lon="33.824673"><ele>113.4</ele><time>2011-10-10T07:55:17.0000000+00:00</time></trkpt><trkpt lat="44.731255" lon="33.824352"><ele>115.7</ele><time>2011-10-10T07:55:22.0000000+00:00</time></trkpt><trkpt lat="44.731102" lon="33.824047"><ele>115.1</ele><time>2011-10-10T07:55:27.0000000+00:00</time></trkpt><trkpt lat="44.73093" lon="33.823769"><ele>116.7</ele><time>2011-10-10T07:55:32.0000000+00:00</time></trkpt><trkpt lat="44.730747" lon="33.823475"><ele>119.2</ele><time>2011-10-10T07:55:37.0000000+00:00</time></trkpt><trkpt lat="44.730576" lon="33.823177"><ele>120.1</ele><time>2011-10-10T07:55:42.0000000+00:00</time></trkpt><trkpt lat="44.730408" lon="33.82291"><ele>118.4</ele><time>2011-10-10T07:55:47.0000000+00:00</time></trkpt><trkpt lat="44.730225" lon="33.822632"><ele>117.4</ele><time>2011-10-10T07:55:52.0000000+00:00</time></trkpt><trkpt lat="44.730019" lon="33.822357"><ele>117.7</ele><time>2011-10-10T07:55:57.0000000+00:00</time></trkpt><trkpt lat="44.729858" lon="33.822124"><ele>117.5</ele><time>2011-10-10T07:56:02.0000000+00:00</time></trkpt><trkpt lat="44.729668" lon="33.821869"><ele>115.6</ele><time>2011-10-10T07:56:07.0000000+00:00</time></trkpt><trkpt lat="44.729435" lon="33.82156"><ele>116.8</ele><time>2011-10-10T07:56:12.0000000+00:00</time></trkpt><trkpt lat="44.729195" lon="33.821205"><ele>114.3</ele><time>2011-10-10T07:56:17.0000000+00:00</time></trkpt><trkpt lat="44.728928" lon="33.820839"><ele>113.5</ele><time>2011-10-10T07:56:22.0000000+00:00</time></trkpt><trkpt lat="44.728672" lon="33.820496"><ele>112.3</ele><time>2011-10-10T07:56:27.0000000+00:00</time></trkpt><trkpt lat="44.728432" lon="33.82016"><ele>111.6</ele><time>2011-10-10T07:56:32.0000000+00:00</time></trkpt><trkpt lat="44.72818" lon="33.819805"><ele>111.5</ele><time>2011-10-10T07:56:37.0000000+00:00</time></trkpt><trkpt lat="44.72794" lon="33.819458"><ele>109.5</ele><time>2011-10-10T07:56:42.0000000+00:00</time></trkpt><trkpt lat="44.727703" lon="33.819126"><ele>107.9</ele><time>2011-10-10T07:56:47.0000000+00:00</time></trkpt><trkpt lat="44.727394" lon="33.818741"><ele>107.4</ele><time>2011-10-10T07:56:52.0000000+00:00</time></trkpt><trkpt lat="44.727139" lon="33.818352"><ele>106.8</ele><time>2011-10-10T07:56:57.0000000+00:00</time></trkpt><trkpt lat="44.726891" lon="33.817989"><ele>107.1</ele><time>2011-10-10T07:57:02.0000000+00:00</time></trkpt><trkpt lat="44.726604" lon="33.817612"><ele>108.4</ele><time>2011-10-10T07:57:07.0000000+00:00</time></trkpt><trkpt lat="44.726318" lon="33.817211"><ele>110.0</ele><time>2011-10-10T07:57:12.0000000+00:00</time></trkpt><trkpt lat="44.726036" lon="33.816795"><ele>110.9</ele><time>2011-10-10T07:57:17.0000000+00:00</time></trkpt><trkpt lat="44.725754" lon="33.816391"><ele>106.5</ele><time>2011-10-10T07:57:22.0000000+00:00</time></trkpt><trkpt lat="44.725487" lon="33.816002"><ele>105.1</ele><time>2011-10-10T07:57:27.0000000+00:00</time></trkpt><trkpt lat="44.725235" lon="33.815624"><ele>102.8</ele><time>2011-10-10T07:57:32.0000000+00:00</time></trkpt><trkpt lat="44.724972" lon="33.815262"><ele>100.9</ele><time>2011-10-10T07:57:37.0000000+00:00</time></trkpt><trkpt lat="44.724709" lon="33.814899"><ele>99.0</ele><time>2011-10-10T07:57:42.0000000+00:00</time></trkpt><trkpt lat="44.724442" lon="33.814526"><ele>98.3</ele><time>2011-10-10T07:57:47.0000000+00:00</time></trkpt><trkpt lat="44.724152" lon="33.814171"><ele>97.0</ele><time>2011-10-10T07:57:52.0000000+00:00</time></trkpt><trkpt lat="44.723923" lon="33.813831"><ele>95.7</ele><time>2011-10-10T07:57:57.0000000+00:00</time></trkpt><trkpt lat="44.723629" lon="33.813435"><ele>93.9</ele><time>2011-10-10T07:58:02.0000000+00:00</time></trkpt><trkpt lat="44.723354" lon="33.813049"><ele>92.5</ele><time>2011-10-10T07:58:07.0000000+00:00</time></trkpt><trkpt lat="44.723095" lon="33.812675"><ele>90.9</ele><time>2011-10-10T07:58:12.0000000+00:00</time></trkpt><trkpt lat="44.722839" lon="33.812305"><ele>90.0</ele><time>2011-10-10T07:58:17.0000000+00:00</time></trkpt><trkpt lat="44.722572" lon="33.811939"><ele>89.9</ele><time>2011-10-10T07:58:22.0000000+00:00</time></trkpt><trkpt lat="44.722298" lon="33.81155"><ele>90.9</ele><time>2011-10-10T07:58:27.0000000+00:00</time></trkpt><trkpt lat="44.722038" lon="33.811195"><ele>89.4</ele><time>2011-10-10T07:58:32.0000000+00:00</time></trkpt><trkpt lat="44.721802" lon="33.810867"><ele>89.7</ele><time>2011-10-10T07:58:37.0000000+00:00</time></trkpt><trkpt lat="44.72155" lon="33.810532"><ele>91.1</ele><time>2011-10-10T07:58:42.0000000+00:00</time></trkpt><trkpt lat="44.721321" lon="33.810192"><ele>92.8</ele><time>2011-10-10T07:58:47.0000000+00:00</time></trkpt><trkpt lat="44.721092" lon="33.809875"><ele>92.7</ele><time>2011-10-10T07:58:52.0000000+00:00</time></trkpt><trkpt lat="44.720863" lon="33.809555"><ele>95.8</ele><time>2011-10-10T07:58:57.0000000+00:00</time></trkpt><trkpt lat="44.720657" lon="33.809231"><ele>95.0</ele><time>2011-10-10T07:59:02.0000000+00:00</time></trkpt><trkpt lat="44.720467" lon="33.80896"><ele>95.2</ele><time>2011-10-10T07:59:07.0000000+00:00</time></trkpt><trkpt lat="44.720299" lon="33.808723"><ele>95.7</ele><time>2011-10-10T07:59:12.0000000+00:00</time></trkpt><trkpt lat="44.720131" lon="33.808498"><ele>95.8</ele><time>2011-10-10T07:59:17.0000000+00:00</time></trkpt><trkpt lat="44.719959" lon="33.808296"><ele>95.9</ele><time>2011-10-10T07:59:22.0000000+00:00</time></trkpt><trkpt lat="44.719795" lon="33.808144"><ele>96.0</ele><time>2011-10-10T07:59:27.0000000+00:00</time></trkpt><trkpt lat="44.719681" lon="33.808025"><ele>97.4</ele><time>2011-10-10T07:59:32.0000000+00:00</time></trkpt><trkpt lat="44.719597" lon="33.807972"><ele>98.3</ele><time>2011-10-10T07:59:37.0000000+00:00</time></trkpt><trkpt lat="44.71949" lon="33.807919"><ele>98.6</ele><time>2011-10-10T07:59:42.0000000+00:00</time></trkpt><trkpt lat="44.719349" lon="33.807835"><ele>97.9</ele><time>2011-10-10T07:59:47.0000000+00:00</time></trkpt><trkpt lat="44.719185" lon="33.807758"><ele>97.0</ele><time>2011-10-10T07:59:52.0000000+00:00</time></trkpt><trkpt lat="44.719028" lon="33.807671"><ele>96.4</ele><time>2011-10-10T07:59:57.0000000+00:00</time></trkpt><trkpt lat="44.718861" lon="33.80756"><ele>97.2</ele><time>2011-10-10T08:00:02.0000000+00:00</time></trkpt><trkpt lat="44.718681" lon="33.807446"><ele>96.9</ele><time>2011-10-10T08:00:07.0000000+00:00</time></trkpt><trkpt lat="44.718487" lon="33.807339"><ele>96.7</ele><time>2011-10-10T08:00:12.0000000+00:00</time></trkpt><trkpt lat="44.718296" lon="33.807228"><ele>96.8</ele><time>2011-10-10T08:00:17.0000000+00:00</time></trkpt><trkpt lat="44.718117" lon="33.807133"><ele>97.9</ele><time>2011-10-10T08:00:22.0000000+00:00</time></trkpt><trkpt lat="44.717937" lon="33.807022"><ele>98.2</ele><time>2011-10-10T08:00:27.0000000+00:00</time></trkpt><trkpt lat="44.717724" lon="33.806908"><ele>96.7</ele><time>2011-10-10T08:00:32.0000000+00:00</time></trkpt><trkpt lat="44.717464" lon="33.806763"><ele>95.1</ele><time>2011-10-10T08:00:37.0000000+00:00</time></trkpt><trkpt lat="44.717224" lon="33.806622"><ele>96.7</ele><time>2011-10-10T08:00:42.0000000+00:00</time></trkpt><trkpt lat="44.717007" lon="33.806492"><ele>95.6</ele><time>2011-10-10T08:00:47.0000000+00:00</time></trkpt><trkpt lat="44.716747" lon="33.806355"><ele>95.6</ele><time>2011-10-10T08:00:52.0000000+00:00</time></trkpt><trkpt lat="44.716461" lon="33.806179"><ele>96.3</ele><time>2011-10-10T08:00:57.0000000+00:00</time></trkpt><trkpt lat="44.716137" lon="33.805984"><ele>96.7</ele><time>2011-10-10T08:01:02.0000000+00:00</time></trkpt><trkpt lat="44.715801" lon="33.805794"><ele>95.9</ele><time>2011-10-10T08:01:07.0000000+00:00</time></trkpt><trkpt lat="44.715492" lon="33.805622"><ele>96.2</ele><time>2011-10-10T08:01:12.0000000+00:00</time></trkpt><trkpt lat="44.715195" lon="33.805439"><ele>96.0</ele><time>2011-10-10T08:01:17.0000000+00:00</time></trkpt><trkpt lat="44.714924" lon="33.80529"><ele>96.5</ele><time>2011-10-10T08:01:22.0000000+00:00</time></trkpt><trkpt lat="44.714722" lon="33.805199"><ele>97.7</ele><time>2011-10-10T08:01:27.0000000+00:00</time></trkpt><trkpt lat="44.714527" lon="33.805286"><ele>96.8</ele><time>2011-10-10T08:01:32.0000000+00:00</time></trkpt><trkpt lat="44.714268" lon="33.805317"><ele>97.8</ele><time>2011-10-10T08:01:37.0000000+00:00</time></trkpt><trkpt lat="44.714016" lon="33.805202"><ele>99.6</ele><time>2011-10-10T08:01:42.0000000+00:00</time></trkpt><trkpt lat="44.713776" lon="33.805073"><ele>99.7</ele><time>2011-10-10T08:01:47.0000000+00:00</time></trkpt><trkpt lat="44.71352" lon="33.804916"><ele>100.6</ele><time>2011-10-10T08:01:52.0000000+00:00</time></trkpt><trkpt lat="44.713249" lon="33.804768"><ele>102.6</ele><time>2011-10-10T08:01:57.0000000+00:00</time></trkpt><trkpt lat="44.712978" lon="33.804626"><ele>102.7</ele><time>2011-10-10T08:02:02.0000000+00:00</time></trkpt><trkpt lat="44.712715" lon="33.804482"><ele>103.7</ele><time>2011-10-10T08:02:07.0000000+00:00</time></trkpt><trkpt lat="44.712429" lon="33.804329"><ele>104.2</ele><time>2011-10-10T08:02:12.0000000+00:00</time></trkpt><trkpt lat="44.712132" lon="33.804165"><ele>105.0</ele><time>2011-10-10T08:02:17.0000000+00:00</time></trkpt><trkpt lat="44.711819" lon="33.804001"><ele>104.5</ele><time>2011-10-10T08:02:22.0000000+00:00</time></trkpt><trkpt lat="44.711506" lon="33.803814"><ele>105.2</ele><time>2011-10-10T08:02:27.0000000+00:00</time></trkpt><trkpt lat="44.711189" lon="33.803623"><ele>106.0</ele><time>2011-10-10T08:02:32.0000000+00:00</time></trkpt><trkpt lat="44.710884" lon="33.803448"><ele>106.9</ele><time>2011-10-10T08:02:37.0000000+00:00</time></trkpt><trkpt lat="44.710587" lon="33.803284"><ele>107.7</ele><time>2011-10-10T08:02:42.0000000+00:00</time></trkpt><trkpt lat="44.710316" lon="33.803123"><ele>108.3</ele><time>2011-10-10T08:02:47.0000000+00:00</time></trkpt><trkpt lat="44.710091" lon="33.802998"><ele>109.4</ele><time>2011-10-10T08:02:52.0000000+00:00</time></trkpt><trkpt lat="44.709835" lon="33.80286"><ele>108.7</ele><time>2011-10-10T08:02:57.0000000+00:00</time></trkpt><trkpt lat="44.709549" lon="33.802692"><ele>108.4</ele><time>2011-10-10T08:03:02.0000000+00:00</time></trkpt><trkpt lat="44.709312" lon="33.802551"><ele>109.3</ele><time>2011-10-10T08:03:07.0000000+00:00</time></trkpt><trkpt lat="44.709114" lon="33.802433"><ele>109.5</ele><time>2011-10-10T08:03:12.0000000+00:00</time></trkpt><trkpt lat="44.708908" lon="33.802311"><ele>110.4</ele><time>2011-10-10T08:03:17.0000000+00:00</time></trkpt><trkpt lat="44.708683" lon="33.802158"><ele>109.9</ele><time>2011-10-10T08:03:22.0000000+00:00</time></trkpt><trkpt lat="44.708439" lon="33.802021"><ele>110.4</ele><time>2011-10-10T08:03:27.0000000+00:00</time></trkpt><trkpt lat="44.708179" lon="33.801872"><ele>111.0</ele><time>2011-10-10T08:03:32.0000000+00:00</time></trkpt><trkpt lat="44.707909" lon="33.801704"><ele>111.0</ele><time>2011-10-10T08:03:37.0000000+00:00</time></trkpt><trkpt lat="44.707619" lon="33.801537"><ele>111.2</ele><time>2011-10-10T08:03:42.0000000+00:00</time></trkpt><trkpt lat="44.70734" lon="33.801373"><ele>111.9</ele><time>2011-10-10T08:03:47.0000000+00:00</time></trkpt><trkpt lat="44.7071" lon="33.801239"><ele>112.1</ele><time>2011-10-10T08:03:52.0000000+00:00</time></trkpt><trkpt lat="44.706844" lon="33.801094"><ele>112.1</ele><time>2011-10-10T08:03:57.0000000+00:00</time></trkpt><trkpt lat="44.706585" lon="33.800938"><ele>111.9</ele><time>2011-10-10T08:04:02.0000000+00:00</time></trkpt><trkpt lat="44.706341" lon="33.800797"><ele>111.8</ele><time>2011-10-10T08:04:07.0000000+00:00</time></trkpt><trkpt lat="44.706085" lon="33.800671"><ele>112.0</ele><time>2011-10-10T08:04:12.0000000+00:00</time></trkpt><trkpt lat="44.705845" lon="33.800591"><ele>112.2</ele><time>2011-10-10T08:04:17.0000000+00:00</time></trkpt><trkpt lat="44.705624" lon="33.800549"><ele>112.0</ele><time>2011-10-10T08:04:22.0000000+00:00</time></trkpt><trkpt lat="44.705402" lon="33.80051"><ele>112.5</ele><time>2011-10-10T08:04:27.0000000+00:00</time></trkpt><trkpt lat="44.705162" lon="33.800442"><ele>113.2</ele><time>2011-10-10T08:04:32.0000000+00:00</time></trkpt><trkpt lat="44.704922" lon="33.800354"><ele>113.7</ele><time>2011-10-10T08:04:37.0000000+00:00</time></trkpt><trkpt lat="44.704685" lon="33.800194"><ele>114.3</ele><time>2011-10-10T08:04:42.0000000+00:00</time></trkpt><trkpt lat="44.704464" lon="33.799957"><ele>114.7</ele><time>2011-10-10T08:04:47.0000000+00:00</time></trkpt><trkpt lat="44.704254" lon="33.799717"><ele>115.1</ele><time>2011-10-10T08:04:52.0000000+00:00</time></trkpt><trkpt lat="44.704021" lon="33.799492"><ele>114.7</ele><time>2011-10-10T08:04:57.0000000+00:00</time></trkpt><trkpt lat="44.703777" lon="33.799332"><ele>114.7</ele><time>2011-10-10T08:05:02.0000000+00:00</time></trkpt><trkpt lat="44.703552" lon="33.799129"><ele>115.7</ele><time>2011-10-10T08:05:07.0000000+00:00</time></trkpt><trkpt lat="44.70335" lon="33.798931"><ele>116.5</ele><time>2011-10-10T08:05:12.0000000+00:00</time></trkpt><trkpt lat="44.703136" lon="33.798698"><ele>116.9</ele><time>2011-10-10T08:05:17.0000000+00:00</time></trkpt><trkpt lat="44.702896" lon="33.798439"><ele>117.2</ele><time>2011-10-10T08:05:22.0000000+00:00</time></trkpt><trkpt lat="44.702652" lon="33.798172"><ele>118.2</ele><time>2011-10-10T08:05:27.0000000+00:00</time></trkpt><trkpt lat="44.702415" lon="33.797897"><ele>118.6</ele><time>2011-10-10T08:05:32.0000000+00:00</time></trkpt><trkpt lat="44.702179" lon="33.797615"><ele>118.7</ele><time>2011-10-10T08:05:37.0000000+00:00</time></trkpt><trkpt lat="44.701965" lon="33.797363"><ele>118.7</ele><time>2011-10-10T08:05:42.0000000+00:00</time></trkpt><trkpt lat="44.701756" lon="33.797127"><ele>119.2</ele><time>2011-10-10T08:05:47.0000000+00:00</time></trkpt><trkpt lat="44.701561" lon="33.796894"><ele>118.8</ele><time>2011-10-10T08:05:52.0000000+00:00</time></trkpt><trkpt lat="44.701382" lon="33.796707"><ele>118.4</ele><time>2011-10-10T08:05:57.0000000+00:00</time></trkpt><trkpt lat="44.701214" lon="33.79652"><ele>117.3</ele><time>2011-10-10T08:06:02.0000000+00:00</time></trkpt><trkpt lat="44.701012" lon="33.796284"><ele>114.6</ele><time>2011-10-10T08:06:07.0000000+00:00</time></trkpt><trkpt lat="44.700768" lon="33.795975"><ele>113.1</ele><time>2011-10-10T08:06:12.0000000+00:00</time></trkpt><trkpt lat="44.7005" lon="33.795643"><ele>111.2</ele><time>2011-10-10T08:06:17.0000000+00:00</time></trkpt><trkpt lat="44.700218" lon="33.795269"><ele>108.0</ele><time>2011-10-10T08:06:22.0000000+00:00</time></trkpt><trkpt lat="44.699997" lon="33.794788"><ele>106.4</ele><time>2011-10-10T08:06:27.0000000+00:00</time></trkpt><trkpt lat="44.699924" lon="33.794258"><ele>104.8</ele><time>2011-10-10T08:06:32.0000000+00:00</time></trkpt><trkpt lat="44.699829" lon="33.793819"><ele>102.7</ele><time>2011-10-10T08:06:37.0000000+00:00</time></trkpt><trkpt lat="44.699539" lon="33.793476"><ele>103.8</ele><time>2011-10-10T08:06:42.0000000+00:00</time></trkpt><trkpt lat="44.699234" lon="33.793144"><ele>104.1</ele><time>2011-10-10T08:06:47.0000000+00:00</time></trkpt><trkpt lat="44.698936" lon="33.792816"><ele>103.8</ele><time>2011-10-10T08:06:52.0000000+00:00</time></trkpt><trkpt lat="44.698662" lon="33.792515"><ele>103.2</ele><time>2011-10-10T08:06:57.0000000+00:00</time></trkpt><trkpt lat="44.69838" lon="33.792191"><ele>103.1</ele><time>2011-10-10T08:07:02.0000000+00:00</time></trkpt><trkpt lat="44.698086" lon="33.791874"><ele>103.9</ele><time>2011-10-10T08:07:07.0000000+00:00</time></trkpt><trkpt lat="44.697792" lon="33.791557"><ele>104.2</ele><time>2011-10-10T08:07:12.0000000+00:00</time></trkpt><trkpt lat="44.697529" lon="33.791279"><ele>104.7</ele><time>2011-10-10T08:07:17.0000000+00:00</time></trkpt><trkpt lat="44.697266" lon="33.791004"><ele>104.4</ele><time>2011-10-10T08:07:22.0000000+00:00</time></trkpt><trkpt lat="44.697079" lon="33.790691"><ele>104.4</ele><time>2011-10-10T08:07:27.0000000+00:00</time></trkpt><trkpt lat="44.696945" lon="33.79047"><ele>104.7</ele><time>2011-10-10T08:07:32.0000000+00:00</time></trkpt><trkpt lat="44.696789" lon="33.790436"><ele>104.4</ele><time>2011-10-10T08:07:37.0000000+00:00</time></trkpt><trkpt lat="44.696732" lon="33.790436"><ele>104.1</ele><time>2011-10-10T08:07:42.0000000+00:00</time></trkpt><trkpt lat="44.69669" lon="33.790436"><ele>103.7</ele><time>2011-10-10T08:07:47.0000000+00:00</time></trkpt><trkpt lat="44.69669" lon="33.79044"><ele>103.6</ele><time>2011-10-10T08:07:52.0000000+00:00</time></trkpt><trkpt lat="44.69669" lon="33.790443"><ele>103.5</ele><time>2011-10-10T08:07:57.0000000+00:00</time></trkpt><trkpt lat="44.696693" lon="33.790443"><ele>103.5</ele><time>2011-10-10T08:08:02.0000000+00:00</time></trkpt><trkpt lat="44.696693" lon="33.790443"><ele>103.6</ele><time>2011-10-10T08:08:07.0000000+00:00</time></trkpt><trkpt lat="44.696693" lon="33.790443"><ele>103.6</ele><time>2011-10-10T08:08:12.0000000+00:00</time></trkpt><trkpt lat="44.696693" lon="33.790443"><ele>103.7</ele><time>2011-10-10T08:08:17.0000000+00:00</time></trkpt><trkpt lat="44.696693" lon="33.790443"><ele>103.7</ele><time>2011-10-10T08:08:22.0000000+00:00</time></trkpt><trkpt lat="44.696693" lon="33.790443"><ele>103.7</ele><time>2011-10-10T08:08:27.0000000+00:00</time></trkpt><trkpt lat="44.696693" lon="33.790447"><ele>104.6</ele><time>2011-10-10T08:08:32.0000000+00:00</time></trkpt><trkpt lat="44.696686" lon="33.790447"><ele>105.3</ele><time>2011-10-10T08:08:37.0000000+00:00</time></trkpt><trkpt lat="44.696686" lon="33.790451"><ele>105.4</ele><time>2011-10-10T08:08:42.0000000+00:00</time></trkpt><trkpt lat="44.69669" lon="33.790455"><ele>105.6</ele><time>2011-10-10T08:08:47.0000000+00:00</time></trkpt><trkpt lat="44.69669" lon="33.790462"><ele>105.8</ele><time>2011-10-10T08:08:52.0000000+00:00</time></trkpt><trkpt lat="44.69669" lon="33.790462"><ele>106.6</ele><time>2011-10-10T08:08:57.0000000+00:00</time></trkpt><trkpt lat="44.69669" lon="33.790459"><ele>107.4</ele><time>2011-10-10T08:09:02.0000000+00:00</time></trkpt><trkpt lat="44.69669" lon="33.790459"><ele>107.6</ele><time>2011-10-10T08:09:07.0000000+00:00</time></trkpt><trkpt lat="44.696686" lon="33.790459"><ele>108.4</ele><time>2011-10-10T08:09:12.0000000+00:00</time></trkpt><trkpt lat="44.696686" lon="33.790455"><ele>108.5</ele><time>2011-10-10T08:09:17.0000000+00:00</time></trkpt><trkpt lat="44.696682" lon="33.790451"><ele>108.7</ele><time>2011-10-10T08:09:22.0000000+00:00</time></trkpt><trkpt lat="44.696682" lon="33.790459"><ele>109.6</ele><time>2011-10-10T08:09:27.0000000+00:00</time></trkpt><trkpt lat="44.696686" lon="33.790455"><ele>110.0</ele><time>2011-10-10T08:09:32.0000000+00:00</time></trkpt><trkpt lat="44.696682" lon="33.790459"><ele>110.5</ele><time>2011-10-10T08:09:37.0000000+00:00</time></trkpt><trkpt lat="44.696686" lon="33.790451"><ele>110.5</ele><time>2011-10-10T08:09:42.0000000+00:00</time></trkpt><trkpt lat="44.696682" lon="33.790451"><ele>110.9</ele><time>2011-10-10T08:09:47.0000000+00:00</time></trkpt><trkpt lat="44.696682" lon="33.790451"><ele>110.9</ele><time>2011-10-10T08:09:52.0000000+00:00</time></trkpt><trkpt lat="44.696682" lon="33.790451"><ele>110.9</ele><time>2011-10-10T08:09:57.0000000+00:00</time></trkpt><trkpt lat="44.696682" lon="33.790451"><ele>111.0</ele><time>2011-10-10T08:10:02.0000000+00:00</time></trkpt><trkpt lat="44.696682" lon="33.790451"><ele>111.0</ele><time>2011-10-10T08:10:07.0000000+00:00</time></trkpt><trkpt lat="44.696682" lon="33.790451"><ele>111.0</ele><time>2011-10-10T08:10:12.0000000+00:00</time></trkpt><trkpt lat="44.696682" lon="33.790455"><ele>111.1</ele><time>2011-10-10T08:10:17.0000000+00:00</time></trkpt><trkpt lat="44.696686" lon="33.790455"><ele>111.3</ele><time>2011-10-10T08:10:22.0000000+00:00</time></trkpt><trkpt lat="44.696686" lon="33.790455"><ele>111.8</ele><time>2011-10-10T08:10:27.0000000+00:00</time></trkpt><trkpt lat="44.696686" lon="33.790455"><ele>112.1</ele><time>2011-10-10T08:10:32.0000000+00:00</time></trkpt><trkpt lat="44.696686" lon="33.790451"><ele>112.3</ele><time>2011-10-10T08:10:37.0000000+00:00</time></trkpt><trkpt lat="44.69669" lon="33.790443"><ele>112.0</ele><time>2011-10-10T08:10:42.0000000+00:00</time></trkpt><trkpt lat="44.696693" lon="33.79044"><ele>111.8</ele><time>2011-10-10T08:10:47.0000000+00:00</time></trkpt><trkpt lat="44.69669" lon="33.79044"><ele>111.9</ele><time>2011-10-10T08:10:52.0000000+00:00</time></trkpt><trkpt lat="44.69669" lon="33.790443"><ele>111.9</ele><time>2011-10-10T08:10:57.0000000+00:00</time></trkpt><trkpt lat="44.696671" lon="33.790455"><ele>112.0</ele><time>2011-10-10T08:11:02.0000000+00:00</time></trkpt><trkpt lat="44.696613" lon="33.790462"><ele>110.6</ele><time>2011-10-10T08:11:07.0000000+00:00</time></trkpt><trkpt lat="44.696503" lon="33.790497"><ele>110.9</ele><time>2011-10-10T08:11:12.0000000+00:00</time></trkpt><trkpt lat="44.696316" lon="33.790554"><ele>110.1</ele><time>2011-10-10T08:11:17.0000000+00:00</time></trkpt><trkpt lat="44.696064" lon="33.790607"><ele>110.1</ele><time>2011-10-10T08:11:22.0000000+00:00</time></trkpt><trkpt lat="44.69582" lon="33.790649"><ele>110.0</ele><time>2011-10-10T08:11:27.0000000+00:00</time></trkpt><trkpt lat="44.695572" lon="33.790699"><ele>109.8</ele><time>2011-10-10T08:11:32.0000000+00:00</time></trkpt><trkpt lat="44.695293" lon="33.790752"><ele>109.6</ele><time>2011-10-10T08:11:37.0000000+00:00</time></trkpt><trkpt lat="44.695007" lon="33.790798"><ele>110.2</ele><time>2011-10-10T08:11:42.0000000+00:00</time></trkpt><trkpt lat="44.694763" lon="33.790852"><ele>109.3</ele><time>2011-10-10T08:11:47.0000000+00:00</time></trkpt><trkpt lat="44.694489" lon="33.790913"><ele>109.5</ele><time>2011-10-10T08:11:52.0000000+00:00</time></trkpt><trkpt lat="44.694199" lon="33.790974"><ele>109.9</ele><time>2011-10-10T08:11:57.0000000+00:00</time></trkpt><trkpt lat="44.693928" lon="33.791023"><ele>109.9</ele><time>2011-10-10T08:12:02.0000000+00:00</time></trkpt><trkpt lat="44.693657" lon="33.791077"><ele>109.7</ele><time>2011-10-10T08:12:07.0000000+00:00</time></trkpt><trkpt lat="44.693386" lon="33.791138"><ele>108.9</ele><time>2011-10-10T08:12:12.0000000+00:00</time></trkpt><trkpt lat="44.693111" lon="33.791187"><ele>108.9</ele><time>2011-10-10T08:12:17.0000000+00:00</time></trkpt><trkpt lat="44.692825" lon="33.791241"><ele>108.7</ele><time>2011-10-10T08:12:22.0000000+00:00</time></trkpt><trkpt lat="44.692532" lon="33.791298"><ele>107.9</ele><time>2011-10-10T08:12:27.0000000+00:00</time></trkpt><trkpt lat="44.692204" lon="33.791355"><ele>107.9</ele><time>2011-10-10T08:12:32.0000000+00:00</time></trkpt><trkpt lat="44.69186" lon="33.791428"><ele>107.8</ele><time>2011-10-10T08:12:37.0000000+00:00</time></trkpt><trkpt lat="44.691517" lon="33.791485"><ele>108.7</ele><time>2011-10-10T08:12:42.0000000+00:00</time></trkpt><trkpt lat="44.691151" lon="33.791569"><ele>107.8</ele><time>2011-10-10T08:12:47.0000000+00:00</time></trkpt><trkpt lat="44.690804" lon="33.791641"><ele>107.9</ele><time>2011-10-10T08:12:52.0000000+00:00</time></trkpt><trkpt lat="44.690453" lon="33.791714"><ele>106.9</ele><time>2011-10-10T08:12:57.0000000+00:00</time></trkpt><trkpt lat="44.690125" lon="33.791782"><ele>105.5</ele><time>2011-10-10T08:13:02.0000000+00:00</time></trkpt><trkpt lat="44.6898" lon="33.791847"><ele>105.1</ele><time>2011-10-10T08:13:07.0000000+00:00</time></trkpt><trkpt lat="44.689476" lon="33.791927"><ele>104.8</ele><time>2011-10-10T08:13:12.0000000+00:00</time></trkpt><trkpt lat="44.689156" lon="33.791985"><ele>103.8</ele><time>2011-10-10T08:13:17.0000000+00:00</time></trkpt><trkpt lat="44.688858" lon="33.792042"><ele>103.6</ele><time>2011-10-10T08:13:22.0000000+00:00</time></trkpt><trkpt lat="44.688557" lon="33.792103"><ele>103.4</ele><time>2011-10-10T08:13:27.0000000+00:00</time></trkpt><trkpt lat="44.68824" lon="33.792164"><ele>103.7</ele><time>2011-10-10T08:13:32.0000000+00:00</time></trkpt><trkpt lat="44.687927" lon="33.792221"><ele>103.7</ele><time>2011-10-10T08:13:37.0000000+00:00</time></trkpt><trkpt lat="44.687611" lon="33.79229"><ele>104.4</ele><time>2011-10-10T08:13:42.0000000+00:00</time></trkpt><trkpt lat="44.687294" lon="33.792351"><ele>104.8</ele><time>2011-10-10T08:13:47.0000000+00:00</time></trkpt><trkpt lat="44.686985" lon="33.792412"><ele>105.0</ele><time>2011-10-10T08:13:52.0000000+00:00</time></trkpt><trkpt lat="44.686676" lon="33.79245"><ele>104.9</ele><time>2011-10-10T08:13:57.0000000+00:00</time></trkpt><trkpt lat="44.686378" lon="33.792458"><ele>105.2</ele><time>2011-10-10T08:14:02.0000000+00:00</time></trkpt><trkpt lat="44.686108" lon="33.792461"><ele>105.8</ele><time>2011-10-10T08:14:07.0000000+00:00</time></trkpt><trkpt lat="44.685852" lon="33.792442"><ele>106.4</ele><time>2011-10-10T08:14:12.0000000+00:00</time></trkpt><trkpt lat="44.685593" lon="33.792431"><ele>106.8</ele><time>2011-10-10T08:14:17.0000000+00:00</time></trkpt><trkpt lat="44.685341" lon="33.792423"><ele>107.5</ele><time>2011-10-10T08:14:22.0000000+00:00</time></trkpt><trkpt lat="44.685081" lon="33.792408"><ele>108.0</ele><time>2011-10-10T08:14:27.0000000+00:00</time></trkpt><trkpt lat="44.684803" lon="33.792389"><ele>108.3</ele><time>2011-10-10T08:14:32.0000000+00:00</time></trkpt><trkpt lat="44.684521" lon="33.792381"><ele>108.5</ele><time>2011-10-10T08:14:37.0000000+00:00</time></trkpt><trkpt lat="44.68425" lon="33.79237"><ele>109.3</ele><time>2011-10-10T08:14:42.0000000+00:00</time></trkpt><trkpt lat="44.683979" lon="33.792355"><ele>109.6</ele><time>2011-10-10T08:14:47.0000000+00:00</time></trkpt><trkpt lat="44.683716" lon="33.792336"><ele>110.0</ele><time>2011-10-10T08:14:52.0000000+00:00</time></trkpt><trkpt lat="44.683468" lon="33.792328"><ele>109.6</ele><time>2011-10-10T08:14:57.0000000+00:00</time></trkpt><trkpt lat="44.68322" lon="33.79232"><ele>109.3</ele><time>2011-10-10T08:15:02.0000000+00:00</time></trkpt><trkpt lat="44.682968" lon="33.792305"><ele>108.7</ele><time>2011-10-10T08:15:07.0000000+00:00</time></trkpt><trkpt lat="44.682701" lon="33.79229"><ele>108.2</ele><time>2011-10-10T08:15:12.0000000+00:00</time></trkpt><trkpt lat="44.682411" lon="33.792278"><ele>108.0</ele><time>2011-10-10T08:15:17.0000000+00:00</time></trkpt><trkpt lat="44.68211" lon="33.792267"><ele>107.4</ele><time>2011-10-10T08:15:22.0000000+00:00</time></trkpt><trkpt lat="44.681793" lon="33.792255"><ele>106.4</ele><time>2011-10-10T08:15:27.0000000+00:00</time></trkpt><trkpt lat="44.681419" lon="33.792233"><ele>104.9</ele><time>2011-10-10T08:15:32.0000000+00:00</time></trkpt><trkpt lat="44.681042" lon="33.792213"><ele>104.7</ele><time>2011-10-10T08:15:37.0000000+00:00</time></trkpt><trkpt lat="44.680676" lon="33.792194"><ele>105.4</ele><time>2011-10-10T08:15:42.0000000+00:00</time></trkpt><trkpt lat="44.680321" lon="33.792175"><ele>106.5</ele><time>2011-10-10T08:15:47.0000000+00:00</time></trkpt><trkpt lat="44.679977" lon="33.792156"><ele>107.3</ele><time>2011-10-10T08:15:52.0000000+00:00</time></trkpt><trkpt lat="44.679623" lon="33.792137"><ele>108.0</ele><time>2011-10-10T08:15:57.0000000+00:00</time></trkpt><trkpt lat="44.679264" lon="33.792126"><ele>107.6</ele><time>2011-10-10T08:16:02.0000000+00:00</time></trkpt><trkpt lat="44.678886" lon="33.792103"><ele>107.2</ele><time>2011-10-10T08:16:07.0000000+00:00</time></trkpt><trkpt lat="44.678509" lon="33.792095"><ele>107.1</ele><time>2011-10-10T08:16:12.0000000+00:00</time></trkpt><trkpt lat="44.678173" lon="33.792084"><ele>106.4</ele><time>2011-10-10T08:16:17.0000000+00:00</time></trkpt><trkpt lat="44.677841" lon="33.792065"><ele>107.0</ele><time>2011-10-10T08:16:22.0000000+00:00</time></trkpt><trkpt lat="44.677513" lon="33.792046"><ele>107.2</ele><time>2011-10-10T08:16:27.0000000+00:00</time></trkpt><trkpt lat="44.677208" lon="33.792023"><ele>107.9</ele><time>2011-10-10T08:16:32.0000000+00:00</time></trkpt><trkpt lat="44.676926" lon="33.792007"><ele>108.5</ele><time>2011-10-10T08:16:37.0000000+00:00</time></trkpt><trkpt lat="44.676655" lon="33.791992"><ele>109.0</ele><time>2011-10-10T08:16:42.0000000+00:00</time></trkpt><trkpt lat="44.676373" lon="33.791977"><ele>110.0</ele><time>2011-10-10T08:16:47.0000000+00:00</time></trkpt><trkpt lat="44.676109" lon="33.791962"><ele>110.1</ele><time>2011-10-10T08:16:52.0000000+00:00</time></trkpt><trkpt lat="44.67585" lon="33.79195"><ele>110.9</ele><time>2011-10-10T08:16:57.0000000+00:00</time></trkpt><trkpt lat="44.675571" lon="33.791935"><ele>111.8</ele><time>2011-10-10T08:17:02.0000000+00:00</time></trkpt><trkpt lat="44.675327" lon="33.791924"><ele>112.9</ele><time>2011-10-10T08:17:07.0000000+00:00</time></trkpt><trkpt lat="44.675072" lon="33.791908"><ele>114.1</ele><time>2011-10-10T08:17:12.0000000+00:00</time></trkpt><trkpt lat="44.674828" lon="33.791885"><ele>114.8</ele><time>2011-10-10T08:17:17.0000000+00:00</time></trkpt><trkpt lat="44.67458" lon="33.791866"><ele>114.8</ele><time>2011-10-10T08:17:22.0000000+00:00</time></trkpt><trkpt lat="44.674339" lon="33.791851"><ele>114.4</ele><time>2011-10-10T08:17:27.0000000+00:00</time></trkpt><trkpt lat="44.674095" lon="33.791843"><ele>114.8</ele><time>2011-10-10T08:17:32.0000000+00:00</time></trkpt><trkpt lat="44.673866" lon="33.79184"><ele>116.2</ele><time>2011-10-10T08:17:37.0000000+00:00</time></trkpt><trkpt lat="44.673649" lon="33.791836"><ele>117.1</ele><time>2011-10-10T08:17:42.0000000+00:00</time></trkpt><trkpt lat="44.673416" lon="33.791813"><ele>117.7</ele><time>2011-10-10T08:17:47.0000000+00:00</time></trkpt><trkpt lat="44.673164" lon="33.791801"><ele>117.6</ele><time>2011-10-10T08:17:52.0000000+00:00</time></trkpt><trkpt lat="44.672932" lon="33.79179"><ele>118.0</ele><time>2011-10-10T08:17:57.0000000+00:00</time></trkpt><trkpt lat="44.672714" lon="33.791779"><ele>118.8</ele><time>2011-10-10T08:18:02.0000000+00:00</time></trkpt><trkpt lat="44.672508" lon="33.791775"><ele>120.0</ele><time>2011-10-10T08:18:07.0000000+00:00</time></trkpt><trkpt lat="44.672291" lon="33.791767"><ele>120.6</ele><time>2011-10-10T08:18:12.0000000+00:00</time></trkpt><trkpt lat="44.67207" lon="33.791752"><ele>122.0</ele><time>2011-10-10T08:18:17.0000000+00:00</time></trkpt><trkpt lat="44.671841" lon="33.791733"><ele>122.1</ele><time>2011-10-10T08:18:22.0000000+00:00</time></trkpt><trkpt lat="44.6716" lon="33.791718"><ele>122.6</ele><time>2011-10-10T08:18:27.0000000+00:00</time></trkpt><trkpt lat="44.671345" lon="33.79171"><ele>122.2</ele><time>2011-10-10T08:18:32.0000000+00:00</time></trkpt><trkpt lat="44.671097" lon="33.791698"><ele>122.6</ele><time>2011-10-10T08:18:37.0000000+00:00</time></trkpt><trkpt lat="44.670856" lon="33.791687"><ele>122.7</ele><time>2011-10-10T08:18:42.0000000+00:00</time></trkpt><trkpt lat="44.670609" lon="33.791664"><ele>123.0</ele><time>2011-10-10T08:18:47.0000000+00:00</time></trkpt><trkpt lat="44.670338" lon="33.791645"><ele>122.9</ele><time>2011-10-10T08:18:52.0000000+00:00</time></trkpt><trkpt lat="44.670078" lon="33.791634"><ele>123.5</ele><time>2011-10-10T08:18:57.0000000+00:00</time></trkpt><trkpt lat="44.66983" lon="33.791622"><ele>123.9</ele><time>2011-10-10T08:19:02.0000000+00:00</time></trkpt><trkpt lat="44.669594" lon="33.791615"><ele>124.3</ele><time>2011-10-10T08:19:07.0000000+00:00</time></trkpt><trkpt lat="44.669403" lon="33.791595"><ele>124.3</ele><time>2011-10-10T08:19:12.0000000+00:00</time></trkpt><trkpt lat="44.669174" lon="33.79158"><ele>124.8</ele><time>2011-10-10T08:19:17.0000000+00:00</time></trkpt><trkpt lat="44.668991" lon="33.791569"><ele>125.8</ele><time>2011-10-10T08:19:22.0000000+00:00</time></trkpt><trkpt lat="44.668861" lon="33.791561"><ele>125.9</ele><time>2011-10-10T08:19:27.0000000+00:00</time></trkpt><trkpt lat="44.668762" lon="33.791534"><ele>126.6</ele><time>2011-10-10T08:19:32.0000000+00:00</time></trkpt><trkpt lat="44.66872" lon="33.791515"><ele>126.3</ele><time>2011-10-10T08:19:37.0000000+00:00</time></trkpt><trkpt lat="44.66872" lon="33.791512"><ele>126.1</ele><time>2011-10-10T08:19:42.0000000+00:00</time></trkpt><trkpt lat="44.66872" lon="33.791512"><ele>126.0</ele><time>2011-10-10T08:19:47.0000000+00:00</time></trkpt><trkpt lat="44.66872" lon="33.791515"><ele>126.0</ele><time>2011-10-10T08:19:52.0000000+00:00</time></trkpt><trkpt lat="44.66872" lon="33.791515"><ele>126.0</ele><time>2011-10-10T08:19:57.0000000+00:00</time></trkpt><trkpt lat="44.66872" lon="33.791515"><ele>126.0</ele><time>2011-10-10T08:20:02.0000000+00:00</time></trkpt><trkpt lat="44.66872" lon="33.791515"><ele>126.0</ele><time>2011-10-10T08:20:07.0000000+00:00</time></trkpt><trkpt lat="44.66872" lon="33.791515"><ele>126.0</ele><time>2011-10-10T08:20:12.0000000+00:00</time></trkpt><trkpt lat="44.66872" lon="33.791515"><ele>126.0</ele><time>2011-10-10T08:20:17.0000000+00:00</time></trkpt><trkpt lat="44.66872" lon="33.791515"><ele>126.0</ele><time>2011-10-10T08:20:22.0000000+00:00</time></trkpt><trkpt lat="44.66872" lon="33.791515"><ele>126.0</ele><time>2011-10-10T08:20:27.0000000+00:00</time></trkpt><trkpt lat="44.66872" lon="33.791515"><ele>126.0</ele><time>2011-10-10T08:20:32.0000000+00:00</time></trkpt><trkpt lat="44.66872" lon="33.791515"><ele>125.9</ele><time>2011-10-10T08:20:37.0000000+00:00</time></trkpt><trkpt lat="44.66872" lon="33.791515"><ele>125.9</ele><time>2011-10-10T08:20:42.0000000+00:00</time></trkpt><trkpt lat="44.66872" lon="33.791515"><ele>125.9</ele><time>2011-10-10T08:20:47.0000000+00:00</time></trkpt><trkpt lat="44.66872" lon="33.791512"><ele>125.9</ele><time>2011-10-10T08:20:52.0000000+00:00</time></trkpt><trkpt lat="44.668701" lon="33.791519"><ele>126.0</ele><time>2011-10-10T08:20:57.0000000+00:00</time></trkpt><trkpt lat="44.668617" lon="33.791519"><ele>126.2</ele><time>2011-10-10T08:21:02.0000000+00:00</time></trkpt><trkpt lat="44.668472" lon="33.791515"><ele>126.1</ele><time>2011-10-10T08:21:07.0000000+00:00</time></trkpt><trkpt lat="44.668316" lon="33.791492"><ele>126.0</ele><time>2011-10-10T08:21:12.0000000+00:00</time></trkpt><trkpt lat="44.668118" lon="33.791458"><ele>126.7</ele><time>2011-10-10T08:21:17.0000000+00:00</time></trkpt><trkpt lat="44.667912" lon="33.791416"><ele>127.0</ele><time>2011-10-10T08:21:22.0000000+00:00</time></trkpt><trkpt lat="44.667671" lon="33.791359"><ele>127.3</ele><time>2011-10-10T08:21:27.0000000+00:00</time></trkpt><trkpt lat="44.6674" lon="33.791294"><ele>128.0</ele><time>2011-10-10T08:21:32.0000000+00:00</time></trkpt><trkpt lat="44.667133" lon="33.791229"><ele>128.5</ele><time>2011-10-10T08:21:37.0000000+00:00</time></trkpt><trkpt lat="44.666885" lon="33.791161"><ele>128.6</ele><time>2011-10-10T08:21:42.0000000+00:00</time></trkpt><trkpt lat="44.666622" lon="33.791096"><ele>129.5</ele><time>2011-10-10T08:21:47.0000000+00:00</time></trkpt><trkpt lat="44.66637" lon="33.791031"><ele>129.8</ele><time>2011-10-10T08:21:52.0000000+00:00</time></trkpt><trkpt lat="44.666157" lon="33.790977"><ele>130.0</ele><time>2011-10-10T08:21:57.0000000+00:00</time></trkpt><trkpt lat="44.665951" lon="33.790901"><ele>129.9</ele><time>2011-10-10T08:22:02.0000000+00:00</time></trkpt><trkpt lat="44.665878" lon="33.79089"><ele>129.2</ele><time>2011-10-10T08:22:07.0000000+00:00</time></trkpt><trkpt lat="44.665874" lon="33.79089"><ele>129.2</ele><time>2011-10-10T08:22:12.0000000+00:00</time></trkpt><trkpt lat="44.665871" lon="33.79089"><ele>129.2</ele><time>2011-10-10T08:22:17.0000000+00:00</time></trkpt><trkpt lat="44.665813" lon="33.790897"><ele>129.5</ele><time>2011-10-10T08:22:22.0000000+00:00</time></trkpt><trkpt lat="44.665588" lon="33.790825"><ele>128.7</ele><time>2011-10-10T08:22:27.0000000+00:00</time></trkpt><trkpt lat="44.665314" lon="33.790756"><ele>128.0</ele><time>2011-10-10T08:22:32.0000000+00:00</time></trkpt><trkpt lat="44.665054" lon="33.79068"><ele>127.7</ele><time>2011-10-10T08:22:37.0000000+00:00</time></trkpt><trkpt lat="44.66478" lon="33.7906"><ele>127.5</ele><time>2011-10-10T08:22:42.0000000+00:00</time></trkpt><trkpt lat="44.66449" lon="33.790531"><ele>126.8</ele><time>2011-10-10T08:22:47.0000000+00:00</time></trkpt><trkpt lat="44.664185" lon="33.790485"><ele>126.4</ele><time>2011-10-10T08:22:52.0000000+00:00</time></trkpt><trkpt lat="44.66386" lon="33.79047"><ele>125.7</ele><time>2011-10-10T08:22:57.0000000+00:00</time></trkpt><trkpt lat="44.663544" lon="33.790489"><ele>125.1</ele><time>2011-10-10T08:23:02.0000000+00:00</time></trkpt><trkpt lat="44.663235" lon="33.790596"><ele>124.7</ele><time>2011-10-10T08:23:07.0000000+00:00</time></trkpt><trkpt lat="44.662952" lon="33.790829"><ele>123.7</ele><time>2011-10-10T08:23:12.0000000+00:00</time></trkpt><trkpt lat="44.662704" lon="33.791191"><ele>122.1</ele><time>2011-10-10T08:23:17.0000000+00:00</time></trkpt><trkpt lat="44.662525" lon="33.79171"><ele>120.0</ele><time>2011-10-10T08:23:22.0000000+00:00</time></trkpt><trkpt lat="44.662457" lon="33.792374"><ele>117.4</ele><time>2011-10-10T08:23:27.0000000+00:00</time></trkpt><trkpt lat="44.662422" lon="33.793175"><ele>115.5</ele><time>2011-10-10T08:23:32.0000000+00:00</time></trkpt><trkpt lat="44.662342" lon="33.794041"><ele>113.3</ele><time>2011-10-10T08:23:37.0000000+00:00</time></trkpt><trkpt lat="44.662022" lon="33.794842"><ele>109.9</ele><time>2011-10-10T08:23:42.0000000+00:00</time></trkpt><trkpt lat="44.661636" lon="33.795483"><ele>107.7</ele><time>2011-10-10T08:23:47.0000000+00:00</time></trkpt><trkpt lat="44.661388" lon="33.795891"><ele>107.4</ele><time>2011-10-10T08:23:52.0000000+00:00</time></trkpt><trkpt lat="44.661293" lon="33.79599"><ele>106.1</ele><time>2011-10-10T08:23:57.0000000+00:00</time></trkpt><trkpt lat="44.661293" lon="33.795975"><ele>106.1</ele><time>2011-10-10T08:24:02.0000000+00:00</time></trkpt><trkpt lat="44.661293" lon="33.795975"><ele>106.6</ele><time>2011-10-10T08:24:07.0000000+00:00</time></trkpt><trkpt lat="44.661293" lon="33.795975"><ele>106.7</ele><time>2011-10-10T08:24:12.0000000+00:00</time></trkpt><trkpt lat="44.661293" lon="33.795975"><ele>106.7</ele><time>2011-10-10T08:24:17.0000000+00:00</time></trkpt><trkpt lat="44.661293" lon="33.795975"><ele>106.7</ele><time>2011-10-10T08:24:22.0000000+00:00</time></trkpt><trkpt lat="44.661297" lon="33.795975"><ele>106.7</ele><time>2011-10-10T08:24:27.0000000+00:00</time></trkpt><trkpt lat="44.661293" lon="33.795979"><ele>106.7</ele><time>2011-10-10T08:24:32.0000000+00:00</time></trkpt><trkpt lat="44.661198" lon="33.795929"><ele>106.1</ele><time>2011-10-10T08:24:37.0000000+00:00</time></trkpt><trkpt lat="44.661175" lon="33.795677"><ele>106.3</ele><time>2011-10-10T08:24:42.0000000+00:00</time></trkpt><trkpt lat="44.661175" lon="33.795345"><ele>107.2</ele><time>2011-10-10T08:24:47.0000000+00:00</time></trkpt><trkpt lat="44.66119" lon="33.794975"><ele>106.9</ele><time>2011-10-10T08:24:52.0000000+00:00</time></trkpt><trkpt lat="44.661217" lon="33.794571"><ele>106.5</ele><time>2011-10-10T08:24:57.0000000+00:00</time></trkpt><trkpt lat="44.661274" lon="33.794144"><ele>106.1</ele><time>2011-10-10T08:25:02.0000000+00:00</time></trkpt><trkpt lat="44.661339" lon="33.793701"><ele>106.1</ele><time>2011-10-10T08:25:07.0000000+00:00</time></trkpt><trkpt lat="44.661388" lon="33.79335"><ele>106.1</ele><time>2011-10-10T08:25:12.0000000+00:00</time></trkpt><trkpt lat="44.661434" lon="33.793037"><ele>104.9</ele><time>2011-10-10T08:25:17.0000000+00:00</time></trkpt><trkpt lat="44.661491" lon="33.792725"><ele>104.2</ele><time>2011-10-10T08:25:22.0000000+00:00</time></trkpt><trkpt lat="44.661526" lon="33.792538"><ele>103.5</ele><time>2011-10-10T08:25:27.0000000+00:00</time></trkpt><trkpt lat="44.661491" lon="33.792397"><ele>102.5</ele><time>2011-10-10T08:25:32.0000000+00:00</time></trkpt><trkpt lat="44.661324" lon="33.79224"><ele>100.0</ele><time>2011-10-10T08:25:37.0000000+00:00</time></trkpt><trkpt lat="44.661007" lon="33.792088"><ele>97.9</ele><time>2011-10-10T08:25:42.0000000+00:00</time></trkpt><trkpt lat="44.660637" lon="33.791935"><ele>94.7</ele><time>2011-10-10T08:25:47.0000000+00:00</time></trkpt><trkpt lat="44.660282" lon="33.791775"><ele>92.7</ele><time>2011-10-10T08:25:52.0000000+00:00</time></trkpt><trkpt lat="44.660187" lon="33.791927"><ele>92.5</ele><time>2011-10-10T08:25:57.0000000+00:00</time></trkpt><trkpt lat="44.660145" lon="33.792126"><ele>92.8</ele><time>2011-10-10T08:26:02.0000000+00:00</time></trkpt><trkpt lat="44.660057" lon="33.792313"><ele>93.0</ele><time>2011-10-10T08:26:07.0000000+00:00</time></trkpt><trkpt lat="44.659916" lon="33.792313"><ele>92.5</ele><time>2011-10-10T08:26:12.0000000+00:00</time></trkpt><trkpt lat="44.659748" lon="33.792217"><ele>91.6</ele><time>2011-10-10T08:26:17.0000000+00:00</time></trkpt><trkpt lat="44.659542" lon="33.792103"><ele>90.7</ele><time>2011-10-10T08:26:22.0000000+00:00</time></trkpt><trkpt lat="44.65934" lon="33.792015"><ele>89.9</ele><time>2011-10-10T08:26:27.0000000+00:00</time></trkpt><trkpt lat="44.659191" lon="33.791935"><ele>89.6</ele><time>2011-10-10T08:26:32.0000000+00:00</time></trkpt><trkpt lat="44.659069" lon="33.791847"><ele>89.2</ele><time>2011-10-10T08:26:37.0000000+00:00</time></trkpt><trkpt lat="44.658897" lon="33.791756"><ele>89.0</ele><time>2011-10-10T08:26:42.0000000+00:00</time></trkpt><trkpt lat="44.658726" lon="33.791653"><ele>88.4</ele><time>2011-10-10T08:26:47.0000000+00:00</time></trkpt><trkpt lat="44.658543" lon="33.791561"><ele>87.9</ele><time>2011-10-10T08:26:52.0000000+00:00</time></trkpt><trkpt lat="44.658356" lon="33.791496"><ele>87.1</ele><time>2011-10-10T08:26:57.0000000+00:00</time></trkpt><trkpt lat="44.658211" lon="33.791443"><ele>86.7</ele><time>2011-10-10T08:27:02.0000000+00:00</time></trkpt><trkpt lat="44.658054" lon="33.791382"><ele>86.2</ele><time>2011-10-10T08:27:07.0000000+00:00</time></trkpt><trkpt lat="44.657883" lon="33.791279"><ele>85.8</ele><time>2011-10-10T08:27:12.0000000+00:00</time></trkpt><trkpt lat="44.657677" lon="33.79118"><ele>85.6</ele><time>2011-10-10T08:27:17.0000000+00:00</time></trkpt><trkpt lat="44.657471" lon="33.79108"><ele>85.6</ele><time>2011-10-10T08:27:22.0000000+00:00</time></trkpt><trkpt lat="44.657249" lon="33.791008"><ele>85.7</ele><time>2011-10-10T08:27:27.0000000+00:00</time></trkpt><trkpt lat="44.657051" lon="33.791016"><ele>85.6</ele><time>2011-10-10T08:27:32.0000000+00:00</time></trkpt><trkpt lat="44.656868" lon="33.791061"><ele>85.5</ele><time>2011-10-10T08:27:37.0000000+00:00</time></trkpt><trkpt lat="44.656849" lon="33.791073"><ele>85.3</ele><time>2011-10-10T08:27:42.0000000+00:00</time></trkpt><trkpt lat="44.656849" lon="33.791069"><ele>85.3</ele><time>2011-10-10T08:27:47.0000000+00:00</time></trkpt><trkpt lat="44.656849" lon="33.791073"><ele>85.2</ele><time>2011-10-10T08:27:52.0000000+00:00</time></trkpt><trkpt lat="44.656849" lon="33.791073"><ele>85.1</ele><time>2011-10-10T08:27:57.0000000+00:00</time></trkpt><trkpt lat="44.656849" lon="33.791073"><ele>85.1</ele><time>2011-10-10T08:28:02.0000000+00:00</time></trkpt><trkpt lat="44.656853" lon="33.791073"><ele>85.1</ele><time>2011-10-10T08:28:07.0000000+00:00</time></trkpt><trkpt lat="44.656853" lon="33.791077"><ele>85.2</ele><time>2011-10-10T08:28:12.0000000+00:00</time></trkpt><trkpt lat="44.656853" lon="33.791077"><ele>85.2</ele><time>2011-10-10T08:28:17.0000000+00:00</time></trkpt><trkpt lat="44.656853" lon="33.791077"><ele>85.2</ele><time>2011-10-10T08:28:22.0000000+00:00</time></trkpt><trkpt lat="44.656853" lon="33.791077"><ele>85.2</ele><time>2011-10-10T08:28:27.0000000+00:00</time></trkpt><trkpt lat="44.656857" lon="33.791077"><ele>85.2</ele><time>2011-10-10T08:28:32.0000000+00:00</time></trkpt><trkpt lat="44.656857" lon="33.791077"><ele>85.2</ele><time>2011-10-10T08:28:37.0000000+00:00</time></trkpt><trkpt lat="44.656857" lon="33.791077"><ele>85.2</ele><time>2011-10-10T08:28:42.0000000+00:00</time></trkpt><trkpt lat="44.656857" lon="33.791077"><ele>85.2</ele><time>2011-10-10T08:28:47.0000000+00:00</time></trkpt><trkpt lat="44.656857" lon="33.791077"><ele>85.3</ele><time>2011-10-10T08:28:52.0000000+00:00</time></trkpt><trkpt lat="44.656857" lon="33.791077"><ele>85.3</ele><time>2011-10-10T08:28:57.0000000+00:00</time></trkpt><trkpt lat="44.656849" lon="33.791084"><ele>85.3</ele><time>2011-10-10T08:29:02.0000000+00:00</time></trkpt><trkpt lat="44.656784" lon="33.791191"><ele>86.6</ele><time>2011-10-10T08:29:07.0000000+00:00</time></trkpt><trkpt lat="44.656696" lon="33.791351"><ele>87.8</ele><time>2011-10-10T08:29:12.0000000+00:00</time></trkpt><trkpt lat="44.656628" lon="33.791561"><ele>88.3</ele><time>2011-10-10T08:29:17.0000000+00:00</time></trkpt><trkpt lat="44.656551" lon="33.79179"><ele>89.2</ele><time>2011-10-10T08:29:22.0000000+00:00</time></trkpt><trkpt lat="44.656464" lon="33.792034"><ele>89.3</ele><time>2011-10-10T08:29:27.0000000+00:00</time></trkpt><trkpt lat="44.656368" lon="33.792309"><ele>89.4</ele><time>2011-10-10T08:29:32.0000000+00:00</time></trkpt><trkpt lat="44.656265" lon="33.792572"><ele>89.6</ele><time>2011-10-10T08:29:37.0000000+00:00</time></trkpt><trkpt lat="44.65617" lon="33.792847"><ele>89.5</ele><time>2011-10-10T08:29:42.0000000+00:00</time></trkpt><trkpt lat="44.656075" lon="33.793121"><ele>89.5</ele><time>2011-10-10T08:29:47.0000000+00:00</time></trkpt><trkpt lat="44.655987" lon="33.793388"><ele>89.8</ele><time>2011-10-10T08:29:52.0000000+00:00</time></trkpt><trkpt lat="44.655918" lon="33.793655"><ele>89.9</ele><time>2011-10-10T08:29:57.0000000+00:00</time></trkpt><trkpt lat="44.655842" lon="33.79393"><ele>90.1</ele><time>2011-10-10T08:30:02.0000000+00:00</time></trkpt><trkpt lat="44.655792" lon="33.794159"><ele>90.1</ele><time>2011-10-10T08:30:07.0000000+00:00</time></trkpt><trkpt lat="44.655731" lon="33.794388"><ele>90.1</ele><time>2011-10-10T08:30:12.0000000+00:00</time></trkpt><trkpt lat="44.655697" lon="33.794605"><ele>90.4</ele><time>2011-10-10T08:30:17.0000000+00:00</time></trkpt><trkpt lat="44.655697" lon="33.794834"><ele>90.4</ele><time>2011-10-10T08:30:22.0000000+00:00</time></trkpt><trkpt lat="44.655708" lon="33.795078"><ele>89.9</ele><time>2011-10-10T08:30:27.0000000+00:00</time></trkpt><trkpt lat="44.655712" lon="33.795319"><ele>89.4</ele><time>2011-10-10T08:30:32.0000000+00:00</time></trkpt><trkpt lat="44.655693" lon="33.79554"><ele>89.1</ele><time>2011-10-10T08:30:37.0000000+00:00</time></trkpt><trkpt lat="44.655663" lon="33.795773"><ele>89.7</ele><time>2011-10-10T08:30:42.0000000+00:00</time></trkpt><trkpt lat="44.65564" lon="33.796013"><ele>89.3</ele><time>2011-10-10T08:30:47.0000000+00:00</time></trkpt><trkpt lat="44.655609" lon="33.796223"><ele>89.3</ele><time>2011-10-10T08:30:52.0000000+00:00</time></trkpt><trkpt lat="44.65559" lon="33.796368"><ele>89.5</ele><time>2011-10-10T08:30:57.0000000+00:00</time></trkpt><trkpt lat="44.655563" lon="33.796524"><ele>89.7</ele><time>2011-10-10T08:31:02.0000000+00:00</time></trkpt><trkpt lat="44.655514" lon="33.796715"><ele>90.5</ele><time>2011-10-10T08:31:07.0000000+00:00</time></trkpt><trkpt lat="44.655472" lon="33.796883"><ele>90.6</ele><time>2011-10-10T08:31:12.0000000+00:00</time></trkpt><trkpt lat="44.655418" lon="33.796978"><ele>90.9</ele><time>2011-10-10T08:31:17.0000000+00:00</time></trkpt><trkpt lat="44.655323" lon="33.7971"><ele>90.9</ele><time>2011-10-10T08:31:22.0000000+00:00</time></trkpt><trkpt lat="44.655197" lon="33.797215"><ele>91.4</ele><time>2011-10-10T08:31:27.0000000+00:00</time></trkpt><trkpt lat="44.655075" lon="33.797375"><ele>91.5</ele><time>2011-10-10T08:31:32.0000000+00:00</time></trkpt><trkpt lat="44.654987" lon="33.797581"><ele>91.8</ele><time>2011-10-10T08:31:37.0000000+00:00</time></trkpt><trkpt lat="44.654892" lon="33.797806"><ele>92.1</ele><time>2011-10-10T08:31:42.0000000+00:00</time></trkpt><trkpt lat="44.654804" lon="33.798023"><ele>91.7</ele><time>2011-10-10T08:31:47.0000000+00:00</time></trkpt><trkpt lat="44.654709" lon="33.798248"><ele>92.1</ele><time>2011-10-10T08:31:52.0000000+00:00</time></trkpt><trkpt lat="44.654613" lon="33.798443"><ele>92.6</ele><time>2011-10-10T08:31:57.0000000+00:00</time></trkpt><trkpt lat="44.654568" lon="33.798634"><ele>92.6</ele><time>2011-10-10T08:32:02.0000000+00:00</time></trkpt><trkpt lat="44.654503" lon="33.798828"><ele>93.4</ele><time>2011-10-10T08:32:07.0000000+00:00</time></trkpt><trkpt lat="44.65448" lon="33.798912"><ele>93.5</ele><time>2011-10-10T08:32:12.0000000+00:00</time></trkpt><trkpt lat="44.654465" lon="33.798904"><ele>93.4</ele><time>2011-10-10T08:32:17.0000000+00:00</time></trkpt><trkpt lat="44.654465" lon="33.798904"><ele>93.3</ele><time>2011-10-10T08:32:22.0000000+00:00</time></trkpt><trkpt lat="44.654465" lon="33.798904"><ele>93.4</ele><time>2011-10-10T08:32:27.0000000+00:00</time></trkpt><trkpt lat="44.654465" lon="33.798904"><ele>93.4</ele><time>2011-10-10T08:32:32.0000000+00:00</time></trkpt><trkpt lat="44.654465" lon="33.798904"><ele>93.4</ele><time>2011-10-10T08:32:37.0000000+00:00</time></trkpt><trkpt lat="44.654461" lon="33.798901"><ele>93.4</ele><time>2011-10-10T08:32:42.0000000+00:00</time></trkpt><trkpt lat="44.654457" lon="33.798908"><ele>93.4</ele><time>2011-10-10T08:32:47.0000000+00:00</time></trkpt><trkpt lat="44.654442" lon="33.798904"><ele>93.4</ele><time>2011-10-10T08:32:52.0000000+00:00</time></trkpt><trkpt lat="44.654446" lon="33.798904"><ele>93.4</ele><time>2011-10-10T08:32:57.0000000+00:00</time></trkpt><trkpt lat="44.654446" lon="33.798904"><ele>93.4</ele><time>2011-10-10T08:33:02.0000000+00:00</time></trkpt><trkpt lat="44.654442" lon="33.798904"><ele>93.1</ele><time>2011-10-10T08:33:07.0000000+00:00</time></trkpt><trkpt lat="44.654442" lon="33.798904"><ele>93.0</ele><time>2011-10-10T08:33:12.0000000+00:00</time></trkpt><trkpt lat="44.654442" lon="33.798904"><ele>93.0</ele><time>2011-10-10T08:33:17.0000000+00:00</time></trkpt><trkpt lat="44.654442" lon="33.798904"><ele>93.0</ele><time>2011-10-10T08:33:22.0000000+00:00</time></trkpt><trkpt lat="44.654449" lon="33.798912"><ele>93.0</ele><time>2011-10-10T08:33:27.0000000+00:00</time></trkpt><trkpt lat="44.654438" lon="33.798977"><ele>92.8</ele><time>2011-10-10T08:33:32.0000000+00:00</time></trkpt><trkpt lat="44.654415" lon="33.798965"><ele>92.7</ele><time>2011-10-10T08:33:37.0000000+00:00</time></trkpt><trkpt lat="44.654404" lon="33.798908"><ele>93.0</ele><time>2011-10-10T08:33:42.0000000+00:00</time></trkpt><trkpt lat="44.654404" lon="33.798904"><ele>93.4</ele><time>2011-10-10T08:33:47.0000000+00:00</time></trkpt><trkpt lat="44.6544" lon="33.798912"><ele>93.7</ele><time>2011-10-10T08:33:52.0000000+00:00</time></trkpt><trkpt lat="44.654404" lon="33.798912"><ele>93.8</ele><time>2011-10-10T08:33:57.0000000+00:00</time></trkpt><trkpt lat="44.654404" lon="33.798908"><ele>93.6</ele><time>2011-10-10T08:34:02.0000000+00:00</time></trkpt><trkpt lat="44.6544" lon="33.798916"><ele>93.6</ele><time>2011-10-10T08:34:07.0000000+00:00</time></trkpt><trkpt lat="44.654408" lon="33.798912"><ele>93.8</ele><time>2011-10-10T08:34:12.0000000+00:00</time></trkpt><trkpt lat="44.654408" lon="33.798912"><ele>94.0</ele><time>2011-10-10T08:34:17.0000000+00:00</time></trkpt><trkpt lat="44.654404" lon="33.79892"><ele>93.9</ele><time>2011-10-10T08:34:22.0000000+00:00</time></trkpt><trkpt lat="44.654408" lon="33.798923"><ele>93.9</ele><time>2011-10-10T08:34:27.0000000+00:00</time></trkpt><trkpt lat="44.654408" lon="33.798923"><ele>93.9</ele><time>2011-10-10T08:34:32.0000000+00:00</time></trkpt><trkpt lat="44.654408" lon="33.798923"><ele>93.9</ele><time>2011-10-10T08:34:37.0000000+00:00</time></trkpt><trkpt lat="44.654408" lon="33.798923"><ele>93.9</ele><time>2011-10-10T08:34:42.0000000+00:00</time></trkpt><trkpt lat="44.654408" lon="33.79892"><ele>93.9</ele><time>2011-10-10T08:34:47.0000000+00:00</time></trkpt><trkpt lat="44.654408" lon="33.79892"><ele>93.8</ele><time>2011-10-10T08:34:52.0000000+00:00</time></trkpt><trkpt lat="44.654404" lon="33.798908"><ele>93.8</ele><time>2011-10-10T08:34:57.0000000+00:00</time></trkpt><trkpt lat="44.654388" lon="33.798878"><ele>93.3</ele><time>2011-10-10T08:35:02.0000000+00:00</time></trkpt><trkpt lat="44.654385" lon="33.798878"><ele>93.4</ele><time>2011-10-10T08:35:07.0000000+00:00</time></trkpt><trkpt lat="44.654392" lon="33.798866"><ele>93.6</ele><time>2011-10-10T08:35:12.0000000+00:00</time></trkpt><trkpt lat="44.654396" lon="33.798862"><ele>93.5</ele><time>2011-10-10T08:35:17.0000000+00:00</time></trkpt><trkpt lat="44.654392" lon="33.798862"><ele>93.7</ele><time>2011-10-10T08:35:22.0000000+00:00</time></trkpt><trkpt lat="44.654392" lon="33.798866"><ele>93.7</ele><time>2011-10-10T08:35:27.0000000+00:00</time></trkpt><trkpt lat="44.654354" lon="33.79879"><ele>92.8</ele><time>2011-10-10T08:35:32.0000000+00:00</time></trkpt><trkpt lat="44.654305" lon="33.79871"><ele>91.4</ele><time>2011-10-10T08:35:37.0000000+00:00</time></trkpt><trkpt lat="44.654118" lon="33.798595"><ele>90.1</ele><time>2011-10-10T08:35:42.0000000+00:00</time></trkpt><trkpt lat="44.654041" lon="33.79855"><ele>89.6</ele><time>2011-10-10T08:35:47.0000000+00:00</time></trkpt><trkpt lat="44.654034" lon="33.798542"><ele>89.7</ele><time>2011-10-10T08:35:52.0000000+00:00</time></trkpt><trkpt lat="44.654037" lon="33.798534"><ele>90.9</ele><time>2011-10-10T08:35:57.0000000+00:00</time></trkpt><trkpt lat="44.654037" lon="33.798527"><ele>91.8</ele><time>2011-10-10T08:36:02.0000000+00:00</time></trkpt><trkpt lat="44.65403" lon="33.798534"><ele>91.8</ele><time>2011-10-10T08:36:07.0000000+00:00</time></trkpt><trkpt lat="44.654037" lon="33.798538"><ele>91.8</ele><time>2011-10-10T08:36:12.0000000+00:00</time></trkpt><trkpt lat="44.654037" lon="33.798534"><ele>92.1</ele><time>2011-10-10T08:36:17.0000000+00:00</time></trkpt><trkpt lat="44.654037" lon="33.798523"><ele>92.8</ele><time>2011-10-10T08:36:22.0000000+00:00</time></trkpt><trkpt lat="44.654045" lon="33.798519"><ele>93.0</ele><time>2011-10-10T08:36:27.0000000+00:00</time></trkpt><trkpt lat="44.654049" lon="33.798519"><ele>93.2</ele><time>2011-10-10T08:36:32.0000000+00:00</time></trkpt><trkpt lat="44.654045" lon="33.798519"><ele>92.9</ele><time>2011-10-10T08:36:37.0000000+00:00</time></trkpt><trkpt lat="44.654037" lon="33.798519"><ele>92.6</ele><time>2011-10-10T08:36:42.0000000+00:00</time></trkpt><trkpt lat="44.65403" lon="33.798527"><ele>92.3</ele><time>2011-10-10T08:36:47.0000000+00:00</time></trkpt><trkpt lat="44.654011" lon="33.7985"><ele>92.6</ele><time>2011-10-10T08:36:52.0000000+00:00</time></trkpt><trkpt lat="44.654003" lon="33.798473"><ele>93.8</ele><time>2011-10-10T08:36:57.0000000+00:00</time></trkpt><trkpt lat="44.654003" lon="33.798431"><ele>95.0</ele><time>2011-10-10T08:37:02.0000000+00:00</time></trkpt><trkpt lat="44.653999" lon="33.798416"><ele>95.7</ele><time>2011-10-10T08:37:07.0000000+00:00</time></trkpt><trkpt lat="44.653999" lon="33.79842"><ele>95.9</ele><time>2011-10-10T08:37:12.0000000+00:00</time></trkpt><trkpt lat="44.653996" lon="33.79842"><ele>96.4</ele><time>2011-10-10T08:37:17.0000000+00:00</time></trkpt><trkpt lat="44.653973" lon="33.798389"><ele>97.3</ele><time>2011-10-10T08:37:22.0000000+00:00</time></trkpt><trkpt lat="44.653927" lon="33.798386"><ele>97.4</ele><time>2011-10-10T08:37:27.0000000+00:00</time></trkpt><trkpt lat="44.653912" lon="33.798378"><ele>97.3</ele><time>2011-10-10T08:37:32.0000000+00:00</time></trkpt><trkpt lat="44.653896" lon="33.798405"><ele>97.1</ele><time>2011-10-10T08:37:37.0000000+00:00</time></trkpt><trkpt lat="44.653889" lon="33.798409"><ele>96.5</ele><time>2011-10-10T08:37:42.0000000+00:00</time></trkpt><trkpt lat="44.653889" lon="33.798409"><ele>96.1</ele><time>2011-10-10T08:37:47.0000000+00:00</time></trkpt><trkpt lat="44.653877" lon="33.798416"><ele>95.7</ele><time>2011-10-10T08:37:52.0000000+00:00</time></trkpt><trkpt lat="44.653873" lon="33.798416"><ele>95.6</ele><time>2011-10-10T08:37:57.0000000+00:00</time></trkpt><trkpt lat="44.65387" lon="33.798416"><ele>95.8</ele><time>2011-10-10T08:38:02.0000000+00:00</time></trkpt><trkpt lat="44.65387" lon="33.798416"><ele>95.8</ele><time>2011-10-10T08:38:07.0000000+00:00</time></trkpt><trkpt lat="44.65387" lon="33.798416"><ele>95.8</ele><time>2011-10-10T08:38:12.0000000+00:00</time></trkpt><trkpt lat="44.65387" lon="33.798416"><ele>95.6</ele><time>2011-10-10T08:38:17.0000000+00:00</time></trkpt><trkpt lat="44.653873" lon="33.798424"><ele>95.2</ele><time>2011-10-10T08:38:22.0000000+00:00</time></trkpt><trkpt lat="44.653873" lon="33.798424"><ele>95.2</ele><time>2011-10-10T08:38:27.0000000+00:00</time></trkpt><trkpt lat="44.653873" lon="33.798424"><ele>95.2</ele><time>2011-10-10T08:38:32.0000000+00:00</time></trkpt><trkpt lat="44.653873" lon="33.798424"><ele>95.2</ele><time>2011-10-10T08:38:37.0000000+00:00</time></trkpt><trkpt lat="44.653873" lon="33.798424"><ele>95.2</ele><time>2011-10-10T08:38:42.0000000+00:00</time></trkpt><trkpt lat="44.653873" lon="33.798424"><ele>95.2</ele><time>2011-10-10T08:38:47.0000000+00:00</time></trkpt><trkpt lat="44.653873" lon="33.798424"><ele>95.2</ele><time>2011-10-10T08:38:52.0000000+00:00</time></trkpt><trkpt lat="44.653873" lon="33.798424"><ele>95.2</ele><time>2011-10-10T08:38:57.0000000+00:00</time></trkpt><trkpt lat="44.653873" lon="33.798424"><ele>95.2</ele><time>2011-10-10T08:39:02.0000000+00:00</time></trkpt><trkpt lat="44.653873" lon="33.798424"><ele>95.3</ele><time>2011-10-10T08:39:07.0000000+00:00</time></trkpt><trkpt lat="44.653873" lon="33.798424"><ele>95.3</ele><time>2011-10-10T08:39:12.0000000+00:00</time></trkpt><trkpt lat="44.653873" lon="33.798424"><ele>95.3</ele><time>2011-10-10T08:39:17.0000000+00:00</time></trkpt><trkpt lat="44.653873" lon="33.798424"><ele>95.3</ele><time>2011-10-10T08:39:22.0000000+00:00</time></trkpt><trkpt lat="44.653873" lon="33.798424"><ele>95.3</ele><time>2011-10-10T08:39:27.0000000+00:00</time></trkpt><trkpt lat="44.653873" lon="33.798424"><ele>95.3</ele><time>2011-10-10T08:39:32.0000000+00:00</time></trkpt><trkpt lat="44.653873" lon="33.798424"><ele>95.3</ele><time>2011-10-10T08:39:37.0000000+00:00</time></trkpt><trkpt lat="44.653873" lon="33.798424"><ele>95.3</ele><time>2011-10-10T08:39:42.0000000+00:00</time></trkpt><trkpt lat="44.653873" lon="33.798424"><ele>95.3</ele><time>2011-10-10T08:39:47.0000000+00:00</time></trkpt><trkpt lat="44.653873" lon="33.798424"><ele>95.3</ele><time>2011-10-10T08:39:52.0000000+00:00</time></trkpt><trkpt lat="44.653862" lon="33.79837"><ele>95.3</ele><time>2011-10-10T08:39:57.0000000+00:00</time></trkpt><trkpt lat="44.653854" lon="33.798241"><ele>95.7</ele><time>2011-10-10T08:40:02.0000000+00:00</time></trkpt><trkpt lat="44.653835" lon="33.798153"><ele>96.2</ele><time>2011-10-10T08:40:07.0000000+00:00</time></trkpt><trkpt lat="44.653782" lon="33.798046"><ele>97.2</ele><time>2011-10-10T08:40:12.0000000+00:00</time></trkpt><trkpt lat="44.653748" lon="33.797985"><ele>99.4</ele><time>2011-10-10T08:40:17.0000000+00:00</time></trkpt><trkpt lat="44.653748" lon="33.798016"><ele>99.8</ele><time>2011-10-10T08:40:22.0000000+00:00</time></trkpt><trkpt lat="44.653759" lon="33.798042"><ele>100.1</ele><time>2011-10-10T08:40:27.0000000+00:00</time></trkpt><trkpt lat="44.653755" lon="33.798065"><ele>100.4</ele><time>2011-10-10T08:40:32.0000000+00:00</time></trkpt><trkpt lat="44.653759" lon="33.798145"><ele>101.4</ele><time>2011-10-10T08:40:37.0000000+00:00</time></trkpt><trkpt lat="44.653774" lon="33.798248"><ele>102.3</ele><time>2011-10-10T08:40:42.0000000+00:00</time></trkpt><trkpt lat="44.653774" lon="33.798389"><ele>102.7</ele><time>2011-10-10T08:40:47.0000000+00:00</time></trkpt><trkpt lat="44.653763" lon="33.798523"><ele>103.4</ele><time>2011-10-10T08:40:52.0000000+00:00</time></trkpt><trkpt lat="44.65374" lon="33.798634"><ele>104.7</ele><time>2011-10-10T08:40:57.0000000+00:00</time></trkpt><trkpt lat="44.653759" lon="33.798759"><ele>104.4</ele><time>2011-10-10T08:41:02.0000000+00:00</time></trkpt><trkpt lat="44.653759" lon="33.798878"><ele>104.5</ele><time>2011-10-10T08:41:07.0000000+00:00</time></trkpt><trkpt lat="44.653763" lon="33.79903"><ele>105.2</ele><time>2011-10-10T08:41:12.0000000+00:00</time></trkpt><trkpt lat="44.653805" lon="33.799252"><ele>107.1</ele><time>2011-10-10T08:41:17.0000000+00:00</time></trkpt><trkpt lat="44.653809" lon="33.799458"><ele>109.5</ele><time>2011-10-10T08:41:22.0000000+00:00</time></trkpt><trkpt lat="44.653851" lon="33.799664"><ele>110.5</ele><time>2011-10-10T08:41:27.0000000+00:00</time></trkpt><trkpt lat="44.653862" lon="33.799824"><ele>112.7</ele><time>2011-10-10T08:41:32.0000000+00:00</time></trkpt><trkpt lat="44.653862" lon="33.799946"><ele>113.5</ele><time>2011-10-10T08:41:37.0000000+00:00</time></trkpt><trkpt lat="44.653858" lon="33.80006"><ele>113.9</ele><time>2011-10-10T08:41:42.0000000+00:00</time></trkpt><trkpt lat="44.653866" lon="33.800194"><ele>115.1</ele><time>2011-10-10T08:41:47.0000000+00:00</time></trkpt><trkpt lat="44.65387" lon="33.800316"><ele>116.0</ele><time>2011-10-10T08:41:52.0000000+00:00</time></trkpt><trkpt lat="44.653858" lon="33.800407"><ele>116.3</ele><time>2011-10-10T08:41:57.0000000+00:00</time></trkpt><trkpt lat="44.653851" lon="33.800514"><ele>117.4</ele><time>2011-10-10T08:42:02.0000000+00:00</time></trkpt><trkpt lat="44.653831" lon="33.80061"><ele>119.2</ele><time>2011-10-10T08:42:07.0000000+00:00</time></trkpt><trkpt lat="44.653793" lon="33.800697"><ele>121.1</ele><time>2011-10-10T08:42:12.0000000+00:00</time></trkpt><trkpt lat="44.65374" lon="33.800789"><ele>121.7</ele><time>2011-10-10T08:42:17.0000000+00:00</time></trkpt><trkpt lat="44.653675" lon="33.800896"><ele>122.0</ele><time>2011-10-10T08:42:22.0000000+00:00</time></trkpt><trkpt lat="44.653633" lon="33.80098"><ele>122.8</ele><time>2011-10-10T08:42:27.0000000+00:00</time></trkpt><trkpt lat="44.653572" lon="33.801086"><ele>123.0</ele><time>2011-10-10T08:42:32.0000000+00:00</time></trkpt><trkpt lat="44.653526" lon="33.801189"><ele>124.6</ele><time>2011-10-10T08:42:37.0000000+00:00</time></trkpt><trkpt lat="44.653454" lon="33.801311"><ele>125.4</ele><time>2011-10-10T08:42:42.0000000+00:00</time></trkpt><trkpt lat="44.653381" lon="33.801411"><ele>127.1</ele><time>2011-10-10T08:42:47.0000000+00:00</time></trkpt><trkpt lat="44.65329" lon="33.801479"><ele>129.3</ele><time>2011-10-10T08:42:52.0000000+00:00</time></trkpt><trkpt lat="44.653198" lon="33.801521"><ele>129.8</ele><time>2011-10-10T08:42:57.0000000+00:00</time></trkpt><trkpt lat="44.653126" lon="33.801575"><ele>129.5</ele><time>2011-10-10T08:43:02.0000000+00:00</time></trkpt><trkpt lat="44.653019" lon="33.801609"><ele>130.5</ele><time>2011-10-10T08:43:07.0000000+00:00</time></trkpt><trkpt lat="44.652916" lon="33.801659"><ele>132.2</ele><time>2011-10-10T08:43:12.0000000+00:00</time></trkpt><trkpt lat="44.65284" lon="33.80167"><ele>132.1</ele><time>2011-10-10T08:43:17.0000000+00:00</time></trkpt><trkpt lat="44.652782" lon="33.801666"><ele>132.9</ele><time>2011-10-10T08:43:22.0000000+00:00</time></trkpt><trkpt lat="44.652767" lon="33.801678"><ele>133.6</ele><time>2011-10-10T08:43:27.0000000+00:00</time></trkpt><trkpt lat="44.652767" lon="33.801678"><ele>133.8</ele><time>2011-10-10T08:43:32.0000000+00:00</time></trkpt><trkpt lat="44.652771" lon="33.801678"><ele>133.7</ele><time>2011-10-10T08:43:37.0000000+00:00</time></trkpt><trkpt lat="44.652771" lon="33.801678"><ele>133.7</ele><time>2011-10-10T08:43:42.0000000+00:00</time></trkpt><trkpt lat="44.652771" lon="33.801678"><ele>133.7</ele><time>2011-10-10T08:43:47.0000000+00:00</time></trkpt><trkpt lat="44.652767" lon="33.801678"><ele>133.7</ele><time>2011-10-10T08:43:52.0000000+00:00</time></trkpt><trkpt lat="44.652767" lon="33.801678"><ele>133.7</ele><time>2011-10-10T08:43:57.0000000+00:00</time></trkpt><trkpt lat="44.652767" lon="33.801678"><ele>133.7</ele><time>2011-10-10T08:44:02.0000000+00:00</time></trkpt><trkpt lat="44.652767" lon="33.801678"><ele>133.6</ele><time>2011-10-10T08:44:07.0000000+00:00</time></trkpt><trkpt lat="44.652767" lon="33.801678"><ele>133.6</ele><time>2011-10-10T08:44:12.0000000+00:00</time></trkpt><trkpt lat="44.652767" lon="33.801678"><ele>133.6</ele><time>2011-10-10T08:44:17.0000000+00:00</time></trkpt><trkpt lat="44.65274" lon="33.80167"><ele>133.6</ele><time>2011-10-10T08:44:22.0000000+00:00</time></trkpt><trkpt lat="44.652645" lon="33.80164"><ele>133.7</ele><time>2011-10-10T08:44:27.0000000+00:00</time></trkpt><trkpt lat="44.652557" lon="33.801605"><ele>133.4</ele><time>2011-10-10T08:44:32.0000000+00:00</time></trkpt><trkpt lat="44.652454" lon="33.801582"><ele>134.2</ele><time>2011-10-10T08:44:37.0000000+00:00</time></trkpt><trkpt lat="44.652355" lon="33.801579"><ele>137.1</ele><time>2011-10-10T08:44:42.0000000+00:00</time></trkpt><trkpt lat="44.652271" lon="33.801582"><ele>138.0</ele><time>2011-10-10T08:44:47.0000000+00:00</time></trkpt><trkpt lat="44.652264" lon="33.801586"><ele>137.6</ele><time>2011-10-10T08:44:52.0000000+00:00</time></trkpt><trkpt lat="44.652256" lon="33.80159"><ele>137.9</ele><time>2011-10-10T08:44:57.0000000+00:00</time></trkpt><trkpt lat="44.652184" lon="33.80159"><ele>139.4</ele><time>2011-10-10T08:45:02.0000000+00:00</time></trkpt><trkpt lat="44.652107" lon="33.801632"><ele>140.1</ele><time>2011-10-10T08:45:07.0000000+00:00</time></trkpt><trkpt lat="44.652042" lon="33.801708"><ele>140.3</ele><time>2011-10-10T08:45:12.0000000+00:00</time></trkpt><trkpt lat="44.651978" lon="33.801811"><ele>140.0</ele><time>2011-10-10T08:45:17.0000000+00:00</time></trkpt><trkpt lat="44.651905" lon="33.801918"><ele>139.9</ele><time>2011-10-10T08:45:22.0000000+00:00</time></trkpt><trkpt lat="44.651897" lon="33.801922"><ele>139.7</ele><time>2011-10-10T08:45:27.0000000+00:00</time></trkpt><trkpt lat="44.651897" lon="33.801922"><ele>139.9</ele><time>2011-10-10T08:45:32.0000000+00:00</time></trkpt><trkpt lat="44.651905" lon="33.801918"><ele>140.9</ele><time>2011-10-10T08:45:37.0000000+00:00</time></trkpt><trkpt lat="44.651905" lon="33.801907"><ele>141.6</ele><time>2011-10-10T08:45:42.0000000+00:00</time></trkpt><trkpt lat="44.651905" lon="33.801895"><ele>141.9</ele><time>2011-10-10T08:45:47.0000000+00:00</time></trkpt><trkpt lat="44.651905" lon="33.801888"><ele>141.8</ele><time>2011-10-10T08:45:52.0000000+00:00</time></trkpt><trkpt lat="44.651905" lon="33.801895"><ele>141.6</ele><time>2011-10-10T08:45:57.0000000+00:00</time></trkpt><trkpt lat="44.651901" lon="33.801914"><ele>141.5</ele><time>2011-10-10T08:46:02.0000000+00:00</time></trkpt><trkpt lat="44.651901" lon="33.801922"><ele>141.3</ele><time>2011-10-10T08:46:07.0000000+00:00</time></trkpt><trkpt lat="44.651901" lon="33.801933"><ele>141.2</ele><time>2011-10-10T08:46:12.0000000+00:00</time></trkpt><trkpt lat="44.651905" lon="33.801929"><ele>141.2</ele><time>2011-10-10T08:46:17.0000000+00:00</time></trkpt><trkpt lat="44.651905" lon="33.801929"><ele>141.0</ele><time>2011-10-10T08:46:22.0000000+00:00</time></trkpt><trkpt lat="44.651905" lon="33.801929"><ele>140.7</ele><time>2011-10-10T08:46:27.0000000+00:00</time></trkpt><trkpt lat="44.651905" lon="33.801929"><ele>140.3</ele><time>2011-10-10T08:46:32.0000000+00:00</time></trkpt><trkpt lat="44.651905" lon="33.801937"><ele>139.9</ele><time>2011-10-10T08:46:37.0000000+00:00</time></trkpt><trkpt lat="44.651909" lon="33.801941"><ele>139.9</ele><time>2011-10-10T08:46:42.0000000+00:00</time></trkpt><trkpt lat="44.651909" lon="33.801937"><ele>139.9</ele><time>2011-10-10T08:46:47.0000000+00:00</time></trkpt><trkpt lat="44.651909" lon="33.801937"><ele>140.2</ele><time>2011-10-10T08:46:52.0000000+00:00</time></trkpt><trkpt lat="44.651909" lon="33.801937"><ele>140.3</ele><time>2011-10-10T08:46:57.0000000+00:00</time></trkpt><trkpt lat="44.651905" lon="33.801933"><ele>140.5</ele><time>2011-10-10T08:47:02.0000000+00:00</time></trkpt><trkpt lat="44.651901" lon="33.801929"><ele>140.4</ele><time>2011-10-10T08:47:07.0000000+00:00</time></trkpt><trkpt lat="44.651901" lon="33.801929"><ele>140.4</ele><time>2011-10-10T08:47:12.0000000+00:00</time></trkpt><trkpt lat="44.651901" lon="33.801926"><ele>140.4</ele><time>2011-10-10T08:47:17.0000000+00:00</time></trkpt><trkpt lat="44.651901" lon="33.801926"><ele>140.4</ele><time>2011-10-10T08:47:22.0000000+00:00</time></trkpt><trkpt lat="44.651901" lon="33.801926"><ele>140.4</ele><time>2011-10-10T08:47:27.0000000+00:00</time></trkpt><trkpt lat="44.651901" lon="33.801926"><ele>140.4</ele><time>2011-10-10T08:47:32.0000000+00:00</time></trkpt><trkpt lat="44.651836" lon="33.801922"><ele>139.2</ele><time>2011-10-10T08:47:37.0000000+00:00</time></trkpt><trkpt lat="44.651573" lon="33.801826"><ele>137.0</ele><time>2011-10-10T08:47:42.0000000+00:00</time></trkpt><trkpt lat="44.651478" lon="33.801826"><ele>138.1</ele><time>2011-10-10T08:47:47.0000000+00:00</time></trkpt><trkpt lat="44.651379" lon="33.801834"><ele>139.3</ele><time>2011-10-10T08:47:52.0000000+00:00</time></trkpt><trkpt lat="44.651344" lon="33.801865"><ele>141.8</ele><time>2011-10-10T08:47:57.0000000+00:00</time></trkpt><trkpt lat="44.651337" lon="33.801861"><ele>142.2</ele><time>2011-10-10T08:48:02.0000000+00:00</time></trkpt><trkpt lat="44.651299" lon="33.801865"><ele>141.7</ele><time>2011-10-10T08:48:07.0000000+00:00</time></trkpt><trkpt lat="44.651268" lon="33.801857"><ele>141.1</ele><time>2011-10-10T08:48:12.0000000+00:00</time></trkpt><trkpt lat="44.651257" lon="33.801888"><ele>141.5</ele><time>2011-10-10T08:48:17.0000000+00:00</time></trkpt><trkpt lat="44.651218" lon="33.80191"><ele>141.4</ele><time>2011-10-10T08:48:22.0000000+00:00</time></trkpt><trkpt lat="44.651169" lon="33.80191"><ele>141.6</ele><time>2011-10-10T08:48:27.0000000+00:00</time></trkpt><trkpt lat="44.651165" lon="33.801914"><ele>141.9</ele><time>2011-10-10T08:48:32.0000000+00:00</time></trkpt><trkpt lat="44.651169" lon="33.801903"><ele>141.8</ele><time>2011-10-10T08:48:37.0000000+00:00</time></trkpt><trkpt lat="44.651161" lon="33.801891"><ele>142.3</ele><time>2011-10-10T08:48:42.0000000+00:00</time></trkpt><trkpt lat="44.65115" lon="33.801891"><ele>142.7</ele><time>2011-10-10T08:48:47.0000000+00:00</time></trkpt><trkpt lat="44.65115" lon="33.801876"><ele>143.7</ele><time>2011-10-10T08:48:52.0000000+00:00</time></trkpt><trkpt lat="44.651146" lon="33.80188"><ele>143.9</ele><time>2011-10-10T08:48:57.0000000+00:00</time></trkpt><trkpt lat="44.651138" lon="33.801888"><ele>143.2</ele><time>2011-10-10T08:49:02.0000000+00:00</time></trkpt><trkpt lat="44.651138" lon="33.801888"><ele>143.6</ele><time>2011-10-10T08:49:07.0000000+00:00</time></trkpt><trkpt lat="44.651131" lon="33.801891"><ele>144.7</ele><time>2011-10-10T08:49:12.0000000+00:00</time></trkpt><trkpt lat="44.651127" lon="33.801888"><ele>145.3</ele><time>2011-10-10T08:49:17.0000000+00:00</time></trkpt><trkpt lat="44.651131" lon="33.801888"><ele>145.1</ele><time>2011-10-10T08:49:22.0000000+00:00</time></trkpt><trkpt lat="44.651131" lon="33.801888"><ele>145.1</ele><time>2011-10-10T08:49:27.0000000+00:00</time></trkpt><trkpt lat="44.651131" lon="33.801888"><ele>145.1</ele><time>2011-10-10T08:49:32.0000000+00:00</time></trkpt><trkpt lat="44.651131" lon="33.801888"><ele>145.1</ele><time>2011-10-10T08:49:37.0000000+00:00</time></trkpt><trkpt lat="44.651131" lon="33.801888"><ele>145.1</ele><time>2011-10-10T08:49:42.0000000+00:00</time></trkpt><trkpt lat="44.651131" lon="33.801888"><ele>145.1</ele><time>2011-10-10T08:49:47.0000000+00:00</time></trkpt><trkpt lat="44.651131" lon="33.801888"><ele>145.1</ele><time>2011-10-10T08:49:52.0000000+00:00</time></trkpt><trkpt lat="44.651131" lon="33.801888"><ele>145.1</ele><time>2011-10-10T08:49:57.0000000+00:00</time></trkpt><trkpt lat="44.651131" lon="33.801888"><ele>145.1</ele><time>2011-10-10T08:50:02.0000000+00:00</time></trkpt><trkpt lat="44.651131" lon="33.801888"><ele>145.1</ele><time>2011-10-10T08:50:07.0000000+00:00</time></trkpt><trkpt lat="44.651131" lon="33.801888"><ele>145.2</ele><time>2011-10-10T08:50:12.0000000+00:00</time></trkpt><trkpt lat="44.651131" lon="33.801888"><ele>145.2</ele><time>2011-10-10T08:50:17.0000000+00:00</time></trkpt><trkpt lat="44.651131" lon="33.801888"><ele>145.2</ele><time>2011-10-10T08:50:22.0000000+00:00</time></trkpt><trkpt lat="44.651131" lon="33.801888"><ele>145.2</ele><time>2011-10-10T08:50:27.0000000+00:00</time></trkpt><trkpt lat="44.651131" lon="33.801888"><ele>145.1</ele><time>2011-10-10T08:50:32.0000000+00:00</time></trkpt><trkpt lat="44.651131" lon="33.801888"><ele>145.1</ele><time>2011-10-10T08:50:37.0000000+00:00</time></trkpt><trkpt lat="44.651131" lon="33.801888"><ele>145.1</ele><time>2011-10-10T08:50:42.0000000+00:00</time></trkpt><trkpt lat="44.651131" lon="33.801888"><ele>145.2</ele><time>2011-10-10T08:50:47.0000000+00:00</time></trkpt><trkpt lat="44.651131" lon="33.801888"><ele>145.2</ele><time>2011-10-10T08:50:52.0000000+00:00</time></trkpt><trkpt lat="44.651131" lon="33.801888"><ele>145.2</ele><time>2011-10-10T08:50:57.0000000+00:00</time></trkpt><trkpt lat="44.651131" lon="33.801888"><ele>145.2</ele><time>2011-10-10T08:51:02.0000000+00:00</time></trkpt><trkpt lat="44.651131" lon="33.801888"><ele>145.2</ele><time>2011-10-10T08:51:07.0000000+00:00</time></trkpt><trkpt lat="44.651131" lon="33.801888"><ele>145.2</ele><time>2011-10-10T08:51:12.0000000+00:00</time></trkpt><trkpt lat="44.651131" lon="33.801888"><ele>145.2</ele><time>2011-10-10T08:51:17.0000000+00:00</time></trkpt><trkpt lat="44.651131" lon="33.801888"><ele>145.2</ele><time>2011-10-10T08:51:22.0000000+00:00</time></trkpt><trkpt lat="44.651131" lon="33.801888"><ele>145.2</ele><time>2011-10-10T08:51:27.0000000+00:00</time></trkpt><trkpt lat="44.651131" lon="33.801888"><ele>145.2</ele><time>2011-10-10T08:51:32.0000000+00:00</time></trkpt><trkpt lat="44.651131" lon="33.801888"><ele>145.2</ele><time>2011-10-10T08:51:37.0000000+00:00</time></trkpt><trkpt lat="44.651131" lon="33.801888"><ele>145.2</ele><time>2011-10-10T08:51:42.0000000+00:00</time></trkpt><trkpt lat="44.651131" lon="33.801888"><ele>145.3</ele><time>2011-10-10T08:51:47.0000000+00:00</time></trkpt><trkpt lat="44.651131" lon="33.801888"><ele>145.3</ele><time>2011-10-10T08:51:52.0000000+00:00</time></trkpt><trkpt lat="44.651127" lon="33.801888"><ele>145.3</ele><time>2011-10-10T08:51:57.0000000+00:00</time></trkpt><trkpt lat="44.651127" lon="33.801888"><ele>145.3</ele><time>2011-10-10T08:52:02.0000000+00:00</time></trkpt><trkpt lat="44.651127" lon="33.801888"><ele>145.3</ele><time>2011-10-10T08:52:07.0000000+00:00</time></trkpt><trkpt lat="44.651127" lon="33.801888"><ele>145.3</ele><time>2011-10-10T08:52:12.0000000+00:00</time></trkpt><trkpt lat="44.651127" lon="33.801888"><ele>145.3</ele><time>2011-10-10T08:52:17.0000000+00:00</time></trkpt><trkpt lat="44.651127" lon="33.801888"><ele>145.3</ele><time>2011-10-10T08:52:22.0000000+00:00</time></trkpt><trkpt lat="44.651085" lon="33.801865"><ele>144.7</ele><time>2011-10-10T08:52:27.0000000+00:00</time></trkpt><trkpt lat="44.650993" lon="33.801899"><ele>146.0</ele><time>2011-10-10T08:52:32.0000000+00:00</time></trkpt><trkpt lat="44.650887" lon="33.801929"><ele>147.2</ele><time>2011-10-10T08:52:37.0000000+00:00</time></trkpt><trkpt lat="44.650784" lon="33.801971"><ele>147.4</ele><time>2011-10-10T08:52:42.0000000+00:00</time></trkpt><trkpt lat="44.6507" lon="33.80201"><ele>149.2</ele><time>2011-10-10T08:52:47.0000000+00:00</time></trkpt><trkpt lat="44.650631" lon="33.802055"><ele>151.5</ele><time>2011-10-10T08:52:52.0000000+00:00</time></trkpt><trkpt lat="44.650558" lon="33.802086"><ele>152.9</ele><time>2011-10-10T08:52:57.0000000+00:00</time></trkpt><trkpt lat="44.650475" lon="33.80212"><ele>153.0</ele><time>2011-10-10T08:53:02.0000000+00:00</time></trkpt><trkpt lat="44.650387" lon="33.80217"><ele>153.7</ele><time>2011-10-10T08:53:07.0000000+00:00</time></trkpt><trkpt lat="44.650311" lon="33.802216"><ele>155.2</ele><time>2011-10-10T08:53:12.0000000+00:00</time></trkpt><trkpt lat="44.650253" lon="33.802254"><ele>155.3</ele><time>2011-10-10T08:53:17.0000000+00:00</time></trkpt><trkpt lat="44.650196" lon="33.80228"><ele>155.5</ele><time>2011-10-10T08:53:22.0000000+00:00</time></trkpt><trkpt lat="44.650139" lon="33.802299"><ele>156.1</ele><time>2011-10-10T08:53:27.0000000+00:00</time></trkpt><trkpt lat="44.650089" lon="33.802315"><ele>156.2</ele><time>2011-10-10T08:53:32.0000000+00:00</time></trkpt><trkpt lat="44.650032" lon="33.802334"><ele>157.3</ele><time>2011-10-10T08:53:37.0000000+00:00</time></trkpt><trkpt lat="44.649975" lon="33.802357"><ele>157.6</ele><time>2011-10-10T08:53:42.0000000+00:00</time></trkpt><trkpt lat="44.649906" lon="33.802383"><ele>157.7</ele><time>2011-10-10T08:53:47.0000000+00:00</time></trkpt><trkpt lat="44.649834" lon="33.802406"><ele>158.4</ele><time>2011-10-10T08:53:52.0000000+00:00</time></trkpt><trkpt lat="44.649765" lon="33.802437"><ele>159.7</ele><time>2011-10-10T08:53:57.0000000+00:00</time></trkpt><trkpt lat="44.649639" lon="33.80249"><ele>161.1</ele><time>2011-10-10T08:54:02.0000000+00:00</time></trkpt><trkpt lat="44.649502" lon="33.802528"><ele>164.2</ele><time>2011-10-10T08:54:07.0000000+00:00</time></trkpt><trkpt lat="44.649361" lon="33.802612"><ele>165.9</ele><time>2011-10-10T08:54:12.0000000+00:00</time></trkpt><trkpt lat="44.649261" lon="33.802677"><ele>167.4</ele><time>2011-10-10T08:54:17.0000000+00:00</time></trkpt><trkpt lat="44.649166" lon="33.802708"><ele>168.1</ele><time>2011-10-10T08:54:22.0000000+00:00</time></trkpt><trkpt lat="44.649067" lon="33.802746"><ele>169.2</ele><time>2011-10-10T08:54:27.0000000+00:00</time></trkpt><trkpt lat="44.648979" lon="33.802784"><ele>170.0</ele><time>2011-10-10T08:54:32.0000000+00:00</time></trkpt><trkpt lat="44.64888" lon="33.802826"><ele>169.8</ele><time>2011-10-10T08:54:37.0000000+00:00</time></trkpt><trkpt lat="44.648781" lon="33.802872"><ele>170.0</ele><time>2011-10-10T08:54:42.0000000+00:00</time></trkpt><trkpt lat="44.648693" lon="33.802921"><ele>171.9</ele><time>2011-10-10T08:54:47.0000000+00:00</time></trkpt><trkpt lat="44.648605" lon="33.802963"><ele>173.4</ele><time>2011-10-10T08:54:52.0000000+00:00</time></trkpt><trkpt lat="44.64851" lon="33.802986"><ele>174.9</ele><time>2011-10-10T08:54:57.0000000+00:00</time></trkpt><trkpt lat="44.648418" lon="33.80299"><ele>174.9</ele><time>2011-10-10T08:55:02.0000000+00:00</time></trkpt><trkpt lat="44.648308" lon="33.802986"><ele>175.2</ele><time>2011-10-10T08:55:07.0000000+00:00</time></trkpt><trkpt lat="44.648209" lon="33.803017"><ele>176.6</ele><time>2011-10-10T08:55:12.0000000+00:00</time></trkpt><trkpt lat="44.648106" lon="33.803028"><ele>177.2</ele><time>2011-10-10T08:55:17.0000000+00:00</time></trkpt><trkpt lat="44.647999" lon="33.803032"><ele>176.7</ele><time>2011-10-10T08:55:22.0000000+00:00</time></trkpt><trkpt lat="44.6479" lon="33.803051"><ele>177.8</ele><time>2011-10-10T08:55:27.0000000+00:00</time></trkpt><trkpt lat="44.647827" lon="33.803078"><ele>179.7</ele><time>2011-10-10T08:55:32.0000000+00:00</time></trkpt><trkpt lat="44.647732" lon="33.803078"><ele>181.2</ele><time>2011-10-10T08:55:37.0000000+00:00</time></trkpt><trkpt lat="44.647636" lon="33.803089"><ele>182.3</ele><time>2011-10-10T08:55:42.0000000+00:00</time></trkpt><trkpt lat="44.647549" lon="33.803116"><ele>183.9</ele><time>2011-10-10T08:55:47.0000000+00:00</time></trkpt><trkpt lat="44.647465" lon="33.80315"><ele>184.0</ele><time>2011-10-10T08:55:52.0000000+00:00</time></trkpt><trkpt lat="44.647396" lon="33.803204"><ele>184.3</ele><time>2011-10-10T08:55:57.0000000+00:00</time></trkpt><trkpt lat="44.647343" lon="33.803234"><ele>183.9</ele><time>2011-10-10T08:56:02.0000000+00:00</time></trkpt><trkpt lat="44.64727" lon="33.803257"><ele>185.4</ele><time>2011-10-10T08:56:07.0000000+00:00</time></trkpt><trkpt lat="44.647194" lon="33.80328"><ele>186.0</ele><time>2011-10-10T08:56:12.0000000+00:00</time></trkpt><trkpt lat="44.647114" lon="33.803326"><ele>186.9</ele><time>2011-10-10T08:56:17.0000000+00:00</time></trkpt><trkpt lat="44.647015" lon="33.803356"><ele>186.8</ele><time>2011-10-10T08:56:22.0000000+00:00</time></trkpt><trkpt lat="44.646904" lon="33.803398"><ele>189.3</ele><time>2011-10-10T08:56:27.0000000+00:00</time></trkpt><trkpt lat="44.646809" lon="33.803467"><ele>190.7</ele><time>2011-10-10T08:56:32.0000000+00:00</time></trkpt><trkpt lat="44.646763" lon="33.803558"><ele>193.6</ele><time>2011-10-10T08:56:37.0000000+00:00</time></trkpt><trkpt lat="44.646725" lon="33.803646"><ele>196.0</ele><time>2011-10-10T08:56:42.0000000+00:00</time></trkpt><trkpt lat="44.646709" lon="33.803711"><ele>196.3</ele><time>2011-10-10T08:56:47.0000000+00:00</time></trkpt><trkpt lat="44.646667" lon="33.803768"><ele>195.8</ele><time>2011-10-10T08:56:52.0000000+00:00</time></trkpt><trkpt lat="44.646664" lon="33.80378"><ele>195.9</ele><time>2011-10-10T08:56:57.0000000+00:00</time></trkpt><trkpt lat="44.646645" lon="33.803802"><ele>195.3</ele><time>2011-10-10T08:57:02.0000000+00:00</time></trkpt><trkpt lat="44.646641" lon="33.803852"><ele>195.7</ele><time>2011-10-10T08:57:07.0000000+00:00</time></trkpt><trkpt lat="44.646633" lon="33.803856"><ele>195.4</ele><time>2011-10-10T08:57:12.0000000+00:00</time></trkpt><trkpt lat="44.646618" lon="33.803898"><ele>195.8</ele><time>2011-10-10T08:57:17.0000000+00:00</time></trkpt><trkpt lat="44.646584" lon="33.803959"><ele>195.5</ele><time>2011-10-10T08:57:22.0000000+00:00</time></trkpt><trkpt lat="44.646557" lon="33.804012"><ele>196.0</ele><time>2011-10-10T08:57:27.0000000+00:00</time></trkpt><trkpt lat="44.646534" lon="33.804066"><ele>197.1</ele><time>2011-10-10T08:57:32.0000000+00:00</time></trkpt><trkpt lat="44.646511" lon="33.804138"><ele>198.0</ele><time>2011-10-10T08:57:37.0000000+00:00</time></trkpt><trkpt lat="44.646481" lon="33.804203"><ele>198.6</ele><time>2011-10-10T08:57:42.0000000+00:00</time></trkpt><trkpt lat="44.646442" lon="33.804253"><ele>198.5</ele><time>2011-10-10T08:57:47.0000000+00:00</time></trkpt><trkpt lat="44.6464" lon="33.804291"><ele>198.6</ele><time>2011-10-10T08:57:52.0000000+00:00</time></trkpt><trkpt lat="44.646351" lon="33.804317"><ele>198.5</ele><time>2011-10-10T08:57:57.0000000+00:00</time></trkpt><trkpt lat="44.646309" lon="33.804325"><ele>198.8</ele><time>2011-10-10T08:58:02.0000000+00:00</time></trkpt><trkpt lat="44.646309" lon="33.804329"><ele>198.7</ele><time>2011-10-10T08:58:07.0000000+00:00</time></trkpt><trkpt lat="44.646301" lon="33.804333"><ele>198.6</ele><time>2011-10-10T08:58:12.0000000+00:00</time></trkpt><trkpt lat="44.646294" lon="33.804333"><ele>198.5</ele><time>2011-10-10T08:58:17.0000000+00:00</time></trkpt><trkpt lat="44.646294" lon="33.804325"><ele>198.4</ele><time>2011-10-10T08:58:22.0000000+00:00</time></trkpt><trkpt lat="44.646294" lon="33.804317"><ele>198.5</ele><time>2011-10-10T08:58:27.0000000+00:00</time></trkpt><trkpt lat="44.646301" lon="33.80431"><ele>198.8</ele><time>2011-10-10T08:58:32.0000000+00:00</time></trkpt><trkpt lat="44.646301" lon="33.80431"><ele>198.8</ele><time>2011-10-10T08:58:37.0000000+00:00</time></trkpt><trkpt lat="44.646297" lon="33.80431"><ele>198.8</ele><time>2011-10-10T08:58:42.0000000+00:00</time></trkpt><trkpt lat="44.646297" lon="33.80431"><ele>198.8</ele><time>2011-10-10T08:58:47.0000000+00:00</time></trkpt><trkpt lat="44.646297" lon="33.80431"><ele>198.8</ele><time>2011-10-10T08:58:52.0000000+00:00</time></trkpt><trkpt lat="44.646297" lon="33.80431"><ele>198.8</ele><time>2011-10-10T08:58:57.0000000+00:00</time></trkpt><trkpt lat="44.646297" lon="33.80431"><ele>198.8</ele><time>2011-10-10T08:59:02.0000000+00:00</time></trkpt><trkpt lat="44.646297" lon="33.804314"><ele>198.7</ele><time>2011-10-10T08:59:07.0000000+00:00</time></trkpt><trkpt lat="44.646297" lon="33.804314"><ele>198.7</ele><time>2011-10-10T08:59:12.0000000+00:00</time></trkpt><trkpt lat="44.646297" lon="33.804314"><ele>198.7</ele><time>2011-10-10T08:59:17.0000000+00:00</time></trkpt><trkpt lat="44.646297" lon="33.804314"><ele>198.7</ele><time>2011-10-10T08:59:22.0000000+00:00</time></trkpt><trkpt lat="44.646297" lon="33.804314"><ele>198.7</ele><time>2011-10-10T08:59:27.0000000+00:00</time></trkpt><trkpt lat="44.646297" lon="33.804314"><ele>198.7</ele><time>2011-10-10T08:59:32.0000000+00:00</time></trkpt><trkpt lat="44.646297" lon="33.804314"><ele>198.7</ele><time>2011-10-10T08:59:37.0000000+00:00</time></trkpt><trkpt lat="44.646297" lon="33.804314"><ele>198.7</ele><time>2011-10-10T08:59:42.0000000+00:00</time></trkpt><trkpt lat="44.646297" lon="33.804314"><ele>198.7</ele><time>2011-10-10T08:59:47.0000000+00:00</time></trkpt><trkpt lat="44.646297" lon="33.804314"><ele>198.7</ele><time>2011-10-10T08:59:52.0000000+00:00</time></trkpt><trkpt lat="44.646297" lon="33.804314"><ele>198.7</ele><time>2011-10-10T08:59:57.0000000+00:00</time></trkpt><trkpt lat="44.646297" lon="33.804314"><ele>198.7</ele><time>2011-10-10T09:00:02.0000000+00:00</time></trkpt><trkpt lat="44.646297" lon="33.804314"><ele>198.7</ele><time>2011-10-10T09:00:07.0000000+00:00</time></trkpt><trkpt lat="44.646297" lon="33.804314"><ele>198.7</ele><time>2011-10-10T09:00:12.0000000+00:00</time></trkpt><trkpt lat="44.646301" lon="33.804314"><ele>198.7</ele><time>2011-10-10T09:00:17.0000000+00:00</time></trkpt><trkpt lat="44.646301" lon="33.804314"><ele>198.7</ele><time>2011-10-10T09:00:22.0000000+00:00</time></trkpt><trkpt lat="44.646301" lon="33.804314"><ele>198.7</ele><time>2011-10-10T09:00:27.0000000+00:00</time></trkpt><trkpt lat="44.646301" lon="33.804314"><ele>198.7</ele><time>2011-10-10T09:00:32.0000000+00:00</time></trkpt><trkpt lat="44.646301" lon="33.804314"><ele>198.7</ele><time>2011-10-10T09:00:37.0000000+00:00</time></trkpt><trkpt lat="44.646301" lon="33.804314"><ele>198.7</ele><time>2011-10-10T09:00:42.0000000+00:00</time></trkpt><trkpt lat="44.646301" lon="33.804314"><ele>198.7</ele><time>2011-10-10T09:00:47.0000000+00:00</time></trkpt><trkpt lat="44.646301" lon="33.804314"><ele>198.7</ele><time>2011-10-10T09:00:52.0000000+00:00</time></trkpt><trkpt lat="44.646301" lon="33.804314"><ele>198.7</ele><time>2011-10-10T09:00:57.0000000+00:00</time></trkpt><trkpt lat="44.646301" lon="33.804314"><ele>198.7</ele><time>2011-10-10T09:01:02.0000000+00:00</time></trkpt><trkpt lat="44.646301" lon="33.804314"><ele>198.7</ele><time>2011-10-10T09:01:07.0000000+00:00</time></trkpt><trkpt lat="44.646301" lon="33.804314"><ele>198.5</ele><time>2011-10-10T09:01:12.0000000+00:00</time></trkpt><trkpt lat="44.646305" lon="33.804314"><ele>198.4</ele><time>2011-10-10T09:01:17.0000000+00:00</time></trkpt><trkpt lat="44.646305" lon="33.80431"><ele>197.8</ele><time>2011-10-10T09:01:22.0000000+00:00</time></trkpt><trkpt lat="44.646309" lon="33.80431"><ele>197.1</ele><time>2011-10-10T09:01:27.0000000+00:00</time></trkpt><trkpt lat="44.646317" lon="33.80431"><ele>196.7</ele><time>2011-10-10T09:01:32.0000000+00:00</time></trkpt><trkpt lat="44.646317" lon="33.804306"><ele>196.4</ele><time>2011-10-10T09:01:37.0000000+00:00</time></trkpt><trkpt lat="44.64632" lon="33.804306"><ele>196.4</ele><time>2011-10-10T09:01:42.0000000+00:00</time></trkpt><trkpt lat="44.64632" lon="33.804298"><ele>196.7</ele><time>2011-10-10T09:01:47.0000000+00:00</time></trkpt><trkpt lat="44.64632" lon="33.804298"><ele>196.7</ele><time>2011-10-10T09:01:52.0000000+00:00</time></trkpt><trkpt lat="44.64632" lon="33.804295"><ele>196.8</ele><time>2011-10-10T09:01:57.0000000+00:00</time></trkpt><trkpt lat="44.64632" lon="33.804295"><ele>196.8</ele><time>2011-10-10T09:02:02.0000000+00:00</time></trkpt><trkpt lat="44.64632" lon="33.804295"><ele>196.8</ele><time>2011-10-10T09:02:07.0000000+00:00</time></trkpt><trkpt lat="44.646324" lon="33.804295"><ele>196.8</ele><time>2011-10-10T09:02:12.0000000+00:00</time></trkpt><trkpt lat="44.646324" lon="33.804295"><ele>196.8</ele><time>2011-10-10T09:02:17.0000000+00:00</time></trkpt><trkpt lat="44.646324" lon="33.804295"><ele>196.8</ele><time>2011-10-10T09:02:22.0000000+00:00</time></trkpt><trkpt lat="44.646324" lon="33.804295"><ele>196.8</ele><time>2011-10-10T09:02:27.0000000+00:00</time></trkpt><trkpt lat="44.646324" lon="33.804295"><ele>196.8</ele><time>2011-10-10T09:02:32.0000000+00:00</time></trkpt><trkpt lat="44.646324" lon="33.804295"><ele>196.8</ele><time>2011-10-10T09:02:37.0000000+00:00</time></trkpt><trkpt lat="44.646324" lon="33.804295"><ele>196.8</ele><time>2011-10-10T09:02:42.0000000+00:00</time></trkpt><trkpt lat="44.646324" lon="33.804295"><ele>196.8</ele><time>2011-10-10T09:02:47.0000000+00:00</time></trkpt><trkpt lat="44.646324" lon="33.804295"><ele>196.7</ele><time>2011-10-10T09:02:52.0000000+00:00</time></trkpt><trkpt lat="44.646324" lon="33.804295"><ele>196.7</ele><time>2011-10-10T09:02:57.0000000+00:00</time></trkpt><trkpt lat="44.646324" lon="33.804295"><ele>196.7</ele><time>2011-10-10T09:03:02.0000000+00:00</time></trkpt><trkpt lat="44.646324" lon="33.804295"><ele>196.7</ele><time>2011-10-10T09:03:07.0000000+00:00</time></trkpt><trkpt lat="44.646324" lon="33.804295"><ele>196.7</ele><time>2011-10-10T09:03:12.0000000+00:00</time></trkpt><trkpt lat="44.646324" lon="33.804295"><ele>196.7</ele><time>2011-10-10T09:03:17.0000000+00:00</time></trkpt><trkpt lat="44.646324" lon="33.804295"><ele>196.7</ele><time>2011-10-10T09:03:22.0000000+00:00</time></trkpt><trkpt lat="44.646324" lon="33.804295"><ele>196.8</ele><time>2011-10-10T09:03:27.0000000+00:00</time></trkpt><trkpt lat="44.646324" lon="33.804295"><ele>196.8</ele><time>2011-10-10T09:03:32.0000000+00:00</time></trkpt><trkpt lat="44.646324" lon="33.804295"><ele>196.8</ele><time>2011-10-10T09:03:37.0000000+00:00</time></trkpt><trkpt lat="44.646324" lon="33.804295"><ele>196.8</ele><time>2011-10-10T09:03:42.0000000+00:00</time></trkpt><trkpt lat="44.646324" lon="33.804295"><ele>196.8</ele><time>2011-10-10T09:03:47.0000000+00:00</time></trkpt><trkpt lat="44.646324" lon="33.804291"><ele>196.8</ele><time>2011-10-10T09:03:52.0000000+00:00</time></trkpt><trkpt lat="44.646324" lon="33.804291"><ele>196.8</ele><time>2011-10-10T09:03:57.0000000+00:00</time></trkpt><trkpt lat="44.646297" lon="33.804287"><ele>196.5</ele><time>2011-10-10T09:04:02.0000000+00:00</time></trkpt><trkpt lat="44.646229" lon="33.804306"><ele>198.8</ele><time>2011-10-10T09:04:07.0000000+00:00</time></trkpt><trkpt lat="44.646156" lon="33.804329"><ele>202.0</ele><time>2011-10-10T09:04:12.0000000+00:00</time></trkpt><trkpt lat="44.64608" lon="33.804386"><ele>204.6</ele><time>2011-10-10T09:04:17.0000000+00:00</time></trkpt><trkpt lat="44.646004" lon="33.804451"><ele>207.8</ele><time>2011-10-10T09:04:22.0000000+00:00</time></trkpt><trkpt lat="44.64592" lon="33.804516"><ele>210.2</ele><time>2011-10-10T09:04:27.0000000+00:00</time></trkpt><trkpt lat="44.645798" lon="33.804565"><ele>209.4</ele><time>2011-10-10T09:04:32.0000000+00:00</time></trkpt><trkpt lat="44.645687" lon="33.804569"><ele>210.3</ele><time>2011-10-10T09:04:37.0000000+00:00</time></trkpt><trkpt lat="44.645596" lon="33.804546"><ele>211.1</ele><time>2011-10-10T09:04:42.0000000+00:00</time></trkpt><trkpt lat="44.645496" lon="33.804523"><ele>210.3</ele><time>2011-10-10T09:04:47.0000000+00:00</time></trkpt><trkpt lat="44.645397" lon="33.804535"><ele>211.0</ele><time>2011-10-10T09:04:52.0000000+00:00</time></trkpt><trkpt lat="44.645287" lon="33.804585"><ele>210.8</ele><time>2011-10-10T09:04:57.0000000+00:00</time></trkpt><trkpt lat="44.645199" lon="33.804638"><ele>210.4</ele><time>2011-10-10T09:05:02.0000000+00:00</time></trkpt><trkpt lat="44.645111" lon="33.804676"><ele>211.1</ele><time>2011-10-10T09:05:07.0000000+00:00</time></trkpt><trkpt lat="44.64502" lon="33.804703"><ele>212.4</ele><time>2011-10-10T09:05:12.0000000+00:00</time></trkpt><trkpt lat="44.644932" lon="33.804768"><ele>214.5</ele><time>2011-10-10T09:05:17.0000000+00:00</time></trkpt><trkpt lat="44.644871" lon="33.804836"><ele>217.5</ele><time>2011-10-10T09:05:22.0000000+00:00</time></trkpt><trkpt lat="44.644814" lon="33.804893"><ele>219.8</ele><time>2011-10-10T09:05:27.0000000+00:00</time></trkpt><trkpt lat="44.644775" lon="33.804951"><ele>219.0</ele><time>2011-10-10T09:05:32.0000000+00:00</time></trkpt><trkpt lat="44.644718" lon="33.805019"><ele>220.1</ele><time>2011-10-10T09:05:37.0000000+00:00</time></trkpt><trkpt lat="44.644653" lon="33.80508"><ele>220.0</ele><time>2011-10-10T09:05:42.0000000+00:00</time></trkpt><trkpt lat="44.6446" lon="33.805134"><ele>222.1</ele><time>2011-10-10T09:05:47.0000000+00:00</time></trkpt><trkpt lat="44.644527" lon="33.805199"><ele>223.2</ele><time>2011-10-10T09:05:52.0000000+00:00</time></trkpt><trkpt lat="44.644455" lon="33.805267"><ele>223.8</ele><time>2011-10-10T09:05:57.0000000+00:00</time></trkpt><trkpt lat="44.644386" lon="33.805336"><ele>225.1</ele><time>2011-10-10T09:06:02.0000000+00:00</time></trkpt><trkpt lat="44.644306" lon="33.805393"><ele>226.4</ele><time>2011-10-10T09:06:07.0000000+00:00</time></trkpt><trkpt lat="44.644241" lon="33.805443"><ele>228.4</ele><time>2011-10-10T09:06:12.0000000+00:00</time></trkpt><trkpt lat="44.644161" lon="33.80547"><ele>229.5</ele><time>2011-10-10T09:06:17.0000000+00:00</time></trkpt><trkpt lat="44.644085" lon="33.805504"><ele>230.3</ele><time>2011-10-10T09:06:22.0000000+00:00</time></trkpt><trkpt lat="44.644001" lon="33.805531"><ele>231.7</ele><time>2011-10-10T09:06:27.0000000+00:00</time></trkpt><trkpt lat="44.643906" lon="33.805561"><ele>230.6</ele><time>2011-10-10T09:06:32.0000000+00:00</time></trkpt><trkpt lat="44.643822" lon="33.805576"><ele>231.7</ele><time>2011-10-10T09:06:37.0000000+00:00</time></trkpt><trkpt lat="44.643745" lon="33.80555"><ele>232.9</ele><time>2011-10-10T09:06:42.0000000+00:00</time></trkpt><trkpt lat="44.643654" lon="33.8055"><ele>233.7</ele><time>2011-10-10T09:06:47.0000000+00:00</time></trkpt><trkpt lat="44.64357" lon="33.805458"><ele>234.6</ele><time>2011-10-10T09:06:52.0000000+00:00</time></trkpt><trkpt lat="44.643478" lon="33.805431"><ele>235.2</ele><time>2011-10-10T09:06:57.0000000+00:00</time></trkpt><trkpt lat="44.643375" lon="33.805431"><ele>235.8</ele><time>2011-10-10T09:07:02.0000000+00:00</time></trkpt><trkpt lat="44.64328" lon="33.80542"><ele>235.1</ele><time>2011-10-10T09:07:07.0000000+00:00</time></trkpt><trkpt lat="44.643192" lon="33.805408"><ele>236.8</ele><time>2011-10-10T09:07:12.0000000+00:00</time></trkpt><trkpt lat="44.64312" lon="33.805332"><ele>236.3</ele><time>2011-10-10T09:07:17.0000000+00:00</time></trkpt><trkpt lat="44.643063" lon="33.805363"><ele>235.9</ele><time>2011-10-10T09:07:22.0000000+00:00</time></trkpt><trkpt lat="44.643105" lon="33.805321"><ele>235.0</ele><time>2011-10-10T09:07:27.0000000+00:00</time></trkpt><trkpt lat="44.643112" lon="33.805225"><ele>233.9</ele><time>2011-10-10T09:07:32.0000000+00:00</time></trkpt><trkpt lat="44.643108" lon="33.805149"><ele>232.7</ele><time>2011-10-10T09:07:37.0000000+00:00</time></trkpt><trkpt lat="44.643097" lon="33.805126"><ele>231.4</ele><time>2011-10-10T09:07:42.0000000+00:00</time></trkpt><trkpt lat="44.643108" lon="33.805073"><ele>232.0</ele><time>2011-10-10T09:07:47.0000000+00:00</time></trkpt><trkpt lat="44.643089" lon="33.804993"><ele>232.3</ele><time>2011-10-10T09:07:52.0000000+00:00</time></trkpt><trkpt lat="44.64307" lon="33.804901"><ele>232.4</ele><time>2011-10-10T09:07:57.0000000+00:00</time></trkpt><trkpt lat="44.643066" lon="33.804905"><ele>231.6</ele><time>2011-10-10T09:08:02.0000000+00:00</time></trkpt><trkpt lat="44.643066" lon="33.804905"><ele>230.0</ele><time>2011-10-10T09:08:07.0000000+00:00</time></trkpt><trkpt lat="44.643074" lon="33.804905"><ele>229.4</ele><time>2011-10-10T09:08:12.0000000+00:00</time></trkpt><trkpt lat="44.64307" lon="33.804905"><ele>229.1</ele><time>2011-10-10T09:08:17.0000000+00:00</time></trkpt><trkpt lat="44.643074" lon="33.804913"><ele>228.6</ele><time>2011-10-10T09:08:22.0000000+00:00</time></trkpt><trkpt lat="44.643074" lon="33.804913"><ele>228.0</ele><time>2011-10-10T09:08:27.0000000+00:00</time></trkpt><trkpt lat="44.64307" lon="33.804905"><ele>228.0</ele><time>2011-10-10T09:08:32.0000000+00:00</time></trkpt><trkpt lat="44.643066" lon="33.804901"><ele>228.0</ele><time>2011-10-10T09:08:37.0000000+00:00</time></trkpt><trkpt lat="44.643066" lon="33.804901"><ele>227.9</ele><time>2011-10-10T09:08:42.0000000+00:00</time></trkpt><trkpt lat="44.643063" lon="33.804905"><ele>227.9</ele><time>2011-10-10T09:08:47.0000000+00:00</time></trkpt><trkpt lat="44.643063" lon="33.804905"><ele>227.9</ele><time>2011-10-10T09:08:52.0000000+00:00</time></trkpt><trkpt lat="44.643063" lon="33.804905"><ele>227.9</ele><time>2011-10-10T09:08:57.0000000+00:00</time></trkpt><trkpt lat="44.643063" lon="33.804905"><ele>227.9</ele><time>2011-10-10T09:09:02.0000000+00:00</time></trkpt><trkpt lat="44.643063" lon="33.804905"><ele>227.9</ele><time>2011-10-10T09:09:07.0000000+00:00</time></trkpt><trkpt lat="44.643063" lon="33.804905"><ele>227.9</ele><time>2011-10-10T09:09:12.0000000+00:00</time></trkpt><trkpt lat="44.643063" lon="33.804905"><ele>227.9</ele><time>2011-10-10T09:09:17.0000000+00:00</time></trkpt><trkpt lat="44.643063" lon="33.804905"><ele>227.9</ele><time>2011-10-10T09:09:22.0000000+00:00</time></trkpt><trkpt lat="44.643063" lon="33.804905"><ele>227.9</ele><time>2011-10-10T09:09:27.0000000+00:00</time></trkpt><trkpt lat="44.643063" lon="33.804905"><ele>227.9</ele><time>2011-10-10T09:09:32.0000000+00:00</time></trkpt><trkpt lat="44.643063" lon="33.804905"><ele>227.9</ele><time>2011-10-10T09:09:37.0000000+00:00</time></trkpt><trkpt lat="44.643063" lon="33.804905"><ele>227.9</ele><time>2011-10-10T09:09:42.0000000+00:00</time></trkpt><trkpt lat="44.643063" lon="33.804905"><ele>227.9</ele><time>2011-10-10T09:09:47.0000000+00:00</time></trkpt><trkpt lat="44.643063" lon="33.804905"><ele>227.9</ele><time>2011-10-10T09:09:52.0000000+00:00</time></trkpt><trkpt lat="44.643063" lon="33.804905"><ele>227.9</ele><time>2011-10-10T09:09:57.0000000+00:00</time></trkpt><trkpt lat="44.643063" lon="33.804905"><ele>227.9</ele><time>2011-10-10T09:10:02.0000000+00:00</time></trkpt><trkpt lat="44.643063" lon="33.804905"><ele>227.9</ele><time>2011-10-10T09:10:07.0000000+00:00</time></trkpt><trkpt lat="44.643063" lon="33.804905"><ele>227.9</ele><time>2011-10-10T09:10:12.0000000+00:00</time></trkpt><trkpt lat="44.643063" lon="33.804905"><ele>227.9</ele><time>2011-10-10T09:10:17.0000000+00:00</time></trkpt><trkpt lat="44.643063" lon="33.804905"><ele>227.9</ele><time>2011-10-10T09:10:22.0000000+00:00</time></trkpt><trkpt lat="44.643063" lon="33.804905"><ele>227.9</ele><time>2011-10-10T09:10:27.0000000+00:00</time></trkpt><trkpt lat="44.643063" lon="33.804909"><ele>227.9</ele><time>2011-10-10T09:10:32.0000000+00:00</time></trkpt><trkpt lat="44.643063" lon="33.804909"><ele>227.9</ele><time>2011-10-10T09:10:37.0000000+00:00</time></trkpt><trkpt lat="44.643063" lon="33.804909"><ele>227.9</ele><time>2011-10-10T09:10:42.0000000+00:00</time></trkpt><trkpt lat="44.643063" lon="33.804909"><ele>227.9</ele><time>2011-10-10T09:10:47.0000000+00:00</time></trkpt><trkpt lat="44.643063" lon="33.804909"><ele>228.0</ele><time>2011-10-10T09:10:52.0000000+00:00</time></trkpt><trkpt lat="44.643063" lon="33.804909"><ele>228.0</ele><time>2011-10-10T09:10:57.0000000+00:00</time></trkpt><trkpt lat="44.643063" lon="33.804909"><ele>228.0</ele><time>2011-10-10T09:11:02.0000000+00:00</time></trkpt><trkpt lat="44.643063" lon="33.804909"><ele>228.0</ele><time>2011-10-10T09:11:07.0000000+00:00</time></trkpt><trkpt lat="44.643063" lon="33.804893"><ele>227.6</ele><time>2011-10-10T09:11:12.0000000+00:00</time></trkpt><trkpt lat="44.643055" lon="33.80489"><ele>227.4</ele><time>2011-10-10T09:11:17.0000000+00:00</time></trkpt><trkpt lat="44.643055" lon="33.804893"><ele>227.2</ele><time>2011-10-10T09:11:22.0000000+00:00</time></trkpt><trkpt lat="44.643051" lon="33.804882"><ele>226.9</ele><time>2011-10-10T09:11:27.0000000+00:00</time></trkpt><trkpt lat="44.643017" lon="33.804821"><ele>226.6</ele><time>2011-10-10T09:11:32.0000000+00:00</time></trkpt><trkpt lat="44.642982" lon="33.804722"><ele>227.2</ele><time>2011-10-10T09:11:37.0000000+00:00</time></trkpt><trkpt lat="44.64291" lon="33.804604"><ele>226.9</ele><time>2011-10-10T09:11:42.0000000+00:00</time></trkpt><trkpt lat="44.642803" lon="33.804443"><ele>225.8</ele><time>2011-10-10T09:11:47.0000000+00:00</time></trkpt><trkpt lat="44.642654" lon="33.804226"><ele>224.5</ele><time>2011-10-10T09:11:52.0000000+00:00</time></trkpt><trkpt lat="44.642513" lon="33.80397"><ele>223.5</ele><time>2011-10-10T09:11:57.0000000+00:00</time></trkpt><trkpt lat="44.642342" lon="33.803715"><ele>222.5</ele><time>2011-10-10T09:12:02.0000000+00:00</time></trkpt><trkpt lat="44.642162" lon="33.803532"><ele>222.1</ele><time>2011-10-10T09:12:07.0000000+00:00</time></trkpt><trkpt lat="44.642025" lon="33.803337"><ele>221.7</ele><time>2011-10-10T09:12:12.0000000+00:00</time></trkpt><trkpt lat="44.641888" lon="33.803123"><ele>221.5</ele><time>2011-10-10T09:12:17.0000000+00:00</time></trkpt><trkpt lat="44.64172" lon="33.802834"><ele>220.2</ele><time>2011-10-10T09:12:22.0000000+00:00</time></trkpt><trkpt lat="44.641495" lon="33.802502"><ele>218.7</ele><time>2011-10-10T09:12:27.0000000+00:00</time></trkpt><trkpt lat="44.641266" lon="33.802135"><ele>214.9</ele><time>2011-10-10T09:12:32.0000000+00:00</time></trkpt><trkpt lat="44.64101" lon="33.801765"><ele>214.2</ele><time>2011-10-10T09:12:37.0000000+00:00</time></trkpt><trkpt lat="44.640785" lon="33.801399"><ele>211.6</ele><time>2011-10-10T09:12:42.0000000+00:00</time></trkpt><trkpt lat="44.640732" lon="33.801262"><ele>210.4</ele><time>2011-10-10T09:12:47.0000000+00:00</time></trkpt><trkpt lat="44.640732" lon="33.801262"><ele>210.4</ele><time>2011-10-10T09:12:52.0000000+00:00</time></trkpt><trkpt lat="44.640732" lon="33.801262"><ele>210.4</ele><time>2011-10-10T09:12:57.0000000+00:00</time></trkpt><trkpt lat="44.640713" lon="33.80122"><ele>210.4</ele><time>2011-10-10T09:13:02.0000000+00:00</time></trkpt><trkpt lat="44.640644" lon="33.801037"><ele>208.9</ele><time>2011-10-10T09:13:07.0000000+00:00</time></trkpt><trkpt lat="44.640633" lon="33.800922"><ele>208.0</ele><time>2011-10-10T09:13:12.0000000+00:00</time></trkpt><trkpt lat="44.640541" lon="33.800755"><ele>206.5</ele><time>2011-10-10T09:13:17.0000000+00:00</time></trkpt><trkpt lat="44.640434" lon="33.800434"><ele>205.0</ele><time>2011-10-10T09:13:22.0000000+00:00</time></trkpt><trkpt lat="44.640316" lon="33.800083"><ele>202.2</ele><time>2011-10-10T09:13:27.0000000+00:00</time></trkpt><trkpt lat="44.640186" lon="33.799706"><ele>199.3</ele><time>2011-10-10T09:13:32.0000000+00:00</time></trkpt><trkpt lat="44.640087" lon="33.799244"><ele>197.1</ele><time>2011-10-10T09:13:37.0000000+00:00</time></trkpt><trkpt lat="44.640079" lon="33.798668"><ele>193.5</ele><time>2011-10-10T09:13:42.0000000+00:00</time></trkpt><trkpt lat="44.640079" lon="33.798054"><ele>188.3</ele><time>2011-10-10T09:13:47.0000000+00:00</time></trkpt><trkpt lat="44.640095" lon="33.797466"><ele>184.3</ele><time>2011-10-10T09:13:52.0000000+00:00</time></trkpt><trkpt lat="44.640076" lon="33.797104"><ele>182.0</ele><time>2011-10-10T09:13:57.0000000+00:00</time></trkpt><trkpt lat="44.640072" lon="33.797108"><ele>182.2</ele><time>2011-10-10T09:14:02.0000000+00:00</time></trkpt><trkpt lat="44.640072" lon="33.797108"><ele>182.2</ele><time>2011-10-10T09:14:07.0000000+00:00</time></trkpt><trkpt lat="44.640072" lon="33.797108"><ele>182.3</ele><time>2011-10-10T09:14:12.0000000+00:00</time></trkpt><trkpt lat="44.640072" lon="33.797108"><ele>182.3</ele><time>2011-10-10T09:14:17.0000000+00:00</time></trkpt><trkpt lat="44.640072" lon="33.797108"><ele>182.3</ele><time>2011-10-10T09:14:22.0000000+00:00</time></trkpt><trkpt lat="44.640072" lon="33.797108"><ele>182.3</ele><time>2011-10-10T09:14:27.0000000+00:00</time></trkpt><trkpt lat="44.640072" lon="33.797108"><ele>182.3</ele><time>2011-10-10T09:14:32.0000000+00:00</time></trkpt><trkpt lat="44.640072" lon="33.797108"><ele>182.3</ele><time>2011-10-10T09:14:37.0000000+00:00</time></trkpt><trkpt lat="44.640072" lon="33.797112"><ele>182.3</ele><time>2011-10-10T09:14:42.0000000+00:00</time></trkpt><trkpt lat="44.640072" lon="33.797112"><ele>182.3</ele><time>2011-10-10T09:14:47.0000000+00:00</time></trkpt><trkpt lat="44.640072" lon="33.797112"><ele>182.3</ele><time>2011-10-10T09:14:52.0000000+00:00</time></trkpt><trkpt lat="44.640072" lon="33.797112"><ele>182.3</ele><time>2011-10-10T09:14:57.0000000+00:00</time></trkpt><trkpt lat="44.640072" lon="33.797112"><ele>182.3</ele><time>2011-10-10T09:15:02.0000000+00:00</time></trkpt><trkpt lat="44.640072" lon="33.797112"><ele>182.3</ele><time>2011-10-10T09:15:07.0000000+00:00</time></trkpt><trkpt lat="44.640072" lon="33.797112"><ele>182.3</ele><time>2011-10-10T09:15:12.0000000+00:00</time></trkpt><trkpt lat="44.640072" lon="33.797112"><ele>182.3</ele><time>2011-10-10T09:15:17.0000000+00:00</time></trkpt><trkpt lat="44.640076" lon="33.797085"><ele>182.1</ele><time>2011-10-10T09:15:22.0000000+00:00</time></trkpt><trkpt lat="44.640068" lon="33.796864"><ele>180.6</ele><time>2011-10-10T09:15:27.0000000+00:00</time></trkpt><trkpt lat="44.640064" lon="33.796459"><ele>177.8</ele><time>2011-10-10T09:15:32.0000000+00:00</time></trkpt><trkpt lat="44.64006" lon="33.796032"><ele>175.0</ele><time>2011-10-10T09:15:37.0000000+00:00</time></trkpt><trkpt lat="44.640079" lon="33.795834"><ele>173.9</ele><time>2011-10-10T09:15:42.0000000+00:00</time></trkpt><trkpt lat="44.640083" lon="33.795795"><ele>173.2</ele><time>2011-10-10T09:15:47.0000000+00:00</time></trkpt><trkpt lat="44.640083" lon="33.795795"><ele>173.2</ele><time>2011-10-10T09:15:52.0000000+00:00</time></trkpt><trkpt lat="44.640095" lon="33.795784"><ele>173.1</ele><time>2011-10-10T09:15:57.0000000+00:00</time></trkpt><trkpt lat="44.640205" lon="33.795654"><ele>172.3</ele><time>2011-10-10T09:16:02.0000000+00:00</time></trkpt><trkpt lat="44.64035" lon="33.795437"><ele>171.3</ele><time>2011-10-10T09:16:07.0000000+00:00</time></trkpt><trkpt lat="44.640514" lon="33.795197"><ele>169.5</ele><time>2011-10-10T09:16:12.0000000+00:00</time></trkpt><trkpt lat="44.640713" lon="33.794998"><ele>167.6</ele><time>2011-10-10T09:16:17.0000000+00:00</time></trkpt><trkpt lat="44.640923" lon="33.794769"><ele>165.6</ele><time>2011-10-10T09:16:22.0000000+00:00</time></trkpt><trkpt lat="44.64109" lon="33.794586"><ele>164.4</ele><time>2011-10-10T09:16:27.0000000+00:00</time></trkpt><trkpt lat="44.641197" lon="33.794449"><ele>162.0</ele><time>2011-10-10T09:16:32.0000000+00:00</time></trkpt><trkpt lat="44.641212" lon="33.794434"><ele>160.4</ele><time>2011-10-10T09:16:37.0000000+00:00</time></trkpt><trkpt lat="44.641216" lon="33.794441"><ele>159.3</ele><time>2011-10-10T09:16:42.0000000+00:00</time></trkpt><trkpt lat="44.641216" lon="33.794441"><ele>159.0</ele><time>2011-10-10T09:16:47.0000000+00:00</time></trkpt><trkpt lat="44.641224" lon="33.794437"><ele>158.9</ele><time>2011-10-10T09:16:52.0000000+00:00</time></trkpt><trkpt lat="44.641228" lon="33.794441"><ele>159.0</ele><time>2011-10-10T09:16:57.0000000+00:00</time></trkpt><trkpt lat="44.641239" lon="33.794441"><ele>159.1</ele><time>2011-10-10T09:17:02.0000000+00:00</time></trkpt><trkpt lat="44.641243" lon="33.794441"><ele>159.2</ele><time>2011-10-10T09:17:07.0000000+00:00</time></trkpt><trkpt lat="44.641247" lon="33.794441"><ele>159.3</ele><time>2011-10-10T09:17:12.0000000+00:00</time></trkpt><trkpt lat="44.641251" lon="33.794441"><ele>159.4</ele><time>2011-10-10T09:17:17.0000000+00:00</time></trkpt><trkpt lat="44.641251" lon="33.794445"><ele>159.4</ele><time>2011-10-10T09:17:22.0000000+00:00</time></trkpt><trkpt lat="44.641247" lon="33.794441"><ele>159.5</ele><time>2011-10-10T09:17:27.0000000+00:00</time></trkpt><trkpt lat="44.641243" lon="33.794437"><ele>159.6</ele><time>2011-10-10T09:17:32.0000000+00:00</time></trkpt><trkpt lat="44.641239" lon="33.794434"><ele>159.6</ele><time>2011-10-10T09:17:37.0000000+00:00</time></trkpt><trkpt lat="44.641239" lon="33.794434"><ele>159.7</ele><time>2011-10-10T09:17:42.0000000+00:00</time></trkpt><trkpt lat="44.641239" lon="33.79443"><ele>159.7</ele><time>2011-10-10T09:17:47.0000000+00:00</time></trkpt><trkpt lat="44.641228" lon="33.794422"><ele>159.7</ele><time>2011-10-10T09:17:52.0000000+00:00</time></trkpt><trkpt lat="44.641224" lon="33.794415"><ele>159.7</ele><time>2011-10-10T09:17:57.0000000+00:00</time></trkpt><trkpt lat="44.641216" lon="33.794418"><ele>160.0</ele><time>2011-10-10T09:18:02.0000000+00:00</time></trkpt><trkpt lat="44.641212" lon="33.794422"><ele>160.0</ele><time>2011-10-10T09:18:07.0000000+00:00</time></trkpt><trkpt lat="44.641232" lon="33.794415"><ele>159.9</ele><time>2011-10-10T09:18:12.0000000+00:00</time></trkpt><trkpt lat="44.641235" lon="33.794403"><ele>160.0</ele><time>2011-10-10T09:18:17.0000000+00:00</time></trkpt><trkpt lat="44.641304" lon="33.794338"><ele>160.0</ele><time>2011-10-10T09:18:22.0000000+00:00</time></trkpt><trkpt lat="44.64138" lon="33.794254"><ele>159.4</ele><time>2011-10-10T09:18:27.0000000+00:00</time></trkpt><trkpt lat="44.641407" lon="33.794144"><ele>158.5</ele><time>2011-10-10T09:18:32.0000000+00:00</time></trkpt><trkpt lat="44.641396" lon="33.794003"><ele>157.4</ele><time>2011-10-10T09:18:37.0000000+00:00</time></trkpt><trkpt lat="44.641396" lon="33.793781"><ele>155.8</ele><time>2011-10-10T09:18:42.0000000+00:00</time></trkpt><trkpt lat="44.641373" lon="33.793518"><ele>152.9</ele><time>2011-10-10T09:18:47.0000000+00:00</time></trkpt><trkpt lat="44.641293" lon="33.793247"><ele>150.0</ele><time>2011-10-10T09:18:52.0000000+00:00</time></trkpt><trkpt lat="44.641243" lon="33.793064"><ele>148.5</ele><time>2011-10-10T09:18:57.0000000+00:00</time></trkpt><trkpt lat="44.641216" lon="33.793007"><ele>148.4</ele><time>2011-10-10T09:19:02.0000000+00:00</time></trkpt><trkpt lat="44.641216" lon="33.793007"><ele>148.4</ele><time>2011-10-10T09:19:07.0000000+00:00</time></trkpt><trkpt lat="44.641216" lon="33.793007"><ele>148.4</ele><time>2011-10-10T09:19:12.0000000+00:00</time></trkpt><trkpt lat="44.641212" lon="33.792992"><ele>148.2</ele><time>2011-10-10T09:19:17.0000000+00:00</time></trkpt><trkpt lat="44.641205" lon="33.792969"><ele>148.5</ele><time>2011-10-10T09:19:22.0000000+00:00</time></trkpt><trkpt lat="44.641174" lon="33.792873"><ele>148.5</ele><time>2011-10-10T09:19:27.0000000+00:00</time></trkpt><trkpt lat="44.641151" lon="33.792786"><ele>148.4</ele><time>2011-10-10T09:19:32.0000000+00:00</time></trkpt><trkpt lat="44.641102" lon="33.792576"><ele>147.1</ele><time>2011-10-10T09:19:37.0000000+00:00</time></trkpt><trkpt lat="44.641033" lon="33.792297"><ele>145.7</ele><time>2011-10-10T09:19:42.0000000+00:00</time></trkpt><trkpt lat="44.640881" lon="33.79208"><ele>146.7</ele><time>2011-10-10T09:19:47.0000000+00:00</time></trkpt><trkpt lat="44.640816" lon="33.792004"><ele>146.5</ele><time>2011-10-10T09:19:52.0000000+00:00</time></trkpt><trkpt lat="44.640816" lon="33.792007"><ele>146.5</ele><time>2011-10-10T09:19:57.0000000+00:00</time></trkpt><trkpt lat="44.640816" lon="33.792011"><ele>146.5</ele><time>2011-10-10T09:20:02.0000000+00:00</time></trkpt><trkpt lat="44.640816" lon="33.792011"><ele>146.5</ele><time>2011-10-10T09:20:07.0000000+00:00</time></trkpt><trkpt lat="44.640816" lon="33.792011"><ele>146.4</ele><time>2011-10-10T09:20:12.0000000+00:00</time></trkpt><trkpt lat="44.640816" lon="33.792015"><ele>146.2</ele><time>2011-10-10T09:20:17.0000000+00:00</time></trkpt><trkpt lat="44.640816" lon="33.792007"><ele>146.1</ele><time>2011-10-10T09:20:22.0000000+00:00</time></trkpt><trkpt lat="44.640804" lon="33.791954"><ele>146.0</ele><time>2011-10-10T09:20:27.0000000+00:00</time></trkpt><trkpt lat="44.640774" lon="33.791782"><ele>145.0</ele><time>2011-10-10T09:20:32.0000000+00:00</time></trkpt><trkpt lat="44.640728" lon="33.791565"><ele>143.2</ele><time>2011-10-10T09:20:37.0000000+00:00</time></trkpt><trkpt lat="44.640709" lon="33.791286"><ele>141.2</ele><time>2011-10-10T09:20:42.0000000+00:00</time></trkpt><trkpt lat="44.640686" lon="33.790974"><ele>139.0</ele><time>2011-10-10T09:20:47.0000000+00:00</time></trkpt><trkpt lat="44.640671" lon="33.790588"><ele>135.7</ele><time>2011-10-10T09:20:52.0000000+00:00</time></trkpt><trkpt lat="44.640625" lon="33.790077"><ele>133.2</ele><time>2011-10-10T09:20:57.0000000+00:00</time></trkpt><trkpt lat="44.640598" lon="33.789566"><ele>131.7</ele><time>2011-10-10T09:21:02.0000000+00:00</time></trkpt><trkpt lat="44.640587" lon="33.789268"><ele>131.2</ele><time>2011-10-10T09:21:07.0000000+00:00</time></trkpt><trkpt lat="44.640583" lon="33.789173"><ele>130.7</ele><time>2011-10-10T09:21:12.0000000+00:00</time></trkpt><trkpt lat="44.640587" lon="33.78915"><ele>129.5</ele><time>2011-10-10T09:21:17.0000000+00:00</time></trkpt><trkpt lat="44.640587" lon="33.789154"><ele>129.0</ele><time>2011-10-10T09:21:22.0000000+00:00</time></trkpt><trkpt lat="44.640587" lon="33.789154"><ele>129.1</ele><time>2011-10-10T09:21:27.0000000+00:00</time></trkpt><trkpt lat="44.640587" lon="33.789154"><ele>129.1</ele><time>2011-10-10T09:21:32.0000000+00:00</time></trkpt><trkpt lat="44.640549" lon="33.789185"><ele>129.8</ele><time>2011-10-10T09:21:37.0000000+00:00</time></trkpt><trkpt lat="44.64048" lon="33.789356"><ele>131.2</ele><time>2011-10-10T09:21:42.0000000+00:00</time></trkpt><trkpt lat="44.640404" lon="33.789524"><ele>132.6</ele><time>2011-10-10T09:21:47.0000000+00:00</time></trkpt><trkpt lat="44.640339" lon="33.789661"><ele>134.3</ele><time>2011-10-10T09:21:52.0000000+00:00</time></trkpt><trkpt lat="44.640278" lon="33.789814"><ele>134.9</ele><time>2011-10-10T09:21:57.0000000+00:00</time></trkpt><trkpt lat="44.640251" lon="33.789959"><ele>135.9</ele><time>2011-10-10T09:22:02.0000000+00:00</time></trkpt><trkpt lat="44.640118" lon="33.790081"><ele>136.1</ele><time>2011-10-10T09:22:07.0000000+00:00</time></trkpt><trkpt lat="44.63995" lon="33.790222"><ele>136.9</ele><time>2011-10-10T09:22:12.0000000+00:00</time></trkpt><trkpt lat="44.639778" lon="33.790333"><ele>137.8</ele><time>2011-10-10T09:22:17.0000000+00:00</time></trkpt><trkpt lat="44.639614" lon="33.790405"><ele>138.5</ele><time>2011-10-10T09:22:22.0000000+00:00</time></trkpt><trkpt lat="44.639469" lon="33.790482"><ele>139.1</ele><time>2011-10-10T09:22:27.0000000+00:00</time></trkpt><trkpt lat="44.639297" lon="33.790558"><ele>139.1</ele><time>2011-10-10T09:22:32.0000000+00:00</time></trkpt><trkpt lat="44.639126" lon="33.790634"><ele>140.1</ele><time>2011-10-10T09:22:37.0000000+00:00</time></trkpt><trkpt lat="44.638947" lon="33.79071"><ele>141.1</ele><time>2011-10-10T09:22:42.0000000+00:00</time></trkpt><trkpt lat="44.638779" lon="33.790821"><ele>141.9</ele><time>2011-10-10T09:22:47.0000000+00:00</time></trkpt><trkpt lat="44.638615" lon="33.790897"><ele>142.8</ele><time>2011-10-10T09:22:52.0000000+00:00</time></trkpt><trkpt lat="44.638443" lon="33.79097"><ele>143.2</ele><time>2011-10-10T09:22:57.0000000+00:00</time></trkpt><trkpt lat="44.638287" lon="33.791035"><ele>144.2</ele><time>2011-10-10T09:23:02.0000000+00:00</time></trkpt><trkpt lat="44.638142" lon="33.791119"><ele>144.7</ele><time>2011-10-10T09:23:07.0000000+00:00</time></trkpt><trkpt lat="44.637997" lon="33.791206"><ele>145.2</ele><time>2011-10-10T09:23:12.0000000+00:00</time></trkpt><trkpt lat="44.637852" lon="33.79126"><ele>145.5</ele><time>2011-10-10T09:23:17.0000000+00:00</time></trkpt><trkpt lat="44.637741" lon="33.791321"><ele>146.0</ele><time>2011-10-10T09:23:22.0000000+00:00</time></trkpt><trkpt lat="44.637634" lon="33.791401"><ele>146.4</ele><time>2011-10-10T09:23:27.0000000+00:00</time></trkpt><trkpt lat="44.637516" lon="33.791454"><ele>147.0</ele><time>2011-10-10T09:23:32.0000000+00:00</time></trkpt><trkpt lat="44.637383" lon="33.791534"><ele>147.5</ele><time>2011-10-10T09:23:37.0000000+00:00</time></trkpt><trkpt lat="44.637238" lon="33.791641"><ele>148.2</ele><time>2011-10-10T09:23:42.0000000+00:00</time></trkpt><trkpt lat="44.6371" lon="33.791725"><ele>149.1</ele><time>2011-10-10T09:23:47.0000000+00:00</time></trkpt><trkpt lat="44.636948" lon="33.791824"><ele>149.9</ele><time>2011-10-10T09:23:52.0000000+00:00</time></trkpt><trkpt lat="44.636795" lon="33.791924"><ele>150.5</ele><time>2011-10-10T09:23:57.0000000+00:00</time></trkpt><trkpt lat="44.636665" lon="33.79203"><ele>151.1</ele><time>2011-10-10T09:24:02.0000000+00:00</time></trkpt><trkpt lat="44.636612" lon="33.79208"><ele>151.4</ele><time>2011-10-10T09:24:07.0000000+00:00</time></trkpt><trkpt lat="44.636597" lon="33.79208"><ele>151.5</ele><time>2011-10-10T09:24:12.0000000+00:00</time></trkpt><trkpt lat="44.636589" lon="33.792084"><ele>151.5</ele><time>2011-10-10T09:24:17.0000000+00:00</time></trkpt><trkpt lat="44.636585" lon="33.792091"><ele>151.4</ele><time>2011-10-10T09:24:22.0000000+00:00</time></trkpt><trkpt lat="44.636585" lon="33.792091"><ele>151.4</ele><time>2011-10-10T09:24:27.0000000+00:00</time></trkpt><trkpt lat="44.636585" lon="33.792091"><ele>151.4</ele><time>2011-10-10T09:24:32.0000000+00:00</time></trkpt><trkpt lat="44.636585" lon="33.792091"><ele>151.3</ele><time>2011-10-10T09:24:37.0000000+00:00</time></trkpt><trkpt lat="44.636585" lon="33.792091"><ele>151.4</ele><time>2011-10-10T09:24:42.0000000+00:00</time></trkpt><trkpt lat="44.636578" lon="33.792107"><ele>151.8</ele><time>2011-10-10T09:24:47.0000000+00:00</time></trkpt><trkpt lat="44.636524" lon="33.792168"><ele>152.3</ele><time>2011-10-10T09:24:52.0000000+00:00</time></trkpt><trkpt lat="44.636452" lon="33.792244"><ele>153.1</ele><time>2011-10-10T09:24:57.0000000+00:00</time></trkpt><trkpt lat="44.636375" lon="33.792328"><ele>154.0</ele><time>2011-10-10T09:25:02.0000000+00:00</time></trkpt><trkpt lat="44.636295" lon="33.792404"><ele>154.5</ele><time>2011-10-10T09:25:07.0000000+00:00</time></trkpt><trkpt lat="44.636204" lon="33.79248"><ele>155.1</ele><time>2011-10-10T09:25:12.0000000+00:00</time></trkpt><trkpt lat="44.636105" lon="33.792557"><ele>155.7</ele><time>2011-10-10T09:25:17.0000000+00:00</time></trkpt><trkpt lat="44.636009" lon="33.792645"><ele>156.4</ele><time>2011-10-10T09:25:22.0000000+00:00</time></trkpt><trkpt lat="44.635921" lon="33.792717"><ele>156.7</ele><time>2011-10-10T09:25:27.0000000+00:00</time></trkpt><trkpt lat="44.635799" lon="33.792801"><ele>156.9</ele><time>2011-10-10T09:25:32.0000000+00:00</time></trkpt><trkpt lat="44.635632" lon="33.792915"><ele>157.2</ele><time>2011-10-10T09:25:37.0000000+00:00</time></trkpt><trkpt lat="44.635498" lon="33.792984"><ele>157.4</ele><time>2011-10-10T09:25:42.0000000+00:00</time></trkpt><trkpt lat="44.635372" lon="33.793015"><ele>157.4</ele><time>2011-10-10T09:25:47.0000000+00:00</time></trkpt><trkpt lat="44.635273" lon="33.793056"><ele>157.1</ele><time>2011-10-10T09:25:52.0000000+00:00</time></trkpt><trkpt lat="44.635178" lon="33.793102"><ele>157.5</ele><time>2011-10-10T09:25:57.0000000+00:00</time></trkpt><trkpt lat="44.635086" lon="33.793175"><ele>158.1</ele><time>2011-10-10T09:26:02.0000000+00:00</time></trkpt><trkpt lat="44.634995" lon="33.793251"><ele>158.4</ele><time>2011-10-10T09:26:07.0000000+00:00</time></trkpt><trkpt lat="44.634888" lon="33.79335"><ele>158.7</ele><time>2011-10-10T09:26:12.0000000+00:00</time></trkpt><trkpt lat="44.634777" lon="33.793457"><ele>158.9</ele><time>2011-10-10T09:26:17.0000000+00:00</time></trkpt><trkpt lat="44.634636" lon="33.793591"><ele>159.3</ele><time>2011-10-10T09:26:22.0000000+00:00</time></trkpt><trkpt lat="44.634487" lon="33.793751"><ele>159.5</ele><time>2011-10-10T09:26:27.0000000+00:00</time></trkpt><trkpt lat="44.634357" lon="33.793915"><ele>160.0</ele><time>2011-10-10T09:26:32.0000000+00:00</time></trkpt><trkpt lat="44.634228" lon="33.794086"><ele>160.5</ele><time>2011-10-10T09:26:37.0000000+00:00</time></trkpt><trkpt lat="44.634109" lon="33.794239"><ele>160.8</ele><time>2011-10-10T09:26:42.0000000+00:00</time></trkpt><trkpt lat="44.633991" lon="33.794403"><ele>161.5</ele><time>2011-10-10T09:26:47.0000000+00:00</time></trkpt><trkpt lat="44.6339" lon="33.794559"><ele>162.0</ele><time>2011-10-10T09:26:52.0000000+00:00</time></trkpt><trkpt lat="44.633808" lon="33.794701"><ele>162.4</ele><time>2011-10-10T09:26:57.0000000+00:00</time></trkpt><trkpt lat="44.633739" lon="33.794838"><ele>162.0</ele><time>2011-10-10T09:27:02.0000000+00:00</time></trkpt><trkpt lat="44.633644" lon="33.794949"><ele>162.5</ele><time>2011-10-10T09:27:07.0000000+00:00</time></trkpt><trkpt lat="44.633545" lon="33.795052"><ele>163.1</ele><time>2011-10-10T09:27:12.0000000+00:00</time></trkpt><trkpt lat="44.633453" lon="33.795151"><ele>163.3</ele><time>2011-10-10T09:27:17.0000000+00:00</time></trkpt><trkpt lat="44.63335" lon="33.795238"><ele>163.7</ele><time>2011-10-10T09:27:22.0000000+00:00</time></trkpt><trkpt lat="44.633274" lon="33.795303"><ele>164.0</ele><time>2011-10-10T09:27:27.0000000+00:00</time></trkpt><trkpt lat="44.633198" lon="33.795376"><ele>164.8</ele><time>2011-10-10T09:27:32.0000000+00:00</time></trkpt><trkpt lat="44.633118" lon="33.795444"><ele>165.6</ele><time>2011-10-10T09:27:37.0000000+00:00</time></trkpt><trkpt lat="44.633045" lon="33.795517"><ele>166.3</ele><time>2011-10-10T09:27:42.0000000+00:00</time></trkpt><trkpt lat="44.632954" lon="33.795612"><ele>166.3</ele><time>2011-10-10T09:27:47.0000000+00:00</time></trkpt><trkpt lat="44.632847" lon="33.795708"><ele>166.6</ele><time>2011-10-10T09:27:52.0000000+00:00</time></trkpt><trkpt lat="44.632759" lon="33.795788"><ele>167.0</ele><time>2011-10-10T09:27:57.0000000+00:00</time></trkpt><trkpt lat="44.632671" lon="33.795868"><ele>167.9</ele><time>2011-10-10T09:28:02.0000000+00:00</time></trkpt><trkpt lat="44.63258" lon="33.795959"><ele>168.6</ele><time>2011-10-10T09:28:07.0000000+00:00</time></trkpt><trkpt lat="44.632481" lon="33.796059"><ele>169.5</ele><time>2011-10-10T09:28:12.0000000+00:00</time></trkpt><trkpt lat="44.632381" lon="33.796143"><ele>170.0</ele><time>2011-10-10T09:28:17.0000000+00:00</time></trkpt><trkpt lat="44.632271" lon="33.796223"><ele>170.8</ele><time>2011-10-10T09:28:22.0000000+00:00</time></trkpt><trkpt lat="44.632175" lon="33.796284"><ele>171.2</ele><time>2011-10-10T09:28:27.0000000+00:00</time></trkpt><trkpt lat="44.63213" lon="33.796303"><ele>171.4</ele><time>2011-10-10T09:28:32.0000000+00:00</time></trkpt><trkpt lat="44.63213" lon="33.796295"><ele>170.5</ele><time>2011-10-10T09:28:37.0000000+00:00</time></trkpt><trkpt lat="44.63213" lon="33.79628"><ele>169.9</ele><time>2011-10-10T09:28:42.0000000+00:00</time></trkpt><trkpt lat="44.632118" lon="33.79628"><ele>169.7</ele><time>2011-10-10T09:28:47.0000000+00:00</time></trkpt><trkpt lat="44.632095" lon="33.796288"><ele>169.6</ele><time>2011-10-10T09:28:52.0000000+00:00</time></trkpt><trkpt lat="44.631989" lon="33.796349"><ele>170.2</ele><time>2011-10-10T09:28:57.0000000+00:00</time></trkpt><trkpt lat="44.631855" lon="33.796436"><ele>171.6</ele><time>2011-10-10T09:29:02.0000000+00:00</time></trkpt><trkpt lat="44.631737" lon="33.796528"><ele>172.2</ele><time>2011-10-10T09:29:07.0000000+00:00</time></trkpt><trkpt lat="44.631634" lon="33.7966"><ele>173.0</ele><time>2011-10-10T09:29:12.0000000+00:00</time></trkpt><trkpt lat="44.631531" lon="33.796654"><ele>173.7</ele><time>2011-10-10T09:29:17.0000000+00:00</time></trkpt><trkpt lat="44.631424" lon="33.796703"><ele>174.2</ele><time>2011-10-10T09:29:22.0000000+00:00</time></trkpt><trkpt lat="44.631313" lon="33.796749"><ele>175.8</ele><time>2011-10-10T09:29:27.0000000+00:00</time></trkpt><trkpt lat="44.631241" lon="33.796776"><ele>176.5</ele><time>2011-10-10T09:29:32.0000000+00:00</time></trkpt><trkpt lat="44.63118" lon="33.796799"><ele>177.1</ele><time>2011-10-10T09:29:37.0000000+00:00</time></trkpt><trkpt lat="44.631107" lon="33.796822"><ele>177.5</ele><time>2011-10-10T09:29:42.0000000+00:00</time></trkpt><trkpt lat="44.630966" lon="33.796875"><ele>178.3</ele><time>2011-10-10T09:29:47.0000000+00:00</time></trkpt><trkpt lat="44.630852" lon="33.796921"><ele>178.7</ele><time>2011-10-10T09:29:52.0000000+00:00</time></trkpt><trkpt lat="44.63076" lon="33.796963"><ele>179.5</ele><time>2011-10-10T09:29:57.0000000+00:00</time></trkpt><trkpt lat="44.630665" lon="33.796997"><ele>180.0</ele><time>2011-10-10T09:30:02.0000000+00:00</time></trkpt><trkpt lat="44.630524" lon="33.797043"><ele>180.4</ele><time>2011-10-10T09:30:07.0000000+00:00</time></trkpt><trkpt lat="44.630375" lon="33.797092"><ele>181.3</ele><time>2011-10-10T09:30:12.0000000+00:00</time></trkpt><trkpt lat="44.630222" lon="33.797138"><ele>182.4</ele><time>2011-10-10T09:30:17.0000000+00:00</time></trkpt><trkpt lat="44.630074" lon="33.797165"><ele>183.7</ele><time>2011-10-10T09:30:22.0000000+00:00</time></trkpt><trkpt lat="44.629944" lon="33.797173"><ele>184.1</ele><time>2011-10-10T09:30:27.0000000+00:00</time></trkpt><trkpt lat="44.629921" lon="33.797173"><ele>184.1</ele><time>2011-10-10T09:30:32.0000000+00:00</time></trkpt><trkpt lat="44.629917" lon="33.797173"><ele>184.1</ele><time>2011-10-10T09:30:37.0000000+00:00</time></trkpt><trkpt lat="44.629917" lon="33.797169"><ele>183.8</ele><time>2011-10-10T09:30:42.0000000+00:00</time></trkpt><trkpt lat="44.629917" lon="33.797169"><ele>183.7</ele><time>2011-10-10T09:30:47.0000000+00:00</time></trkpt><trkpt lat="44.629917" lon="33.797169"><ele>183.7</ele><time>2011-10-10T09:30:52.0000000+00:00</time></trkpt><trkpt lat="44.629917" lon="33.797169"><ele>183.7</ele><time>2011-10-10T09:30:57.0000000+00:00</time></trkpt><trkpt lat="44.629917" lon="33.797169"><ele>183.7</ele><time>2011-10-10T09:31:02.0000000+00:00</time></trkpt><trkpt lat="44.629917" lon="33.797169"><ele>183.7</ele><time>2011-10-10T09:31:07.0000000+00:00</time></trkpt><trkpt lat="44.629917" lon="33.797169"><ele>183.7</ele><time>2011-10-10T09:31:12.0000000+00:00</time></trkpt><trkpt lat="44.629902" lon="33.797173"><ele>183.8</ele><time>2011-10-10T09:31:17.0000000+00:00</time></trkpt><trkpt lat="44.629894" lon="33.797176"><ele>183.8</ele><time>2011-10-10T09:31:22.0000000+00:00</time></trkpt><trkpt lat="44.629887" lon="33.797176"><ele>184.1</ele><time>2011-10-10T09:31:27.0000000+00:00</time></trkpt><trkpt lat="44.629822" lon="33.797211"><ele>184.4</ele><time>2011-10-10T09:31:32.0000000+00:00</time></trkpt><trkpt lat="44.629684" lon="33.797283"><ele>184.5</ele><time>2011-10-10T09:31:37.0000000+00:00</time></trkpt><trkpt lat="44.629528" lon="33.797352"><ele>185.2</ele><time>2011-10-10T09:31:42.0000000+00:00</time></trkpt><trkpt lat="44.629402" lon="33.797409"><ele>186.1</ele><time>2011-10-10T09:31:47.0000000+00:00</time></trkpt><trkpt lat="44.629292" lon="33.797451"><ele>186.8</ele><time>2011-10-10T09:31:52.0000000+00:00</time></trkpt><trkpt lat="44.629192" lon="33.797508"><ele>187.7</ele><time>2011-10-10T09:31:57.0000000+00:00</time></trkpt><trkpt lat="44.629066" lon="33.797592"><ele>188.1</ele><time>2011-10-10T09:32:02.0000000+00:00</time></trkpt><trkpt lat="44.628956" lon="33.797657"><ele>189.7</ele><time>2011-10-10T09:32:07.0000000+00:00</time></trkpt><trkpt lat="44.628834" lon="33.797718"><ele>190.7</ele><time>2011-10-10T09:32:12.0000000+00:00</time></trkpt><trkpt lat="44.628727" lon="33.797771"><ele>192.7</ele><time>2011-10-10T09:32:17.0000000+00:00</time></trkpt><trkpt lat="44.628635" lon="33.797802"><ele>193.2</ele><time>2011-10-10T09:32:22.0000000+00:00</time></trkpt><trkpt lat="44.628574" lon="33.797832"><ele>193.6</ele><time>2011-10-10T09:32:27.0000000+00:00</time></trkpt><trkpt lat="44.628529" lon="33.797863"><ele>193.5</ele><time>2011-10-10T09:32:32.0000000+00:00</time></trkpt><trkpt lat="44.628513" lon="33.797867"><ele>194.0</ele><time>2011-10-10T09:32:37.0000000+00:00</time></trkpt><trkpt lat="44.628445" lon="33.797897"><ele>194.5</ele><time>2011-10-10T09:32:42.0000000+00:00</time></trkpt><trkpt lat="44.628342" lon="33.797958"><ele>195.6</ele><time>2011-10-10T09:32:47.0000000+00:00</time></trkpt><trkpt lat="44.628304" lon="33.797997"><ele>195.1</ele><time>2011-10-10T09:32:52.0000000+00:00</time></trkpt><trkpt lat="44.62822" lon="33.798027"><ele>195.6</ele><time>2011-10-10T09:32:57.0000000+00:00</time></trkpt><trkpt lat="44.62812" lon="33.798077"><ele>196.6</ele><time>2011-10-10T09:33:02.0000000+00:00</time></trkpt><trkpt lat="44.628025" lon="33.798119"><ele>196.9</ele><time>2011-10-10T09:33:07.0000000+00:00</time></trkpt><trkpt lat="44.627945" lon="33.798149"><ele>196.5</ele><time>2011-10-10T09:33:12.0000000+00:00</time></trkpt><trkpt lat="44.627876" lon="33.79818"><ele>196.8</ele><time>2011-10-10T09:33:17.0000000+00:00</time></trkpt><trkpt lat="44.627804" lon="33.798214"><ele>198.7</ele><time>2011-10-10T09:33:22.0000000+00:00</time></trkpt><trkpt lat="44.62772" lon="33.798237"><ele>199.9</ele><time>2011-10-10T09:33:27.0000000+00:00</time></trkpt><trkpt lat="44.627659" lon="33.798256"><ele>200.2</ele><time>2011-10-10T09:33:32.0000000+00:00</time></trkpt><trkpt lat="44.627583" lon="33.798264"><ele>201.4</ele><time>2011-10-10T09:33:37.0000000+00:00</time></trkpt><trkpt lat="44.627464" lon="33.798275"><ele>202.5</ele><time>2011-10-10T09:33:42.0000000+00:00</time></trkpt><trkpt lat="44.627361" lon="33.798309"><ele>203.9</ele><time>2011-10-10T09:33:47.0000000+00:00</time></trkpt><trkpt lat="44.627281" lon="33.79834"><ele>205.2</ele><time>2011-10-10T09:33:52.0000000+00:00</time></trkpt><trkpt lat="44.627235" lon="33.798374"><ele>207.7</ele><time>2011-10-10T09:33:57.0000000+00:00</time></trkpt><trkpt lat="44.627209" lon="33.798382"><ele>209.2</ele><time>2011-10-10T09:34:02.0000000+00:00</time></trkpt><trkpt lat="44.627213" lon="33.798382"><ele>210.7</ele><time>2011-10-10T09:34:07.0000000+00:00</time></trkpt><trkpt lat="44.627216" lon="33.798382"><ele>211.0</ele><time>2011-10-10T09:34:12.0000000+00:00</time></trkpt><trkpt lat="44.627213" lon="33.798378"><ele>212.4</ele><time>2011-10-10T09:34:17.0000000+00:00</time></trkpt><trkpt lat="44.627213" lon="33.798382"><ele>213.1</ele><time>2011-10-10T09:34:22.0000000+00:00</time></trkpt><trkpt lat="44.627213" lon="33.798382"><ele>213.0</ele><time>2011-10-10T09:34:27.0000000+00:00</time></trkpt><trkpt lat="44.627213" lon="33.798382"><ele>213.0</ele><time>2011-10-10T09:34:32.0000000+00:00</time></trkpt><trkpt lat="44.627213" lon="33.798382"><ele>213.0</ele><time>2011-10-10T09:34:37.0000000+00:00</time></trkpt><trkpt lat="44.627213" lon="33.798382"><ele>213.0</ele><time>2011-10-10T09:34:42.0000000+00:00</time></trkpt><trkpt lat="44.627213" lon="33.79837"><ele>213.4</ele><time>2011-10-10T09:34:47.0000000+00:00</time></trkpt><trkpt lat="44.62722" lon="33.798374"><ele>213.0</ele><time>2011-10-10T09:34:52.0000000+00:00</time></trkpt><trkpt lat="44.62722" lon="33.798374"><ele>212.9</ele><time>2011-10-10T09:34:57.0000000+00:00</time></trkpt><trkpt lat="44.62722" lon="33.798374"><ele>212.9</ele><time>2011-10-10T09:35:02.0000000+00:00</time></trkpt><trkpt lat="44.62722" lon="33.798374"><ele>212.9</ele><time>2011-10-10T09:35:07.0000000+00:00</time></trkpt><trkpt lat="44.62722" lon="33.798374"><ele>212.9</ele><time>2011-10-10T09:35:12.0000000+00:00</time></trkpt><trkpt lat="44.62722" lon="33.798374"><ele>212.9</ele><time>2011-10-10T09:35:17.0000000+00:00</time></trkpt><trkpt lat="44.62722" lon="33.798374"><ele>212.9</ele><time>2011-10-10T09:35:22.0000000+00:00</time></trkpt><trkpt lat="44.62722" lon="33.798374"><ele>212.9</ele><time>2011-10-10T09:35:27.0000000+00:00</time></trkpt><trkpt lat="44.62722" lon="33.798374"><ele>212.8</ele><time>2011-10-10T09:35:32.0000000+00:00</time></trkpt><trkpt lat="44.62722" lon="33.798374"><ele>212.8</ele><time>2011-10-10T09:35:37.0000000+00:00</time></trkpt><trkpt lat="44.62722" lon="33.798374"><ele>212.8</ele><time>2011-10-10T09:35:42.0000000+00:00</time></trkpt><trkpt lat="44.62722" lon="33.798374"><ele>212.8</ele><time>2011-10-10T09:35:47.0000000+00:00</time></trkpt><trkpt lat="44.62722" lon="33.798374"><ele>212.8</ele><time>2011-10-10T09:35:52.0000000+00:00</time></trkpt><trkpt lat="44.62722" lon="33.798374"><ele>212.8</ele><time>2011-10-10T09:35:57.0000000+00:00</time></trkpt><trkpt lat="44.62722" lon="33.798374"><ele>212.8</ele><time>2011-10-10T09:36:02.0000000+00:00</time></trkpt><trkpt lat="44.62722" lon="33.798374"><ele>212.8</ele><time>2011-10-10T09:36:07.0000000+00:00</time></trkpt><trkpt lat="44.62722" lon="33.798374"><ele>212.8</ele><time>2011-10-10T09:36:12.0000000+00:00</time></trkpt><trkpt lat="44.62722" lon="33.798374"><ele>212.8</ele><time>2011-10-10T09:36:17.0000000+00:00</time></trkpt><trkpt lat="44.62722" lon="33.798374"><ele>212.8</ele><time>2011-10-10T09:36:22.0000000+00:00</time></trkpt><trkpt lat="44.62722" lon="33.79837"><ele>212.8</ele><time>2011-10-10T09:36:27.0000000+00:00</time></trkpt><trkpt lat="44.62722" lon="33.79837"><ele>212.8</ele><time>2011-10-10T09:36:32.0000000+00:00</time></trkpt><trkpt lat="44.62722" lon="33.798382"><ele>213.0</ele><time>2011-10-10T09:36:37.0000000+00:00</time></trkpt><trkpt lat="44.62722" lon="33.798409"><ele>212.7</ele><time>2011-10-10T09:36:42.0000000+00:00</time></trkpt><trkpt lat="44.627209" lon="33.798409"><ele>212.6</ele><time>2011-10-10T09:36:47.0000000+00:00</time></trkpt><trkpt lat="44.627216" lon="33.798401"><ele>212.7</ele><time>2011-10-10T09:36:52.0000000+00:00</time></trkpt><trkpt lat="44.627213" lon="33.798401"><ele>212.6</ele><time>2011-10-10T09:36:57.0000000+00:00</time></trkpt><trkpt lat="44.627213" lon="33.798405"><ele>212.6</ele><time>2011-10-10T09:37:02.0000000+00:00</time></trkpt><trkpt lat="44.627182" lon="33.798447"><ele>213.1</ele><time>2011-10-10T09:37:07.0000000+00:00</time></trkpt><trkpt lat="44.627155" lon="33.798523"><ele>213.4</ele><time>2011-10-10T09:37:12.0000000+00:00</time></trkpt><trkpt lat="44.627132" lon="33.798615"><ele>213.5</ele><time>2011-10-10T09:37:17.0000000+00:00</time></trkpt><trkpt lat="44.62709" lon="33.798729"><ele>214.0</ele><time>2011-10-10T09:37:22.0000000+00:00</time></trkpt><trkpt lat="44.627033" lon="33.79887"><ele>216.2</ele><time>2011-10-10T09:37:27.0000000+00:00</time></trkpt><trkpt lat="44.626984" lon="33.799023"><ele>217.7</ele><time>2011-10-10T09:37:32.0000000+00:00</time></trkpt><trkpt lat="44.626938" lon="33.799168"><ele>218.1</ele><time>2011-10-10T09:37:37.0000000+00:00</time></trkpt><trkpt lat="44.626869" lon="33.799332"><ele>218.8</ele><time>2011-10-10T09:37:42.0000000+00:00</time></trkpt><trkpt lat="44.626816" lon="33.799454"><ele>219.8</ele><time>2011-10-10T09:37:47.0000000+00:00</time></trkpt><trkpt lat="44.626781" lon="33.799591"><ele>220.4</ele><time>2011-10-10T09:37:52.0000000+00:00</time></trkpt><trkpt lat="44.626743" lon="33.799717"><ele>221.5</ele><time>2011-10-10T09:37:57.0000000+00:00</time></trkpt><trkpt lat="44.626682" lon="33.79985"><ele>222.3</ele><time>2011-10-10T09:38:02.0000000+00:00</time></trkpt><trkpt lat="44.626617" lon="33.799999"><ele>223.3</ele><time>2011-10-10T09:38:07.0000000+00:00</time></trkpt><trkpt lat="44.626572" lon="33.80014"><ele>224.2</ele><time>2011-10-10T09:38:12.0000000+00:00</time></trkpt><trkpt lat="44.626522" lon="33.800293"><ele>225.4</ele><time>2011-10-10T09:38:17.0000000+00:00</time></trkpt><trkpt lat="44.626472" lon="33.800465"><ele>227.1</ele><time>2011-10-10T09:38:22.0000000+00:00</time></trkpt><trkpt lat="44.626472" lon="33.800621"><ele>226.6</ele><time>2011-10-10T09:38:27.0000000+00:00</time></trkpt><trkpt lat="44.626495" lon="33.800793"><ele>224.6</ele><time>2011-10-10T09:38:32.0000000+00:00</time></trkpt><trkpt lat="44.626488" lon="33.800957"><ele>222.9</ele><time>2011-10-10T09:38:37.0000000+00:00</time></trkpt><trkpt lat="44.626446" lon="33.801117"><ele>222.8</ele><time>2011-10-10T09:38:42.0000000+00:00</time></trkpt><trkpt lat="44.626385" lon="33.801277"><ele>223.2</ele><time>2011-10-10T09:38:47.0000000+00:00</time></trkpt><trkpt lat="44.626335" lon="33.801418"><ele>223.6</ele><time>2011-10-10T09:38:52.0000000+00:00</time></trkpt><trkpt lat="44.626297" lon="33.801556"><ele>222.8</ele><time>2011-10-10T09:38:57.0000000+00:00</time></trkpt><trkpt lat="44.626293" lon="33.801697"><ele>223.8</ele><time>2011-10-10T09:39:02.0000000+00:00</time></trkpt><trkpt lat="44.626305" lon="33.801819"><ele>224.7</ele><time>2011-10-10T09:39:07.0000000+00:00</time></trkpt><trkpt lat="44.626324" lon="33.801933"><ele>224.9</ele><time>2011-10-10T09:39:12.0000000+00:00</time></trkpt><trkpt lat="44.626354" lon="33.802036"><ele>225.5</ele><time>2011-10-10T09:39:17.0000000+00:00</time></trkpt><trkpt lat="44.626392" lon="33.802139"><ele>226.7</ele><time>2011-10-10T09:39:22.0000000+00:00</time></trkpt><trkpt lat="44.626442" lon="33.802258"><ele>227.6</ele><time>2011-10-10T09:39:27.0000000+00:00</time></trkpt><trkpt lat="44.626495" lon="33.802383"><ele>227.9</ele><time>2011-10-10T09:39:32.0000000+00:00</time></trkpt><trkpt lat="44.626541" lon="33.802517"><ele>228.1</ele><time>2011-10-10T09:39:37.0000000+00:00</time></trkpt><trkpt lat="44.626587" lon="33.802666"><ele>228.4</ele><time>2011-10-10T09:39:42.0000000+00:00</time></trkpt><trkpt lat="44.626621" lon="33.802761"><ele>228.6</ele><time>2011-10-10T09:39:47.0000000+00:00</time></trkpt><trkpt lat="44.626663" lon="33.802902"><ele>229.1</ele><time>2011-10-10T09:39:52.0000000+00:00</time></trkpt><trkpt lat="44.626701" lon="33.803013"><ele>230.0</ele><time>2011-10-10T09:39:57.0000000+00:00</time></trkpt><trkpt lat="44.626732" lon="33.803127"><ele>230.9</ele><time>2011-10-10T09:40:02.0000000+00:00</time></trkpt><trkpt lat="44.626781" lon="33.803253"><ele>232.3</ele><time>2011-10-10T09:40:07.0000000+00:00</time></trkpt><trkpt lat="44.626842" lon="33.803371"><ele>234.0</ele><time>2011-10-10T09:40:12.0000000+00:00</time></trkpt><trkpt lat="44.626877" lon="33.803493"><ele>234.7</ele><time>2011-10-10T09:40:17.0000000+00:00</time></trkpt><trkpt lat="44.626945" lon="33.803608"><ele>235.8</ele><time>2011-10-10T09:40:22.0000000+00:00</time></trkpt><trkpt lat="44.627037" lon="33.803745"><ele>237.0</ele><time>2011-10-10T09:40:27.0000000+00:00</time></trkpt><trkpt lat="44.627102" lon="33.803879"><ele>237.3</ele><time>2011-10-10T09:40:32.0000000+00:00</time></trkpt><trkpt lat="44.627129" lon="33.803989"><ele>237.2</ele><time>2011-10-10T09:40:37.0000000+00:00</time></trkpt><trkpt lat="44.627148" lon="33.804077"><ele>237.2</ele><time>2011-10-10T09:40:42.0000000+00:00</time></trkpt><trkpt lat="44.627167" lon="33.804127"><ele>236.9</ele><time>2011-10-10T09:40:47.0000000+00:00</time></trkpt><trkpt lat="44.627201" lon="33.804192"><ele>236.1</ele><time>2011-10-10T09:40:52.0000000+00:00</time></trkpt><trkpt lat="44.627216" lon="33.804237"><ele>234.9</ele><time>2011-10-10T09:40:57.0000000+00:00</time></trkpt><trkpt lat="44.627228" lon="33.804314"><ele>236.4</ele><time>2011-10-10T09:41:02.0000000+00:00</time></trkpt><trkpt lat="44.627251" lon="33.804462"><ele>237.6</ele><time>2011-10-10T09:41:07.0000000+00:00</time></trkpt><trkpt lat="44.627296" lon="33.804638"><ele>238.5</ele><time>2011-10-10T09:41:12.0000000+00:00</time></trkpt><trkpt lat="44.627361" lon="33.804794"><ele>239.1</ele><time>2011-10-10T09:41:17.0000000+00:00</time></trkpt><trkpt lat="44.627411" lon="33.804958"><ele>239.7</ele><time>2011-10-10T09:41:22.0000000+00:00</time></trkpt><trkpt lat="44.627449" lon="33.805134"><ele>239.5</ele><time>2011-10-10T09:41:27.0000000+00:00</time></trkpt><trkpt lat="44.627491" lon="33.805305"><ele>239.2</ele><time>2011-10-10T09:41:32.0000000+00:00</time></trkpt><trkpt lat="44.627548" lon="33.805485"><ele>239.5</ele><time>2011-10-10T09:41:37.0000000+00:00</time></trkpt><trkpt lat="44.627609" lon="33.805656"><ele>240.5</ele><time>2011-10-10T09:41:42.0000000+00:00</time></trkpt><trkpt lat="44.627663" lon="33.805817"><ele>240.9</ele><time>2011-10-10T09:41:47.0000000+00:00</time></trkpt><trkpt lat="44.627701" lon="33.805992"><ele>241.3</ele><time>2011-10-10T09:41:52.0000000+00:00</time></trkpt><trkpt lat="44.627762" lon="33.806187"><ele>240.9</ele><time>2011-10-10T09:41:57.0000000+00:00</time></trkpt><trkpt lat="44.627808" lon="33.806381"><ele>241.1</ele><time>2011-10-10T09:42:02.0000000+00:00</time></trkpt><trkpt lat="44.627857" lon="33.806564"><ele>240.7</ele><time>2011-10-10T09:42:07.0000000+00:00</time></trkpt><trkpt lat="44.627926" lon="33.806759"><ele>240.3</ele><time>2011-10-10T09:42:12.0000000+00:00</time></trkpt><trkpt lat="44.62801" lon="33.806976"><ele>240.2</ele><time>2011-10-10T09:42:17.0000000+00:00</time></trkpt><trkpt lat="44.628082" lon="33.80722"><ele>240.0</ele><time>2011-10-10T09:42:22.0000000+00:00</time></trkpt><trkpt lat="44.628139" lon="33.807442"><ele>239.5</ele><time>2011-10-10T09:42:27.0000000+00:00</time></trkpt><trkpt lat="44.628208" lon="33.807697"><ele>240.5</ele><time>2011-10-10T09:42:32.0000000+00:00</time></trkpt><trkpt lat="44.628231" lon="33.807968"><ele>240.7</ele><time>2011-10-10T09:42:37.0000000+00:00</time></trkpt><trkpt lat="44.6283" lon="33.808216"><ele>241.4</ele><time>2011-10-10T09:42:42.0000000+00:00</time></trkpt><trkpt lat="44.628422" lon="33.808449"><ele>242.4</ele><time>2011-10-10T09:42:47.0000000+00:00</time></trkpt><trkpt lat="44.628525" lon="33.808666"><ele>243.0</ele><time>2011-10-10T09:42:52.0000000+00:00</time></trkpt><trkpt lat="44.628616" lon="33.808891"><ele>243.9</ele><time>2011-10-10T09:42:57.0000000+00:00</time></trkpt><trkpt lat="44.628685" lon="33.809044"><ele>243.8</ele><time>2011-10-10T09:43:02.0000000+00:00</time></trkpt><trkpt lat="44.628735" lon="33.809166"><ele>243.7</ele><time>2011-10-10T09:43:07.0000000+00:00</time></trkpt><trkpt lat="44.62878" lon="33.80928"><ele>243.2</ele><time>2011-10-10T09:43:12.0000000+00:00</time></trkpt><trkpt lat="44.628796" lon="33.809326"><ele>243.4</ele><time>2011-10-10T09:43:17.0000000+00:00</time></trkpt><trkpt lat="44.628796" lon="33.809345"><ele>243.5</ele><time>2011-10-10T09:43:22.0000000+00:00</time></trkpt><trkpt lat="44.628799" lon="33.809368"><ele>243.7</ele><time>2011-10-10T09:43:27.0000000+00:00</time></trkpt><trkpt lat="44.628803" lon="33.809395"><ele>243.6</ele><time>2011-10-10T09:43:32.0000000+00:00</time></trkpt><trkpt lat="44.628841" lon="33.809486"><ele>243.0</ele><time>2011-10-10T09:43:37.0000000+00:00</time></trkpt><trkpt lat="44.628933" lon="33.809753"><ele>241.8</ele><time>2011-10-10T09:43:42.0000000+00:00</time></trkpt><trkpt lat="44.629028" lon="33.810165"><ele>240.4</ele><time>2011-10-10T09:43:47.0000000+00:00</time></trkpt><trkpt lat="44.62915" lon="33.810371"><ele>241.0</ele><time>2011-10-10T09:43:52.0000000+00:00</time></trkpt><trkpt lat="44.629318" lon="33.810436"><ele>242.2</ele><time>2011-10-10T09:43:57.0000000+00:00</time></trkpt><trkpt lat="44.62941" lon="33.810589"><ele>242.9</ele><time>2011-10-10T09:44:02.0000000+00:00</time></trkpt><trkpt lat="44.629475" lon="33.81076"><ele>244.5</ele><time>2011-10-10T09:44:07.0000000+00:00</time></trkpt><trkpt lat="44.62957" lon="33.810932"><ele>245.5</ele><time>2011-10-10T09:44:12.0000000+00:00</time></trkpt><trkpt lat="44.629639" lon="33.811077"><ele>246.3</ele><time>2011-10-10T09:44:17.0000000+00:00</time></trkpt><trkpt lat="44.629665" lon="33.811195"><ele>247.4</ele><time>2011-10-10T09:44:22.0000000+00:00</time></trkpt><trkpt lat="44.629757" lon="33.811382"><ele>248.9</ele><time>2011-10-10T09:44:27.0000000+00:00</time></trkpt><trkpt lat="44.629906" lon="33.811642"><ele>250.2</ele><time>2011-10-10T09:44:32.0000000+00:00</time></trkpt><trkpt lat="44.630047" lon="33.811878"><ele>251.4</ele><time>2011-10-10T09:44:37.0000000+00:00</time></trkpt><trkpt lat="44.630157" lon="33.812092"><ele>252.5</ele><time>2011-10-10T09:44:42.0000000+00:00</time></trkpt><trkpt lat="44.63028" lon="33.812275"><ele>253.4</ele><time>2011-10-10T09:44:47.0000000+00:00</time></trkpt><trkpt lat="44.63036" lon="33.812469"><ele>255.0</ele><time>2011-10-10T09:44:52.0000000+00:00</time></trkpt><trkpt lat="44.63044" lon="33.812611"><ele>256.6</ele><time>2011-10-10T09:44:57.0000000+00:00</time></trkpt><trkpt lat="44.630569" lon="33.812756"><ele>258.5</ele><time>2011-10-10T09:45:02.0000000+00:00</time></trkpt><trkpt lat="44.630714" lon="33.812958"><ele>259.7</ele><time>2011-10-10T09:45:07.0000000+00:00</time></trkpt><trkpt lat="44.630848" lon="33.813183"><ele>260.0</ele><time>2011-10-10T09:45:12.0000000+00:00</time></trkpt><trkpt lat="44.630955" lon="33.81337"><ele>260.7</ele><time>2011-10-10T09:45:17.0000000+00:00</time></trkpt><trkpt lat="44.631058" lon="33.813496"><ele>257.8</ele><time>2011-10-10T09:45:22.0000000+00:00</time></trkpt><trkpt lat="44.631138" lon="33.81361"><ele>256.7</ele><time>2011-10-10T09:45:27.0000000+00:00</time></trkpt><trkpt lat="44.63118" lon="33.813725"><ele>257.6</ele><time>2011-10-10T09:45:32.0000000+00:00</time></trkpt><trkpt lat="44.631241" lon="33.813858"><ele>258.3</ele><time>2011-10-10T09:45:37.0000000+00:00</time></trkpt><trkpt lat="44.631313" lon="33.813999"><ele>259.2</ele><time>2011-10-10T09:45:42.0000000+00:00</time></trkpt><trkpt lat="44.631397" lon="33.814171"><ele>260.1</ele><time>2011-10-10T09:45:47.0000000+00:00</time></trkpt><trkpt lat="44.631481" lon="33.814323"><ele>261.1</ele><time>2011-10-10T09:45:52.0000000+00:00</time></trkpt><trkpt lat="44.631523" lon="33.814453"><ele>262.2</ele><time>2011-10-10T09:45:57.0000000+00:00</time></trkpt><trkpt lat="44.631573" lon="33.814587"><ele>262.9</ele><time>2011-10-10T09:46:02.0000000+00:00</time></trkpt><trkpt lat="44.631634" lon="33.814667"><ele>265.0</ele><time>2011-10-10T09:46:07.0000000+00:00</time></trkpt><trkpt lat="44.631721" lon="33.814766"><ele>265.7</ele><time>2011-10-10T09:46:12.0000000+00:00</time></trkpt><trkpt lat="44.631851" lon="33.814896"><ele>264.6</ele><time>2011-10-10T09:46:17.0000000+00:00</time></trkpt><trkpt lat="44.631954" lon="33.815029"><ele>266.5</ele><time>2011-10-10T09:46:22.0000000+00:00</time></trkpt><trkpt lat="44.632019" lon="33.815151"><ele>266.9</ele><time>2011-10-10T09:46:27.0000000+00:00</time></trkpt><trkpt lat="44.632103" lon="33.815289"><ele>267.0</ele><time>2011-10-10T09:46:32.0000000+00:00</time></trkpt><trkpt lat="44.632183" lon="33.815407"><ele>266.9</ele><time>2011-10-10T09:46:37.0000000+00:00</time></trkpt><trkpt lat="44.632256" lon="33.815495"><ele>267.0</ele><time>2011-10-10T09:46:42.0000000+00:00</time></trkpt><trkpt lat="44.63232" lon="33.815628"><ele>266.7</ele><time>2011-10-10T09:46:47.0000000+00:00</time></trkpt><trkpt lat="44.632362" lon="33.815716"><ele>266.4</ele><time>2011-10-10T09:46:52.0000000+00:00</time></trkpt><trkpt lat="44.632381" lon="33.815727"><ele>265.9</ele><time>2011-10-10T09:46:57.0000000+00:00</time></trkpt><trkpt lat="44.632385" lon="33.815731"><ele>266.1</ele><time>2011-10-10T09:47:02.0000000+00:00</time></trkpt><trkpt lat="44.632385" lon="33.815742"><ele>265.9</ele><time>2011-10-10T09:47:07.0000000+00:00</time></trkpt><trkpt lat="44.632393" lon="33.81575"><ele>265.9</ele><time>2011-10-10T09:47:12.0000000+00:00</time></trkpt><trkpt lat="44.632389" lon="33.81575"><ele>266.0</ele><time>2011-10-10T09:47:17.0000000+00:00</time></trkpt><trkpt lat="44.632389" lon="33.81575"><ele>265.9</ele><time>2011-10-10T09:47:22.0000000+00:00</time></trkpt><trkpt lat="44.632389" lon="33.81575"><ele>265.9</ele><time>2011-10-10T09:47:27.0000000+00:00</time></trkpt><trkpt lat="44.632389" lon="33.81575"><ele>265.9</ele><time>2011-10-10T09:47:32.0000000+00:00</time></trkpt><trkpt lat="44.632389" lon="33.81575"><ele>265.9</ele><time>2011-10-10T09:47:37.0000000+00:00</time></trkpt><trkpt lat="44.632389" lon="33.81575"><ele>265.9</ele><time>2011-10-10T09:47:42.0000000+00:00</time></trkpt><trkpt lat="44.63237" lon="33.815777"><ele>265.9</ele><time>2011-10-10T09:47:47.0000000+00:00</time></trkpt><trkpt lat="44.632317" lon="33.815807"><ele>265.9</ele><time>2011-10-10T09:47:52.0000000+00:00</time></trkpt><trkpt lat="44.632263" lon="33.815868"><ele>265.9</ele><time>2011-10-10T09:47:57.0000000+00:00</time></trkpt><trkpt lat="44.632229" lon="33.815956"><ele>266.2</ele><time>2011-10-10T09:48:02.0000000+00:00</time></trkpt><trkpt lat="44.632168" lon="33.816063"><ele>266.9</ele><time>2011-10-10T09:48:07.0000000+00:00</time></trkpt><trkpt lat="44.632072" lon="33.816193"><ele>267.9</ele><time>2011-10-10T09:48:12.0000000+00:00</time></trkpt><trkpt lat="44.631989" lon="33.816357"><ele>268.9</ele><time>2011-10-10T09:48:17.0000000+00:00</time></trkpt><trkpt lat="44.631905" lon="33.816486"><ele>270.4</ele><time>2011-10-10T09:48:22.0000000+00:00</time></trkpt><trkpt lat="44.631817" lon="33.816605"><ele>272.0</ele><time>2011-10-10T09:48:27.0000000+00:00</time></trkpt><trkpt lat="44.631714" lon="33.816738"><ele>273.2</ele><time>2011-10-10T09:48:32.0000000+00:00</time></trkpt><trkpt lat="44.631641" lon="33.81686"><ele>274.3</ele><time>2011-10-10T09:48:37.0000000+00:00</time></trkpt><trkpt lat="44.631565" lon="33.816952"><ele>275.8</ele><time>2011-10-10T09:48:42.0000000+00:00</time></trkpt><trkpt lat="44.631485" lon="33.817066"><ele>277.4</ele><time>2011-10-10T09:48:47.0000000+00:00</time></trkpt><trkpt lat="44.631413" lon="33.817154"><ele>278.9</ele><time>2011-10-10T09:48:52.0000000+00:00</time></trkpt><trkpt lat="44.631329" lon="33.817223"><ele>281.6</ele><time>2011-10-10T09:48:57.0000000+00:00</time></trkpt><trkpt lat="44.631237" lon="33.817318"><ele>282.3</ele><time>2011-10-10T09:49:02.0000000+00:00</time></trkpt><trkpt lat="44.631165" lon="33.81741"><ele>283.8</ele><time>2011-10-10T09:49:07.0000000+00:00</time></trkpt><trkpt lat="44.631111" lon="33.817478"><ele>284.9</ele><time>2011-10-10T09:49:12.0000000+00:00</time></trkpt><trkpt lat="44.631054" lon="33.817532"><ele>286.8</ele><time>2011-10-10T09:49:17.0000000+00:00</time></trkpt><trkpt lat="44.630985" lon="33.817593"><ele>288.9</ele><time>2011-10-10T09:49:22.0000000+00:00</time></trkpt><trkpt lat="44.630898" lon="33.817665"><ele>290.9</ele><time>2011-10-10T09:49:27.0000000+00:00</time></trkpt><trkpt lat="44.630829" lon="33.817734"><ele>292.0</ele><time>2011-10-10T09:49:32.0000000+00:00</time></trkpt><trkpt lat="44.630749" lon="33.817806"><ele>292.9</ele><time>2011-10-10T09:49:37.0000000+00:00</time></trkpt><trkpt lat="44.630657" lon="33.817875"><ele>293.8</ele><time>2011-10-10T09:49:42.0000000+00:00</time></trkpt><trkpt lat="44.630562" lon="33.817932"><ele>293.3</ele><time>2011-10-10T09:49:47.0000000+00:00</time></trkpt><trkpt lat="44.630493" lon="33.818016"><ele>292.5</ele><time>2011-10-10T09:49:52.0000000+00:00</time></trkpt><trkpt lat="44.630405" lon="33.818085"><ele>292.1</ele><time>2011-10-10T09:49:57.0000000+00:00</time></trkpt><trkpt lat="44.630352" lon="33.818172"><ele>292.6</ele><time>2011-10-10T09:50:02.0000000+00:00</time></trkpt><trkpt lat="44.630276" lon="33.818268"><ele>294.4</ele><time>2011-10-10T09:50:07.0000000+00:00</time></trkpt><trkpt lat="44.630222" lon="33.818336"><ele>293.1</ele><time>2011-10-10T09:50:12.0000000+00:00</time></trkpt><trkpt lat="44.630154" lon="33.818382"><ele>293.3</ele><time>2011-10-10T09:50:17.0000000+00:00</time></trkpt><trkpt lat="44.630085" lon="33.818451"><ele>293.2</ele><time>2011-10-10T09:50:22.0000000+00:00</time></trkpt><trkpt lat="44.630024" lon="33.818531"><ele>293.2</ele><time>2011-10-10T09:50:27.0000000+00:00</time></trkpt><trkpt lat="44.629951" lon="33.818607"><ele>292.1</ele><time>2011-10-10T09:50:32.0000000+00:00</time></trkpt><trkpt lat="44.629902" lon="33.818687"><ele>293.6</ele><time>2011-10-10T09:50:37.0000000+00:00</time></trkpt><trkpt lat="44.629848" lon="33.818745"><ele>294.3</ele><time>2011-10-10T09:50:42.0000000+00:00</time></trkpt><trkpt lat="44.629791" lon="33.81881"><ele>295.9</ele><time>2011-10-10T09:50:47.0000000+00:00</time></trkpt><trkpt lat="44.629719" lon="33.818886"><ele>297.1</ele><time>2011-10-10T09:50:52.0000000+00:00</time></trkpt><trkpt lat="44.629654" lon="33.818954"><ele>298.3</ele><time>2011-10-10T09:50:57.0000000+00:00</time></trkpt><trkpt lat="44.629589" lon="33.819023"><ele>298.6</ele><time>2011-10-10T09:51:02.0000000+00:00</time></trkpt><trkpt lat="44.629513" lon="33.819096"><ele>299.3</ele><time>2011-10-10T09:51:07.0000000+00:00</time></trkpt><trkpt lat="44.629463" lon="33.819183"><ele>299.0</ele><time>2011-10-10T09:51:12.0000000+00:00</time></trkpt><trkpt lat="44.62944" lon="33.819229"><ele>299.9</ele><time>2011-10-10T09:51:17.0000000+00:00</time></trkpt><trkpt lat="44.629391" lon="33.819286"><ele>301.4</ele><time>2011-10-10T09:51:22.0000000+00:00</time></trkpt><trkpt lat="44.62936" lon="33.819313"><ele>302.9</ele><time>2011-10-10T09:51:27.0000000+00:00</time></trkpt><trkpt lat="44.629303" lon="33.819363"><ele>304.5</ele><time>2011-10-10T09:51:32.0000000+00:00</time></trkpt><trkpt lat="44.629234" lon="33.819397"><ele>305.6</ele><time>2011-10-10T09:51:37.0000000+00:00</time></trkpt><trkpt lat="44.629162" lon="33.819466"><ele>306.3</ele><time>2011-10-10T09:51:42.0000000+00:00</time></trkpt><trkpt lat="44.629124" lon="33.819515"><ele>307.7</ele><time>2011-10-10T09:51:47.0000000+00:00</time></trkpt><trkpt lat="44.629051" lon="33.819569"><ele>308.4</ele><time>2011-10-10T09:51:52.0000000+00:00</time></trkpt><trkpt lat="44.628983" lon="33.819633"><ele>309.7</ele><time>2011-10-10T09:51:57.0000000+00:00</time></trkpt><trkpt lat="44.628906" lon="33.81971"><ele>311.0</ele><time>2011-10-10T09:52:02.0000000+00:00</time></trkpt><trkpt lat="44.628845" lon="33.819786"><ele>312.6</ele><time>2011-10-10T09:52:07.0000000+00:00</time></trkpt><trkpt lat="44.628792" lon="33.819836"><ele>313.7</ele><time>2011-10-10T09:52:12.0000000+00:00</time></trkpt><trkpt lat="44.628754" lon="33.819904"><ele>315.6</ele><time>2011-10-10T09:52:17.0000000+00:00</time></trkpt><trkpt lat="44.6287" lon="33.819996"><ele>315.6</ele><time>2011-10-10T09:52:22.0000000+00:00</time></trkpt><trkpt lat="44.628624" lon="33.820068"><ele>315.8</ele><time>2011-10-10T09:52:27.0000000+00:00</time></trkpt><trkpt lat="44.628551" lon="33.820133"><ele>316.3</ele><time>2011-10-10T09:52:32.0000000+00:00</time></trkpt><trkpt lat="44.628502" lon="33.82019"><ele>317.7</ele><time>2011-10-10T09:52:37.0000000+00:00</time></trkpt><trkpt lat="44.628418" lon="33.820244"><ele>315.6</ele><time>2011-10-10T09:52:42.0000000+00:00</time></trkpt><trkpt lat="44.628334" lon="33.820305"><ele>312.7</ele><time>2011-10-10T09:52:47.0000000+00:00</time></trkpt><trkpt lat="44.628246" lon="33.820358"><ele>310.6</ele><time>2011-10-10T09:52:52.0000000+00:00</time></trkpt><trkpt lat="44.628166" lon="33.820423"><ele>308.4</ele><time>2011-10-10T09:52:57.0000000+00:00</time></trkpt><trkpt lat="44.628143" lon="33.820477"><ele>307.6</ele><time>2011-10-10T09:53:02.0000000+00:00</time></trkpt><trkpt lat="44.628132" lon="33.820477"><ele>306.8</ele><time>2011-10-10T09:53:07.0000000+00:00</time></trkpt><trkpt lat="44.628128" lon="33.82048"><ele>306.7</ele><time>2011-10-10T09:53:12.0000000+00:00</time></trkpt><trkpt lat="44.628124" lon="33.820484"><ele>306.7</ele><time>2011-10-10T09:53:17.0000000+00:00</time></trkpt><trkpt lat="44.62812" lon="33.820484"><ele>306.7</ele><time>2011-10-10T09:53:22.0000000+00:00</time></trkpt><trkpt lat="44.628117" lon="33.82048"><ele>306.7</ele><time>2011-10-10T09:53:27.0000000+00:00</time></trkpt><trkpt lat="44.628109" lon="33.820473"><ele>306.7</ele><time>2011-10-10T09:53:32.0000000+00:00</time></trkpt><trkpt lat="44.628109" lon="33.820488"><ele>306.7</ele><time>2011-10-10T09:53:37.0000000+00:00</time></trkpt><trkpt lat="44.628109" lon="33.820484"><ele>306.9</ele><time>2011-10-10T09:53:42.0000000+00:00</time></trkpt><trkpt lat="44.628113" lon="33.820484"><ele>306.9</ele><time>2011-10-10T09:53:47.0000000+00:00</time></trkpt><trkpt lat="44.628113" lon="33.820477"><ele>307.0</ele><time>2011-10-10T09:53:52.0000000+00:00</time></trkpt><trkpt lat="44.628117" lon="33.820477"><ele>307.1</ele><time>2011-10-10T09:53:57.0000000+00:00</time></trkpt><trkpt lat="44.628117" lon="33.820473"><ele>307.1</ele><time>2011-10-10T09:54:02.0000000+00:00</time></trkpt><trkpt lat="44.628098" lon="33.820442"><ele>306.7</ele><time>2011-10-10T09:54:07.0000000+00:00</time></trkpt><trkpt lat="44.628094" lon="33.820446"><ele>305.6</ele><time>2011-10-10T09:54:12.0000000+00:00</time></trkpt><trkpt lat="44.628094" lon="33.820446"><ele>305.6</ele><time>2011-10-10T09:54:17.0000000+00:00</time></trkpt><trkpt lat="44.628094" lon="33.820446"><ele>305.5</ele><time>2011-10-10T09:54:22.0000000+00:00</time></trkpt><trkpt lat="44.628094" lon="33.820446"><ele>305.5</ele><time>2011-10-10T09:54:27.0000000+00:00</time></trkpt><trkpt lat="44.628094" lon="33.820446"><ele>305.5</ele><time>2011-10-10T09:54:32.0000000+00:00</time></trkpt><trkpt lat="44.628094" lon="33.820446"><ele>305.5</ele><time>2011-10-10T09:54:37.0000000+00:00</time></trkpt><trkpt lat="44.628094" lon="33.820446"><ele>305.5</ele><time>2011-10-10T09:54:42.0000000+00:00</time></trkpt><trkpt lat="44.628094" lon="33.820446"><ele>305.5</ele><time>2011-10-10T09:54:47.0000000+00:00</time></trkpt><trkpt lat="44.628094" lon="33.820446"><ele>305.5</ele><time>2011-10-10T09:54:52.0000000+00:00</time></trkpt><trkpt lat="44.628094" lon="33.820446"><ele>305.5</ele><time>2011-10-10T09:54:57.0000000+00:00</time></trkpt><trkpt lat="44.628094" lon="33.820446"><ele>305.5</ele><time>2011-10-10T09:55:02.0000000+00:00</time></trkpt><trkpt lat="44.628094" lon="33.820446"><ele>305.5</ele><time>2011-10-10T09:55:07.0000000+00:00</time></trkpt><trkpt lat="44.628094" lon="33.820446"><ele>305.5</ele><time>2011-10-10T09:55:12.0000000+00:00</time></trkpt><trkpt lat="44.628094" lon="33.820446"><ele>305.5</ele><time>2011-10-10T09:55:17.0000000+00:00</time></trkpt><trkpt lat="44.628094" lon="33.820446"><ele>305.5</ele><time>2011-10-10T09:55:22.0000000+00:00</time></trkpt><trkpt lat="44.628094" lon="33.820446"><ele>305.4</ele><time>2011-10-10T09:55:27.0000000+00:00</time></trkpt><trkpt lat="44.628094" lon="33.820446"><ele>305.4</ele><time>2011-10-10T09:55:32.0000000+00:00</time></trkpt><trkpt lat="44.628094" lon="33.820446"><ele>305.4</ele><time>2011-10-10T09:55:37.0000000+00:00</time></trkpt><trkpt lat="44.628094" lon="33.820446"><ele>305.4</ele><time>2011-10-10T09:55:42.0000000+00:00</time></trkpt><trkpt lat="44.628094" lon="33.820446"><ele>305.4</ele><time>2011-10-10T09:55:47.0000000+00:00</time></trkpt><trkpt lat="44.628094" lon="33.820446"><ele>305.4</ele><time>2011-10-10T09:55:52.0000000+00:00</time></trkpt><trkpt lat="44.628094" lon="33.820446"><ele>305.4</ele><time>2011-10-10T09:55:57.0000000+00:00</time></trkpt><trkpt lat="44.628094" lon="33.820446"><ele>305.4</ele><time>2011-10-10T09:56:02.0000000+00:00</time></trkpt><trkpt lat="44.628094" lon="33.820446"><ele>305.4</ele><time>2011-10-10T09:56:07.0000000+00:00</time></trkpt><trkpt lat="44.628094" lon="33.820446"><ele>305.4</ele><time>2011-10-10T09:56:12.0000000+00:00</time></trkpt><trkpt lat="44.628094" lon="33.820446"><ele>305.4</ele><time>2011-10-10T09:56:17.0000000+00:00</time></trkpt><trkpt lat="44.628098" lon="33.820442"><ele>305.4</ele><time>2011-10-10T09:56:22.0000000+00:00</time></trkpt><trkpt lat="44.628098" lon="33.820442"><ele>305.4</ele><time>2011-10-10T09:56:27.0000000+00:00</time></trkpt><trkpt lat="44.628098" lon="33.820442"><ele>305.4</ele><time>2011-10-10T09:56:32.0000000+00:00</time></trkpt><trkpt lat="44.628098" lon="33.820442"><ele>305.3</ele><time>2011-10-10T09:56:37.0000000+00:00</time></trkpt><trkpt lat="44.628098" lon="33.820442"><ele>305.3</ele><time>2011-10-10T09:56:42.0000000+00:00</time></trkpt><trkpt lat="44.628098" lon="33.820442"><ele>305.4</ele><time>2011-10-10T09:56:47.0000000+00:00</time></trkpt><trkpt lat="44.628098" lon="33.820442"><ele>305.4</ele><time>2011-10-10T09:56:52.0000000+00:00</time></trkpt><trkpt lat="44.628098" lon="33.820442"><ele>305.4</ele><time>2011-10-10T09:56:57.0000000+00:00</time></trkpt><trkpt lat="44.628098" lon="33.820442"><ele>305.3</ele><time>2011-10-10T09:57:02.0000000+00:00</time></trkpt><trkpt lat="44.628098" lon="33.820442"><ele>305.3</ele><time>2011-10-10T09:57:07.0000000+00:00</time></trkpt><trkpt lat="44.628098" lon="33.820442"><ele>305.3</ele><time>2011-10-10T09:57:12.0000000+00:00</time></trkpt><trkpt lat="44.628098" lon="33.820442"><ele>305.3</ele><time>2011-10-10T09:57:17.0000000+00:00</time></trkpt><trkpt lat="44.628098" lon="33.820442"><ele>305.2</ele><time>2011-10-10T09:57:22.0000000+00:00</time></trkpt><trkpt lat="44.628098" lon="33.820442"><ele>305.2</ele><time>2011-10-10T09:57:27.0000000+00:00</time></trkpt><trkpt lat="44.628098" lon="33.820442"><ele>305.2</ele><time>2011-10-10T09:57:32.0000000+00:00</time></trkpt><trkpt lat="44.628098" lon="33.820442"><ele>305.2</ele><time>2011-10-10T09:57:37.0000000+00:00</time></trkpt><trkpt lat="44.628094" lon="33.820442"><ele>305.3</ele><time>2011-10-10T09:57:42.0000000+00:00</time></trkpt><trkpt lat="44.628094" lon="33.820438"><ele>305.3</ele><time>2011-10-10T09:57:47.0000000+00:00</time></trkpt><trkpt lat="44.628094" lon="33.820438"><ele>305.3</ele><time>2011-10-10T09:57:52.0000000+00:00</time></trkpt><trkpt lat="44.628094" lon="33.820438"><ele>305.3</ele><time>2011-10-10T09:57:57.0000000+00:00</time></trkpt><trkpt lat="44.628094" lon="33.820438"><ele>305.3</ele><time>2011-10-10T09:58:02.0000000+00:00</time></trkpt><trkpt lat="44.628094" lon="33.820438"><ele>305.3</ele><time>2011-10-10T09:58:07.0000000+00:00</time></trkpt><trkpt lat="44.628094" lon="33.820438"><ele>305.3</ele><time>2011-10-10T09:58:12.0000000+00:00</time></trkpt><trkpt lat="44.628094" lon="33.820438"><ele>305.3</ele><time>2011-10-10T09:58:17.0000000+00:00</time></trkpt><trkpt lat="44.628094" lon="33.820438"><ele>305.3</ele><time>2011-10-10T09:58:22.0000000+00:00</time></trkpt><trkpt lat="44.628094" lon="33.820438"><ele>305.2</ele><time>2011-10-10T09:58:27.0000000+00:00</time></trkpt><trkpt lat="44.628094" lon="33.820438"><ele>305.2</ele><time>2011-10-10T09:58:32.0000000+00:00</time></trkpt><trkpt lat="44.628094" lon="33.820438"><ele>305.2</ele><time>2011-10-10T09:58:37.0000000+00:00</time></trkpt><trkpt lat="44.628094" lon="33.820438"><ele>305.2</ele><time>2011-10-10T09:58:42.0000000+00:00</time></trkpt><trkpt lat="44.628094" lon="33.820438"><ele>305.2</ele><time>2011-10-10T09:58:47.0000000+00:00</time></trkpt><trkpt lat="44.628094" lon="33.820438"><ele>305.2</ele><time>2011-10-10T09:58:52.0000000+00:00</time></trkpt><trkpt lat="44.628094" lon="33.820438"><ele>305.1</ele><time>2011-10-10T09:58:57.0000000+00:00</time></trkpt><trkpt lat="44.628094" lon="33.820438"><ele>305.1</ele><time>2011-10-10T09:59:02.0000000+00:00</time></trkpt><trkpt lat="44.628094" lon="33.820438"><ele>305.1</ele><time>2011-10-10T09:59:07.0000000+00:00</time></trkpt><trkpt lat="44.628094" lon="33.820438"><ele>305.1</ele><time>2011-10-10T09:59:12.0000000+00:00</time></trkpt><trkpt lat="44.628094" lon="33.820438"><ele>305.1</ele><time>2011-10-10T09:59:17.0000000+00:00</time></trkpt><trkpt lat="44.628094" lon="33.820438"><ele>305.1</ele><time>2011-10-10T09:59:22.0000000+00:00</time></trkpt><trkpt lat="44.628094" lon="33.820438"><ele>305.1</ele><time>2011-10-10T09:59:27.0000000+00:00</time></trkpt><trkpt lat="44.628094" lon="33.820438"><ele>305.1</ele><time>2011-10-10T09:59:32.0000000+00:00</time></trkpt><trkpt lat="44.628094" lon="33.820438"><ele>305.1</ele><time>2011-10-10T09:59:37.0000000+00:00</time></trkpt><trkpt lat="44.628094" lon="33.820435"><ele>305.1</ele><time>2011-10-10T09:59:42.0000000+00:00</time></trkpt><trkpt lat="44.628094" lon="33.820435"><ele>305.2</ele><time>2011-10-10T09:59:47.0000000+00:00</time></trkpt><trkpt lat="44.628094" lon="33.820435"><ele>305.2</ele><time>2011-10-10T09:59:52.0000000+00:00</time></trkpt><trkpt lat="44.628098" lon="33.820435"><ele>305.2</ele><time>2011-10-10T09:59:57.0000000+00:00</time></trkpt><trkpt lat="44.628098" lon="33.820438"><ele>305.2</ele><time>2011-10-10T10:00:02.0000000+00:00</time></trkpt><trkpt lat="44.628098" lon="33.820438"><ele>305.2</ele><time>2011-10-10T10:00:07.0000000+00:00</time></trkpt><trkpt lat="44.628098" lon="33.820438"><ele>305.2</ele><time>2011-10-10T10:00:12.0000000+00:00</time></trkpt><trkpt lat="44.628098" lon="33.820438"><ele>305.2</ele><time>2011-10-10T10:00:17.0000000+00:00</time></trkpt><trkpt lat="44.628098" lon="33.820438"><ele>305.2</ele><time>2011-10-10T10:00:22.0000000+00:00</time></trkpt><trkpt lat="44.628098" lon="33.820442"><ele>305.2</ele><time>2011-10-10T10:00:27.0000000+00:00</time></trkpt><trkpt lat="44.628098" lon="33.820442"><ele>305.2</ele><time>2011-10-10T10:00:32.0000000+00:00</time></trkpt><trkpt lat="44.628098" lon="33.820442"><ele>305.3</ele><time>2011-10-10T10:00:37.0000000+00:00</time></trkpt><trkpt lat="44.628098" lon="33.820442"><ele>305.4</ele><time>2011-10-10T10:00:42.0000000+00:00</time></trkpt><trkpt lat="44.628098" lon="33.820442"><ele>305.4</ele><time>2011-10-10T10:00:47.0000000+00:00</time></trkpt><trkpt lat="44.628098" lon="33.820442"><ele>305.5</ele><time>2011-10-10T10:00:52.0000000+00:00</time></trkpt><trkpt lat="44.628098" lon="33.820442"><ele>305.5</ele><time>2011-10-10T10:00:57.0000000+00:00</time></trkpt><trkpt lat="44.628098" lon="33.820442"><ele>305.5</ele><time>2011-10-10T10:01:02.0000000+00:00</time></trkpt><trkpt lat="44.628098" lon="33.820442"><ele>305.4</ele><time>2011-10-10T10:01:07.0000000+00:00</time></trkpt><trkpt lat="44.628098" lon="33.820442"><ele>305.4</ele><time>2011-10-10T10:01:12.0000000+00:00</time></trkpt><trkpt lat="44.628098" lon="33.820442"><ele>305.4</ele><time>2011-10-10T10:01:17.0000000+00:00</time></trkpt><trkpt lat="44.628098" lon="33.820442"><ele>305.4</ele><time>2011-10-10T10:01:22.0000000+00:00</time></trkpt><trkpt lat="44.628098" lon="33.820442"><ele>305.4</ele><time>2011-10-10T10:01:27.0000000+00:00</time></trkpt><trkpt lat="44.628098" lon="33.820442"><ele>305.4</ele><time>2011-10-10T10:01:32.0000000+00:00</time></trkpt><trkpt lat="44.628098" lon="33.820442"><ele>305.4</ele><time>2011-10-10T10:01:37.0000000+00:00</time></trkpt><trkpt lat="44.628098" lon="33.820442"><ele>305.3</ele><time>2011-10-10T10:01:42.0000000+00:00</time></trkpt><trkpt lat="44.628098" lon="33.820442"><ele>305.3</ele><time>2011-10-10T10:01:47.0000000+00:00</time></trkpt><trkpt lat="44.628098" lon="33.820442"><ele>305.3</ele><time>2011-10-10T10:01:52.0000000+00:00</time></trkpt><trkpt lat="44.628098" lon="33.820442"><ele>305.3</ele><time>2011-10-10T10:01:57.0000000+00:00</time></trkpt><trkpt lat="44.628098" lon="33.820442"><ele>305.3</ele><time>2011-10-10T10:02:02.0000000+00:00</time></trkpt><trkpt lat="44.628098" lon="33.820442"><ele>305.3</ele><time>2011-10-10T10:02:07.0000000+00:00</time></trkpt><trkpt lat="44.628098" lon="33.820442"><ele>305.3</ele><time>2011-10-10T10:02:12.0000000+00:00</time></trkpt><trkpt lat="44.628098" lon="33.820442"><ele>305.2</ele><time>2011-10-10T10:02:17.0000000+00:00</time></trkpt><trkpt lat="44.628098" lon="33.820442"><ele>305.3</ele><time>2011-10-10T10:02:22.0000000+00:00</time></trkpt><trkpt lat="44.628098" lon="33.820442"><ele>305.3</ele><time>2011-10-10T10:02:27.0000000+00:00</time></trkpt><trkpt lat="44.628098" lon="33.820442"><ele>305.2</ele><time>2011-10-10T10:02:32.0000000+00:00</time></trkpt><trkpt lat="44.628098" lon="33.820442"><ele>305.2</ele><time>2011-10-10T10:02:37.0000000+00:00</time></trkpt><trkpt lat="44.628098" lon="33.820442"><ele>305.2</ele><time>2011-10-10T10:02:42.0000000+00:00</time></trkpt><trkpt lat="44.628098" lon="33.820442"><ele>305.1</ele><time>2011-10-10T10:02:47.0000000+00:00</time></trkpt><trkpt lat="44.628098" lon="33.820442"><ele>305.1</ele><time>2011-10-10T10:02:52.0000000+00:00</time></trkpt><trkpt lat="44.628098" lon="33.820442"><ele>305.1</ele><time>2011-10-10T10:02:57.0000000+00:00</time></trkpt><trkpt lat="44.628098" lon="33.820442"><ele>305.1</ele><time>2011-10-10T10:03:02.0000000+00:00</time></trkpt><trkpt lat="44.628098" lon="33.820442"><ele>305.1</ele><time>2011-10-10T10:03:07.0000000+00:00</time></trkpt><trkpt lat="44.628098" lon="33.820442"><ele>305.1</ele><time>2011-10-10T10:03:12.0000000+00:00</time></trkpt><trkpt lat="44.628098" lon="33.820442"><ele>305.1</ele><time>2011-10-10T10:03:17.0000000+00:00</time></trkpt><trkpt lat="44.628098" lon="33.820442"><ele>305.1</ele><time>2011-10-10T10:03:22.0000000+00:00</time></trkpt><trkpt lat="44.628098" lon="33.820442"><ele>305.1</ele><time>2011-10-10T10:03:27.0000000+00:00</time></trkpt><trkpt lat="44.628098" lon="33.820442"><ele>305.1</ele><time>2011-10-10T10:03:32.0000000+00:00</time></trkpt><trkpt lat="44.628098" lon="33.820442"><ele>305.1</ele><time>2011-10-10T10:03:37.0000000+00:00</time></trkpt><trkpt lat="44.628098" lon="33.820442"><ele>305.2</ele><time>2011-10-10T10:03:42.0000000+00:00</time></trkpt><trkpt lat="44.628098" lon="33.820438"><ele>305.2</ele><time>2011-10-10T10:03:47.0000000+00:00</time></trkpt><trkpt lat="44.628098" lon="33.820438"><ele>305.2</ele><time>2011-10-10T10:03:52.0000000+00:00</time></trkpt><trkpt lat="44.628098" lon="33.820438"><ele>305.2</ele><time>2011-10-10T10:03:57.0000000+00:00</time></trkpt><trkpt lat="44.628098" lon="33.820438"><ele>305.2</ele><time>2011-10-10T10:04:02.0000000+00:00</time></trkpt><trkpt lat="44.628098" lon="33.820435"><ele>305.2</ele><time>2011-10-10T10:04:07.0000000+00:00</time></trkpt><trkpt lat="44.628098" lon="33.820435"><ele>305.2</ele><time>2011-10-10T10:04:12.0000000+00:00</time></trkpt><trkpt lat="44.628098" lon="33.820435"><ele>305.2</ele><time>2011-10-10T10:04:17.0000000+00:00</time></trkpt><trkpt lat="44.628082" lon="33.820457"><ele>305.3</ele><time>2011-10-10T10:04:22.0000000+00:00</time></trkpt><trkpt lat="44.628036" lon="33.820511"><ele>306.9</ele><time>2011-10-10T10:04:27.0000000+00:00</time></trkpt><trkpt lat="44.627983" lon="33.820583"><ele>308.4</ele><time>2011-10-10T10:04:32.0000000+00:00</time></trkpt><trkpt lat="44.627926" lon="33.820656"><ele>310.1</ele><time>2011-10-10T10:04:37.0000000+00:00</time></trkpt><trkpt lat="44.62785" lon="33.820755"><ele>312.4</ele><time>2011-10-10T10:04:42.0000000+00:00</time></trkpt><trkpt lat="44.627796" lon="33.82082"><ele>315.2</ele><time>2011-10-10T10:04:47.0000000+00:00</time></trkpt><trkpt lat="44.627789" lon="33.820812"><ele>315.8</ele><time>2011-10-10T10:04:52.0000000+00:00</time></trkpt><trkpt lat="44.627834" lon="33.820812"><ele>315.0</ele><time>2011-10-10T10:04:57.0000000+00:00</time></trkpt><trkpt lat="44.62796" lon="33.820667"><ele>314.1</ele><time>2011-10-10T10:05:02.0000000+00:00</time></trkpt><trkpt lat="44.628063" lon="33.820564"><ele>313.0</ele><time>2011-10-10T10:05:07.0000000+00:00</time></trkpt><trkpt lat="44.628071" lon="33.820557"><ele>312.2</ele><time>2011-10-10T10:05:12.0000000+00:00</time></trkpt><trkpt lat="44.628078" lon="33.820557"><ele>311.7</ele><time>2011-10-10T10:05:17.0000000+00:00</time></trkpt><trkpt lat="44.628078" lon="33.820557"><ele>311.7</ele><time>2011-10-10T10:05:22.0000000+00:00</time></trkpt><trkpt lat="44.628078" lon="33.820557"><ele>311.8</ele><time>2011-10-10T10:05:27.0000000+00:00</time></trkpt><trkpt lat="44.628071" lon="33.820572"><ele>311.3</ele><time>2011-10-10T10:05:32.0000000+00:00</time></trkpt><trkpt lat="44.628036" lon="33.820606"><ele>310.8</ele><time>2011-10-10T10:05:37.0000000+00:00</time></trkpt><trkpt lat="44.627972" lon="33.820663"><ele>311.4</ele><time>2011-10-10T10:05:42.0000000+00:00</time></trkpt><trkpt lat="44.627895" lon="33.82074"><ele>312.6</ele><time>2011-10-10T10:05:47.0000000+00:00</time></trkpt><trkpt lat="44.627808" lon="33.820816"><ele>315.1</ele><time>2011-10-10T10:05:52.0000000+00:00</time></trkpt><trkpt lat="44.627739" lon="33.820869"><ele>317.6</ele><time>2011-10-10T10:05:57.0000000+00:00</time></trkpt><trkpt lat="44.627674" lon="33.820946"><ele>319.8</ele><time>2011-10-10T10:06:02.0000000+00:00</time></trkpt><trkpt lat="44.627613" lon="33.821011"><ele>322.4</ele><time>2011-10-10T10:06:07.0000000+00:00</time></trkpt><trkpt lat="44.627583" lon="33.821079"><ele>325.4</ele><time>2011-10-10T10:06:12.0000000+00:00</time></trkpt><trkpt lat="44.627476" lon="33.821098"><ele>325.6</ele><time>2011-10-10T10:06:17.0000000+00:00</time></trkpt><trkpt lat="44.627411" lon="33.821198"><ele>326.4</ele><time>2011-10-10T10:06:22.0000000+00:00</time></trkpt><trkpt lat="44.62735" lon="33.821297"><ele>327.9</ele><time>2011-10-10T10:06:27.0000000+00:00</time></trkpt><trkpt lat="44.627258" lon="33.821369"><ele>328.3</ele><time>2011-10-10T10:06:32.0000000+00:00</time></trkpt><trkpt lat="44.627201" lon="33.821472"><ele>330.2</ele><time>2011-10-10T10:06:37.0000000+00:00</time></trkpt><trkpt lat="44.627113" lon="33.821617"><ele>329.7</ele><time>2011-10-10T10:06:42.0000000+00:00</time></trkpt><trkpt lat="44.627026" lon="33.82169"><ele>328.1</ele><time>2011-10-10T10:06:47.0000000+00:00</time></trkpt><trkpt lat="44.626926" lon="33.821739"><ele>324.9</ele><time>2011-10-10T10:06:52.0000000+00:00</time></trkpt><trkpt lat="44.62685" lon="33.821793"><ele>324.4</ele><time>2011-10-10T10:06:57.0000000+00:00</time></trkpt><trkpt lat="44.626781" lon="33.821884"><ele>325.3</ele><time>2011-10-10T10:07:02.0000000+00:00</time></trkpt><trkpt lat="44.626709" lon="33.821941"><ele>325.7</ele><time>2011-10-10T10:07:07.0000000+00:00</time></trkpt><trkpt lat="44.62664" lon="33.822002"><ele>325.8</ele><time>2011-10-10T10:07:12.0000000+00:00</time></trkpt><trkpt lat="44.626579" lon="33.822071"><ele>324.9</ele><time>2011-10-10T10:07:17.0000000+00:00</time></trkpt><trkpt lat="44.626583" lon="33.82209"><ele>325.3</ele><time>2011-10-10T10:07:22.0000000+00:00</time></trkpt><trkpt lat="44.626579" lon="33.822086"><ele>324.9</ele><time>2011-10-10T10:07:27.0000000+00:00</time></trkpt><trkpt lat="44.62656" lon="33.822105"><ele>324.9</ele><time>2011-10-10T10:07:32.0000000+00:00</time></trkpt><trkpt lat="44.626537" lon="33.822124"><ele>325.1</ele><time>2011-10-10T10:07:37.0000000+00:00</time></trkpt><trkpt lat="44.626518" lon="33.822144"><ele>325.5</ele><time>2011-10-10T10:07:42.0000000+00:00</time></trkpt><trkpt lat="44.626446" lon="33.822186"><ele>325.6</ele><time>2011-10-10T10:07:47.0000000+00:00</time></trkpt><trkpt lat="44.626381" lon="33.82225"><ele>325.6</ele><time>2011-10-10T10:07:52.0000000+00:00</time></trkpt><trkpt lat="44.626312" lon="33.822323"><ele>326.8</ele><time>2011-10-10T10:07:57.0000000+00:00</time></trkpt><trkpt lat="44.626244" lon="33.822392"><ele>327.7</ele><time>2011-10-10T10:08:02.0000000+00:00</time></trkpt><trkpt lat="44.626202" lon="33.822468"><ele>327.9</ele><time>2011-10-10T10:08:07.0000000+00:00</time></trkpt><trkpt lat="44.626129" lon="33.822548"><ele>327.7</ele><time>2011-10-10T10:08:12.0000000+00:00</time></trkpt><trkpt lat="44.626049" lon="33.82262"><ele>327.7</ele><time>2011-10-10T10:08:17.0000000+00:00</time></trkpt><trkpt lat="44.625957" lon="33.822697"><ele>328.2</ele><time>2011-10-10T10:08:22.0000000+00:00</time></trkpt><trkpt lat="44.62587" lon="33.822784"><ele>330.5</ele><time>2011-10-10T10:08:27.0000000+00:00</time></trkpt><trkpt lat="44.625801" lon="33.822876"><ele>332.4</ele><time>2011-10-10T10:08:32.0000000+00:00</time></trkpt><trkpt lat="44.625725" lon="33.822948"><ele>334.4</ele><time>2011-10-10T10:08:37.0000000+00:00</time></trkpt><trkpt lat="44.625641" lon="33.823051"><ele>336.6</ele><time>2011-10-10T10:08:42.0000000+00:00</time></trkpt><trkpt lat="44.62553" lon="33.823025"><ele>337.5</ele><time>2011-10-10T10:08:47.0000000+00:00</time></trkpt><trkpt lat="44.625462" lon="33.822937"><ele>337.1</ele><time>2011-10-10T10:08:52.0000000+00:00</time></trkpt><trkpt lat="44.625362" lon="33.822929"><ele>337.7</ele><time>2011-10-10T10:08:57.0000000+00:00</time></trkpt><trkpt lat="44.625282" lon="33.822994"><ele>338.6</ele><time>2011-10-10T10:09:02.0000000+00:00</time></trkpt><trkpt lat="44.625225" lon="33.823105"><ele>339.8</ele><time>2011-10-10T10:09:07.0000000+00:00</time></trkpt><trkpt lat="44.625198" lon="33.823223"><ele>340.6</ele><time>2011-10-10T10:09:12.0000000+00:00</time></trkpt><trkpt lat="44.62516" lon="33.823364"><ele>341.6</ele><time>2011-10-10T10:09:17.0000000+00:00</time></trkpt><trkpt lat="44.62513" lon="33.823509"><ele>340.4</ele><time>2011-10-10T10:09:22.0000000+00:00</time></trkpt><trkpt lat="44.625107" lon="33.823624"><ele>341.1</ele><time>2011-10-10T10:09:27.0000000+00:00</time></trkpt><trkpt lat="44.625072" lon="33.823772"><ele>345.7</ele><time>2011-10-10T10:09:32.0000000+00:00</time></trkpt><trkpt lat="44.625046" lon="33.823898"><ele>346.9</ele><time>2011-10-10T10:09:37.0000000+00:00</time></trkpt><trkpt lat="44.625019" lon="33.824001"><ele>349.1</ele><time>2011-10-10T10:09:42.0000000+00:00</time></trkpt><trkpt lat="44.624992" lon="33.824074"><ele>348.6</ele><time>2011-10-10T10:09:47.0000000+00:00</time></trkpt><trkpt lat="44.624935" lon="33.824131"><ele>348.1</ele><time>2011-10-10T10:09:52.0000000+00:00</time></trkpt><trkpt lat="44.624882" lon="33.8242"><ele>349.7</ele><time>2011-10-10T10:09:57.0000000+00:00</time></trkpt><trkpt lat="44.624859" lon="33.82428"><ele>350.9</ele><time>2011-10-10T10:10:02.0000000+00:00</time></trkpt><trkpt lat="44.624836" lon="33.824356"><ele>352.0</ele><time>2011-10-10T10:10:07.0000000+00:00</time></trkpt><trkpt lat="44.624813" lon="33.824455"><ele>353.3</ele><time>2011-10-10T10:10:12.0000000+00:00</time></trkpt><trkpt lat="44.624802" lon="33.824585"><ele>354.2</ele><time>2011-10-10T10:10:17.0000000+00:00</time></trkpt><trkpt lat="44.624786" lon="33.824715"><ele>355.0</ele><time>2011-10-10T10:10:22.0000000+00:00</time></trkpt><trkpt lat="44.624741" lon="33.824848"><ele>354.1</ele><time>2011-10-10T10:10:27.0000000+00:00</time></trkpt><trkpt lat="44.624722" lon="33.824997"><ele>353.4</ele><time>2011-10-10T10:10:32.0000000+00:00</time></trkpt><trkpt lat="44.624748" lon="33.825134"><ele>352.7</ele><time>2011-10-10T10:10:37.0000000+00:00</time></trkpt><trkpt lat="44.624752" lon="33.825272"><ele>353.5</ele><time>2011-10-10T10:10:42.0000000+00:00</time></trkpt><trkpt lat="44.624756" lon="33.825352"><ele>354.6</ele><time>2011-10-10T10:10:47.0000000+00:00</time></trkpt><trkpt lat="44.624763" lon="33.825462"><ele>356.2</ele><time>2011-10-10T10:10:52.0000000+00:00</time></trkpt><trkpt lat="44.624763" lon="33.825584"><ele>357.4</ele><time>2011-10-10T10:10:57.0000000+00:00</time></trkpt><trkpt lat="44.624763" lon="33.82568"><ele>358.6</ele><time>2011-10-10T10:11:02.0000000+00:00</time></trkpt><trkpt lat="44.624752" lon="33.825691"><ele>357.8</ele><time>2011-10-10T10:11:07.0000000+00:00</time></trkpt><trkpt lat="44.624752" lon="33.825691"><ele>357.8</ele><time>2011-10-10T10:11:12.0000000+00:00</time></trkpt><trkpt lat="44.624756" lon="33.825691"><ele>357.8</ele><time>2011-10-10T10:11:17.0000000+00:00</time></trkpt><trkpt lat="44.624756" lon="33.825691"><ele>357.8</ele><time>2011-10-10T10:11:22.0000000+00:00</time></trkpt><trkpt lat="44.624756" lon="33.825691"><ele>357.8</ele><time>2011-10-10T10:11:27.0000000+00:00</time></trkpt><trkpt lat="44.624756" lon="33.825691"><ele>357.8</ele><time>2011-10-10T10:11:32.0000000+00:00</time></trkpt><trkpt lat="44.624756" lon="33.825691"><ele>357.8</ele><time>2011-10-10T10:11:37.0000000+00:00</time></trkpt><trkpt lat="44.624756" lon="33.825691"><ele>357.8</ele><time>2011-10-10T10:11:42.0000000+00:00</time></trkpt><trkpt lat="44.624756" lon="33.825691"><ele>357.8</ele><time>2011-10-10T10:11:47.0000000+00:00</time></trkpt><trkpt lat="44.624756" lon="33.825691"><ele>357.8</ele><time>2011-10-10T10:11:52.0000000+00:00</time></trkpt><trkpt lat="44.624756" lon="33.825691"><ele>357.8</ele><time>2011-10-10T10:11:57.0000000+00:00</time></trkpt><trkpt lat="44.624756" lon="33.825691"><ele>357.8</ele><time>2011-10-10T10:12:02.0000000+00:00</time></trkpt><trkpt lat="44.624752" lon="33.825691"><ele>357.8</ele><time>2011-10-10T10:12:07.0000000+00:00</time></trkpt><trkpt lat="44.624752" lon="33.825691"><ele>357.8</ele><time>2011-10-10T10:12:12.0000000+00:00</time></trkpt><trkpt lat="44.624752" lon="33.825691"><ele>357.8</ele><time>2011-10-10T10:12:17.0000000+00:00</time></trkpt><trkpt lat="44.624752" lon="33.825691"><ele>357.8</ele><time>2011-10-10T10:12:22.0000000+00:00</time></trkpt><trkpt lat="44.624752" lon="33.825691"><ele>357.7</ele><time>2011-10-10T10:12:27.0000000+00:00</time></trkpt><trkpt lat="44.624756" lon="33.825695"><ele>357.1</ele><time>2011-10-10T10:12:32.0000000+00:00</time></trkpt><trkpt lat="44.624756" lon="33.825695"><ele>357.0</ele><time>2011-10-10T10:12:37.0000000+00:00</time></trkpt><trkpt lat="44.624756" lon="33.825687"><ele>357.5</ele><time>2011-10-10T10:12:42.0000000+00:00</time></trkpt><trkpt lat="44.624756" lon="33.825687"><ele>357.5</ele><time>2011-10-10T10:12:47.0000000+00:00</time></trkpt><trkpt lat="44.624756" lon="33.825691"><ele>357.9</ele><time>2011-10-10T10:12:52.0000000+00:00</time></trkpt><trkpt lat="44.624752" lon="33.825687"><ele>358.0</ele><time>2011-10-10T10:12:57.0000000+00:00</time></trkpt><trkpt lat="44.624752" lon="33.825687"><ele>358.0</ele><time>2011-10-10T10:13:02.0000000+00:00</time></trkpt><trkpt lat="44.624752" lon="33.825687"><ele>357.9</ele><time>2011-10-10T10:13:07.0000000+00:00</time></trkpt><trkpt lat="44.624752" lon="33.825687"><ele>357.9</ele><time>2011-10-10T10:13:12.0000000+00:00</time></trkpt><trkpt lat="44.624752" lon="33.825687"><ele>357.9</ele><time>2011-10-10T10:13:17.0000000+00:00</time></trkpt><trkpt lat="44.624748" lon="33.825699"><ele>357.8</ele><time>2011-10-10T10:13:22.0000000+00:00</time></trkpt><trkpt lat="44.624699" lon="33.825752"><ele>358.4</ele><time>2011-10-10T10:13:27.0000000+00:00</time></trkpt><trkpt lat="44.624619" lon="33.825817"><ele>360.7</ele><time>2011-10-10T10:13:32.0000000+00:00</time></trkpt><trkpt lat="44.624535" lon="33.825882"><ele>363.2</ele><time>2011-10-10T10:13:37.0000000+00:00</time></trkpt><trkpt lat="44.624447" lon="33.825928"><ele>364.4</ele><time>2011-10-10T10:13:42.0000000+00:00</time></trkpt><trkpt lat="44.624355" lon="33.825954"><ele>363.7</ele><time>2011-10-10T10:13:47.0000000+00:00</time></trkpt><trkpt lat="44.624283" lon="33.825981"><ele>361.7</ele><time>2011-10-10T10:13:52.0000000+00:00</time></trkpt><trkpt lat="44.624203" lon="33.826023"><ele>362.9</ele><time>2011-10-10T10:13:57.0000000+00:00</time></trkpt><trkpt lat="44.624123" lon="33.826084"><ele>363.7</ele><time>2011-10-10T10:14:02.0000000+00:00</time></trkpt><trkpt lat="44.624058" lon="33.826153"><ele>362.9</ele><time>2011-10-10T10:14:07.0000000+00:00</time></trkpt><trkpt lat="44.623997" lon="33.826241"><ele>362.9</ele><time>2011-10-10T10:14:12.0000000+00:00</time></trkpt><trkpt lat="44.623955" lon="33.826328"><ele>364.1</ele><time>2011-10-10T10:14:17.0000000+00:00</time></trkpt><trkpt lat="44.623932" lon="33.826427"><ele>364.3</ele><time>2011-10-10T10:14:22.0000000+00:00</time></trkpt><trkpt lat="44.623901" lon="33.826523"><ele>367.1</ele><time>2011-10-10T10:14:27.0000000+00:00</time></trkpt><trkpt lat="44.623882" lon="33.826557"><ele>367.7</ele><time>2011-10-10T10:14:32.0000000+00:00</time></trkpt><trkpt lat="44.623871" lon="33.826569"><ele>367.0</ele><time>2011-10-10T10:14:37.0000000+00:00</time></trkpt><trkpt lat="44.623875" lon="33.82658"><ele>367.0</ele><time>2011-10-10T10:14:42.0000000+00:00</time></trkpt><trkpt lat="44.623894" lon="33.826649"><ele>366.9</ele><time>2011-10-10T10:14:47.0000000+00:00</time></trkpt><trkpt lat="44.623917" lon="33.826664"><ele>366.6</ele><time>2011-10-10T10:14:52.0000000+00:00</time></trkpt><trkpt lat="44.623917" lon="33.826664"><ele>366.7</ele><time>2011-10-10T10:14:57.0000000+00:00</time></trkpt><trkpt lat="44.623917" lon="33.826668"><ele>366.6</ele><time>2011-10-10T10:15:02.0000000+00:00</time></trkpt><trkpt lat="44.623917" lon="33.826668"><ele>366.6</ele><time>2011-10-10T10:15:07.0000000+00:00</time></trkpt><trkpt lat="44.623917" lon="33.826668"><ele>366.6</ele><time>2011-10-10T10:15:12.0000000+00:00</time></trkpt><trkpt lat="44.623917" lon="33.826668"><ele>366.6</ele><time>2011-10-10T10:15:17.0000000+00:00</time></trkpt><trkpt lat="44.623917" lon="33.826668"><ele>366.6</ele><time>2011-10-10T10:15:22.0000000+00:00</time></trkpt><trkpt lat="44.623917" lon="33.826668"><ele>366.6</ele><time>2011-10-10T10:15:27.0000000+00:00</time></trkpt><trkpt lat="44.623928" lon="33.826679"><ele>366.4</ele><time>2011-10-10T10:15:32.0000000+00:00</time></trkpt><trkpt lat="44.623951" lon="33.826721"><ele>366.6</ele><time>2011-10-10T10:15:37.0000000+00:00</time></trkpt><trkpt lat="44.623974" lon="33.826756"><ele>366.5</ele><time>2011-10-10T10:15:42.0000000+00:00</time></trkpt><trkpt lat="44.62402" lon="33.826839"><ele>367.4</ele><time>2011-10-10T10:15:47.0000000+00:00</time></trkpt><trkpt lat="44.624062" lon="33.826916"><ele>365.8</ele><time>2011-10-10T10:15:52.0000000+00:00</time></trkpt><trkpt lat="44.62413" lon="33.827011"><ele>365.4</ele><time>2011-10-10T10:15:57.0000000+00:00</time></trkpt><trkpt lat="44.624199" lon="33.827114"><ele>365.7</ele><time>2011-10-10T10:16:02.0000000+00:00</time></trkpt><trkpt lat="44.624275" lon="33.827217"><ele>366.8</ele><time>2011-10-10T10:16:07.0000000+00:00</time></trkpt><trkpt lat="44.624329" lon="33.827282"><ele>367.6</ele><time>2011-10-10T10:16:12.0000000+00:00</time></trkpt><trkpt lat="44.624386" lon="33.827393"><ele>368.7</ele><time>2011-10-10T10:16:17.0000000+00:00</time></trkpt><trkpt lat="44.624432" lon="33.827526"><ele>370.4</ele><time>2011-10-10T10:16:22.0000000+00:00</time></trkpt><trkpt lat="44.624466" lon="33.827644"><ele>371.9</ele><time>2011-10-10T10:16:27.0000000+00:00</time></trkpt><trkpt lat="44.624462" lon="33.827717"><ele>372.0</ele><time>2011-10-10T10:16:32.0000000+00:00</time></trkpt><trkpt lat="44.624493" lon="33.827835"><ele>373.1</ele><time>2011-10-10T10:16:37.0000000+00:00</time></trkpt><trkpt lat="44.624519" lon="33.82793"><ele>375.3</ele><time>2011-10-10T10:16:42.0000000+00:00</time></trkpt><trkpt lat="44.624554" lon="33.828045"><ele>377.3</ele><time>2011-10-10T10:16:47.0000000+00:00</time></trkpt><trkpt lat="44.624588" lon="33.828186"><ele>379.3</ele><time>2011-10-10T10:16:52.0000000+00:00</time></trkpt><trkpt lat="44.624622" lon="33.828308"><ele>378.9</ele><time>2011-10-10T10:16:57.0000000+00:00</time></trkpt><trkpt lat="44.624626" lon="33.828392"><ele>379.0</ele><time>2011-10-10T10:17:02.0000000+00:00</time></trkpt><trkpt lat="44.62466" lon="33.828495"><ele>381.0</ele><time>2011-10-10T10:17:07.0000000+00:00</time></trkpt><trkpt lat="44.624699" lon="33.828598"><ele>382.6</ele><time>2011-10-10T10:17:12.0000000+00:00</time></trkpt><trkpt lat="44.624741" lon="33.828701"><ele>382.4</ele><time>2011-10-10T10:17:17.0000000+00:00</time></trkpt><trkpt lat="44.624783" lon="33.8288"><ele>382.3</ele><time>2011-10-10T10:17:22.0000000+00:00</time></trkpt><trkpt lat="44.624832" lon="33.828896"><ele>382.5</ele><time>2011-10-10T10:17:27.0000000+00:00</time></trkpt><trkpt lat="44.624878" lon="33.829018"><ele>382.1</ele><time>2011-10-10T10:17:32.0000000+00:00</time></trkpt><trkpt lat="44.62492" lon="33.829121"><ele>381.3</ele><time>2011-10-10T10:17:37.0000000+00:00</time></trkpt><trkpt lat="44.624973" lon="33.829212"><ele>381.1</ele><time>2011-10-10T10:17:42.0000000+00:00</time></trkpt><trkpt lat="44.625031" lon="33.829315"><ele>381.3</ele><time>2011-10-10T10:17:47.0000000+00:00</time></trkpt><trkpt lat="44.625084" lon="33.829418"><ele>381.7</ele><time>2011-10-10T10:17:52.0000000+00:00</time></trkpt><trkpt lat="44.625164" lon="33.829567"><ele>382.2</ele><time>2011-10-10T10:17:57.0000000+00:00</time></trkpt><trkpt lat="44.625202" lon="33.829685"><ele>382.6</ele><time>2011-10-10T10:18:02.0000000+00:00</time></trkpt><trkpt lat="44.625233" lon="33.829815"><ele>380.3</ele><time>2011-10-10T10:18:07.0000000+00:00</time></trkpt><trkpt lat="44.625271" lon="33.829964"><ele>378.1</ele><time>2011-10-10T10:18:12.0000000+00:00</time></trkpt><trkpt lat="44.625282" lon="33.830074"><ele>377.3</ele><time>2011-10-10T10:18:17.0000000+00:00</time></trkpt><trkpt lat="44.625282" lon="33.830185"><ele>377.6</ele><time>2011-10-10T10:18:22.0000000+00:00</time></trkpt><trkpt lat="44.625282" lon="33.830284"><ele>379.0</ele><time>2011-10-10T10:18:27.0000000+00:00</time></trkpt><trkpt lat="44.62529" lon="33.830376"><ele>381.1</ele><time>2011-10-10T10:18:32.0000000+00:00</time></trkpt><trkpt lat="44.62529" lon="33.83046"><ele>381.1</ele><time>2011-10-10T10:18:37.0000000+00:00</time></trkpt><trkpt lat="44.625263" lon="33.830528"><ele>382.3</ele><time>2011-10-10T10:18:42.0000000+00:00</time></trkpt><trkpt lat="44.625233" lon="33.830658"><ele>383.0</ele><time>2011-10-10T10:18:47.0000000+00:00</time></trkpt><trkpt lat="44.62521" lon="33.830757"><ele>384.8</ele><time>2011-10-10T10:18:52.0000000+00:00</time></trkpt><trkpt lat="44.625214" lon="33.830833"><ele>386.6</ele><time>2011-10-10T10:18:57.0000000+00:00</time></trkpt><trkpt lat="44.625214" lon="33.830929"><ele>387.4</ele><time>2011-10-10T10:19:02.0000000+00:00</time></trkpt><trkpt lat="44.625217" lon="33.83102"><ele>388.8</ele><time>2011-10-10T10:19:07.0000000+00:00</time></trkpt><trkpt lat="44.625221" lon="33.831131"><ele>390.7</ele><time>2011-10-10T10:19:12.0000000+00:00</time></trkpt><trkpt lat="44.625248" lon="33.831234"><ele>393.2</ele><time>2011-10-10T10:19:17.0000000+00:00</time></trkpt><trkpt lat="44.62524" lon="33.831337"><ele>394.1</ele><time>2011-10-10T10:19:22.0000000+00:00</time></trkpt><trkpt lat="44.625259" lon="33.831444"><ele>395.5</ele><time>2011-10-10T10:19:27.0000000+00:00</time></trkpt><trkpt lat="44.625259" lon="33.831562"><ele>396.8</ele><time>2011-10-10T10:19:32.0000000+00:00</time></trkpt><trkpt lat="44.625259" lon="33.831635"><ele>396.3</ele><time>2011-10-10T10:19:37.0000000+00:00</time></trkpt><trkpt lat="44.62524" lon="33.831646"><ele>396.4</ele><time>2011-10-10T10:19:42.0000000+00:00</time></trkpt><trkpt lat="44.625244" lon="33.831707"><ele>394.0</ele><time>2011-10-10T10:19:47.0000000+00:00</time></trkpt><trkpt lat="44.625237" lon="33.831814"><ele>393.6</ele><time>2011-10-10T10:19:52.0000000+00:00</time></trkpt><trkpt lat="44.625248" lon="33.831932"><ele>394.9</ele><time>2011-10-10T10:19:57.0000000+00:00</time></trkpt><trkpt lat="44.625252" lon="33.832054"><ele>395.9</ele><time>2011-10-10T10:20:02.0000000+00:00</time></trkpt><trkpt lat="44.625267" lon="33.832172"><ele>395.7</ele><time>2011-10-10T10:20:07.0000000+00:00</time></trkpt><trkpt lat="44.625286" lon="33.832291"><ele>396.3</ele><time>2011-10-10T10:20:12.0000000+00:00</time></trkpt><trkpt lat="44.625294" lon="33.832401"><ele>397.6</ele><time>2011-10-10T10:20:17.0000000+00:00</time></trkpt><trkpt lat="44.625317" lon="33.832535"><ele>399.5</ele><time>2011-10-10T10:20:22.0000000+00:00</time></trkpt><trkpt lat="44.625332" lon="33.832668"><ele>400.6</ele><time>2011-10-10T10:20:27.0000000+00:00</time></trkpt><trkpt lat="44.625328" lon="33.832809"><ele>401.5</ele><time>2011-10-10T10:20:32.0000000+00:00</time></trkpt><trkpt lat="44.625343" lon="33.832943"><ele>401.5</ele><time>2011-10-10T10:20:37.0000000+00:00</time></trkpt><trkpt lat="44.625359" lon="33.833065"><ele>401.5</ele><time>2011-10-10T10:20:42.0000000+00:00</time></trkpt><trkpt lat="44.625359" lon="33.833172"><ele>401.7</ele><time>2011-10-10T10:20:47.0000000+00:00</time></trkpt><trkpt lat="44.62532" lon="33.833263"><ele>402.4</ele><time>2011-10-10T10:20:52.0000000+00:00</time></trkpt><trkpt lat="44.625294" lon="33.833363"><ele>404.8</ele><time>2011-10-10T10:20:57.0000000+00:00</time></trkpt><trkpt lat="44.625244" lon="33.833447"><ele>407.1</ele><time>2011-10-10T10:21:02.0000000+00:00</time></trkpt><trkpt lat="44.625198" lon="33.833496"><ele>409.0</ele><time>2011-10-10T10:21:07.0000000+00:00</time></trkpt><trkpt lat="44.625149" lon="33.833572"><ele>410.8</ele><time>2011-10-10T10:21:12.0000000+00:00</time></trkpt><trkpt lat="44.625099" lon="33.833626"><ele>412.3</ele><time>2011-10-10T10:21:17.0000000+00:00</time></trkpt><trkpt lat="44.625076" lon="33.83371"><ele>412.9</ele><time>2011-10-10T10:21:22.0000000+00:00</time></trkpt><trkpt lat="44.625061" lon="33.833778"><ele>411.1</ele><time>2011-10-10T10:21:27.0000000+00:00</time></trkpt><trkpt lat="44.625069" lon="33.83382"><ele>411.1</ele><time>2011-10-10T10:21:32.0000000+00:00</time></trkpt><trkpt lat="44.625084" lon="33.83387"><ele>410.8</ele><time>2011-10-10T10:21:37.0000000+00:00</time></trkpt><trkpt lat="44.625095" lon="33.833855"><ele>410.7</ele><time>2011-10-10T10:21:42.0000000+00:00</time></trkpt><trkpt lat="44.625095" lon="33.833858"><ele>410.6</ele><time>2011-10-10T10:21:47.0000000+00:00</time></trkpt><trkpt lat="44.625088" lon="33.833862"><ele>410.6</ele><time>2011-10-10T10:21:52.0000000+00:00</time></trkpt><trkpt lat="44.625088" lon="33.833866"><ele>410.8</ele><time>2011-10-10T10:21:57.0000000+00:00</time></trkpt><trkpt lat="44.625088" lon="33.83387"><ele>410.9</ele><time>2011-10-10T10:22:02.0000000+00:00</time></trkpt><trkpt lat="44.625092" lon="33.83387"><ele>410.8</ele><time>2011-10-10T10:22:07.0000000+00:00</time></trkpt><trkpt lat="44.625092" lon="33.83387"><ele>410.8</ele><time>2011-10-10T10:22:12.0000000+00:00</time></trkpt><trkpt lat="44.625092" lon="33.83387"><ele>410.7</ele><time>2011-10-10T10:22:17.0000000+00:00</time></trkpt><trkpt lat="44.625088" lon="33.833866"><ele>410.7</ele><time>2011-10-10T10:22:22.0000000+00:00</time></trkpt><trkpt lat="44.625088" lon="33.833866"><ele>410.6</ele><time>2011-10-10T10:22:27.0000000+00:00</time></trkpt><trkpt lat="44.625088" lon="33.833866"><ele>410.6</ele><time>2011-10-10T10:22:32.0000000+00:00</time></trkpt><trkpt lat="44.625088" lon="33.833866"><ele>410.5</ele><time>2011-10-10T10:22:37.0000000+00:00</time></trkpt><trkpt lat="44.625088" lon="33.833866"><ele>410.5</ele><time>2011-10-10T10:22:42.0000000+00:00</time></trkpt><trkpt lat="44.625088" lon="33.833866"><ele>410.5</ele><time>2011-10-10T10:22:47.0000000+00:00</time></trkpt><trkpt lat="44.625088" lon="33.833866"><ele>410.4</ele><time>2011-10-10T10:22:52.0000000+00:00</time></trkpt><trkpt lat="44.625088" lon="33.833866"><ele>410.4</ele><time>2011-10-10T10:22:57.0000000+00:00</time></trkpt><trkpt lat="44.625088" lon="33.833866"><ele>410.4</ele><time>2011-10-10T10:23:02.0000000+00:00</time></trkpt><trkpt lat="44.625088" lon="33.833866"><ele>410.4</ele><time>2011-10-10T10:23:07.0000000+00:00</time></trkpt><trkpt lat="44.625088" lon="33.833866"><ele>410.4</ele><time>2011-10-10T10:23:12.0000000+00:00</time></trkpt><trkpt lat="44.625088" lon="33.833866"><ele>410.4</ele><time>2011-10-10T10:23:17.0000000+00:00</time></trkpt><trkpt lat="44.625088" lon="33.833866"><ele>410.3</ele><time>2011-10-10T10:23:22.0000000+00:00</time></trkpt><trkpt lat="44.625088" lon="33.833866"><ele>410.3</ele><time>2011-10-10T10:23:27.0000000+00:00</time></trkpt><trkpt lat="44.625088" lon="33.833866"><ele>410.3</ele><time>2011-10-10T10:23:32.0000000+00:00</time></trkpt><trkpt lat="44.625088" lon="33.833862"><ele>410.0</ele><time>2011-10-10T10:23:37.0000000+00:00</time></trkpt><trkpt lat="44.625088" lon="33.833862"><ele>409.5</ele><time>2011-10-10T10:23:42.0000000+00:00</time></trkpt><trkpt lat="44.625088" lon="33.83387"><ele>408.9</ele><time>2011-10-10T10:23:47.0000000+00:00</time></trkpt><trkpt lat="44.625088" lon="33.83387"><ele>408.3</ele><time>2011-10-10T10:23:52.0000000+00:00</time></trkpt><trkpt lat="44.625092" lon="33.833874"><ele>407.6</ele><time>2011-10-10T10:23:57.0000000+00:00</time></trkpt><trkpt lat="44.625103" lon="33.833931"><ele>407.2</ele><time>2011-10-10T10:24:02.0000000+00:00</time></trkpt><trkpt lat="44.625095" lon="33.83408"><ele>407.4</ele><time>2011-10-10T10:24:07.0000000+00:00</time></trkpt><trkpt lat="44.625111" lon="33.834225"><ele>408.0</ele><time>2011-10-10T10:24:12.0000000+00:00</time></trkpt><trkpt lat="44.625164" lon="33.83432"><ele>409.4</ele><time>2011-10-10T10:24:17.0000000+00:00</time></trkpt><trkpt lat="44.625256" lon="33.834415"><ele>409.1</ele><time>2011-10-10T10:24:22.0000000+00:00</time></trkpt><trkpt lat="44.625355" lon="33.834507"><ele>407.8</ele><time>2011-10-10T10:24:27.0000000+00:00</time></trkpt><trkpt lat="44.62542" lon="33.834599"><ele>407.2</ele><time>2011-10-10T10:24:32.0000000+00:00</time></trkpt><trkpt lat="44.62553" lon="33.834709"><ele>407.4</ele><time>2011-10-10T10:24:37.0000000+00:00</time></trkpt><trkpt lat="44.625645" lon="33.834827"><ele>406.0</ele><time>2011-10-10T10:24:42.0000000+00:00</time></trkpt><trkpt lat="44.62571" lon="33.834904"><ele>404.9</ele><time>2011-10-10T10:24:47.0000000+00:00</time></trkpt><trkpt lat="44.62579" lon="33.834946"><ele>403.9</ele><time>2011-10-10T10:24:52.0000000+00:00</time></trkpt><trkpt lat="44.625885" lon="33.835007"><ele>402.7</ele><time>2011-10-10T10:24:57.0000000+00:00</time></trkpt><trkpt lat="44.626049" lon="33.835083"><ele>400.6</ele><time>2011-10-10T10:25:02.0000000+00:00</time></trkpt><trkpt lat="44.626175" lon="33.835114"><ele>399.1</ele><time>2011-10-10T10:25:07.0000000+00:00</time></trkpt><trkpt lat="44.626324" lon="33.835186"><ele>397.8</ele><time>2011-10-10T10:25:12.0000000+00:00</time></trkpt><trkpt lat="44.626453" lon="33.835281"><ele>395.4</ele><time>2011-10-10T10:25:17.0000000+00:00</time></trkpt><trkpt lat="44.626545" lon="33.835373"><ele>396.3</ele><time>2011-10-10T10:25:22.0000000+00:00</time></trkpt><trkpt lat="44.626686" lon="33.835407"><ele>396.2</ele><time>2011-10-10T10:25:27.0000000+00:00</time></trkpt><trkpt lat="44.626812" lon="33.83548"><ele>397.4</ele><time>2011-10-10T10:25:32.0000000+00:00</time></trkpt><trkpt lat="44.626915" lon="33.835537"><ele>399.9</ele><time>2011-10-10T10:25:37.0000000+00:00</time></trkpt><trkpt lat="44.627026" lon="33.835606"><ele>402.7</ele><time>2011-10-10T10:25:42.0000000+00:00</time></trkpt><trkpt lat="44.627167" lon="33.835667"><ele>402.4</ele><time>2011-10-10T10:25:47.0000000+00:00</time></trkpt><trkpt lat="44.627239" lon="33.835793"><ele>404.3</ele><time>2011-10-10T10:25:52.0000000+00:00</time></trkpt><trkpt lat="44.627365" lon="33.835995"><ele>406.5</ele><time>2011-10-10T10:25:57.0000000+00:00</time></trkpt><trkpt lat="44.627457" lon="33.836143"><ele>407.8</ele><time>2011-10-10T10:26:02.0000000+00:00</time></trkpt><trkpt lat="44.627579" lon="33.836277"><ele>408.2</ele><time>2011-10-10T10:26:07.0000000+00:00</time></trkpt><trkpt lat="44.627693" lon="33.836411"><ele>406.7</ele><time>2011-10-10T10:26:12.0000000+00:00</time></trkpt><trkpt lat="44.627838" lon="33.836536"><ele>406.9</ele><time>2011-10-10T10:26:17.0000000+00:00</time></trkpt><trkpt lat="44.627945" lon="33.836651"><ele>405.7</ele><time>2011-10-10T10:26:22.0000000+00:00</time></trkpt><trkpt lat="44.627987" lon="33.836784"><ele>406.3</ele><time>2011-10-10T10:26:27.0000000+00:00</time></trkpt><trkpt lat="44.627991" lon="33.836933"><ele>408.6</ele><time>2011-10-10T10:26:32.0000000+00:00</time></trkpt><trkpt lat="44.627998" lon="33.837086"><ele>407.4</ele><time>2011-10-10T10:26:37.0000000+00:00</time></trkpt><trkpt lat="44.627979" lon="33.837219"><ele>408.6</ele><time>2011-10-10T10:26:42.0000000+00:00</time></trkpt><trkpt lat="44.627934" lon="33.837315"><ele>410.2</ele><time>2011-10-10T10:26:47.0000000+00:00</time></trkpt><trkpt lat="44.627895" lon="33.837421"><ele>411.3</ele><time>2011-10-10T10:26:52.0000000+00:00</time></trkpt><trkpt lat="44.627865" lon="33.837521"><ele>412.4</ele><time>2011-10-10T10:26:57.0000000+00:00</time></trkpt><trkpt lat="44.627869" lon="33.837643"><ele>414.3</ele><time>2011-10-10T10:27:02.0000000+00:00</time></trkpt><trkpt lat="44.62785" lon="33.837788"><ele>415.1</ele><time>2011-10-10T10:27:07.0000000+00:00</time></trkpt><trkpt lat="44.627815" lon="33.837952"><ele>414.9</ele><time>2011-10-10T10:27:12.0000000+00:00</time></trkpt><trkpt lat="44.627758" lon="33.838039"><ele>414.3</ele><time>2011-10-10T10:27:17.0000000+00:00</time></trkpt><trkpt lat="44.627697" lon="33.838093"><ele>415.9</ele><time>2011-10-10T10:27:22.0000000+00:00</time></trkpt><trkpt lat="44.627644" lon="33.838154"><ele>417.2</ele><time>2011-10-10T10:27:27.0000000+00:00</time></trkpt><trkpt lat="44.62759" lon="33.838238"><ele>418.0</ele><time>2011-10-10T10:27:32.0000000+00:00</time></trkpt><trkpt lat="44.627537" lon="33.838264"><ele>417.6</ele><time>2011-10-10T10:27:37.0000000+00:00</time></trkpt><trkpt lat="44.627472" lon="33.83831"><ele>418.1</ele><time>2011-10-10T10:27:42.0000000+00:00</time></trkpt><trkpt lat="44.627399" lon="33.838356"><ele>418.1</ele><time>2011-10-10T10:27:47.0000000+00:00</time></trkpt><trkpt lat="44.627373" lon="33.838387"><ele>417.1</ele><time>2011-10-10T10:27:52.0000000+00:00</time></trkpt><trkpt lat="44.627354" lon="33.838402"><ele>416.9</ele><time>2011-10-10T10:27:57.0000000+00:00</time></trkpt><trkpt lat="44.627312" lon="33.838428"><ele>417.7</ele><time>2011-10-10T10:28:02.0000000+00:00</time></trkpt><trkpt lat="44.627296" lon="33.83844"><ele>417.0</ele><time>2011-10-10T10:28:07.0000000+00:00</time></trkpt><trkpt lat="44.627251" lon="33.838474"><ele>416.7</ele><time>2011-10-10T10:28:12.0000000+00:00</time></trkpt><trkpt lat="44.627239" lon="33.838482"><ele>416.0</ele><time>2011-10-10T10:28:17.0000000+00:00</time></trkpt><trkpt lat="44.62722" lon="33.838501"><ele>416.2</ele><time>2011-10-10T10:28:22.0000000+00:00</time></trkpt><trkpt lat="44.627174" lon="33.838535"><ele>416.6</ele><time>2011-10-10T10:28:27.0000000+00:00</time></trkpt><trkpt lat="44.627132" lon="33.838593"><ele>417.0</ele><time>2011-10-10T10:28:32.0000000+00:00</time></trkpt><trkpt lat="44.627083" lon="33.838646"><ele>417.8</ele><time>2011-10-10T10:28:37.0000000+00:00</time></trkpt><trkpt lat="44.627026" lon="33.838688"><ele>417.1</ele><time>2011-10-10T10:28:42.0000000+00:00</time></trkpt><trkpt lat="44.626984" lon="33.838734"><ele>417.4</ele><time>2011-10-10T10:28:47.0000000+00:00</time></trkpt><trkpt lat="44.626953" lon="33.838795"><ele>417.7</ele><time>2011-10-10T10:28:52.0000000+00:00</time></trkpt><trkpt lat="44.626915" lon="33.838848"><ele>417.8</ele><time>2011-10-10T10:28:57.0000000+00:00</time></trkpt><trkpt lat="44.626881" lon="33.838928"><ele>418.6</ele><time>2011-10-10T10:29:02.0000000+00:00</time></trkpt><trkpt lat="44.626858" lon="33.839001"><ele>419.5</ele><time>2011-10-10T10:29:07.0000000+00:00</time></trkpt><trkpt lat="44.626835" lon="33.839062"><ele>420.3</ele><time>2011-10-10T10:29:12.0000000+00:00</time></trkpt><trkpt lat="44.626816" lon="33.839127"><ele>420.6</ele><time>2011-10-10T10:29:17.0000000+00:00</time></trkpt><trkpt lat="44.626778" lon="33.839172"><ele>421.1</ele><time>2011-10-10T10:29:22.0000000+00:00</time></trkpt><trkpt lat="44.626743" lon="33.839233"><ele>421.9</ele><time>2011-10-10T10:29:27.0000000+00:00</time></trkpt><trkpt lat="44.626717" lon="33.839272"><ele>423.4</ele><time>2011-10-10T10:29:32.0000000+00:00</time></trkpt><trkpt lat="44.626694" lon="33.839348"><ele>425.1</ele><time>2011-10-10T10:29:37.0000000+00:00</time></trkpt><trkpt lat="44.62669" lon="33.839413"><ele>426.2</ele><time>2011-10-10T10:29:42.0000000+00:00</time></trkpt><trkpt lat="44.626678" lon="33.839481"><ele>426.0</ele><time>2011-10-10T10:29:47.0000000+00:00</time></trkpt><trkpt lat="44.626656" lon="33.839554"><ele>425.7</ele><time>2011-10-10T10:29:52.0000000+00:00</time></trkpt><trkpt lat="44.626678" lon="33.839619"><ele>426.8</ele><time>2011-10-10T10:29:57.0000000+00:00</time></trkpt><trkpt lat="44.626713" lon="33.83968"><ele>427.0</ele><time>2011-10-10T10:30:02.0000000+00:00</time></trkpt><trkpt lat="44.626736" lon="33.83976"><ele>426.9</ele><time>2011-10-10T10:30:07.0000000+00:00</time></trkpt><trkpt lat="44.62677" lon="33.839832"><ele>427.0</ele><time>2011-10-10T10:30:12.0000000+00:00</time></trkpt><trkpt lat="44.626801" lon="33.839893"><ele>427.8</ele><time>2011-10-10T10:30:17.0000000+00:00</time></trkpt><trkpt lat="44.626827" lon="33.839958"><ele>428.5</ele><time>2011-10-10T10:30:22.0000000+00:00</time></trkpt><trkpt lat="44.626884" lon="33.840038"><ele>425.8</ele><time>2011-10-10T10:30:27.0000000+00:00</time></trkpt><trkpt lat="44.626911" lon="33.840092"><ele>423.9</ele><time>2011-10-10T10:30:32.0000000+00:00</time></trkpt><trkpt lat="44.626961" lon="33.840137"><ele>423.0</ele><time>2011-10-10T10:30:37.0000000+00:00</time></trkpt><trkpt lat="44.627037" lon="33.840248"><ele>422.3</ele><time>2011-10-10T10:30:42.0000000+00:00</time></trkpt><trkpt lat="44.627098" lon="33.840328"><ele>422.4</ele><time>2011-10-10T10:30:47.0000000+00:00</time></trkpt><trkpt lat="44.627258" lon="33.840481"><ele>423.4</ele><time>2011-10-10T10:30:52.0000000+00:00</time></trkpt><trkpt lat="44.627392" lon="33.840649"><ele>425.4</ele><time>2011-10-10T10:30:57.0000000+00:00</time></trkpt><trkpt lat="44.627502" lon="33.840805"><ele>430.1</ele><time>2011-10-10T10:31:02.0000000+00:00</time></trkpt><trkpt lat="44.627625" lon="33.840977"><ele>433.8</ele><time>2011-10-10T10:31:07.0000000+00:00</time></trkpt><trkpt lat="44.627735" lon="33.841133"><ele>436.2</ele><time>2011-10-10T10:31:12.0000000+00:00</time></trkpt><trkpt lat="44.627796" lon="33.841255"><ele>434.1</ele><time>2011-10-10T10:31:17.0000000+00:00</time></trkpt><trkpt lat="44.627838" lon="33.841389"><ele>434.7</ele><time>2011-10-10T10:31:22.0000000+00:00</time></trkpt><trkpt lat="44.627884" lon="33.84153"><ele>436.4</ele><time>2011-10-10T10:31:27.0000000+00:00</time></trkpt><trkpt lat="44.627956" lon="33.841713"><ele>433.5</ele><time>2011-10-10T10:31:32.0000000+00:00</time></trkpt><trkpt lat="44.628006" lon="33.841801"><ele>430.0</ele><time>2011-10-10T10:31:37.0000000+00:00</time></trkpt><trkpt lat="44.62801" lon="33.841824"><ele>428.5</ele><time>2011-10-10T10:31:42.0000000+00:00</time></trkpt><trkpt lat="44.628017" lon="33.841835"><ele>427.3</ele><time>2011-10-10T10:31:47.0000000+00:00</time></trkpt><trkpt lat="44.628021" lon="33.841843"><ele>425.4</ele><time>2011-10-10T10:31:52.0000000+00:00</time></trkpt><trkpt lat="44.628021" lon="33.84185"><ele>424.0</ele><time>2011-10-10T10:31:57.0000000+00:00</time></trkpt><trkpt lat="44.628017" lon="33.841854"><ele>423.4</ele><time>2011-10-10T10:32:02.0000000+00:00</time></trkpt><trkpt lat="44.628006" lon="33.841846"><ele>421.4</ele><time>2011-10-10T10:32:07.0000000+00:00</time></trkpt><trkpt lat="44.628002" lon="33.841846"><ele>421.0</ele><time>2011-10-10T10:32:12.0000000+00:00</time></trkpt><trkpt lat="44.627998" lon="33.84185"><ele>420.8</ele><time>2011-10-10T10:32:17.0000000+00:00</time></trkpt><trkpt lat="44.627995" lon="33.84185"><ele>420.1</ele><time>2011-10-10T10:32:22.0000000+00:00</time></trkpt><trkpt lat="44.627995" lon="33.841854"><ele>419.9</ele><time>2011-10-10T10:32:27.0000000+00:00</time></trkpt><trkpt lat="44.628002" lon="33.841858"><ele>419.4</ele><time>2011-10-10T10:32:32.0000000+00:00</time></trkpt><trkpt lat="44.628063" lon="33.841915"><ele>420.3</ele><time>2011-10-10T10:32:37.0000000+00:00</time></trkpt><trkpt lat="44.628174" lon="33.842041"><ele>422.5</ele><time>2011-10-10T10:32:42.0000000+00:00</time></trkpt><trkpt lat="44.628197" lon="33.842068"><ele>422.8</ele><time>2011-10-10T10:32:47.0000000+00:00</time></trkpt><trkpt lat="44.628201" lon="33.842079"><ele>422.5</ele><time>2011-10-10T10:32:52.0000000+00:00</time></trkpt><trkpt lat="44.628212" lon="33.842091"><ele>422.5</ele><time>2011-10-10T10:32:57.0000000+00:00</time></trkpt><trkpt lat="44.628231" lon="33.842102"><ele>422.4</ele><time>2011-10-10T10:33:02.0000000+00:00</time></trkpt><trkpt lat="44.628246" lon="33.842113"><ele>422.4</ele><time>2011-10-10T10:33:07.0000000+00:00</time></trkpt><trkpt lat="44.62825" lon="33.842129"><ele>422.5</ele><time>2011-10-10T10:33:12.0000000+00:00</time></trkpt><trkpt lat="44.628246" lon="33.842136"><ele>422.5</ele><time>2011-10-10T10:33:17.0000000+00:00</time></trkpt><trkpt lat="44.628246" lon="33.842144"><ele>422.5</ele><time>2011-10-10T10:33:22.0000000+00:00</time></trkpt><trkpt lat="44.628246" lon="33.842155"><ele>422.6</ele><time>2011-10-10T10:33:27.0000000+00:00</time></trkpt><trkpt lat="44.628242" lon="33.842175"><ele>422.6</ele><time>2011-10-10T10:33:32.0000000+00:00</time></trkpt><trkpt lat="44.628242" lon="33.842171"><ele>422.6</ele><time>2011-10-10T10:33:37.0000000+00:00</time></trkpt><trkpt lat="44.628239" lon="33.842167"><ele>422.6</ele><time>2011-10-10T10:33:42.0000000+00:00</time></trkpt><trkpt lat="44.628254" lon="33.842171"><ele>422.7</ele><time>2011-10-10T10:33:47.0000000+00:00</time></trkpt><trkpt lat="44.628368" lon="33.842175"><ele>423.4</ele><time>2011-10-10T10:33:52.0000000+00:00</time></trkpt><trkpt lat="44.628521" lon="33.842209"><ele>422.7</ele><time>2011-10-10T10:33:57.0000000+00:00</time></trkpt><trkpt lat="44.628651" lon="33.842255"><ele>422.4</ele><time>2011-10-10T10:34:02.0000000+00:00</time></trkpt><trkpt lat="44.628716" lon="33.842323"><ele>422.5</ele><time>2011-10-10T10:34:07.0000000+00:00</time></trkpt><trkpt lat="44.628807" lon="33.842422"><ele>422.7</ele><time>2011-10-10T10:34:12.0000000+00:00</time></trkpt><trkpt lat="44.628933" lon="33.842525"><ele>422.7</ele><time>2011-10-10T10:34:17.0000000+00:00</time></trkpt><trkpt lat="44.629055" lon="33.842579"><ele>422.9</ele><time>2011-10-10T10:34:22.0000000+00:00</time></trkpt><trkpt lat="44.629185" lon="33.84264"><ele>423.1</ele><time>2011-10-10T10:34:27.0000000+00:00</time></trkpt><trkpt lat="44.629284" lon="33.84267"><ele>424.0</ele><time>2011-10-10T10:34:32.0000000+00:00</time></trkpt><trkpt lat="44.629402" lon="33.84267"><ele>424.8</ele><time>2011-10-10T10:34:37.0000000+00:00</time></trkpt><trkpt lat="44.629517" lon="33.842606"><ele>424.1</ele><time>2011-10-10T10:34:42.0000000+00:00</time></trkpt><trkpt lat="44.629662" lon="33.84251"><ele>423.3</ele><time>2011-10-10T10:34:47.0000000+00:00</time></trkpt><trkpt lat="44.629791" lon="33.842384"><ele>421.3</ele><time>2011-10-10T10:34:52.0000000+00:00</time></trkpt><trkpt lat="44.62991" lon="33.842239"><ele>419.4</ele><time>2011-10-10T10:34:57.0000000+00:00</time></trkpt><trkpt lat="44.630054" lon="33.842098"><ele>416.5</ele><time>2011-10-10T10:35:02.0000000+00:00</time></trkpt><trkpt lat="44.630146" lon="33.841984"><ele>415.1</ele><time>2011-10-10T10:35:07.0000000+00:00</time></trkpt><trkpt lat="44.630241" lon="33.84177"><ele>412.8</ele><time>2011-10-10T10:35:12.0000000+00:00</time></trkpt><trkpt lat="44.630306" lon="33.841518"><ele>409.4</ele><time>2011-10-10T10:35:17.0000000+00:00</time></trkpt><trkpt lat="44.630348" lon="33.841244"><ele>411.2</ele><time>2011-10-10T10:35:22.0000000+00:00</time></trkpt><trkpt lat="44.63039" lon="33.840916"><ele>408.2</ele><time>2011-10-10T10:35:27.0000000+00:00</time></trkpt><trkpt lat="44.630451" lon="33.840656"><ele>405.3</ele><time>2011-10-10T10:35:32.0000000+00:00</time></trkpt><trkpt lat="44.630493" lon="33.840401"><ele>402.2</ele><time>2011-10-10T10:35:37.0000000+00:00</time></trkpt><trkpt lat="44.630554" lon="33.840179"><ele>399.4</ele><time>2011-10-10T10:35:42.0000000+00:00</time></trkpt><trkpt lat="44.6306" lon="33.839977"><ele>397.7</ele><time>2011-10-10T10:35:47.0000000+00:00</time></trkpt><trkpt lat="44.630592" lon="33.839859"><ele>396.6</ele><time>2011-10-10T10:35:52.0000000+00:00</time></trkpt><trkpt lat="44.630589" lon="33.839855"><ele>396.4</ele><time>2011-10-10T10:35:57.0000000+00:00</time></trkpt><trkpt lat="44.630585" lon="33.839855"><ele>396.5</ele><time>2011-10-10T10:36:02.0000000+00:00</time></trkpt><trkpt lat="44.630592" lon="33.83979"><ele>395.7</ele><time>2011-10-10T10:36:07.0000000+00:00</time></trkpt><trkpt lat="44.630615" lon="33.839607"><ele>393.5</ele><time>2011-10-10T10:36:12.0000000+00:00</time></trkpt><trkpt lat="44.630657" lon="33.839451"><ele>392.1</ele><time>2011-10-10T10:36:17.0000000+00:00</time></trkpt><trkpt lat="44.63068" lon="33.83942"><ele>392.0</ele><time>2011-10-10T10:36:22.0000000+00:00</time></trkpt><trkpt lat="44.630684" lon="33.839413"><ele>391.8</ele><time>2011-10-10T10:36:27.0000000+00:00</time></trkpt><trkpt lat="44.630688" lon="33.839405"><ele>391.3</ele><time>2011-10-10T10:36:32.0000000+00:00</time></trkpt><trkpt lat="44.630688" lon="33.839405"><ele>391.3</ele><time>2011-10-10T10:36:37.0000000+00:00</time></trkpt><trkpt lat="44.63068" lon="33.839413"><ele>391.2</ele><time>2011-10-10T10:36:42.0000000+00:00</time></trkpt><trkpt lat="44.630672" lon="33.839397"><ele>391.2</ele><time>2011-10-10T10:36:47.0000000+00:00</time></trkpt><trkpt lat="44.630733" lon="33.839348"><ele>392.0</ele><time>2011-10-10T10:36:52.0000000+00:00</time></trkpt><trkpt lat="44.63081" lon="33.83926"><ele>392.1</ele><time>2011-10-10T10:36:57.0000000+00:00</time></trkpt><trkpt lat="44.630898" lon="33.839165"><ele>391.8</ele><time>2011-10-10T10:37:02.0000000+00:00</time></trkpt><trkpt lat="44.630981" lon="33.839054"><ele>393.3</ele><time>2011-10-10T10:37:07.0000000+00:00</time></trkpt><trkpt lat="44.631069" lon="33.838943"><ele>395.9</ele><time>2011-10-10T10:37:12.0000000+00:00</time></trkpt><trkpt lat="44.631153" lon="33.838806"><ele>397.4</ele><time>2011-10-10T10:37:17.0000000+00:00</time></trkpt><trkpt lat="44.631172" lon="33.838676"><ele>398.7</ele><time>2011-10-10T10:37:22.0000000+00:00</time></trkpt><trkpt lat="44.631157" lon="33.838547"><ele>398.8</ele><time>2011-10-10T10:37:27.0000000+00:00</time></trkpt><trkpt lat="44.631126" lon="33.838356"><ele>395.4</ele><time>2011-10-10T10:37:32.0000000+00:00</time></trkpt><trkpt lat="44.631153" lon="33.838123"><ele>390.8</ele><time>2011-10-10T10:37:37.0000000+00:00</time></trkpt><trkpt lat="44.631248" lon="33.83794"><ele>388.1</ele><time>2011-10-10T10:37:42.0000000+00:00</time></trkpt><trkpt lat="44.631294" lon="33.83778"><ele>384.4</ele><time>2011-10-10T10:37:47.0000000+00:00</time></trkpt><trkpt lat="44.631287" lon="33.837624"><ele>381.1</ele><time>2011-10-10T10:37:52.0000000+00:00</time></trkpt><trkpt lat="44.631268" lon="33.837509"><ele>378.5</ele><time>2011-10-10T10:37:57.0000000+00:00</time></trkpt><trkpt lat="44.631248" lon="33.83741"><ele>377.8</ele><time>2011-10-10T10:38:02.0000000+00:00</time></trkpt><trkpt lat="44.631248" lon="33.837402"><ele>377.6</ele><time>2011-10-10T10:38:07.0000000+00:00</time></trkpt><trkpt lat="44.631245" lon="33.837402"><ele>377.6</ele><time>2011-10-10T10:38:12.0000000+00:00</time></trkpt><trkpt lat="44.631245" lon="33.837402"><ele>377.6</ele><time>2011-10-10T10:38:17.0000000+00:00</time></trkpt><trkpt lat="44.631248" lon="33.837399"><ele>377.7</ele><time>2011-10-10T10:38:22.0000000+00:00</time></trkpt><trkpt lat="44.631241" lon="33.837395"><ele>377.8</ele><time>2011-10-10T10:38:27.0000000+00:00</time></trkpt><trkpt lat="44.631241" lon="33.837402"><ele>378.2</ele><time>2011-10-10T10:38:32.0000000+00:00</time></trkpt><trkpt lat="44.631241" lon="33.837402"><ele>378.7</ele><time>2011-10-10T10:38:37.0000000+00:00</time></trkpt><trkpt lat="44.631241" lon="33.837406"><ele>378.8</ele><time>2011-10-10T10:38:42.0000000+00:00</time></trkpt><trkpt lat="44.631241" lon="33.837406"><ele>378.9</ele><time>2011-10-10T10:38:47.0000000+00:00</time></trkpt><trkpt lat="44.631241" lon="33.837421"><ele>379.2</ele><time>2011-10-10T10:38:52.0000000+00:00</time></trkpt><trkpt lat="44.631218" lon="33.837444"><ele>379.1</ele><time>2011-10-10T10:38:57.0000000+00:00</time></trkpt><trkpt lat="44.631195" lon="33.837456"><ele>380.7</ele><time>2011-10-10T10:39:02.0000000+00:00</time></trkpt><trkpt lat="44.631153" lon="33.837486"><ele>381.5</ele><time>2011-10-10T10:39:07.0000000+00:00</time></trkpt><trkpt lat="44.631115" lon="33.837543"><ele>380.1</ele><time>2011-10-10T10:39:12.0000000+00:00</time></trkpt><trkpt lat="44.631069" lon="33.837612"><ele>380.2</ele><time>2011-10-10T10:39:17.0000000+00:00</time></trkpt><trkpt lat="44.631039" lon="33.837605"><ele>379.2</ele><time>2011-10-10T10:39:22.0000000+00:00</time></trkpt><trkpt lat="44.631042" lon="33.837605"><ele>379.3</ele><time>2011-10-10T10:39:27.0000000+00:00</time></trkpt><trkpt lat="44.631031" lon="33.837624"><ele>378.9</ele><time>2011-10-10T10:39:32.0000000+00:00</time></trkpt><trkpt lat="44.630978" lon="33.837685"><ele>377.8</ele><time>2011-10-10T10:39:37.0000000+00:00</time></trkpt><trkpt lat="44.630924" lon="33.837769"><ele>376.7</ele><time>2011-10-10T10:39:42.0000000+00:00</time></trkpt><trkpt lat="44.630878" lon="33.837864"><ele>376.2</ele><time>2011-10-10T10:39:47.0000000+00:00</time></trkpt><trkpt lat="44.630833" lon="33.83794"><ele>375.9</ele><time>2011-10-10T10:39:52.0000000+00:00</time></trkpt><trkpt lat="44.630814" lon="33.838051"><ele>376.5</ele><time>2011-10-10T10:39:57.0000000+00:00</time></trkpt><trkpt lat="44.630768" lon="33.838177"><ele>377.5</ele><time>2011-10-10T10:40:02.0000000+00:00</time></trkpt><trkpt lat="44.630737" lon="33.838291"><ele>379.9</ele><time>2011-10-10T10:40:07.0000000+00:00</time></trkpt><trkpt lat="44.63073" lon="33.838333"><ele>381.8</ele><time>2011-10-10T10:40:12.0000000+00:00</time></trkpt><trkpt lat="44.630707" lon="33.838337"><ele>379.9</ele><time>2011-10-10T10:40:17.0000000+00:00</time></trkpt><trkpt lat="44.630695" lon="33.838322"><ele>379.5</ele><time>2011-10-10T10:40:22.0000000+00:00</time></trkpt><trkpt lat="44.630692" lon="33.83831"><ele>379.4</ele><time>2011-10-10T10:40:27.0000000+00:00</time></trkpt><trkpt lat="44.630695" lon="33.838318"><ele>379.4</ele><time>2011-10-10T10:40:32.0000000+00:00</time></trkpt><trkpt lat="44.630695" lon="33.838318"><ele>379.4</ele><time>2011-10-10T10:40:37.0000000+00:00</time></trkpt><trkpt lat="44.630695" lon="33.838318"><ele>379.4</ele><time>2011-10-10T10:40:42.0000000+00:00</time></trkpt><trkpt lat="44.630695" lon="33.838318"><ele>379.4</ele><time>2011-10-10T10:40:47.0000000+00:00</time></trkpt><trkpt lat="44.630695" lon="33.838318"><ele>379.4</ele><time>2011-10-10T10:40:52.0000000+00:00</time></trkpt><trkpt lat="44.630695" lon="33.838318"><ele>379.4</ele><time>2011-10-10T10:40:57.0000000+00:00</time></trkpt><trkpt lat="44.630695" lon="33.838318"><ele>379.3</ele><time>2011-10-10T10:41:02.0000000+00:00</time></trkpt><trkpt lat="44.630695" lon="33.838318"><ele>379.3</ele><time>2011-10-10T10:41:07.0000000+00:00</time></trkpt><trkpt lat="44.630695" lon="33.838318"><ele>379.3</ele><time>2011-10-10T10:41:12.0000000+00:00</time></trkpt><trkpt lat="44.630695" lon="33.838318"><ele>379.3</ele><time>2011-10-10T10:41:17.0000000+00:00</time></trkpt><trkpt lat="44.630695" lon="33.838318"><ele>379.3</ele><time>2011-10-10T10:41:22.0000000+00:00</time></trkpt><trkpt lat="44.630695" lon="33.838318"><ele>379.3</ele><time>2011-10-10T10:41:27.0000000+00:00</time></trkpt><trkpt lat="44.630695" lon="33.838318"><ele>379.3</ele><time>2011-10-10T10:41:32.0000000+00:00</time></trkpt><trkpt lat="44.630695" lon="33.838318"><ele>379.3</ele><time>2011-10-10T10:41:37.0000000+00:00</time></trkpt><trkpt lat="44.630695" lon="33.838318"><ele>379.3</ele><time>2011-10-10T10:41:42.0000000+00:00</time></trkpt><trkpt lat="44.630695" lon="33.838322"><ele>379.4</ele><time>2011-10-10T10:41:47.0000000+00:00</time></trkpt><trkpt lat="44.630695" lon="33.838322"><ele>379.4</ele><time>2011-10-10T10:41:52.0000000+00:00</time></trkpt><trkpt lat="44.630695" lon="33.838322"><ele>379.4</ele><time>2011-10-10T10:41:57.0000000+00:00</time></trkpt><trkpt lat="44.630695" lon="33.838322"><ele>379.4</ele><time>2011-10-10T10:42:02.0000000+00:00</time></trkpt><trkpt lat="44.630695" lon="33.838322"><ele>379.4</ele><time>2011-10-10T10:42:07.0000000+00:00</time></trkpt><trkpt lat="44.630695" lon="33.838322"><ele>379.4</ele><time>2011-10-10T10:42:12.0000000+00:00</time></trkpt><trkpt lat="44.630695" lon="33.838322"><ele>379.4</ele><time>2011-10-10T10:42:17.0000000+00:00</time></trkpt><trkpt lat="44.630695" lon="33.838322"><ele>379.4</ele><time>2011-10-10T10:42:22.0000000+00:00</time></trkpt><trkpt lat="44.630695" lon="33.838322"><ele>379.4</ele><time>2011-10-10T10:42:27.0000000+00:00</time></trkpt><trkpt lat="44.630695" lon="33.838322"><ele>379.3</ele><time>2011-10-10T10:42:32.0000000+00:00</time></trkpt><trkpt lat="44.630695" lon="33.838322"><ele>379.3</ele><time>2011-10-10T10:42:37.0000000+00:00</time></trkpt><trkpt lat="44.630695" lon="33.838322"><ele>379.4</ele><time>2011-10-10T10:42:42.0000000+00:00</time></trkpt><trkpt lat="44.630699" lon="33.838326"><ele>379.4</ele><time>2011-10-10T10:42:47.0000000+00:00</time></trkpt><trkpt lat="44.630699" lon="33.838326"><ele>379.4</ele><time>2011-10-10T10:42:52.0000000+00:00</time></trkpt><trkpt lat="44.630699" lon="33.838326"><ele>379.5</ele><time>2011-10-10T10:42:57.0000000+00:00</time></trkpt><trkpt lat="44.630699" lon="33.838326"><ele>379.5</ele><time>2011-10-10T10:43:02.0000000+00:00</time></trkpt><trkpt lat="44.630699" lon="33.838326"><ele>379.6</ele><time>2011-10-10T10:43:07.0000000+00:00</time></trkpt><trkpt lat="44.630699" lon="33.838326"><ele>379.6</ele><time>2011-10-10T10:43:12.0000000+00:00</time></trkpt><trkpt lat="44.630699" lon="33.838326"><ele>379.6</ele><time>2011-10-10T10:43:17.0000000+00:00</time></trkpt><trkpt lat="44.630703" lon="33.838337"><ele>379.9</ele><time>2011-10-10T10:43:22.0000000+00:00</time></trkpt><trkpt lat="44.630699" lon="33.838348"><ele>379.9</ele><time>2011-10-10T10:43:27.0000000+00:00</time></trkpt><trkpt lat="44.630699" lon="33.838398"><ele>379.4</ele><time>2011-10-10T10:43:32.0000000+00:00</time></trkpt><trkpt lat="44.630692" lon="33.838486"><ele>379.9</ele><time>2011-10-10T10:43:37.0000000+00:00</time></trkpt><trkpt lat="44.630692" lon="33.838551"><ele>380.1</ele><time>2011-10-10T10:43:42.0000000+00:00</time></trkpt><trkpt lat="44.630692" lon="33.838558"><ele>380.4</ele><time>2011-10-10T10:43:47.0000000+00:00</time></trkpt><trkpt lat="44.630672" lon="33.838623"><ele>379.3</ele><time>2011-10-10T10:43:52.0000000+00:00</time></trkpt><trkpt lat="44.630684" lon="33.83868"><ele>379.9</ele><time>2011-10-10T10:43:57.0000000+00:00</time></trkpt><trkpt lat="44.630688" lon="33.838699"><ele>378.0</ele><time>2011-10-10T10:44:02.0000000+00:00</time></trkpt><trkpt lat="44.630707" lon="33.838799"><ele>376.9</ele><time>2011-10-10T10:44:07.0000000+00:00</time></trkpt><trkpt lat="44.630688" lon="33.838886"><ele>376.6</ele><time>2011-10-10T10:44:12.0000000+00:00</time></trkpt><trkpt lat="44.630695" lon="33.83894"><ele>376.6</ele><time>2011-10-10T10:44:17.0000000+00:00</time></trkpt><trkpt lat="44.630695" lon="33.838943"><ele>376.6</ele><time>2011-10-10T10:44:22.0000000+00:00</time></trkpt><trkpt lat="44.630688" lon="33.838966"><ele>376.2</ele><time>2011-10-10T10:44:27.0000000+00:00</time></trkpt><trkpt lat="44.630669" lon="33.839043"><ele>375.7</ele><time>2011-10-10T10:44:32.0000000+00:00</time></trkpt><trkpt lat="44.63065" lon="33.839172"><ele>376.8</ele><time>2011-10-10T10:44:37.0000000+00:00</time></trkpt><trkpt lat="44.63065" lon="33.839287"><ele>379.1</ele><time>2011-10-10T10:44:42.0000000+00:00</time></trkpt><trkpt lat="44.630665" lon="33.839363"><ele>380.5</ele><time>2011-10-10T10:44:47.0000000+00:00</time></trkpt><trkpt lat="44.63068" lon="33.839386"><ele>381.6</ele><time>2011-10-10T10:44:52.0000000+00:00</time></trkpt><trkpt lat="44.630684" lon="33.839394"><ele>382.7</ele><time>2011-10-10T10:44:57.0000000+00:00</time></trkpt><trkpt lat="44.630684" lon="33.839394"><ele>382.6</ele><time>2011-10-10T10:45:02.0000000+00:00</time></trkpt><trkpt lat="44.630684" lon="33.839405"><ele>382.7</ele><time>2011-10-10T10:45:07.0000000+00:00</time></trkpt><trkpt lat="44.63068" lon="33.839405"><ele>382.8</ele><time>2011-10-10T10:45:12.0000000+00:00</time></trkpt><trkpt lat="44.63068" lon="33.839405"><ele>382.8</ele><time>2011-10-10T10:45:17.0000000+00:00</time></trkpt><trkpt lat="44.63068" lon="33.839405"><ele>382.8</ele><time>2011-10-10T10:45:22.0000000+00:00</time></trkpt><trkpt lat="44.63068" lon="33.839405"><ele>382.8</ele><time>2011-10-10T10:45:27.0000000+00:00</time></trkpt><trkpt lat="44.63068" lon="33.839405"><ele>382.8</ele><time>2011-10-10T10:45:32.0000000+00:00</time></trkpt><trkpt lat="44.63068" lon="33.839405"><ele>382.8</ele><time>2011-10-10T10:45:37.0000000+00:00</time></trkpt><trkpt lat="44.63068" lon="33.839405"><ele>382.8</ele><time>2011-10-10T10:45:42.0000000+00:00</time></trkpt><trkpt lat="44.630676" lon="33.839394"><ele>384.7</ele><time>2011-10-10T10:45:47.0000000+00:00</time></trkpt><trkpt lat="44.63068" lon="33.839397"><ele>384.6</ele><time>2011-10-10T10:45:52.0000000+00:00</time></trkpt><trkpt lat="44.630676" lon="33.839397"><ele>385.0</ele><time>2011-10-10T10:45:57.0000000+00:00</time></trkpt><trkpt lat="44.630676" lon="33.839397"><ele>385.0</ele><time>2011-10-10T10:46:02.0000000+00:00</time></trkpt><trkpt lat="44.630676" lon="33.839397"><ele>385.2</ele><time>2011-10-10T10:46:07.0000000+00:00</time></trkpt><trkpt lat="44.630669" lon="33.839413"><ele>385.5</ele><time>2011-10-10T10:46:12.0000000+00:00</time></trkpt><trkpt lat="44.63065" lon="33.839455"><ele>386.3</ele><time>2011-10-10T10:46:17.0000000+00:00</time></trkpt><trkpt lat="44.63063" lon="33.83955"><ele>387.5</ele><time>2011-10-10T10:46:22.0000000+00:00</time></trkpt><trkpt lat="44.630623" lon="33.839558"><ele>387.5</ele><time>2011-10-10T10:46:27.0000000+00:00</time></trkpt><trkpt lat="44.630623" lon="33.83955"><ele>387.6</ele><time>2011-10-10T10:46:32.0000000+00:00</time></trkpt><trkpt lat="44.630623" lon="33.83955"><ele>387.6</ele><time>2011-10-10T10:46:37.0000000+00:00</time></trkpt><trkpt lat="44.630623" lon="33.839565"><ele>387.5</ele><time>2011-10-10T10:46:42.0000000+00:00</time></trkpt><trkpt lat="44.630627" lon="33.839558"><ele>387.5</ele><time>2011-10-10T10:46:47.0000000+00:00</time></trkpt><trkpt lat="44.630627" lon="33.839558"><ele>387.4</ele><time>2011-10-10T10:46:52.0000000+00:00</time></trkpt><trkpt lat="44.630627" lon="33.839558"><ele>387.3</ele><time>2011-10-10T10:46:57.0000000+00:00</time></trkpt><trkpt lat="44.630627" lon="33.839558"><ele>387.3</ele><time>2011-10-10T10:47:02.0000000+00:00</time></trkpt><trkpt lat="44.630627" lon="33.839558"><ele>387.3</ele><time>2011-10-10T10:47:07.0000000+00:00</time></trkpt><trkpt lat="44.630627" lon="33.839554"><ele>387.2</ele><time>2011-10-10T10:47:12.0000000+00:00</time></trkpt><trkpt lat="44.630611" lon="33.839558"><ele>387.5</ele><time>2011-10-10T10:47:17.0000000+00:00</time></trkpt><trkpt lat="44.630577" lon="33.839546"><ele>387.7</ele><time>2011-10-10T10:47:22.0000000+00:00</time></trkpt><trkpt lat="44.630539" lon="33.839554"><ele>387.2</ele><time>2011-10-10T10:47:27.0000000+00:00</time></trkpt><trkpt lat="44.630482" lon="33.839569"><ele>387.3</ele><time>2011-10-10T10:47:32.0000000+00:00</time></trkpt><trkpt lat="44.630447" lon="33.839592"><ele>387.6</ele><time>2011-10-10T10:47:37.0000000+00:00</time></trkpt><trkpt lat="44.630383" lon="33.839615"><ele>387.7</ele><time>2011-10-10T10:47:42.0000000+00:00</time></trkpt><trkpt lat="44.630329" lon="33.839645"><ele>389.4</ele><time>2011-10-10T10:47:47.0000000+00:00</time></trkpt><trkpt lat="44.630283" lon="33.839657"><ele>390.9</ele><time>2011-10-10T10:47:52.0000000+00:00</time></trkpt><trkpt lat="44.630253" lon="33.839664"><ele>391.3</ele><time>2011-10-10T10:47:57.0000000+00:00</time></trkpt><trkpt lat="44.630226" lon="33.839668"><ele>392.1</ele><time>2011-10-10T10:48:02.0000000+00:00</time></trkpt><trkpt lat="44.630199" lon="33.839676"><ele>392.9</ele><time>2011-10-10T10:48:07.0000000+00:00</time></trkpt><trkpt lat="44.630165" lon="33.83968"><ele>394.1</ele><time>2011-10-10T10:48:12.0000000+00:00</time></trkpt><trkpt lat="44.630123" lon="33.839691"><ele>395.2</ele><time>2011-10-10T10:48:17.0000000+00:00</time></trkpt><trkpt lat="44.630054" lon="33.839703"><ele>395.8</ele><time>2011-10-10T10:48:22.0000000+00:00</time></trkpt><trkpt lat="44.63002" lon="33.839741"><ele>397.7</ele><time>2011-10-10T10:48:27.0000000+00:00</time></trkpt><trkpt lat="44.629955" lon="33.839741"><ele>398.9</ele><time>2011-10-10T10:48:32.0000000+00:00</time></trkpt><trkpt lat="44.629868" lon="33.839722"><ele>399.9</ele><time>2011-10-10T10:48:37.0000000+00:00</time></trkpt><trkpt lat="44.629826" lon="33.839745"><ele>400.0</ele><time>2011-10-10T10:48:42.0000000+00:00</time></trkpt><trkpt lat="44.629768" lon="33.839733"><ele>400.2</ele><time>2011-10-10T10:48:47.0000000+00:00</time></trkpt><trkpt lat="44.629711" lon="33.839725"><ele>398.1</ele><time>2011-10-10T10:48:52.0000000+00:00</time></trkpt><trkpt lat="44.629654" lon="33.839722"><ele>395.8</ele><time>2011-10-10T10:48:57.0000000+00:00</time></trkpt><trkpt lat="44.629639" lon="33.839722"><ele>393.5</ele><time>2011-10-10T10:49:02.0000000+00:00</time></trkpt><trkpt lat="44.629601" lon="33.839706"><ele>393.5</ele><time>2011-10-10T10:49:07.0000000+00:00</time></trkpt><trkpt lat="44.62957" lon="33.839687"><ele>392.8</ele><time>2011-10-10T10:49:12.0000000+00:00</time></trkpt><trkpt lat="44.629498" lon="33.839703"><ele>390.8</ele><time>2011-10-10T10:49:17.0000000+00:00</time></trkpt><trkpt lat="44.629448" lon="33.839699"><ele>389.3</ele><time>2011-10-10T10:49:22.0000000+00:00</time></trkpt><trkpt lat="44.629417" lon="33.839684"><ele>388.4</ele><time>2011-10-10T10:49:27.0000000+00:00</time></trkpt><trkpt lat="44.629379" lon="33.839668"><ele>387.6</ele><time>2011-10-10T10:49:32.0000000+00:00</time></trkpt><trkpt lat="44.629353" lon="33.839657"><ele>387.5</ele><time>2011-10-10T10:49:37.0000000+00:00</time></trkpt><trkpt lat="44.629375" lon="33.839668"><ele>386.4</ele><time>2011-10-10T10:49:42.0000000+00:00</time></trkpt><trkpt lat="44.629372" lon="33.839615"><ele>386.2</ele><time>2011-10-10T10:49:47.0000000+00:00</time></trkpt><trkpt lat="44.629356" lon="33.839569"><ele>386.1</ele><time>2011-10-10T10:49:52.0000000+00:00</time></trkpt><trkpt lat="44.629356" lon="33.839527"><ele>386.4</ele><time>2011-10-10T10:49:57.0000000+00:00</time></trkpt><trkpt lat="44.62933" lon="33.839455"><ele>387.0</ele><time>2011-10-10T10:50:02.0000000+00:00</time></trkpt><trkpt lat="44.629307" lon="33.839439"><ele>387.7</ele><time>2011-10-10T10:50:07.0000000+00:00</time></trkpt><trkpt lat="44.629276" lon="33.839386"><ele>388.7</ele><time>2011-10-10T10:50:12.0000000+00:00</time></trkpt><trkpt lat="44.629261" lon="33.839355"><ele>389.4</ele><time>2011-10-10T10:50:17.0000000+00:00</time></trkpt><trkpt lat="44.629215" lon="33.839352"><ele>390.3</ele><time>2011-10-10T10:50:22.0000000+00:00</time></trkpt><trkpt lat="44.629173" lon="33.839333"><ele>390.3</ele><time>2011-10-10T10:50:27.0000000+00:00</time></trkpt><trkpt lat="44.629135" lon="33.839317"><ele>390.3</ele><time>2011-10-10T10:50:32.0000000+00:00</time></trkpt><trkpt lat="44.629101" lon="33.839279"><ele>390.1</ele><time>2011-10-10T10:50:37.0000000+00:00</time></trkpt><trkpt lat="44.629028" lon="33.839268"><ele>390.5</ele><time>2011-10-10T10:50:42.0000000+00:00</time></trkpt><trkpt lat="44.628971" lon="33.839249"><ele>390.2</ele><time>2011-10-10T10:50:47.0000000+00:00</time></trkpt><trkpt lat="44.628925" lon="33.839222"><ele>390.0</ele><time>2011-10-10T10:50:52.0000000+00:00</time></trkpt><trkpt lat="44.628887" lon="33.839218"><ele>390.4</ele><time>2011-10-10T10:50:57.0000000+00:00</time></trkpt><trkpt lat="44.628849" lon="33.839207"><ele>390.4</ele><time>2011-10-10T10:51:02.0000000+00:00</time></trkpt><trkpt lat="44.628807" lon="33.839199"><ele>390.2</ele><time>2011-10-10T10:51:07.0000000+00:00</time></trkpt><trkpt lat="44.628769" lon="33.839188"><ele>390.0</ele><time>2011-10-10T10:51:12.0000000+00:00</time></trkpt><trkpt lat="44.628727" lon="33.839199"><ele>389.5</ele><time>2011-10-10T10:51:17.0000000+00:00</time></trkpt><trkpt lat="44.628689" lon="33.83918"><ele>389.1</ele><time>2011-10-10T10:51:22.0000000+00:00</time></trkpt><trkpt lat="44.628643" lon="33.839161"><ele>387.8</ele><time>2011-10-10T10:51:27.0000000+00:00</time></trkpt><trkpt lat="44.62862" lon="33.839161"><ele>386.3</ele><time>2011-10-10T10:51:32.0000000+00:00</time></trkpt><trkpt lat="44.628624" lon="33.839165"><ele>384.2</ele><time>2011-10-10T10:51:37.0000000+00:00</time></trkpt><trkpt lat="44.628532" lon="33.839146"><ele>382.3</ele><time>2011-10-10T10:51:42.0000000+00:00</time></trkpt><trkpt lat="44.628494" lon="33.839161"><ele>382.2</ele><time>2011-10-10T10:51:47.0000000+00:00</time></trkpt><trkpt lat="44.628494" lon="33.839188"><ele>383.6</ele><time>2011-10-10T10:51:52.0000000+00:00</time></trkpt><trkpt lat="44.62851" lon="33.839203"><ele>384.4</ele><time>2011-10-10T10:51:57.0000000+00:00</time></trkpt><trkpt lat="44.628498" lon="33.839203"><ele>385.0</ele><time>2011-10-10T10:52:02.0000000+00:00</time></trkpt><trkpt lat="44.628422" lon="33.839203"><ele>385.9</ele><time>2011-10-10T10:52:07.0000000+00:00</time></trkpt><trkpt lat="44.628365" lon="33.839172"><ele>386.5</ele><time>2011-10-10T10:52:12.0000000+00:00</time></trkpt><trkpt lat="44.628311" lon="33.839146"><ele>387.3</ele><time>2011-10-10T10:52:17.0000000+00:00</time></trkpt><trkpt lat="44.628254" lon="33.839153"><ele>388.1</ele><time>2011-10-10T10:52:22.0000000+00:00</time></trkpt><trkpt lat="44.628174" lon="33.839146"><ele>389.4</ele><time>2011-10-10T10:52:27.0000000+00:00</time></trkpt><trkpt lat="44.628147" lon="33.83913"><ele>390.3</ele><time>2011-10-10T10:52:32.0000000+00:00</time></trkpt><trkpt lat="44.628136" lon="33.839069"><ele>391.0</ele><time>2011-10-10T10:52:37.0000000+00:00</time></trkpt><trkpt lat="44.628124" lon="33.839035"><ele>392.2</ele><time>2011-10-10T10:52:42.0000000+00:00</time></trkpt><trkpt lat="44.628132" lon="33.838982"><ele>393.1</ele><time>2011-10-10T10:52:47.0000000+00:00</time></trkpt><trkpt lat="44.628159" lon="33.838997"><ele>393.8</ele><time>2011-10-10T10:52:52.0000000+00:00</time></trkpt><trkpt lat="44.628155" lon="33.839016"><ele>393.5</ele><time>2011-10-10T10:52:57.0000000+00:00</time></trkpt><trkpt lat="44.628151" lon="33.839016"><ele>394.2</ele><time>2011-10-10T10:53:02.0000000+00:00</time></trkpt><trkpt lat="44.628147" lon="33.839012"><ele>394.9</ele><time>2011-10-10T10:53:07.0000000+00:00</time></trkpt><trkpt lat="44.628147" lon="33.839012"><ele>395.6</ele><time>2011-10-10T10:53:12.0000000+00:00</time></trkpt><trkpt lat="44.628143" lon="33.839012"><ele>396.2</ele><time>2011-10-10T10:53:17.0000000+00:00</time></trkpt><trkpt lat="44.628139" lon="33.839016"><ele>396.8</ele><time>2011-10-10T10:53:22.0000000+00:00</time></trkpt><trkpt lat="44.628136" lon="33.839016"><ele>397.3</ele><time>2011-10-10T10:53:27.0000000+00:00</time></trkpt><trkpt lat="44.628132" lon="33.83902"><ele>397.8</ele><time>2011-10-10T10:53:32.0000000+00:00</time></trkpt><trkpt lat="44.628136" lon="33.839016"><ele>398.6</ele><time>2011-10-10T10:53:37.0000000+00:00</time></trkpt><trkpt lat="44.628139" lon="33.839008"><ele>398.7</ele><time>2011-10-10T10:53:42.0000000+00:00</time></trkpt><trkpt lat="44.628139" lon="33.839001"><ele>398.8</ele><time>2011-10-10T10:53:47.0000000+00:00</time></trkpt><trkpt lat="44.628139" lon="33.839008"><ele>398.6</ele><time>2011-10-10T10:53:52.0000000+00:00</time></trkpt><trkpt lat="44.628132" lon="33.839016"><ele>397.7</ele><time>2011-10-10T10:53:57.0000000+00:00</time></trkpt><trkpt lat="44.628136" lon="33.839016"><ele>396.9</ele><time>2011-10-10T10:54:02.0000000+00:00</time></trkpt><trkpt lat="44.628166" lon="33.838989"><ele>395.9</ele><time>2011-10-10T10:54:07.0000000+00:00</time></trkpt><trkpt lat="44.628166" lon="33.838974"><ele>394.8</ele><time>2011-10-10T10:54:12.0000000+00:00</time></trkpt><trkpt lat="44.628181" lon="33.838947"><ele>394.0</ele><time>2011-10-10T10:54:17.0000000+00:00</time></trkpt><trkpt lat="44.628189" lon="33.838932"><ele>393.3</ele><time>2011-10-10T10:54:22.0000000+00:00</time></trkpt><trkpt lat="44.628204" lon="33.838909"><ele>393.3</ele><time>2011-10-10T10:54:27.0000000+00:00</time></trkpt><trkpt lat="44.628231" lon="33.838898"><ele>392.8</ele><time>2011-10-10T10:54:32.0000000+00:00</time></trkpt><trkpt lat="44.628315" lon="33.838871"><ele>392.9</ele><time>2011-10-10T10:54:37.0000000+00:00</time></trkpt><trkpt lat="44.628445" lon="33.838837"><ele>393.9</ele><time>2011-10-10T10:54:42.0000000+00:00</time></trkpt><trkpt lat="44.628563" lon="33.838753"><ele>393.3</ele><time>2011-10-10T10:54:47.0000000+00:00</time></trkpt><trkpt lat="44.628632" lon="33.83868"><ele>392.5</ele><time>2011-10-10T10:54:52.0000000+00:00</time></trkpt><trkpt lat="44.628677" lon="33.838623"><ele>392.0</ele><time>2011-10-10T10:54:57.0000000+00:00</time></trkpt><trkpt lat="44.628681" lon="33.838589"><ele>389.8</ele><time>2011-10-10T10:55:02.0000000+00:00</time></trkpt><trkpt lat="44.628746" lon="33.838573"><ele>387.7</ele><time>2011-10-10T10:55:07.0000000+00:00</time></trkpt><trkpt lat="44.628796" lon="33.838486"><ele>386.4</ele><time>2011-10-10T10:55:12.0000000+00:00</time></trkpt><trkpt lat="44.628899" lon="33.838402"><ele>385.6</ele><time>2011-10-10T10:55:17.0000000+00:00</time></trkpt><trkpt lat="44.628952" lon="33.838356"><ele>384.0</ele><time>2011-10-10T10:55:22.0000000+00:00</time></trkpt><trkpt lat="44.62899" lon="33.838318"><ele>383.9</ele><time>2011-10-10T10:55:27.0000000+00:00</time></trkpt><trkpt lat="44.62904" lon="33.838284"><ele>384.0</ele><time>2011-10-10T10:55:32.0000000+00:00</time></trkpt><trkpt lat="44.62907" lon="33.838249"><ele>384.1</ele><time>2011-10-10T10:55:37.0000000+00:00</time></trkpt><trkpt lat="44.629097" lon="33.838276"><ele>384.0</ele><time>2011-10-10T10:55:42.0000000+00:00</time></trkpt><trkpt lat="44.629128" lon="33.838238"><ele>384.3</ele><time>2011-10-10T10:55:47.0000000+00:00</time></trkpt><trkpt lat="44.62915" lon="33.838219"><ele>384.1</ele><time>2011-10-10T10:55:52.0000000+00:00</time></trkpt><trkpt lat="44.629196" lon="33.838211"><ele>384.2</ele><time>2011-10-10T10:55:57.0000000+00:00</time></trkpt><trkpt lat="44.629211" lon="33.838188"><ele>384.8</ele><time>2011-10-10T10:56:02.0000000+00:00</time></trkpt><trkpt lat="44.629227" lon="33.838169"><ele>384.8</ele><time>2011-10-10T10:56:07.0000000+00:00</time></trkpt><trkpt lat="44.629246" lon="33.838181"><ele>384.1</ele><time>2011-10-10T10:56:12.0000000+00:00</time></trkpt><trkpt lat="44.62925" lon="33.838181"><ele>383.5</ele><time>2011-10-10T10:56:17.0000000+00:00</time></trkpt><trkpt lat="44.629242" lon="33.838173"><ele>383.7</ele><time>2011-10-10T10:56:22.0000000+00:00</time></trkpt><trkpt lat="44.629238" lon="33.838146"><ele>383.2</ele><time>2011-10-10T10:56:27.0000000+00:00</time></trkpt><trkpt lat="44.629257" lon="33.838116"><ele>382.3</ele><time>2011-10-10T10:56:32.0000000+00:00</time></trkpt><trkpt lat="44.629269" lon="33.838081"><ele>380.5</ele><time>2011-10-10T10:56:37.0000000+00:00</time></trkpt><trkpt lat="44.629292" lon="33.838062"><ele>380.0</ele><time>2011-10-10T10:56:42.0000000+00:00</time></trkpt><trkpt lat="44.629311" lon="33.838066"><ele>380.3</ele><time>2011-10-10T10:56:47.0000000+00:00</time></trkpt><trkpt lat="44.629322" lon="33.838055"><ele>380.3</ele><time>2011-10-10T10:56:52.0000000+00:00</time></trkpt><trkpt lat="44.629333" lon="33.838062"><ele>380.1</ele><time>2011-10-10T10:56:57.0000000+00:00</time></trkpt><trkpt lat="44.629368" lon="33.838039"><ele>379.9</ele><time>2011-10-10T10:57:02.0000000+00:00</time></trkpt><trkpt lat="44.629456" lon="33.838051"><ele>379.8</ele><time>2011-10-10T10:57:07.0000000+00:00</time></trkpt><trkpt lat="44.629589" lon="33.837994"><ele>377.7</ele><time>2011-10-10T10:57:12.0000000+00:00</time></trkpt><trkpt lat="44.629719" lon="33.837776"><ele>375.9</ele><time>2011-10-10T10:57:17.0000000+00:00</time></trkpt><trkpt lat="44.629818" lon="33.83754"><ele>375.0</ele><time>2011-10-10T10:57:22.0000000+00:00</time></trkpt><trkpt lat="44.62989" lon="33.837353"><ele>374.0</ele><time>2011-10-10T10:57:27.0000000+00:00</time></trkpt><trkpt lat="44.629936" lon="33.837181"><ele>373.7</ele><time>2011-10-10T10:57:32.0000000+00:00</time></trkpt><trkpt lat="44.629959" lon="33.837006"><ele>374.7</ele><time>2011-10-10T10:57:37.0000000+00:00</time></trkpt><trkpt lat="44.629971" lon="33.836956"><ele>375.1</ele><time>2011-10-10T10:57:42.0000000+00:00</time></trkpt><trkpt lat="44.629974" lon="33.836918"><ele>375.8</ele><time>2011-10-10T10:57:47.0000000+00:00</time></trkpt><trkpt lat="44.629986" lon="33.836895"><ele>376.5</ele><time>2011-10-10T10:57:52.0000000+00:00</time></trkpt><trkpt lat="44.629997" lon="33.836887"><ele>377.2</ele><time>2011-10-10T10:57:57.0000000+00:00</time></trkpt><trkpt lat="44.63002" lon="33.836857"><ele>377.1</ele><time>2011-10-10T10:58:02.0000000+00:00</time></trkpt><trkpt lat="44.630016" lon="33.836861"><ele>376.2</ele><time>2011-10-10T10:58:07.0000000+00:00</time></trkpt><trkpt lat="44.630016" lon="33.836861"><ele>376.2</ele><time>2011-10-10T10:58:12.0000000+00:00</time></trkpt><trkpt lat="44.630016" lon="33.836861"><ele>376.2</ele><time>2011-10-10T10:58:17.0000000+00:00</time></trkpt><trkpt lat="44.63002" lon="33.836861"><ele>375.6</ele><time>2011-10-10T10:58:22.0000000+00:00</time></trkpt><trkpt lat="44.630016" lon="33.836857"><ele>373.2</ele><time>2011-10-10T10:58:27.0000000+00:00</time></trkpt><trkpt lat="44.630028" lon="33.836842"><ele>372.9</ele><time>2011-10-10T10:58:32.0000000+00:00</time></trkpt><trkpt lat="44.630043" lon="33.836773"><ele>372.0</ele><time>2011-10-10T10:58:37.0000000+00:00</time></trkpt><trkpt lat="44.630089" lon="33.83675"><ele>371.4</ele><time>2011-10-10T10:58:42.0000000+00:00</time></trkpt><trkpt lat="44.630127" lon="33.8367"><ele>370.2</ele><time>2011-10-10T10:58:47.0000000+00:00</time></trkpt><trkpt lat="44.630138" lon="33.8367"><ele>370.0</ele><time>2011-10-10T10:58:52.0000000+00:00</time></trkpt><trkpt lat="44.63015" lon="33.8367"><ele>369.9</ele><time>2011-10-10T10:58:57.0000000+00:00</time></trkpt><trkpt lat="44.63031" lon="33.836609"><ele>366.4</ele><time>2011-10-10T10:59:02.0000000+00:00</time></trkpt><trkpt lat="44.630333" lon="33.836597"><ele>365.6</ele><time>2011-10-10T10:59:07.0000000+00:00</time></trkpt><trkpt lat="44.630341" lon="33.836624"><ele>365.5</ele><time>2011-10-10T10:59:12.0000000+00:00</time></trkpt><trkpt lat="44.630337" lon="33.836605"><ele>365.3</ele><time>2011-10-10T10:59:17.0000000+00:00</time></trkpt><trkpt lat="44.630344" lon="33.836605"><ele>365.1</ele><time>2011-10-10T10:59:22.0000000+00:00</time></trkpt><trkpt lat="44.630337" lon="33.836555"><ele>364.8</ele><time>2011-10-10T10:59:27.0000000+00:00</time></trkpt><trkpt lat="44.630314" lon="33.836487"><ele>364.2</ele><time>2011-10-10T10:59:32.0000000+00:00</time></trkpt><trkpt lat="44.630306" lon="33.836479"><ele>363.8</ele><time>2011-10-10T10:59:37.0000000+00:00</time></trkpt><trkpt lat="44.630318" lon="33.836491"><ele>364.1</ele><time>2011-10-10T10:59:42.0000000+00:00</time></trkpt><trkpt lat="44.630318" lon="33.836498"><ele>363.9</ele><time>2011-10-10T10:59:47.0000000+00:00</time></trkpt><trkpt lat="44.630333" lon="33.836521"><ele>363.4</ele><time>2011-10-10T10:59:52.0000000+00:00</time></trkpt><trkpt lat="44.630352" lon="33.836567"><ele>362.1</ele><time>2011-10-10T10:59:57.0000000+00:00</time></trkpt><trkpt lat="44.630352" lon="33.836567"><ele>361.3</ele><time>2011-10-10T11:00:02.0000000+00:00</time></trkpt><trkpt lat="44.63036" lon="33.836563"><ele>361.0</ele><time>2011-10-10T11:00:07.0000000+00:00</time></trkpt><trkpt lat="44.63036" lon="33.836555"><ele>360.7</ele><time>2011-10-10T11:00:12.0000000+00:00</time></trkpt><trkpt lat="44.630363" lon="33.836555"><ele>360.6</ele><time>2011-10-10T11:00:17.0000000+00:00</time></trkpt><trkpt lat="44.630367" lon="33.836559"><ele>360.8</ele><time>2011-10-10T11:00:22.0000000+00:00</time></trkpt><trkpt lat="44.630371" lon="33.836552"><ele>361.3</ele><time>2011-10-10T11:00:27.0000000+00:00</time></trkpt><trkpt lat="44.630356" lon="33.836514"><ele>361.5</ele><time>2011-10-10T11:00:32.0000000+00:00</time></trkpt><trkpt lat="44.63036" lon="33.836456"><ele>361.4</ele><time>2011-10-10T11:00:37.0000000+00:00</time></trkpt><trkpt lat="44.630398" lon="33.836315"><ele>361.1</ele><time>2011-10-10T11:00:42.0000000+00:00</time></trkpt><trkpt lat="44.630482" lon="33.836121"><ele>361.2</ele><time>2011-10-10T11:00:47.0000000+00:00</time></trkpt><trkpt lat="44.630573" lon="33.835957"><ele>360.9</ele><time>2011-10-10T11:00:52.0000000+00:00</time></trkpt><trkpt lat="44.63068" lon="33.835819"><ele>360.2</ele><time>2011-10-10T11:00:57.0000000+00:00</time></trkpt><trkpt lat="44.630798" lon="33.835636"><ele>360.5</ele><time>2011-10-10T11:01:02.0000000+00:00</time></trkpt><trkpt lat="44.630932" lon="33.835472"><ele>360.2</ele><time>2011-10-10T11:01:07.0000000+00:00</time></trkpt><trkpt lat="44.631023" lon="33.835247"><ele>357.1</ele><time>2011-10-10T11:01:12.0000000+00:00</time></trkpt><trkpt lat="44.631161" lon="33.835114"><ele>356.1</ele><time>2011-10-10T11:01:17.0000000+00:00</time></trkpt><trkpt lat="44.631268" lon="33.835007"><ele>356.4</ele><time>2011-10-10T11:01:22.0000000+00:00</time></trkpt><trkpt lat="44.63131" lon="33.834919"><ele>356.5</ele><time>2011-10-10T11:01:27.0000000+00:00</time></trkpt><trkpt lat="44.631382" lon="33.83469"><ele>357.6</ele><time>2011-10-10T11:01:32.0000000+00:00</time></trkpt><trkpt lat="44.63142" lon="33.834576"><ele>360.0</ele><time>2011-10-10T11:01:37.0000000+00:00</time></trkpt><trkpt lat="44.631485" lon="33.834446"><ele>360.4</ele><time>2011-10-10T11:01:42.0000000+00:00</time></trkpt><trkpt lat="44.631565" lon="33.834301"><ele>360.4</ele><time>2011-10-10T11:01:47.0000000+00:00</time></trkpt><trkpt lat="44.631626" lon="33.83411"><ele>360.6</ele><time>2011-10-10T11:01:52.0000000+00:00</time></trkpt><trkpt lat="44.631699" lon="33.8339"><ele>360.8</ele><time>2011-10-10T11:01:57.0000000+00:00</time></trkpt><trkpt lat="44.631771" lon="33.833668"><ele>361.5</ele><time>2011-10-10T11:02:02.0000000+00:00</time></trkpt><trkpt lat="44.631809" lon="33.833431"><ele>358.9</ele><time>2011-10-10T11:02:07.0000000+00:00</time></trkpt><trkpt lat="44.631805" lon="33.833321"><ele>357.9</ele><time>2011-10-10T11:02:12.0000000+00:00</time></trkpt><trkpt lat="44.63184" lon="33.833195"><ele>358.5</ele><time>2011-10-10T11:02:17.0000000+00:00</time></trkpt><trkpt lat="44.631943" lon="33.833046"><ele>358.9</ele><time>2011-10-10T11:02:22.0000000+00:00</time></trkpt><trkpt lat="44.631935" lon="33.832939"><ele>358.0</ele><time>2011-10-10T11:02:27.0000000+00:00</time></trkpt><trkpt lat="44.631969" lon="33.832851"><ele>358.4</ele><time>2011-10-10T11:02:32.0000000+00:00</time></trkpt><trkpt lat="44.632011" lon="33.832783"><ele>358.8</ele><time>2011-10-10T11:02:37.0000000+00:00</time></trkpt><trkpt lat="44.632042" lon="33.832733"><ele>360.2</ele><time>2011-10-10T11:02:42.0000000+00:00</time></trkpt><trkpt lat="44.63205" lon="33.832718"><ele>358.2</ele><time>2011-10-10T11:02:47.0000000+00:00</time></trkpt><trkpt lat="44.632042" lon="33.832722"><ele>358.2</ele><time>2011-10-10T11:02:52.0000000+00:00</time></trkpt><trkpt lat="44.632046" lon="33.832718"><ele>358.1</ele><time>2011-10-10T11:02:57.0000000+00:00</time></trkpt><trkpt lat="44.632042" lon="33.832718"><ele>358.0</ele><time>2011-10-10T11:03:02.0000000+00:00</time></trkpt><trkpt lat="44.63205" lon="33.832718"><ele>358.0</ele><time>2011-10-10T11:03:07.0000000+00:00</time></trkpt><trkpt lat="44.632053" lon="33.832714"><ele>358.0</ele><time>2011-10-10T11:03:12.0000000+00:00</time></trkpt><trkpt lat="44.632057" lon="33.83271"><ele>358.0</ele><time>2011-10-10T11:03:17.0000000+00:00</time></trkpt><trkpt lat="44.632061" lon="33.83271"><ele>357.8</ele><time>2011-10-10T11:03:22.0000000+00:00</time></trkpt><trkpt lat="44.632061" lon="33.83271"><ele>357.5</ele><time>2011-10-10T11:03:27.0000000+00:00</time></trkpt><trkpt lat="44.632061" lon="33.83271"><ele>357.4</ele><time>2011-10-10T11:03:32.0000000+00:00</time></trkpt><trkpt lat="44.632061" lon="33.83271"><ele>357.4</ele><time>2011-10-10T11:03:37.0000000+00:00</time></trkpt><trkpt lat="44.632057" lon="33.83271"><ele>357.4</ele><time>2011-10-10T11:03:42.0000000+00:00</time></trkpt><trkpt lat="44.632057" lon="33.83271"><ele>357.4</ele><time>2011-10-10T11:03:47.0000000+00:00</time></trkpt><trkpt lat="44.632053" lon="33.83271"><ele>357.4</ele><time>2011-10-10T11:03:52.0000000+00:00</time></trkpt><trkpt lat="44.632046" lon="33.832706"><ele>357.4</ele><time>2011-10-10T11:03:57.0000000+00:00</time></trkpt><trkpt lat="44.63205" lon="33.832695"><ele>357.4</ele><time>2011-10-10T11:04:02.0000000+00:00</time></trkpt><trkpt lat="44.632053" lon="33.832687"><ele>357.4</ele><time>2011-10-10T11:04:07.0000000+00:00</time></trkpt><trkpt lat="44.632061" lon="33.832691"><ele>357.5</ele><time>2011-10-10T11:04:12.0000000+00:00</time></trkpt><trkpt lat="44.632057" lon="33.832691"><ele>357.5</ele><time>2011-10-10T11:04:17.0000000+00:00</time></trkpt><trkpt lat="44.632057" lon="33.832691"><ele>357.4</ele><time>2011-10-10T11:04:22.0000000+00:00</time></trkpt><trkpt lat="44.632057" lon="33.832687"><ele>357.4</ele><time>2011-10-10T11:04:27.0000000+00:00</time></trkpt><trkpt lat="44.632065" lon="33.83268"><ele>357.6</ele><time>2011-10-10T11:04:32.0000000+00:00</time></trkpt><trkpt lat="44.632069" lon="33.832676"><ele>357.8</ele><time>2011-10-10T11:04:37.0000000+00:00</time></trkpt><trkpt lat="44.632072" lon="33.832676"><ele>358.0</ele><time>2011-10-10T11:04:42.0000000+00:00</time></trkpt><trkpt lat="44.632065" lon="33.832676"><ele>358.9</ele><time>2011-10-10T11:04:47.0000000+00:00</time></trkpt><trkpt lat="44.632057" lon="33.832664"><ele>359.4</ele><time>2011-10-10T11:04:52.0000000+00:00</time></trkpt><trkpt lat="44.632053" lon="33.832653"><ele>359.9</ele><time>2011-10-10T11:04:57.0000000+00:00</time></trkpt><trkpt lat="44.63205" lon="33.832642"><ele>360.4</ele><time>2011-10-10T11:05:02.0000000+00:00</time></trkpt><trkpt lat="44.632042" lon="33.83263"><ele>360.9</ele><time>2011-10-10T11:05:07.0000000+00:00</time></trkpt><trkpt lat="44.632038" lon="33.832615"><ele>361.3</ele><time>2011-10-10T11:05:12.0000000+00:00</time></trkpt><trkpt lat="44.632034" lon="33.8326"><ele>361.8</ele><time>2011-10-10T11:05:17.0000000+00:00</time></trkpt><trkpt lat="44.632034" lon="33.832588"><ele>362.2</ele><time>2011-10-10T11:05:22.0000000+00:00</time></trkpt><trkpt lat="44.632038" lon="33.832573"><ele>362.3</ele><time>2011-10-10T11:05:27.0000000+00:00</time></trkpt><trkpt lat="44.632076" lon="33.832554"><ele>362.3</ele><time>2011-10-10T11:05:32.0000000+00:00</time></trkpt><trkpt lat="44.632114" lon="33.832535"><ele>362.2</ele><time>2011-10-10T11:05:37.0000000+00:00</time></trkpt><trkpt lat="44.632275" lon="33.832455"><ele>362.1</ele><time>2011-10-10T11:05:42.0000000+00:00</time></trkpt><trkpt lat="44.632366" lon="33.832382"><ele>361.9</ele><time>2011-10-10T11:05:47.0000000+00:00</time></trkpt><trkpt lat="44.632435" lon="33.832336"><ele>361.7</ele><time>2011-10-10T11:05:52.0000000+00:00</time></trkpt><trkpt lat="44.632469" lon="33.832279"><ele>361.4</ele><time>2011-10-10T11:05:57.0000000+00:00</time></trkpt><trkpt lat="44.632492" lon="33.832237"><ele>361.3</ele><time>2011-10-10T11:06:02.0000000+00:00</time></trkpt><trkpt lat="44.632504" lon="33.832241"><ele>361.3</ele><time>2011-10-10T11:06:07.0000000+00:00</time></trkpt><trkpt lat="44.632511" lon="33.832241"><ele>361.2</ele><time>2011-10-10T11:06:12.0000000+00:00</time></trkpt><trkpt lat="44.632519" lon="33.832241"><ele>361.2</ele><time>2011-10-10T11:06:17.0000000+00:00</time></trkpt><trkpt lat="44.632523" lon="33.832237"><ele>361.2</ele><time>2011-10-10T11:06:22.0000000+00:00</time></trkpt><trkpt lat="44.632526" lon="33.832233"><ele>361.2</ele><time>2011-10-10T11:06:27.0000000+00:00</time></trkpt><trkpt lat="44.63253" lon="33.832222"><ele>361.2</ele><time>2011-10-10T11:06:32.0000000+00:00</time></trkpt><trkpt lat="44.632526" lon="33.832214"><ele>361.2</ele><time>2011-10-10T11:06:37.0000000+00:00</time></trkpt><trkpt lat="44.632504" lon="33.832188"><ele>361.1</ele><time>2011-10-10T11:06:42.0000000+00:00</time></trkpt><trkpt lat="44.632488" lon="33.832138"><ele>360.9</ele><time>2011-10-10T11:06:47.0000000+00:00</time></trkpt><trkpt lat="44.6325" lon="33.832119"><ele>360.8</ele><time>2011-10-10T11:06:52.0000000+00:00</time></trkpt><trkpt lat="44.632504" lon="33.832123"><ele>360.7</ele><time>2011-10-10T11:06:57.0000000+00:00</time></trkpt><trkpt lat="44.632496" lon="33.832115"><ele>360.6</ele><time>2011-10-10T11:07:02.0000000+00:00</time></trkpt><trkpt lat="44.632492" lon="33.832111"><ele>360.6</ele><time>2011-10-10T11:07:07.0000000+00:00</time></trkpt><trkpt lat="44.632488" lon="33.832115"><ele>360.6</ele><time>2011-10-10T11:07:12.0000000+00:00</time></trkpt><trkpt lat="44.632496" lon="33.832123"><ele>360.5</ele><time>2011-10-10T11:07:17.0000000+00:00</time></trkpt><trkpt lat="44.632507" lon="33.832119"><ele>360.5</ele><time>2011-10-10T11:07:22.0000000+00:00</time></trkpt><trkpt lat="44.632496" lon="33.832088"><ele>360.4</ele><time>2011-10-10T11:07:27.0000000+00:00</time></trkpt><trkpt lat="44.632519" lon="33.832058"><ele>360.1</ele><time>2011-10-10T11:07:32.0000000+00:00</time></trkpt><trkpt lat="44.632492" lon="33.832035"><ele>359.9</ele><time>2011-10-10T11:07:37.0000000+00:00</time></trkpt><trkpt lat="44.632496" lon="33.832039"><ele>359.9</ele><time>2011-10-10T11:07:42.0000000+00:00</time></trkpt><trkpt lat="44.632496" lon="33.832043"><ele>359.8</ele><time>2011-10-10T11:07:47.0000000+00:00</time></trkpt><trkpt lat="44.632496" lon="33.832047"><ele>359.8</ele><time>2011-10-10T11:07:52.0000000+00:00</time></trkpt><trkpt lat="44.632496" lon="33.832043"><ele>359.8</ele><time>2011-10-10T11:07:57.0000000+00:00</time></trkpt><trkpt lat="44.632496" lon="33.832043"><ele>359.8</ele><time>2011-10-10T11:08:02.0000000+00:00</time></trkpt><trkpt lat="44.632496" lon="33.832043"><ele>359.8</ele><time>2011-10-10T11:08:07.0000000+00:00</time></trkpt><trkpt lat="44.632496" lon="33.832043"><ele>359.7</ele><time>2011-10-10T11:08:12.0000000+00:00</time></trkpt><trkpt lat="44.632496" lon="33.832043"><ele>359.7</ele><time>2011-10-10T11:08:17.0000000+00:00</time></trkpt><trkpt lat="44.632496" lon="33.832043"><ele>359.7</ele><time>2011-10-10T11:08:22.0000000+00:00</time></trkpt><trkpt lat="44.632496" lon="33.832043"><ele>359.7</ele><time>2011-10-10T11:08:27.0000000+00:00</time></trkpt><trkpt lat="44.6325" lon="33.832039"><ele>359.7</ele><time>2011-10-10T11:08:32.0000000+00:00</time></trkpt><trkpt lat="44.632496" lon="33.832039"><ele>359.7</ele><time>2011-10-10T11:08:37.0000000+00:00</time></trkpt><trkpt lat="44.6325" lon="33.832039"><ele>359.7</ele><time>2011-10-10T11:08:42.0000000+00:00</time></trkpt><trkpt lat="44.632572" lon="33.832207"><ele>359.6</ele><time>2011-10-10T11:08:47.0000000+00:00</time></trkpt><trkpt lat="44.632641" lon="33.832317"><ele>359.4</ele><time>2011-10-10T11:08:52.0000000+00:00</time></trkpt><trkpt lat="44.632664" lon="33.832325"><ele>359.2</ele><time>2011-10-10T11:08:57.0000000+00:00</time></trkpt><trkpt lat="44.632679" lon="33.832317"><ele>359.1</ele><time>2011-10-10T11:09:02.0000000+00:00</time></trkpt><trkpt lat="44.632668" lon="33.832333"><ele>358.9</ele><time>2011-10-10T11:09:07.0000000+00:00</time></trkpt><trkpt lat="44.632648" lon="33.832333"><ele>358.8</ele><time>2011-10-10T11:09:12.0000000+00:00</time></trkpt><trkpt lat="44.63261" lon="33.832287"><ele>358.7</ele><time>2011-10-10T11:09:17.0000000+00:00</time></trkpt><trkpt lat="44.632633" lon="33.832272"><ele>358.6</ele><time>2011-10-10T11:09:22.0000000+00:00</time></trkpt><trkpt lat="44.63261" lon="33.832245"><ele>358.5</ele><time>2011-10-10T11:09:27.0000000+00:00</time></trkpt><trkpt lat="44.632584" lon="33.832226"><ele>358.4</ele><time>2011-10-10T11:09:32.0000000+00:00</time></trkpt><trkpt lat="44.632545" lon="33.832191"><ele>358.3</ele><time>2011-10-10T11:09:37.0000000+00:00</time></trkpt><trkpt lat="44.6325" lon="33.83218"><ele>358.2</ele><time>2011-10-10T11:09:42.0000000+00:00</time></trkpt><trkpt lat="44.6325" lon="33.83213"><ele>358.1</ele><time>2011-10-10T11:09:47.0000000+00:00</time></trkpt><trkpt lat="44.632481" lon="33.832104"><ele>357.9</ele><time>2011-10-10T11:09:52.0000000+00:00</time></trkpt><trkpt lat="44.632458" lon="33.832088"><ele>357.8</ele><time>2011-10-10T11:09:57.0000000+00:00</time></trkpt><trkpt lat="44.632462" lon="33.832054"><ele>357.7</ele><time>2011-10-10T11:10:02.0000000+00:00</time></trkpt><trkpt lat="44.632477" lon="33.83202"><ele>357.6</ele><time>2011-10-10T11:10:07.0000000+00:00</time></trkpt><trkpt lat="44.632458" lon="33.831993"><ele>357.5</ele><time>2011-10-10T11:10:12.0000000+00:00</time></trkpt><trkpt lat="44.632431" lon="33.831966"><ele>357.4</ele><time>2011-10-10T11:10:17.0000000+00:00</time></trkpt><trkpt lat="44.632431" lon="33.831917"><ele>357.1</ele><time>2011-10-10T11:10:22.0000000+00:00</time></trkpt><trkpt lat="44.632469" lon="33.831924"><ele>356.9</ele><time>2011-10-10T11:10:27.0000000+00:00</time></trkpt><trkpt lat="44.632465" lon="33.831932"><ele>356.7</ele><time>2011-10-10T11:10:32.0000000+00:00</time></trkpt><trkpt lat="44.632462" lon="33.831955"><ele>356.4</ele><time>2011-10-10T11:10:37.0000000+00:00</time></trkpt><trkpt lat="44.632488" lon="33.832012"><ele>356.1</ele><time>2011-10-10T11:10:42.0000000+00:00</time></trkpt><trkpt lat="44.632507" lon="33.832024"><ele>355.9</ele><time>2011-10-10T11:10:47.0000000+00:00</time></trkpt><trkpt lat="44.632549" lon="33.831989"><ele>355.5</ele><time>2011-10-10T11:10:52.0000000+00:00</time></trkpt><trkpt lat="44.632557" lon="33.831993"><ele>355.4</ele><time>2011-10-10T11:10:57.0000000+00:00</time></trkpt><trkpt lat="44.632584" lon="33.832001"><ele>355.3</ele><time>2011-10-10T11:11:02.0000000+00:00</time></trkpt><trkpt lat="44.632626" lon="33.831978"><ele>354.9</ele><time>2011-10-10T11:11:07.0000000+00:00</time></trkpt><trkpt lat="44.632679" lon="33.831963"><ele>354.6</ele><time>2011-10-10T11:11:12.0000000+00:00</time></trkpt><trkpt lat="44.632706" lon="33.831886"><ele>354.2</ele><time>2011-10-10T11:11:17.0000000+00:00</time></trkpt><trkpt lat="44.632721" lon="33.831821"><ele>353.8</ele><time>2011-10-10T11:11:22.0000000+00:00</time></trkpt><trkpt lat="44.632751" lon="33.831894"><ele>352.9</ele><time>2011-10-10T11:11:27.0000000+00:00</time></trkpt><trkpt lat="44.632793" lon="33.831932"><ele>352.4</ele><time>2011-10-10T11:11:32.0000000+00:00</time></trkpt><trkpt lat="44.632931" lon="33.832054"><ele>351.7</ele><time>2011-10-10T11:11:37.0000000+00:00</time></trkpt><trkpt lat="44.632942" lon="33.832058"><ele>351.4</ele><time>2011-10-10T11:11:42.0000000+00:00</time></trkpt><trkpt lat="44.632946" lon="33.832077"><ele>351.3</ele><time>2011-10-10T11:11:47.0000000+00:00</time></trkpt><trkpt lat="44.63295" lon="33.832085"><ele>351.3</ele><time>2011-10-10T11:11:52.0000000+00:00</time></trkpt><trkpt lat="44.63295" lon="33.832096"><ele>351.2</ele><time>2011-10-10T11:11:57.0000000+00:00</time></trkpt><trkpt lat="44.632946" lon="33.832096"><ele>351.2</ele><time>2011-10-10T11:12:02.0000000+00:00</time></trkpt><trkpt lat="44.633003" lon="33.831863"><ele>349.9</ele><time>2011-10-10T11:12:07.0000000+00:00</time></trkpt><trkpt lat="44.633018" lon="33.831738"><ele>349.4</ele><time>2011-10-10T11:12:12.0000000+00:00</time></trkpt><trkpt lat="44.633026" lon="33.831715"><ele>348.7</ele><time>2011-10-10T11:12:17.0000000+00:00</time></trkpt><trkpt lat="44.633026" lon="33.831753"><ele>348.0</ele><time>2011-10-10T11:12:22.0000000+00:00</time></trkpt><trkpt lat="44.63303" lon="33.831745"><ele>347.9</ele><time>2011-10-10T11:12:27.0000000+00:00</time></trkpt><trkpt lat="44.63303" lon="33.831745"><ele>347.8</ele><time>2011-10-10T11:12:32.0000000+00:00</time></trkpt><trkpt lat="44.63303" lon="33.831738"><ele>347.7</ele><time>2011-10-10T11:12:37.0000000+00:00</time></trkpt><trkpt lat="44.633026" lon="33.831757"><ele>347.4</ele><time>2011-10-10T11:12:42.0000000+00:00</time></trkpt><trkpt lat="44.633038" lon="33.831814"><ele>346.8</ele><time>2011-10-10T11:12:47.0000000+00:00</time></trkpt><trkpt lat="44.633003" lon="33.831863"><ele>345.9</ele><time>2011-10-10T11:12:52.0000000+00:00</time></trkpt><trkpt lat="44.632942" lon="33.831928"><ele>344.9</ele><time>2011-10-10T11:12:57.0000000+00:00</time></trkpt><trkpt lat="44.632835" lon="33.83205"><ele>343.4</ele><time>2011-10-10T11:13:02.0000000+00:00</time></trkpt><trkpt lat="44.632748" lon="33.832069"><ele>342.2</ele><time>2011-10-10T11:13:07.0000000+00:00</time></trkpt><trkpt lat="44.632683" lon="33.83205"><ele>341.3</ele><time>2011-10-10T11:13:12.0000000+00:00</time></trkpt><trkpt lat="44.632675" lon="33.832027"><ele>340.3</ele><time>2011-10-10T11:13:17.0000000+00:00</time></trkpt><trkpt lat="44.632687" lon="33.831985"><ele>339.2</ele><time>2011-10-10T11:13:22.0000000+00:00</time></trkpt><trkpt lat="44.632671" lon="33.831959"><ele>337.9</ele><time>2011-10-10T11:13:27.0000000+00:00</time></trkpt><trkpt lat="44.632648" lon="33.831944"><ele>336.3</ele><time>2011-10-10T11:13:32.0000000+00:00</time></trkpt><trkpt lat="44.632629" lon="33.831905"><ele>335.5</ele><time>2011-10-10T11:13:37.0000000+00:00</time></trkpt><trkpt lat="44.632629" lon="33.831821"><ele>334.9</ele><time>2011-10-10T11:13:42.0000000+00:00</time></trkpt><trkpt lat="44.632626" lon="33.831722"><ele>334.3</ele><time>2011-10-10T11:13:47.0000000+00:00</time></trkpt><trkpt lat="44.632584" lon="33.831665"><ele>333.9</ele><time>2011-10-10T11:13:52.0000000+00:00</time></trkpt><trkpt lat="44.632549" lon="33.831566"><ele>334.0</ele><time>2011-10-10T11:13:57.0000000+00:00</time></trkpt><trkpt lat="44.632504" lon="33.831467"><ele>334.2</ele><time>2011-10-10T11:14:02.0000000+00:00</time></trkpt><trkpt lat="44.632496" lon="33.831337"><ele>334.4</ele><time>2011-10-10T11:14:07.0000000+00:00</time></trkpt><trkpt lat="44.632423" lon="33.831257"><ele>334.5</ele><time>2011-10-10T11:14:12.0000000+00:00</time></trkpt><trkpt lat="44.632362" lon="33.831139"><ele>333.2</ele><time>2011-10-10T11:14:17.0000000+00:00</time></trkpt><trkpt lat="44.632351" lon="33.83099"><ele>331.9</ele><time>2011-10-10T11:14:22.0000000+00:00</time></trkpt><trkpt lat="44.632324" lon="33.830868"><ele>330.2</ele><time>2011-10-10T11:14:27.0000000+00:00</time></trkpt><trkpt lat="44.632221" lon="33.830826"><ele>329.9</ele><time>2011-10-10T11:14:32.0000000+00:00</time></trkpt><trkpt lat="44.632092" lon="33.830833"><ele>330.0</ele><time>2011-10-10T11:14:37.0000000+00:00</time></trkpt><trkpt lat="44.632038" lon="33.830845"><ele>330.4</ele><time>2011-10-10T11:14:42.0000000+00:00</time></trkpt><trkpt lat="44.631973" lon="33.830845"><ele>330.7</ele><time>2011-10-10T11:14:47.0000000+00:00</time></trkpt><trkpt lat="44.631973" lon="33.830769"><ele>330.3</ele><time>2011-10-10T11:14:52.0000000+00:00</time></trkpt><trkpt lat="44.631973" lon="33.830612"><ele>329.6</ele><time>2011-10-10T11:14:57.0000000+00:00</time></trkpt><trkpt lat="44.631824" lon="33.830528"><ele>329.7</ele><time>2011-10-10T11:15:02.0000000+00:00</time></trkpt><trkpt lat="44.631706" lon="33.830524"><ele>329.6</ele><time>2011-10-10T11:15:07.0000000+00:00</time></trkpt><trkpt lat="44.63168" lon="33.830463"><ele>329.6</ele><time>2011-10-10T11:15:12.0000000+00:00</time></trkpt><trkpt lat="44.631657" lon="33.830387"><ele>329.6</ele><time>2011-10-10T11:15:17.0000000+00:00</time></trkpt><trkpt lat="44.631653" lon="33.830357"><ele>329.5</ele><time>2011-10-10T11:15:22.0000000+00:00</time></trkpt><trkpt lat="44.631653" lon="33.83033"><ele>328.9</ele><time>2011-10-10T11:15:27.0000000+00:00</time></trkpt><trkpt lat="44.631649" lon="33.830261"><ele>327.1</ele><time>2011-10-10T11:15:32.0000000+00:00</time></trkpt><trkpt lat="44.631664" lon="33.830204"><ele>325.6</ele><time>2011-10-10T11:15:37.0000000+00:00</time></trkpt><trkpt lat="44.631615" lon="33.830151"><ele>322.4</ele><time>2011-10-10T11:15:42.0000000+00:00</time></trkpt><trkpt lat="44.63158" lon="33.830151"><ele>321.6</ele><time>2011-10-10T11:15:47.0000000+00:00</time></trkpt><trkpt lat="44.631527" lon="33.830181"><ele>320.7</ele><time>2011-10-10T11:15:52.0000000+00:00</time></trkpt><trkpt lat="44.631401" lon="33.830299"><ele>318.0</ele><time>2011-10-10T11:15:57.0000000+00:00</time></trkpt><trkpt lat="44.631439" lon="33.830322"><ele>315.9</ele><time>2011-10-10T11:16:02.0000000+00:00</time></trkpt><trkpt lat="44.631424" lon="33.830334"><ele>315.8</ele><time>2011-10-10T11:16:07.0000000+00:00</time></trkpt><trkpt lat="44.631397" lon="33.830357"><ele>315.6</ele><time>2011-10-10T11:16:12.0000000+00:00</time></trkpt><trkpt lat="44.631363" lon="33.830322"><ele>315.2</ele><time>2011-10-10T11:16:17.0000000+00:00</time></trkpt><trkpt lat="44.631332" lon="33.830276"><ele>314.5</ele><time>2011-10-10T11:16:22.0000000+00:00</time></trkpt><trkpt lat="44.631313" lon="33.830296"><ele>314.3</ele><time>2011-10-10T11:16:27.0000000+00:00</time></trkpt><trkpt lat="44.63129" lon="33.830315"><ele>314.1</ele><time>2011-10-10T11:16:32.0000000+00:00</time></trkpt><trkpt lat="44.631264" lon="33.830322"><ele>313.9</ele><time>2011-10-10T11:16:37.0000000+00:00</time></trkpt><trkpt lat="44.631191" lon="33.830292"><ele>313.0</ele><time>2011-10-10T11:16:42.0000000+00:00</time></trkpt><trkpt lat="44.631176" lon="33.830296"><ele>312.7</ele><time>2011-10-10T11:16:47.0000000+00:00</time></trkpt><trkpt lat="44.63118" lon="33.830349"><ele>312.6</ele><time>2011-10-10T11:16:52.0000000+00:00</time></trkpt><trkpt lat="44.631168" lon="33.830379"><ele>312.7</ele><time>2011-10-10T11:16:57.0000000+00:00</time></trkpt><trkpt lat="44.631145" lon="33.830418"><ele>312.9</ele><time>2011-10-10T11:17:02.0000000+00:00</time></trkpt><trkpt lat="44.631134" lon="33.830437"><ele>313.0</ele><time>2011-10-10T11:17:07.0000000+00:00</time></trkpt><trkpt lat="44.631138" lon="33.830502"><ele>313.0</ele><time>2011-10-10T11:17:12.0000000+00:00</time></trkpt><trkpt lat="44.6311" lon="33.830544"><ele>313.1</ele><time>2011-10-10T11:17:17.0000000+00:00</time></trkpt><trkpt lat="44.631058" lon="33.830544"><ele>313.3</ele><time>2011-10-10T11:17:22.0000000+00:00</time></trkpt><trkpt lat="44.631058" lon="33.830544"><ele>313.3</ele><time>2011-10-10T11:17:27.0000000+00:00</time></trkpt><trkpt lat="44.631058" lon="33.830544"><ele>313.4</ele><time>2011-10-10T11:17:32.0000000+00:00</time></trkpt><trkpt lat="44.631058" lon="33.83054"><ele>313.4</ele><time>2011-10-10T11:17:37.0000000+00:00</time></trkpt><trkpt lat="44.631058" lon="33.83054"><ele>313.4</ele><time>2011-10-10T11:17:42.0000000+00:00</time></trkpt><trkpt lat="44.631058" lon="33.83054"><ele>313.4</ele><time>2011-10-10T11:17:47.0000000+00:00</time></trkpt><trkpt lat="44.631058" lon="33.83054"><ele>313.4</ele><time>2011-10-10T11:17:52.0000000+00:00</time></trkpt><trkpt lat="44.631058" lon="33.83054"><ele>313.4</ele><time>2011-10-10T11:17:57.0000000+00:00</time></trkpt><trkpt lat="44.631054" lon="33.83054"><ele>313.4</ele><time>2011-10-10T11:18:02.0000000+00:00</time></trkpt><trkpt lat="44.63105" lon="33.830536"><ele>313.4</ele><time>2011-10-10T11:18:07.0000000+00:00</time></trkpt><trkpt lat="44.63105" lon="33.830532"><ele>313.4</ele><time>2011-10-10T11:18:12.0000000+00:00</time></trkpt><trkpt lat="44.63105" lon="33.830532"><ele>313.4</ele><time>2011-10-10T11:18:17.0000000+00:00</time></trkpt><trkpt lat="44.631046" lon="33.830528"><ele>313.4</ele><time>2011-10-10T11:18:22.0000000+00:00</time></trkpt><trkpt lat="44.631046" lon="33.830528"><ele>313.5</ele><time>2011-10-10T11:18:27.0000000+00:00</time></trkpt><trkpt lat="44.631042" lon="33.830524"><ele>313.5</ele><time>2011-10-10T11:18:32.0000000+00:00</time></trkpt><trkpt lat="44.631042" lon="33.830521"><ele>313.5</ele><time>2011-10-10T11:18:37.0000000+00:00</time></trkpt><trkpt lat="44.631039" lon="33.830517"><ele>313.5</ele><time>2011-10-10T11:18:42.0000000+00:00</time></trkpt><trkpt lat="44.631035" lon="33.830513"><ele>313.5</ele><time>2011-10-10T11:18:47.0000000+00:00</time></trkpt><trkpt lat="44.631031" lon="33.830505"><ele>313.5</ele><time>2011-10-10T11:18:52.0000000+00:00</time></trkpt><trkpt lat="44.631023" lon="33.830502"><ele>313.5</ele><time>2011-10-10T11:18:57.0000000+00:00</time></trkpt><trkpt lat="44.63102" lon="33.830494"><ele>313.5</ele><time>2011-10-10T11:19:02.0000000+00:00</time></trkpt><trkpt lat="44.631012" lon="33.830486"><ele>313.5</ele><time>2011-10-10T11:19:07.0000000+00:00</time></trkpt><trkpt lat="44.631004" lon="33.830482"><ele>313.5</ele><time>2011-10-10T11:19:12.0000000+00:00</time></trkpt><trkpt lat="44.631001" lon="33.830532"><ele>312.9</ele><time>2011-10-10T11:19:17.0000000+00:00</time></trkpt><trkpt lat="44.631012" lon="33.830601"><ele>312.0</ele><time>2011-10-10T11:19:22.0000000+00:00</time></trkpt><trkpt lat="44.631004" lon="33.830616"><ele>311.9</ele><time>2011-10-10T11:19:27.0000000+00:00</time></trkpt><trkpt lat="44.630997" lon="33.83062"><ele>311.9</ele><time>2011-10-10T11:19:32.0000000+00:00</time></trkpt><trkpt lat="44.630993" lon="33.83062"><ele>311.8</ele><time>2011-10-10T11:19:37.0000000+00:00</time></trkpt><trkpt lat="44.631001" lon="33.83062"><ele>311.8</ele><time>2011-10-10T11:19:42.0000000+00:00</time></trkpt><trkpt lat="44.631004" lon="33.83062"><ele>311.7</ele><time>2011-10-10T11:19:47.0000000+00:00</time></trkpt><trkpt lat="44.631012" lon="33.830631"><ele>311.7</ele><time>2011-10-10T11:19:52.0000000+00:00</time></trkpt><trkpt lat="44.631016" lon="33.830639"><ele>311.6</ele><time>2011-10-10T11:19:57.0000000+00:00</time></trkpt><trkpt lat="44.631016" lon="33.830643"><ele>311.5</ele><time>2011-10-10T11:20:02.0000000+00:00</time></trkpt><trkpt lat="44.63102" lon="33.830647"><ele>311.5</ele><time>2011-10-10T11:20:07.0000000+00:00</time></trkpt><trkpt lat="44.631023" lon="33.830647"><ele>311.4</ele><time>2011-10-10T11:20:12.0000000+00:00</time></trkpt><trkpt lat="44.631023" lon="33.83065"><ele>311.3</ele><time>2011-10-10T11:20:17.0000000+00:00</time></trkpt><trkpt lat="44.631023" lon="33.830654"><ele>311.3</ele><time>2011-10-10T11:20:22.0000000+00:00</time></trkpt><trkpt lat="44.631016" lon="33.830662"><ele>311.2</ele><time>2011-10-10T11:20:27.0000000+00:00</time></trkpt><trkpt lat="44.630989" lon="33.830666"><ele>311.1</ele><time>2011-10-10T11:20:32.0000000+00:00</time></trkpt><trkpt lat="44.63097" lon="33.830677"><ele>311.3</ele><time>2011-10-10T11:20:37.0000000+00:00</time></trkpt><trkpt lat="44.630955" lon="33.830673"><ele>311.3</ele><time>2011-10-10T11:20:42.0000000+00:00</time></trkpt><trkpt lat="44.630993" lon="33.830723"><ele>310.7</ele><time>2011-10-10T11:20:47.0000000+00:00</time></trkpt><trkpt lat="44.631027" lon="33.830711"><ele>310.2</ele><time>2011-10-10T11:20:52.0000000+00:00</time></trkpt><trkpt lat="44.63102" lon="33.830688"><ele>309.7</ele><time>2011-10-10T11:20:57.0000000+00:00</time></trkpt><trkpt lat="44.631001" lon="33.830677"><ele>309.4</ele><time>2011-10-10T11:21:02.0000000+00:00</time></trkpt><trkpt lat="44.630951" lon="33.830669"><ele>309.2</ele><time>2011-10-10T11:21:07.0000000+00:00</time></trkpt><trkpt lat="44.630947" lon="33.830627"><ele>308.9</ele><time>2011-10-10T11:21:12.0000000+00:00</time></trkpt><trkpt lat="44.630966" lon="33.830635"><ele>308.7</ele><time>2011-10-10T11:21:17.0000000+00:00</time></trkpt><trkpt lat="44.630962" lon="33.830421"><ele>308.3</ele><time>2011-10-10T11:21:22.0000000+00:00</time></trkpt><trkpt lat="44.630623" lon="33.830338"><ele>308.0</ele><time>2011-10-10T11:21:27.0000000+00:00</time></trkpt><trkpt lat="44.630634" lon="33.830391"><ele>307.8</ele><time>2011-10-10T11:21:32.0000000+00:00</time></trkpt><trkpt lat="44.630543" lon="33.83025"><ele>307.2</ele><time>2011-10-10T11:21:37.0000000+00:00</time></trkpt><trkpt lat="44.630585" lon="33.830307"><ele>307.0</ele><time>2011-10-10T11:21:42.0000000+00:00</time></trkpt><trkpt lat="44.630653" lon="33.830334"><ele>306.8</ele><time>2011-10-10T11:21:47.0000000+00:00</time></trkpt><trkpt lat="44.63065" lon="33.830341"><ele>306.6</ele><time>2011-10-10T11:21:52.0000000+00:00</time></trkpt><trkpt lat="44.630669" lon="33.830322"><ele>306.4</ele><time>2011-10-10T11:21:57.0000000+00:00</time></trkpt><trkpt lat="44.630604" lon="33.830154"><ele>304.1</ele><time>2011-10-10T11:22:02.0000000+00:00</time></trkpt><trkpt lat="44.630581" lon="33.829983"><ele>299.8</ele><time>2011-10-10T11:22:07.0000000+00:00</time></trkpt><trkpt lat="44.630661" lon="33.830009"><ele>299.6</ele><time>2011-10-10T11:22:12.0000000+00:00</time></trkpt><trkpt lat="44.630676" lon="33.829945"><ele>299.6</ele><time>2011-10-10T11:22:17.0000000+00:00</time></trkpt><trkpt lat="44.630665" lon="33.830013"><ele>299.7</ele><time>2011-10-10T11:22:22.0000000+00:00</time></trkpt><trkpt lat="44.630634" lon="33.830105"><ele>299.7</ele><time>2011-10-10T11:22:27.0000000+00:00</time></trkpt><trkpt lat="44.630463" lon="33.830128"><ele>299.6</ele><time>2011-10-10T11:22:32.0000000+00:00</time></trkpt><trkpt lat="44.630089" lon="33.830101"><ele>298.9</ele><time>2011-10-10T11:22:37.0000000+00:00</time></trkpt><trkpt lat="44.62986" lon="33.83007"><ele>298.5</ele><time>2011-10-10T11:22:42.0000000+00:00</time></trkpt><trkpt lat="44.629665" lon="33.83007"><ele>298.1</ele><time>2011-10-10T11:22:47.0000000+00:00</time></trkpt><trkpt lat="44.629585" lon="33.830051"><ele>297.8</ele><time>2011-10-10T11:22:52.0000000+00:00</time></trkpt><trkpt lat="44.629566" lon="33.83004"><ele>297.7</ele><time>2011-10-10T11:22:57.0000000+00:00</time></trkpt><trkpt lat="44.629559" lon="33.830036"><ele>297.7</ele><time>2011-10-10T11:23:02.0000000+00:00</time></trkpt><trkpt lat="44.629494" lon="33.829948"><ele>297.4</ele><time>2011-10-10T11:23:07.0000000+00:00</time></trkpt><trkpt lat="44.629471" lon="33.829933"><ele>296.9</ele><time>2011-10-10T11:23:12.0000000+00:00</time></trkpt><trkpt lat="44.629444" lon="33.82988"><ele>296.5</ele><time>2011-10-10T11:23:17.0000000+00:00</time></trkpt><trkpt lat="44.629414" lon="33.829845"><ele>296.0</ele><time>2011-10-10T11:23:22.0000000+00:00</time></trkpt><trkpt lat="44.629417" lon="33.829845"><ele>295.8</ele><time>2011-10-10T11:23:27.0000000+00:00</time></trkpt><trkpt lat="44.629395" lon="33.829842"><ele>295.4</ele><time>2011-10-10T11:23:32.0000000+00:00</time></trkpt><trkpt lat="44.629448" lon="33.829765"><ele>294.9</ele><time>2011-10-10T11:23:37.0000000+00:00</time></trkpt><trkpt lat="44.629517" lon="33.829689"><ele>294.2</ele><time>2011-10-10T11:23:42.0000000+00:00</time></trkpt><trkpt lat="44.629524" lon="33.82967"><ele>294.0</ele><time>2011-10-10T11:23:47.0000000+00:00</time></trkpt><trkpt lat="44.629448" lon="33.829666"><ele>294.0</ele><time>2011-10-10T11:23:52.0000000+00:00</time></trkpt><trkpt lat="44.629368" lon="33.829609"><ele>293.9</ele><time>2011-10-10T11:23:57.0000000+00:00</time></trkpt><trkpt lat="44.629242" lon="33.829441"><ele>293.8</ele><time>2011-10-10T11:24:02.0000000+00:00</time></trkpt><trkpt lat="44.629097" lon="33.829327"><ele>293.6</ele><time>2011-10-10T11:24:07.0000000+00:00</time></trkpt><trkpt lat="44.628929" lon="33.829243"><ele>293.2</ele><time>2011-10-10T11:24:12.0000000+00:00</time></trkpt><trkpt lat="44.628777" lon="33.82917"><ele>292.9</ele><time>2011-10-10T11:24:17.0000000+00:00</time></trkpt><trkpt lat="44.628654" lon="33.829075"><ele>292.7</ele><time>2011-10-10T11:24:22.0000000+00:00</time></trkpt><trkpt lat="44.629734" lon="33.829483"><ele>291.6</ele><time>2011-10-10T11:25:37.0000000+00:00</time></trkpt><trkpt lat="44.629799" lon="33.829525"><ele>292.0</ele><time>2011-10-10T11:25:42.0000000+00:00</time></trkpt><trkpt lat="44.629818" lon="33.829784"><ele>294.2</ele><time>2011-10-10T11:25:47.0000000+00:00</time></trkpt><trkpt lat="44.631016" lon="33.830563"><ele>294.2</ele><time>2011-10-10T11:25:52.0000000+00:00</time></trkpt><trkpt lat="44.63105" lon="33.830879"><ele>292.1</ele><time>2011-10-10T11:25:57.0000000+00:00</time></trkpt><trkpt lat="44.631023" lon="33.830944"><ele>286.3</ele><time>2011-10-10T11:26:02.0000000+00:00</time></trkpt><trkpt lat="44.631031" lon="33.830944"><ele>283.3</ele><time>2011-10-10T11:26:07.0000000+00:00</time></trkpt><trkpt lat="44.631054" lon="33.830914"><ele>282.4</ele><time>2011-10-10T11:26:12.0000000+00:00</time></trkpt><trkpt lat="44.631119" lon="33.830864"><ele>277.8</ele><time>2011-10-10T11:26:17.0000000+00:00</time></trkpt><trkpt lat="44.63113" lon="33.830856"><ele>277.1</ele><time>2011-10-10T11:26:22.0000000+00:00</time></trkpt><trkpt lat="44.631134" lon="33.83086"><ele>277.0</ele><time>2011-10-10T11:26:27.0000000+00:00</time></trkpt><trkpt lat="44.631123" lon="33.830868"><ele>277.0</ele><time>2011-10-10T11:26:32.0000000+00:00</time></trkpt><trkpt lat="44.631111" lon="33.830921"><ele>277.3</ele><time>2011-10-10T11:26:37.0000000+00:00</time></trkpt><trkpt lat="44.631123" lon="33.830902"><ele>277.9</ele><time>2011-10-10T11:26:42.0000000+00:00</time></trkpt><trkpt lat="44.631081" lon="33.830814"><ele>277.7</ele><time>2011-10-10T11:26:47.0000000+00:00</time></trkpt><trkpt lat="44.631062" lon="33.830776"><ele>277.6</ele><time>2011-10-10T11:26:52.0000000+00:00</time></trkpt><trkpt lat="44.631004" lon="33.830708"><ele>277.7</ele><time>2011-10-10T11:26:57.0000000+00:00</time></trkpt><trkpt lat="44.630993" lon="33.830654"><ele>277.9</ele><time>2011-10-10T11:27:02.0000000+00:00</time></trkpt><trkpt lat="44.63097" lon="33.83062"><ele>278.3</ele><time>2011-10-10T11:27:07.0000000+00:00</time></trkpt><trkpt lat="44.631008" lon="33.830643"><ele>279.0</ele><time>2011-10-10T11:27:12.0000000+00:00</time></trkpt><trkpt lat="44.631027" lon="33.830631"><ele>279.2</ele><time>2011-10-10T11:27:17.0000000+00:00</time></trkpt><trkpt lat="44.631027" lon="33.83062"><ele>279.2</ele><time>2011-10-10T11:27:22.0000000+00:00</time></trkpt><trkpt lat="44.631153" lon="33.830555"><ele>280.0</ele><time>2011-10-10T11:27:27.0000000+00:00</time></trkpt><trkpt lat="44.631271" lon="33.830631"><ele>281.3</ele><time>2011-10-10T11:27:32.0000000+00:00</time></trkpt><trkpt lat="44.63134" lon="33.830708"><ele>281.6</ele><time>2011-10-10T11:27:37.0000000+00:00</time></trkpt><trkpt lat="44.631355" lon="33.830715"><ele>281.7</ele><time>2011-10-10T11:27:42.0000000+00:00</time></trkpt><trkpt lat="44.631351" lon="33.830719"><ele>281.7</ele><time>2011-10-10T11:27:47.0000000+00:00</time></trkpt><trkpt lat="44.631348" lon="33.830715"><ele>281.8</ele><time>2011-10-10T11:27:52.0000000+00:00</time></trkpt><trkpt lat="44.631348" lon="33.830708"><ele>281.9</ele><time>2011-10-10T11:27:57.0000000+00:00</time></trkpt><trkpt lat="44.631348" lon="33.830692"><ele>282.0</ele><time>2011-10-10T11:28:02.0000000+00:00</time></trkpt><trkpt lat="44.631351" lon="33.830677"><ele>282.0</ele><time>2011-10-10T11:28:07.0000000+00:00</time></trkpt><trkpt lat="44.631355" lon="33.830616"><ele>282.1</ele><time>2011-10-10T11:28:12.0000000+00:00</time></trkpt><trkpt lat="44.631355" lon="33.830547"><ele>282.2</ele><time>2011-10-10T11:28:17.0000000+00:00</time></trkpt><trkpt lat="44.631386" lon="33.830463"><ele>282.2</ele><time>2011-10-10T11:28:22.0000000+00:00</time></trkpt><trkpt lat="44.631371" lon="33.830395"><ele>282.3</ele><time>2011-10-10T11:28:27.0000000+00:00</time></trkpt><trkpt lat="44.631363" lon="33.830406"><ele>282.3</ele><time>2011-10-10T11:28:32.0000000+00:00</time></trkpt><trkpt lat="44.631374" lon="33.830437"><ele>282.4</ele><time>2011-10-10T11:28:37.0000000+00:00</time></trkpt><trkpt lat="44.631382" lon="33.830425"><ele>282.4</ele><time>2011-10-10T11:28:42.0000000+00:00</time></trkpt><trkpt lat="44.631382" lon="33.830387"><ele>282.5</ele><time>2011-10-10T11:28:47.0000000+00:00</time></trkpt><trkpt lat="44.631382" lon="33.83041"><ele>282.6</ele><time>2011-10-10T11:28:52.0000000+00:00</time></trkpt><trkpt lat="44.63139" lon="33.830414"><ele>282.7</ele><time>2011-10-10T11:28:57.0000000+00:00</time></trkpt><trkpt lat="44.631393" lon="33.830414"><ele>282.8</ele><time>2011-10-10T11:29:02.0000000+00:00</time></trkpt><trkpt lat="44.631241" lon="33.82795"><ele>253.6</ele><time>2011-10-10T11:29:25.0000000+00:00</time></trkpt><trkpt lat="44.63129" lon="33.827888"><ele>273.5</ele><time>2011-10-10T11:29:30.0000000+00:00</time></trkpt><trkpt lat="44.631496" lon="33.828011"><ele>273.8</ele><time>2011-10-10T11:29:35.0000000+00:00</time></trkpt><trkpt lat="44.631634" lon="33.827995"><ele>274.0</ele><time>2011-10-10T11:29:40.0000000+00:00</time></trkpt><trkpt lat="44.631706" lon="33.827904"><ele>274.4</ele><time>2011-10-10T11:29:45.0000000+00:00</time></trkpt><trkpt lat="44.631672" lon="33.82798"><ele>275.5</ele><time>2011-10-10T11:29:50.0000000+00:00</time></trkpt><trkpt lat="44.631527" lon="33.827877"><ele>275.8</ele><time>2011-10-10T11:29:55.0000000+00:00</time></trkpt><trkpt lat="44.631538" lon="33.828007"><ele>276.0</ele><time>2011-10-10T11:30:00.0000000+00:00</time></trkpt><trkpt lat="44.631401" lon="33.828175"><ele>276.9</ele><time>2011-10-10T11:30:05.0000000+00:00</time></trkpt><trkpt lat="44.631447" lon="33.828285"><ele>277.2</ele><time>2011-10-10T11:30:10.0000000+00:00</time></trkpt><trkpt lat="44.63134" lon="33.828514"><ele>278.0</ele><time>2011-10-10T11:30:15.0000000+00:00</time></trkpt><trkpt lat="44.631378" lon="33.82877"><ele>278.7</ele><time>2011-10-10T11:30:20.0000000+00:00</time></trkpt><trkpt lat="44.631523" lon="33.828857"><ele>279.4</ele><time>2011-10-10T11:30:25.0000000+00:00</time></trkpt><trkpt lat="44.631454" lon="33.828941"><ele>280.5</ele><time>2011-10-10T11:30:30.0000000+00:00</time></trkpt><trkpt lat="44.631214" lon="33.829414"><ele>281.6</ele><time>2011-10-10T11:30:35.0000000+00:00</time></trkpt><trkpt lat="44.631207" lon="33.829762"><ele>282.8</ele><time>2011-10-10T11:30:40.0000000+00:00</time></trkpt><trkpt lat="44.631168" lon="33.830051"><ele>284.3</ele><time>2011-10-10T11:30:45.0000000+00:00</time></trkpt><trkpt lat="44.631294" lon="33.8302"><ele>285.1</ele><time>2011-10-10T11:30:50.0000000+00:00</time></trkpt><trkpt lat="44.631321" lon="33.830242"><ele>285.2</ele><time>2011-10-10T11:30:55.0000000+00:00</time></trkpt><trkpt lat="44.631382" lon="33.830284"><ele>285.3</ele><time>2011-10-10T11:31:00.0000000+00:00</time></trkpt><trkpt lat="44.631401" lon="33.83033"><ele>285.6</ele><time>2011-10-10T11:31:05.0000000+00:00</time></trkpt><trkpt lat="44.631493" lon="33.830345"><ele>285.8</ele><time>2011-10-10T11:31:10.0000000+00:00</time></trkpt><trkpt lat="44.631527" lon="33.830334"><ele>285.8</ele><time>2011-10-10T11:31:15.0000000+00:00</time></trkpt><trkpt lat="44.631542" lon="33.830349"><ele>285.9</ele><time>2011-10-10T11:31:20.0000000+00:00</time></trkpt><trkpt lat="44.631584" lon="33.830368"><ele>286.0</ele><time>2011-10-10T11:31:25.0000000+00:00</time></trkpt><trkpt lat="44.631622" lon="33.830399"><ele>286.1</ele><time>2011-10-10T11:31:30.0000000+00:00</time></trkpt><trkpt lat="44.631645" lon="33.830387"><ele>286.2</ele><time>2011-10-10T11:31:35.0000000+00:00</time></trkpt><trkpt lat="44.631641" lon="33.830421"><ele>286.3</ele><time>2011-10-10T11:31:40.0000000+00:00</time></trkpt><trkpt lat="44.63163" lon="33.830528"><ele>286.4</ele><time>2011-10-10T11:31:45.0000000+00:00</time></trkpt><trkpt lat="44.631638" lon="33.830597"><ele>286.4</ele><time>2011-10-10T11:31:50.0000000+00:00</time></trkpt><trkpt lat="44.631641" lon="33.830593"><ele>286.4</ele><time>2011-10-10T11:31:55.0000000+00:00</time></trkpt><trkpt lat="44.631649" lon="33.830582"><ele>286.4</ele><time>2011-10-10T11:32:00.0000000+00:00</time></trkpt><trkpt lat="44.631683" lon="33.830494"><ele>286.7</ele><time>2011-10-10T11:32:05.0000000+00:00</time></trkpt><trkpt lat="44.631687" lon="33.830357"><ele>287.5</ele><time>2011-10-10T11:32:10.0000000+00:00</time></trkpt><trkpt lat="44.631664" lon="33.830349"><ele>287.7</ele><time>2011-10-10T11:32:15.0000000+00:00</time></trkpt><trkpt lat="44.63166" lon="33.830296"><ele>287.7</ele><time>2011-10-10T11:32:20.0000000+00:00</time></trkpt><trkpt lat="44.631664" lon="33.83025"><ele>287.8</ele><time>2011-10-10T11:32:25.0000000+00:00</time></trkpt><trkpt lat="44.631664" lon="33.830235"><ele>287.8</ele><time>2011-10-10T11:32:30.0000000+00:00</time></trkpt><trkpt lat="44.631664" lon="33.830227"><ele>287.8</ele><time>2011-10-10T11:32:35.0000000+00:00</time></trkpt><trkpt lat="44.631744" lon="33.830204"><ele>288.1</ele><time>2011-10-10T11:32:40.0000000+00:00</time></trkpt><trkpt lat="44.631824" lon="33.830177"><ele>288.9</ele><time>2011-10-10T11:32:45.0000000+00:00</time></trkpt><trkpt lat="44.631859" lon="33.830109"><ele>290.3</ele><time>2011-10-10T11:32:50.0000000+00:00</time></trkpt><trkpt lat="44.631832" lon="33.830284"><ele>291.2</ele><time>2011-10-10T11:32:55.0000000+00:00</time></trkpt><trkpt lat="44.631821" lon="33.830353"><ele>292.4</ele><time>2011-10-10T11:33:00.0000000+00:00</time></trkpt><trkpt lat="44.631821" lon="33.830406"><ele>292.7</ele><time>2011-10-10T11:33:05.0000000+00:00</time></trkpt><trkpt lat="44.631821" lon="33.830418"><ele>292.7</ele><time>2011-10-10T11:33:10.0000000+00:00</time></trkpt><trkpt lat="44.631821" lon="33.830433"><ele>292.7</ele><time>2011-10-10T11:33:15.0000000+00:00</time></trkpt><trkpt lat="44.630257" lon="33.828815"><ele>369.1</ele><time>2011-10-10T11:33:48.0000000+00:00</time></trkpt><trkpt lat="44.630402" lon="33.829098"><ele>351.5</ele><time>2011-10-10T11:33:53.0000000+00:00</time></trkpt><trkpt lat="44.63015" lon="33.829124"><ele>337.4</ele><time>2011-10-10T11:33:58.0000000+00:00</time></trkpt><trkpt lat="44.630058" lon="33.829178"><ele>331.5</ele><time>2011-10-10T11:34:03.0000000+00:00</time></trkpt><trkpt lat="44.630054" lon="33.829174"><ele>331.3</ele><time>2011-10-10T11:34:08.0000000+00:00</time></trkpt><trkpt lat="44.630058" lon="33.829166"><ele>331.3</ele><time>2011-10-10T11:34:13.0000000+00:00</time></trkpt><trkpt lat="44.630054" lon="33.829163"><ele>331.0</ele><time>2011-10-10T11:34:18.0000000+00:00</time></trkpt><trkpt lat="44.630054" lon="33.829159"><ele>330.8</ele><time>2011-10-10T11:34:23.0000000+00:00</time></trkpt><trkpt lat="44.630054" lon="33.829159"><ele>330.6</ele><time>2011-10-10T11:34:28.0000000+00:00</time></trkpt><trkpt lat="44.630062" lon="33.829163"><ele>330.4</ele><time>2011-10-10T11:34:33.0000000+00:00</time></trkpt><trkpt lat="44.630062" lon="33.829174"><ele>328.9</ele><time>2011-10-10T11:34:38.0000000+00:00</time></trkpt><trkpt lat="44.630009" lon="33.829262"><ele>325.5</ele><time>2011-10-10T11:34:43.0000000+00:00</time></trkpt><trkpt lat="44.629986" lon="33.829308"><ele>324.8</ele><time>2011-10-10T11:34:48.0000000+00:00</time></trkpt><trkpt lat="44.629925" lon="33.829346"><ele>323.1</ele><time>2011-10-10T11:34:53.0000000+00:00</time></trkpt><trkpt lat="44.629856" lon="33.829388"><ele>321.2</ele><time>2011-10-10T11:34:58.0000000+00:00</time></trkpt><trkpt lat="44.629765" lon="33.829445"><ele>319.6</ele><time>2011-10-10T11:35:03.0000000+00:00</time></trkpt><trkpt lat="44.629669" lon="33.829525"><ele>319.5</ele><time>2011-10-10T11:35:08.0000000+00:00</time></trkpt><trkpt lat="44.629513" lon="33.829624"><ele>321.3</ele><time>2011-10-10T11:35:13.0000000+00:00</time></trkpt><trkpt lat="44.629448" lon="33.829708"><ele>320.5</ele><time>2011-10-10T11:35:18.0000000+00:00</time></trkpt><trkpt lat="44.629375" lon="33.829807"><ele>319.7</ele><time>2011-10-10T11:35:23.0000000+00:00</time></trkpt><trkpt lat="44.629284" lon="33.82983"><ele>317.8</ele><time>2011-10-10T11:35:28.0000000+00:00</time></trkpt><trkpt lat="44.629185" lon="33.829868"><ele>316.0</ele><time>2011-10-10T11:35:33.0000000+00:00</time></trkpt><trkpt lat="44.629101" lon="33.829861"><ele>315.2</ele><time>2011-10-10T11:35:38.0000000+00:00</time></trkpt><trkpt lat="44.629013" lon="33.829845"><ele>314.0</ele><time>2011-10-10T11:35:43.0000000+00:00</time></trkpt><trkpt lat="44.628963" lon="33.82983"><ele>312.4</ele><time>2011-10-10T11:35:48.0000000+00:00</time></trkpt><trkpt lat="44.628902" lon="33.829819"><ele>313.0</ele><time>2011-10-10T11:35:53.0000000+00:00</time></trkpt><trkpt lat="44.628731" lon="33.82999"><ele>311.0</ele><time>2011-10-10T11:35:58.0000000+00:00</time></trkpt><trkpt lat="44.628712" lon="33.830009"><ele>311.0</ele><time>2011-10-10T11:36:03.0000000+00:00</time></trkpt><trkpt lat="44.62878" lon="33.830109"><ele>311.3</ele><time>2011-10-10T11:36:08.0000000+00:00</time></trkpt><trkpt lat="44.628777" lon="33.830128"><ele>311.3</ele><time>2011-10-10T11:36:13.0000000+00:00</time></trkpt><trkpt lat="44.62878" lon="33.830135"><ele>311.3</ele><time>2011-10-10T11:36:18.0000000+00:00</time></trkpt><trkpt lat="44.62878" lon="33.830139"><ele>311.2</ele><time>2011-10-10T11:36:23.0000000+00:00</time></trkpt><trkpt lat="44.62878" lon="33.830132"><ele>311.2</ele><time>2011-10-10T11:36:28.0000000+00:00</time></trkpt><trkpt lat="44.62878" lon="33.83012"><ele>311.2</ele><time>2011-10-10T11:36:33.0000000+00:00</time></trkpt><trkpt lat="44.628792" lon="33.830055"><ele>311.1</ele><time>2011-10-10T11:36:38.0000000+00:00</time></trkpt><trkpt lat="44.628799" lon="33.829987"><ele>310.9</ele><time>2011-10-10T11:36:43.0000000+00:00</time></trkpt><trkpt lat="44.628742" lon="33.829971"><ele>310.6</ele><time>2011-10-10T11:36:48.0000000+00:00</time></trkpt><trkpt lat="44.628689" lon="33.829964"><ele>310.1</ele><time>2011-10-10T11:36:53.0000000+00:00</time></trkpt><trkpt lat="44.628651" lon="33.829983"><ele>310.1</ele><time>2011-10-10T11:36:58.0000000+00:00</time></trkpt><trkpt lat="44.628647" lon="33.829979"><ele>310.0</ele><time>2011-10-10T11:37:03.0000000+00:00</time></trkpt><trkpt lat="44.628647" lon="33.829983"><ele>310.1</ele><time>2011-10-10T11:37:08.0000000+00:00</time></trkpt><trkpt lat="44.628613" lon="33.830002"><ele>310.1</ele><time>2011-10-10T11:37:13.0000000+00:00</time></trkpt><trkpt lat="44.628586" lon="33.830029"><ele>310.1</ele><time>2011-10-10T11:37:18.0000000+00:00</time></trkpt><trkpt lat="44.628555" lon="33.830013"><ele>309.8</ele><time>2011-10-10T11:37:23.0000000+00:00</time></trkpt><trkpt lat="44.628551" lon="33.830013"><ele>309.8</ele><time>2011-10-10T11:37:28.0000000+00:00</time></trkpt><trkpt lat="44.628544" lon="33.830017"><ele>309.8</ele><time>2011-10-10T11:37:33.0000000+00:00</time></trkpt><trkpt lat="44.62854" lon="33.830029"><ele>309.8</ele><time>2011-10-10T11:37:38.0000000+00:00</time></trkpt><trkpt lat="44.628525" lon="33.830021"><ele>309.8</ele><time>2011-10-10T11:37:43.0000000+00:00</time></trkpt><trkpt lat="44.628532" lon="33.830025"><ele>309.7</ele><time>2011-10-10T11:37:48.0000000+00:00</time></trkpt><trkpt lat="44.628525" lon="33.830051"><ele>309.7</ele><time>2011-10-10T11:37:53.0000000+00:00</time></trkpt><trkpt lat="44.628384" lon="33.830086"><ele>309.8</ele><time>2011-10-10T11:37:58.0000000+00:00</time></trkpt><trkpt lat="44.62851" lon="33.830048"><ele>309.6</ele><time>2011-10-10T11:38:03.0000000+00:00</time></trkpt><trkpt lat="44.62849" lon="33.830051"><ele>309.6</ele><time>2011-10-10T11:38:08.0000000+00:00</time></trkpt><trkpt lat="44.628418" lon="33.830074"><ele>309.7</ele><time>2011-10-10T11:38:13.0000000+00:00</time></trkpt><trkpt lat="44.628395" lon="33.830086"><ele>309.7</ele><time>2011-10-10T11:38:18.0000000+00:00</time></trkpt><trkpt lat="44.628403" lon="33.830112"><ele>309.7</ele><time>2011-10-10T11:38:23.0000000+00:00</time></trkpt><trkpt lat="44.628403" lon="33.830112"><ele>309.7</ele><time>2011-10-10T11:38:28.0000000+00:00</time></trkpt><trkpt lat="44.628384" lon="33.830116"><ele>309.7</ele><time>2011-10-10T11:38:33.0000000+00:00</time></trkpt><trkpt lat="44.628323" lon="33.830143"><ele>310.0</ele><time>2011-10-10T11:38:38.0000000+00:00</time></trkpt><trkpt lat="44.628315" lon="33.83017"><ele>309.9</ele><time>2011-10-10T11:38:43.0000000+00:00</time></trkpt><trkpt lat="44.628296" lon="33.830173"><ele>309.9</ele><time>2011-10-10T11:38:48.0000000+00:00</time></trkpt><trkpt lat="44.628288" lon="33.830162"><ele>309.9</ele><time>2011-10-10T11:38:53.0000000+00:00</time></trkpt><trkpt lat="44.628284" lon="33.830162"><ele>309.9</ele><time>2011-10-10T11:38:58.0000000+00:00</time></trkpt><trkpt lat="44.628315" lon="33.830132"><ele>310.7</ele><time>2011-10-10T11:39:03.0000000+00:00</time></trkpt><trkpt lat="44.628315" lon="33.830112"><ele>310.8</ele><time>2011-10-10T11:39:08.0000000+00:00</time></trkpt><trkpt lat="44.628323" lon="33.830101"><ele>310.9</ele><time>2011-10-10T11:39:13.0000000+00:00</time></trkpt><trkpt lat="44.62849" lon="33.829964"><ele>314.1</ele><time>2011-10-10T11:39:18.0000000+00:00</time></trkpt><trkpt lat="44.628559" lon="33.829967"><ele>315.7</ele><time>2011-10-10T11:39:23.0000000+00:00</time></trkpt><trkpt lat="44.628593" lon="33.82996"><ele>316.4</ele><time>2011-10-10T11:39:28.0000000+00:00</time></trkpt><trkpt lat="44.628735" lon="33.829998"><ele>322.3</ele><time>2011-10-10T11:39:33.0000000+00:00</time></trkpt><trkpt lat="44.628597" lon="33.830067"><ele>326.2</ele><time>2011-10-10T11:39:38.0000000+00:00</time></trkpt><trkpt lat="44.628571" lon="33.830093"><ele>327.1</ele><time>2011-10-10T11:39:43.0000000+00:00</time></trkpt><trkpt lat="44.628571" lon="33.830101"><ele>327.3</ele><time>2011-10-10T11:39:48.0000000+00:00</time></trkpt><trkpt lat="44.628567" lon="33.830109"><ele>327.5</ele><time>2011-10-10T11:39:53.0000000+00:00</time></trkpt><trkpt lat="44.628567" lon="33.830112"><ele>327.6</ele><time>2011-10-10T11:39:58.0000000+00:00</time></trkpt><trkpt lat="44.628567" lon="33.830132"><ele>328.1</ele><time>2011-10-10T11:40:03.0000000+00:00</time></trkpt><trkpt lat="44.628571" lon="33.830147"><ele>328.4</ele><time>2011-10-10T11:40:08.0000000+00:00</time></trkpt><trkpt lat="44.628571" lon="33.830166"><ele>328.8</ele><time>2011-10-10T11:40:13.0000000+00:00</time></trkpt><trkpt lat="44.628578" lon="33.830189"><ele>329.5</ele><time>2011-10-10T11:40:18.0000000+00:00</time></trkpt><trkpt lat="44.628582" lon="33.830193"><ele>329.7</ele><time>2011-10-10T11:40:23.0000000+00:00</time></trkpt><trkpt lat="44.628586" lon="33.8302"><ele>329.9</ele><time>2011-10-10T11:40:28.0000000+00:00</time></trkpt><trkpt lat="44.628601" lon="33.830212"><ele>330.8</ele><time>2011-10-10T11:40:33.0000000+00:00</time></trkpt><trkpt lat="44.628601" lon="33.830215"><ele>331.0</ele><time>2011-10-10T11:40:38.0000000+00:00</time></trkpt><trkpt lat="44.628597" lon="33.830212"><ele>331.5</ele><time>2011-10-10T11:40:43.0000000+00:00</time></trkpt><trkpt lat="44.628593" lon="33.830208"><ele>332.1</ele><time>2011-10-10T11:40:48.0000000+00:00</time></trkpt><trkpt lat="44.628597" lon="33.8302"><ele>332.9</ele><time>2011-10-10T11:40:53.0000000+00:00</time></trkpt><trkpt lat="44.628605" lon="33.830189"><ele>333.9</ele><time>2011-10-10T11:40:58.0000000+00:00</time></trkpt><trkpt lat="44.628723" lon="33.830181"><ele>336.9</ele><time>2011-10-10T11:41:03.0000000+00:00</time></trkpt><trkpt lat="44.628857" lon="33.830177"><ele>340.4</ele><time>2011-10-10T11:41:08.0000000+00:00</time></trkpt><trkpt lat="44.628975" lon="33.830181"><ele>343.3</ele><time>2011-10-10T11:41:13.0000000+00:00</time></trkpt><trkpt lat="44.629078" lon="33.830173"><ele>346.7</ele><time>2011-10-10T11:41:18.0000000+00:00</time></trkpt><trkpt lat="44.629223" lon="33.830162"><ele>350.6</ele><time>2011-10-10T11:41:23.0000000+00:00</time></trkpt><trkpt lat="44.629314" lon="33.830158"><ele>353.6</ele><time>2011-10-10T11:41:28.0000000+00:00</time></trkpt><trkpt lat="44.629387" lon="33.830162"><ele>356.1</ele><time>2011-10-10T11:41:33.0000000+00:00</time></trkpt><trkpt lat="44.629436" lon="33.830162"><ele>358.0</ele><time>2011-10-10T11:41:38.0000000+00:00</time></trkpt><trkpt lat="44.62949" lon="33.83017"><ele>359.6</ele><time>2011-10-10T11:41:43.0000000+00:00</time></trkpt><trkpt lat="44.629528" lon="33.830189"><ele>359.3</ele><time>2011-10-10T11:41:48.0000000+00:00</time></trkpt><trkpt lat="44.629562" lon="33.830208"><ele>359.7</ele><time>2011-10-10T11:41:53.0000000+00:00</time></trkpt><trkpt lat="44.629559" lon="33.830196"><ele>361.2</ele><time>2011-10-10T11:41:58.0000000+00:00</time></trkpt><trkpt lat="44.629555" lon="33.830193"><ele>362.1</ele><time>2011-10-10T11:42:03.0000000+00:00</time></trkpt><trkpt lat="44.629547" lon="33.830223"><ele>363.4</ele><time>2011-10-10T11:42:08.0000000+00:00</time></trkpt><trkpt lat="44.629532" lon="33.830227"><ele>364.5</ele><time>2011-10-10T11:42:13.0000000+00:00</time></trkpt><trkpt lat="44.629528" lon="33.830235"><ele>364.9</ele><time>2011-10-10T11:42:18.0000000+00:00</time></trkpt><trkpt lat="44.62952" lon="33.830231"><ele>365.5</ele><time>2011-10-10T11:42:23.0000000+00:00</time></trkpt><trkpt lat="44.629555" lon="33.830208"><ele>366.1</ele><time>2011-10-10T11:42:28.0000000+00:00</time></trkpt><trkpt lat="44.629662" lon="33.830173"><ele>366.6</ele><time>2011-10-10T11:42:33.0000000+00:00</time></trkpt><trkpt lat="44.629795" lon="33.830147"><ele>367.1</ele><time>2011-10-10T11:42:38.0000000+00:00</time></trkpt><trkpt lat="44.629848" lon="33.829948"><ele>367.7</ele><time>2011-10-10T11:42:43.0000000+00:00</time></trkpt><trkpt lat="44.629845" lon="33.829895"><ele>368.3</ele><time>2011-10-10T11:42:48.0000000+00:00</time></trkpt><trkpt lat="44.629822" lon="33.829857"><ele>368.9</ele><time>2011-10-10T11:42:53.0000000+00:00</time></trkpt><trkpt lat="44.629776" lon="33.829849"><ele>369.5</ele><time>2011-10-10T11:42:58.0000000+00:00</time></trkpt><trkpt lat="44.62973" lon="33.829861"><ele>370.2</ele><time>2011-10-10T11:43:03.0000000+00:00</time></trkpt><trkpt lat="44.629669" lon="33.829845"><ele>371.0</ele><time>2011-10-10T11:43:08.0000000+00:00</time></trkpt><trkpt lat="44.629608" lon="33.829845"><ele>371.8</ele><time>2011-10-10T11:43:13.0000000+00:00</time></trkpt><trkpt lat="44.629543" lon="33.829849"><ele>372.6</ele><time>2011-10-10T11:43:18.0000000+00:00</time></trkpt><trkpt lat="44.629475" lon="33.829887"><ele>373.4</ele><time>2011-10-10T11:43:23.0000000+00:00</time></trkpt><trkpt lat="44.629452" lon="33.829861"><ele>374.0</ele><time>2011-10-10T11:43:28.0000000+00:00</time></trkpt><trkpt lat="44.629448" lon="33.829941"><ele>374.7</ele><time>2011-10-10T11:43:33.0000000+00:00</time></trkpt><trkpt lat="44.629456" lon="33.830021"><ele>375.4</ele><time>2011-10-10T11:43:38.0000000+00:00</time></trkpt><trkpt lat="44.629452" lon="33.830074"><ele>376.0</ele><time>2011-10-10T11:43:43.0000000+00:00</time></trkpt><trkpt lat="44.629452" lon="33.830128"><ele>376.5</ele><time>2011-10-10T11:43:48.0000000+00:00</time></trkpt><trkpt lat="44.629463" lon="33.830139"><ele>377.1</ele><time>2011-10-10T11:43:53.0000000+00:00</time></trkpt><trkpt lat="44.629471" lon="33.830151"><ele>377.6</ele><time>2011-10-10T11:43:58.0000000+00:00</time></trkpt><trkpt lat="44.629475" lon="33.830181"><ele>378.2</ele><time>2011-10-10T11:44:03.0000000+00:00</time></trkpt><trkpt lat="44.629452" lon="33.830204"><ele>378.8</ele><time>2011-10-10T11:44:08.0000000+00:00</time></trkpt><trkpt lat="44.629433" lon="33.830215"><ele>379.3</ele><time>2011-10-10T11:44:13.0000000+00:00</time></trkpt><trkpt lat="44.629387" lon="33.830193"><ele>379.9</ele><time>2011-10-10T11:44:18.0000000+00:00</time></trkpt><trkpt lat="44.629349" lon="33.830162"><ele>380.4</ele><time>2011-10-10T11:44:23.0000000+00:00</time></trkpt><trkpt lat="44.629353" lon="33.830177"><ele>381.0</ele><time>2011-10-10T11:44:28.0000000+00:00</time></trkpt><trkpt lat="44.629799" lon="33.830299"><ele>381.0</ele><time>2011-10-10T11:44:33.0000000+00:00</time></trkpt><trkpt lat="44.630569" lon="33.830067"><ele>381.3</ele><time>2011-10-10T11:44:38.0000000+00:00</time></trkpt><trkpt lat="44.630707" lon="33.830009"><ele>381.8</ele><time>2011-10-10T11:44:43.0000000+00:00</time></trkpt><trkpt lat="44.630791" lon="33.830021"><ele>382.3</ele><time>2011-10-10T11:44:48.0000000+00:00</time></trkpt><trkpt lat="44.630836" lon="33.83007"><ele>382.9</ele><time>2011-10-10T11:44:53.0000000+00:00</time></trkpt><trkpt lat="44.630867" lon="33.830147"><ele>383.4</ele><time>2011-10-10T11:44:58.0000000+00:00</time></trkpt><trkpt lat="44.630863" lon="33.830376"><ele>383.8</ele><time>2011-10-10T11:45:03.0000000+00:00</time></trkpt><trkpt lat="44.630833" lon="33.830795"><ele>383.9</ele><time>2011-10-10T11:45:08.0000000+00:00</time></trkpt><trkpt lat="44.630821" lon="33.830929"><ele>384.0</ele><time>2011-10-10T11:45:13.0000000+00:00</time></trkpt><trkpt lat="44.630825" lon="33.830971"><ele>384.1</ele><time>2011-10-10T11:45:18.0000000+00:00</time></trkpt><trkpt lat="44.630791" lon="33.831055"><ele>384.0</ele><time>2011-10-10T11:45:23.0000000+00:00</time></trkpt><trkpt lat="44.630768" lon="33.831169"><ele>384.2</ele><time>2011-10-10T11:45:28.0000000+00:00</time></trkpt><trkpt lat="44.630733" lon="33.8312"><ele>384.3</ele><time>2011-10-10T11:45:33.0000000+00:00</time></trkpt><trkpt lat="44.630657" lon="33.831207"><ele>384.5</ele><time>2011-10-10T11:45:38.0000000+00:00</time></trkpt><trkpt lat="44.630627" lon="33.831234"><ele>384.7</ele><time>2011-10-10T11:45:43.0000000+00:00</time></trkpt><trkpt lat="44.6306" lon="33.831223"><ele>384.7</ele><time>2011-10-10T11:45:48.0000000+00:00</time></trkpt><trkpt lat="44.630634" lon="33.831291"><ele>384.4</ele><time>2011-10-10T11:45:53.0000000+00:00</time></trkpt><trkpt lat="44.630619" lon="33.831341"><ele>384.0</ele><time>2011-10-10T11:45:58.0000000+00:00</time></trkpt><trkpt lat="44.630539" lon="33.831345"><ele>383.1</ele><time>2011-10-10T11:46:03.0000000+00:00</time></trkpt><trkpt lat="44.630486" lon="33.831367"><ele>382.7</ele><time>2011-10-10T11:46:08.0000000+00:00</time></trkpt><trkpt lat="44.630474" lon="33.831417"><ele>382.2</ele><time>2011-10-10T11:46:13.0000000+00:00</time></trkpt><trkpt lat="44.630451" lon="33.831432"><ele>381.8</ele><time>2011-10-10T11:46:18.0000000+00:00</time></trkpt><trkpt lat="44.630421" lon="33.831413"><ele>381.4</ele><time>2011-10-10T11:46:23.0000000+00:00</time></trkpt><trkpt lat="44.630383" lon="33.831406"><ele>381.3</ele><time>2011-10-10T11:46:28.0000000+00:00</time></trkpt><trkpt lat="44.630363" lon="33.831413"><ele>381.1</ele><time>2011-10-10T11:46:33.0000000+00:00</time></trkpt><trkpt lat="44.630337" lon="33.831425"><ele>380.9</ele><time>2011-10-10T11:46:38.0000000+00:00</time></trkpt><trkpt lat="44.630333" lon="33.831463"><ele>380.8</ele><time>2011-10-10T11:46:43.0000000+00:00</time></trkpt><trkpt lat="44.630318" lon="33.831482"><ele>380.6</ele><time>2011-10-10T11:46:48.0000000+00:00</time></trkpt><trkpt lat="44.630276" lon="33.83149"><ele>380.6</ele><time>2011-10-10T11:46:53.0000000+00:00</time></trkpt><trkpt lat="44.630222" lon="33.831516"><ele>380.6</ele><time>2011-10-10T11:46:58.0000000+00:00</time></trkpt><trkpt lat="44.630222" lon="33.83147"><ele>380.3</ele><time>2011-10-10T11:47:03.0000000+00:00</time></trkpt><trkpt lat="44.630196" lon="33.831501"><ele>379.9</ele><time>2011-10-10T11:47:08.0000000+00:00</time></trkpt><trkpt lat="44.630165" lon="33.831459"><ele>379.5</ele><time>2011-10-10T11:47:13.0000000+00:00</time></trkpt><trkpt lat="44.63015" lon="33.831482"><ele>379.1</ele><time>2011-10-10T11:47:18.0000000+00:00</time></trkpt><trkpt lat="44.63015" lon="33.831497"><ele>379.2</ele><time>2011-10-10T11:47:23.0000000+00:00</time></trkpt><trkpt lat="44.630157" lon="33.831505"><ele>379.5</ele><time>2011-10-10T11:47:28.0000000+00:00</time></trkpt><trkpt lat="44.630154" lon="33.831509"><ele>379.9</ele><time>2011-10-10T11:47:33.0000000+00:00</time></trkpt><trkpt lat="44.630157" lon="33.831505"><ele>380.4</ele><time>2011-10-10T11:47:38.0000000+00:00</time></trkpt><trkpt lat="44.630196" lon="33.831482"><ele>380.7</ele><time>2011-10-10T11:47:43.0000000+00:00</time></trkpt><trkpt lat="44.630169" lon="33.831432"><ele>380.9</ele><time>2011-10-10T11:47:48.0000000+00:00</time></trkpt><trkpt lat="44.630154" lon="33.831448"><ele>380.5</ele><time>2011-10-10T11:47:53.0000000+00:00</time></trkpt><trkpt lat="44.630142" lon="33.83147"><ele>380.1</ele><time>2011-10-10T11:47:58.0000000+00:00</time></trkpt><trkpt lat="44.630123" lon="33.831459"><ele>379.8</ele><time>2011-10-10T11:48:03.0000000+00:00</time></trkpt><trkpt lat="44.630135" lon="33.831455"><ele>379.2</ele><time>2011-10-10T11:48:08.0000000+00:00</time></trkpt><trkpt lat="44.630135" lon="33.831459"><ele>379.0</ele><time>2011-10-10T11:48:13.0000000+00:00</time></trkpt><trkpt lat="44.630123" lon="33.831444"><ele>378.4</ele><time>2011-10-10T11:48:18.0000000+00:00</time></trkpt><trkpt lat="44.630112" lon="33.831451"><ele>377.7</ele><time>2011-10-10T11:48:23.0000000+00:00</time></trkpt><trkpt lat="44.630173" lon="33.831429"><ele>377.1</ele><time>2011-10-10T11:48:28.0000000+00:00</time></trkpt><trkpt lat="44.630199" lon="33.83147"><ele>375.6</ele><time>2011-10-10T11:48:33.0000000+00:00</time></trkpt><trkpt lat="44.630196" lon="33.831474"><ele>375.3</ele><time>2011-10-10T11:48:38.0000000+00:00</time></trkpt><trkpt lat="44.630184" lon="33.831486"><ele>374.8</ele><time>2011-10-10T11:48:43.0000000+00:00</time></trkpt><trkpt lat="44.630169" lon="33.831493"><ele>374.4</ele><time>2011-10-10T11:48:48.0000000+00:00</time></trkpt><trkpt lat="44.63015" lon="33.83149"><ele>374.1</ele><time>2011-10-10T11:48:53.0000000+00:00</time></trkpt><trkpt lat="44.630127" lon="33.831493"><ele>373.7</ele><time>2011-10-10T11:48:58.0000000+00:00</time></trkpt><trkpt lat="44.630119" lon="33.831478"><ele>373.2</ele><time>2011-10-10T11:49:03.0000000+00:00</time></trkpt><trkpt lat="44.6301" lon="33.831467"><ele>372.2</ele><time>2011-10-10T11:49:08.0000000+00:00</time></trkpt><trkpt lat="44.630116" lon="33.831474"><ele>371.2</ele><time>2011-10-10T11:49:13.0000000+00:00</time></trkpt><trkpt lat="44.63015" lon="33.83149"><ele>370.4</ele><time>2011-10-10T11:49:18.0000000+00:00</time></trkpt><trkpt lat="44.630177" lon="33.831486"><ele>370.2</ele><time>2011-10-10T11:49:23.0000000+00:00</time></trkpt><trkpt lat="44.630215" lon="33.831486"><ele>369.8</ele><time>2011-10-10T11:49:28.0000000+00:00</time></trkpt><trkpt lat="44.630253" lon="33.831463"><ele>369.1</ele><time>2011-10-10T11:49:33.0000000+00:00</time></trkpt><trkpt lat="44.630253" lon="33.831459"><ele>368.6</ele><time>2011-10-10T11:49:38.0000000+00:00</time></trkpt><trkpt lat="44.630219" lon="33.831463"><ele>368.0</ele><time>2011-10-10T11:49:43.0000000+00:00</time></trkpt><trkpt lat="44.630192" lon="33.831482"><ele>367.0</ele><time>2011-10-10T11:49:48.0000000+00:00</time></trkpt><trkpt lat="44.630154" lon="33.831505"><ele>365.9</ele><time>2011-10-10T11:49:53.0000000+00:00</time></trkpt><trkpt lat="44.630127" lon="33.831551"><ele>364.9</ele><time>2011-10-10T11:49:58.0000000+00:00</time></trkpt><trkpt lat="44.630112" lon="33.831593"><ele>363.9</ele><time>2011-10-10T11:50:03.0000000+00:00</time></trkpt><trkpt lat="44.630112" lon="33.831623"><ele>363.1</ele><time>2011-10-10T11:50:08.0000000+00:00</time></trkpt><trkpt lat="44.630089" lon="33.831589"><ele>362.3</ele><time>2011-10-10T11:50:13.0000000+00:00</time></trkpt><trkpt lat="44.630081" lon="33.831596"><ele>362.2</ele><time>2011-10-10T11:50:18.0000000+00:00</time></trkpt><trkpt lat="44.630077" lon="33.831608"><ele>362.0</ele><time>2011-10-10T11:50:23.0000000+00:00</time></trkpt><trkpt lat="44.63007" lon="33.831612"><ele>361.8</ele><time>2011-10-10T11:50:28.0000000+00:00</time></trkpt><trkpt lat="44.630066" lon="33.831612"><ele>361.5</ele><time>2011-10-10T11:50:33.0000000+00:00</time></trkpt><trkpt lat="44.630058" lon="33.831615"><ele>360.9</ele><time>2011-10-10T11:50:38.0000000+00:00</time></trkpt><trkpt lat="44.630051" lon="33.831612"><ele>360.2</ele><time>2011-10-10T11:50:43.0000000+00:00</time></trkpt><trkpt lat="44.630039" lon="33.831596"><ele>359.6</ele><time>2011-10-10T11:50:48.0000000+00:00</time></trkpt><trkpt lat="44.630047" lon="33.831596"><ele>359.5</ele><time>2011-10-10T11:50:53.0000000+00:00</time></trkpt><trkpt lat="44.630058" lon="33.831581"><ele>359.2</ele><time>2011-10-10T11:50:58.0000000+00:00</time></trkpt><trkpt lat="44.630062" lon="33.831596"><ele>359.1</ele><time>2011-10-10T11:51:03.0000000+00:00</time></trkpt><trkpt lat="44.630062" lon="33.831612"><ele>359.1</ele><time>2011-10-10T11:51:08.0000000+00:00</time></trkpt><trkpt lat="44.630066" lon="33.831615"><ele>359.2</ele><time>2011-10-10T11:51:13.0000000+00:00</time></trkpt><trkpt lat="44.630074" lon="33.831612"><ele>359.0</ele><time>2011-10-10T11:51:18.0000000+00:00</time></trkpt><trkpt lat="44.630104" lon="33.831615"><ele>358.6</ele><time>2011-10-10T11:51:23.0000000+00:00</time></trkpt><trkpt lat="44.630119" lon="33.831608"><ele>358.1</ele><time>2011-10-10T11:51:28.0000000+00:00</time></trkpt><trkpt lat="44.630127" lon="33.831619"><ele>357.9</ele><time>2011-10-10T11:51:33.0000000+00:00</time></trkpt><trkpt lat="44.630131" lon="33.831623"><ele>357.8</ele><time>2011-10-10T11:51:38.0000000+00:00</time></trkpt><trkpt lat="44.630127" lon="33.831623"><ele>357.6</ele><time>2011-10-10T11:51:43.0000000+00:00</time></trkpt><trkpt lat="44.630108" lon="33.831657"><ele>357.3</ele><time>2011-10-10T11:51:48.0000000+00:00</time></trkpt><trkpt lat="44.630108" lon="33.831703"><ele>357.0</ele><time>2011-10-10T11:51:53.0000000+00:00</time></trkpt><trkpt lat="44.630119" lon="33.831806"><ele>356.0</ele><time>2011-10-10T11:51:58.0000000+00:00</time></trkpt><trkpt lat="44.630165" lon="33.831852"><ele>354.8</ele><time>2011-10-10T11:52:03.0000000+00:00</time></trkpt><trkpt lat="44.630165" lon="33.831867"><ele>353.9</ele><time>2011-10-10T11:52:08.0000000+00:00</time></trkpt><trkpt lat="44.630157" lon="33.831833"><ele>352.9</ele><time>2011-10-10T11:52:13.0000000+00:00</time></trkpt><trkpt lat="44.630138" lon="33.831764"><ele>351.8</ele><time>2011-10-10T11:52:18.0000000+00:00</time></trkpt><trkpt lat="44.630154" lon="33.831715"><ele>350.4</ele><time>2011-10-10T11:52:23.0000000+00:00</time></trkpt><trkpt lat="44.630146" lon="33.831692"><ele>350.0</ele><time>2011-10-10T11:52:28.0000000+00:00</time></trkpt><trkpt lat="44.630135" lon="33.831627"><ele>348.9</ele><time>2011-10-10T11:52:33.0000000+00:00</time></trkpt><trkpt lat="44.630138" lon="33.831593"><ele>345.5</ele><time>2011-10-10T11:52:38.0000000+00:00</time></trkpt><trkpt lat="44.630131" lon="33.831577"><ele>344.7</ele><time>2011-10-10T11:52:43.0000000+00:00</time></trkpt><trkpt lat="44.630131" lon="33.831573"><ele>342.9</ele><time>2011-10-10T11:52:48.0000000+00:00</time></trkpt><trkpt lat="44.630123" lon="33.831566"><ele>342.1</ele><time>2011-10-10T11:52:53.0000000+00:00</time></trkpt><trkpt lat="44.630116" lon="33.831566"><ele>341.2</ele><time>2011-10-10T11:52:58.0000000+00:00</time></trkpt><trkpt lat="44.630108" lon="33.83157"><ele>340.2</ele><time>2011-10-10T11:53:03.0000000+00:00</time></trkpt><trkpt lat="44.630104" lon="33.831573"><ele>339.0</ele><time>2011-10-10T11:53:08.0000000+00:00</time></trkpt><trkpt lat="44.6301" lon="33.831573"><ele>337.9</ele><time>2011-10-10T11:53:13.0000000+00:00</time></trkpt><trkpt lat="44.630096" lon="33.831577"><ele>336.9</ele><time>2011-10-10T11:53:18.0000000+00:00</time></trkpt><trkpt lat="44.630089" lon="33.831581"><ele>335.9</ele><time>2011-10-10T11:53:23.0000000+00:00</time></trkpt><trkpt lat="44.630077" lon="33.831581"><ele>335.0</ele><time>2011-10-10T11:53:28.0000000+00:00</time></trkpt><trkpt lat="44.630074" lon="33.831577"><ele>334.0</ele><time>2011-10-10T11:53:33.0000000+00:00</time></trkpt><trkpt lat="44.630074" lon="33.831573"><ele>333.0</ele><time>2011-10-10T11:53:38.0000000+00:00</time></trkpt><trkpt lat="44.63007" lon="33.831573"><ele>332.0</ele><time>2011-10-10T11:53:43.0000000+00:00</time></trkpt><trkpt lat="44.63007" lon="33.831566"><ele>331.2</ele><time>2011-10-10T11:53:48.0000000+00:00</time></trkpt><trkpt lat="44.630062" lon="33.831562"><ele>330.5</ele><time>2011-10-10T11:53:53.0000000+00:00</time></trkpt><trkpt lat="44.630047" lon="33.831562"><ele>329.8</ele><time>2011-10-10T11:53:58.0000000+00:00</time></trkpt><trkpt lat="44.630032" lon="33.83157"><ele>328.7</ele><time>2011-10-10T11:54:03.0000000+00:00</time></trkpt><trkpt lat="44.630032" lon="33.831604"><ele>327.6</ele><time>2011-10-10T11:54:08.0000000+00:00</time></trkpt><trkpt lat="44.630024" lon="33.831627"><ele>326.0</ele><time>2011-10-10T11:54:13.0000000+00:00</time></trkpt><trkpt lat="44.630024" lon="33.831627"><ele>325.3</ele><time>2011-10-10T11:54:18.0000000+00:00</time></trkpt><trkpt lat="44.630013" lon="33.831551"><ele>323.3</ele><time>2011-10-10T11:54:23.0000000+00:00</time></trkpt><trkpt lat="44.630024" lon="33.831505"><ele>320.8</ele><time>2011-10-10T11:54:28.0000000+00:00</time></trkpt><trkpt lat="44.630043" lon="33.831425"><ele>318.5</ele><time>2011-10-10T11:54:33.0000000+00:00</time></trkpt><trkpt lat="44.630116" lon="33.831402"><ele>317.9</ele><time>2011-10-10T11:54:38.0000000+00:00</time></trkpt><trkpt lat="44.630146" lon="33.831387"><ele>317.2</ele><time>2011-10-10T11:54:43.0000000+00:00</time></trkpt><trkpt lat="44.630173" lon="33.831348"><ele>316.3</ele><time>2011-10-10T11:54:48.0000000+00:00</time></trkpt><trkpt lat="44.630196" lon="33.831291"><ele>315.4</ele><time>2011-10-10T11:54:53.0000000+00:00</time></trkpt><trkpt lat="44.630188" lon="33.831184"><ele>314.7</ele><time>2011-10-10T11:54:58.0000000+00:00</time></trkpt><trkpt lat="44.630234" lon="33.831123"><ele>313.6</ele><time>2011-10-10T11:55:03.0000000+00:00</time></trkpt><trkpt lat="44.630234" lon="33.831028"><ele>312.9</ele><time>2011-10-10T11:55:08.0000000+00:00</time></trkpt><trkpt lat="44.630253" lon="33.830925"><ele>312.8</ele><time>2011-10-10T11:55:13.0000000+00:00</time></trkpt><trkpt lat="44.630344" lon="33.830849"><ele>312.5</ele><time>2011-10-10T11:55:18.0000000+00:00</time></trkpt><trkpt lat="44.630379" lon="33.830849"><ele>312.8</ele><time>2011-10-10T11:55:23.0000000+00:00</time></trkpt><trkpt lat="44.630394" lon="33.83083"><ele>313.2</ele><time>2011-10-10T11:55:28.0000000+00:00</time></trkpt><trkpt lat="44.630424" lon="33.830814"><ele>313.4</ele><time>2011-10-10T11:55:33.0000000+00:00</time></trkpt><trkpt lat="44.630459" lon="33.830803"><ele>313.7</ele><time>2011-10-10T11:55:38.0000000+00:00</time></trkpt><trkpt lat="44.630527" lon="33.830769"><ele>313.4</ele><time>2011-10-10T11:55:43.0000000+00:00</time></trkpt><trkpt lat="44.630592" lon="33.830738"><ele>313.5</ele><time>2011-10-10T11:55:48.0000000+00:00</time></trkpt><trkpt lat="44.630615" lon="33.830696"><ele>313.6</ele><time>2011-10-10T11:55:53.0000000+00:00</time></trkpt><trkpt lat="44.630604" lon="33.830666"><ele>313.6</ele><time>2011-10-10T11:55:58.0000000+00:00</time></trkpt><trkpt lat="44.630604" lon="33.830612"><ele>313.6</ele><time>2011-10-10T11:56:03.0000000+00:00</time></trkpt><trkpt lat="44.630577" lon="33.830582"><ele>313.6</ele><time>2011-10-10T11:56:08.0000000+00:00</time></trkpt><trkpt lat="44.630547" lon="33.830574"><ele>313.6</ele><time>2011-10-10T11:56:13.0000000+00:00</time></trkpt><trkpt lat="44.630539" lon="33.830559"><ele>313.6</ele><time>2011-10-10T11:56:18.0000000+00:00</time></trkpt><trkpt lat="44.630535" lon="33.830544"><ele>313.6</ele><time>2011-10-10T11:56:23.0000000+00:00</time></trkpt><trkpt lat="44.630531" lon="33.830528"><ele>313.7</ele><time>2011-10-10T11:56:28.0000000+00:00</time></trkpt><trkpt lat="44.630547" lon="33.830513"><ele>313.6</ele><time>2011-10-10T11:56:33.0000000+00:00</time></trkpt><trkpt lat="44.630608" lon="33.83049"><ele>312.9</ele><time>2011-10-10T11:56:38.0000000+00:00</time></trkpt><trkpt lat="44.630634" lon="33.830475"><ele>312.4</ele><time>2011-10-10T11:56:43.0000000+00:00</time></trkpt><trkpt lat="44.630672" lon="33.830425"><ele>312.5</ele><time>2011-10-10T11:56:48.0000000+00:00</time></trkpt><trkpt lat="44.630795" lon="33.830418"><ele>312.3</ele><time>2011-10-10T11:56:53.0000000+00:00</time></trkpt><trkpt lat="44.630825" lon="33.830376"><ele>312.4</ele><time>2011-10-10T11:56:58.0000000+00:00</time></trkpt><trkpt lat="44.631008" lon="33.830597"><ele>313.2</ele><time>2011-10-10T11:57:03.0000000+00:00</time></trkpt><trkpt lat="44.631023" lon="33.830612"><ele>313.7</ele><time>2011-10-10T11:57:08.0000000+00:00</time></trkpt><trkpt lat="44.631023" lon="33.830612"><ele>313.7</ele><time>2011-10-10T11:57:13.0000000+00:00</time></trkpt><trkpt lat="44.631023" lon="33.830608"><ele>313.7</ele><time>2011-10-10T11:57:18.0000000+00:00</time></trkpt><trkpt lat="44.63102" lon="33.830597"><ele>313.8</ele><time>2011-10-10T11:57:23.0000000+00:00</time></trkpt><trkpt lat="44.631058" lon="33.830597"><ele>313.6</ele><time>2011-10-10T11:57:28.0000000+00:00</time></trkpt><trkpt lat="44.631081" lon="33.830566"><ele>313.5</ele><time>2011-10-10T11:57:33.0000000+00:00</time></trkpt><trkpt lat="44.631084" lon="33.830536"><ele>313.2</ele><time>2011-10-10T11:57:38.0000000+00:00</time></trkpt><trkpt lat="44.631004" lon="33.830437"><ele>313.1</ele><time>2011-10-10T11:57:43.0000000+00:00</time></trkpt><trkpt lat="44.630924" lon="33.83036"><ele>313.0</ele><time>2011-10-10T11:57:48.0000000+00:00</time></trkpt><trkpt lat="44.630863" lon="33.830292"><ele>312.9</ele><time>2011-10-10T11:57:53.0000000+00:00</time></trkpt><trkpt lat="44.630821" lon="33.830338"><ele>312.8</ele><time>2011-10-10T11:57:58.0000000+00:00</time></trkpt><trkpt lat="44.630699" lon="33.830322"><ele>312.8</ele><time>2011-10-10T11:58:03.0000000+00:00</time></trkpt><trkpt lat="44.63073" lon="33.830338"><ele>312.7</ele><time>2011-10-10T11:58:08.0000000+00:00</time></trkpt><trkpt lat="44.630699" lon="33.830357"><ele>312.6</ele><time>2011-10-10T11:58:13.0000000+00:00</time></trkpt><trkpt lat="44.630646" lon="33.830406"><ele>312.5</ele><time>2011-10-10T11:58:18.0000000+00:00</time></trkpt><trkpt lat="44.630669" lon="33.830452"><ele>312.4</ele><time>2011-10-10T11:58:23.0000000+00:00</time></trkpt><trkpt lat="44.630672" lon="33.830444"><ele>312.4</ele><time>2011-10-10T11:58:28.0000000+00:00</time></trkpt><trkpt lat="44.630814" lon="33.830486"><ele>312.4</ele><time>2011-10-10T11:58:33.0000000+00:00</time></trkpt><trkpt lat="44.630856" lon="33.830578"><ele>312.6</ele><time>2011-10-10T11:58:38.0000000+00:00</time></trkpt><trkpt lat="44.630726" lon="33.830513"><ele>312.5</ele><time>2011-10-10T11:58:43.0000000+00:00</time></trkpt><trkpt lat="44.630634" lon="33.830467"><ele>312.4</ele><time>2011-10-10T11:58:48.0000000+00:00</time></trkpt><trkpt lat="44.630566" lon="33.830494"><ele>312.4</ele><time>2011-10-10T11:58:53.0000000+00:00</time></trkpt><trkpt lat="44.630585" lon="33.830513"><ele>312.4</ele><time>2011-10-10T11:58:58.0000000+00:00</time></trkpt><trkpt lat="44.63065" lon="33.830605"><ele>312.5</ele><time>2011-10-10T11:59:03.0000000+00:00</time></trkpt><trkpt lat="44.630619" lon="33.830593"><ele>312.5</ele><time>2011-10-10T11:59:08.0000000+00:00</time></trkpt><trkpt lat="44.630623" lon="33.830605"><ele>312.3</ele><time>2011-10-10T11:59:13.0000000+00:00</time></trkpt><trkpt lat="44.63055" lon="33.830608"><ele>312.3</ele><time>2011-10-10T11:59:18.0000000+00:00</time></trkpt><trkpt lat="44.630646" lon="33.830582"><ele>312.0</ele><time>2011-10-10T11:59:23.0000000+00:00</time></trkpt><trkpt lat="44.630653" lon="33.83057"><ele>312.1</ele><time>2011-10-10T11:59:28.0000000+00:00</time></trkpt><trkpt lat="44.630657" lon="33.83057"><ele>312.1</ele><time>2011-10-10T11:59:33.0000000+00:00</time></trkpt><trkpt lat="44.630669" lon="33.830566"><ele>312.1</ele><time>2011-10-10T11:59:38.0000000+00:00</time></trkpt><trkpt lat="44.63068" lon="33.83057"><ele>312.1</ele><time>2011-10-10T11:59:43.0000000+00:00</time></trkpt><trkpt lat="44.630688" lon="33.830574"><ele>312.0</ele><time>2011-10-10T11:59:48.0000000+00:00</time></trkpt><trkpt lat="44.630699" lon="33.830574"><ele>312.0</ele><time>2011-10-10T11:59:53.0000000+00:00</time></trkpt><trkpt lat="44.630707" lon="33.830566"><ele>312.0</ele><time>2011-10-10T11:59:58.0000000+00:00</time></trkpt><trkpt lat="44.630737" lon="33.830547"><ele>311.9</ele><time>2011-10-10T12:00:03.0000000+00:00</time></trkpt><trkpt lat="44.630753" lon="33.830528"><ele>311.9</ele><time>2011-10-10T12:00:08.0000000+00:00</time></trkpt><trkpt lat="44.630791" lon="33.830498"><ele>311.8</ele><time>2011-10-10T12:00:13.0000000+00:00</time></trkpt><trkpt lat="44.630787" lon="33.830467"><ele>311.8</ele><time>2011-10-10T12:00:18.0000000+00:00</time></trkpt><trkpt lat="44.630775" lon="33.830486"><ele>311.5</ele><time>2011-10-10T12:00:23.0000000+00:00</time></trkpt><trkpt lat="44.630775" lon="33.83049"><ele>311.4</ele><time>2011-10-10T12:00:28.0000000+00:00</time></trkpt><trkpt lat="44.630791" lon="33.830498"><ele>311.4</ele><time>2011-10-10T12:00:33.0000000+00:00</time></trkpt><trkpt lat="44.630791" lon="33.830498"><ele>311.3</ele><time>2011-10-10T12:00:38.0000000+00:00</time></trkpt><trkpt lat="44.630672" lon="33.830425"><ele>311.3</ele><time>2011-10-10T12:00:43.0000000+00:00</time></trkpt><trkpt lat="44.630539" lon="33.830391"><ele>311.1</ele><time>2011-10-10T12:00:48.0000000+00:00</time></trkpt><trkpt lat="44.630463" lon="33.830364"><ele>311.0</ele><time>2011-10-10T12:00:53.0000000+00:00</time></trkpt><trkpt lat="44.630451" lon="33.83033"><ele>310.9</ele><time>2011-10-10T12:00:58.0000000+00:00</time></trkpt><trkpt lat="44.630421" lon="33.830299"><ele>310.8</ele><time>2011-10-10T12:01:03.0000000+00:00</time></trkpt><trkpt lat="44.630398" lon="33.830235"><ele>310.6</ele><time>2011-10-10T12:01:08.0000000+00:00</time></trkpt><trkpt lat="44.630295" lon="33.830185"><ele>310.4</ele><time>2011-10-10T12:01:13.0000000+00:00</time></trkpt><trkpt lat="44.630142" lon="33.830105"><ele>310.2</ele><time>2011-10-10T12:01:18.0000000+00:00</time></trkpt><trkpt lat="44.630035" lon="33.830051"><ele>309.8</ele><time>2011-10-10T12:01:23.0000000+00:00</time></trkpt><trkpt lat="44.630039" lon="33.830067"><ele>309.4</ele><time>2011-10-10T12:01:28.0000000+00:00</time></trkpt><trkpt lat="44.630184" lon="33.830128"><ele>308.3</ele><time>2011-10-10T12:01:33.0000000+00:00</time></trkpt><trkpt lat="44.630219" lon="33.830135"><ele>307.5</ele><time>2011-10-10T12:01:38.0000000+00:00</time></trkpt><trkpt lat="44.630226" lon="33.830212"><ele>306.8</ele><time>2011-10-10T12:01:43.0000000+00:00</time></trkpt><trkpt lat="44.630249" lon="33.830273"><ele>306.1</ele><time>2011-10-10T12:01:48.0000000+00:00</time></trkpt><trkpt lat="44.630383" lon="33.830296"><ele>304.6</ele><time>2011-10-10T12:01:53.0000000+00:00</time></trkpt><trkpt lat="44.630512" lon="33.830391"><ele>303.2</ele><time>2011-10-10T12:01:58.0000000+00:00</time></trkpt><trkpt lat="44.630508" lon="33.830395"><ele>302.8</ele><time>2011-10-10T12:02:03.0000000+00:00</time></trkpt><trkpt lat="44.630604" lon="33.830448"><ele>302.4</ele><time>2011-10-10T12:02:08.0000000+00:00</time></trkpt><trkpt lat="44.630646" lon="33.83046"><ele>302.0</ele><time>2011-10-10T12:02:13.0000000+00:00</time></trkpt><trkpt lat="44.630634" lon="33.830437"><ele>300.4</ele><time>2011-10-10T12:02:18.0000000+00:00</time></trkpt><trkpt lat="44.630856" lon="33.830582"><ele>299.1</ele><time>2011-10-10T12:02:23.0000000+00:00</time></trkpt><trkpt lat="44.630943" lon="33.830669"><ele>298.4</ele><time>2011-10-10T12:02:28.0000000+00:00</time></trkpt><trkpt lat="44.631008" lon="33.830738"><ele>297.7</ele><time>2011-10-10T12:02:33.0000000+00:00</time></trkpt><trkpt lat="44.63102" lon="33.830765"><ele>296.7</ele><time>2011-10-10T12:02:38.0000000+00:00</time></trkpt><trkpt lat="44.631046" lon="33.830761"><ele>296.0</ele><time>2011-10-10T12:02:43.0000000+00:00</time></trkpt><trkpt lat="44.6311" lon="33.830784"><ele>295.3</ele><time>2011-10-10T12:02:48.0000000+00:00</time></trkpt><trkpt lat="44.631111" lon="33.83083"><ele>294.7</ele><time>2011-10-10T12:02:53.0000000+00:00</time></trkpt><trkpt lat="44.631134" lon="33.830883"><ele>293.8</ele><time>2011-10-10T12:02:58.0000000+00:00</time></trkpt><trkpt lat="44.631126" lon="33.83086"><ele>293.7</ele><time>2011-10-10T12:03:03.0000000+00:00</time></trkpt><trkpt lat="44.631138" lon="33.83086"><ele>292.6</ele><time>2011-10-10T12:03:08.0000000+00:00</time></trkpt><trkpt lat="44.631165" lon="33.83083"><ele>290.4</ele><time>2011-10-10T12:03:13.0000000+00:00</time></trkpt><trkpt lat="44.631222" lon="33.830856"><ele>288.1</ele><time>2011-10-10T12:03:18.0000000+00:00</time></trkpt><trkpt lat="44.631203" lon="33.830853"><ele>286.7</ele><time>2011-10-10T12:03:23.0000000+00:00</time></trkpt><trkpt lat="44.631176" lon="33.830849"><ele>284.7</ele><time>2011-10-10T12:03:28.0000000+00:00</time></trkpt><trkpt lat="44.631207" lon="33.830902"><ele>283.1</ele><time>2011-10-10T12:03:33.0000000+00:00</time></trkpt><trkpt lat="44.63121" lon="33.83091"><ele>282.8</ele><time>2011-10-10T12:03:38.0000000+00:00</time></trkpt><trkpt lat="44.631222" lon="33.83094"><ele>282.1</ele><time>2011-10-10T12:03:43.0000000+00:00</time></trkpt><trkpt lat="44.63121" lon="33.830936"><ele>281.1</ele><time>2011-10-10T12:03:48.0000000+00:00</time></trkpt><trkpt lat="44.631203" lon="33.83094"><ele>280.7</ele><time>2011-10-10T12:03:53.0000000+00:00</time></trkpt><trkpt lat="44.631199" lon="33.830944"><ele>280.3</ele><time>2011-10-10T12:03:58.0000000+00:00</time></trkpt><trkpt lat="44.631195" lon="33.830952"><ele>279.9</ele><time>2011-10-10T12:04:03.0000000+00:00</time></trkpt><trkpt lat="44.631187" lon="33.830956"><ele>279.5</ele><time>2011-10-10T12:04:08.0000000+00:00</time></trkpt><trkpt lat="44.631172" lon="33.830952"><ele>279.2</ele><time>2011-10-10T12:04:13.0000000+00:00</time></trkpt><trkpt lat="44.631142" lon="33.830879"><ele>277.3</ele><time>2011-10-10T12:04:18.0000000+00:00</time></trkpt><trkpt lat="44.631142" lon="33.830875"><ele>276.7</ele><time>2011-10-10T12:04:23.0000000+00:00</time></trkpt><trkpt lat="44.631138" lon="33.830879"><ele>276.3</ele><time>2011-10-10T12:04:28.0000000+00:00</time></trkpt><trkpt lat="44.63113" lon="33.830883"><ele>275.9</ele><time>2011-10-10T12:04:33.0000000+00:00</time></trkpt><trkpt lat="44.631123" lon="33.830887"><ele>275.5</ele><time>2011-10-10T12:04:38.0000000+00:00</time></trkpt><trkpt lat="44.631119" lon="33.830883"><ele>275.1</ele><time>2011-10-10T12:04:43.0000000+00:00</time></trkpt><trkpt lat="44.631123" lon="33.830887"><ele>274.7</ele><time>2011-10-10T12:04:48.0000000+00:00</time></trkpt><trkpt lat="44.631134" lon="33.830887"><ele>274.3</ele><time>2011-10-10T12:04:53.0000000+00:00</time></trkpt><trkpt lat="44.631142" lon="33.830883"><ele>273.9</ele><time>2011-10-10T12:04:58.0000000+00:00</time></trkpt><trkpt lat="44.631145" lon="33.830879"><ele>273.5</ele><time>2011-10-10T12:05:03.0000000+00:00</time></trkpt><trkpt lat="44.631145" lon="33.830875"><ele>273.2</ele><time>2011-10-10T12:05:08.0000000+00:00</time></trkpt><trkpt lat="44.631149" lon="33.830875"><ele>272.8</ele><time>2011-10-10T12:05:13.0000000+00:00</time></trkpt><trkpt lat="44.631149" lon="33.830875"><ele>272.5</ele><time>2011-10-10T12:05:18.0000000+00:00</time></trkpt><trkpt lat="44.631149" lon="33.830875"><ele>272.2</ele><time>2011-10-10T12:05:23.0000000+00:00</time></trkpt><trkpt lat="44.631153" lon="33.830879"><ele>271.8</ele><time>2011-10-10T12:05:28.0000000+00:00</time></trkpt><trkpt lat="44.631153" lon="33.830879"><ele>271.5</ele><time>2011-10-10T12:05:33.0000000+00:00</time></trkpt><trkpt lat="44.631153" lon="33.830875"><ele>271.2</ele><time>2011-10-10T12:05:38.0000000+00:00</time></trkpt><trkpt lat="44.631157" lon="33.830875"><ele>270.9</ele><time>2011-10-10T12:05:43.0000000+00:00</time></trkpt><trkpt lat="44.631157" lon="33.830872"><ele>270.6</ele><time>2011-10-10T12:05:48.0000000+00:00</time></trkpt><trkpt lat="44.631157" lon="33.830872"><ele>270.4</ele><time>2011-10-10T12:05:53.0000000+00:00</time></trkpt><trkpt lat="44.631161" lon="33.830868"><ele>270.2</ele><time>2011-10-10T12:05:58.0000000+00:00</time></trkpt><trkpt lat="44.631161" lon="33.830868"><ele>270.0</ele><time>2011-10-10T12:06:03.0000000+00:00</time></trkpt><trkpt lat="44.631165" lon="33.83086"><ele>269.9</ele><time>2011-10-10T12:06:08.0000000+00:00</time></trkpt><trkpt lat="44.631168" lon="33.830853"><ele>269.8</ele><time>2011-10-10T12:06:13.0000000+00:00</time></trkpt><trkpt lat="44.631176" lon="33.830849"><ele>269.7</ele><time>2011-10-10T12:06:18.0000000+00:00</time></trkpt><trkpt lat="44.63118" lon="33.830841"><ele>269.6</ele><time>2011-10-10T12:06:23.0000000+00:00</time></trkpt><trkpt lat="44.631184" lon="33.83083"><ele>269.6</ele><time>2011-10-10T12:06:28.0000000+00:00</time></trkpt><trkpt lat="44.631207" lon="33.830799"><ele>270.3</ele><time>2011-10-10T12:06:33.0000000+00:00</time></trkpt><trkpt lat="44.631214" lon="33.830791"><ele>270.9</ele><time>2011-10-10T12:06:38.0000000+00:00</time></trkpt><trkpt lat="44.631214" lon="33.830788"><ele>271.2</ele><time>2011-10-10T12:06:43.0000000+00:00</time></trkpt><trkpt lat="44.63121" lon="33.830772"><ele>271.6</ele><time>2011-10-10T12:06:48.0000000+00:00</time></trkpt><trkpt lat="44.631218" lon="33.830746"><ele>272.4</ele><time>2011-10-10T12:06:53.0000000+00:00</time></trkpt><trkpt lat="44.631203" lon="33.830753"><ele>272.8</ele><time>2011-10-10T12:06:58.0000000+00:00</time></trkpt><trkpt lat="44.631195" lon="33.830757"><ele>272.7</ele><time>2011-10-10T12:07:03.0000000+00:00</time></trkpt><trkpt lat="44.631187" lon="33.830765"><ele>272.8</ele><time>2011-10-10T12:07:08.0000000+00:00</time></trkpt><trkpt lat="44.631184" lon="33.830769"><ele>272.8</ele><time>2011-10-10T12:07:13.0000000+00:00</time></trkpt><trkpt lat="44.631184" lon="33.830769"><ele>272.8</ele><time>2011-10-10T12:07:18.0000000+00:00</time></trkpt><trkpt lat="44.631184" lon="33.830769"><ele>272.7</ele><time>2011-10-10T12:07:23.0000000+00:00</time></trkpt><trkpt lat="44.631184" lon="33.830769"><ele>272.6</ele><time>2011-10-10T12:07:28.0000000+00:00</time></trkpt><trkpt lat="44.631184" lon="33.830769"><ele>272.6</ele><time>2011-10-10T12:07:33.0000000+00:00</time></trkpt><trkpt lat="44.631184" lon="33.830769"><ele>272.5</ele><time>2011-10-10T12:07:38.0000000+00:00</time></trkpt><trkpt lat="44.631184" lon="33.830769"><ele>272.5</ele><time>2011-10-10T12:07:43.0000000+00:00</time></trkpt><trkpt lat="44.63118" lon="33.830772"><ele>272.5</ele><time>2011-10-10T12:07:48.0000000+00:00</time></trkpt><trkpt lat="44.631176" lon="33.83078"><ele>272.4</ele><time>2011-10-10T12:07:53.0000000+00:00</time></trkpt><trkpt lat="44.631168" lon="33.830791"><ele>272.4</ele><time>2011-10-10T12:07:58.0000000+00:00</time></trkpt><trkpt lat="44.631161" lon="33.830803"><ele>272.4</ele><time>2011-10-10T12:08:03.0000000+00:00</time></trkpt><trkpt lat="44.631157" lon="33.830811"><ele>272.4</ele><time>2011-10-10T12:08:08.0000000+00:00</time></trkpt><trkpt lat="44.631153" lon="33.830814"><ele>272.4</ele><time>2011-10-10T12:08:13.0000000+00:00</time></trkpt><trkpt lat="44.631157" lon="33.830811"><ele>272.4</ele><time>2011-10-10T12:08:18.0000000+00:00</time></trkpt><trkpt lat="44.631157" lon="33.830811"><ele>272.5</ele><time>2011-10-10T12:08:23.0000000+00:00</time></trkpt><trkpt lat="44.631157" lon="33.830811"><ele>272.6</ele><time>2011-10-10T12:08:28.0000000+00:00</time></trkpt><trkpt lat="44.631157" lon="33.830811"><ele>272.6</ele><time>2011-10-10T12:08:33.0000000+00:00</time></trkpt><trkpt lat="44.631153" lon="33.830811"><ele>272.7</ele><time>2011-10-10T12:08:38.0000000+00:00</time></trkpt><trkpt lat="44.631145" lon="33.830814"><ele>272.8</ele><time>2011-10-10T12:08:43.0000000+00:00</time></trkpt><trkpt lat="44.631142" lon="33.830814"><ele>272.9</ele><time>2011-10-10T12:08:48.0000000+00:00</time></trkpt><trkpt lat="44.631145" lon="33.830814"><ele>273.1</ele><time>2011-10-10T12:08:53.0000000+00:00</time></trkpt><trkpt lat="44.631145" lon="33.830814"><ele>273.4</ele><time>2011-10-10T12:08:58.0000000+00:00</time></trkpt><trkpt lat="44.631145" lon="33.830818"><ele>273.7</ele><time>2011-10-10T12:09:03.0000000+00:00</time></trkpt><trkpt lat="44.631145" lon="33.830826"><ele>274.0</ele><time>2011-10-10T12:09:08.0000000+00:00</time></trkpt><trkpt lat="44.631145" lon="33.830833"><ele>274.4</ele><time>2011-10-10T12:09:13.0000000+00:00</time></trkpt><trkpt lat="44.631142" lon="33.830841"><ele>274.8</ele><time>2011-10-10T12:09:18.0000000+00:00</time></trkpt><trkpt lat="44.631142" lon="33.830845"><ele>275.4</ele><time>2011-10-10T12:09:23.0000000+00:00</time></trkpt><trkpt lat="44.631142" lon="33.830841"><ele>276.1</ele><time>2011-10-10T12:09:28.0000000+00:00</time></trkpt><trkpt lat="44.631142" lon="33.830833"><ele>276.8</ele><time>2011-10-10T12:09:33.0000000+00:00</time></trkpt><trkpt lat="44.631142" lon="33.83083"><ele>277.6</ele><time>2011-10-10T12:09:38.0000000+00:00</time></trkpt><trkpt lat="44.631142" lon="33.830837"><ele>278.5</ele><time>2011-10-10T12:09:43.0000000+00:00</time></trkpt><trkpt lat="44.631142" lon="33.830845"><ele>279.4</ele><time>2011-10-10T12:09:48.0000000+00:00</time></trkpt><trkpt lat="44.631142" lon="33.830853"><ele>280.1</ele><time>2011-10-10T12:09:53.0000000+00:00</time></trkpt><trkpt lat="44.631138" lon="33.83086"><ele>280.6</ele><time>2011-10-10T12:09:58.0000000+00:00</time></trkpt><trkpt lat="44.631138" lon="33.830868"><ele>281.1</ele><time>2011-10-10T12:10:03.0000000+00:00</time></trkpt><trkpt lat="44.63113" lon="33.830879"><ele>281.6</ele><time>2011-10-10T12:10:08.0000000+00:00</time></trkpt><trkpt lat="44.631123" lon="33.830891"><ele>282.1</ele><time>2011-10-10T12:10:13.0000000+00:00</time></trkpt><trkpt lat="44.631096" lon="33.830906"><ele>282.9</ele><time>2011-10-10T12:10:18.0000000+00:00</time></trkpt><trkpt lat="44.631065" lon="33.830887"><ele>283.6</ele><time>2011-10-10T12:10:23.0000000+00:00</time></trkpt><trkpt lat="44.631035" lon="33.830845"><ele>284.4</ele><time>2011-10-10T12:10:28.0000000+00:00</time></trkpt><trkpt lat="44.63102" lon="33.830833"><ele>285.0</ele><time>2011-10-10T12:10:33.0000000+00:00</time></trkpt><trkpt lat="44.631012" lon="33.830822"><ele>285.9</ele><time>2011-10-10T12:10:38.0000000+00:00</time></trkpt><trkpt lat="44.631062" lon="33.830853"><ele>286.2</ele><time>2011-10-10T12:10:43.0000000+00:00</time></trkpt><trkpt lat="44.631081" lon="33.830856"><ele>286.5</ele><time>2011-10-10T12:10:48.0000000+00:00</time></trkpt><trkpt lat="44.631115" lon="33.830849"><ele>286.7</ele><time>2011-10-10T12:10:53.0000000+00:00</time></trkpt><trkpt lat="44.631107" lon="33.830833"><ele>286.8</ele><time>2011-10-10T12:10:58.0000000+00:00</time></trkpt><trkpt lat="44.631104" lon="33.830833"><ele>287.3</ele><time>2011-10-10T12:11:03.0000000+00:00</time></trkpt><trkpt lat="44.631107" lon="33.830845"><ele>287.8</ele><time>2011-10-10T12:11:08.0000000+00:00</time></trkpt><trkpt lat="44.631088" lon="33.830894"><ele>288.7</ele><time>2011-10-10T12:11:13.0000000+00:00</time></trkpt><trkpt lat="44.631069" lon="33.830898"><ele>289.4</ele><time>2011-10-10T12:11:18.0000000+00:00</time></trkpt><trkpt lat="44.631062" lon="33.830864"><ele>288.3</ele><time>2011-10-10T12:11:23.0000000+00:00</time></trkpt><trkpt lat="44.631065" lon="33.830856"><ele>288.7</ele><time>2011-10-10T12:11:28.0000000+00:00</time></trkpt><trkpt lat="44.631104" lon="33.830837"><ele>287.8</ele><time>2011-10-10T12:11:33.0000000+00:00</time></trkpt><trkpt lat="44.631119" lon="33.830845"><ele>287.9</ele><time>2011-10-10T12:11:38.0000000+00:00</time></trkpt><trkpt lat="44.631119" lon="33.830841"><ele>288.2</ele><time>2011-10-10T12:11:43.0000000+00:00</time></trkpt><trkpt lat="44.631119" lon="33.830833"><ele>288.4</ele><time>2011-10-10T12:11:48.0000000+00:00</time></trkpt><trkpt lat="44.631119" lon="33.830833"><ele>288.6</ele><time>2011-10-10T12:11:53.0000000+00:00</time></trkpt><trkpt lat="44.631119" lon="33.830833"><ele>288.7</ele><time>2011-10-10T12:11:58.0000000+00:00</time></trkpt><trkpt lat="44.631119" lon="33.830833"><ele>288.7</ele><time>2011-10-10T12:12:03.0000000+00:00</time></trkpt><trkpt lat="44.631119" lon="33.83083"><ele>288.7</ele><time>2011-10-10T12:12:08.0000000+00:00</time></trkpt><trkpt lat="44.631119" lon="33.83083"><ele>288.7</ele><time>2011-10-10T12:12:13.0000000+00:00</time></trkpt><trkpt lat="44.631119" lon="33.83083"><ele>288.7</ele><time>2011-10-10T12:12:18.0000000+00:00</time></trkpt><trkpt lat="44.631119" lon="33.83083"><ele>288.7</ele><time>2011-10-10T12:12:23.0000000+00:00</time></trkpt><trkpt lat="44.631119" lon="33.83083"><ele>288.7</ele><time>2011-10-10T12:12:28.0000000+00:00</time></trkpt><trkpt lat="44.631119" lon="33.83083"><ele>288.7</ele><time>2011-10-10T12:12:33.0000000+00:00</time></trkpt><trkpt lat="44.631119" lon="33.83083"><ele>288.7</ele><time>2011-10-10T12:12:38.0000000+00:00</time></trkpt><trkpt lat="44.631119" lon="33.83083"><ele>288.7</ele><time>2011-10-10T12:12:43.0000000+00:00</time></trkpt><trkpt lat="44.631119" lon="33.83083"><ele>288.7</ele><time>2011-10-10T12:12:48.0000000+00:00</time></trkpt><trkpt lat="44.631119" lon="33.83083"><ele>288.7</ele><time>2011-10-10T12:12:53.0000000+00:00</time></trkpt><trkpt lat="44.631119" lon="33.83083"><ele>288.7</ele><time>2011-10-10T12:12:58.0000000+00:00</time></trkpt><trkpt lat="44.631119" lon="33.830826"><ele>288.7</ele><time>2011-10-10T12:13:03.0000000+00:00</time></trkpt><trkpt lat="44.631115" lon="33.830826"><ele>288.7</ele><time>2011-10-10T12:13:08.0000000+00:00</time></trkpt><trkpt lat="44.631115" lon="33.830826"><ele>288.7</ele><time>2011-10-10T12:13:13.0000000+00:00</time></trkpt><trkpt lat="44.631115" lon="33.830826"><ele>288.7</ele><time>2011-10-10T12:13:18.0000000+00:00</time></trkpt><trkpt lat="44.631115" lon="33.830826"><ele>288.7</ele><time>2011-10-10T12:13:23.0000000+00:00</time></trkpt><trkpt lat="44.631115" lon="33.830826"><ele>288.7</ele><time>2011-10-10T12:13:28.0000000+00:00</time></trkpt><trkpt lat="44.631115" lon="33.830826"><ele>288.7</ele><time>2011-10-10T12:13:33.0000000+00:00</time></trkpt><trkpt lat="44.631115" lon="33.830826"><ele>288.7</ele><time>2011-10-10T12:13:38.0000000+00:00</time></trkpt><trkpt lat="44.631115" lon="33.830826"><ele>288.7</ele><time>2011-10-10T12:13:43.0000000+00:00</time></trkpt><trkpt lat="44.631115" lon="33.830826"><ele>288.6</ele><time>2011-10-10T12:13:48.0000000+00:00</time></trkpt><trkpt lat="44.631115" lon="33.830826"><ele>288.6</ele><time>2011-10-10T12:13:53.0000000+00:00</time></trkpt><trkpt lat="44.631115" lon="33.830826"><ele>288.6</ele><time>2011-10-10T12:13:58.0000000+00:00</time></trkpt><trkpt lat="44.631115" lon="33.830826"><ele>288.6</ele><time>2011-10-10T12:14:03.0000000+00:00</time></trkpt><trkpt lat="44.631119" lon="33.830811"><ele>288.8</ele><time>2011-10-10T12:14:08.0000000+00:00</time></trkpt><trkpt lat="44.631119" lon="33.830784"><ele>289.3</ele><time>2011-10-10T12:14:13.0000000+00:00</time></trkpt><trkpt lat="44.631111" lon="33.830761"><ele>290.2</ele><time>2011-10-10T12:14:18.0000000+00:00</time></trkpt><trkpt lat="44.631119" lon="33.830738"><ele>290.7</ele><time>2011-10-10T12:14:23.0000000+00:00</time></trkpt><trkpt lat="44.631187" lon="33.830673"><ele>291.9</ele><time>2011-10-10T12:14:28.0000000+00:00</time></trkpt><trkpt lat="44.631283" lon="33.830654"><ele>293.3</ele><time>2011-10-10T12:14:33.0000000+00:00</time></trkpt><trkpt lat="44.631317" lon="33.830666"><ele>294.2</ele><time>2011-10-10T12:14:38.0000000+00:00</time></trkpt><trkpt lat="44.631321" lon="33.830666"><ele>294.1</ele><time>2011-10-10T12:14:43.0000000+00:00</time></trkpt><trkpt lat="44.63134" lon="33.830666"><ele>294.3</ele><time>2011-10-10T12:14:48.0000000+00:00</time></trkpt><trkpt lat="44.631371" lon="33.830639"><ele>294.3</ele><time>2011-10-10T12:14:53.0000000+00:00</time></trkpt><trkpt lat="44.631428" lon="33.830647"><ele>294.1</ele><time>2011-10-10T12:14:58.0000000+00:00</time></trkpt><trkpt lat="44.631458" lon="33.830605"><ele>293.5</ele><time>2011-10-10T12:15:03.0000000+00:00</time></trkpt><trkpt lat="44.63147" lon="33.830582"><ele>293.4</ele><time>2011-10-10T12:15:08.0000000+00:00</time></trkpt><trkpt lat="44.631557" lon="33.830536"><ele>293.6</ele><time>2011-10-10T12:15:13.0000000+00:00</time></trkpt><trkpt lat="44.631649" lon="33.830513"><ele>293.2</ele><time>2011-10-10T12:15:18.0000000+00:00</time></trkpt><trkpt lat="44.631714" lon="33.830441"><ele>293.6</ele><time>2011-10-10T12:15:23.0000000+00:00</time></trkpt><trkpt lat="44.631798" lon="33.83041"><ele>293.7</ele><time>2011-10-10T12:15:28.0000000+00:00</time></trkpt><trkpt lat="44.631886" lon="33.830421"><ele>293.9</ele><time>2011-10-10T12:15:33.0000000+00:00</time></trkpt><trkpt lat="44.632004" lon="33.83046"><ele>294.1</ele><time>2011-10-10T12:15:38.0000000+00:00</time></trkpt><trkpt lat="44.63213" lon="33.830395"><ele>292.8</ele><time>2011-10-10T12:15:43.0000000+00:00</time></trkpt><trkpt lat="44.632244" lon="33.830399"><ele>292.8</ele><time>2011-10-10T12:15:48.0000000+00:00</time></trkpt><trkpt lat="44.632305" lon="33.830387"><ele>292.4</ele><time>2011-10-10T12:15:53.0000000+00:00</time></trkpt><trkpt lat="44.632339" lon="33.830448"><ele>292.6</ele><time>2011-10-10T12:15:58.0000000+00:00</time></trkpt><trkpt lat="44.63237" lon="33.83054"><ele>292.9</ele><time>2011-10-10T12:16:03.0000000+00:00</time></trkpt><trkpt lat="44.632435" lon="33.830643"><ele>293.7</ele><time>2011-10-10T12:16:08.0000000+00:00</time></trkpt><trkpt lat="44.63245" lon="33.830772"><ele>294.6</ele><time>2011-10-10T12:16:13.0000000+00:00</time></trkpt><trkpt lat="44.632511" lon="33.830975"><ele>295.2</ele><time>2011-10-10T12:16:18.0000000+00:00</time></trkpt><trkpt lat="44.632675" lon="33.831345"><ele>295.1</ele><time>2011-10-10T12:16:23.0000000+00:00</time></trkpt><trkpt lat="44.632698" lon="33.831387"><ele>294.8</ele><time>2011-10-10T12:16:28.0000000+00:00</time></trkpt><trkpt lat="44.632786" lon="33.831516"><ele>294.6</ele><time>2011-10-10T12:16:33.0000000+00:00</time></trkpt><trkpt lat="44.632748" lon="33.831562"><ele>293.7</ele><time>2011-10-10T12:16:38.0000000+00:00</time></trkpt><trkpt lat="44.63274" lon="33.831604"><ele>293.4</ele><time>2011-10-10T12:16:43.0000000+00:00</time></trkpt><trkpt lat="44.632751" lon="33.831627"><ele>293.3</ele><time>2011-10-10T12:16:48.0000000+00:00</time></trkpt><trkpt lat="44.632759" lon="33.831646"><ele>293.2</ele><time>2011-10-10T12:16:53.0000000+00:00</time></trkpt><trkpt lat="44.632778" lon="33.831722"><ele>293.0</ele><time>2011-10-10T12:16:58.0000000+00:00</time></trkpt><trkpt lat="44.632774" lon="33.831745"><ele>292.0</ele><time>2011-10-10T12:17:03.0000000+00:00</time></trkpt><trkpt lat="44.632778" lon="33.831757"><ele>292.0</ele><time>2011-10-10T12:17:08.0000000+00:00</time></trkpt><trkpt lat="44.632774" lon="33.831768"><ele>292.0</ele><time>2011-10-10T12:17:13.0000000+00:00</time></trkpt><trkpt lat="44.632782" lon="33.831779"><ele>292.0</ele><time>2011-10-10T12:17:18.0000000+00:00</time></trkpt><trkpt lat="44.632782" lon="33.831795"><ele>292.0</ele><time>2011-10-10T12:17:23.0000000+00:00</time></trkpt><trkpt lat="44.632797" lon="33.831795"><ele>291.7</ele><time>2011-10-10T12:17:28.0000000+00:00</time></trkpt><trkpt lat="44.632801" lon="33.831799"><ele>291.7</ele><time>2011-10-10T12:17:33.0000000+00:00</time></trkpt><trkpt lat="44.632805" lon="33.831806"><ele>291.7</ele><time>2011-10-10T12:17:38.0000000+00:00</time></trkpt><trkpt lat="44.632805" lon="33.831814"><ele>291.6</ele><time>2011-10-10T12:17:43.0000000+00:00</time></trkpt><trkpt lat="44.632809" lon="33.831814"><ele>291.6</ele><time>2011-10-10T12:17:48.0000000+00:00</time></trkpt><trkpt lat="44.632801" lon="33.831802"><ele>291.0</ele><time>2011-10-10T12:17:53.0000000+00:00</time></trkpt><trkpt lat="44.632782" lon="33.831799"><ele>290.0</ele><time>2011-10-10T12:17:58.0000000+00:00</time></trkpt><trkpt lat="44.632774" lon="33.831799"><ele>289.9</ele><time>2011-10-10T12:18:03.0000000+00:00</time></trkpt><trkpt lat="44.632763" lon="33.831776"><ele>289.8</ele><time>2011-10-10T12:18:08.0000000+00:00</time></trkpt><trkpt lat="44.632771" lon="33.831726"><ele>289.5</ele><time>2011-10-10T12:18:13.0000000+00:00</time></trkpt><trkpt lat="44.632778" lon="33.831699"><ele>289.3</ele><time>2011-10-10T12:18:18.0000000+00:00</time></trkpt><trkpt lat="44.632813" lon="33.831676"><ele>289.5</ele><time>2011-10-10T12:18:23.0000000+00:00</time></trkpt><trkpt lat="44.632813" lon="33.831669"><ele>289.5</ele><time>2011-10-10T12:18:28.0000000+00:00</time></trkpt><trkpt lat="44.632843" lon="33.831608"><ele>289.4</ele><time>2011-10-10T12:18:33.0000000+00:00</time></trkpt><trkpt lat="44.632843" lon="33.831505"><ele>289.4</ele><time>2011-10-10T12:18:38.0000000+00:00</time></trkpt><trkpt lat="44.632866" lon="33.831402"><ele>289.4</ele><time>2011-10-10T12:18:43.0000000+00:00</time></trkpt><trkpt lat="44.633049" lon="33.831295"><ele>288.9</ele><time>2011-10-10T12:18:48.0000000+00:00</time></trkpt><trkpt lat="44.633083" lon="33.831253"><ele>288.8</ele><time>2011-10-10T12:18:53.0000000+00:00</time></trkpt><trkpt lat="44.633087" lon="33.831253"><ele>288.8</ele><time>2011-10-10T12:18:58.0000000+00:00</time></trkpt><trkpt lat="44.633087" lon="33.831257"><ele>288.8</ele><time>2011-10-10T12:19:03.0000000+00:00</time></trkpt><trkpt lat="44.633095" lon="33.831249"><ele>288.8</ele><time>2011-10-10T12:19:08.0000000+00:00</time></trkpt><trkpt lat="44.633083" lon="33.831181"><ele>288.6</ele><time>2011-10-10T12:19:13.0000000+00:00</time></trkpt><trkpt lat="44.633083" lon="33.831093"><ele>288.4</ele><time>2011-10-10T12:19:18.0000000+00:00</time></trkpt><trkpt lat="44.633121" lon="33.83099"><ele>288.1</ele><time>2011-10-10T12:19:23.0000000+00:00</time></trkpt><trkpt lat="44.633114" lon="33.830883"><ele>288.0</ele><time>2011-10-10T12:19:28.0000000+00:00</time></trkpt><trkpt lat="44.633053" lon="33.83075"><ele>287.7</ele><time>2011-10-10T12:19:33.0000000+00:00</time></trkpt><trkpt lat="44.633038" lon="33.830677"><ele>287.6</ele><time>2011-10-10T12:19:38.0000000+00:00</time></trkpt><trkpt lat="44.63308" lon="33.830578"><ele>287.3</ele><time>2011-10-10T12:19:43.0000000+00:00</time></trkpt><trkpt lat="44.633118" lon="33.830544"><ele>286.9</ele><time>2011-10-10T12:19:48.0000000+00:00</time></trkpt><trkpt lat="44.633148" lon="33.830498"><ele>285.7</ele><time>2011-10-10T12:19:53.0000000+00:00</time></trkpt><trkpt lat="44.633167" lon="33.830475"><ele>285.5</ele><time>2011-10-10T12:19:58.0000000+00:00</time></trkpt><trkpt lat="44.633171" lon="33.830479"><ele>285.5</ele><time>2011-10-10T12:20:03.0000000+00:00</time></trkpt><trkpt lat="44.633179" lon="33.830482"><ele>285.4</ele><time>2011-10-10T12:20:08.0000000+00:00</time></trkpt><trkpt lat="44.633183" lon="33.830482"><ele>285.3</ele><time>2011-10-10T12:20:13.0000000+00:00</time></trkpt><trkpt lat="44.63319" lon="33.830482"><ele>285.2</ele><time>2011-10-10T12:20:18.0000000+00:00</time></trkpt><trkpt lat="44.633198" lon="33.830482"><ele>285.0</ele><time>2011-10-10T12:20:23.0000000+00:00</time></trkpt><trkpt lat="44.633205" lon="33.830486"><ele>284.7</ele><time>2011-10-10T12:20:28.0000000+00:00</time></trkpt><trkpt lat="44.633209" lon="33.830479"><ele>284.3</ele><time>2011-10-10T12:20:33.0000000+00:00</time></trkpt><trkpt lat="44.633205" lon="33.830479"><ele>284.1</ele><time>2011-10-10T12:20:38.0000000+00:00</time></trkpt><trkpt lat="44.633213" lon="33.830463"><ele>283.6</ele><time>2011-10-10T12:20:43.0000000+00:00</time></trkpt><trkpt lat="44.633286" lon="33.830379"><ele>283.0</ele><time>2011-10-10T12:20:48.0000000+00:00</time></trkpt><trkpt lat="44.633339" lon="33.830334"><ele>282.7</ele><time>2011-10-10T12:20:53.0000000+00:00</time></trkpt><trkpt lat="44.6334" lon="33.830349"><ele>281.4</ele><time>2011-10-10T12:20:58.0000000+00:00</time></trkpt><trkpt lat="44.633427" lon="33.830303"><ele>280.1</ele><time>2011-10-10T12:21:03.0000000+00:00</time></trkpt><trkpt lat="44.633442" lon="33.830315"><ele>279.6</ele><time>2011-10-10T12:21:08.0000000+00:00</time></trkpt><trkpt lat="44.633465" lon="33.830284"><ele>278.7</ele><time>2011-10-10T12:21:13.0000000+00:00</time></trkpt><trkpt lat="44.633492" lon="33.83025"><ele>277.4</ele><time>2011-10-10T12:21:18.0000000+00:00</time></trkpt><trkpt lat="44.633537" lon="33.830227"><ele>275.8</ele><time>2011-10-10T12:21:23.0000000+00:00</time></trkpt><trkpt lat="44.63356" lon="33.8302"><ele>274.3</ele><time>2011-10-10T12:21:28.0000000+00:00</time></trkpt><trkpt lat="44.633572" lon="33.830189"><ele>272.6</ele><time>2011-10-10T12:21:33.0000000+00:00</time></trkpt><trkpt lat="44.633598" lon="33.830151"><ele>271.5</ele><time>2011-10-10T12:21:38.0000000+00:00</time></trkpt><trkpt lat="44.633629" lon="33.830097"><ele>270.4</ele><time>2011-10-10T12:21:43.0000000+00:00</time></trkpt><trkpt lat="44.633667" lon="33.829987"><ele>269.4</ele><time>2011-10-10T12:21:48.0000000+00:00</time></trkpt><trkpt lat="44.63369" lon="33.82988"><ele>268.6</ele><time>2011-10-10T12:21:53.0000000+00:00</time></trkpt><trkpt lat="44.633709" lon="33.8298"><ele>267.2</ele><time>2011-10-10T12:21:58.0000000+00:00</time></trkpt><trkpt lat="44.633755" lon="33.829731"><ele>265.8</ele><time>2011-10-10T12:22:03.0000000+00:00</time></trkpt><trkpt lat="44.63382" lon="33.829727"><ele>264.9</ele><time>2011-10-10T12:22:08.0000000+00:00</time></trkpt><trkpt lat="44.633919" lon="33.829731"><ele>264.7</ele><time>2011-10-10T12:22:13.0000000+00:00</time></trkpt><trkpt lat="44.634052" lon="33.829803"><ele>264.9</ele><time>2011-10-10T12:22:18.0000000+00:00</time></trkpt><trkpt lat="44.634125" lon="33.82983"><ele>264.4</ele><time>2011-10-10T12:22:23.0000000+00:00</time></trkpt><trkpt lat="44.634144" lon="33.829773"><ele>263.8</ele><time>2011-10-10T12:22:28.0000000+00:00</time></trkpt><trkpt lat="44.634193" lon="33.829735"><ele>263.7</ele><time>2011-10-10T12:22:33.0000000+00:00</time></trkpt><trkpt lat="44.634304" lon="33.829639"><ele>263.5</ele><time>2011-10-10T12:22:38.0000000+00:00</time></trkpt><trkpt lat="44.634388" lon="33.82962"><ele>263.2</ele><time>2011-10-10T12:22:43.0000000+00:00</time></trkpt><trkpt lat="44.634426" lon="33.829578"><ele>262.1</ele><time>2011-10-10T12:22:48.0000000+00:00</time></trkpt><trkpt lat="44.63443" lon="33.829582"><ele>262.9</ele><time>2011-10-10T12:22:53.0000000+00:00</time></trkpt><trkpt lat="44.634426" lon="33.829582"><ele>263.5</ele><time>2011-10-10T12:22:58.0000000+00:00</time></trkpt><trkpt lat="44.63443" lon="33.829578"><ele>263.8</ele><time>2011-10-10T12:23:03.0000000+00:00</time></trkpt><trkpt lat="44.634434" lon="33.829575"><ele>263.9</ele><time>2011-10-10T12:23:08.0000000+00:00</time></trkpt><trkpt lat="44.634438" lon="33.829567"><ele>263.9</ele><time>2011-10-10T12:23:13.0000000+00:00</time></trkpt><trkpt lat="44.634441" lon="33.829563"><ele>263.8</ele><time>2011-10-10T12:23:18.0000000+00:00</time></trkpt><trkpt lat="44.634464" lon="33.829525"><ele>263.0</ele><time>2011-10-10T12:23:23.0000000+00:00</time></trkpt><trkpt lat="44.634518" lon="33.829449"><ele>261.3</ele><time>2011-10-10T12:23:28.0000000+00:00</time></trkpt><trkpt lat="44.634598" lon="33.829361"><ele>259.3</ele><time>2011-10-10T12:23:33.0000000+00:00</time></trkpt><trkpt lat="44.634621" lon="33.829323"><ele>258.2</ele><time>2011-10-10T12:23:38.0000000+00:00</time></trkpt><trkpt lat="44.634624" lon="33.829311"><ele>256.9</ele><time>2011-10-10T12:23:43.0000000+00:00</time></trkpt><trkpt lat="44.63464" lon="33.829304"><ele>256.2</ele><time>2011-10-10T12:23:48.0000000+00:00</time></trkpt><trkpt lat="44.634647" lon="33.829292"><ele>256.1</ele><time>2011-10-10T12:23:53.0000000+00:00</time></trkpt><trkpt lat="44.63467" lon="33.829334"><ele>252.7</ele><time>2011-10-10T12:23:58.0000000+00:00</time></trkpt><trkpt lat="44.634674" lon="33.829357"><ele>249.7</ele><time>2011-10-10T12:24:03.0000000+00:00</time></trkpt><trkpt lat="44.634686" lon="33.82935"><ele>249.0</ele><time>2011-10-10T12:24:08.0000000+00:00</time></trkpt><trkpt lat="44.634708" lon="33.829342"><ele>248.0</ele><time>2011-10-10T12:24:13.0000000+00:00</time></trkpt><trkpt lat="44.634777" lon="33.82917"><ele>247.5</ele><time>2011-10-10T12:24:18.0000000+00:00</time></trkpt><trkpt lat="44.634857" lon="33.828976"><ele>247.9</ele><time>2011-10-10T12:24:23.0000000+00:00</time></trkpt><trkpt lat="44.634853" lon="33.82896"><ele>248.7</ele><time>2011-10-10T12:24:28.0000000+00:00</time></trkpt><trkpt lat="44.634838" lon="33.828888"><ele>249.4</ele><time>2011-10-10T12:24:33.0000000+00:00</time></trkpt><trkpt lat="44.634899" lon="33.828808"><ele>249.5</ele><time>2011-10-10T12:24:38.0000000+00:00</time></trkpt><trkpt lat="44.635021" lon="33.82869"><ele>251.2</ele><time>2011-10-10T12:24:43.0000000+00:00</time></trkpt><trkpt lat="44.635166" lon="33.828556"><ele>253.9</ele><time>2011-10-10T12:24:48.0000000+00:00</time></trkpt><trkpt lat="44.635345" lon="33.828499"><ele>252.5</ele><time>2011-10-10T12:24:53.0000000+00:00</time></trkpt><trkpt lat="44.635468" lon="33.828453"><ele>250.9</ele><time>2011-10-10T12:24:58.0000000+00:00</time></trkpt><trkpt lat="44.635597" lon="33.828434"><ele>251.2</ele><time>2011-10-10T12:25:03.0000000+00:00</time></trkpt><trkpt lat="44.6357" lon="33.828339"><ele>250.6</ele><time>2011-10-10T12:25:08.0000000+00:00</time></trkpt><trkpt lat="44.635826" lon="33.82819"><ele>250.1</ele><time>2011-10-10T12:25:13.0000000+00:00</time></trkpt><trkpt lat="44.635952" lon="33.828098"><ele>248.8</ele><time>2011-10-10T12:25:18.0000000+00:00</time></trkpt><trkpt lat="44.636059" lon="33.827953"><ele>245.0</ele><time>2011-10-10T12:25:23.0000000+00:00</time></trkpt><trkpt lat="44.6362" lon="33.827896"><ele>239.4</ele><time>2011-10-10T12:25:28.0000000+00:00</time></trkpt><trkpt lat="44.636383" lon="33.827915"><ele>235.3</ele><time>2011-10-10T12:25:33.0000000+00:00</time></trkpt><trkpt lat="44.636581" lon="33.827934"><ele>227.6</ele><time>2011-10-10T12:25:38.0000000+00:00</time></trkpt><trkpt lat="44.63686" lon="33.827866"><ele>223.4</ele><time>2011-10-10T12:25:43.0000000+00:00</time></trkpt><trkpt lat="44.637112" lon="33.827667"><ele>217.0</ele><time>2011-10-10T12:25:48.0000000+00:00</time></trkpt><trkpt lat="44.637295" lon="33.827579"><ele>210.7</ele><time>2011-10-10T12:25:53.0000000+00:00</time></trkpt><trkpt lat="44.637585" lon="33.82769"><ele>204.9</ele><time>2011-10-10T12:25:58.0000000+00:00</time></trkpt><trkpt lat="44.637794" lon="33.827763"><ele>203.9</ele><time>2011-10-10T12:26:03.0000000+00:00</time></trkpt><trkpt lat="44.637901" lon="33.82782"><ele>203.5</ele><time>2011-10-10T12:26:08.0000000+00:00</time></trkpt><trkpt lat="44.638184" lon="33.827862"><ele>200.1</ele><time>2011-10-10T12:26:13.0000000+00:00</time></trkpt><trkpt lat="44.638454" lon="33.827965"><ele>196.8</ele><time>2011-10-10T12:26:18.0000000+00:00</time></trkpt><trkpt lat="44.638603" lon="33.828094"><ele>193.7</ele><time>2011-10-10T12:26:23.0000000+00:00</time></trkpt><trkpt lat="44.638634" lon="33.828152"><ele>190.8</ele><time>2011-10-10T12:26:28.0000000+00:00</time></trkpt><trkpt lat="44.638638" lon="33.828159"><ele>190.2</ele><time>2011-10-10T12:26:33.0000000+00:00</time></trkpt><trkpt lat="44.63866" lon="33.828159"><ele>189.1</ele><time>2011-10-10T12:26:38.0000000+00:00</time></trkpt><trkpt lat="44.638702" lon="33.828159"><ele>186.2</ele><time>2011-10-10T12:26:43.0000000+00:00</time></trkpt><trkpt lat="44.638763" lon="33.828186"><ele>183.3</ele><time>2011-10-10T12:26:48.0000000+00:00</time></trkpt><trkpt lat="44.638809" lon="33.828205"><ele>182.4</ele><time>2011-10-10T12:26:53.0000000+00:00</time></trkpt><trkpt lat="44.638863" lon="33.828228"><ele>181.5</ele><time>2011-10-10T12:26:58.0000000+00:00</time></trkpt><trkpt lat="44.638935" lon="33.828243"><ele>177.5</ele><time>2011-10-10T12:27:03.0000000+00:00</time></trkpt><trkpt lat="44.638981" lon="33.828236"><ele>174.2</ele><time>2011-10-10T12:27:08.0000000+00:00</time></trkpt><trkpt lat="44.639011" lon="33.828232"><ele>172.6</ele><time>2011-10-10T12:27:13.0000000+00:00</time></trkpt><trkpt lat="44.639023" lon="33.828251"><ele>170.8</ele><time>2011-10-10T12:27:18.0000000+00:00</time></trkpt><trkpt lat="44.639042" lon="33.828243"><ele>169.2</ele><time>2011-10-10T12:27:23.0000000+00:00</time></trkpt><trkpt lat="44.639065" lon="33.828251"><ele>168.2</ele><time>2011-10-10T12:27:28.0000000+00:00</time></trkpt><trkpt lat="44.639061" lon="33.828255"><ele>168.2</ele><time>2011-10-10T12:27:33.0000000+00:00</time></trkpt><trkpt lat="44.639065" lon="33.828247"><ele>168.2</ele><time>2011-10-10T12:27:38.0000000+00:00</time></trkpt><trkpt lat="44.639072" lon="33.828243"><ele>168.2</ele><time>2011-10-10T12:27:43.0000000+00:00</time></trkpt><trkpt lat="44.639072" lon="33.828236"><ele>168.2</ele><time>2011-10-10T12:27:48.0000000+00:00</time></trkpt><trkpt lat="44.639072" lon="33.82822"><ele>168.3</ele><time>2011-10-10T12:27:53.0000000+00:00</time></trkpt><trkpt lat="44.639084" lon="33.828182"><ele>168.2</ele><time>2011-10-10T12:27:58.0000000+00:00</time></trkpt><trkpt lat="44.639095" lon="33.828167"><ele>168.2</ele><time>2011-10-10T12:28:03.0000000+00:00</time></trkpt><trkpt lat="44.639095" lon="33.828156"><ele>168.2</ele><time>2011-10-10T12:28:08.0000000+00:00</time></trkpt><trkpt lat="44.639103" lon="33.828148"><ele>168.1</ele><time>2011-10-10T12:28:13.0000000+00:00</time></trkpt><trkpt lat="44.639114" lon="33.828159"><ele>168.1</ele><time>2011-10-10T12:28:18.0000000+00:00</time></trkpt><trkpt lat="44.63913" lon="33.828144"><ele>168.0</ele><time>2011-10-10T12:28:23.0000000+00:00</time></trkpt><trkpt lat="44.639153" lon="33.828129"><ele>167.8</ele><time>2011-10-10T12:28:28.0000000+00:00</time></trkpt><trkpt lat="44.639164" lon="33.82814"><ele>167.5</ele><time>2011-10-10T12:28:33.0000000+00:00</time></trkpt><trkpt lat="44.639172" lon="33.828163"><ele>167.1</ele><time>2011-10-10T12:28:38.0000000+00:00</time></trkpt><trkpt lat="44.639214" lon="33.828152"><ele>167.0</ele><time>2011-10-10T12:28:43.0000000+00:00</time></trkpt><trkpt lat="44.63921" lon="33.828182"><ele>167.0</ele><time>2011-10-10T12:28:48.0000000+00:00</time></trkpt><trkpt lat="44.639217" lon="33.828201"><ele>167.0</ele><time>2011-10-10T12:28:53.0000000+00:00</time></trkpt><trkpt lat="44.639221" lon="33.828205"><ele>167.1</ele><time>2011-10-10T12:28:58.0000000+00:00</time></trkpt><trkpt lat="44.639217" lon="33.828217"><ele>167.2</ele><time>2011-10-10T12:29:03.0000000+00:00</time></trkpt><trkpt lat="44.639214" lon="33.82822"><ele>167.2</ele><time>2011-10-10T12:29:08.0000000+00:00</time></trkpt><trkpt lat="44.63921" lon="33.828217"><ele>167.2</ele><time>2011-10-10T12:29:13.0000000+00:00</time></trkpt><trkpt lat="44.639202" lon="33.828201"><ele>167.3</ele><time>2011-10-10T12:29:18.0000000+00:00</time></trkpt><trkpt lat="44.639206" lon="33.828175"><ele>167.2</ele><time>2011-10-10T12:29:23.0000000+00:00</time></trkpt><trkpt lat="44.639214" lon="33.828156"><ele>167.2</ele><time>2011-10-10T12:29:28.0000000+00:00</time></trkpt><trkpt lat="44.63921" lon="33.828159"><ele>167.1</ele><time>2011-10-10T12:29:33.0000000+00:00</time></trkpt><trkpt lat="44.639259" lon="33.828167"><ele>166.8</ele><time>2011-10-10T12:29:38.0000000+00:00</time></trkpt><trkpt lat="44.639263" lon="33.828125"><ele>166.5</ele><time>2011-10-10T12:29:43.0000000+00:00</time></trkpt><trkpt lat="44.639263" lon="33.828121"><ele>166.6</ele><time>2011-10-10T12:29:48.0000000+00:00</time></trkpt><trkpt lat="44.639259" lon="33.828117"><ele>166.6</ele><time>2011-10-10T12:29:53.0000000+00:00</time></trkpt><trkpt lat="44.639259" lon="33.828114"><ele>166.7</ele><time>2011-10-10T12:29:58.0000000+00:00</time></trkpt><trkpt lat="44.639252" lon="33.828121"><ele>166.7</ele><time>2011-10-10T12:30:03.0000000+00:00</time></trkpt><trkpt lat="44.639236" lon="33.828129"><ele>166.8</ele><time>2011-10-10T12:30:08.0000000+00:00</time></trkpt><trkpt lat="44.639175" lon="33.828144"><ele>166.4</ele><time>2011-10-10T12:30:13.0000000+00:00</time></trkpt><trkpt lat="44.639198" lon="33.828167"><ele>166.2</ele><time>2011-10-10T12:30:18.0000000+00:00</time></trkpt><trkpt lat="44.639198" lon="33.828186"><ele>166.2</ele><time>2011-10-10T12:30:23.0000000+00:00</time></trkpt><trkpt lat="44.639191" lon="33.82819"><ele>166.3</ele><time>2011-10-10T12:30:28.0000000+00:00</time></trkpt><trkpt lat="44.639183" lon="33.828197"><ele>166.3</ele><time>2011-10-10T12:30:33.0000000+00:00</time></trkpt><trkpt lat="44.639179" lon="33.828209"><ele>166.4</ele><time>2011-10-10T12:30:38.0000000+00:00</time></trkpt><trkpt lat="44.639175" lon="33.828213"><ele>166.4</ele><time>2011-10-10T12:30:43.0000000+00:00</time></trkpt><trkpt lat="44.639175" lon="33.828209"><ele>166.5</ele><time>2011-10-10T12:30:48.0000000+00:00</time></trkpt><trkpt lat="44.639179" lon="33.828201"><ele>166.5</ele><time>2011-10-10T12:30:53.0000000+00:00</time></trkpt><trkpt lat="44.639179" lon="33.828171"><ele>166.5</ele><time>2011-10-10T12:30:58.0000000+00:00</time></trkpt><trkpt lat="44.639194" lon="33.82814"><ele>166.4</ele><time>2011-10-10T12:31:03.0000000+00:00</time></trkpt><trkpt lat="44.639183" lon="33.828125"><ele>166.3</ele><time>2011-10-10T12:31:08.0000000+00:00</time></trkpt><trkpt lat="44.639183" lon="33.82814"><ele>166.2</ele><time>2011-10-10T12:31:13.0000000+00:00</time></trkpt><trkpt lat="44.639164" lon="33.828117"><ele>165.8</ele><time>2011-10-10T12:31:18.0000000+00:00</time></trkpt><trkpt lat="44.639164" lon="33.828125"><ele>165.9</ele><time>2011-10-10T12:31:23.0000000+00:00</time></trkpt><trkpt lat="44.639156" lon="33.828133"><ele>165.9</ele><time>2011-10-10T12:31:28.0000000+00:00</time></trkpt><trkpt lat="44.639153" lon="33.828129"><ele>166.0</ele><time>2011-10-10T12:31:33.0000000+00:00</time></trkpt><trkpt lat="44.639149" lon="33.828133"><ele>166.1</ele><time>2011-10-10T12:31:38.0000000+00:00</time></trkpt><trkpt lat="44.639153" lon="33.828144"><ele>166.1</ele><time>2011-10-10T12:31:43.0000000+00:00</time></trkpt><trkpt lat="44.639168" lon="33.828159"><ele>166.1</ele><time>2011-10-10T12:31:48.0000000+00:00</time></trkpt><trkpt lat="44.639191" lon="33.82819"><ele>166.1</ele><time>2011-10-10T12:31:53.0000000+00:00</time></trkpt><trkpt lat="44.639225" lon="33.828236"><ele>166.1</ele><time>2011-10-10T12:31:58.0000000+00:00</time></trkpt><trkpt lat="44.639275" lon="33.828297"><ele>166.1</ele><time>2011-10-10T12:32:03.0000000+00:00</time></trkpt><trkpt lat="44.639294" lon="33.828308"><ele>165.9</ele><time>2011-10-10T12:32:08.0000000+00:00</time></trkpt><trkpt lat="44.639248" lon="33.82822"><ele>165.7</ele><time>2011-10-10T12:32:13.0000000+00:00</time></trkpt><trkpt lat="44.639244" lon="33.828194"><ele>165.7</ele><time>2011-10-10T12:32:18.0000000+00:00</time></trkpt><trkpt lat="44.639248" lon="33.828201"><ele>165.7</ele><time>2011-10-10T12:32:23.0000000+00:00</time></trkpt><trkpt lat="44.639256" lon="33.828205"><ele>165.8</ele><time>2011-10-10T12:32:28.0000000+00:00</time></trkpt><trkpt lat="44.639263" lon="33.828213"><ele>165.8</ele><time>2011-10-10T12:32:33.0000000+00:00</time></trkpt><trkpt lat="44.639271" lon="33.82822"><ele>165.8</ele><time>2011-10-10T12:32:38.0000000+00:00</time></trkpt><trkpt lat="44.639271" lon="33.82822"><ele>165.9</ele><time>2011-10-10T12:32:43.0000000+00:00</time></trkpt><trkpt lat="44.639267" lon="33.828224"><ele>165.9</ele><time>2011-10-10T12:32:48.0000000+00:00</time></trkpt><trkpt lat="44.639263" lon="33.828224"><ele>165.9</ele><time>2011-10-10T12:32:53.0000000+00:00</time></trkpt><trkpt lat="44.639259" lon="33.828217"><ele>166.0</ele><time>2011-10-10T12:32:58.0000000+00:00</time></trkpt><trkpt lat="44.639252" lon="33.828205"><ele>166.0</ele><time>2011-10-10T12:33:03.0000000+00:00</time></trkpt><trkpt lat="44.639233" lon="33.828186"><ele>166.0</ele><time>2011-10-10T12:33:08.0000000+00:00</time></trkpt><trkpt lat="44.639221" lon="33.82819"><ele>165.9</ele><time>2011-10-10T12:33:13.0000000+00:00</time></trkpt><trkpt lat="44.63921" lon="33.828197"><ele>165.9</ele><time>2011-10-10T12:33:18.0000000+00:00</time></trkpt><trkpt lat="44.639202" lon="33.82819"><ele>165.9</ele><time>2011-10-10T12:33:23.0000000+00:00</time></trkpt><trkpt lat="44.639194" lon="33.828186"><ele>166.0</ele><time>2011-10-10T12:33:28.0000000+00:00</time></trkpt><trkpt lat="44.639183" lon="33.828186"><ele>166.0</ele><time>2011-10-10T12:33:33.0000000+00:00</time></trkpt><trkpt lat="44.639175" lon="33.82819"><ele>166.1</ele><time>2011-10-10T12:33:38.0000000+00:00</time></trkpt><trkpt lat="44.639164" lon="33.82819"><ele>166.1</ele><time>2011-10-10T12:33:43.0000000+00:00</time></trkpt><trkpt lat="44.639153" lon="33.828194"><ele>166.2</ele><time>2011-10-10T12:33:48.0000000+00:00</time></trkpt><trkpt lat="44.639145" lon="33.828209"><ele>166.2</ele><time>2011-10-10T12:33:53.0000000+00:00</time></trkpt><trkpt lat="44.639137" lon="33.82822"><ele>166.2</ele><time>2011-10-10T12:33:58.0000000+00:00</time></trkpt><trkpt lat="44.639145" lon="33.828243"><ele>166.2</ele><time>2011-10-10T12:34:03.0000000+00:00</time></trkpt><trkpt lat="44.639149" lon="33.828259"><ele>166.2</ele><time>2011-10-10T12:34:08.0000000+00:00</time></trkpt><trkpt lat="44.639149" lon="33.82827"><ele>166.3</ele><time>2011-10-10T12:34:13.0000000+00:00</time></trkpt><trkpt lat="44.639153" lon="33.828278"><ele>166.3</ele><time>2011-10-10T12:34:18.0000000+00:00</time></trkpt><trkpt lat="44.63916" lon="33.828281"><ele>166.3</ele><time>2011-10-10T12:34:23.0000000+00:00</time></trkpt><trkpt lat="44.639172" lon="33.828278"><ele>166.4</ele><time>2011-10-10T12:34:28.0000000+00:00</time></trkpt><trkpt lat="44.639179" lon="33.828274"><ele>166.4</ele><time>2011-10-10T12:34:33.0000000+00:00</time></trkpt><trkpt lat="44.639187" lon="33.82827"><ele>166.5</ele><time>2011-10-10T12:34:38.0000000+00:00</time></trkpt><trkpt lat="44.639198" lon="33.82827"><ele>166.5</ele><time>2011-10-10T12:34:43.0000000+00:00</time></trkpt><trkpt lat="44.63921" lon="33.82827"><ele>166.5</ele><time>2011-10-10T12:34:48.0000000+00:00</time></trkpt><trkpt lat="44.639221" lon="33.828274"><ele>166.6</ele><time>2011-10-10T12:34:53.0000000+00:00</time></trkpt><trkpt lat="44.639225" lon="33.828281"><ele>166.6</ele><time>2011-10-10T12:34:58.0000000+00:00</time></trkpt><trkpt lat="44.639225" lon="33.828297"><ele>166.7</ele><time>2011-10-10T12:35:03.0000000+00:00</time></trkpt><trkpt lat="44.639221" lon="33.828308"><ele>166.7</ele><time>2011-10-10T12:35:08.0000000+00:00</time></trkpt><trkpt lat="44.639217" lon="33.82832"><ele>166.7</ele><time>2011-10-10T12:35:13.0000000+00:00</time></trkpt><trkpt lat="44.639214" lon="33.828331"><ele>166.8</ele><time>2011-10-10T12:35:18.0000000+00:00</time></trkpt><trkpt lat="44.63921" lon="33.828339"><ele>166.8</ele><time>2011-10-10T12:35:23.0000000+00:00</time></trkpt><trkpt lat="44.639206" lon="33.828346"><ele>166.8</ele><time>2011-10-10T12:35:28.0000000+00:00</time></trkpt><trkpt lat="44.639206" lon="33.828354"><ele>166.9</ele><time>2011-10-10T12:35:33.0000000+00:00</time></trkpt><trkpt lat="44.639236" lon="33.828327"><ele>166.9</ele><time>2011-10-10T12:35:38.0000000+00:00</time></trkpt><trkpt lat="44.63929" lon="33.828289"><ele>166.7</ele><time>2011-10-10T12:35:43.0000000+00:00</time></trkpt><trkpt lat="44.639317" lon="33.828293"><ele>167.0</ele><time>2011-10-10T12:35:48.0000000+00:00</time></trkpt><trkpt lat="44.639362" lon="33.828331"><ele>166.8</ele><time>2011-10-10T12:35:53.0000000+00:00</time></trkpt><trkpt lat="44.639267" lon="33.828289"><ele>166.6</ele><time>2011-10-10T12:35:58.0000000+00:00</time></trkpt><trkpt lat="44.639271" lon="33.828289"><ele>166.4</ele><time>2011-10-10T12:36:03.0000000+00:00</time></trkpt><trkpt lat="44.639263" lon="33.828281"><ele>166.3</ele><time>2011-10-10T12:36:08.0000000+00:00</time></trkpt><trkpt lat="44.639294" lon="33.828247"><ele>166.3</ele><time>2011-10-10T12:36:13.0000000+00:00</time></trkpt><trkpt lat="44.639271" lon="33.828236"><ele>164.3</ele><time>2011-10-10T12:36:18.0000000+00:00</time></trkpt><trkpt lat="44.639248" lon="33.828236"><ele>164.2</ele><time>2011-10-10T12:36:23.0000000+00:00</time></trkpt><trkpt lat="44.639229" lon="33.828232"><ele>164.2</ele><time>2011-10-10T12:36:28.0000000+00:00</time></trkpt><trkpt lat="44.639217" lon="33.828228"><ele>164.2</ele><time>2011-10-10T12:36:33.0000000+00:00</time></trkpt><trkpt lat="44.63921" lon="33.828224"><ele>164.4</ele><time>2011-10-10T12:36:38.0000000+00:00</time></trkpt><trkpt lat="44.639202" lon="33.82822"><ele>164.5</ele><time>2011-10-10T12:36:43.0000000+00:00</time></trkpt><trkpt lat="44.639194" lon="33.82822"><ele>164.5</ele><time>2011-10-10T12:36:48.0000000+00:00</time></trkpt><trkpt lat="44.639187" lon="33.828217"><ele>164.6</ele><time>2011-10-10T12:36:53.0000000+00:00</time></trkpt><trkpt lat="44.639183" lon="33.828217"><ele>164.7</ele><time>2011-10-10T12:36:58.0000000+00:00</time></trkpt><trkpt lat="44.639179" lon="33.828217"><ele>164.8</ele><time>2011-10-10T12:37:03.0000000+00:00</time></trkpt><trkpt lat="44.639179" lon="33.828217"><ele>164.9</ele><time>2011-10-10T12:37:08.0000000+00:00</time></trkpt><trkpt lat="44.639179" lon="33.828213"><ele>165.0</ele><time>2011-10-10T12:37:13.0000000+00:00</time></trkpt><trkpt lat="44.639179" lon="33.828213"><ele>165.0</ele><time>2011-10-10T12:37:18.0000000+00:00</time></trkpt><trkpt lat="44.639179" lon="33.828213"><ele>165.0</ele><time>2011-10-10T12:37:23.0000000+00:00</time></trkpt><trkpt lat="44.639179" lon="33.828213"><ele>165.0</ele><time>2011-10-10T12:37:28.0000000+00:00</time></trkpt><trkpt lat="44.639183" lon="33.828213"><ele>165.0</ele><time>2011-10-10T12:37:33.0000000+00:00</time></trkpt><trkpt lat="44.639187" lon="33.828213"><ele>165.0</ele><time>2011-10-10T12:37:38.0000000+00:00</time></trkpt><trkpt lat="44.639191" lon="33.828217"><ele>165.0</ele><time>2011-10-10T12:37:43.0000000+00:00</time></trkpt><trkpt lat="44.639198" lon="33.828217"><ele>164.9</ele><time>2011-10-10T12:37:48.0000000+00:00</time></trkpt><trkpt lat="44.639206" lon="33.828217"><ele>164.9</ele><time>2011-10-10T12:37:53.0000000+00:00</time></trkpt><trkpt lat="44.639214" lon="33.828213"><ele>164.9</ele><time>2011-10-10T12:37:58.0000000+00:00</time></trkpt><trkpt lat="44.639217" lon="33.828209"><ele>164.9</ele><time>2011-10-10T12:38:03.0000000+00:00</time></trkpt><trkpt lat="44.639225" lon="33.828205"><ele>164.9</ele><time>2011-10-10T12:38:08.0000000+00:00</time></trkpt><trkpt lat="44.639233" lon="33.828205"><ele>164.8</ele><time>2011-10-10T12:38:13.0000000+00:00</time></trkpt><trkpt lat="44.639236" lon="33.828201"><ele>164.8</ele><time>2011-10-10T12:38:18.0000000+00:00</time></trkpt><trkpt lat="44.639244" lon="33.828194"><ele>164.8</ele><time>2011-10-10T12:38:23.0000000+00:00</time></trkpt><trkpt lat="44.639252" lon="33.828182"><ele>164.8</ele><time>2011-10-10T12:38:28.0000000+00:00</time></trkpt><trkpt lat="44.639259" lon="33.828175"><ele>164.7</ele><time>2011-10-10T12:38:33.0000000+00:00</time></trkpt><trkpt lat="44.639263" lon="33.828171"><ele>164.7</ele><time>2011-10-10T12:38:38.0000000+00:00</time></trkpt><trkpt lat="44.639271" lon="33.828167"><ele>164.6</ele><time>2011-10-10T12:38:43.0000000+00:00</time></trkpt><trkpt lat="44.639278" lon="33.828163"><ele>164.6</ele><time>2011-10-10T12:38:48.0000000+00:00</time></trkpt><trkpt lat="44.639294" lon="33.828152"><ele>164.4</ele><time>2011-10-10T12:38:53.0000000+00:00</time></trkpt><trkpt lat="44.639317" lon="33.828121"><ele>163.7</ele><time>2011-10-10T12:38:58.0000000+00:00</time></trkpt><trkpt lat="44.639317" lon="33.828114"><ele>163.2</ele><time>2011-10-10T12:39:03.0000000+00:00</time></trkpt><trkpt lat="44.63932" lon="33.828117"><ele>163.0</ele><time>2011-10-10T12:39:08.0000000+00:00</time></trkpt><trkpt lat="44.639324" lon="33.828117"><ele>162.9</ele><time>2011-10-10T12:39:13.0000000+00:00</time></trkpt><trkpt lat="44.639324" lon="33.828117"><ele>162.8</ele><time>2011-10-10T12:39:18.0000000+00:00</time></trkpt><trkpt lat="44.63932" lon="33.828121"><ele>162.7</ele><time>2011-10-10T12:39:23.0000000+00:00</time></trkpt><trkpt lat="44.63932" lon="33.828121"><ele>162.7</ele><time>2011-10-10T12:39:28.0000000+00:00</time></trkpt><trkpt lat="44.63932" lon="33.828121"><ele>162.7</ele><time>2011-10-10T12:39:33.0000000+00:00</time></trkpt><trkpt lat="44.639317" lon="33.828121"><ele>162.7</ele><time>2011-10-10T12:39:38.0000000+00:00</time></trkpt><trkpt lat="44.639317" lon="33.828121"><ele>162.7</ele><time>2011-10-10T12:39:43.0000000+00:00</time></trkpt><trkpt lat="44.639317" lon="33.828121"><ele>162.7</ele><time>2011-10-10T12:39:48.0000000+00:00</time></trkpt><trkpt lat="44.639317" lon="33.828121"><ele>162.7</ele><time>2011-10-10T12:39:53.0000000+00:00</time></trkpt><trkpt lat="44.639317" lon="33.828121"><ele>162.7</ele><time>2011-10-10T12:39:58.0000000+00:00</time></trkpt><trkpt lat="44.639317" lon="33.828121"><ele>162.7</ele><time>2011-10-10T12:40:03.0000000+00:00</time></trkpt><trkpt lat="44.639317" lon="33.828121"><ele>162.7</ele><time>2011-10-10T12:40:08.0000000+00:00</time></trkpt><trkpt lat="44.639313" lon="33.828121"><ele>162.7</ele><time>2011-10-10T12:40:13.0000000+00:00</time></trkpt><trkpt lat="44.639313" lon="33.828129"><ele>162.7</ele><time>2011-10-10T12:40:18.0000000+00:00</time></trkpt><trkpt lat="44.639309" lon="33.828133"><ele>162.7</ele><time>2011-10-10T12:40:23.0000000+00:00</time></trkpt><trkpt lat="44.639301" lon="33.82814"><ele>162.6</ele><time>2011-10-10T12:40:28.0000000+00:00</time></trkpt><trkpt lat="44.639297" lon="33.828152"><ele>162.6</ele><time>2011-10-10T12:40:33.0000000+00:00</time></trkpt><trkpt lat="44.63929" lon="33.828163"><ele>162.6</ele><time>2011-10-10T12:40:38.0000000+00:00</time></trkpt><trkpt lat="44.639286" lon="33.828178"><ele>162.5</ele><time>2011-10-10T12:40:43.0000000+00:00</time></trkpt><trkpt lat="44.639286" lon="33.828186"><ele>162.4</ele><time>2011-10-10T12:40:48.0000000+00:00</time></trkpt><trkpt lat="44.639286" lon="33.828194"><ele>162.3</ele><time>2011-10-10T12:40:53.0000000+00:00</time></trkpt><trkpt lat="44.639282" lon="33.828201"><ele>162.2</ele><time>2011-10-10T12:40:58.0000000+00:00</time></trkpt><trkpt lat="44.639282" lon="33.828205"><ele>162.1</ele><time>2011-10-10T12:41:03.0000000+00:00</time></trkpt><trkpt lat="44.639282" lon="33.828209"><ele>161.9</ele><time>2011-10-10T12:41:08.0000000+00:00</time></trkpt><trkpt lat="44.639278" lon="33.828213"><ele>161.7</ele><time>2011-10-10T12:41:13.0000000+00:00</time></trkpt><trkpt lat="44.639278" lon="33.828213"><ele>161.4</ele><time>2011-10-10T12:41:18.0000000+00:00</time></trkpt><trkpt lat="44.639278" lon="33.828209"><ele>161.3</ele><time>2011-10-10T12:41:23.0000000+00:00</time></trkpt><trkpt lat="44.639278" lon="33.828209"><ele>161.3</ele><time>2011-10-10T12:41:28.0000000+00:00</time></trkpt><trkpt lat="44.639278" lon="33.828209"><ele>161.3</ele><time>2011-10-10T12:41:33.0000000+00:00</time></trkpt><trkpt lat="44.639278" lon="33.828209"><ele>161.2</ele><time>2011-10-10T12:41:38.0000000+00:00</time></trkpt><trkpt lat="44.639278" lon="33.828209"><ele>161.2</ele><time>2011-10-10T12:41:43.0000000+00:00</time></trkpt><trkpt lat="44.639278" lon="33.828209"><ele>161.2</ele><time>2011-10-10T12:41:48.0000000+00:00</time></trkpt><trkpt lat="44.639278" lon="33.828209"><ele>161.2</ele><time>2011-10-10T12:41:53.0000000+00:00</time></trkpt><trkpt lat="44.639278" lon="33.828205"><ele>161.2</ele><time>2011-10-10T12:41:58.0000000+00:00</time></trkpt><trkpt lat="44.639278" lon="33.828205"><ele>161.1</ele><time>2011-10-10T12:42:03.0000000+00:00</time></trkpt><trkpt lat="44.639278" lon="33.828205"><ele>161.1</ele><time>2011-10-10T12:42:08.0000000+00:00</time></trkpt><trkpt lat="44.639278" lon="33.828205"><ele>161.1</ele><time>2011-10-10T12:42:13.0000000+00:00</time></trkpt><trkpt lat="44.639278" lon="33.828205"><ele>161.0</ele><time>2011-10-10T12:42:18.0000000+00:00</time></trkpt><trkpt lat="44.639278" lon="33.828205"><ele>161.0</ele><time>2011-10-10T12:42:23.0000000+00:00</time></trkpt><trkpt lat="44.639278" lon="33.828205"><ele>160.9</ele><time>2011-10-10T12:42:28.0000000+00:00</time></trkpt><trkpt lat="44.639278" lon="33.828205"><ele>160.9</ele><time>2011-10-10T12:42:33.0000000+00:00</time></trkpt><trkpt lat="44.639278" lon="33.828205"><ele>160.8</ele><time>2011-10-10T12:42:38.0000000+00:00</time></trkpt><trkpt lat="44.639275" lon="33.828201"><ele>160.8</ele><time>2011-10-10T12:42:43.0000000+00:00</time></trkpt><trkpt lat="44.639275" lon="33.828201"><ele>160.8</ele><time>2011-10-10T12:42:48.0000000+00:00</time></trkpt><trkpt lat="44.639275" lon="33.828201"><ele>160.7</ele><time>2011-10-10T12:42:53.0000000+00:00</time></trkpt><trkpt lat="44.639275" lon="33.828201"><ele>160.7</ele><time>2011-10-10T12:42:58.0000000+00:00</time></trkpt><trkpt lat="44.639275" lon="33.828201"><ele>160.6</ele><time>2011-10-10T12:43:03.0000000+00:00</time></trkpt><trkpt lat="44.639275" lon="33.828197"><ele>160.6</ele><time>2011-10-10T12:43:08.0000000+00:00</time></trkpt><trkpt lat="44.639275" lon="33.828197"><ele>160.5</ele><time>2011-10-10T12:43:13.0000000+00:00</time></trkpt><trkpt lat="44.639275" lon="33.828197"><ele>160.5</ele><time>2011-10-10T12:43:18.0000000+00:00</time></trkpt><trkpt lat="44.639275" lon="33.828197"><ele>160.4</ele><time>2011-10-10T12:43:23.0000000+00:00</time></trkpt><trkpt lat="44.639275" lon="33.828197"><ele>160.4</ele><time>2011-10-10T12:43:28.0000000+00:00</time></trkpt><trkpt lat="44.639275" lon="33.828197"><ele>160.3</ele><time>2011-10-10T12:43:33.0000000+00:00</time></trkpt><trkpt lat="44.639275" lon="33.828197"><ele>160.2</ele><time>2011-10-10T12:43:38.0000000+00:00</time></trkpt><trkpt lat="44.639275" lon="33.828197"><ele>160.1</ele><time>2011-10-10T12:43:43.0000000+00:00</time></trkpt><trkpt lat="44.639275" lon="33.828197"><ele>160.1</ele><time>2011-10-10T12:43:48.0000000+00:00</time></trkpt><trkpt lat="44.639275" lon="33.828194"><ele>160.0</ele><time>2011-10-10T12:43:53.0000000+00:00</time></trkpt><trkpt lat="44.639275" lon="33.828194"><ele>160.0</ele><time>2011-10-10T12:43:58.0000000+00:00</time></trkpt><trkpt lat="44.639275" lon="33.828194"><ele>160.0</ele><time>2011-10-10T12:44:03.0000000+00:00</time></trkpt><trkpt lat="44.639275" lon="33.828194"><ele>159.9</ele><time>2011-10-10T12:44:08.0000000+00:00</time></trkpt><trkpt lat="44.639275" lon="33.828194"><ele>159.9</ele><time>2011-10-10T12:44:13.0000000+00:00</time></trkpt><trkpt lat="44.639275" lon="33.828194"><ele>159.9</ele><time>2011-10-10T12:44:18.0000000+00:00</time></trkpt><trkpt lat="44.639275" lon="33.828194"><ele>159.9</ele><time>2011-10-10T12:44:23.0000000+00:00</time></trkpt><trkpt lat="44.639275" lon="33.828194"><ele>159.9</ele><time>2011-10-10T12:44:28.0000000+00:00</time></trkpt><trkpt lat="44.639275" lon="33.82819"><ele>159.8</ele><time>2011-10-10T12:44:33.0000000+00:00</time></trkpt><trkpt lat="44.639275" lon="33.82819"><ele>159.8</ele><time>2011-10-10T12:44:38.0000000+00:00</time></trkpt><trkpt lat="44.639275" lon="33.82819"><ele>159.8</ele><time>2011-10-10T12:44:43.0000000+00:00</time></trkpt><trkpt lat="44.639275" lon="33.82819"><ele>159.8</ele><time>2011-10-10T12:44:48.0000000+00:00</time></trkpt><trkpt lat="44.639275" lon="33.82819"><ele>159.8</ele><time>2011-10-10T12:44:53.0000000+00:00</time></trkpt><trkpt lat="44.639275" lon="33.828186"><ele>159.8</ele><time>2011-10-10T12:44:58.0000000+00:00</time></trkpt><trkpt lat="44.639275" lon="33.828186"><ele>159.7</ele><time>2011-10-10T12:45:03.0000000+00:00</time></trkpt><trkpt lat="44.639278" lon="33.828186"><ele>159.7</ele><time>2011-10-10T12:45:08.0000000+00:00</time></trkpt><trkpt lat="44.639278" lon="33.828186"><ele>159.7</ele><time>2011-10-10T12:45:13.0000000+00:00</time></trkpt><trkpt lat="44.639278" lon="33.828186"><ele>159.6</ele><time>2011-10-10T12:45:18.0000000+00:00</time></trkpt><trkpt lat="44.639275" lon="33.82819"><ele>159.6</ele><time>2011-10-10T12:45:23.0000000+00:00</time></trkpt><trkpt lat="44.639297" lon="33.828236"><ele>158.7</ele><time>2011-10-10T12:45:28.0000000+00:00</time></trkpt><trkpt lat="44.639301" lon="33.82822"><ele>158.1</ele><time>2011-10-10T12:45:33.0000000+00:00</time></trkpt><trkpt lat="44.639328" lon="33.828293"><ele>155.9</ele><time>2011-10-10T12:45:38.0000000+00:00</time></trkpt><trkpt lat="44.639339" lon="33.828266"><ele>155.0</ele><time>2011-10-10T12:45:43.0000000+00:00</time></trkpt><trkpt lat="44.639347" lon="33.828293"><ele>154.4</ele><time>2011-10-10T12:45:48.0000000+00:00</time></trkpt><trkpt lat="44.639351" lon="33.8283"><ele>153.5</ele><time>2011-10-10T12:45:53.0000000+00:00</time></trkpt><trkpt lat="44.639286" lon="33.828278"><ele>151.9</ele><time>2011-10-10T12:45:58.0000000+00:00</time></trkpt><trkpt lat="44.639248" lon="33.828259"><ele>149.8</ele><time>2011-10-10T12:46:03.0000000+00:00</time></trkpt><trkpt lat="44.639248" lon="33.828255"><ele>149.8</ele><time>2011-10-10T12:46:08.0000000+00:00</time></trkpt><trkpt lat="44.639252" lon="33.828255"><ele>149.9</ele><time>2011-10-10T12:46:13.0000000+00:00</time></trkpt><trkpt lat="44.639252" lon="33.828255"><ele>149.9</ele><time>2011-10-10T12:46:18.0000000+00:00</time></trkpt><trkpt lat="44.639248" lon="33.828255"><ele>149.9</ele><time>2011-10-10T12:46:23.0000000+00:00</time></trkpt><trkpt lat="44.639248" lon="33.828251"><ele>149.9</ele><time>2011-10-10T12:46:28.0000000+00:00</time></trkpt><trkpt lat="44.639248" lon="33.828251"><ele>149.9</ele><time>2011-10-10T12:46:33.0000000+00:00</time></trkpt><trkpt lat="44.639248" lon="33.828251"><ele>149.9</ele><time>2011-10-10T12:46:38.0000000+00:00</time></trkpt><trkpt lat="44.639248" lon="33.828251"><ele>149.9</ele><time>2011-10-10T12:46:43.0000000+00:00</time></trkpt><trkpt lat="44.639248" lon="33.828251"><ele>149.9</ele><time>2011-10-10T12:46:48.0000000+00:00</time></trkpt><trkpt lat="44.639248" lon="33.828251"><ele>149.9</ele><time>2011-10-10T12:46:53.0000000+00:00</time></trkpt><trkpt lat="44.639248" lon="33.828251"><ele>149.9</ele><time>2011-10-10T12:46:58.0000000+00:00</time></trkpt><trkpt lat="44.639248" lon="33.828251"><ele>150.1</ele><time>2011-10-10T12:47:03.0000000+00:00</time></trkpt><trkpt lat="44.639248" lon="33.828239"><ele>150.8</ele><time>2011-10-10T12:47:08.0000000+00:00</time></trkpt><trkpt lat="44.639248" lon="33.828239"><ele>150.8</ele><time>2011-10-10T12:47:13.0000000+00:00</time></trkpt><trkpt lat="44.639248" lon="33.828239"><ele>150.8</ele><time>2011-10-10T12:47:18.0000000+00:00</time></trkpt><trkpt lat="44.639248" lon="33.828239"><ele>150.8</ele><time>2011-10-10T12:47:23.0000000+00:00</time></trkpt><trkpt lat="44.639248" lon="33.828228"><ele>150.9</ele><time>2011-10-10T12:47:28.0000000+00:00</time></trkpt><trkpt lat="44.639244" lon="33.828217"><ele>151.1</ele><time>2011-10-10T12:47:33.0000000+00:00</time></trkpt><trkpt lat="44.639244" lon="33.828209"><ele>151.3</ele><time>2011-10-10T12:47:38.0000000+00:00</time></trkpt><trkpt lat="44.639244" lon="33.828205"><ele>151.5</ele><time>2011-10-10T12:47:43.0000000+00:00</time></trkpt><trkpt lat="44.639248" lon="33.828197"><ele>151.8</ele><time>2011-10-10T12:47:48.0000000+00:00</time></trkpt><trkpt lat="44.639244" lon="33.82819"><ele>152.0</ele><time>2011-10-10T12:47:53.0000000+00:00</time></trkpt><trkpt lat="44.639244" lon="33.828186"><ele>152.2</ele><time>2011-10-10T12:47:58.0000000+00:00</time></trkpt><trkpt lat="44.639244" lon="33.828182"><ele>152.4</ele><time>2011-10-10T12:48:03.0000000+00:00</time></trkpt><trkpt lat="44.63924" lon="33.828175"><ele>152.6</ele><time>2011-10-10T12:48:08.0000000+00:00</time></trkpt><trkpt lat="44.63924" lon="33.828171"><ele>152.8</ele><time>2011-10-10T12:48:13.0000000+00:00</time></trkpt><trkpt lat="44.63924" lon="33.828167"><ele>153.0</ele><time>2011-10-10T12:48:18.0000000+00:00</time></trkpt><trkpt lat="44.63924" lon="33.828163"><ele>153.1</ele><time>2011-10-10T12:48:23.0000000+00:00</time></trkpt><trkpt lat="44.639244" lon="33.828167"><ele>153.3</ele><time>2011-10-10T12:48:28.0000000+00:00</time></trkpt><trkpt lat="44.639256" lon="33.828167"><ele>153.3</ele><time>2011-10-10T12:48:33.0000000+00:00</time></trkpt><trkpt lat="44.639259" lon="33.828167"><ele>153.2</ele><time>2011-10-10T12:48:38.0000000+00:00</time></trkpt><trkpt lat="44.639259" lon="33.828171"><ele>153.2</ele><time>2011-10-10T12:48:43.0000000+00:00</time></trkpt><trkpt lat="44.639259" lon="33.828167"><ele>153.3</ele><time>2011-10-10T12:48:48.0000000+00:00</time></trkpt><trkpt lat="44.639259" lon="33.828167"><ele>153.3</ele><time>2011-10-10T12:48:53.0000000+00:00</time></trkpt><trkpt lat="44.639259" lon="33.828167"><ele>153.3</ele><time>2011-10-10T12:48:58.0000000+00:00</time></trkpt><trkpt lat="44.639259" lon="33.828167"><ele>153.3</ele><time>2011-10-10T12:49:03.0000000+00:00</time></trkpt><trkpt lat="44.639259" lon="33.828167"><ele>153.2</ele><time>2011-10-10T12:49:08.0000000+00:00</time></trkpt><trkpt lat="44.639259" lon="33.828171"><ele>153.2</ele><time>2011-10-10T12:49:13.0000000+00:00</time></trkpt><trkpt lat="44.639259" lon="33.828171"><ele>153.2</ele><time>2011-10-10T12:49:18.0000000+00:00</time></trkpt><trkpt lat="44.639259" lon="33.828171"><ele>153.2</ele><time>2011-10-10T12:49:23.0000000+00:00</time></trkpt><trkpt lat="44.639259" lon="33.828171"><ele>153.2</ele><time>2011-10-10T12:49:28.0000000+00:00</time></trkpt><trkpt lat="44.639259" lon="33.828171"><ele>153.2</ele><time>2011-10-10T12:49:33.0000000+00:00</time></trkpt><trkpt lat="44.639259" lon="33.828171"><ele>153.2</ele><time>2011-10-10T12:49:38.0000000+00:00</time></trkpt><trkpt lat="44.639259" lon="33.828171"><ele>153.1</ele><time>2011-10-10T12:49:43.0000000+00:00</time></trkpt><trkpt lat="44.639259" lon="33.828175"><ele>153.1</ele><time>2011-10-10T12:49:48.0000000+00:00</time></trkpt><trkpt lat="44.639259" lon="33.828175"><ele>153.1</ele><time>2011-10-10T12:49:53.0000000+00:00</time></trkpt><trkpt lat="44.639259" lon="33.828175"><ele>153.1</ele><time>2011-10-10T12:49:58.0000000+00:00</time></trkpt><trkpt lat="44.639259" lon="33.828175"><ele>153.1</ele><time>2011-10-10T12:50:03.0000000+00:00</time></trkpt><trkpt lat="44.639263" lon="33.828175"><ele>153.1</ele><time>2011-10-10T12:50:08.0000000+00:00</time></trkpt><trkpt lat="44.639263" lon="33.828175"><ele>153.1</ele><time>2011-10-10T12:50:13.0000000+00:00</time></trkpt><trkpt lat="44.639263" lon="33.828175"><ele>153.0</ele><time>2011-10-10T12:50:18.0000000+00:00</time></trkpt><trkpt lat="44.639263" lon="33.828175"><ele>153.1</ele><time>2011-10-10T12:50:23.0000000+00:00</time></trkpt><trkpt lat="44.639263" lon="33.828175"><ele>153.0</ele><time>2011-10-10T12:50:28.0000000+00:00</time></trkpt><trkpt lat="44.639263" lon="33.828175"><ele>153.0</ele><time>2011-10-10T12:50:33.0000000+00:00</time></trkpt><trkpt lat="44.639263" lon="33.828175"><ele>153.0</ele><time>2011-10-10T12:50:38.0000000+00:00</time></trkpt><trkpt lat="44.639263" lon="33.828175"><ele>153.0</ele><time>2011-10-10T12:50:43.0000000+00:00</time></trkpt><trkpt lat="44.639263" lon="33.828175"><ele>153.0</ele><time>2011-10-10T12:50:48.0000000+00:00</time></trkpt><trkpt lat="44.639263" lon="33.828178"><ele>153.0</ele><time>2011-10-10T12:50:53.0000000+00:00</time></trkpt><trkpt lat="44.639263" lon="33.828178"><ele>153.0</ele><time>2011-10-10T12:50:58.0000000+00:00</time></trkpt><trkpt lat="44.639263" lon="33.828178"><ele>153.0</ele><time>2011-10-10T12:51:03.0000000+00:00</time></trkpt><trkpt lat="44.639263" lon="33.828178"><ele>153.0</ele><time>2011-10-10T12:51:08.0000000+00:00</time></trkpt><trkpt lat="44.639263" lon="33.828178"><ele>152.9</ele><time>2011-10-10T12:51:13.0000000+00:00</time></trkpt><trkpt lat="44.639263" lon="33.828178"><ele>152.9</ele><time>2011-10-10T12:51:18.0000000+00:00</time></trkpt><trkpt lat="44.639263" lon="33.828178"><ele>152.9</ele><time>2011-10-10T12:51:23.0000000+00:00</time></trkpt><trkpt lat="44.639263" lon="33.828182"><ele>152.9</ele><time>2011-10-10T12:51:28.0000000+00:00</time></trkpt><trkpt lat="44.639263" lon="33.828182"><ele>152.9</ele><time>2011-10-10T12:51:33.0000000+00:00</time></trkpt><trkpt lat="44.639263" lon="33.828182"><ele>152.8</ele><time>2011-10-10T12:51:38.0000000+00:00</time></trkpt><trkpt lat="44.639267" lon="33.828178"><ele>152.8</ele><time>2011-10-10T12:51:43.0000000+00:00</time></trkpt><trkpt lat="44.639267" lon="33.828178"><ele>152.8</ele><time>2011-10-10T12:51:48.0000000+00:00</time></trkpt><trkpt lat="44.639267" lon="33.828182"><ele>152.7</ele><time>2011-10-10T12:51:53.0000000+00:00</time></trkpt><trkpt lat="44.639267" lon="33.828178"><ele>152.7</ele><time>2011-10-10T12:51:58.0000000+00:00</time></trkpt><trkpt lat="44.639267" lon="33.828178"><ele>152.7</ele><time>2011-10-10T12:52:03.0000000+00:00</time></trkpt><trkpt lat="44.639267" lon="33.828178"><ele>152.7</ele><time>2011-10-10T12:52:08.0000000+00:00</time></trkpt><trkpt lat="44.639267" lon="33.828178"><ele>152.8</ele><time>2011-10-10T12:52:13.0000000+00:00</time></trkpt><trkpt lat="44.639267" lon="33.828178"><ele>152.8</ele><time>2011-10-10T12:52:18.0000000+00:00</time></trkpt><trkpt lat="44.639267" lon="33.828178"><ele>152.8</ele><time>2011-10-10T12:52:23.0000000+00:00</time></trkpt><trkpt lat="44.639263" lon="33.828178"><ele>152.8</ele><time>2011-10-10T12:52:28.0000000+00:00</time></trkpt><trkpt lat="44.639263" lon="33.828178"><ele>152.8</ele><time>2011-10-10T12:52:33.0000000+00:00</time></trkpt><trkpt lat="44.639263" lon="33.828178"><ele>152.8</ele><time>2011-10-10T12:52:38.0000000+00:00</time></trkpt><trkpt lat="44.639263" lon="33.828178"><ele>152.8</ele><time>2011-10-10T12:52:43.0000000+00:00</time></trkpt><trkpt lat="44.639267" lon="33.828178"><ele>152.8</ele><time>2011-10-10T12:52:48.0000000+00:00</time></trkpt><trkpt lat="44.639267" lon="33.828178"><ele>152.8</ele><time>2011-10-10T12:52:53.0000000+00:00</time></trkpt><trkpt lat="44.639267" lon="33.828178"><ele>152.7</ele><time>2011-10-10T12:52:58.0000000+00:00</time></trkpt><trkpt lat="44.639267" lon="33.828178"><ele>152.7</ele><time>2011-10-10T12:53:03.0000000+00:00</time></trkpt><trkpt lat="44.639267" lon="33.828178"><ele>152.7</ele><time>2011-10-10T12:53:08.0000000+00:00</time></trkpt><trkpt lat="44.639267" lon="33.828178"><ele>152.7</ele><time>2011-10-10T12:53:13.0000000+00:00</time></trkpt><trkpt lat="44.639267" lon="33.828178"><ele>152.7</ele><time>2011-10-10T12:53:18.0000000+00:00</time></trkpt><trkpt lat="44.639267" lon="33.828182"><ele>152.7</ele><time>2011-10-10T12:53:23.0000000+00:00</time></trkpt><trkpt lat="44.639267" lon="33.828217"><ele>151.5</ele><time>2011-10-10T12:53:28.0000000+00:00</time></trkpt><trkpt lat="44.639286" lon="33.828259"><ele>149.0</ele><time>2011-10-10T12:53:33.0000000+00:00</time></trkpt><trkpt lat="44.63929" lon="33.828281"><ele>147.7</ele><time>2011-10-10T12:53:38.0000000+00:00</time></trkpt><trkpt lat="44.639305" lon="33.828304"><ele>146.9</ele><time>2011-10-10T12:53:43.0000000+00:00</time></trkpt><trkpt lat="44.639328" lon="33.828327"><ele>146.1</ele><time>2011-10-10T12:53:48.0000000+00:00</time></trkpt><trkpt lat="44.639317" lon="33.828335"><ele>145.3</ele><time>2011-10-10T12:53:53.0000000+00:00</time></trkpt><trkpt lat="44.639328" lon="33.828339"><ele>144.7</ele><time>2011-10-10T12:53:58.0000000+00:00</time></trkpt><trkpt lat="44.639332" lon="33.828339"><ele>144.5</ele><time>2011-10-10T12:54:03.0000000+00:00</time></trkpt><trkpt lat="44.639339" lon="33.828339"><ele>144.5</ele><time>2011-10-10T12:54:08.0000000+00:00</time></trkpt><trkpt lat="44.639343" lon="33.828342"><ele>144.4</ele><time>2011-10-10T12:54:13.0000000+00:00</time></trkpt><trkpt lat="44.639343" lon="33.828339"><ele>144.3</ele><time>2011-10-10T12:54:18.0000000+00:00</time></trkpt><trkpt lat="44.639347" lon="33.828323"><ele>143.8</ele><time>2011-10-10T12:54:23.0000000+00:00</time></trkpt><trkpt lat="44.639408" lon="33.828297"><ele>142.9</ele><time>2011-10-10T12:54:28.0000000+00:00</time></trkpt><trkpt lat="44.639545" lon="33.828342"><ele>140.8</ele><time>2011-10-10T12:54:33.0000000+00:00</time></trkpt><trkpt lat="44.63974" lon="33.828468"><ele>139.2</ele><time>2011-10-10T12:54:38.0000000+00:00</time></trkpt><trkpt lat="44.639954" lon="33.828613"><ele>138.7</ele><time>2011-10-10T12:54:43.0000000+00:00</time></trkpt><trkpt lat="44.640099" lon="33.82872"><ele>137.1</ele><time>2011-10-10T12:54:48.0000000+00:00</time></trkpt><trkpt lat="44.640167" lon="33.828773"><ele>137.0</ele><time>2011-10-10T12:54:53.0000000+00:00</time></trkpt><trkpt lat="44.640163" lon="33.828762"><ele>137.2</ele><time>2011-10-10T12:54:58.0000000+00:00</time></trkpt><trkpt lat="44.640171" lon="33.828793"><ele>137.5</ele><time>2011-10-10T12:55:03.0000000+00:00</time></trkpt><trkpt lat="44.640194" lon="33.829002"><ele>138.6</ele><time>2011-10-10T12:55:08.0000000+00:00</time></trkpt><trkpt lat="44.640209" lon="33.829178"><ele>139.8</ele><time>2011-10-10T12:55:13.0000000+00:00</time></trkpt><trkpt lat="44.640186" lon="33.829315"><ele>142.0</ele><time>2011-10-10T12:55:18.0000000+00:00</time></trkpt><trkpt lat="44.640144" lon="33.829536"><ele>146.6</ele><time>2011-10-10T12:55:23.0000000+00:00</time></trkpt><trkpt lat="44.640007" lon="33.829872"><ele>147.2</ele><time>2011-10-10T12:55:28.0000000+00:00</time></trkpt><trkpt lat="44.6399" lon="33.830185"><ele>148.5</ele><time>2011-10-10T12:55:33.0000000+00:00</time></trkpt><trkpt lat="44.639854" lon="33.830544"><ele>149.6</ele><time>2011-10-10T12:55:38.0000000+00:00</time></trkpt><trkpt lat="44.639858" lon="33.830875"><ele>151.0</ele><time>2011-10-10T12:55:43.0000000+00:00</time></trkpt><trkpt lat="44.639896" lon="33.831238"><ele>153.2</ele><time>2011-10-10T12:55:48.0000000+00:00</time></trkpt><trkpt lat="44.63995" lon="33.83152"><ele>155.4</ele><time>2011-10-10T12:55:53.0000000+00:00</time></trkpt><trkpt lat="44.640064" lon="33.831917"><ele>153.7</ele><time>2011-10-10T12:55:58.0000000+00:00</time></trkpt><trkpt lat="44.640182" lon="33.832222"><ele>152.7</ele><time>2011-10-10T12:56:03.0000000+00:00</time></trkpt><trkpt lat="44.640301" lon="33.832542"><ele>151.3</ele><time>2011-10-10T12:56:08.0000000+00:00</time></trkpt><trkpt lat="44.640381" lon="33.832756"><ele>152.0</ele><time>2011-10-10T12:56:13.0000000+00:00</time></trkpt><trkpt lat="44.640484" lon="33.832985"><ele>153.6</ele><time>2011-10-10T12:56:18.0000000+00:00</time></trkpt><trkpt lat="44.640606" lon="33.833233"><ele>155.5</ele><time>2011-10-10T12:56:23.0000000+00:00</time></trkpt><trkpt lat="44.640717" lon="33.833515"><ele>157.2</ele><time>2011-10-10T12:56:28.0000000+00:00</time></trkpt><trkpt lat="44.640816" lon="33.833717"><ele>161.3</ele><time>2011-10-10T12:56:33.0000000+00:00</time></trkpt><trkpt lat="44.640903" lon="33.833832"><ele>161.7</ele><time>2011-10-10T12:56:38.0000000+00:00</time></trkpt><trkpt lat="44.640984" lon="33.8339"><ele>160.0</ele><time>2011-10-10T12:56:43.0000000+00:00</time></trkpt><trkpt lat="44.641048" lon="33.833897"><ele>158.9</ele><time>2011-10-10T12:56:48.0000000+00:00</time></trkpt><trkpt lat="44.641121" lon="33.833775"><ele>157.4</ele><time>2011-10-10T12:56:53.0000000+00:00</time></trkpt><trkpt lat="44.641197" lon="33.833565"><ele>157.7</ele><time>2011-10-10T12:56:58.0000000+00:00</time></trkpt><trkpt lat="44.641273" lon="33.833363"><ele>157.6</ele><time>2011-10-10T12:57:03.0000000+00:00</time></trkpt><trkpt lat="44.641331" lon="33.833168"><ele>156.8</ele><time>2011-10-10T12:57:08.0000000+00:00</time></trkpt><trkpt lat="44.641392" lon="33.832981"><ele>157.6</ele><time>2011-10-10T12:57:13.0000000+00:00</time></trkpt><trkpt lat="44.64143" lon="33.832832"><ele>157.0</ele><time>2011-10-10T12:57:18.0000000+00:00</time></trkpt><trkpt lat="44.641468" lon="33.832657"><ele>155.8</ele><time>2011-10-10T12:57:23.0000000+00:00</time></trkpt><trkpt lat="44.641529" lon="33.832512"><ele>155.8</ele><time>2011-10-10T12:57:28.0000000+00:00</time></trkpt><trkpt lat="44.64159" lon="33.832455"><ele>155.2</ele><time>2011-10-10T12:57:33.0000000+00:00</time></trkpt><trkpt lat="44.641655" lon="33.832512"><ele>150.7</ele><time>2011-10-10T12:57:38.0000000+00:00</time></trkpt><trkpt lat="44.641712" lon="33.832565"><ele>146.4</ele><time>2011-10-10T12:57:43.0000000+00:00</time></trkpt><trkpt lat="44.641743" lon="33.832573"><ele>144.5</ele><time>2011-10-10T12:57:48.0000000+00:00</time></trkpt><trkpt lat="44.641769" lon="33.832577"><ele>143.0</ele><time>2011-10-10T12:57:53.0000000+00:00</time></trkpt><trkpt lat="44.641788" lon="33.832577"><ele>141.3</ele><time>2011-10-10T12:57:58.0000000+00:00</time></trkpt><trkpt lat="44.6418" lon="33.832581"><ele>140.1</ele><time>2011-10-10T12:58:03.0000000+00:00</time></trkpt><trkpt lat="44.641804" lon="33.832581"><ele>138.7</ele><time>2011-10-10T12:58:08.0000000+00:00</time></trkpt><trkpt lat="44.641811" lon="33.832577"><ele>137.1</ele><time>2011-10-10T12:58:13.0000000+00:00</time></trkpt><trkpt lat="44.641819" lon="33.832573"><ele>135.4</ele><time>2011-10-10T12:58:18.0000000+00:00</time></trkpt><trkpt lat="44.641827" lon="33.832569"><ele>134.2</ele><time>2011-10-10T12:58:23.0000000+00:00</time></trkpt><trkpt lat="44.641838" lon="33.832561"><ele>133.0</ele><time>2011-10-10T12:58:28.0000000+00:00</time></trkpt><trkpt lat="44.641842" lon="33.832565"><ele>132.1</ele><time>2011-10-10T12:58:33.0000000+00:00</time></trkpt><trkpt lat="44.641846" lon="33.832565"><ele>131.3</ele><time>2011-10-10T12:58:38.0000000+00:00</time></trkpt><trkpt lat="44.64185" lon="33.832558"><ele>130.5</ele><time>2011-10-10T12:58:43.0000000+00:00</time></trkpt><trkpt lat="44.641842" lon="33.832569"><ele>130.7</ele><time>2011-10-10T12:58:48.0000000+00:00</time></trkpt><trkpt lat="44.641834" lon="33.832577"><ele>130.1</ele><time>2011-10-10T12:58:53.0000000+00:00</time></trkpt><trkpt lat="44.641823" lon="33.832592"><ele>129.9</ele><time>2011-10-10T12:58:58.0000000+00:00</time></trkpt><trkpt lat="44.641823" lon="33.8326"><ele>129.8</ele><time>2011-10-10T12:59:03.0000000+00:00</time></trkpt><trkpt lat="44.641823" lon="33.832596"><ele>129.7</ele><time>2011-10-10T12:59:08.0000000+00:00</time></trkpt><trkpt lat="44.641827" lon="33.8326"><ele>129.7</ele><time>2011-10-10T12:59:13.0000000+00:00</time></trkpt><trkpt lat="44.641823" lon="33.832603"><ele>130.0</ele><time>2011-10-10T12:59:18.0000000+00:00</time></trkpt><trkpt lat="44.641823" lon="33.832607"><ele>129.9</ele><time>2011-10-10T12:59:23.0000000+00:00</time></trkpt><trkpt lat="44.641827" lon="33.832603"><ele>129.4</ele><time>2011-10-10T12:59:28.0000000+00:00</time></trkpt><trkpt lat="44.641823" lon="33.832607"><ele>129.2</ele><time>2011-10-10T12:59:33.0000000+00:00</time></trkpt><trkpt lat="44.641815" lon="33.832611"><ele>129.0</ele><time>2011-10-10T12:59:38.0000000+00:00</time></trkpt><trkpt lat="44.641811" lon="33.832611"><ele>128.5</ele><time>2011-10-10T12:59:43.0000000+00:00</time></trkpt><trkpt lat="44.641819" lon="33.832603"><ele>128.2</ele><time>2011-10-10T12:59:48.0000000+00:00</time></trkpt><trkpt lat="44.64183" lon="33.832588"><ele>127.6</ele><time>2011-10-10T12:59:53.0000000+00:00</time></trkpt><trkpt lat="44.641842" lon="33.832584"><ele>127.4</ele><time>2011-10-10T12:59:58.0000000+00:00</time></trkpt><trkpt lat="44.64185" lon="33.832577"><ele>126.9</ele><time>2011-10-10T13:00:03.0000000+00:00</time></trkpt><trkpt lat="44.641861" lon="33.832569"><ele>126.6</ele><time>2011-10-10T13:00:08.0000000+00:00</time></trkpt><trkpt lat="44.641872" lon="33.832565"><ele>126.4</ele><time>2011-10-10T13:00:13.0000000+00:00</time></trkpt><trkpt lat="44.641861" lon="33.832569"><ele>126.4</ele><time>2011-10-10T13:00:18.0000000+00:00</time></trkpt><trkpt lat="44.641834" lon="33.832592"><ele>126.5</ele><time>2011-10-10T13:00:23.0000000+00:00</time></trkpt><trkpt lat="44.641827" lon="33.832603"><ele>126.4</ele><time>2011-10-10T13:00:28.0000000+00:00</time></trkpt><trkpt lat="44.641823" lon="33.832623"><ele>126.0</ele><time>2011-10-10T13:00:33.0000000+00:00</time></trkpt><trkpt lat="44.641827" lon="33.832619"><ele>126.5</ele><time>2011-10-10T13:00:38.0000000+00:00</time></trkpt><trkpt lat="44.641865" lon="33.832596"><ele>126.0</ele><time>2011-10-10T13:00:43.0000000+00:00</time></trkpt><trkpt lat="44.641872" lon="33.832623"><ele>127.1</ele><time>2011-10-10T13:00:48.0000000+00:00</time></trkpt><trkpt lat="44.641876" lon="33.832638"><ele>128.2</ele><time>2011-10-10T13:00:53.0000000+00:00</time></trkpt><trkpt lat="44.64188" lon="33.832642"><ele>130.0</ele><time>2011-10-10T13:00:58.0000000+00:00</time></trkpt><trkpt lat="44.641872" lon="33.832687"><ele>133.1</ele><time>2011-10-10T13:01:03.0000000+00:00</time></trkpt><trkpt lat="44.641834" lon="33.832775"><ele>136.3</ele><time>2011-10-10T13:01:08.0000000+00:00</time></trkpt><trkpt lat="44.641781" lon="33.83284"><ele>140.9</ele><time>2011-10-10T13:01:13.0000000+00:00</time></trkpt><trkpt lat="44.641716" lon="33.832886"><ele>145.0</ele><time>2011-10-10T13:01:18.0000000+00:00</time></trkpt><trkpt lat="44.641644" lon="33.832981"><ele>147.2</ele><time>2011-10-10T13:01:23.0000000+00:00</time></trkpt><trkpt lat="44.641552" lon="33.833103"><ele>151.3</ele><time>2011-10-10T13:01:28.0000000+00:00</time></trkpt><trkpt lat="44.641521" lon="33.833195"><ele>152.8</ele><time>2011-10-10T13:01:33.0000000+00:00</time></trkpt><trkpt lat="44.64151" lon="33.833195"><ele>154.8</ele><time>2011-10-10T13:01:38.0000000+00:00</time></trkpt><trkpt lat="44.641464" lon="33.833221"><ele>156.7</ele><time>2011-10-10T13:01:43.0000000+00:00</time></trkpt><trkpt lat="44.64146" lon="33.833176"><ele>157.7</ele><time>2011-10-10T13:01:48.0000000+00:00</time></trkpt><trkpt lat="44.641533" lon="33.833248"><ele>150.3</ele><time>2011-10-10T13:01:53.0000000+00:00</time></trkpt><trkpt lat="44.64156" lon="33.83329"><ele>146.0</ele><time>2011-10-10T13:01:58.0000000+00:00</time></trkpt><trkpt lat="44.64159" lon="33.833328"><ele>141.0</ele><time>2011-10-10T13:02:03.0000000+00:00</time></trkpt><trkpt lat="44.641613" lon="33.833324"><ele>138.8</ele><time>2011-10-10T13:02:08.0000000+00:00</time></trkpt><trkpt lat="44.641624" lon="33.833313"><ele>137.3</ele><time>2011-10-10T13:02:13.0000000+00:00</time></trkpt><trkpt lat="44.64164" lon="33.833305"><ele>136.0</ele><time>2011-10-10T13:02:18.0000000+00:00</time></trkpt><trkpt lat="44.641647" lon="33.83329"><ele>134.5</ele><time>2011-10-10T13:02:23.0000000+00:00</time></trkpt><trkpt lat="44.641647" lon="33.833286"><ele>133.9</ele><time>2011-10-10T13:02:28.0000000+00:00</time></trkpt><trkpt lat="44.641636" lon="33.83329"><ele>132.8</ele><time>2011-10-10T13:02:33.0000000+00:00</time></trkpt><trkpt lat="44.641636" lon="33.833286"><ele>131.9</ele><time>2011-10-10T13:02:38.0000000+00:00</time></trkpt><trkpt lat="44.641636" lon="33.833279"><ele>131.0</ele><time>2011-10-10T13:02:43.0000000+00:00</time></trkpt><trkpt lat="44.641632" lon="33.833282"><ele>130.7</ele><time>2011-10-10T13:02:48.0000000+00:00</time></trkpt><trkpt lat="44.641632" lon="33.833282"><ele>130.1</ele><time>2011-10-10T13:02:53.0000000+00:00</time></trkpt><trkpt lat="44.641636" lon="33.833282"><ele>130.0</ele><time>2011-10-10T13:02:58.0000000+00:00</time></trkpt><trkpt lat="44.64164" lon="33.833275"><ele>129.6</ele><time>2011-10-10T13:03:03.0000000+00:00</time></trkpt><trkpt lat="44.641651" lon="33.833241"><ele>128.5</ele><time>2011-10-10T13:03:08.0000000+00:00</time></trkpt><trkpt lat="44.64167" lon="33.833073"><ele>127.5</ele><time>2011-10-10T13:03:13.0000000+00:00</time></trkpt><trkpt lat="44.641743" lon="33.83279"><ele>125.6</ele><time>2011-10-10T13:03:18.0000000+00:00</time></trkpt><trkpt lat="44.641777" lon="33.832588"><ele>124.7</ele><time>2011-10-10T13:03:23.0000000+00:00</time></trkpt><trkpt lat="44.641808" lon="33.832489"><ele>124.2</ele><time>2011-10-10T13:03:28.0000000+00:00</time></trkpt><trkpt lat="44.641815" lon="33.832333"><ele>124.1</ele><time>2011-10-10T13:03:33.0000000+00:00</time></trkpt><trkpt lat="44.641907" lon="33.831894"><ele>124.9</ele><time>2011-10-10T13:03:38.0000000+00:00</time></trkpt><trkpt lat="44.641983" lon="33.831371"><ele>125.9</ele><time>2011-10-10T13:03:43.0000000+00:00</time></trkpt><trkpt lat="44.642097" lon="33.83107"><ele>127.6</ele><time>2011-10-10T13:03:48.0000000+00:00</time></trkpt><trkpt lat="44.64222" lon="33.830833"><ele>127.5</ele><time>2011-10-10T13:03:53.0000000+00:00</time></trkpt><trkpt lat="44.642345" lon="33.830666"><ele>129.1</ele><time>2011-10-10T13:03:58.0000000+00:00</time></trkpt><trkpt lat="44.642471" lon="33.830471"><ele>130.1</ele><time>2011-10-10T13:04:03.0000000+00:00</time></trkpt><trkpt lat="44.642643" lon="33.830269"><ele>130.5</ele><time>2011-10-10T13:04:08.0000000+00:00</time></trkpt><trkpt lat="44.642799" lon="33.830032"><ele>130.5</ele><time>2011-10-10T13:04:13.0000000+00:00</time></trkpt><trkpt lat="44.642944" lon="33.82983"><ele>129.3</ele><time>2011-10-10T13:04:18.0000000+00:00</time></trkpt><trkpt lat="44.643017" lon="33.829746"><ele>128.9</ele><time>2011-10-10T13:04:23.0000000+00:00</time></trkpt><trkpt lat="44.643017" lon="33.829754"><ele>128.4</ele><time>2011-10-10T13:04:28.0000000+00:00</time></trkpt><trkpt lat="44.642952" lon="33.829861"><ele>129.2</ele><time>2011-10-10T13:04:33.0000000+00:00</time></trkpt><trkpt lat="44.642876" lon="33.83004"><ele>129.9</ele><time>2011-10-10T13:04:38.0000000+00:00</time></trkpt><trkpt lat="44.642757" lon="33.830204"><ele>130.1</ele><time>2011-10-10T13:04:43.0000000+00:00</time></trkpt><trkpt lat="44.642616" lon="33.830433"><ele>129.5</ele><time>2011-10-10T13:04:48.0000000+00:00</time></trkpt><trkpt lat="44.642456" lon="33.830692"><ele>128.3</ele><time>2011-10-10T13:04:53.0000000+00:00</time></trkpt><trkpt lat="44.642307" lon="33.830921"><ele>126.0</ele><time>2011-10-10T13:04:58.0000000+00:00</time></trkpt><trkpt lat="44.642235" lon="33.831093"><ele>126.0</ele><time>2011-10-10T13:05:03.0000000+00:00</time></trkpt><trkpt lat="44.642189" lon="33.831154"><ele>125.1</ele><time>2011-10-10T13:05:08.0000000+00:00</time></trkpt><trkpt lat="44.64209" lon="33.831196"><ele>122.8</ele><time>2011-10-10T13:05:13.0000000+00:00</time></trkpt><trkpt lat="44.642078" lon="33.83128"><ele>123.5</ele><time>2011-10-10T13:05:18.0000000+00:00</time></trkpt><trkpt lat="44.64209" lon="33.83165"><ele>124.8</ele><time>2011-10-10T13:05:23.0000000+00:00</time></trkpt><trkpt lat="44.642147" lon="33.832188"><ele>126.9</ele><time>2011-10-10T13:05:28.0000000+00:00</time></trkpt><trkpt lat="44.642002" lon="33.832542"><ele>127.6</ele><time>2011-10-10T13:05:33.0000000+00:00</time></trkpt><trkpt lat="44.641891" lon="33.832962"><ele>127.8</ele><time>2011-10-10T13:05:38.0000000+00:00</time></trkpt><trkpt lat="44.64183" lon="33.833111"><ele>126.6</ele><time>2011-10-10T13:05:43.0000000+00:00</time></trkpt><trkpt lat="44.641823" lon="33.833115"><ele>126.0</ele><time>2011-10-10T13:05:48.0000000+00:00</time></trkpt><trkpt lat="44.641811" lon="33.833092"><ele>125.3</ele><time>2011-10-10T13:05:53.0000000+00:00</time></trkpt><trkpt lat="44.641808" lon="33.833096"><ele>124.7</ele><time>2011-10-10T13:05:58.0000000+00:00</time></trkpt><trkpt lat="44.641792" lon="33.833084"><ele>124.4</ele><time>2011-10-10T13:06:03.0000000+00:00</time></trkpt><trkpt lat="44.641781" lon="33.833069"><ele>124.1</ele><time>2011-10-10T13:06:08.0000000+00:00</time></trkpt><trkpt lat="44.641788" lon="33.833092"><ele>123.4</ele><time>2011-10-10T13:06:13.0000000+00:00</time></trkpt><trkpt lat="44.641788" lon="33.833096"><ele>123.3</ele><time>2011-10-10T13:06:18.0000000+00:00</time></trkpt><trkpt lat="44.641788" lon="33.833096"><ele>123.3</ele><time>2011-10-10T13:06:23.0000000+00:00</time></trkpt><trkpt lat="44.641792" lon="33.833096"><ele>123.2</ele><time>2011-10-10T13:06:28.0000000+00:00</time></trkpt><trkpt lat="44.641796" lon="33.833099"><ele>123.2</ele><time>2011-10-10T13:06:33.0000000+00:00</time></trkpt><trkpt lat="44.641792" lon="33.833103"><ele>123.1</ele><time>2011-10-10T13:06:38.0000000+00:00</time></trkpt><trkpt lat="44.641785" lon="33.833099"><ele>123.0</ele><time>2011-10-10T13:06:43.0000000+00:00</time></trkpt><trkpt lat="44.641766" lon="33.833092"><ele>123.0</ele><time>2011-10-10T13:06:48.0000000+00:00</time></trkpt><trkpt lat="44.64175" lon="33.83308"><ele>122.9</ele><time>2011-10-10T13:06:53.0000000+00:00</time></trkpt><trkpt lat="44.641743" lon="33.83308"><ele>122.8</ele><time>2011-10-10T13:06:58.0000000+00:00</time></trkpt><trkpt lat="44.641739" lon="33.83308"><ele>122.6</ele><time>2011-10-10T13:07:03.0000000+00:00</time></trkpt><trkpt lat="44.641739" lon="33.833084"><ele>122.6</ele><time>2011-10-10T13:07:08.0000000+00:00</time></trkpt><trkpt lat="44.641747" lon="33.833088"><ele>122.5</ele><time>2011-10-10T13:07:13.0000000+00:00</time></trkpt><trkpt lat="44.641716" lon="33.83308"><ele>122.2</ele><time>2011-10-10T13:07:18.0000000+00:00</time></trkpt><trkpt lat="44.641701" lon="33.833092"><ele>121.2</ele><time>2011-10-10T13:07:23.0000000+00:00</time></trkpt><trkpt lat="44.641701" lon="33.833099"><ele>120.4</ele><time>2011-10-10T13:07:28.0000000+00:00</time></trkpt><trkpt lat="44.641716" lon="33.833103"><ele>120.3</ele><time>2011-10-10T13:07:33.0000000+00:00</time></trkpt><trkpt lat="44.641739" lon="33.833126"><ele>120.0</ele><time>2011-10-10T13:07:38.0000000+00:00</time></trkpt><trkpt lat="44.641739" lon="33.833145"><ele>119.6</ele><time>2011-10-10T13:07:43.0000000+00:00</time></trkpt><trkpt lat="44.641708" lon="33.833248"><ele>120.6</ele><time>2011-10-10T13:07:48.0000000+00:00</time></trkpt><trkpt lat="44.641651" lon="33.833424"><ele>121.5</ele><time>2011-10-10T13:07:53.0000000+00:00</time></trkpt><trkpt lat="44.641628" lon="33.83366"><ele>123.1</ele><time>2011-10-10T13:07:58.0000000+00:00</time></trkpt><trkpt lat="44.641655" lon="33.833866"><ele>124.7</ele><time>2011-10-10T13:08:03.0000000+00:00</time></trkpt><trkpt lat="44.641598" lon="33.833748"><ele>124.2</ele><time>2011-10-10T13:08:08.0000000+00:00</time></trkpt><trkpt lat="44.641602" lon="33.833607"><ele>125.4</ele><time>2011-10-10T13:08:13.0000000+00:00</time></trkpt><trkpt lat="44.641609" lon="33.833401"><ele>125.9</ele><time>2011-10-10T13:08:18.0000000+00:00</time></trkpt><trkpt lat="44.641659" lon="33.833248"><ele>124.8</ele><time>2011-10-10T13:08:23.0000000+00:00</time></trkpt><trkpt lat="44.641659" lon="33.833248"><ele>125.1</ele><time>2011-10-10T13:08:28.0000000+00:00</time></trkpt><trkpt lat="44.641659" lon="33.833248"><ele>125.0</ele><time>2011-10-10T13:08:33.0000000+00:00</time></trkpt><trkpt lat="44.641655" lon="33.833248"><ele>125.0</ele><time>2011-10-10T13:08:38.0000000+00:00</time></trkpt><trkpt lat="44.641655" lon="33.833248"><ele>125.0</ele><time>2011-10-10T13:08:43.0000000+00:00</time></trkpt><trkpt lat="44.641655" lon="33.833248"><ele>125.0</ele><time>2011-10-10T13:08:48.0000000+00:00</time></trkpt><trkpt lat="44.641659" lon="33.833248"><ele>125.0</ele><time>2011-10-10T13:08:53.0000000+00:00</time></trkpt><trkpt lat="44.641659" lon="33.833248"><ele>125.0</ele><time>2011-10-10T13:08:58.0000000+00:00</time></trkpt><trkpt lat="44.641659" lon="33.833248"><ele>125.0</ele><time>2011-10-10T13:09:03.0000000+00:00</time></trkpt><trkpt lat="44.641659" lon="33.833244"><ele>125.0</ele><time>2011-10-10T13:09:08.0000000+00:00</time></trkpt><trkpt lat="44.641659" lon="33.833244"><ele>125.0</ele><time>2011-10-10T13:09:13.0000000+00:00</time></trkpt><trkpt lat="44.641659" lon="33.833244"><ele>125.0</ele><time>2011-10-10T13:09:18.0000000+00:00</time></trkpt><trkpt lat="44.641659" lon="33.833244"><ele>125.0</ele><time>2011-10-10T13:09:23.0000000+00:00</time></trkpt><trkpt lat="44.641659" lon="33.833244"><ele>125.0</ele><time>2011-10-10T13:09:28.0000000+00:00</time></trkpt><trkpt lat="44.641659" lon="33.833244"><ele>125.0</ele><time>2011-10-10T13:09:33.0000000+00:00</time></trkpt><trkpt lat="44.641659" lon="33.833244"><ele>125.0</ele><time>2011-10-10T13:09:38.0000000+00:00</time></trkpt><trkpt lat="44.641659" lon="33.833244"><ele>125.0</ele><time>2011-10-10T13:09:43.0000000+00:00</time></trkpt><trkpt lat="44.641663" lon="33.833244"><ele>125.0</ele><time>2011-10-10T13:09:48.0000000+00:00</time></trkpt><trkpt lat="44.641663" lon="33.833244"><ele>124.9</ele><time>2011-10-10T13:09:53.0000000+00:00</time></trkpt><trkpt lat="44.641663" lon="33.833244"><ele>124.9</ele><time>2011-10-10T13:09:58.0000000+00:00</time></trkpt><trkpt lat="44.641663" lon="33.833244"><ele>124.9</ele><time>2011-10-10T13:10:03.0000000+00:00</time></trkpt><trkpt lat="44.641663" lon="33.833244"><ele>124.9</ele><time>2011-10-10T13:10:08.0000000+00:00</time></trkpt><trkpt lat="44.641663" lon="33.833244"><ele>124.9</ele><time>2011-10-10T13:10:13.0000000+00:00</time></trkpt><trkpt lat="44.641663" lon="33.833244"><ele>124.9</ele><time>2011-10-10T13:10:18.0000000+00:00</time></trkpt><trkpt lat="44.641659" lon="33.833244"><ele>124.9</ele><time>2011-10-10T13:10:23.0000000+00:00</time></trkpt><trkpt lat="44.641655" lon="33.833256"><ele>124.8</ele><time>2011-10-10T13:10:28.0000000+00:00</time></trkpt><trkpt lat="44.641651" lon="33.833263"><ele>124.8</ele><time>2011-10-10T13:10:33.0000000+00:00</time></trkpt><trkpt lat="44.641647" lon="33.833271"><ele>124.8</ele><time>2011-10-10T13:10:38.0000000+00:00</time></trkpt><trkpt lat="44.641659" lon="33.833267"><ele>124.8</ele><time>2011-10-10T13:10:43.0000000+00:00</time></trkpt><trkpt lat="44.641647" lon="33.833252"><ele>124.4</ele><time>2011-10-10T13:10:48.0000000+00:00</time></trkpt><trkpt lat="44.641644" lon="33.833237"><ele>124.2</ele><time>2011-10-10T13:10:53.0000000+00:00</time></trkpt><trkpt lat="44.641644" lon="33.833237"><ele>124.0</ele><time>2011-10-10T13:10:58.0000000+00:00</time></trkpt><trkpt lat="44.641647" lon="33.833248"><ele>124.1</ele><time>2011-10-10T13:11:03.0000000+00:00</time></trkpt><trkpt lat="44.641644" lon="33.833241"><ele>124.3</ele><time>2011-10-10T13:11:08.0000000+00:00</time></trkpt><trkpt lat="44.641651" lon="33.833241"><ele>124.4</ele><time>2011-10-10T13:11:13.0000000+00:00</time></trkpt><trkpt lat="44.641655" lon="33.833244"><ele>124.4</ele><time>2011-10-10T13:11:18.0000000+00:00</time></trkpt><trkpt lat="44.641655" lon="33.833241"><ele>124.5</ele><time>2011-10-10T13:11:23.0000000+00:00</time></trkpt><trkpt lat="44.641666" lon="33.833229"><ele>124.6</ele><time>2011-10-10T13:11:28.0000000+00:00</time></trkpt><trkpt lat="44.641666" lon="33.833225"><ele>124.8</ele><time>2011-10-10T13:11:33.0000000+00:00</time></trkpt><trkpt lat="44.64167" lon="33.833225"><ele>124.9</ele><time>2011-10-10T13:11:38.0000000+00:00</time></trkpt><trkpt lat="44.641666" lon="33.833218"><ele>125.1</ele><time>2011-10-10T13:11:43.0000000+00:00</time></trkpt><trkpt lat="44.641666" lon="33.833199"><ele>125.6</ele><time>2011-10-10T13:11:48.0000000+00:00</time></trkpt><trkpt lat="44.641682" lon="33.833164"><ele>126.0</ele><time>2011-10-10T13:11:53.0000000+00:00</time></trkpt><trkpt lat="44.641693" lon="33.833122"><ele>126.7</ele><time>2011-10-10T13:11:58.0000000+00:00</time></trkpt><trkpt lat="44.641712" lon="33.833115"><ele>126.8</ele><time>2011-10-10T13:12:03.0000000+00:00</time></trkpt><trkpt lat="44.641724" lon="33.833111"><ele>126.5</ele><time>2011-10-10T13:12:08.0000000+00:00</time></trkpt><trkpt lat="44.641735" lon="33.833111"><ele>126.7</ele><time>2011-10-10T13:12:13.0000000+00:00</time></trkpt><trkpt lat="44.641739" lon="33.833103"><ele>126.7</ele><time>2011-10-10T13:12:18.0000000+00:00</time></trkpt><trkpt lat="44.641743" lon="33.833107"><ele>126.7</ele><time>2011-10-10T13:12:23.0000000+00:00</time></trkpt><trkpt lat="44.641743" lon="33.833103"><ele>126.8</ele><time>2011-10-10T13:12:28.0000000+00:00</time></trkpt><trkpt lat="44.641739" lon="33.833099"><ele>126.9</ele><time>2011-10-10T13:12:33.0000000+00:00</time></trkpt><trkpt lat="44.641739" lon="33.833099"><ele>126.9</ele><time>2011-10-10T13:12:38.0000000+00:00</time></trkpt><trkpt lat="44.641739" lon="33.833099"><ele>126.9</ele><time>2011-10-10T13:12:43.0000000+00:00</time></trkpt><trkpt lat="44.641735" lon="33.833103"><ele>126.9</ele><time>2011-10-10T13:12:48.0000000+00:00</time></trkpt><trkpt lat="44.641735" lon="33.833107"><ele>126.9</ele><time>2011-10-10T13:12:53.0000000+00:00</time></trkpt><trkpt lat="44.641735" lon="33.833111"><ele>126.9</ele><time>2011-10-10T13:12:58.0000000+00:00</time></trkpt><trkpt lat="44.641735" lon="33.833115"><ele>126.9</ele><time>2011-10-10T13:13:03.0000000+00:00</time></trkpt><trkpt lat="44.641735" lon="33.833115"><ele>126.9</ele><time>2011-10-10T13:13:08.0000000+00:00</time></trkpt><trkpt lat="44.641735" lon="33.833118"><ele>126.8</ele><time>2011-10-10T13:13:13.0000000+00:00</time></trkpt><trkpt lat="44.641739" lon="33.833118"><ele>126.9</ele><time>2011-10-10T13:13:18.0000000+00:00</time></trkpt><trkpt lat="44.641735" lon="33.833118"><ele>126.9</ele><time>2011-10-10T13:13:23.0000000+00:00</time></trkpt><trkpt lat="44.641735" lon="33.833118"><ele>126.9</ele><time>2011-10-10T13:13:28.0000000+00:00</time></trkpt><trkpt lat="44.641739" lon="33.833118"><ele>127.0</ele><time>2011-10-10T13:13:33.0000000+00:00</time></trkpt><trkpt lat="44.641739" lon="33.833118"><ele>127.0</ele><time>2011-10-10T13:13:38.0000000+00:00</time></trkpt><trkpt lat="44.641739" lon="33.833118"><ele>127.0</ele><time>2011-10-10T13:13:43.0000000+00:00</time></trkpt><trkpt lat="44.641739" lon="33.833118"><ele>127.0</ele><time>2011-10-10T13:13:48.0000000+00:00</time></trkpt><trkpt lat="44.641739" lon="33.833118"><ele>127.0</ele><time>2011-10-10T13:13:53.0000000+00:00</time></trkpt><trkpt lat="44.641739" lon="33.833118"><ele>127.0</ele><time>2011-10-10T13:13:58.0000000+00:00</time></trkpt><trkpt lat="44.641739" lon="33.833118"><ele>127.1</ele><time>2011-10-10T13:14:03.0000000+00:00</time></trkpt><trkpt lat="44.641735" lon="33.833107"><ele>127.2</ele><time>2011-10-10T13:14:08.0000000+00:00</time></trkpt><trkpt lat="44.641731" lon="33.833099"><ele>127.4</ele><time>2011-10-10T13:14:13.0000000+00:00</time></trkpt><trkpt lat="44.641727" lon="33.833096"><ele>127.5</ele><time>2011-10-10T13:14:18.0000000+00:00</time></trkpt><trkpt lat="44.641731" lon="33.833096"><ele>127.7</ele><time>2011-10-10T13:14:23.0000000+00:00</time></trkpt><trkpt lat="44.641731" lon="33.833096"><ele>127.7</ele><time>2011-10-10T13:14:28.0000000+00:00</time></trkpt><trkpt lat="44.641731" lon="33.833096"><ele>127.7</ele><time>2011-10-10T13:14:33.0000000+00:00</time></trkpt><trkpt lat="44.641731" lon="33.833096"><ele>127.7</ele><time>2011-10-10T13:14:38.0000000+00:00</time></trkpt><trkpt lat="44.641731" lon="33.833096"><ele>127.7</ele><time>2011-10-10T13:14:43.0000000+00:00</time></trkpt><trkpt lat="44.641731" lon="33.833096"><ele>127.7</ele><time>2011-10-10T13:14:48.0000000+00:00</time></trkpt><trkpt lat="44.641731" lon="33.833096"><ele>127.7</ele><time>2011-10-10T13:14:53.0000000+00:00</time></trkpt><trkpt lat="44.641731" lon="33.833096"><ele>127.7</ele><time>2011-10-10T13:14:58.0000000+00:00</time></trkpt><trkpt lat="44.641731" lon="33.833096"><ele>127.7</ele><time>2011-10-10T13:15:03.0000000+00:00</time></trkpt><trkpt lat="44.641731" lon="33.833096"><ele>127.7</ele><time>2011-10-10T13:15:08.0000000+00:00</time></trkpt><trkpt lat="44.641731" lon="33.833096"><ele>127.7</ele><time>2011-10-10T13:15:13.0000000+00:00</time></trkpt><trkpt lat="44.641731" lon="33.833096"><ele>127.8</ele><time>2011-10-10T13:15:18.0000000+00:00</time></trkpt><trkpt lat="44.641731" lon="33.833096"><ele>127.8</ele><time>2011-10-10T13:15:23.0000000+00:00</time></trkpt><trkpt lat="44.641739" lon="33.833084"><ele>127.8</ele><time>2011-10-10T13:15:28.0000000+00:00</time></trkpt><trkpt lat="44.641777" lon="33.83289"><ele>128.9</ele><time>2011-10-10T13:15:33.0000000+00:00</time></trkpt><trkpt lat="44.641876" lon="33.832478"><ele>129.8</ele><time>2011-10-10T13:15:38.0000000+00:00</time></trkpt><trkpt lat="44.641983" lon="33.832043"><ele>129.4</ele><time>2011-10-10T13:15:43.0000000+00:00</time></trkpt><trkpt lat="44.642006" lon="33.831516"><ele>128.9</ele><time>2011-10-10T13:15:48.0000000+00:00</time></trkpt><trkpt lat="44.642086" lon="33.83091"><ele>128.9</ele><time>2011-10-10T13:15:53.0000000+00:00</time></trkpt><trkpt lat="44.642231" lon="33.830372"><ele>127.4</ele><time>2011-10-10T13:15:58.0000000+00:00</time></trkpt><trkpt lat="44.642471" lon="33.829876"><ele>127.7</ele><time>2011-10-10T13:16:03.0000000+00:00</time></trkpt><trkpt lat="44.642727" lon="33.829472"><ele>128.3</ele><time>2011-10-10T13:16:08.0000000+00:00</time></trkpt><trkpt lat="44.642971" lon="33.829075"><ele>129.2</ele><time>2011-10-10T13:16:13.0000000+00:00</time></trkpt><trkpt lat="44.643166" lon="33.828667"><ele>129.6</ele><time>2011-10-10T13:16:18.0000000+00:00</time></trkpt><trkpt lat="44.643295" lon="33.828342"><ele>130.0</ele><time>2011-10-10T13:16:23.0000000+00:00</time></trkpt><trkpt lat="44.643391" lon="33.82814"><ele>129.4</ele><time>2011-10-10T13:16:28.0000000+00:00</time></trkpt><trkpt lat="44.643501" lon="33.827957"><ele>129.0</ele><time>2011-10-10T13:16:33.0000000+00:00</time></trkpt><trkpt lat="44.643539" lon="33.827911"><ele>129.5</ele><time>2011-10-10T13:16:38.0000000+00:00</time></trkpt><trkpt lat="44.643539" lon="33.827915"><ele>129.5</ele><time>2011-10-10T13:16:43.0000000+00:00</time></trkpt><trkpt lat="44.643539" lon="33.827915"><ele>129.4</ele><time>2011-10-10T13:16:48.0000000+00:00</time></trkpt><trkpt lat="44.643539" lon="33.827915"><ele>129.3</ele><time>2011-10-10T13:16:53.0000000+00:00</time></trkpt><trkpt lat="44.643539" lon="33.827915"><ele>129.3</ele><time>2011-10-10T13:16:58.0000000+00:00</time></trkpt><trkpt lat="44.643539" lon="33.827915"><ele>129.3</ele><time>2011-10-10T13:17:03.0000000+00:00</time></trkpt><trkpt lat="44.643539" lon="33.827911"><ele>129.2</ele><time>2011-10-10T13:17:08.0000000+00:00</time></trkpt><trkpt lat="44.643539" lon="33.827911"><ele>129.2</ele><time>2011-10-10T13:17:13.0000000+00:00</time></trkpt><trkpt lat="44.643539" lon="33.827911"><ele>129.2</ele><time>2011-10-10T13:17:18.0000000+00:00</time></trkpt><trkpt lat="44.643539" lon="33.827911"><ele>129.2</ele><time>2011-10-10T13:17:23.0000000+00:00</time></trkpt><trkpt lat="44.643539" lon="33.827911"><ele>129.2</ele><time>2011-10-10T13:17:28.0000000+00:00</time></trkpt><trkpt lat="44.643539" lon="33.827911"><ele>129.2</ele><time>2011-10-10T13:17:33.0000000+00:00</time></trkpt><trkpt lat="44.643539" lon="33.827911"><ele>129.2</ele><time>2011-10-10T13:17:38.0000000+00:00</time></trkpt><trkpt lat="44.643539" lon="33.827911"><ele>129.2</ele><time>2011-10-10T13:17:43.0000000+00:00</time></trkpt><trkpt lat="44.643539" lon="33.827915"><ele>129.2</ele><time>2011-10-10T13:17:48.0000000+00:00</time></trkpt><trkpt lat="44.643539" lon="33.827915"><ele>129.2</ele><time>2011-10-10T13:17:53.0000000+00:00</time></trkpt><trkpt lat="44.643539" lon="33.827915"><ele>129.2</ele><time>2011-10-10T13:17:58.0000000+00:00</time></trkpt><trkpt lat="44.643539" lon="33.827915"><ele>129.2</ele><time>2011-10-10T13:18:03.0000000+00:00</time></trkpt><trkpt lat="44.643539" lon="33.827915"><ele>129.2</ele><time>2011-10-10T13:18:08.0000000+00:00</time></trkpt><trkpt lat="44.643539" lon="33.827915"><ele>129.3</ele><time>2011-10-10T13:18:13.0000000+00:00</time></trkpt><trkpt lat="44.643536" lon="33.827915"><ele>129.3</ele><time>2011-10-10T13:18:18.0000000+00:00</time></trkpt><trkpt lat="44.643536" lon="33.827915"><ele>129.3</ele><time>2011-10-10T13:18:23.0000000+00:00</time></trkpt><trkpt lat="44.643536" lon="33.827915"><ele>129.3</ele><time>2011-10-10T13:18:28.0000000+00:00</time></trkpt><trkpt lat="44.643536" lon="33.827915"><ele>129.3</ele><time>2011-10-10T13:18:33.0000000+00:00</time></trkpt><trkpt lat="44.643536" lon="33.827915"><ele>129.3</ele><time>2011-10-10T13:18:38.0000000+00:00</time></trkpt><trkpt lat="44.643536" lon="33.827915"><ele>129.3</ele><time>2011-10-10T13:18:43.0000000+00:00</time></trkpt><trkpt lat="44.643536" lon="33.827915"><ele>129.4</ele><time>2011-10-10T13:18:48.0000000+00:00</time></trkpt><trkpt lat="44.643536" lon="33.827915"><ele>129.3</ele><time>2011-10-10T13:18:53.0000000+00:00</time></trkpt><trkpt lat="44.643536" lon="33.827915"><ele>129.3</ele><time>2011-10-10T13:18:58.0000000+00:00</time></trkpt><trkpt lat="44.643536" lon="33.827915"><ele>129.3</ele><time>2011-10-10T13:19:03.0000000+00:00</time></trkpt><trkpt lat="44.643536" lon="33.827915"><ele>129.3</ele><time>2011-10-10T13:19:08.0000000+00:00</time></trkpt><trkpt lat="44.643536" lon="33.827915"><ele>129.3</ele><time>2011-10-10T13:19:13.0000000+00:00</time></trkpt><trkpt lat="44.643536" lon="33.827915"><ele>129.3</ele><time>2011-10-10T13:19:18.0000000+00:00</time></trkpt><trkpt lat="44.643536" lon="33.827915"><ele>129.3</ele><time>2011-10-10T13:19:23.0000000+00:00</time></trkpt><trkpt lat="44.643536" lon="33.827915"><ele>129.3</ele><time>2011-10-10T13:19:28.0000000+00:00</time></trkpt><trkpt lat="44.643536" lon="33.827915"><ele>129.3</ele><time>2011-10-10T13:19:33.0000000+00:00</time></trkpt><trkpt lat="44.643536" lon="33.827915"><ele>129.3</ele><time>2011-10-10T13:19:38.0000000+00:00</time></trkpt><trkpt lat="44.643536" lon="33.827915"><ele>129.3</ele><time>2011-10-10T13:19:43.0000000+00:00</time></trkpt><trkpt lat="44.643536" lon="33.827915"><ele>129.3</ele><time>2011-10-10T13:19:48.0000000+00:00</time></trkpt><trkpt lat="44.643532" lon="33.827915"><ele>129.3</ele><time>2011-10-10T13:19:53.0000000+00:00</time></trkpt><trkpt lat="44.643536" lon="33.827915"><ele>129.3</ele><time>2011-10-10T13:19:58.0000000+00:00</time></trkpt><trkpt lat="44.643536" lon="33.827915"><ele>129.3</ele><time>2011-10-10T13:20:03.0000000+00:00</time></trkpt><trkpt lat="44.643539" lon="33.827915"><ele>129.3</ele><time>2011-10-10T13:20:08.0000000+00:00</time></trkpt><trkpt lat="44.643539" lon="33.827915"><ele>129.3</ele><time>2011-10-10T13:20:13.0000000+00:00</time></trkpt><trkpt lat="44.643539" lon="33.827915"><ele>129.3</ele><time>2011-10-10T13:20:18.0000000+00:00</time></trkpt><trkpt lat="44.643539" lon="33.827915"><ele>129.3</ele><time>2011-10-10T13:20:23.0000000+00:00</time></trkpt><trkpt lat="44.643539" lon="33.827915"><ele>129.3</ele><time>2011-10-10T13:20:28.0000000+00:00</time></trkpt><trkpt lat="44.643539" lon="33.827915"><ele>129.3</ele><time>2011-10-10T13:20:33.0000000+00:00</time></trkpt><trkpt lat="44.643539" lon="33.827915"><ele>129.3</ele><time>2011-10-10T13:20:38.0000000+00:00</time></trkpt><trkpt lat="44.643539" lon="33.827919"><ele>129.3</ele><time>2011-10-10T13:20:43.0000000+00:00</time></trkpt><trkpt lat="44.643539" lon="33.827919"><ele>129.3</ele><time>2011-10-10T13:20:48.0000000+00:00</time></trkpt><trkpt lat="44.643539" lon="33.827919"><ele>129.3</ele><time>2011-10-10T13:20:53.0000000+00:00</time></trkpt><trkpt lat="44.643539" lon="33.827919"><ele>129.3</ele><time>2011-10-10T13:20:58.0000000+00:00</time></trkpt><trkpt lat="44.643539" lon="33.827919"><ele>129.3</ele><time>2011-10-10T13:21:03.0000000+00:00</time></trkpt><trkpt lat="44.643539" lon="33.827919"><ele>129.3</ele><time>2011-10-10T13:21:08.0000000+00:00</time></trkpt><trkpt lat="44.643539" lon="33.827919"><ele>129.3</ele><time>2011-10-10T13:21:13.0000000+00:00</time></trkpt><trkpt lat="44.643539" lon="33.827919"><ele>129.4</ele><time>2011-10-10T13:21:18.0000000+00:00</time></trkpt><trkpt lat="44.643539" lon="33.827919"><ele>129.4</ele><time>2011-10-10T13:21:23.0000000+00:00</time></trkpt><trkpt lat="44.643539" lon="33.827919"><ele>129.4</ele><time>2011-10-10T13:21:28.0000000+00:00</time></trkpt><trkpt lat="44.643539" lon="33.827919"><ele>129.4</ele><time>2011-10-10T13:21:33.0000000+00:00</time></trkpt><trkpt lat="44.643539" lon="33.827919"><ele>129.4</ele><time>2011-10-10T13:21:38.0000000+00:00</time></trkpt><trkpt lat="44.643539" lon="33.827919"><ele>129.4</ele><time>2011-10-10T13:21:43.0000000+00:00</time></trkpt><trkpt lat="44.643539" lon="33.827919"><ele>129.4</ele><time>2011-10-10T13:21:48.0000000+00:00</time></trkpt><trkpt lat="44.643539" lon="33.827919"><ele>129.4</ele><time>2011-10-10T13:21:53.0000000+00:00</time></trkpt><trkpt lat="44.643539" lon="33.827919"><ele>129.4</ele><time>2011-10-10T13:21:58.0000000+00:00</time></trkpt><trkpt lat="44.643539" lon="33.827919"><ele>129.4</ele><time>2011-10-10T13:22:03.0000000+00:00</time></trkpt><trkpt lat="44.643539" lon="33.827919"><ele>129.4</ele><time>2011-10-10T13:22:08.0000000+00:00</time></trkpt><trkpt lat="44.643539" lon="33.827919"><ele>129.4</ele><time>2011-10-10T13:22:13.0000000+00:00</time></trkpt><trkpt lat="44.643539" lon="33.827919"><ele>129.4</ele><time>2011-10-10T13:22:18.0000000+00:00</time></trkpt><trkpt lat="44.643539" lon="33.827919"><ele>129.4</ele><time>2011-10-10T13:22:23.0000000+00:00</time></trkpt><trkpt lat="44.643539" lon="33.827919"><ele>129.4</ele><time>2011-10-10T13:22:28.0000000+00:00</time></trkpt><trkpt lat="44.643539" lon="33.827919"><ele>129.4</ele><time>2011-10-10T13:22:33.0000000+00:00</time></trkpt><trkpt lat="44.643539" lon="33.827919"><ele>129.4</ele><time>2011-10-10T13:22:38.0000000+00:00</time></trkpt><trkpt lat="44.643539" lon="33.827919"><ele>129.4</ele><time>2011-10-10T13:22:43.0000000+00:00</time></trkpt><trkpt lat="44.643539" lon="33.827919"><ele>129.4</ele><time>2011-10-10T13:22:48.0000000+00:00</time></trkpt><trkpt lat="44.643539" lon="33.827919"><ele>129.4</ele><time>2011-10-10T13:22:53.0000000+00:00</time></trkpt><trkpt lat="44.643539" lon="33.827919"><ele>129.4</ele><time>2011-10-10T13:22:58.0000000+00:00</time></trkpt><trkpt lat="44.643536" lon="33.827919"><ele>129.4</ele><time>2011-10-10T13:23:03.0000000+00:00</time></trkpt><trkpt lat="44.643536" lon="33.827919"><ele>129.4</ele><time>2011-10-10T13:23:08.0000000+00:00</time></trkpt><trkpt lat="44.643536" lon="33.827919"><ele>129.4</ele><time>2011-10-10T13:23:13.0000000+00:00</time></trkpt><trkpt lat="44.643536" lon="33.827919"><ele>129.4</ele><time>2011-10-10T13:23:18.0000000+00:00</time></trkpt><trkpt lat="44.643536" lon="33.827919"><ele>129.4</ele><time>2011-10-10T13:23:23.0000000+00:00</time></trkpt><trkpt lat="44.643536" lon="33.827919"><ele>129.4</ele><time>2011-10-10T13:23:28.0000000+00:00</time></trkpt><trkpt lat="44.643536" lon="33.827919"><ele>129.4</ele><time>2011-10-10T13:23:33.0000000+00:00</time></trkpt><trkpt lat="44.643536" lon="33.827919"><ele>129.3</ele><time>2011-10-10T13:23:38.0000000+00:00</time></trkpt><trkpt lat="44.643536" lon="33.827919"><ele>129.3</ele><time>2011-10-10T13:23:43.0000000+00:00</time></trkpt><trkpt lat="44.643536" lon="33.827919"><ele>129.3</ele><time>2011-10-10T13:23:48.0000000+00:00</time></trkpt><trkpt lat="44.643536" lon="33.827919"><ele>129.3</ele><time>2011-10-10T13:23:53.0000000+00:00</time></trkpt><trkpt lat="44.643536" lon="33.827919"><ele>129.3</ele><time>2011-10-10T13:23:58.0000000+00:00</time></trkpt><trkpt lat="44.643536" lon="33.827919"><ele>129.3</ele><time>2011-10-10T13:24:03.0000000+00:00</time></trkpt><trkpt lat="44.643536" lon="33.827919"><ele>129.3</ele><time>2011-10-10T13:24:08.0000000+00:00</time></trkpt><trkpt lat="44.643536" lon="33.827919"><ele>129.3</ele><time>2011-10-10T13:24:13.0000000+00:00</time></trkpt><trkpt lat="44.643536" lon="33.827919"><ele>129.3</ele><time>2011-10-10T13:24:18.0000000+00:00</time></trkpt><trkpt lat="44.643536" lon="33.827919"><ele>129.3</ele><time>2011-10-10T13:24:23.0000000+00:00</time></trkpt><trkpt lat="44.643536" lon="33.827919"><ele>129.3</ele><time>2011-10-10T13:24:28.0000000+00:00</time></trkpt><trkpt lat="44.643536" lon="33.827919"><ele>129.3</ele><time>2011-10-10T13:24:33.0000000+00:00</time></trkpt><trkpt lat="44.643536" lon="33.827919"><ele>129.3</ele><time>2011-10-10T13:24:38.0000000+00:00</time></trkpt><trkpt lat="44.643536" lon="33.827919"><ele>129.3</ele><time>2011-10-10T13:24:43.0000000+00:00</time></trkpt><trkpt lat="44.643536" lon="33.827919"><ele>129.3</ele><time>2011-10-10T13:24:48.0000000+00:00</time></trkpt><trkpt lat="44.643536" lon="33.827919"><ele>129.3</ele><time>2011-10-10T13:24:53.0000000+00:00</time></trkpt><trkpt lat="44.643536" lon="33.827919"><ele>129.3</ele><time>2011-10-10T13:24:58.0000000+00:00</time></trkpt><trkpt lat="44.643536" lon="33.827915"><ele>129.3</ele><time>2011-10-10T13:25:03.0000000+00:00</time></trkpt><trkpt lat="44.643536" lon="33.827915"><ele>129.3</ele><time>2011-10-10T13:25:08.0000000+00:00</time></trkpt><trkpt lat="44.643536" lon="33.827915"><ele>129.3</ele><time>2011-10-10T13:25:13.0000000+00:00</time></trkpt><trkpt lat="44.643536" lon="33.827915"><ele>129.3</ele><time>2011-10-10T13:25:18.0000000+00:00</time></trkpt><trkpt lat="44.643536" lon="33.827915"><ele>129.3</ele><time>2011-10-10T13:25:23.0000000+00:00</time></trkpt><trkpt lat="44.643536" lon="33.827915"><ele>129.3</ele><time>2011-10-10T13:25:28.0000000+00:00</time></trkpt><trkpt lat="44.643536" lon="33.827915"><ele>129.3</ele><time>2011-10-10T13:25:33.0000000+00:00</time></trkpt><trkpt lat="44.643536" lon="33.827915"><ele>129.3</ele><time>2011-10-10T13:25:38.0000000+00:00</time></trkpt><trkpt lat="44.643536" lon="33.827915"><ele>129.3</ele><time>2011-10-10T13:25:43.0000000+00:00</time></trkpt><trkpt lat="44.643536" lon="33.827915"><ele>129.3</ele><time>2011-10-10T13:25:48.0000000+00:00</time></trkpt><trkpt lat="44.643536" lon="33.827915"><ele>129.3</ele><time>2011-10-10T13:25:53.0000000+00:00</time></trkpt><trkpt lat="44.643536" lon="33.827915"><ele>129.3</ele><time>2011-10-10T13:25:58.0000000+00:00</time></trkpt><trkpt lat="44.643536" lon="33.827915"><ele>129.2</ele><time>2011-10-10T13:26:03.0000000+00:00</time></trkpt><trkpt lat="44.643536" lon="33.827915"><ele>129.2</ele><time>2011-10-10T13:26:08.0000000+00:00</time></trkpt><trkpt lat="44.643536" lon="33.827915"><ele>129.2</ele><time>2011-10-10T13:26:13.0000000+00:00</time></trkpt><trkpt lat="44.643536" lon="33.827915"><ele>129.3</ele><time>2011-10-10T13:26:18.0000000+00:00</time></trkpt><trkpt lat="44.643536" lon="33.827915"><ele>129.3</ele><time>2011-10-10T13:26:23.0000000+00:00</time></trkpt><trkpt lat="44.643536" lon="33.827915"><ele>129.3</ele><time>2011-10-10T13:26:28.0000000+00:00</time></trkpt><trkpt lat="44.643536" lon="33.827915"><ele>129.3</ele><time>2011-10-10T13:26:33.0000000+00:00</time></trkpt><trkpt lat="44.643536" lon="33.827915"><ele>129.3</ele><time>2011-10-10T13:26:38.0000000+00:00</time></trkpt><trkpt lat="44.643536" lon="33.827915"><ele>129.3</ele><time>2011-10-10T13:26:43.0000000+00:00</time></trkpt><trkpt lat="44.643536" lon="33.827915"><ele>129.3</ele><time>2011-10-10T13:26:48.0000000+00:00</time></trkpt><trkpt lat="44.643536" lon="33.827915"><ele>129.3</ele><time>2011-10-10T13:26:53.0000000+00:00</time></trkpt><trkpt lat="44.643536" lon="33.827915"><ele>129.3</ele><time>2011-10-10T13:26:58.0000000+00:00</time></trkpt><trkpt lat="44.643536" lon="33.827915"><ele>129.3</ele><time>2011-10-10T13:27:03.0000000+00:00</time></trkpt><trkpt lat="44.643536" lon="33.827915"><ele>129.3</ele><time>2011-10-10T13:27:08.0000000+00:00</time></trkpt><trkpt lat="44.643543" lon="33.827904"><ele>130.1</ele><time>2011-10-10T13:27:13.0000000+00:00</time></trkpt><trkpt lat="44.643589" lon="33.827789"><ele>129.9</ele><time>2011-10-10T13:27:18.0000000+00:00</time></trkpt><trkpt lat="44.643608" lon="33.827518"><ele>129.7</ele><time>2011-10-10T13:27:23.0000000+00:00</time></trkpt><trkpt lat="44.643654" lon="33.827206"><ele>130.2</ele><time>2011-10-10T13:27:28.0000000+00:00</time></trkpt><trkpt lat="44.643723" lon="33.826824"><ele>130.0</ele><time>2011-10-10T13:27:33.0000000+00:00</time></trkpt><trkpt lat="44.643787" lon="33.826378"><ele>129.0</ele><time>2011-10-10T13:27:38.0000000+00:00</time></trkpt><trkpt lat="44.643883" lon="33.825924"><ele>128.4</ele><time>2011-10-10T13:27:43.0000000+00:00</time></trkpt><trkpt lat="44.644009" lon="33.825554"><ele>128.2</ele><time>2011-10-10T13:27:48.0000000+00:00</time></trkpt><trkpt lat="44.64418" lon="33.825172"><ele>127.6</ele><time>2011-10-10T13:27:53.0000000+00:00</time></trkpt><trkpt lat="44.644367" lon="33.824799"><ele>127.6</ele><time>2011-10-10T13:27:58.0000000+00:00</time></trkpt><trkpt lat="44.644543" lon="33.824448"><ele>127.9</ele><time>2011-10-10T13:28:03.0000000+00:00</time></trkpt><trkpt lat="44.644707" lon="33.824146"><ele>129.2</ele><time>2011-10-10T13:28:08.0000000+00:00</time></trkpt><trkpt lat="44.644894" lon="33.823921"><ele>130.8</ele><time>2011-10-10T13:28:13.0000000+00:00</time></trkpt><trkpt lat="44.6451" lon="33.823738"><ele>132.6</ele><time>2011-10-10T13:28:18.0000000+00:00</time></trkpt><trkpt lat="44.645294" lon="33.823532"><ele>133.9</ele><time>2011-10-10T13:28:23.0000000+00:00</time></trkpt><trkpt lat="44.645496" lon="33.823257"><ele>132.8</ele><time>2011-10-10T13:28:28.0000000+00:00</time></trkpt><trkpt lat="44.645718" lon="33.822926"><ele>132.3</ele><time>2011-10-10T13:28:33.0000000+00:00</time></trkpt><trkpt lat="44.645931" lon="33.822586"><ele>130.7</ele><time>2011-10-10T13:28:38.0000000+00:00</time></trkpt><trkpt lat="44.646198" lon="33.822189"><ele>128.6</ele><time>2011-10-10T13:28:43.0000000+00:00</time></trkpt><trkpt lat="44.646515" lon="33.821835"><ele>127.8</ele><time>2011-10-10T13:28:48.0000000+00:00</time></trkpt><trkpt lat="44.646816" lon="33.821541"><ele>127.3</ele><time>2011-10-10T13:28:53.0000000+00:00</time></trkpt><trkpt lat="44.647045" lon="33.821209"><ele>126.6</ele><time>2011-10-10T13:28:58.0000000+00:00</time></trkpt><trkpt lat="44.647232" lon="33.820808"><ele>125.9</ele><time>2011-10-10T13:29:03.0000000+00:00</time></trkpt><trkpt lat="44.647427" lon="33.820408"><ele>126.0</ele><time>2011-10-10T13:29:08.0000000+00:00</time></trkpt><trkpt lat="44.64756" lon="33.820034"><ele>126.7</ele><time>2011-10-10T13:29:13.0000000+00:00</time></trkpt><trkpt lat="44.647663" lon="33.819656"><ele>126.8</ele><time>2011-10-10T13:29:18.0000000+00:00</time></trkpt><trkpt lat="44.647736" lon="33.819294"><ele>127.6</ele><time>2011-10-10T13:29:23.0000000+00:00</time></trkpt><trkpt lat="44.647827" lon="33.818954"><ele>128.8</ele><time>2011-10-10T13:29:28.0000000+00:00</time></trkpt><trkpt lat="44.647949" lon="33.818619"><ele>130.1</ele><time>2011-10-10T13:29:33.0000000+00:00</time></trkpt><trkpt lat="44.648071" lon="33.818302"><ele>130.4</ele><time>2011-10-10T13:29:38.0000000+00:00</time></trkpt><trkpt lat="44.648247" lon="33.818005"><ele>130.0</ele><time>2011-10-10T13:29:43.0000000+00:00</time></trkpt><trkpt lat="44.648468" lon="33.817692"><ele>130.3</ele><time>2011-10-10T13:29:48.0000000+00:00</time></trkpt><trkpt lat="44.648685" lon="33.817368"><ele>131.2</ele><time>2011-10-10T13:29:53.0000000+00:00</time></trkpt><trkpt lat="44.648846" lon="33.817116"><ele>132.1</ele><time>2011-10-10T13:29:58.0000000+00:00</time></trkpt><trkpt lat="44.649044" lon="33.816837"><ele>132.0</ele><time>2011-10-10T13:30:03.0000000+00:00</time></trkpt><trkpt lat="44.649261" lon="33.816525"><ele>131.4</ele><time>2011-10-10T13:30:08.0000000+00:00</time></trkpt><trkpt lat="44.649513" lon="33.816219"><ele>131.4</ele><time>2011-10-10T13:30:13.0000000+00:00</time></trkpt><trkpt lat="44.649796" lon="33.815884"><ele>129.9</ele><time>2011-10-10T13:30:18.0000000+00:00</time></trkpt><trkpt lat="44.650082" lon="33.815495"><ele>128.6</ele><time>2011-10-10T13:30:23.0000000+00:00</time></trkpt><trkpt lat="44.650417" lon="33.815117"><ele>126.2</ele><time>2011-10-10T13:30:28.0000000+00:00</time></trkpt><trkpt lat="44.650734" lon="33.814789"><ele>126.1</ele><time>2011-10-10T13:30:33.0000000+00:00</time></trkpt><trkpt lat="44.651024" lon="33.814465"><ele>125.8</ele><time>2011-10-10T13:30:38.0000000+00:00</time></trkpt><trkpt lat="44.651287" lon="33.814152"><ele>123.4</ele><time>2011-10-10T13:30:43.0000000+00:00</time></trkpt><trkpt lat="44.651562" lon="33.813862"><ele>123.6</ele><time>2011-10-10T13:30:48.0000000+00:00</time></trkpt><trkpt lat="44.651844" lon="33.813599"><ele>123.4</ele><time>2011-10-10T13:30:53.0000000+00:00</time></trkpt><trkpt lat="44.65205" lon="33.813232"><ele>122.0</ele><time>2011-10-10T13:30:58.0000000+00:00</time></trkpt><trkpt lat="44.652271" lon="33.812798"><ele>120.7</ele><time>2011-10-10T13:31:03.0000000+00:00</time></trkpt><trkpt lat="44.652485" lon="33.812309"><ele>119.0</ele><time>2011-10-10T13:31:08.0000000+00:00</time></trkpt><trkpt lat="44.652695" lon="33.811798"><ele>117.7</ele><time>2011-10-10T13:31:13.0000000+00:00</time></trkpt><trkpt lat="44.652924" lon="33.811337"><ele>117.7</ele><time>2011-10-10T13:31:18.0000000+00:00</time></trkpt><trkpt lat="44.653126" lon="33.810936"><ele>118.2</ele><time>2011-10-10T13:31:23.0000000+00:00</time></trkpt><trkpt lat="44.653297" lon="33.8106"><ele>119.6</ele><time>2011-10-10T13:31:28.0000000+00:00</time></trkpt><trkpt lat="44.65345" lon="33.810291"><ele>122.6</ele><time>2011-10-10T13:31:33.0000000+00:00</time></trkpt><trkpt lat="44.653564" lon="33.809998"><ele>125.4</ele><time>2011-10-10T13:31:38.0000000+00:00</time></trkpt><trkpt lat="44.653698" lon="33.80965"><ele>124.3</ele><time>2011-10-10T13:31:43.0000000+00:00</time></trkpt><trkpt lat="44.65382" lon="33.809265"><ele>123.2</ele><time>2011-10-10T13:31:48.0000000+00:00</time></trkpt><trkpt lat="44.654011" lon="33.80888"><ele>122.4</ele><time>2011-10-10T13:31:53.0000000+00:00</time></trkpt><trkpt lat="44.654224" lon="33.808548"><ele>122.0</ele><time>2011-10-10T13:31:58.0000000+00:00</time></trkpt><trkpt lat="44.65443" lon="33.808151"><ele>121.4</ele><time>2011-10-10T13:32:03.0000000+00:00</time></trkpt><trkpt lat="44.654636" lon="33.807762"><ele>120.3</ele><time>2011-10-10T13:32:08.0000000+00:00</time></trkpt><trkpt lat="44.654888" lon="33.807411"><ele>118.4</ele><time>2011-10-10T13:32:13.0000000+00:00</time></trkpt><trkpt lat="44.655098" lon="33.807056"><ele>117.2</ele><time>2011-10-10T13:32:18.0000000+00:00</time></trkpt><trkpt lat="44.655273" lon="33.806675"><ele>116.9</ele><time>2011-10-10T13:32:23.0000000+00:00</time></trkpt><trkpt lat="44.655487" lon="33.80632"><ele>116.6</ele><time>2011-10-10T13:32:28.0000000+00:00</time></trkpt><trkpt lat="44.655716" lon="33.805996"><ele>115.6</ele><time>2011-10-10T13:32:33.0000000+00:00</time></trkpt><trkpt lat="44.65596" lon="33.805637"><ele>114.5</ele><time>2011-10-10T13:32:38.0000000+00:00</time></trkpt><trkpt lat="44.656193" lon="33.805248"><ele>113.6</ele><time>2011-10-10T13:32:43.0000000+00:00</time></trkpt><trkpt lat="44.656384" lon="33.804848"><ele>111.7</ele><time>2011-10-10T13:32:48.0000000+00:00</time></trkpt><trkpt lat="44.656521" lon="33.804447"><ele>110.5</ele><time>2011-10-10T13:32:53.0000000+00:00</time></trkpt><trkpt lat="44.656643" lon="33.804047"><ele>109.6</ele><time>2011-10-10T13:32:58.0000000+00:00</time></trkpt><trkpt lat="44.656788" lon="33.803753"><ele>109.9</ele><time>2011-10-10T13:33:03.0000000+00:00</time></trkpt><trkpt lat="44.656803" lon="33.803688"><ele>109.5</ele><time>2011-10-10T13:33:08.0000000+00:00</time></trkpt><trkpt lat="44.656803" lon="33.803688"><ele>109.3</ele><time>2011-10-10T13:33:13.0000000+00:00</time></trkpt><trkpt lat="44.656803" lon="33.803688"><ele>109.3</ele><time>2011-10-10T13:33:18.0000000+00:00</time></trkpt><trkpt lat="44.656799" lon="33.803688"><ele>109.3</ele><time>2011-10-10T13:33:23.0000000+00:00</time></trkpt><trkpt lat="44.656799" lon="33.803692"><ele>109.4</ele><time>2011-10-10T13:33:28.0000000+00:00</time></trkpt><trkpt lat="44.656803" lon="33.803684"><ele>109.4</ele><time>2011-10-10T13:33:33.0000000+00:00</time></trkpt><trkpt lat="44.656803" lon="33.803684"><ele>109.4</ele><time>2011-10-10T13:33:38.0000000+00:00</time></trkpt><trkpt lat="44.656799" lon="33.803684"><ele>109.4</ele><time>2011-10-10T13:33:43.0000000+00:00</time></trkpt><trkpt lat="44.656799" lon="33.803688"><ele>109.4</ele><time>2011-10-10T13:33:48.0000000+00:00</time></trkpt><trkpt lat="44.656799" lon="33.803688"><ele>109.4</ele><time>2011-10-10T13:33:53.0000000+00:00</time></trkpt><trkpt lat="44.656799" lon="33.803688"><ele>109.4</ele><time>2011-10-10T13:33:58.0000000+00:00</time></trkpt><trkpt lat="44.656799" lon="33.803688"><ele>109.4</ele><time>2011-10-10T13:34:03.0000000+00:00</time></trkpt><trkpt lat="44.656799" lon="33.803688"><ele>109.4</ele><time>2011-10-10T13:34:08.0000000+00:00</time></trkpt><trkpt lat="44.656799" lon="33.803688"><ele>109.4</ele><time>2011-10-10T13:34:13.0000000+00:00</time></trkpt><trkpt lat="44.656799" lon="33.803684"><ele>109.4</ele><time>2011-10-10T13:34:18.0000000+00:00</time></trkpt><trkpt lat="44.656799" lon="33.803684"><ele>109.5</ele><time>2011-10-10T13:34:23.0000000+00:00</time></trkpt><trkpt lat="44.656799" lon="33.803684"><ele>109.5</ele><time>2011-10-10T13:34:28.0000000+00:00</time></trkpt><trkpt lat="44.656799" lon="33.803684"><ele>109.5</ele><time>2011-10-10T13:34:33.0000000+00:00</time></trkpt><trkpt lat="44.656799" lon="33.803684"><ele>109.5</ele><time>2011-10-10T13:34:38.0000000+00:00</time></trkpt><trkpt lat="44.656799" lon="33.803684"><ele>109.4</ele><time>2011-10-10T13:34:43.0000000+00:00</time></trkpt><trkpt lat="44.656799" lon="33.803684"><ele>109.5</ele><time>2011-10-10T13:34:48.0000000+00:00</time></trkpt><trkpt lat="44.656799" lon="33.803684"><ele>109.5</ele><time>2011-10-10T13:34:53.0000000+00:00</time></trkpt><trkpt lat="44.656799" lon="33.803684"><ele>109.4</ele><time>2011-10-10T13:34:58.0000000+00:00</time></trkpt><trkpt lat="44.656799" lon="33.803684"><ele>109.4</ele><time>2011-10-10T13:35:03.0000000+00:00</time></trkpt><trkpt lat="44.656799" lon="33.803684"><ele>109.4</ele><time>2011-10-10T13:35:08.0000000+00:00</time></trkpt><trkpt lat="44.656799" lon="33.803684"><ele>109.4</ele><time>2011-10-10T13:35:13.0000000+00:00</time></trkpt><trkpt lat="44.656799" lon="33.803684"><ele>109.4</ele><time>2011-10-10T13:35:18.0000000+00:00</time></trkpt><trkpt lat="44.656807" lon="33.80365"><ele>109.7</ele><time>2011-10-10T13:35:23.0000000+00:00</time></trkpt><trkpt lat="44.656887" lon="33.803421"><ele>110.8</ele><time>2011-10-10T13:35:28.0000000+00:00</time></trkpt><trkpt lat="44.656986" lon="33.803143"><ele>109.9</ele><time>2011-10-10T13:35:33.0000000+00:00</time></trkpt><trkpt lat="44.657116" lon="33.802845"><ele>109.6</ele><time>2011-10-10T13:35:38.0000000+00:00</time></trkpt><trkpt lat="44.657326" lon="33.802601"><ele>109.6</ele><time>2011-10-10T13:35:43.0000000+00:00</time></trkpt><trkpt lat="44.657562" lon="33.802441"><ele>110.3</ele><time>2011-10-10T13:35:48.0000000+00:00</time></trkpt><trkpt lat="44.657784" lon="33.802307"><ele>111.2</ele><time>2011-10-10T13:35:53.0000000+00:00</time></trkpt><trkpt lat="44.658005" lon="33.802155"><ele>111.5</ele><time>2011-10-10T13:35:58.0000000+00:00</time></trkpt><trkpt lat="44.658222" lon="33.801975"><ele>111.6</ele><time>2011-10-10T13:36:03.0000000+00:00</time></trkpt><trkpt lat="44.658447" lon="33.801743"><ele>111.6</ele><time>2011-10-10T13:36:08.0000000+00:00</time></trkpt><trkpt lat="44.658653" lon="33.801495"><ele>112.2</ele><time>2011-10-10T13:36:13.0000000+00:00</time></trkpt><trkpt lat="44.658813" lon="33.801224"><ele>112.1</ele><time>2011-10-10T13:36:18.0000000+00:00</time></trkpt><trkpt lat="44.658958" lon="33.800922"><ele>112.1</ele><time>2011-10-10T13:36:23.0000000+00:00</time></trkpt><trkpt lat="44.659115" lon="33.800625"><ele>111.7</ele><time>2011-10-10T13:36:28.0000000+00:00</time></trkpt><trkpt lat="44.659283" lon="33.800339"><ele>111.4</ele><time>2011-10-10T13:36:33.0000000+00:00</time></trkpt><trkpt lat="44.659462" lon="33.800041"><ele>111.2</ele><time>2011-10-10T13:36:38.0000000+00:00</time></trkpt><trkpt lat="44.659634" lon="33.799759"><ele>110.8</ele><time>2011-10-10T13:36:43.0000000+00:00</time></trkpt><trkpt lat="44.659809" lon="33.799454"><ele>110.4</ele><time>2011-10-10T13:36:48.0000000+00:00</time></trkpt><trkpt lat="44.659966" lon="33.799141"><ele>110.4</ele><time>2011-10-10T13:36:53.0000000+00:00</time></trkpt><trkpt lat="44.660084" lon="33.798832"><ele>111.0</ele><time>2011-10-10T13:36:58.0000000+00:00</time></trkpt><trkpt lat="44.660206" lon="33.798523"><ele>111.5</ele><time>2011-10-10T13:37:03.0000000+00:00</time></trkpt><trkpt lat="44.660343" lon="33.798214"><ele>111.8</ele><time>2011-10-10T13:37:08.0000000+00:00</time></trkpt><trkpt lat="44.66048" lon="33.797894"><ele>111.6</ele><time>2011-10-10T13:37:13.0000000+00:00</time></trkpt><trkpt lat="44.660633" lon="33.797588"><ele>111.0</ele><time>2011-10-10T13:37:18.0000000+00:00</time></trkpt><trkpt lat="44.660763" lon="33.797291"><ele>111.1</ele><time>2011-10-10T13:37:23.0000000+00:00</time></trkpt><trkpt lat="44.660892" lon="33.797028"><ele>110.8</ele><time>2011-10-10T13:37:28.0000000+00:00</time></trkpt><trkpt lat="44.661022" lon="33.796764"><ele>111.0</ele><time>2011-10-10T13:37:33.0000000+00:00</time></trkpt><trkpt lat="44.66114" lon="33.796497"><ele>111.5</ele><time>2011-10-10T13:37:38.0000000+00:00</time></trkpt><trkpt lat="44.661198" lon="33.796169"><ele>111.3</ele><time>2011-10-10T13:37:43.0000000+00:00</time></trkpt><trkpt lat="44.661209" lon="33.795879"><ele>110.1</ele><time>2011-10-10T13:37:48.0000000+00:00</time></trkpt><trkpt lat="44.661198" lon="33.795547"><ele>109.5</ele><time>2011-10-10T13:37:53.0000000+00:00</time></trkpt><trkpt lat="44.661201" lon="33.795155"><ele>109.7</ele><time>2011-10-10T13:37:58.0000000+00:00</time></trkpt><trkpt lat="44.661228" lon="33.794716"><ele>110.4</ele><time>2011-10-10T13:38:03.0000000+00:00</time></trkpt><trkpt lat="44.66127" lon="33.794296"><ele>111.1</ele><time>2011-10-10T13:38:08.0000000+00:00</time></trkpt><trkpt lat="44.661339" lon="33.79385"><ele>110.3</ele><time>2011-10-10T13:38:13.0000000+00:00</time></trkpt><trkpt lat="44.661407" lon="33.793381"><ele>109.5</ele><time>2011-10-10T13:38:18.0000000+00:00</time></trkpt><trkpt lat="44.661488" lon="33.792881"><ele>108.0</ele><time>2011-10-10T13:38:23.0000000+00:00</time></trkpt><trkpt lat="44.661575" lon="33.792377"><ele>106.0</ele><time>2011-10-10T13:38:28.0000000+00:00</time></trkpt><trkpt lat="44.661671" lon="33.791878"><ele>105.0</ele><time>2011-10-10T13:38:33.0000000+00:00</time></trkpt><trkpt lat="44.661777" lon="33.791351"><ele>103.9</ele><time>2011-10-10T13:38:38.0000000+00:00</time></trkpt><trkpt lat="44.661873" lon="33.790848"><ele>102.4</ele><time>2011-10-10T13:38:43.0000000+00:00</time></trkpt><trkpt lat="44.661961" lon="33.790321"><ele>101.6</ele><time>2011-10-10T13:38:48.0000000+00:00</time></trkpt><trkpt lat="44.662025" lon="33.789783"><ele>100.7</ele><time>2011-10-10T13:38:53.0000000+00:00</time></trkpt><trkpt lat="44.662086" lon="33.789257"><ele>99.9</ele><time>2011-10-10T13:38:58.0000000+00:00</time></trkpt><trkpt lat="44.66217" lon="33.788784"><ele>99.1</ele><time>2011-10-10T13:39:03.0000000+00:00</time></trkpt><trkpt lat="44.662251" lon="33.788273"><ele>96.9</ele><time>2011-10-10T13:39:08.0000000+00:00</time></trkpt><trkpt lat="44.662308" lon="33.78772"><ele>96.4</ele><time>2011-10-10T13:39:13.0000000+00:00</time></trkpt><trkpt lat="44.662312" lon="33.787189"><ele>97.9</ele><time>2011-10-10T13:39:18.0000000+00:00</time></trkpt><trkpt lat="44.662292" lon="33.786705"><ele>98.8</ele><time>2011-10-10T13:39:23.0000000+00:00</time></trkpt><trkpt lat="44.662312" lon="33.786236"><ele>99.5</ele><time>2011-10-10T13:39:28.0000000+00:00</time></trkpt><trkpt lat="44.662357" lon="33.785763"><ele>99.2</ele><time>2011-10-10T13:39:33.0000000+00:00</time></trkpt><trkpt lat="44.662411" lon="33.785294"><ele>98.9</ele><time>2011-10-10T13:39:38.0000000+00:00</time></trkpt><trkpt lat="44.66246" lon="33.784809"><ele>98.9</ele><time>2011-10-10T13:39:43.0000000+00:00</time></trkpt><trkpt lat="44.662518" lon="33.78434"><ele>98.6</ele><time>2011-10-10T13:39:48.0000000+00:00</time></trkpt><trkpt lat="44.662579" lon="33.783894"><ele>98.6</ele><time>2011-10-10T13:39:53.0000000+00:00</time></trkpt><trkpt lat="44.662651" lon="33.783451"><ele>97.7</ele><time>2011-10-10T13:39:58.0000000+00:00</time></trkpt><trkpt lat="44.662697" lon="33.783012"><ele>97.5</ele><time>2011-10-10T13:40:03.0000000+00:00</time></trkpt><trkpt lat="44.662632" lon="33.782516"><ele>94.9</ele><time>2011-10-10T13:40:08.0000000+00:00</time></trkpt><trkpt lat="44.662415" lon="33.78178"><ele>86.5</ele><time>2011-10-10T13:40:13.0000000+00:00</time></trkpt><trkpt lat="44.662045" lon="33.781044"><ele>81.3</ele><time>2011-10-10T13:40:18.0000000+00:00</time></trkpt><trkpt lat="44.661503" lon="33.780628"><ele>81.3</ele><time>2011-10-10T13:40:23.0000000+00:00</time></trkpt><trkpt lat="44.660912" lon="33.780487"><ele>83.8</ele><time>2011-10-10T13:40:28.0000000+00:00</time></trkpt><trkpt lat="44.660374" lon="33.780338"><ele>85.1</ele><time>2011-10-10T13:40:33.0000000+00:00</time></trkpt><trkpt lat="44.659908" lon="33.780231"><ele>86.8</ele><time>2011-10-10T13:40:38.0000000+00:00</time></trkpt><trkpt lat="44.659569" lon="33.780167"><ele>87.5</ele><time>2011-10-10T13:40:43.0000000+00:00</time></trkpt><trkpt lat="44.659363" lon="33.780121"><ele>87.5</ele><time>2011-10-10T13:40:48.0000000+00:00</time></trkpt><trkpt lat="44.659184" lon="33.780079"><ele>88.1</ele><time>2011-10-10T13:40:53.0000000+00:00</time></trkpt><trkpt lat="44.659073" lon="33.780083"><ele>89.2</ele><time>2011-10-10T13:40:58.0000000+00:00</time></trkpt><trkpt lat="44.659031" lon="33.780136"><ele>89.4</ele><time>2011-10-10T13:41:03.0000000+00:00</time></trkpt><trkpt lat="44.659027" lon="33.780167"><ele>88.8</ele><time>2011-10-10T13:41:08.0000000+00:00</time></trkpt><trkpt lat="44.659027" lon="33.780178"><ele>89.3</ele><time>2011-10-10T13:41:13.0000000+00:00</time></trkpt><trkpt lat="44.659027" lon="33.780178"><ele>89.5</ele><time>2011-10-10T13:41:18.0000000+00:00</time></trkpt><trkpt lat="44.659031" lon="33.780182"><ele>89.6</ele><time>2011-10-10T13:41:23.0000000+00:00</time></trkpt><trkpt lat="44.659031" lon="33.780182"><ele>89.6</ele><time>2011-10-10T13:41:28.0000000+00:00</time></trkpt><trkpt lat="44.659027" lon="33.780182"><ele>89.6</ele><time>2011-10-10T13:41:33.0000000+00:00</time></trkpt><trkpt lat="44.659031" lon="33.780182"><ele>89.6</ele><time>2011-10-10T13:41:38.0000000+00:00</time></trkpt><trkpt lat="44.65905" lon="33.780178"><ele>89.4</ele><time>2011-10-10T13:41:43.0000000+00:00</time></trkpt><trkpt lat="44.659039" lon="33.780205"><ele>90.2</ele><time>2011-10-10T13:41:48.0000000+00:00</time></trkpt><trkpt lat="44.659023" lon="33.780254"><ele>90.3</ele><time>2011-10-10T13:41:53.0000000+00:00</time></trkpt><trkpt lat="44.658966" lon="33.780304"><ele>91.7</ele><time>2011-10-10T13:41:58.0000000+00:00</time></trkpt><trkpt lat="44.658909" lon="33.780323"><ele>94.1</ele><time>2011-10-10T13:42:03.0000000+00:00</time></trkpt><trkpt lat="44.658848" lon="33.780354"><ele>95.1</ele><time>2011-10-10T13:42:08.0000000+00:00</time></trkpt><trkpt lat="44.658794" lon="33.780365"><ele>96.0</ele><time>2011-10-10T13:42:13.0000000+00:00</time></trkpt><trkpt lat="44.658783" lon="33.780334"><ele>95.8</ele><time>2011-10-10T13:42:18.0000000+00:00</time></trkpt><trkpt lat="44.658779" lon="33.780338"><ele>95.9</ele><time>2011-10-10T13:42:23.0000000+00:00</time></trkpt><trkpt lat="44.658764" lon="33.780338"><ele>96.1</ele><time>2011-10-10T13:42:28.0000000+00:00</time></trkpt><trkpt lat="44.658752" lon="33.780323"><ele>96.8</ele><time>2011-10-10T13:42:33.0000000+00:00</time></trkpt><trkpt lat="44.658752" lon="33.780327"><ele>97.0</ele><time>2011-10-10T13:42:38.0000000+00:00</time></trkpt><trkpt lat="44.658749" lon="33.780334"><ele>96.8</ele><time>2011-10-10T13:42:43.0000000+00:00</time></trkpt><trkpt lat="44.658699" lon="33.780399"><ele>97.1</ele><time>2011-10-10T13:42:48.0000000+00:00</time></trkpt><trkpt lat="44.658661" lon="33.780457"><ele>98.0</ele><time>2011-10-10T13:42:53.0000000+00:00</time></trkpt><trkpt lat="44.658623" lon="33.780502"><ele>98.5</ele><time>2011-10-10T13:42:58.0000000+00:00</time></trkpt><trkpt lat="44.658577" lon="33.780537"><ele>99.5</ele><time>2011-10-10T13:43:03.0000000+00:00</time></trkpt><trkpt lat="44.658524" lon="33.780579"><ele>101.2</ele><time>2011-10-10T13:43:08.0000000+00:00</time></trkpt><trkpt lat="44.658489" lon="33.780636"><ele>102.2</ele><time>2011-10-10T13:43:13.0000000+00:00</time></trkpt><trkpt lat="44.658466" lon="33.780682"><ele>101.6</ele><time>2011-10-10T13:43:18.0000000+00:00</time></trkpt><trkpt lat="44.658451" lon="33.780743"><ele>101.1</ele><time>2011-10-10T13:43:23.0000000+00:00</time></trkpt><trkpt lat="44.658424" lon="33.780788"><ele>101.2</ele><time>2011-10-10T13:43:28.0000000+00:00</time></trkpt><trkpt lat="44.658401" lon="33.780884"><ele>102.1</ele><time>2011-10-10T13:43:33.0000000+00:00</time></trkpt><trkpt lat="44.658367" lon="33.780952"><ele>103.2</ele><time>2011-10-10T13:43:38.0000000+00:00</time></trkpt><trkpt lat="44.658321" lon="33.78101"><ele>104.2</ele><time>2011-10-10T13:43:43.0000000+00:00</time></trkpt><trkpt lat="44.658283" lon="33.781059"><ele>104.8</ele><time>2011-10-10T13:43:48.0000000+00:00</time></trkpt><trkpt lat="44.658253" lon="33.78109"><ele>106.2</ele><time>2011-10-10T13:43:53.0000000+00:00</time></trkpt><trkpt lat="44.658226" lon="33.781128"><ele>108.0</ele><time>2011-10-10T13:43:58.0000000+00:00</time></trkpt><trkpt lat="44.658199" lon="33.781178"><ele>109.1</ele><time>2011-10-10T13:44:03.0000000+00:00</time></trkpt><trkpt lat="44.65818" lon="33.781197"><ele>109.9</ele><time>2011-10-10T13:44:08.0000000+00:00</time></trkpt><trkpt lat="44.658184" lon="33.781197"><ele>109.9</ele><time>2011-10-10T13:44:13.0000000+00:00</time></trkpt><trkpt lat="44.658184" lon="33.781216"><ele>110.0</ele><time>2011-10-10T13:44:18.0000000+00:00</time></trkpt><trkpt lat="44.658192" lon="33.781231"><ele>111.8</ele><time>2011-10-10T13:44:23.0000000+00:00</time></trkpt><trkpt lat="44.658253" lon="33.781231"><ele>113.2</ele><time>2011-10-10T13:44:28.0000000+00:00</time></trkpt><trkpt lat="44.658276" lon="33.781219"><ele>113.2</ele><time>2011-10-10T13:44:33.0000000+00:00</time></trkpt><trkpt lat="44.658276" lon="33.781239"><ele>113.1</ele><time>2011-10-10T13:44:38.0000000+00:00</time></trkpt><trkpt lat="44.658276" lon="33.781223"><ele>113.5</ele><time>2011-10-10T13:44:43.0000000+00:00</time></trkpt><trkpt lat="44.658314" lon="33.781231"><ele>113.8</ele><time>2011-10-10T13:44:48.0000000+00:00</time></trkpt><trkpt lat="44.65831" lon="33.781254"><ele>114.3</ele><time>2011-10-10T13:44:53.0000000+00:00</time></trkpt><trkpt lat="44.658295" lon="33.781277"><ele>114.5</ele><time>2011-10-10T13:44:58.0000000+00:00</time></trkpt><trkpt lat="44.658298" lon="33.781296"><ele>114.5</ele><time>2011-10-10T13:45:03.0000000+00:00</time></trkpt><trkpt lat="44.658306" lon="33.781292"><ele>114.2</ele><time>2011-10-10T13:45:08.0000000+00:00</time></trkpt><trkpt lat="44.658302" lon="33.781288"><ele>114.2</ele><time>2011-10-10T13:45:13.0000000+00:00</time></trkpt><trkpt lat="44.658302" lon="33.781284"><ele>114.8</ele><time>2011-10-10T13:45:18.0000000+00:00</time></trkpt><trkpt lat="44.65831" lon="33.781269"><ele>114.8</ele><time>2011-10-10T13:45:23.0000000+00:00</time></trkpt><trkpt lat="44.658302" lon="33.781265"><ele>114.2</ele><time>2011-10-10T13:45:28.0000000+00:00</time></trkpt><trkpt lat="44.658298" lon="33.781281"><ele>114.2</ele><time>2011-10-10T13:45:33.0000000+00:00</time></trkpt><trkpt lat="44.65831" lon="33.781311"><ele>114.5</ele><time>2011-10-10T13:45:38.0000000+00:00</time></trkpt><trkpt lat="44.658314" lon="33.78133"><ele>114.6</ele><time>2011-10-10T13:45:43.0000000+00:00</time></trkpt><trkpt lat="44.658314" lon="33.781322"><ele>114.5</ele><time>2011-10-10T13:45:48.0000000+00:00</time></trkpt><trkpt lat="44.658314" lon="33.781322"><ele>114.4</ele><time>2011-10-10T13:45:53.0000000+00:00</time></trkpt><trkpt lat="44.658314" lon="33.781326"><ele>114.4</ele><time>2011-10-10T13:45:58.0000000+00:00</time></trkpt><trkpt lat="44.65831" lon="33.781319"><ele>114.3</ele><time>2011-10-10T13:46:03.0000000+00:00</time></trkpt><trkpt lat="44.658295" lon="33.781307"><ele>114.2</ele><time>2011-10-10T13:46:08.0000000+00:00</time></trkpt><trkpt lat="44.658268" lon="33.781296"><ele>113.8</ele><time>2011-10-10T13:46:13.0000000+00:00</time></trkpt><trkpt lat="44.658264" lon="33.781284"><ele>113.6</ele><time>2011-10-10T13:46:18.0000000+00:00</time></trkpt><trkpt lat="44.658257" lon="33.781281"><ele>113.2</ele><time>2011-10-10T13:46:23.0000000+00:00</time></trkpt><trkpt lat="44.658245" lon="33.781269"><ele>112.7</ele><time>2011-10-10T13:46:28.0000000+00:00</time></trkpt><trkpt lat="44.658222" lon="33.781239"><ele>111.7</ele><time>2011-10-10T13:46:33.0000000+00:00</time></trkpt><trkpt lat="44.658222" lon="33.781246"><ele>111.5</ele><time>2011-10-10T13:46:38.0000000+00:00</time></trkpt><trkpt lat="44.658226" lon="33.781242"><ele>111.6</ele><time>2011-10-10T13:46:43.0000000+00:00</time></trkpt><trkpt lat="44.658226" lon="33.781242"><ele>111.6</ele><time>2011-10-10T13:46:48.0000000+00:00</time></trkpt><trkpt lat="44.658226" lon="33.781239"><ele>111.4</ele><time>2011-10-10T13:46:53.0000000+00:00</time></trkpt><trkpt lat="44.658226" lon="33.781227"><ele>111.3</ele><time>2011-10-10T13:46:58.0000000+00:00</time></trkpt><trkpt lat="44.658222" lon="33.781227"><ele>111.2</ele><time>2011-10-10T13:47:03.0000000+00:00</time></trkpt><trkpt lat="44.658203" lon="33.781197"><ele>111.2</ele><time>2011-10-10T13:47:08.0000000+00:00</time></trkpt><trkpt lat="44.65818" lon="33.781162"><ele>111.4</ele><time>2011-10-10T13:47:13.0000000+00:00</time></trkpt><trkpt lat="44.658184" lon="33.781178"><ele>111.1</ele><time>2011-10-10T13:47:18.0000000+00:00</time></trkpt><trkpt lat="44.658184" lon="33.781174"><ele>111.0</ele><time>2011-10-10T13:47:23.0000000+00:00</time></trkpt><trkpt lat="44.658192" lon="33.781181"><ele>110.4</ele><time>2011-10-10T13:47:28.0000000+00:00</time></trkpt><trkpt lat="44.658192" lon="33.781189"><ele>109.8</ele><time>2011-10-10T13:47:33.0000000+00:00</time></trkpt><trkpt lat="44.658173" lon="33.7812"><ele>109.8</ele><time>2011-10-10T13:47:38.0000000+00:00</time></trkpt><trkpt lat="44.658173" lon="33.781208"><ele>109.8</ele><time>2011-10-10T13:47:43.0000000+00:00</time></trkpt><trkpt lat="44.658176" lon="33.7812"><ele>110.1</ele><time>2011-10-10T13:47:48.0000000+00:00</time></trkpt><trkpt lat="44.658207" lon="33.781166"><ele>109.8</ele><time>2011-10-10T13:47:53.0000000+00:00</time></trkpt><trkpt lat="44.658215" lon="33.781116"><ele>109.3</ele><time>2011-10-10T13:47:58.0000000+00:00</time></trkpt><trkpt lat="44.658222" lon="33.78109"><ele>108.9</ele><time>2011-10-10T13:48:03.0000000+00:00</time></trkpt><trkpt lat="44.658215" lon="33.78109"><ele>108.8</ele><time>2011-10-10T13:48:08.0000000+00:00</time></trkpt><trkpt lat="44.658215" lon="33.781075"><ele>108.8</ele><time>2011-10-10T13:48:13.0000000+00:00</time></trkpt><trkpt lat="44.65823" lon="33.78104"><ele>108.4</ele><time>2011-10-10T13:48:18.0000000+00:00</time></trkpt><trkpt lat="44.658234" lon="33.781036"><ele>108.5</ele><time>2011-10-10T13:48:23.0000000+00:00</time></trkpt><trkpt lat="44.658241" lon="33.78101"><ele>108.1</ele><time>2011-10-10T13:48:28.0000000+00:00</time></trkpt><trkpt lat="44.658268" lon="33.780979"><ele>107.4</ele><time>2011-10-10T13:48:33.0000000+00:00</time></trkpt><trkpt lat="44.658298" lon="33.780968"><ele>106.3</ele><time>2011-10-10T13:48:38.0000000+00:00</time></trkpt><trkpt lat="44.658325" lon="33.780945"><ele>105.8</ele><time>2011-10-10T13:48:43.0000000+00:00</time></trkpt><trkpt lat="44.658363" lon="33.780903"><ele>104.8</ele><time>2011-10-10T13:48:48.0000000+00:00</time></trkpt><trkpt lat="44.658398" lon="33.780853"><ele>104.3</ele><time>2011-10-10T13:48:53.0000000+00:00</time></trkpt><trkpt lat="44.658428" lon="33.7808"><ele>103.1</ele><time>2011-10-10T13:48:58.0000000+00:00</time></trkpt><trkpt lat="44.658466" lon="33.780727"><ele>101.2</ele><time>2011-10-10T13:49:03.0000000+00:00</time></trkpt><trkpt lat="44.65852" lon="33.780663"><ele>99.9</ele><time>2011-10-10T13:49:08.0000000+00:00</time></trkpt><trkpt lat="44.658569" lon="33.780605"><ele>98.8</ele><time>2011-10-10T13:49:13.0000000+00:00</time></trkpt><trkpt lat="44.65863" lon="33.780556"><ele>97.8</ele><time>2011-10-10T13:49:18.0000000+00:00</time></trkpt><trkpt lat="44.658676" lon="33.780514"><ele>97.2</ele><time>2011-10-10T13:49:23.0000000+00:00</time></trkpt><trkpt lat="44.658733" lon="33.780457"><ele>96.8</ele><time>2011-10-10T13:49:28.0000000+00:00</time></trkpt><trkpt lat="44.658791" lon="33.780403"><ele>95.9</ele><time>2011-10-10T13:49:33.0000000+00:00</time></trkpt><trkpt lat="44.658852" lon="33.780357"><ele>95.0</ele><time>2011-10-10T13:49:38.0000000+00:00</time></trkpt><trkpt lat="44.658909" lon="33.780319"><ele>93.9</ele><time>2011-10-10T13:49:43.0000000+00:00</time></trkpt><trkpt lat="44.658955" lon="33.7803"><ele>93.4</ele><time>2011-10-10T13:49:48.0000000+00:00</time></trkpt><trkpt lat="44.659008" lon="33.780281"><ele>92.4</ele><time>2011-10-10T13:49:53.0000000+00:00</time></trkpt><trkpt lat="44.65905" lon="33.780266"><ele>91.3</ele><time>2011-10-10T13:49:58.0000000+00:00</time></trkpt><trkpt lat="44.659077" lon="33.780239"><ele>90.0</ele><time>2011-10-10T13:50:03.0000000+00:00</time></trkpt><trkpt lat="44.659054" lon="33.78019"><ele>88.4</ele><time>2011-10-10T13:50:08.0000000+00:00</time></trkpt><trkpt lat="44.659042" lon="33.780174"><ele>88.6</ele><time>2011-10-10T13:50:13.0000000+00:00</time></trkpt><trkpt lat="44.659042" lon="33.78017"><ele>88.5</ele><time>2011-10-10T13:50:18.0000000+00:00</time></trkpt><trkpt lat="44.659039" lon="33.780174"><ele>88.5</ele><time>2011-10-10T13:50:23.0000000+00:00</time></trkpt><trkpt lat="44.65905" lon="33.780167"><ele>87.8</ele><time>2011-10-10T13:50:28.0000000+00:00</time></trkpt><trkpt lat="44.65905" lon="33.780167"><ele>88.0</ele><time>2011-10-10T13:50:33.0000000+00:00</time></trkpt><trkpt lat="44.659061" lon="33.78017"><ele>87.6</ele><time>2011-10-10T13:50:38.0000000+00:00</time></trkpt><trkpt lat="44.65905" lon="33.780159"><ele>85.6</ele><time>2011-10-10T13:50:43.0000000+00:00</time></trkpt><trkpt lat="44.659054" lon="33.780163"><ele>85.9</ele><time>2011-10-10T13:50:48.0000000+00:00</time></trkpt><trkpt lat="44.659054" lon="33.780163"><ele>86.0</ele><time>2011-10-10T13:50:53.0000000+00:00</time></trkpt><trkpt lat="44.659054" lon="33.780163"><ele>86.1</ele><time>2011-10-10T13:50:58.0000000+00:00</time></trkpt><trkpt lat="44.659054" lon="33.780163"><ele>86.1</ele><time>2011-10-10T13:51:03.0000000+00:00</time></trkpt><trkpt lat="44.659054" lon="33.780163"><ele>86.1</ele><time>2011-10-10T13:51:08.0000000+00:00</time></trkpt><trkpt lat="44.659054" lon="33.780163"><ele>86.0</ele><time>2011-10-10T13:51:13.0000000+00:00</time></trkpt><trkpt lat="44.659054" lon="33.780163"><ele>86.0</ele><time>2011-10-10T13:51:18.0000000+00:00</time></trkpt><trkpt lat="44.659054" lon="33.780163"><ele>86.0</ele><time>2011-10-10T13:51:23.0000000+00:00</time></trkpt><trkpt lat="44.659054" lon="33.780163"><ele>86.0</ele><time>2011-10-10T13:51:28.0000000+00:00</time></trkpt><trkpt lat="44.65905" lon="33.780159"><ele>85.9</ele><time>2011-10-10T13:51:33.0000000+00:00</time></trkpt><trkpt lat="44.659027" lon="33.780128"><ele>85.6</ele><time>2011-10-10T13:51:38.0000000+00:00</time></trkpt><trkpt lat="44.658955" lon="33.780106"><ele>84.5</ele><time>2011-10-10T13:51:43.0000000+00:00</time></trkpt><trkpt lat="44.658825" lon="33.78014"><ele>83.0</ele><time>2011-10-10T13:51:48.0000000+00:00</time></trkpt><trkpt lat="44.658672" lon="33.780209"><ele>82.6</ele><time>2011-10-10T13:51:53.0000000+00:00</time></trkpt><trkpt lat="44.65852" lon="33.780289"><ele>81.8</ele><time>2011-10-10T13:51:58.0000000+00:00</time></trkpt><trkpt lat="44.65834" lon="33.780384"><ele>81.1</ele><time>2011-10-10T13:52:03.0000000+00:00</time></trkpt><trkpt lat="44.65815" lon="33.780479"><ele>80.9</ele><time>2011-10-10T13:52:08.0000000+00:00</time></trkpt><trkpt lat="44.657944" lon="33.780575"><ele>80.6</ele><time>2011-10-10T13:52:13.0000000+00:00</time></trkpt><trkpt lat="44.657753" lon="33.780693"><ele>81.3</ele><time>2011-10-10T13:52:18.0000000+00:00</time></trkpt><trkpt lat="44.657589" lon="33.780807"><ele>82.0</ele><time>2011-10-10T13:52:23.0000000+00:00</time></trkpt><trkpt lat="44.65736" lon="33.780945"><ele>81.4</ele><time>2011-10-10T13:52:28.0000000+00:00</time></trkpt><trkpt lat="44.657104" lon="33.78109"><ele>80.9</ele><time>2011-10-10T13:52:33.0000000+00:00</time></trkpt><trkpt lat="44.656815" lon="33.78125"><ele>80.2</ele><time>2011-10-10T13:52:38.0000000+00:00</time></trkpt><trkpt lat="44.656555" lon="33.781395"><ele>79.6</ele><time>2011-10-10T13:52:43.0000000+00:00</time></trkpt><trkpt lat="44.656311" lon="33.781525"><ele>79.3</ele><time>2011-10-10T13:52:48.0000000+00:00</time></trkpt><trkpt lat="44.656101" lon="33.781635"><ele>80.1</ele><time>2011-10-10T13:52:53.0000000+00:00</time></trkpt><trkpt lat="44.65591" lon="33.781734"><ele>81.3</ele><time>2011-10-10T13:52:58.0000000+00:00</time></trkpt><trkpt lat="44.655643" lon="33.781849"><ele>80.8</ele><time>2011-10-10T13:53:03.0000000+00:00</time></trkpt><trkpt lat="44.655376" lon="33.78196"><ele>81.4</ele><time>2011-10-10T13:53:08.0000000+00:00</time></trkpt><trkpt lat="44.655117" lon="33.782059"><ele>81.5</ele><time>2011-10-10T13:53:13.0000000+00:00</time></trkpt><trkpt lat="44.654858" lon="33.782154"><ele>81.9</ele><time>2011-10-10T13:53:18.0000000+00:00</time></trkpt><trkpt lat="44.654636" lon="33.78223"><ele>81.9</ele><time>2011-10-10T13:53:23.0000000+00:00</time></trkpt><trkpt lat="44.654461" lon="33.782291"><ele>84.1</ele><time>2011-10-10T13:53:28.0000000+00:00</time></trkpt><trkpt lat="44.654274" lon="33.782379"><ele>85.8</ele><time>2011-10-10T13:53:33.0000000+00:00</time></trkpt><trkpt lat="44.654076" lon="33.782459"><ele>87.4</ele><time>2011-10-10T13:53:38.0000000+00:00</time></trkpt><trkpt lat="44.653896" lon="33.782524"><ele>87.3</ele><time>2011-10-10T13:53:43.0000000+00:00</time></trkpt><trkpt lat="44.653744" lon="33.782574"><ele>87.6</ele><time>2011-10-10T13:53:48.0000000+00:00</time></trkpt><trkpt lat="44.653606" lon="33.782631"><ele>88.0</ele><time>2011-10-10T13:53:53.0000000+00:00</time></trkpt><trkpt lat="44.653469" lon="33.782688"><ele>89.0</ele><time>2011-10-10T13:53:58.0000000+00:00</time></trkpt><trkpt lat="44.653244" lon="33.78278"><ele>89.5</ele><time>2011-10-10T13:54:03.0000000+00:00</time></trkpt><trkpt lat="44.65303" lon="33.782879"><ele>89.0</ele><time>2011-10-10T13:54:08.0000000+00:00</time></trkpt><trkpt lat="44.65284" lon="33.782951"><ele>89.1</ele><time>2011-10-10T13:54:13.0000000+00:00</time></trkpt><trkpt lat="44.65263" lon="33.783031"><ele>89.7</ele><time>2011-10-10T13:54:18.0000000+00:00</time></trkpt><trkpt lat="44.652424" lon="33.7831"><ele>90.1</ele><time>2011-10-10T13:54:23.0000000+00:00</time></trkpt><trkpt lat="44.652252" lon="33.783142"><ele>90.6</ele><time>2011-10-10T13:54:28.0000000+00:00</time></trkpt><trkpt lat="44.652122" lon="33.783184"><ele>91.1</ele><time>2011-10-10T13:54:33.0000000+00:00</time></trkpt><trkpt lat="44.651958" lon="33.783249"><ele>91.2</ele><time>2011-10-10T13:54:38.0000000+00:00</time></trkpt><trkpt lat="44.651878" lon="33.783302"><ele>91.8</ele><time>2011-10-10T13:54:43.0000000+00:00</time></trkpt><trkpt lat="44.651821" lon="33.783329"><ele>92.1</ele><time>2011-10-10T13:54:48.0000000+00:00</time></trkpt><trkpt lat="44.651752" lon="33.78336"><ele>92.3</ele><time>2011-10-10T13:54:53.0000000+00:00</time></trkpt><trkpt lat="44.651661" lon="33.783394"><ele>92.1</ele><time>2011-10-10T13:54:58.0000000+00:00</time></trkpt><trkpt lat="44.65163" lon="33.78339"><ele>91.9</ele><time>2011-10-10T13:55:03.0000000+00:00</time></trkpt><trkpt lat="44.65163" lon="33.78339"><ele>91.9</ele><time>2011-10-10T13:55:08.0000000+00:00</time></trkpt><trkpt lat="44.65163" lon="33.783398"><ele>91.4</ele><time>2011-10-10T13:55:13.0000000+00:00</time></trkpt><trkpt lat="44.651611" lon="33.783413"><ele>91.4</ele><time>2011-10-10T13:55:18.0000000+00:00</time></trkpt><trkpt lat="44.651505" lon="33.783466"><ele>92.2</ele><time>2011-10-10T13:55:23.0000000+00:00</time></trkpt><trkpt lat="44.651379" lon="33.783535"><ele>92.3</ele><time>2011-10-10T13:55:28.0000000+00:00</time></trkpt><trkpt lat="44.651272" lon="33.783577"><ele>92.8</ele><time>2011-10-10T13:55:33.0000000+00:00</time></trkpt><trkpt lat="44.651207" lon="33.783607"><ele>93.5</ele><time>2011-10-10T13:55:38.0000000+00:00</time></trkpt><trkpt lat="44.651093" lon="33.783661"><ele>93.6</ele><time>2011-10-10T13:55:43.0000000+00:00</time></trkpt><trkpt lat="44.650936" lon="33.783726"><ele>94.5</ele><time>2011-10-10T13:55:48.0000000+00:00</time></trkpt><trkpt lat="44.650826" lon="33.783802"><ele>97.3</ele><time>2011-10-10T13:55:53.0000000+00:00</time></trkpt><trkpt lat="44.6507" lon="33.783852"><ele>97.7</ele><time>2011-10-10T13:55:58.0000000+00:00</time></trkpt><trkpt lat="44.65057" lon="33.783901"><ele>97.7</ele><time>2011-10-10T13:56:03.0000000+00:00</time></trkpt><trkpt lat="44.650421" lon="33.78397"><ele>97.7</ele><time>2011-10-10T13:56:08.0000000+00:00</time></trkpt><trkpt lat="44.650276" lon="33.784023"><ele>97.7</ele><time>2011-10-10T13:56:13.0000000+00:00</time></trkpt><trkpt lat="44.650093" lon="33.7841"><ele>98.4</ele><time>2011-10-10T13:56:18.0000000+00:00</time></trkpt><trkpt lat="44.649944" lon="33.784161"><ele>99.6</ele><time>2011-10-10T13:56:23.0000000+00:00</time></trkpt><trkpt lat="44.649864" lon="33.78421"><ele>103.0</ele><time>2011-10-10T13:56:28.0000000+00:00</time></trkpt><trkpt lat="44.649742" lon="33.784233"><ele>103.0</ele><time>2011-10-10T13:56:33.0000000+00:00</time></trkpt><trkpt lat="44.649708" lon="33.784248"><ele>102.9</ele><time>2011-10-10T13:56:38.0000000+00:00</time></trkpt><trkpt lat="44.649712" lon="33.784252"><ele>103.0</ele><time>2011-10-10T13:56:43.0000000+00:00</time></trkpt><trkpt lat="44.649715" lon="33.784252"><ele>103.1</ele><time>2011-10-10T13:56:48.0000000+00:00</time></trkpt><trkpt lat="44.649715" lon="33.784252"><ele>103.1</ele><time>2011-10-10T13:56:53.0000000+00:00</time></trkpt><trkpt lat="44.649734" lon="33.784245"><ele>103.0</ele><time>2011-10-10T13:56:58.0000000+00:00</time></trkpt><trkpt lat="44.649776" lon="33.784218"><ele>104.1</ele><time>2011-10-10T13:57:03.0000000+00:00</time></trkpt><trkpt lat="44.649826" lon="33.78421"><ele>104.8</ele><time>2011-10-10T13:57:08.0000000+00:00</time></trkpt><trkpt lat="44.649834" lon="33.784218"><ele>105.4</ele><time>2011-10-10T13:57:13.0000000+00:00</time></trkpt><trkpt lat="44.649841" lon="33.784214"><ele>104.7</ele><time>2011-10-10T13:57:18.0000000+00:00</time></trkpt><trkpt lat="44.649841" lon="33.78421"><ele>104.7</ele><time>2011-10-10T13:57:23.0000000+00:00</time></trkpt><trkpt lat="44.649841" lon="33.78421"><ele>104.6</ele><time>2011-10-10T13:57:28.0000000+00:00</time></trkpt><trkpt lat="44.649841" lon="33.78421"><ele>104.6</ele><time>2011-10-10T13:57:33.0000000+00:00</time></trkpt><trkpt lat="44.649841" lon="33.78421"><ele>104.6</ele><time>2011-10-10T13:57:38.0000000+00:00</time></trkpt><trkpt lat="44.649841" lon="33.78421"><ele>104.7</ele><time>2011-10-10T13:57:43.0000000+00:00</time></trkpt><trkpt lat="44.649841" lon="33.78421"><ele>104.7</ele><time>2011-10-10T13:57:48.0000000+00:00</time></trkpt><trkpt lat="44.649837" lon="33.78421"><ele>104.7</ele><time>2011-10-10T13:57:53.0000000+00:00</time></trkpt><trkpt lat="44.649834" lon="33.78421"><ele>104.7</ele><time>2011-10-10T13:57:58.0000000+00:00</time></trkpt><trkpt lat="44.649826" lon="33.78421"><ele>104.5</ele><time>2011-10-10T13:58:03.0000000+00:00</time></trkpt><trkpt lat="44.649826" lon="33.78421"><ele>104.3</ele><time>2011-10-10T13:58:08.0000000+00:00</time></trkpt><trkpt lat="44.649822" lon="33.78421"><ele>104.1</ele><time>2011-10-10T13:58:13.0000000+00:00</time></trkpt><trkpt lat="44.649826" lon="33.784206"><ele>104.0</ele><time>2011-10-10T13:58:18.0000000+00:00</time></trkpt><trkpt lat="44.649826" lon="33.784206"><ele>104.0</ele><time>2011-10-10T13:58:23.0000000+00:00</time></trkpt><trkpt lat="44.649826" lon="33.784206"><ele>104.0</ele><time>2011-10-10T13:58:28.0000000+00:00</time></trkpt><trkpt lat="44.649826" lon="33.784206"><ele>104.0</ele><time>2011-10-10T13:58:33.0000000+00:00</time></trkpt><trkpt lat="44.649822" lon="33.784206"><ele>104.0</ele><time>2011-10-10T13:58:38.0000000+00:00</time></trkpt><trkpt lat="44.649822" lon="33.784206"><ele>104.1</ele><time>2011-10-10T13:58:43.0000000+00:00</time></trkpt><trkpt lat="44.649822" lon="33.78421"><ele>104.1</ele><time>2011-10-10T13:58:48.0000000+00:00</time></trkpt><trkpt lat="44.649822" lon="33.78421"><ele>104.1</ele><time>2011-10-10T13:58:53.0000000+00:00</time></trkpt><trkpt lat="44.649822" lon="33.78421"><ele>104.1</ele><time>2011-10-10T13:58:58.0000000+00:00</time></trkpt><trkpt lat="44.649818" lon="33.784237"><ele>104.2</ele><time>2011-10-10T13:59:03.0000000+00:00</time></trkpt><trkpt lat="44.64975" lon="33.784313"><ele>104.9</ele><time>2011-10-10T13:59:08.0000000+00:00</time></trkpt><trkpt lat="44.649677" lon="33.784321"><ele>105.1</ele><time>2011-10-10T13:59:13.0000000+00:00</time></trkpt><trkpt lat="44.64967" lon="33.784325"><ele>105.3</ele><time>2011-10-10T13:59:18.0000000+00:00</time></trkpt><trkpt lat="44.64967" lon="33.784325"><ele>105.4</ele><time>2011-10-10T13:59:23.0000000+00:00</time></trkpt><trkpt lat="44.64967" lon="33.784325"><ele>105.4</ele><time>2011-10-10T13:59:28.0000000+00:00</time></trkpt><trkpt lat="44.64967" lon="33.784325"><ele>105.5</ele><time>2011-10-10T13:59:33.0000000+00:00</time></trkpt><trkpt lat="44.64967" lon="33.784325"><ele>105.5</ele><time>2011-10-10T13:59:38.0000000+00:00</time></trkpt><trkpt lat="44.649677" lon="33.784328"><ele>106.3</ele><time>2011-10-10T13:59:43.0000000+00:00</time></trkpt><trkpt lat="44.649677" lon="33.784325"><ele>106.3</ele><time>2011-10-10T13:59:48.0000000+00:00</time></trkpt><trkpt lat="44.649677" lon="33.784328"><ele>106.3</ele><time>2011-10-10T13:59:53.0000000+00:00</time></trkpt><trkpt lat="44.649654" lon="33.784321"><ele>106.9</ele><time>2011-10-10T13:59:58.0000000+00:00</time></trkpt><trkpt lat="44.649635" lon="33.78434"><ele>106.7</ele><time>2011-10-10T14:00:03.0000000+00:00</time></trkpt><trkpt lat="44.649635" lon="33.78434"><ele>106.7</ele><time>2011-10-10T14:00:08.0000000+00:00</time></trkpt><trkpt lat="44.649635" lon="33.784336"><ele>106.7</ele><time>2011-10-10T14:00:13.0000000+00:00</time></trkpt><trkpt lat="44.649635" lon="33.784336"><ele>106.7</ele><time>2011-10-10T14:00:18.0000000+00:00</time></trkpt><trkpt lat="44.649635" lon="33.784336"><ele>106.7</ele><time>2011-10-10T14:00:23.0000000+00:00</time></trkpt><trkpt lat="44.649635" lon="33.78434"><ele>106.7</ele><time>2011-10-10T14:00:28.0000000+00:00</time></trkpt><trkpt lat="44.649628" lon="33.784317"><ele>106.6</ele><time>2011-10-10T14:00:33.0000000+00:00</time></trkpt><trkpt lat="44.649624" lon="33.784302"><ele>106.7</ele><time>2011-10-10T14:00:38.0000000+00:00</time></trkpt><trkpt lat="44.649597" lon="33.784271"><ele>107.0</ele><time>2011-10-10T14:00:43.0000000+00:00</time></trkpt><trkpt lat="44.649479" lon="33.78429"><ele>107.7</ele><time>2011-10-10T14:00:48.0000000+00:00</time></trkpt><trkpt lat="44.649342" lon="33.784344"><ele>109.3</ele><time>2011-10-10T14:00:53.0000000+00:00</time></trkpt><trkpt lat="44.649189" lon="33.784386"><ele>109.0</ele><time>2011-10-10T14:00:58.0000000+00:00</time></trkpt><trkpt lat="44.649033" lon="33.784424"><ele>106.9</ele><time>2011-10-10T14:01:03.0000000+00:00</time></trkpt><trkpt lat="44.648918" lon="33.784439"><ele>105.2</ele><time>2011-10-10T14:01:08.0000000+00:00</time></trkpt><trkpt lat="44.648754" lon="33.784485"><ele>103.8</ele><time>2011-10-10T14:01:13.0000000+00:00</time></trkpt><trkpt lat="44.648529" lon="33.784573"><ele>103.0</ele><time>2011-10-10T14:01:18.0000000+00:00</time></trkpt><trkpt lat="44.648296" lon="33.784653"><ele>102.8</ele><time>2011-10-10T14:01:23.0000000+00:00</time></trkpt><trkpt lat="44.648067" lon="33.784729"><ele>102.8</ele><time>2011-10-10T14:01:28.0000000+00:00</time></trkpt><trkpt lat="44.647861" lon="33.784813"><ele>104.0</ele><time>2011-10-10T14:01:33.0000000+00:00</time></trkpt><trkpt lat="44.647659" lon="33.78487"><ele>104.4</ele><time>2011-10-10T14:01:38.0000000+00:00</time></trkpt><trkpt lat="44.647449" lon="33.784939"><ele>104.3</ele><time>2011-10-10T14:01:43.0000000+00:00</time></trkpt><trkpt lat="44.647251" lon="33.785011"><ele>103.9</ele><time>2011-10-10T14:01:48.0000000+00:00</time></trkpt><trkpt lat="44.647011" lon="33.785072"><ele>103.5</ele><time>2011-10-10T14:01:53.0000000+00:00</time></trkpt><trkpt lat="44.646748" lon="33.785126"><ele>103.1</ele><time>2011-10-10T14:01:58.0000000+00:00</time></trkpt><trkpt lat="44.646484" lon="33.785133"><ele>103.0</ele><time>2011-10-10T14:02:03.0000000+00:00</time></trkpt><trkpt lat="44.646217" lon="33.785141"><ele>103.0</ele><time>2011-10-10T14:02:08.0000000+00:00</time></trkpt><trkpt lat="44.645954" lon="33.785141"><ele>103.2</ele><time>2011-10-10T14:02:13.0000000+00:00</time></trkpt><trkpt lat="44.645706" lon="33.785145"><ele>103.2</ele><time>2011-10-10T14:02:18.0000000+00:00</time></trkpt><trkpt lat="44.645432" lon="33.785164"><ele>103.5</ele><time>2011-10-10T14:02:23.0000000+00:00</time></trkpt><trkpt lat="44.64518" lon="33.785172"><ele>104.5</ele><time>2011-10-10T14:02:28.0000000+00:00</time></trkpt><trkpt lat="44.644951" lon="33.785198"><ele>105.1</ele><time>2011-10-10T14:02:33.0000000+00:00</time></trkpt><trkpt lat="44.644745" lon="33.785233"><ele>105.3</ele><time>2011-10-10T14:02:38.0000000+00:00</time></trkpt><trkpt lat="44.644573" lon="33.785275"><ele>105.9</ele><time>2011-10-10T14:02:43.0000000+00:00</time></trkpt><trkpt lat="44.644413" lon="33.78532"><ele>106.4</ele><time>2011-10-10T14:02:48.0000000+00:00</time></trkpt><trkpt lat="44.644329" lon="33.785343"><ele>106.2</ele><time>2011-10-10T14:02:53.0000000+00:00</time></trkpt><trkpt lat="44.644245" lon="33.78532"><ele>106.5</ele><time>2011-10-10T14:02:58.0000000+00:00</time></trkpt><trkpt lat="44.644154" lon="33.785271"><ele>106.5</ele><time>2011-10-10T14:03:03.0000000+00:00</time></trkpt><trkpt lat="44.644051" lon="33.785252"><ele>106.8</ele><time>2011-10-10T14:03:08.0000000+00:00</time></trkpt><trkpt lat="44.643883" lon="33.785202"><ele>106.8</ele><time>2011-10-10T14:03:13.0000000+00:00</time></trkpt><trkpt lat="44.643665" lon="33.785038"><ele>106.0</ele><time>2011-10-10T14:03:18.0000000+00:00</time></trkpt><trkpt lat="44.643459" lon="33.784763"><ele>105.4</ele><time>2011-10-10T14:03:23.0000000+00:00</time></trkpt><trkpt lat="44.643242" lon="33.784492"><ele>104.5</ele><time>2011-10-10T14:03:28.0000000+00:00</time></trkpt><trkpt lat="44.643059" lon="33.784256"><ele>104.7</ele><time>2011-10-10T14:03:33.0000000+00:00</time></trkpt><trkpt lat="44.642906" lon="33.78405"><ele>105.2</ele><time>2011-10-10T14:03:38.0000000+00:00</time></trkpt><trkpt lat="44.642784" lon="33.783836"><ele>106.0</ele><time>2011-10-10T14:03:43.0000000+00:00</time></trkpt><trkpt lat="44.642761" lon="33.783726"><ele>106.5</ele><time>2011-10-10T14:03:48.0000000+00:00</time></trkpt><trkpt lat="44.642761" lon="33.783722"><ele>106.7</ele><time>2011-10-10T14:03:53.0000000+00:00</time></trkpt><trkpt lat="44.642761" lon="33.783722"><ele>106.6</ele><time>2011-10-10T14:03:58.0000000+00:00</time></trkpt><trkpt lat="44.642761" lon="33.783722"><ele>106.6</ele><time>2011-10-10T14:04:03.0000000+00:00</time></trkpt><trkpt lat="44.642761" lon="33.783722"><ele>106.6</ele><time>2011-10-10T14:04:08.0000000+00:00</time></trkpt><trkpt lat="44.642757" lon="33.783726"><ele>106.5</ele><time>2011-10-10T14:04:13.0000000+00:00</time></trkpt><trkpt lat="44.642757" lon="33.783733"><ele>106.6</ele><time>2011-10-10T14:04:18.0000000+00:00</time></trkpt><trkpt lat="44.642757" lon="33.783737"><ele>106.7</ele><time>2011-10-10T14:04:23.0000000+00:00</time></trkpt><trkpt lat="44.642757" lon="33.783596"><ele>107.8</ele><time>2011-10-10T14:04:28.0000000+00:00</time></trkpt><trkpt lat="44.642776" lon="33.783314"><ele>108.4</ele><time>2011-10-10T14:04:33.0000000+00:00</time></trkpt><trkpt lat="44.642799" lon="33.78299"><ele>109.4</ele><time>2011-10-10T14:04:38.0000000+00:00</time></trkpt><trkpt lat="44.642841" lon="33.782619"><ele>109.2</ele><time>2011-10-10T14:04:43.0000000+00:00</time></trkpt><trkpt lat="44.642876" lon="33.782215"><ele>109.0</ele><time>2011-10-10T14:04:48.0000000+00:00</time></trkpt><trkpt lat="44.642887" lon="33.781784"><ele>108.1</ele><time>2011-10-10T14:04:53.0000000+00:00</time></trkpt><trkpt lat="44.642944" lon="33.781376"><ele>106.9</ele><time>2011-10-10T14:04:58.0000000+00:00</time></trkpt><trkpt lat="44.643047" lon="33.781128"><ele>107.0</ele><time>2011-10-10T14:05:03.0000000+00:00</time></trkpt><trkpt lat="44.643093" lon="33.780903"><ele>107.7</ele><time>2011-10-10T14:05:08.0000000+00:00</time></trkpt><trkpt lat="44.643063" lon="33.780746"><ele>109.0</ele><time>2011-10-10T14:05:13.0000000+00:00</time></trkpt><trkpt lat="44.642963" lon="33.780632"><ele>109.9</ele><time>2011-10-10T14:05:18.0000000+00:00</time></trkpt><trkpt lat="44.642826" lon="33.780594"><ele>110.7</ele><time>2011-10-10T14:05:23.0000000+00:00</time></trkpt><trkpt lat="44.642685" lon="33.780567"><ele>111.9</ele><time>2011-10-10T14:05:28.0000000+00:00</time></trkpt><trkpt lat="44.642548" lon="33.780525"><ele>112.8</ele><time>2011-10-10T14:05:33.0000000+00:00</time></trkpt><trkpt lat="44.642426" lon="33.780499"><ele>113.4</ele><time>2011-10-10T14:05:38.0000000+00:00</time></trkpt><trkpt lat="44.642273" lon="33.780468"><ele>114.2</ele><time>2011-10-10T14:05:43.0000000+00:00</time></trkpt><trkpt lat="44.642109" lon="33.780453"><ele>114.8</ele><time>2011-10-10T14:05:48.0000000+00:00</time></trkpt><trkpt lat="44.641949" lon="33.780415"><ele>115.2</ele><time>2011-10-10T14:05:53.0000000+00:00</time></trkpt><trkpt lat="44.641785" lon="33.78038"><ele>115.6</ele><time>2011-10-10T14:05:58.0000000+00:00</time></trkpt><trkpt lat="44.641624" lon="33.780354"><ele>116.1</ele><time>2011-10-10T14:06:03.0000000+00:00</time></trkpt><trkpt lat="44.641453" lon="33.780334"><ele>116.1</ele><time>2011-10-10T14:06:08.0000000+00:00</time></trkpt><trkpt lat="44.64127" lon="33.780342"><ele>116.5</ele><time>2011-10-10T14:06:13.0000000+00:00</time></trkpt><trkpt lat="44.641087" lon="33.780357"><ele>116.4</ele><time>2011-10-10T14:06:18.0000000+00:00</time></trkpt><trkpt lat="44.6409" lon="33.780373"><ele>116.6</ele><time>2011-10-10T14:06:23.0000000+00:00</time></trkpt><trkpt lat="44.640713" lon="33.780357"><ele>116.8</ele><time>2011-10-10T14:06:28.0000000+00:00</time></trkpt><trkpt lat="44.640541" lon="33.780277"><ele>117.2</ele><time>2011-10-10T14:06:33.0000000+00:00</time></trkpt><trkpt lat="44.640381" lon="33.780148"><ele>118.0</ele><time>2011-10-10T14:06:38.0000000+00:00</time></trkpt><trkpt lat="44.640213" lon="33.779999"><ele>118.6</ele><time>2011-10-10T14:06:43.0000000+00:00</time></trkpt><trkpt lat="44.640049" lon="33.779858"><ele>118.7</ele><time>2011-10-10T14:06:48.0000000+00:00</time></trkpt><trkpt lat="44.63987" lon="33.779732"><ele>119.2</ele><time>2011-10-10T14:06:53.0000000+00:00</time></trkpt><trkpt lat="44.639683" lon="33.779636"><ele>119.8</ele><time>2011-10-10T14:06:58.0000000+00:00</time></trkpt><trkpt lat="44.639538" lon="33.779564"><ele>120.7</ele><time>2011-10-10T14:07:03.0000000+00:00</time></trkpt><trkpt lat="44.639408" lon="33.779503"><ele>121.6</ele><time>2011-10-10T14:07:08.0000000+00:00</time></trkpt><trkpt lat="44.639271" lon="33.77943"><ele>122.0</ele><time>2011-10-10T14:07:13.0000000+00:00</time></trkpt><trkpt lat="44.639111" lon="33.77932"><ele>122.9</ele><time>2011-10-10T14:07:18.0000000+00:00</time></trkpt><trkpt lat="44.638943" lon="33.779179"><ele>123.5</ele><time>2011-10-10T14:07:23.0000000+00:00</time></trkpt><trkpt lat="44.63876" lon="33.779026"><ele>124.3</ele><time>2011-10-10T14:07:28.0000000+00:00</time></trkpt><trkpt lat="44.638584" lon="33.778862"><ele>124.6</ele><time>2011-10-10T14:07:33.0000000+00:00</time></trkpt><trkpt lat="44.638416" lon="33.778671"><ele>125.1</ele><time>2011-10-10T14:07:38.0000000+00:00</time></trkpt><trkpt lat="44.638256" lon="33.778503"><ele>125.0</ele><time>2011-10-10T14:07:43.0000000+00:00</time></trkpt><trkpt lat="44.638084" lon="33.77832"><ele>124.9</ele><time>2011-10-10T14:07:48.0000000+00:00</time></trkpt><trkpt lat="44.637917" lon="33.778141"><ele>125.2</ele><time>2011-10-10T14:07:53.0000000+00:00</time></trkpt><trkpt lat="44.63776" lon="33.777969"><ele>125.2</ele><time>2011-10-10T14:07:58.0000000+00:00</time></trkpt><trkpt lat="44.637585" lon="33.777775"><ele>125.3</ele><time>2011-10-10T14:08:03.0000000+00:00</time></trkpt><trkpt lat="44.637402" lon="33.777569"><ele>125.8</ele><time>2011-10-10T14:08:08.0000000+00:00</time></trkpt><trkpt lat="44.637218" lon="33.77737"><ele>125.9</ele><time>2011-10-10T14:08:13.0000000+00:00</time></trkpt><trkpt lat="44.63702" lon="33.777149"><ele>125.9</ele><time>2011-10-10T14:08:18.0000000+00:00</time></trkpt><trkpt lat="44.636795" lon="33.77692"><ele>125.9</ele><time>2011-10-10T14:08:23.0000000+00:00</time></trkpt><trkpt lat="44.636589" lon="33.776714"><ele>126.0</ele><time>2011-10-10T14:08:28.0000000+00:00</time></trkpt><trkpt lat="44.636379" lon="33.776482"><ele>125.8</ele><time>2011-10-10T14:08:33.0000000+00:00</time></trkpt><trkpt lat="44.636196" lon="33.776211"><ele>126.5</ele><time>2011-10-10T14:08:38.0000000+00:00</time></trkpt><trkpt lat="44.636028" lon="33.775932"><ele>127.1</ele><time>2011-10-10T14:08:43.0000000+00:00</time></trkpt><trkpt lat="44.635857" lon="33.775627"><ele>127.6</ele><time>2011-10-10T14:08:48.0000000+00:00</time></trkpt><trkpt lat="44.635708" lon="33.775337"><ele>128.2</ele><time>2011-10-10T14:08:53.0000000+00:00</time></trkpt><trkpt lat="44.635582" lon="33.775093"><ele>128.5</ele><time>2011-10-10T14:08:58.0000000+00:00</time></trkpt><trkpt lat="44.635471" lon="33.774826"><ele>129.1</ele><time>2011-10-10T14:09:03.0000000+00:00</time></trkpt><trkpt lat="44.635387" lon="33.774578"><ele>130.1</ele><time>2011-10-10T14:09:08.0000000+00:00</time></trkpt><trkpt lat="44.63533" lon="33.774277"><ele>130.4</ele><time>2011-10-10T14:09:13.0000000+00:00</time></trkpt><trkpt lat="44.635292" lon="33.773987"><ele>130.6</ele><time>2011-10-10T14:09:18.0000000+00:00</time></trkpt><trkpt lat="44.635262" lon="33.773693"><ele>131.8</ele><time>2011-10-10T14:09:23.0000000+00:00</time></trkpt><trkpt lat="44.635242" lon="33.77351"><ele>133.0</ele><time>2011-10-10T14:09:28.0000000+00:00</time></trkpt><trkpt lat="44.635227" lon="33.773323"><ele>134.2</ele><time>2011-10-10T14:09:33.0000000+00:00</time></trkpt><trkpt lat="44.635223" lon="33.773129"><ele>134.6</ele><time>2011-10-10T14:09:38.0000000+00:00</time></trkpt><trkpt lat="44.635208" lon="33.772926"><ele>135.0</ele><time>2011-10-10T14:09:43.0000000+00:00</time></trkpt><trkpt lat="44.635197" lon="33.772743"><ele>135.3</ele><time>2011-10-10T14:09:48.0000000+00:00</time></trkpt><trkpt lat="44.635197" lon="33.772537"><ele>135.5</ele><time>2011-10-10T14:09:53.0000000+00:00</time></trkpt><trkpt lat="44.635201" lon="33.772373"><ele>135.7</ele><time>2011-10-10T14:09:58.0000000+00:00</time></trkpt><trkpt lat="44.635189" lon="33.772232"><ele>136.2</ele><time>2011-10-10T14:10:03.0000000+00:00</time></trkpt><trkpt lat="44.635201" lon="33.772156"><ele>136.2</ele><time>2011-10-10T14:10:08.0000000+00:00</time></trkpt><trkpt lat="44.635201" lon="33.772152"><ele>136.2</ele><time>2011-10-10T14:10:13.0000000+00:00</time></trkpt><trkpt lat="44.635201" lon="33.772152"><ele>136.3</ele><time>2011-10-10T14:10:18.0000000+00:00</time></trkpt><trkpt lat="44.635201" lon="33.772156"><ele>136.3</ele><time>2011-10-10T14:10:23.0000000+00:00</time></trkpt><trkpt lat="44.635201" lon="33.772156"><ele>136.3</ele><time>2011-10-10T14:10:28.0000000+00:00</time></trkpt><trkpt lat="44.635201" lon="33.772156"><ele>136.3</ele><time>2011-10-10T14:10:33.0000000+00:00</time></trkpt><trkpt lat="44.635201" lon="33.772156"><ele>136.4</ele><time>2011-10-10T14:10:38.0000000+00:00</time></trkpt><trkpt lat="44.635201" lon="33.772156"><ele>136.3</ele><time>2011-10-10T14:10:43.0000000+00:00</time></trkpt><trkpt lat="44.635201" lon="33.772156"><ele>136.4</ele><time>2011-10-10T14:10:48.0000000+00:00</time></trkpt><trkpt lat="44.635204" lon="33.77195"><ele>136.8</ele><time>2011-10-10T14:10:53.0000000+00:00</time></trkpt><trkpt lat="44.635193" lon="33.771645"><ele>136.8</ele><time>2011-10-10T14:10:58.0000000+00:00</time></trkpt><trkpt lat="44.635201" lon="33.771313"><ele>137.4</ele><time>2011-10-10T14:11:03.0000000+00:00</time></trkpt><trkpt lat="44.635235" lon="33.770947"><ele>138.0</ele><time>2011-10-10T14:11:08.0000000+00:00</time></trkpt><trkpt lat="44.635281" lon="33.770599"><ele>138.7</ele><time>2011-10-10T14:11:13.0000000+00:00</time></trkpt><trkpt lat="44.6353" lon="33.770248"><ele>139.0</ele><time>2011-10-10T14:11:18.0000000+00:00</time></trkpt><trkpt lat="44.635281" lon="33.769897"><ele>139.7</ele><time>2011-10-10T14:11:23.0000000+00:00</time></trkpt><trkpt lat="44.635223" lon="33.769569"><ele>140.2</ele><time>2011-10-10T14:11:28.0000000+00:00</time></trkpt><trkpt lat="44.635151" lon="33.769245"><ele>141.0</ele><time>2011-10-10T14:11:33.0000000+00:00</time></trkpt><trkpt lat="44.635071" lon="33.76894"><ele>141.8</ele><time>2011-10-10T14:11:38.0000000+00:00</time></trkpt><trkpt lat="44.634972" lon="33.768673"><ele>142.4</ele><time>2011-10-10T14:11:43.0000000+00:00</time></trkpt><trkpt lat="44.634842" lon="33.76841"><ele>142.8</ele><time>2011-10-10T14:11:48.0000000+00:00</time></trkpt><trkpt lat="44.634727" lon="33.768135"><ele>143.0</ele><time>2011-10-10T14:11:53.0000000+00:00</time></trkpt><trkpt lat="44.634544" lon="33.767845"><ele>143.2</ele><time>2011-10-10T14:11:58.0000000+00:00</time></trkpt><trkpt lat="44.634426" lon="33.767544"><ele>143.9</ele><time>2011-10-10T14:12:03.0000000+00:00</time></trkpt><trkpt lat="44.63435" lon="33.767235"><ele>144.3</ele><time>2011-10-10T14:12:08.0000000+00:00</time></trkpt><trkpt lat="44.634254" lon="33.766941"><ele>144.7</ele><time>2011-10-10T14:12:13.0000000+00:00</time></trkpt><trkpt lat="44.634155" lon="33.766651"><ele>145.3</ele><time>2011-10-10T14:12:18.0000000+00:00</time></trkpt><trkpt lat="44.634048" lon="33.766376"><ele>146.2</ele><time>2011-10-10T14:12:23.0000000+00:00</time></trkpt><trkpt lat="44.633915" lon="33.766125"><ele>146.7</ele><time>2011-10-10T14:12:28.0000000+00:00</time></trkpt><trkpt lat="44.633762" lon="33.7659"><ele>147.7</ele><time>2011-10-10T14:12:33.0000000+00:00</time></trkpt><trkpt lat="44.63361" lon="33.765709"><ele>148.4</ele><time>2011-10-10T14:12:38.0000000+00:00</time></trkpt><trkpt lat="44.633511" lon="33.765541"><ele>149.9</ele><time>2011-10-10T14:12:43.0000000+00:00</time></trkpt><trkpt lat="44.63343" lon="33.765373"><ele>151.5</ele><time>2011-10-10T14:12:48.0000000+00:00</time></trkpt><trkpt lat="44.633385" lon="33.765179"><ele>152.0</ele><time>2011-10-10T14:12:53.0000000+00:00</time></trkpt><trkpt lat="44.633354" lon="33.764984"><ele>152.7</ele><time>2011-10-10T14:12:58.0000000+00:00</time></trkpt><trkpt lat="44.633335" lon="33.764774"><ele>153.2</ele><time>2011-10-10T14:13:03.0000000+00:00</time></trkpt><trkpt lat="44.633354" lon="33.764545"><ele>153.5</ele><time>2011-10-10T14:13:08.0000000+00:00</time></trkpt><trkpt lat="44.633438" lon="33.764271"><ele>153.8</ele><time>2011-10-10T14:13:13.0000000+00:00</time></trkpt><trkpt lat="44.633556" lon="33.763992"><ele>153.7</ele><time>2011-10-10T14:13:18.0000000+00:00</time></trkpt><trkpt lat="44.633671" lon="33.76376"><ele>154.1</ele><time>2011-10-10T14:13:23.0000000+00:00</time></trkpt><trkpt lat="44.633751" lon="33.763481"><ele>154.1</ele><time>2011-10-10T14:13:28.0000000+00:00</time></trkpt><trkpt lat="44.633797" lon="33.763191"><ele>154.1</ele><time>2011-10-10T14:13:33.0000000+00:00</time></trkpt><trkpt lat="44.633801" lon="33.76289"><ele>153.8</ele><time>2011-10-10T14:13:38.0000000+00:00</time></trkpt><trkpt lat="44.633759" lon="33.762627"><ele>153.7</ele><time>2011-10-10T14:13:43.0000000+00:00</time></trkpt><trkpt lat="44.633675" lon="33.762344"><ele>153.0</ele><time>2011-10-10T14:13:48.0000000+00:00</time></trkpt><trkpt lat="44.633614" lon="33.762089"><ele>153.2</ele><time>2011-10-10T14:13:53.0000000+00:00</time></trkpt><trkpt lat="44.633564" lon="33.761829"><ele>153.8</ele><time>2011-10-10T14:13:58.0000000+00:00</time></trkpt><trkpt lat="44.633495" lon="33.761578"><ele>154.4</ele><time>2011-10-10T14:14:03.0000000+00:00</time></trkpt><trkpt lat="44.633392" lon="33.761356"><ele>154.9</ele><time>2011-10-10T14:14:08.0000000+00:00</time></trkpt><trkpt lat="44.633278" lon="33.761166"><ele>155.0</ele><time>2011-10-10T14:14:13.0000000+00:00</time></trkpt><trkpt lat="44.633144" lon="33.760979"><ele>155.1</ele><time>2011-10-10T14:14:18.0000000+00:00</time></trkpt><trkpt lat="44.633045" lon="33.760799"><ele>155.0</ele><time>2011-10-10T14:14:23.0000000+00:00</time></trkpt><trkpt lat="44.632942" lon="33.760616"><ele>155.6</ele><time>2011-10-10T14:14:28.0000000+00:00</time></trkpt><trkpt lat="44.632843" lon="33.760441"><ele>156.0</ele><time>2011-10-10T14:14:33.0000000+00:00</time></trkpt><trkpt lat="44.632763" lon="33.760288"><ele>156.6</ele><time>2011-10-10T14:14:38.0000000+00:00</time></trkpt><trkpt lat="44.632683" lon="33.760124"><ele>157.2</ele><time>2011-10-10T14:14:43.0000000+00:00</time></trkpt><trkpt lat="44.632591" lon="33.759941"><ele>157.5</ele><time>2011-10-10T14:14:48.0000000+00:00</time></trkpt><trkpt lat="44.632484" lon="33.759785"><ele>157.3</ele><time>2011-10-10T14:14:53.0000000+00:00</time></trkpt><trkpt lat="44.63237" lon="33.759602"><ele>157.4</ele><time>2011-10-10T14:14:58.0000000+00:00</time></trkpt><trkpt lat="44.63224" lon="33.759399"><ele>157.2</ele><time>2011-10-10T14:15:03.0000000+00:00</time></trkpt><trkpt lat="44.632114" lon="33.759197"><ele>157.3</ele><time>2011-10-10T14:15:08.0000000+00:00</time></trkpt><trkpt lat="44.632" lon="33.758999"><ele>157.2</ele><time>2011-10-10T14:15:13.0000000+00:00</time></trkpt><trkpt lat="44.631893" lon="33.758774"><ele>157.3</ele><time>2011-10-10T14:15:18.0000000+00:00</time></trkpt><trkpt lat="44.631786" lon="33.758526"><ele>158.0</ele><time>2011-10-10T14:15:23.0000000+00:00</time></trkpt><trkpt lat="44.63168" lon="33.758301"><ele>158.7</ele><time>2011-10-10T14:15:28.0000000+00:00</time></trkpt><trkpt lat="44.63155" lon="33.758114"><ele>158.9</ele><time>2011-10-10T14:15:33.0000000+00:00</time></trkpt><trkpt lat="44.631401" lon="33.75795"><ele>158.8</ele><time>2011-10-10T14:15:38.0000000+00:00</time></trkpt><trkpt lat="44.631279" lon="33.757774"><ele>158.9</ele><time>2011-10-10T14:15:43.0000000+00:00</time></trkpt><trkpt lat="44.631199" lon="33.757542"><ele>159.0</ele><time>2011-10-10T14:15:48.0000000+00:00</time></trkpt><trkpt lat="44.631104" lon="33.757298"><ele>159.7</ele><time>2011-10-10T14:15:53.0000000+00:00</time></trkpt><trkpt lat="44.630985" lon="33.757061"><ele>160.3</ele><time>2011-10-10T14:15:58.0000000+00:00</time></trkpt><trkpt lat="44.630878" lon="33.756836"><ele>160.9</ele><time>2011-10-10T14:16:03.0000000+00:00</time></trkpt><trkpt lat="44.630821" lon="33.756668"><ele>161.0</ele><time>2011-10-10T14:16:08.0000000+00:00</time></trkpt><trkpt lat="44.630783" lon="33.756458"><ele>161.8</ele><time>2011-10-10T14:16:13.0000000+00:00</time></trkpt><trkpt lat="44.63073" lon="33.756222"><ele>162.5</ele><time>2011-10-10T14:16:18.0000000+00:00</time></trkpt><trkpt lat="44.63065" lon="33.755993"><ele>163.3</ele><time>2011-10-10T14:16:23.0000000+00:00</time></trkpt><trkpt lat="44.630581" lon="33.75581"><ele>164.3</ele><time>2011-10-10T14:16:28.0000000+00:00</time></trkpt><trkpt lat="44.630489" lon="33.755623"><ele>165.1</ele><time>2011-10-10T14:16:33.0000000+00:00</time></trkpt><trkpt lat="44.630394" lon="33.755432"><ele>165.8</ele><time>2011-10-10T14:16:38.0000000+00:00</time></trkpt><trkpt lat="44.630287" lon="33.755249"><ele>166.8</ele><time>2011-10-10T14:16:43.0000000+00:00</time></trkpt><trkpt lat="44.630173" lon="33.755089"><ele>167.1</ele><time>2011-10-10T14:16:48.0000000+00:00</time></trkpt><trkpt lat="44.630089" lon="33.754974"><ele>167.6</ele><time>2011-10-10T14:16:53.0000000+00:00</time></trkpt><trkpt lat="44.630001" lon="33.754856"><ele>167.6</ele><time>2011-10-10T14:16:58.0000000+00:00</time></trkpt><trkpt lat="44.629894" lon="33.754726"><ele>167.7</ele><time>2011-10-10T14:17:03.0000000+00:00</time></trkpt><trkpt lat="44.629795" lon="33.754581"><ele>166.9</ele><time>2011-10-10T14:17:08.0000000+00:00</time></trkpt><trkpt lat="44.629677" lon="33.754436"><ele>166.7</ele><time>2011-10-10T14:17:13.0000000+00:00</time></trkpt><trkpt lat="44.629559" lon="33.754288"><ele>166.7</ele><time>2011-10-10T14:17:18.0000000+00:00</time></trkpt><trkpt lat="44.629436" lon="33.754131"><ele>167.1</ele><time>2011-10-10T14:17:23.0000000+00:00</time></trkpt><trkpt lat="44.629337" lon="33.753998"><ele>167.8</ele><time>2011-10-10T14:17:28.0000000+00:00</time></trkpt><trkpt lat="44.629265" lon="33.753914"><ele>167.9</ele><time>2011-10-10T14:17:33.0000000+00:00</time></trkpt><trkpt lat="44.629189" lon="33.753799"><ele>168.3</ele><time>2011-10-10T14:17:38.0000000+00:00</time></trkpt><trkpt lat="44.629082" lon="33.753674"><ele>168.1</ele><time>2011-10-10T14:17:43.0000000+00:00</time></trkpt><trkpt lat="44.62896" lon="33.753513"><ele>168.4</ele><time>2011-10-10T14:17:48.0000000+00:00</time></trkpt><trkpt lat="44.628834" lon="33.753357"><ele>168.8</ele><time>2011-10-10T14:17:53.0000000+00:00</time></trkpt><trkpt lat="44.628716" lon="33.753197"><ele>168.8</ele><time>2011-10-10T14:17:58.0000000+00:00</time></trkpt><trkpt lat="44.628582" lon="33.753052"><ele>168.7</ele><time>2011-10-10T14:18:03.0000000+00:00</time></trkpt><trkpt lat="44.628475" lon="33.752918"><ele>169.1</ele><time>2011-10-10T14:18:08.0000000+00:00</time></trkpt><trkpt lat="44.628391" lon="33.7528"><ele>169.7</ele><time>2011-10-10T14:18:13.0000000+00:00</time></trkpt><trkpt lat="44.6283" lon="33.752689"><ele>170.2</ele><time>2011-10-10T14:18:18.0000000+00:00</time></trkpt><trkpt lat="44.62825" lon="33.752586"><ele>170.6</ele><time>2011-10-10T14:18:23.0000000+00:00</time></trkpt><trkpt lat="44.628181" lon="33.752464"><ele>171.0</ele><time>2011-10-10T14:18:28.0000000+00:00</time></trkpt><trkpt lat="44.628098" lon="33.752323"><ele>172.1</ele><time>2011-10-10T14:18:33.0000000+00:00</time></trkpt><trkpt lat="44.628029" lon="33.752178"><ele>173.1</ele><time>2011-10-10T14:18:38.0000000+00:00</time></trkpt><trkpt lat="44.627975" lon="33.752041"><ele>174.6</ele><time>2011-10-10T14:18:43.0000000+00:00</time></trkpt><trkpt lat="44.627922" lon="33.751915"><ele>176.0</ele><time>2011-10-10T14:18:48.0000000+00:00</time></trkpt><trkpt lat="44.627888" lon="33.751789"><ele>177.4</ele><time>2011-10-10T14:18:53.0000000+00:00</time></trkpt><trkpt lat="44.627827" lon="33.751663"><ele>178.9</ele><time>2011-10-10T14:18:58.0000000+00:00</time></trkpt><trkpt lat="44.627769" lon="33.751541"><ele>180.1</ele><time>2011-10-10T14:19:03.0000000+00:00</time></trkpt><trkpt lat="44.627716" lon="33.751442"><ele>180.7</ele><time>2011-10-10T14:19:08.0000000+00:00</time></trkpt><trkpt lat="44.627647" lon="33.751316"><ele>181.7</ele><time>2011-10-10T14:19:13.0000000+00:00</time></trkpt><trkpt lat="44.627598" lon="33.751251"><ele>181.9</ele><time>2011-10-10T14:19:18.0000000+00:00</time></trkpt><trkpt lat="44.627548" lon="33.751209"><ele>182.0</ele><time>2011-10-10T14:19:23.0000000+00:00</time></trkpt><trkpt lat="44.627541" lon="33.751202"><ele>181.9</ele><time>2011-10-10T14:19:28.0000000+00:00</time></trkpt><trkpt lat="44.627541" lon="33.751198"><ele>181.8</ele><time>2011-10-10T14:19:33.0000000+00:00</time></trkpt><trkpt lat="44.627537" lon="33.751198"><ele>181.8</ele><time>2011-10-10T14:19:38.0000000+00:00</time></trkpt><trkpt lat="44.627537" lon="33.751202"><ele>181.8</ele><time>2011-10-10T14:19:43.0000000+00:00</time></trkpt><trkpt lat="44.627537" lon="33.751202"><ele>181.8</ele><time>2011-10-10T14:19:48.0000000+00:00</time></trkpt><trkpt lat="44.627537" lon="33.751202"><ele>181.9</ele><time>2011-10-10T14:19:53.0000000+00:00</time></trkpt><trkpt lat="44.627541" lon="33.751202"><ele>181.9</ele><time>2011-10-10T14:19:58.0000000+00:00</time></trkpt><trkpt lat="44.627541" lon="33.751205"><ele>181.9</ele><time>2011-10-10T14:20:03.0000000+00:00</time></trkpt><trkpt lat="44.627541" lon="33.751202"><ele>181.9</ele><time>2011-10-10T14:20:08.0000000+00:00</time></trkpt><trkpt lat="44.627533" lon="33.751186"><ele>182.1</ele><time>2011-10-10T14:20:13.0000000+00:00</time></trkpt><trkpt lat="44.627499" lon="33.751102"><ele>181.8</ele><time>2011-10-10T14:20:18.0000000+00:00</time></trkpt><trkpt lat="44.627438" lon="33.751015"><ele>181.8</ele><time>2011-10-10T14:20:23.0000000+00:00</time></trkpt><trkpt lat="44.627422" lon="33.750973"><ele>181.8</ele><time>2011-10-10T14:20:28.0000000+00:00</time></trkpt><trkpt lat="44.627415" lon="33.750942"><ele>181.6</ele><time>2011-10-10T14:20:33.0000000+00:00</time></trkpt><trkpt lat="44.627419" lon="33.750938"><ele>181.7</ele><time>2011-10-10T14:20:38.0000000+00:00</time></trkpt><trkpt lat="44.627396" lon="33.750877"><ele>181.6</ele><time>2011-10-10T14:20:43.0000000+00:00</time></trkpt><trkpt lat="44.627316" lon="33.750729"><ele>180.1</ele><time>2011-10-10T14:20:48.0000000+00:00</time></trkpt><trkpt lat="44.627178" lon="33.750462"><ele>178.1</ele><time>2011-10-10T14:20:53.0000000+00:00</time></trkpt><trkpt lat="44.62701" lon="33.750126"><ele>176.9</ele><time>2011-10-10T14:20:58.0000000+00:00</time></trkpt><trkpt lat="44.62685" lon="33.749813"><ele>177.0</ele><time>2011-10-10T14:21:03.0000000+00:00</time></trkpt><trkpt lat="44.626724" lon="33.749596"><ele>177.9</ele><time>2011-10-10T14:21:08.0000000+00:00</time></trkpt><trkpt lat="44.626648" lon="33.749458"><ele>178.9</ele><time>2011-10-10T14:21:13.0000000+00:00</time></trkpt><trkpt lat="44.626617" lon="33.749397"><ele>178.8</ele><time>2011-10-10T14:21:18.0000000+00:00</time></trkpt><trkpt lat="44.626614" lon="33.749409"><ele>178.8</ele><time>2011-10-10T14:21:23.0000000+00:00</time></trkpt><trkpt lat="44.626614" lon="33.749409"><ele>178.8</ele><time>2011-10-10T14:21:28.0000000+00:00</time></trkpt><trkpt lat="44.626614" lon="33.749409"><ele>178.8</ele><time>2011-10-10T14:21:33.0000000+00:00</time></trkpt><trkpt lat="44.626614" lon="33.749409"><ele>178.8</ele><time>2011-10-10T14:21:38.0000000+00:00</time></trkpt><trkpt lat="44.626614" lon="33.749409"><ele>178.8</ele><time>2011-10-10T14:21:43.0000000+00:00</time></trkpt><trkpt lat="44.626617" lon="33.749409"><ele>178.9</ele><time>2011-10-10T14:21:48.0000000+00:00</time></trkpt><trkpt lat="44.626617" lon="33.749409"><ele>179.0</ele><time>2011-10-10T14:21:53.0000000+00:00</time></trkpt><trkpt lat="44.626617" lon="33.749409"><ele>179.0</ele><time>2011-10-10T14:21:58.0000000+00:00</time></trkpt><trkpt lat="44.626617" lon="33.749409"><ele>179.0</ele><time>2011-10-10T14:22:03.0000000+00:00</time></trkpt><trkpt lat="44.626617" lon="33.749409"><ele>179.0</ele><time>2011-10-10T14:22:08.0000000+00:00</time></trkpt><trkpt lat="44.626598" lon="33.749336"><ele>178.7</ele><time>2011-10-10T14:22:13.0000000+00:00</time></trkpt><trkpt lat="44.626541" lon="33.749138"><ele>177.2</ele><time>2011-10-10T14:22:18.0000000+00:00</time></trkpt><trkpt lat="44.626438" lon="33.748806"><ele>174.5</ele><time>2011-10-10T14:22:23.0000000+00:00</time></trkpt><trkpt lat="44.626236" lon="33.74836"><ele>170.9</ele><time>2011-10-10T14:22:28.0000000+00:00</time></trkpt><trkpt lat="44.625977" lon="33.747887"><ele>167.9</ele><time>2011-10-10T14:22:33.0000000+00:00</time></trkpt><trkpt lat="44.625725" lon="33.747467"><ele>166.0</ele><time>2011-10-10T14:22:38.0000000+00:00</time></trkpt><trkpt lat="44.6255" lon="33.747063"><ele>164.6</ele><time>2011-10-10T14:22:43.0000000+00:00</time></trkpt><trkpt lat="44.625301" lon="33.746693"><ele>164.5</ele><time>2011-10-10T14:22:48.0000000+00:00</time></trkpt><trkpt lat="44.625134" lon="33.746353"><ele>163.7</ele><time>2011-10-10T14:22:53.0000000+00:00</time></trkpt><trkpt lat="44.624962" lon="33.746124"><ele>163.0</ele><time>2011-10-10T14:22:58.0000000+00:00</time></trkpt><trkpt lat="44.624825" lon="33.745953"><ele>162.9</ele><time>2011-10-10T14:23:03.0000000+00:00</time></trkpt><trkpt lat="44.624756" lon="33.745827"><ele>163.6</ele><time>2011-10-10T14:23:08.0000000+00:00</time></trkpt><trkpt lat="44.624683" lon="33.745647"><ele>163.4</ele><time>2011-10-10T14:23:13.0000000+00:00</time></trkpt><trkpt lat="44.624672" lon="33.745472"><ele>164.0</ele><time>2011-10-10T14:23:18.0000000+00:00</time></trkpt><trkpt lat="44.624672" lon="33.745296"><ele>164.0</ele><time>2011-10-10T14:23:23.0000000+00:00</time></trkpt><trkpt lat="44.624691" lon="33.745068"><ele>165.7</ele><time>2011-10-10T14:23:28.0000000+00:00</time></trkpt><trkpt lat="44.624676" lon="33.744881"><ele>165.6</ele><time>2011-10-10T14:23:33.0000000+00:00</time></trkpt><trkpt lat="44.624638" lon="33.744694"><ele>165.2</ele><time>2011-10-10T14:23:38.0000000+00:00</time></trkpt><trkpt lat="44.624611" lon="33.744511"><ele>164.5</ele><time>2011-10-10T14:23:43.0000000+00:00</time></trkpt><trkpt lat="44.624561" lon="33.744301"><ele>164.1</ele><time>2011-10-10T14:23:48.0000000+00:00</time></trkpt><trkpt lat="44.624462" lon="33.744095"><ele>164.3</ele><time>2011-10-10T14:23:53.0000000+00:00</time></trkpt><trkpt lat="44.624382" lon="33.743889"><ele>166.2</ele><time>2011-10-10T14:23:58.0000000+00:00</time></trkpt><trkpt lat="44.624325" lon="33.743706"><ele>165.8</ele><time>2011-10-10T14:24:03.0000000+00:00</time></trkpt><trkpt lat="44.624283" lon="33.743546"><ele>165.6</ele><time>2011-10-10T14:24:08.0000000+00:00</time></trkpt><trkpt lat="44.624268" lon="33.743343"><ele>165.2</ele><time>2011-10-10T14:24:13.0000000+00:00</time></trkpt><trkpt lat="44.624256" lon="33.743114"><ele>165.1</ele><time>2011-10-10T14:24:18.0000000+00:00</time></trkpt><trkpt lat="44.624233" lon="33.742889"><ele>164.8</ele><time>2011-10-10T14:24:23.0000000+00:00</time></trkpt><trkpt lat="44.624214" lon="33.742668"><ele>164.3</ele><time>2011-10-10T14:24:28.0000000+00:00</time></trkpt><trkpt lat="44.624195" lon="33.742451"><ele>163.9</ele><time>2011-10-10T14:24:33.0000000+00:00</time></trkpt><trkpt lat="44.624176" lon="33.742279"><ele>164.5</ele><time>2011-10-10T14:24:38.0000000+00:00</time></trkpt><trkpt lat="44.624161" lon="33.742146"><ele>165.2</ele><time>2011-10-10T14:24:43.0000000+00:00</time></trkpt><trkpt lat="44.624134" lon="33.741943"><ele>165.5</ele><time>2011-10-10T14:24:48.0000000+00:00</time></trkpt><trkpt lat="44.624115" lon="33.74176"><ele>165.9</ele><time>2011-10-10T14:24:53.0000000+00:00</time></trkpt><trkpt lat="44.624104" lon="33.7416"><ele>165.5</ele><time>2011-10-10T14:24:58.0000000+00:00</time></trkpt><trkpt lat="44.624088" lon="33.741386"><ele>165.0</ele><time>2011-10-10T14:25:03.0000000+00:00</time></trkpt><trkpt lat="44.624062" lon="33.741116"><ele>164.0</ele><time>2011-10-10T14:25:08.0000000+00:00</time></trkpt><trkpt lat="44.623997" lon="33.740837"><ele>163.5</ele><time>2011-10-10T14:25:13.0000000+00:00</time></trkpt><trkpt lat="44.623932" lon="33.740688"><ele>164.1</ele><time>2011-10-10T14:25:18.0000000+00:00</time></trkpt><trkpt lat="44.623894" lon="33.740589"><ele>164.6</ele><time>2011-10-10T14:25:23.0000000+00:00</time></trkpt><trkpt lat="44.623829" lon="33.740517"><ele>165.3</ele><time>2011-10-10T14:25:28.0000000+00:00</time></trkpt><trkpt lat="44.623787" lon="33.740482"><ele>164.9</ele><time>2011-10-10T14:25:33.0000000+00:00</time></trkpt><trkpt lat="44.623745" lon="33.740433"><ele>164.7</ele><time>2011-10-10T14:25:38.0000000+00:00</time></trkpt><trkpt lat="44.623726" lon="33.740402"><ele>164.4</ele><time>2011-10-10T14:25:43.0000000+00:00</time></trkpt><trkpt lat="44.623722" lon="33.740395"><ele>164.3</ele><time>2011-10-10T14:25:48.0000000+00:00</time></trkpt><trkpt lat="44.623722" lon="33.740395"><ele>164.2</ele><time>2011-10-10T14:25:53.0000000+00:00</time></trkpt><trkpt lat="44.623722" lon="33.740395"><ele>164.2</ele><time>2011-10-10T14:25:58.0000000+00:00</time></trkpt><trkpt lat="44.623722" lon="33.740395"><ele>164.2</ele><time>2011-10-10T14:26:03.0000000+00:00</time></trkpt><trkpt lat="44.623722" lon="33.740395"><ele>164.2</ele><time>2011-10-10T14:26:08.0000000+00:00</time></trkpt><trkpt lat="44.623661" lon="33.740379"><ele>164.3</ele><time>2011-10-10T14:26:13.0000000+00:00</time></trkpt><trkpt lat="44.623547" lon="33.740295"><ele>164.1</ele><time>2011-10-10T14:26:18.0000000+00:00</time></trkpt><trkpt lat="44.623417" lon="33.740215"><ele>164.7</ele><time>2011-10-10T14:26:23.0000000+00:00</time></trkpt><trkpt lat="44.623283" lon="33.740116"><ele>164.3</ele><time>2011-10-10T14:26:28.0000000+00:00</time></trkpt><trkpt lat="44.623165" lon="33.740032"><ele>164.5</ele><time>2011-10-10T14:26:33.0000000+00:00</time></trkpt><trkpt lat="44.623066" lon="33.739971"><ele>165.1</ele><time>2011-10-10T14:26:38.0000000+00:00</time></trkpt><trkpt lat="44.622925" lon="33.739872"><ele>164.9</ele><time>2011-10-10T14:26:43.0000000+00:00</time></trkpt><trkpt lat="44.622765" lon="33.739784"><ele>165.0</ele><time>2011-10-10T14:26:48.0000000+00:00</time></trkpt><trkpt lat="44.62262" lon="33.739674"><ele>165.4</ele><time>2011-10-10T14:26:53.0000000+00:00</time></trkpt><trkpt lat="44.622475" lon="33.739544"><ele>165.9</ele><time>2011-10-10T14:26:58.0000000+00:00</time></trkpt><trkpt lat="44.622334" lon="33.739403"><ele>166.1</ele><time>2011-10-10T14:27:03.0000000+00:00</time></trkpt><trkpt lat="44.622185" lon="33.739254"><ele>166.0</ele><time>2011-10-10T14:27:08.0000000+00:00</time></trkpt><trkpt lat="44.622051" lon="33.739098"><ele>166.5</ele><time>2011-10-10T14:27:13.0000000+00:00</time></trkpt><trkpt lat="44.621914" lon="33.738949"><ele>166.7</ele><time>2011-10-10T14:27:18.0000000+00:00</time></trkpt><trkpt lat="44.62178" lon="33.738819"><ele>166.9</ele><time>2011-10-10T14:27:23.0000000+00:00</time></trkpt><trkpt lat="44.621662" lon="33.738708"><ele>167.3</ele><time>2011-10-10T14:27:28.0000000+00:00</time></trkpt><trkpt lat="44.621552" lon="33.738583"><ele>167.2</ele><time>2011-10-10T14:27:33.0000000+00:00</time></trkpt><trkpt lat="44.621452" lon="33.738415"><ele>167.4</ele><time>2011-10-10T14:27:38.0000000+00:00</time></trkpt><trkpt lat="44.621368" lon="33.738255"><ele>167.1</ele><time>2011-10-10T14:27:43.0000000+00:00</time></trkpt><trkpt lat="44.621284" lon="33.738087"><ele>167.4</ele><time>2011-10-10T14:27:48.0000000+00:00</time></trkpt><trkpt lat="44.621197" lon="33.737904"><ele>167.9</ele><time>2011-10-10T14:27:53.0000000+00:00</time></trkpt><trkpt lat="44.621117" lon="33.737732"><ele>168.3</ele><time>2011-10-10T14:27:58.0000000+00:00</time></trkpt><trkpt lat="44.621086" lon="33.737617"><ele>167.7</ele><time>2011-10-10T14:28:03.0000000+00:00</time></trkpt><trkpt lat="44.621078" lon="33.737606"><ele>166.1</ele><time>2011-10-10T14:28:08.0000000+00:00</time></trkpt><trkpt lat="44.621075" lon="33.737606"><ele>166.1</ele><time>2011-10-10T14:28:13.0000000+00:00</time></trkpt><trkpt lat="44.621075" lon="33.737606"><ele>166.0</ele><time>2011-10-10T14:28:18.0000000+00:00</time></trkpt><trkpt lat="44.621075" lon="33.737606"><ele>166.0</ele><time>2011-10-10T14:28:23.0000000+00:00</time></trkpt><trkpt lat="44.621075" lon="33.737606"><ele>166.0</ele><time>2011-10-10T14:28:28.0000000+00:00</time></trkpt><trkpt lat="44.621075" lon="33.737591"><ele>166.0</ele><time>2011-10-10T14:28:33.0000000+00:00</time></trkpt><trkpt lat="44.621021" lon="33.737549"><ele>164.5</ele><time>2011-10-10T14:28:38.0000000+00:00</time></trkpt><trkpt lat="44.620956" lon="33.737572"><ele>165.2</ele><time>2011-10-10T14:28:43.0000000+00:00</time></trkpt><trkpt lat="44.620892" lon="33.737587"><ele>165.2</ele><time>2011-10-10T14:28:48.0000000+00:00</time></trkpt><trkpt lat="44.620831" lon="33.737576"><ele>164.9</ele><time>2011-10-10T14:28:53.0000000+00:00</time></trkpt><trkpt lat="44.620735" lon="33.737595"><ele>165.9</ele><time>2011-10-10T14:28:58.0000000+00:00</time></trkpt><trkpt lat="44.620613" lon="33.73753"><ele>166.2</ele><time>2011-10-10T14:29:03.0000000+00:00</time></trkpt><trkpt lat="44.620457" lon="33.737476"><ele>166.8</ele><time>2011-10-10T14:29:08.0000000+00:00</time></trkpt><trkpt lat="44.620262" lon="33.737461"><ele>167.0</ele><time>2011-10-10T14:29:13.0000000+00:00</time></trkpt><trkpt lat="44.620037" lon="33.737434"><ele>167.2</ele><time>2011-10-10T14:29:18.0000000+00:00</time></trkpt><trkpt lat="44.619797" lon="33.737423"><ele>167.7</ele><time>2011-10-10T14:29:23.0000000+00:00</time></trkpt><trkpt lat="44.619568" lon="33.737404"><ele>168.0</ele><time>2011-10-10T14:29:28.0000000+00:00</time></trkpt><trkpt lat="44.619343" lon="33.737408"><ele>169.1</ele><time>2011-10-10T14:29:33.0000000+00:00</time></trkpt><trkpt lat="44.619106" lon="33.737427"><ele>170.0</ele><time>2011-10-10T14:29:38.0000000+00:00</time></trkpt><trkpt lat="44.618893" lon="33.737438"><ele>170.7</ele><time>2011-10-10T14:29:43.0000000+00:00</time></trkpt><trkpt lat="44.618683" lon="33.737461"><ele>171.3</ele><time>2011-10-10T14:29:48.0000000+00:00</time></trkpt><trkpt lat="44.618465" lon="33.737492"><ele>171.9</ele><time>2011-10-10T14:29:53.0000000+00:00</time></trkpt><trkpt lat="44.618263" lon="33.737511"><ele>172.6</ele><time>2011-10-10T14:29:58.0000000+00:00</time></trkpt><trkpt lat="44.618073" lon="33.73753"><ele>173.8</ele><time>2011-10-10T14:30:03.0000000+00:00</time></trkpt><trkpt lat="44.617889" lon="33.737595"><ele>174.7</ele><time>2011-10-10T14:30:08.0000000+00:00</time></trkpt><trkpt lat="44.617748" lon="33.737682"><ele>175.0</ele><time>2011-10-10T14:30:13.0000000+00:00</time></trkpt><trkpt lat="44.617641" lon="33.737728"><ele>175.4</ele><time>2011-10-10T14:30:18.0000000+00:00</time></trkpt><trkpt lat="44.617519" lon="33.737789"><ele>175.8</ele><time>2011-10-10T14:30:23.0000000+00:00</time></trkpt><trkpt lat="44.617386" lon="33.737827"><ele>176.2</ele><time>2011-10-10T14:30:28.0000000+00:00</time></trkpt><trkpt lat="44.617237" lon="33.737846"><ele>176.4</ele><time>2011-10-10T14:30:33.0000000+00:00</time></trkpt><trkpt lat="44.617123" lon="33.737858"><ele>176.3</ele><time>2011-10-10T14:30:38.0000000+00:00</time></trkpt><trkpt lat="44.616993" lon="33.737881"><ele>176.0</ele><time>2011-10-10T14:30:43.0000000+00:00</time></trkpt><trkpt lat="44.616867" lon="33.737892"><ele>177.0</ele><time>2011-10-10T14:30:48.0000000+00:00</time></trkpt><trkpt lat="44.616768" lon="33.737907"><ele>176.9</ele><time>2011-10-10T14:30:53.0000000+00:00</time></trkpt><trkpt lat="44.616638" lon="33.737881"><ele>177.4</ele><time>2011-10-10T14:30:58.0000000+00:00</time></trkpt><trkpt lat="44.616531" lon="33.737831"><ele>178.3</ele><time>2011-10-10T14:31:03.0000000+00:00</time></trkpt><trkpt lat="44.616524" lon="33.737816"><ele>178.4</ele><time>2011-10-10T14:31:08.0000000+00:00</time></trkpt><trkpt lat="44.616524" lon="33.737816"><ele>178.4</ele><time>2011-10-10T14:31:13.0000000+00:00</time></trkpt><trkpt lat="44.616524" lon="33.737816"><ele>178.4</ele><time>2011-10-10T14:31:18.0000000+00:00</time></trkpt><trkpt lat="44.616524" lon="33.737816"><ele>178.4</ele><time>2011-10-10T14:31:23.0000000+00:00</time></trkpt><trkpt lat="44.616524" lon="33.737816"><ele>178.4</ele><time>2011-10-10T14:31:28.0000000+00:00</time></trkpt><trkpt lat="44.616524" lon="33.737812"><ele>178.4</ele><time>2011-10-10T14:31:33.0000000+00:00</time></trkpt><trkpt lat="44.61652" lon="33.737812"><ele>178.4</ele><time>2011-10-10T14:31:38.0000000+00:00</time></trkpt><trkpt lat="44.61652" lon="33.737812"><ele>178.3</ele><time>2011-10-10T14:31:43.0000000+00:00</time></trkpt><trkpt lat="44.61652" lon="33.737812"><ele>178.3</ele><time>2011-10-10T14:31:48.0000000+00:00</time></trkpt><trkpt lat="44.61652" lon="33.737812"><ele>178.3</ele><time>2011-10-10T14:31:53.0000000+00:00</time></trkpt><trkpt lat="44.61652" lon="33.737812"><ele>178.3</ele><time>2011-10-10T14:31:58.0000000+00:00</time></trkpt><trkpt lat="44.61652" lon="33.737816"><ele>178.4</ele><time>2011-10-10T14:32:03.0000000+00:00</time></trkpt><trkpt lat="44.61652" lon="33.737816"><ele>178.4</ele><time>2011-10-10T14:32:08.0000000+00:00</time></trkpt><trkpt lat="44.616512" lon="33.737808"><ele>178.4</ele><time>2011-10-10T14:32:13.0000000+00:00</time></trkpt><trkpt lat="44.616505" lon="33.737801"><ele>178.6</ele><time>2011-10-10T14:32:18.0000000+00:00</time></trkpt><trkpt lat="44.616474" lon="33.737823"><ele>178.0</ele><time>2011-10-10T14:32:23.0000000+00:00</time></trkpt><trkpt lat="44.616478" lon="33.737827"><ele>177.3</ele><time>2011-10-10T14:32:28.0000000+00:00</time></trkpt><trkpt lat="44.616474" lon="33.737831"><ele>177.3</ele><time>2011-10-10T14:32:33.0000000+00:00</time></trkpt><trkpt lat="44.616451" lon="33.737831"><ele>176.8</ele><time>2011-10-10T14:32:38.0000000+00:00</time></trkpt><trkpt lat="44.616451" lon="33.737827"><ele>176.4</ele><time>2011-10-10T14:32:43.0000000+00:00</time></trkpt><trkpt lat="44.616432" lon="33.737831"><ele>175.9</ele><time>2011-10-10T14:32:48.0000000+00:00</time></trkpt><trkpt lat="44.616409" lon="33.737877"><ele>175.5</ele><time>2011-10-10T14:32:53.0000000+00:00</time></trkpt><trkpt lat="44.616383" lon="33.737957"><ele>176.0</ele><time>2011-10-10T14:32:58.0000000+00:00</time></trkpt><trkpt lat="44.616367" lon="33.738007"><ele>178.8</ele><time>2011-10-10T14:33:03.0000000+00:00</time></trkpt><trkpt lat="44.61636" lon="33.737999"><ele>178.4</ele><time>2011-10-10T14:33:08.0000000+00:00</time></trkpt><trkpt lat="44.61636" lon="33.738003"><ele>178.4</ele><time>2011-10-10T14:33:13.0000000+00:00</time></trkpt><trkpt lat="44.61636" lon="33.738003"><ele>178.4</ele><time>2011-10-10T14:33:18.0000000+00:00</time></trkpt><trkpt lat="44.61636" lon="33.738003"><ele>178.4</ele><time>2011-10-10T14:33:23.0000000+00:00</time></trkpt><trkpt lat="44.61636" lon="33.738003"><ele>178.4</ele><time>2011-10-10T14:33:28.0000000+00:00</time></trkpt><trkpt lat="44.61636" lon="33.738041"><ele>178.4</ele><time>2011-10-10T14:33:33.0000000+00:00</time></trkpt><trkpt lat="44.616344" lon="33.73806"><ele>178.0</ele><time>2011-10-10T14:33:38.0000000+00:00</time></trkpt><trkpt lat="44.616348" lon="33.738064"><ele>177.9</ele><time>2011-10-10T14:33:43.0000000+00:00</time></trkpt><trkpt lat="44.616348" lon="33.738064"><ele>177.9</ele><time>2011-10-10T14:33:48.0000000+00:00</time></trkpt><trkpt lat="44.616348" lon="33.738064"><ele>177.9</ele><time>2011-10-10T14:33:53.0000000+00:00</time></trkpt><trkpt lat="44.616344" lon="33.738068"><ele>177.9</ele><time>2011-10-10T14:33:58.0000000+00:00</time></trkpt><trkpt lat="44.616344" lon="33.738071"><ele>178.0</ele><time>2011-10-10T14:34:03.0000000+00:00</time></trkpt><trkpt lat="44.616344" lon="33.738079"><ele>177.8</ele><time>2011-10-10T14:34:08.0000000+00:00</time></trkpt><trkpt lat="44.616341" lon="33.738079"><ele>177.4</ele><time>2011-10-10T14:34:13.0000000+00:00</time></trkpt><trkpt lat="44.616341" lon="33.738056"><ele>176.5</ele><time>2011-10-10T14:34:18.0000000+00:00</time></trkpt><trkpt lat="44.616341" lon="33.738056"><ele>176.3</ele><time>2011-10-10T14:34:23.0000000+00:00</time></trkpt><trkpt lat="44.616341" lon="33.738056"><ele>176.0</ele><time>2011-10-10T14:34:28.0000000+00:00</time></trkpt><trkpt lat="44.616344" lon="33.738056"><ele>176.0</ele><time>2011-10-10T14:34:33.0000000+00:00</time></trkpt><trkpt lat="44.616348" lon="33.738056"><ele>175.9</ele><time>2011-10-10T14:34:38.0000000+00:00</time></trkpt><trkpt lat="44.616352" lon="33.738056"><ele>175.7</ele><time>2011-10-10T14:34:43.0000000+00:00</time></trkpt><trkpt lat="44.616352" lon="33.738056"><ele>175.7</ele><time>2011-10-10T14:34:48.0000000+00:00</time></trkpt><trkpt lat="44.616356" lon="33.738056"><ele>175.7</ele><time>2011-10-10T14:34:53.0000000+00:00</time></trkpt><trkpt lat="44.616356" lon="33.738052"><ele>175.9</ele><time>2011-10-10T14:34:58.0000000+00:00</time></trkpt><trkpt lat="44.616356" lon="33.738052"><ele>175.9</ele><time>2011-10-10T14:35:03.0000000+00:00</time></trkpt><trkpt lat="44.616356" lon="33.738052"><ele>175.9</ele><time>2011-10-10T14:35:08.0000000+00:00</time></trkpt><trkpt lat="44.616356" lon="33.738052"><ele>175.9</ele><time>2011-10-10T14:35:13.0000000+00:00</time></trkpt><trkpt lat="44.616356" lon="33.738052"><ele>175.9</ele><time>2011-10-10T14:35:18.0000000+00:00</time></trkpt><trkpt lat="44.616356" lon="33.738052"><ele>175.8</ele><time>2011-10-10T14:35:23.0000000+00:00</time></trkpt><trkpt lat="44.616371" lon="33.738026"><ele>175.7</ele><time>2011-10-10T14:35:28.0000000+00:00</time></trkpt><trkpt lat="44.616413" lon="33.737949"><ele>175.9</ele><time>2011-10-10T14:35:33.0000000+00:00</time></trkpt><trkpt lat="44.616394" lon="33.737881"><ele>177.2</ele><time>2011-10-10T14:35:38.0000000+00:00</time></trkpt><trkpt lat="44.616386" lon="33.737839"><ele>176.5</ele><time>2011-10-10T14:35:43.0000000+00:00</time></trkpt><trkpt lat="44.616386" lon="33.737839"><ele>176.5</ele><time>2011-10-10T14:35:48.0000000+00:00</time></trkpt><trkpt lat="44.616386" lon="33.737846"><ele>176.5</ele><time>2011-10-10T14:35:53.0000000+00:00</time></trkpt><trkpt lat="44.616436" lon="33.737816"><ele>176.9</ele><time>2011-10-10T14:35:58.0000000+00:00</time></trkpt><trkpt lat="44.616451" lon="33.737808"><ele>177.8</ele><time>2011-10-10T14:36:03.0000000+00:00</time></trkpt><trkpt lat="44.616455" lon="33.737797"><ele>178.3</ele><time>2011-10-10T14:36:08.0000000+00:00</time></trkpt><trkpt lat="44.616459" lon="33.737797"><ele>178.7</ele><time>2011-10-10T14:36:13.0000000+00:00</time></trkpt><trkpt lat="44.616447" lon="33.737797"><ele>178.6</ele><time>2011-10-10T14:36:18.0000000+00:00</time></trkpt><trkpt lat="44.616436" lon="33.737808"><ele>178.3</ele><time>2011-10-10T14:36:23.0000000+00:00</time></trkpt><trkpt lat="44.616398" lon="33.737804"><ele>178.1</ele><time>2011-10-10T14:36:28.0000000+00:00</time></trkpt><trkpt lat="44.616325" lon="33.737804"><ele>176.7</ele><time>2011-10-10T14:36:33.0000000+00:00</time></trkpt><trkpt lat="44.61628" lon="33.737774"><ele>175.4</ele><time>2011-10-10T14:36:38.0000000+00:00</time></trkpt><trkpt lat="44.616238" lon="33.737732"><ele>174.9</ele><time>2011-10-10T14:36:43.0000000+00:00</time></trkpt><trkpt lat="44.616184" lon="33.737705"><ele>174.1</ele><time>2011-10-10T14:36:48.0000000+00:00</time></trkpt><trkpt lat="44.616161" lon="33.737629"><ele>174.3</ele><time>2011-10-10T14:36:53.0000000+00:00</time></trkpt><trkpt lat="44.616116" lon="33.737572"><ele>173.5</ele><time>2011-10-10T14:36:58.0000000+00:00</time></trkpt><trkpt lat="44.616058" lon="33.737541"><ele>174.2</ele><time>2011-10-10T14:37:03.0000000+00:00</time></trkpt><trkpt lat="44.616009" lon="33.737511"><ele>175.2</ele><time>2011-10-10T14:37:08.0000000+00:00</time></trkpt><trkpt lat="44.615974" lon="33.737461"><ele>176.3</ele><time>2011-10-10T14:37:13.0000000+00:00</time></trkpt><trkpt lat="44.615936" lon="33.737408"><ele>176.8</ele><time>2011-10-10T14:37:18.0000000+00:00</time></trkpt><trkpt lat="44.615891" lon="33.73737"><ele>177.3</ele><time>2011-10-10T14:37:23.0000000+00:00</time></trkpt><trkpt lat="44.615856" lon="33.737335"><ele>177.9</ele><time>2011-10-10T14:37:28.0000000+00:00</time></trkpt><trkpt lat="44.615818" lon="33.737309"><ele>179.5</ele><time>2011-10-10T14:37:33.0000000+00:00</time></trkpt><trkpt lat="44.615788" lon="33.73727"><ele>180.5</ele><time>2011-10-10T14:37:38.0000000+00:00</time></trkpt><trkpt lat="44.615746" lon="33.737206"><ele>181.4</ele><time>2011-10-10T14:37:43.0000000+00:00</time></trkpt><trkpt lat="44.615707" lon="33.73716"><ele>182.0</ele><time>2011-10-10T14:37:48.0000000+00:00</time></trkpt><trkpt lat="44.61565" lon="33.737137"><ele>182.1</ele><time>2011-10-10T14:37:53.0000000+00:00</time></trkpt><trkpt lat="44.615631" lon="33.737133"><ele>183.5</ele><time>2011-10-10T14:37:58.0000000+00:00</time></trkpt><trkpt lat="44.615551" lon="33.737095"><ele>183.5</ele><time>2011-10-10T14:38:03.0000000+00:00</time></trkpt><trkpt lat="44.615475" lon="33.737053"><ele>183.0</ele><time>2011-10-10T14:38:08.0000000+00:00</time></trkpt><trkpt lat="44.615417" lon="33.737041"><ele>183.0</ele><time>2011-10-10T14:38:13.0000000+00:00</time></trkpt><trkpt lat="44.615345" lon="33.737019"><ele>183.1</ele><time>2011-10-10T14:38:18.0000000+00:00</time></trkpt><trkpt lat="44.615303" lon="33.736954"><ele>183.8</ele><time>2011-10-10T14:38:23.0000000+00:00</time></trkpt><trkpt lat="44.615257" lon="33.736893"><ele>184.2</ele><time>2011-10-10T14:38:28.0000000+00:00</time></trkpt><trkpt lat="44.615204" lon="33.736851"><ele>184.2</ele><time>2011-10-10T14:38:33.0000000+00:00</time></trkpt><trkpt lat="44.615154" lon="33.736832"><ele>184.6</ele><time>2011-10-10T14:38:38.0000000+00:00</time></trkpt><trkpt lat="44.61515" lon="33.736786"><ele>184.3</ele><time>2011-10-10T14:38:43.0000000+00:00</time></trkpt><trkpt lat="44.615078" lon="33.736732"><ele>183.4</ele><time>2011-10-10T14:38:48.0000000+00:00</time></trkpt><trkpt lat="44.614994" lon="33.736725"><ele>183.0</ele><time>2011-10-10T14:38:53.0000000+00:00</time></trkpt><trkpt lat="44.61491" lon="33.736767"><ele>183.0</ele><time>2011-10-10T14:38:58.0000000+00:00</time></trkpt><trkpt lat="44.614849" lon="33.736824"><ele>182.9</ele><time>2011-10-10T14:39:03.0000000+00:00</time></trkpt><trkpt lat="44.614811" lon="33.736866"><ele>183.8</ele><time>2011-10-10T14:39:08.0000000+00:00</time></trkpt><trkpt lat="44.614765" lon="33.736897"><ele>183.5</ele><time>2011-10-10T14:39:13.0000000+00:00</time></trkpt><trkpt lat="44.614704" lon="33.736935"><ele>183.5</ele><time>2011-10-10T14:39:18.0000000+00:00</time></trkpt><trkpt lat="44.614635" lon="33.737019"><ele>184.4</ele><time>2011-10-10T14:39:23.0000000+00:00</time></trkpt><trkpt lat="44.614624" lon="33.737041"><ele>184.8</ele><time>2011-10-10T14:39:28.0000000+00:00</time></trkpt><trkpt lat="44.614635" lon="33.73703"><ele>185.3</ele><time>2011-10-10T14:39:33.0000000+00:00</time></trkpt><trkpt lat="44.614643" lon="33.737057"><ele>184.5</ele><time>2011-10-10T14:39:38.0000000+00:00</time></trkpt><trkpt lat="44.614594" lon="33.737083"><ele>184.6</ele><time>2011-10-10T14:39:43.0000000+00:00</time></trkpt><trkpt lat="44.61459" lon="33.737083"><ele>185.1</ele><time>2011-10-10T14:39:48.0000000+00:00</time></trkpt><trkpt lat="44.614613" lon="33.737053"><ele>185.8</ele><time>2011-10-10T14:39:53.0000000+00:00</time></trkpt><trkpt lat="44.614651" lon="33.736988"><ele>186.3</ele><time>2011-10-10T14:39:58.0000000+00:00</time></trkpt><trkpt lat="44.6147" lon="33.73698"><ele>186.9</ele><time>2011-10-10T14:40:03.0000000+00:00</time></trkpt><trkpt lat="44.614799" lon="33.736931"><ele>188.0</ele><time>2011-10-10T14:40:08.0000000+00:00</time></trkpt><trkpt lat="44.614853" lon="33.736908"><ele>188.6</ele><time>2011-10-10T14:40:13.0000000+00:00</time></trkpt></trkseg><trkseg><trkpt lat="44.614887" lon="33.737717"><ele>118.8</ele><time>2011-10-11T06:15:08.0000000+00:00</time></trkpt><trkpt lat="44.614887" lon="33.73761"><ele>118.7</ele><time>2011-10-11T06:15:13.0000000+00:00</time></trkpt><trkpt lat="44.614864" lon="33.737553"><ele>118.7</ele><time>2011-10-11T06:15:18.0000000+00:00</time></trkpt><trkpt lat="44.614861" lon="33.737495"><ele>118.6</ele><time>2011-10-11T06:15:23.0000000+00:00</time></trkpt><trkpt lat="44.614872" lon="33.737503"><ele>118.7</ele><time>2011-10-11T06:15:28.0000000+00:00</time></trkpt><trkpt lat="44.614887" lon="33.737492"><ele>118.7</ele><time>2011-10-11T06:15:33.0000000+00:00</time></trkpt><trkpt lat="44.614872" lon="33.737473"><ele>118.6</ele><time>2011-10-11T06:15:38.0000000+00:00</time></trkpt><trkpt lat="44.614872" lon="33.737473"><ele>118.6</ele><time>2011-10-11T06:15:43.0000000+00:00</time></trkpt><trkpt lat="44.614872" lon="33.737473"><ele>118.6</ele><time>2011-10-11T06:15:48.0000000+00:00</time></trkpt><trkpt lat="44.614868" lon="33.737473"><ele>118.6</ele><time>2011-10-11T06:15:53.0000000+00:00</time></trkpt><trkpt lat="44.614868" lon="33.737473"><ele>118.6</ele><time>2011-10-11T06:15:58.0000000+00:00</time></trkpt><trkpt lat="44.614868" lon="33.737465"><ele>118.3</ele><time>2011-10-11T06:16:03.0000000+00:00</time></trkpt><trkpt lat="44.614868" lon="33.737465"><ele>118.3</ele><time>2011-10-11T06:16:08.0000000+00:00</time></trkpt><trkpt lat="44.614872" lon="33.737469"><ele>118.3</ele><time>2011-10-11T06:16:13.0000000+00:00</time></trkpt><trkpt lat="44.614872" lon="33.737465"><ele>118.3</ele><time>2011-10-11T06:16:18.0000000+00:00</time></trkpt><trkpt lat="44.614727" lon="33.737049"><ele>190.7</ele><time>2011-10-11T06:16:23.0000000+00:00</time></trkpt><trkpt lat="44.614746" lon="33.737087"><ele>193.9</ele><time>2011-10-11T06:16:28.0000000+00:00</time></trkpt><trkpt lat="44.61475" lon="33.737076"><ele>195.1</ele><time>2011-10-11T06:16:33.0000000+00:00</time></trkpt><trkpt lat="44.614746" lon="33.73708"><ele>195.3</ele><time>2011-10-11T06:16:38.0000000+00:00</time></trkpt><trkpt lat="44.614616" lon="33.736988"><ele>202.1</ele><time>2011-10-11T06:16:43.0000000+00:00</time></trkpt><trkpt lat="44.614594" lon="33.73695"><ele>202.8</ele><time>2011-10-11T06:16:48.0000000+00:00</time></trkpt><trkpt lat="44.61459" lon="33.736942"><ele>202.9</ele><time>2011-10-11T06:16:53.0000000+00:00</time></trkpt><trkpt lat="44.614544" lon="33.73687"><ele>204.5</ele><time>2011-10-11T06:16:58.0000000+00:00</time></trkpt><trkpt lat="44.614536" lon="33.73687"><ele>204.5</ele><time>2011-10-11T06:17:03.0000000+00:00</time></trkpt><trkpt lat="44.614532" lon="33.73687"><ele>204.5</ele><time>2011-10-11T06:17:08.0000000+00:00</time></trkpt><trkpt lat="44.61451" lon="33.736755"><ele>205.2</ele><time>2011-10-11T06:17:13.0000000+00:00</time></trkpt><trkpt lat="44.614498" lon="33.736729"><ele>205.4</ele><time>2011-10-11T06:17:18.0000000+00:00</time></trkpt><trkpt lat="44.614494" lon="33.736732"><ele>205.3</ele><time>2011-10-11T06:17:23.0000000+00:00</time></trkpt><trkpt lat="44.614464" lon="33.736858"><ele>206.6</ele><time>2011-10-11T06:17:28.0000000+00:00</time></trkpt><trkpt lat="44.614422" lon="33.737015"><ele>211.5</ele><time>2011-10-11T06:17:33.0000000+00:00</time></trkpt><trkpt lat="44.614429" lon="33.737072"><ele>210.9</ele><time>2011-10-11T06:17:38.0000000+00:00</time></trkpt><trkpt lat="44.614437" lon="33.737087"><ele>210.5</ele><time>2011-10-11T06:17:43.0000000+00:00</time></trkpt><trkpt lat="44.614441" lon="33.737099"><ele>210.3</ele><time>2011-10-11T06:17:48.0000000+00:00</time></trkpt><trkpt lat="44.614449" lon="33.737106"><ele>210.2</ele><time>2011-10-11T06:17:53.0000000+00:00</time></trkpt><trkpt lat="44.614452" lon="33.73711"><ele>210.1</ele><time>2011-10-11T06:17:58.0000000+00:00</time></trkpt><trkpt lat="44.61446" lon="33.73711"><ele>209.9</ele><time>2011-10-11T06:18:03.0000000+00:00</time></trkpt><trkpt lat="44.614464" lon="33.73711"><ele>209.5</ele><time>2011-10-11T06:18:08.0000000+00:00</time></trkpt><trkpt lat="44.614468" lon="33.737106"><ele>209.3</ele><time>2011-10-11T06:18:13.0000000+00:00</time></trkpt><trkpt lat="44.614468" lon="33.737106"><ele>209.1</ele><time>2011-10-11T06:18:18.0000000+00:00</time></trkpt><trkpt lat="44.614468" lon="33.737106"><ele>209.1</ele><time>2011-10-11T06:18:23.0000000+00:00</time></trkpt><trkpt lat="44.614468" lon="33.737106"><ele>209.0</ele><time>2011-10-11T06:18:28.0000000+00:00</time></trkpt><trkpt lat="44.614479" lon="33.737103"><ele>209.1</ele><time>2011-10-11T06:18:33.0000000+00:00</time></trkpt><trkpt lat="44.614487" lon="33.737091"><ele>209.6</ele><time>2011-10-11T06:18:38.0000000+00:00</time></trkpt><trkpt lat="44.614491" lon="33.737095"><ele>209.5</ele><time>2011-10-11T06:18:43.0000000+00:00</time></trkpt><trkpt lat="44.614491" lon="33.737099"><ele>209.4</ele><time>2011-10-11T06:18:48.0000000+00:00</time></trkpt><trkpt lat="44.614491" lon="33.737095"><ele>209.5</ele><time>2011-10-11T06:18:53.0000000+00:00</time></trkpt><trkpt lat="44.614491" lon="33.737095"><ele>209.4</ele><time>2011-10-11T06:18:58.0000000+00:00</time></trkpt><trkpt lat="44.614491" lon="33.737095"><ele>209.3</ele><time>2011-10-11T06:19:03.0000000+00:00</time></trkpt><trkpt lat="44.614491" lon="33.737095"><ele>209.2</ele><time>2011-10-11T06:19:08.0000000+00:00</time></trkpt><trkpt lat="44.614491" lon="33.737095"><ele>209.1</ele><time>2011-10-11T06:19:13.0000000+00:00</time></trkpt><trkpt lat="44.614491" lon="33.737095"><ele>209.1</ele><time>2011-10-11T06:19:18.0000000+00:00</time></trkpt><trkpt lat="44.614494" lon="33.737095"><ele>209.0</ele><time>2011-10-11T06:19:23.0000000+00:00</time></trkpt><trkpt lat="44.614494" lon="33.737095"><ele>208.9</ele><time>2011-10-11T06:19:28.0000000+00:00</time></trkpt><trkpt lat="44.614494" lon="33.737095"><ele>208.7</ele><time>2011-10-11T06:19:33.0000000+00:00</time></trkpt><trkpt lat="44.614498" lon="33.737095"><ele>208.2</ele><time>2011-10-11T06:19:38.0000000+00:00</time></trkpt><trkpt lat="44.614513" lon="33.73708"><ele>207.6</ele><time>2011-10-11T06:19:43.0000000+00:00</time></trkpt><trkpt lat="44.614521" lon="33.737061"><ele>207.6</ele><time>2011-10-11T06:19:48.0000000+00:00</time></trkpt><trkpt lat="44.614532" lon="33.737034"><ele>206.5</ele><time>2011-10-11T06:19:53.0000000+00:00</time></trkpt><trkpt lat="44.614552" lon="33.737026"><ele>205.3</ele><time>2011-10-11T06:19:58.0000000+00:00</time></trkpt><trkpt lat="44.614578" lon="33.737038"><ele>204.2</ele><time>2011-10-11T06:20:03.0000000+00:00</time></trkpt><trkpt lat="44.614594" lon="33.73703"><ele>202.3</ele><time>2011-10-11T06:20:08.0000000+00:00</time></trkpt><trkpt lat="44.614605" lon="33.737015"><ele>201.8</ele><time>2011-10-11T06:20:13.0000000+00:00</time></trkpt><trkpt lat="44.614613" lon="33.737003"><ele>201.8</ele><time>2011-10-11T06:20:18.0000000+00:00</time></trkpt><trkpt lat="44.614613" lon="33.737003"><ele>201.4</ele><time>2011-10-11T06:20:23.0000000+00:00</time></trkpt><trkpt lat="44.614613" lon="33.737"><ele>201.4</ele><time>2011-10-11T06:20:28.0000000+00:00</time></trkpt><trkpt lat="44.614613" lon="33.737"><ele>201.4</ele><time>2011-10-11T06:20:33.0000000+00:00</time></trkpt><trkpt lat="44.614613" lon="33.737"><ele>201.4</ele><time>2011-10-11T06:20:38.0000000+00:00</time></trkpt><trkpt lat="44.614613" lon="33.737"><ele>201.4</ele><time>2011-10-11T06:20:43.0000000+00:00</time></trkpt><trkpt lat="44.614613" lon="33.737"><ele>201.4</ele><time>2011-10-11T06:20:48.0000000+00:00</time></trkpt><trkpt lat="44.614613" lon="33.737"><ele>201.4</ele><time>2011-10-11T06:20:53.0000000+00:00</time></trkpt><trkpt lat="44.614616" lon="33.737003"><ele>201.4</ele><time>2011-10-11T06:20:58.0000000+00:00</time></trkpt><trkpt lat="44.614613" lon="33.737003"><ele>201.4</ele><time>2011-10-11T06:21:03.0000000+00:00</time></trkpt><trkpt lat="44.614616" lon="33.737"><ele>201.3</ele><time>2011-10-11T06:21:08.0000000+00:00</time></trkpt><trkpt lat="44.61462" lon="33.736996"><ele>201.0</ele><time>2011-10-11T06:21:13.0000000+00:00</time></trkpt><trkpt lat="44.614624" lon="33.736992"><ele>200.8</ele><time>2011-10-11T06:21:18.0000000+00:00</time></trkpt><trkpt lat="44.614628" lon="33.736992"><ele>200.5</ele><time>2011-10-11T06:21:23.0000000+00:00</time></trkpt><trkpt lat="44.614628" lon="33.736988"><ele>200.1</ele><time>2011-10-11T06:21:28.0000000+00:00</time></trkpt><trkpt lat="44.614632" lon="33.736988"><ele>199.7</ele><time>2011-10-11T06:21:33.0000000+00:00</time></trkpt><trkpt lat="44.614639" lon="33.736988"><ele>199.4</ele><time>2011-10-11T06:21:38.0000000+00:00</time></trkpt><trkpt lat="44.614647" lon="33.736984"><ele>199.1</ele><time>2011-10-11T06:21:43.0000000+00:00</time></trkpt><trkpt lat="44.614651" lon="33.736984"><ele>198.8</ele><time>2011-10-11T06:21:48.0000000+00:00</time></trkpt><trkpt lat="44.614655" lon="33.73698"><ele>198.5</ele><time>2011-10-11T06:21:53.0000000+00:00</time></trkpt><trkpt lat="44.614651" lon="33.736977"><ele>198.2</ele><time>2011-10-11T06:21:58.0000000+00:00</time></trkpt><trkpt lat="44.614647" lon="33.736973"><ele>197.9</ele><time>2011-10-11T06:22:03.0000000+00:00</time></trkpt><trkpt lat="44.6147" lon="33.736961"><ele>197.9</ele><time>2011-10-11T06:22:08.0000000+00:00</time></trkpt><trkpt lat="44.614777" lon="33.736931"><ele>199.5</ele><time>2011-10-11T06:22:13.0000000+00:00</time></trkpt><trkpt lat="44.614933" lon="33.736839"><ele>201.2</ele><time>2011-10-11T06:22:18.0000000+00:00</time></trkpt><trkpt lat="44.615105" lon="33.736874"><ele>201.2</ele><time>2011-10-11T06:22:23.0000000+00:00</time></trkpt><trkpt lat="44.615246" lon="33.736938"><ele>201.4</ele><time>2011-10-11T06:22:28.0000000+00:00</time></trkpt><trkpt lat="44.615414" lon="33.737053"><ele>202.3</ele><time>2011-10-11T06:22:33.0000000+00:00</time></trkpt><trkpt lat="44.615589" lon="33.737125"><ele>203.5</ele><time>2011-10-11T06:22:38.0000000+00:00</time></trkpt><trkpt lat="44.615749" lon="33.737179"><ele>205.0</ele><time>2011-10-11T06:22:43.0000000+00:00</time></trkpt><trkpt lat="44.615837" lon="33.737232"><ele>206.6</ele><time>2011-10-11T06:22:48.0000000+00:00</time></trkpt><trkpt lat="44.616001" lon="33.737404"><ele>207.9</ele><time>2011-10-11T06:22:53.0000000+00:00</time></trkpt><trkpt lat="44.616188" lon="33.737545"><ele>209.4</ele><time>2011-10-11T06:22:58.0000000+00:00</time></trkpt><trkpt lat="44.616211" lon="33.737617"><ele>210.9</ele><time>2011-10-11T06:23:03.0000000+00:00</time></trkpt><trkpt lat="44.616215" lon="33.737686"><ele>212.5</ele><time>2011-10-11T06:23:08.0000000+00:00</time></trkpt><trkpt lat="44.616295" lon="33.73777"><ele>213.9</ele><time>2011-10-11T06:23:13.0000000+00:00</time></trkpt><trkpt lat="44.616348" lon="33.737869"><ele>214.8</ele><time>2011-10-11T06:23:18.0000000+00:00</time></trkpt><trkpt lat="44.616356" lon="33.737965"><ele>215.4</ele><time>2011-10-11T06:23:23.0000000+00:00</time></trkpt><trkpt lat="44.616325" lon="33.738045"><ele>216.2</ele><time>2011-10-11T06:23:28.0000000+00:00</time></trkpt><trkpt lat="44.616325" lon="33.73806"><ele>214.8</ele><time>2011-10-11T06:23:33.0000000+00:00</time></trkpt><trkpt lat="44.616325" lon="33.738071"><ele>214.1</ele><time>2011-10-11T06:23:38.0000000+00:00</time></trkpt><trkpt lat="44.616322" lon="33.738079"><ele>214.1</ele><time>2011-10-11T06:23:43.0000000+00:00</time></trkpt><trkpt lat="44.616314" lon="33.738087"><ele>214.7</ele><time>2011-10-11T06:23:48.0000000+00:00</time></trkpt><trkpt lat="44.616306" lon="33.738094"><ele>215.2</ele><time>2011-10-11T06:23:53.0000000+00:00</time></trkpt><trkpt lat="44.616302" lon="33.738098"><ele>215.8</ele><time>2011-10-11T06:23:58.0000000+00:00</time></trkpt><trkpt lat="44.616302" lon="33.738102"><ele>216.3</ele><time>2011-10-11T06:24:03.0000000+00:00</time></trkpt><trkpt lat="44.616299" lon="33.738106"><ele>216.8</ele><time>2011-10-11T06:24:08.0000000+00:00</time></trkpt><trkpt lat="44.616299" lon="33.738106"><ele>217.3</ele><time>2011-10-11T06:24:13.0000000+00:00</time></trkpt><trkpt lat="44.616306" lon="33.738102"><ele>217.8</ele><time>2011-10-11T06:24:18.0000000+00:00</time></trkpt><trkpt lat="44.616322" lon="33.738094"><ele>218.3</ele><time>2011-10-11T06:24:23.0000000+00:00</time></trkpt><trkpt lat="44.616329" lon="33.738091"><ele>218.7</ele><time>2011-10-11T06:24:28.0000000+00:00</time></trkpt><trkpt lat="44.616329" lon="33.738098"><ele>219.3</ele><time>2011-10-11T06:24:33.0000000+00:00</time></trkpt><trkpt lat="44.616333" lon="33.738094"><ele>219.8</ele><time>2011-10-11T06:24:38.0000000+00:00</time></trkpt><trkpt lat="44.616329" lon="33.738091"><ele>220.2</ele><time>2011-10-11T06:24:43.0000000+00:00</time></trkpt><trkpt lat="44.616337" lon="33.738091"><ele>220.6</ele><time>2011-10-11T06:24:48.0000000+00:00</time></trkpt><trkpt lat="44.616341" lon="33.738091"><ele>220.9</ele><time>2011-10-11T06:24:53.0000000+00:00</time></trkpt><trkpt lat="44.616352" lon="33.738079"><ele>221.1</ele><time>2011-10-11T06:24:58.0000000+00:00</time></trkpt><trkpt lat="44.616379" lon="33.738087"><ele>221.2</ele><time>2011-10-11T06:25:03.0000000+00:00</time></trkpt><trkpt lat="44.616402" lon="33.738079"><ele>221.2</ele><time>2011-10-11T06:25:08.0000000+00:00</time></trkpt><trkpt lat="44.616341" lon="33.738026"><ele>220.8</ele><time>2011-10-11T06:25:13.0000000+00:00</time></trkpt><trkpt lat="44.61631" lon="33.738018"><ele>220.6</ele><time>2011-10-11T06:25:18.0000000+00:00</time></trkpt><trkpt lat="44.61631" lon="33.738022"><ele>219.9</ele><time>2011-10-11T06:25:23.0000000+00:00</time></trkpt><trkpt lat="44.616344" lon="33.738018"><ele>217.8</ele><time>2011-10-11T06:25:28.0000000+00:00</time></trkpt><trkpt lat="44.616379" lon="33.738029"><ele>214.5</ele><time>2011-10-11T06:25:33.0000000+00:00</time></trkpt><trkpt lat="44.616402" lon="33.738029"><ele>210.4</ele><time>2011-10-11T06:25:38.0000000+00:00</time></trkpt><trkpt lat="44.616436" lon="33.738037"><ele>206.1</ele><time>2011-10-11T06:25:43.0000000+00:00</time></trkpt><trkpt lat="44.616467" lon="33.738045"><ele>201.3</ele><time>2011-10-11T06:25:48.0000000+00:00</time></trkpt><trkpt lat="44.616505" lon="33.738052"><ele>196.2</ele><time>2011-10-11T06:25:53.0000000+00:00</time></trkpt><trkpt lat="44.616539" lon="33.73806"><ele>190.3</ele><time>2011-10-11T06:25:58.0000000+00:00</time></trkpt><trkpt lat="44.616573" lon="33.738068"><ele>184.3</ele><time>2011-10-11T06:26:03.0000000+00:00</time></trkpt><trkpt lat="44.616573" lon="33.738056"><ele>177.1</ele><time>2011-10-11T06:26:08.0000000+00:00</time></trkpt><trkpt lat="44.616554" lon="33.738045"><ele>173.4</ele><time>2011-10-11T06:26:13.0000000+00:00</time></trkpt><trkpt lat="44.616425" lon="33.738026"><ele>196.1</ele><time>2011-10-11T06:26:18.0000000+00:00</time></trkpt><trkpt lat="44.616367" lon="33.738052"><ele>187.2</ele><time>2011-10-11T06:26:23.0000000+00:00</time></trkpt><trkpt lat="44.616367" lon="33.737999"><ele>186.4</ele><time>2011-10-11T06:26:28.0000000+00:00</time></trkpt><trkpt lat="44.616371" lon="33.737995"><ele>185.6</ele><time>2011-10-11T06:26:33.0000000+00:00</time></trkpt><trkpt lat="44.616371" lon="33.737999"><ele>184.9</ele><time>2011-10-11T06:26:38.0000000+00:00</time></trkpt><trkpt lat="44.616375" lon="33.737988"><ele>183.9</ele><time>2011-10-11T06:26:43.0000000+00:00</time></trkpt><trkpt lat="44.616325" lon="33.737999"><ele>182.4</ele><time>2011-10-11T06:26:48.0000000+00:00</time></trkpt><trkpt lat="44.616314" lon="33.73801"><ele>182.1</ele><time>2011-10-11T06:26:53.0000000+00:00</time></trkpt><trkpt lat="44.616318" lon="33.73801"><ele>181.2</ele><time>2011-10-11T06:26:58.0000000+00:00</time></trkpt><trkpt lat="44.616318" lon="33.73801"><ele>180.5</ele><time>2011-10-11T06:27:03.0000000+00:00</time></trkpt><trkpt lat="44.616314" lon="33.738014"><ele>179.9</ele><time>2011-10-11T06:27:08.0000000+00:00</time></trkpt><trkpt lat="44.616314" lon="33.738018"><ele>179.3</ele><time>2011-10-11T06:27:13.0000000+00:00</time></trkpt><trkpt lat="44.616314" lon="33.738022"><ele>178.7</ele><time>2011-10-11T06:27:18.0000000+00:00</time></trkpt><trkpt lat="44.616314" lon="33.738026"><ele>178.1</ele><time>2011-10-11T06:27:23.0000000+00:00</time></trkpt><trkpt lat="44.616314" lon="33.738033"><ele>177.5</ele><time>2011-10-11T06:27:28.0000000+00:00</time></trkpt><trkpt lat="44.616325" lon="33.738037"><ele>176.9</ele><time>2011-10-11T06:27:33.0000000+00:00</time></trkpt><trkpt lat="44.616337" lon="33.738045"><ele>176.3</ele><time>2011-10-11T06:27:38.0000000+00:00</time></trkpt><trkpt lat="44.616348" lon="33.738052"><ele>175.7</ele><time>2011-10-11T06:27:43.0000000+00:00</time></trkpt><trkpt lat="44.616356" lon="33.73806"><ele>175.1</ele><time>2011-10-11T06:27:48.0000000+00:00</time></trkpt><trkpt lat="44.616364" lon="33.738064"><ele>174.5</ele><time>2011-10-11T06:27:53.0000000+00:00</time></trkpt><trkpt lat="44.616371" lon="33.738071"><ele>173.9</ele><time>2011-10-11T06:27:58.0000000+00:00</time></trkpt><trkpt lat="44.616375" lon="33.738075"><ele>173.3</ele><time>2011-10-11T06:28:03.0000000+00:00</time></trkpt><trkpt lat="44.616375" lon="33.738079"><ele>172.7</ele><time>2011-10-11T06:28:08.0000000+00:00</time></trkpt><trkpt lat="44.616379" lon="33.738087"><ele>172.1</ele><time>2011-10-11T06:28:13.0000000+00:00</time></trkpt><trkpt lat="44.616383" lon="33.738094"><ele>171.5</ele><time>2011-10-11T06:28:18.0000000+00:00</time></trkpt><trkpt lat="44.616386" lon="33.738094"><ele>170.8</ele><time>2011-10-11T06:28:23.0000000+00:00</time></trkpt><trkpt lat="44.616386" lon="33.738091"><ele>170.1</ele><time>2011-10-11T06:28:28.0000000+00:00</time></trkpt><trkpt lat="44.616386" lon="33.738083"><ele>169.5</ele><time>2011-10-11T06:28:33.0000000+00:00</time></trkpt><trkpt lat="44.616386" lon="33.738087"><ele>168.8</ele><time>2011-10-11T06:28:38.0000000+00:00</time></trkpt><trkpt lat="44.61639" lon="33.738087"><ele>168.2</ele><time>2011-10-11T06:28:43.0000000+00:00</time></trkpt><trkpt lat="44.616386" lon="33.738079"><ele>167.6</ele><time>2011-10-11T06:28:48.0000000+00:00</time></trkpt><trkpt lat="44.616379" lon="33.738071"><ele>167.0</ele><time>2011-10-11T06:28:53.0000000+00:00</time></trkpt><trkpt lat="44.616371" lon="33.738056"><ele>166.4</ele><time>2011-10-11T06:28:58.0000000+00:00</time></trkpt><trkpt lat="44.616364" lon="33.738045"><ele>165.8</ele><time>2011-10-11T06:29:03.0000000+00:00</time></trkpt><trkpt lat="44.616364" lon="33.738033"><ele>165.1</ele><time>2011-10-11T06:29:08.0000000+00:00</time></trkpt><trkpt lat="44.61636" lon="33.738022"><ele>164.4</ele><time>2011-10-11T06:29:13.0000000+00:00</time></trkpt><trkpt lat="44.61636" lon="33.738014"><ele>163.7</ele><time>2011-10-11T06:29:18.0000000+00:00</time></trkpt><trkpt lat="44.616364" lon="33.738007"><ele>163.0</ele><time>2011-10-11T06:29:23.0000000+00:00</time></trkpt><trkpt lat="44.616364" lon="33.737999"><ele>162.3</ele><time>2011-10-11T06:29:28.0000000+00:00</time></trkpt><trkpt lat="44.616367" lon="33.737999"><ele>161.5</ele><time>2011-10-11T06:29:33.0000000+00:00</time></trkpt><trkpt lat="44.616371" lon="33.737999"><ele>160.7</ele><time>2011-10-11T06:29:38.0000000+00:00</time></trkpt><trkpt lat="44.616375" lon="33.737999"><ele>159.9</ele><time>2011-10-11T06:29:43.0000000+00:00</time></trkpt><trkpt lat="44.616379" lon="33.737995"><ele>159.1</ele><time>2011-10-11T06:29:48.0000000+00:00</time></trkpt><trkpt lat="44.616379" lon="33.737988"><ele>158.4</ele><time>2011-10-11T06:29:53.0000000+00:00</time></trkpt><trkpt lat="44.616379" lon="33.73798"><ele>157.7</ele><time>2011-10-11T06:29:58.0000000+00:00</time></trkpt><trkpt lat="44.616375" lon="33.737972"><ele>157.0</ele><time>2011-10-11T06:30:03.0000000+00:00</time></trkpt><trkpt lat="44.616371" lon="33.737961"><ele>156.4</ele><time>2011-10-11T06:30:08.0000000+00:00</time></trkpt><trkpt lat="44.616371" lon="33.737949"><ele>155.8</ele><time>2011-10-11T06:30:13.0000000+00:00</time></trkpt><trkpt lat="44.616367" lon="33.737938"><ele>155.2</ele><time>2011-10-11T06:30:18.0000000+00:00</time></trkpt><trkpt lat="44.616367" lon="33.737934"><ele>154.7</ele><time>2011-10-11T06:30:23.0000000+00:00</time></trkpt><trkpt lat="44.616367" lon="33.73793"><ele>154.2</ele><time>2011-10-11T06:30:28.0000000+00:00</time></trkpt><trkpt lat="44.616371" lon="33.737934"><ele>153.7</ele><time>2011-10-11T06:30:33.0000000+00:00</time></trkpt><trkpt lat="44.616375" lon="33.737938"><ele>153.3</ele><time>2011-10-11T06:30:38.0000000+00:00</time></trkpt><trkpt lat="44.616375" lon="33.737938"><ele>153.0</ele><time>2011-10-11T06:30:43.0000000+00:00</time></trkpt><trkpt lat="44.616371" lon="33.737938"><ele>152.8</ele><time>2011-10-11T06:30:48.0000000+00:00</time></trkpt><trkpt lat="44.616371" lon="33.737938"><ele>152.8</ele><time>2011-10-11T06:30:53.0000000+00:00</time></trkpt><trkpt lat="44.616371" lon="33.737938"><ele>152.8</ele><time>2011-10-11T06:30:58.0000000+00:00</time></trkpt><trkpt lat="44.616371" lon="33.737938"><ele>152.8</ele><time>2011-10-11T06:31:03.0000000+00:00</time></trkpt><trkpt lat="44.616375" lon="33.737949"><ele>152.8</ele><time>2011-10-11T06:31:08.0000000+00:00</time></trkpt><trkpt lat="44.616379" lon="33.737961"><ele>152.7</ele><time>2011-10-11T06:31:13.0000000+00:00</time></trkpt><trkpt lat="44.616348" lon="33.737972"><ele>152.7</ele><time>2011-10-11T06:31:18.0000000+00:00</time></trkpt><trkpt lat="44.616356" lon="33.737961"><ele>153.2</ele><time>2011-10-11T06:31:23.0000000+00:00</time></trkpt><trkpt lat="44.616337" lon="33.737976"><ele>153.2</ele><time>2011-10-11T06:31:28.0000000+00:00</time></trkpt><trkpt lat="44.616287" lon="33.738049"><ele>153.2</ele><time>2011-10-11T06:31:33.0000000+00:00</time></trkpt><trkpt lat="44.616211" lon="33.738113"><ele>153.1</ele><time>2011-10-11T06:31:38.0000000+00:00</time></trkpt><trkpt lat="44.616127" lon="33.738201"><ele>153.9</ele><time>2011-10-11T06:31:43.0000000+00:00</time></trkpt><trkpt lat="44.616074" lon="33.738255"><ele>155.1</ele><time>2011-10-11T06:31:48.0000000+00:00</time></trkpt><trkpt lat="44.616024" lon="33.738281"><ele>155.2</ele><time>2011-10-11T06:31:53.0000000+00:00</time></trkpt><trkpt lat="44.616001" lon="33.738266"><ele>155.3</ele><time>2011-10-11T06:31:58.0000000+00:00</time></trkpt><trkpt lat="44.616001" lon="33.738266"><ele>155.1</ele><time>2011-10-11T06:32:03.0000000+00:00</time></trkpt><trkpt lat="44.615997" lon="33.738258"><ele>154.9</ele><time>2011-10-11T06:32:08.0000000+00:00</time></trkpt><trkpt lat="44.615997" lon="33.738255"><ele>154.8</ele><time>2011-10-11T06:32:13.0000000+00:00</time></trkpt><trkpt lat="44.615997" lon="33.738255"><ele>154.6</ele><time>2011-10-11T06:32:18.0000000+00:00</time></trkpt><trkpt lat="44.615993" lon="33.738251"><ele>154.4</ele><time>2011-10-11T06:32:23.0000000+00:00</time></trkpt><trkpt lat="44.615993" lon="33.738251"><ele>154.3</ele><time>2011-10-11T06:32:28.0000000+00:00</time></trkpt><trkpt lat="44.615993" lon="33.738251"><ele>154.1</ele><time>2011-10-11T06:32:33.0000000+00:00</time></trkpt><trkpt lat="44.61599" lon="33.738251"><ele>154.0</ele><time>2011-10-11T06:32:38.0000000+00:00</time></trkpt><trkpt lat="44.61599" lon="33.738251"><ele>153.8</ele><time>2011-10-11T06:32:43.0000000+00:00</time></trkpt><trkpt lat="44.61599" lon="33.738251"><ele>153.8</ele><time>2011-10-11T06:32:48.0000000+00:00</time></trkpt><trkpt lat="44.61599" lon="33.738251"><ele>153.8</ele><time>2011-10-11T06:32:53.0000000+00:00</time></trkpt><trkpt lat="44.61599" lon="33.738251"><ele>153.8</ele><time>2011-10-11T06:32:58.0000000+00:00</time></trkpt><trkpt lat="44.61599" lon="33.738251"><ele>153.9</ele><time>2011-10-11T06:33:03.0000000+00:00</time></trkpt><trkpt lat="44.61599" lon="33.738255"><ele>153.9</ele><time>2011-10-11T06:33:08.0000000+00:00</time></trkpt><trkpt lat="44.61599" lon="33.738255"><ele>154.0</ele><time>2011-10-11T06:33:13.0000000+00:00</time></trkpt><trkpt lat="44.61599" lon="33.738255"><ele>154.0</ele><time>2011-10-11T06:33:18.0000000+00:00</time></trkpt><trkpt lat="44.61599" lon="33.738255"><ele>154.1</ele><time>2011-10-11T06:33:23.0000000+00:00</time></trkpt><trkpt lat="44.61599" lon="33.738255"><ele>154.1</ele><time>2011-10-11T06:33:28.0000000+00:00</time></trkpt><trkpt lat="44.615986" lon="33.738255"><ele>154.1</ele><time>2011-10-11T06:33:33.0000000+00:00</time></trkpt><trkpt lat="44.615986" lon="33.738255"><ele>154.1</ele><time>2011-10-11T06:33:38.0000000+00:00</time></trkpt><trkpt lat="44.615986" lon="33.738255"><ele>154.2</ele><time>2011-10-11T06:33:43.0000000+00:00</time></trkpt><trkpt lat="44.615986" lon="33.738255"><ele>154.2</ele><time>2011-10-11T06:33:48.0000000+00:00</time></trkpt><trkpt lat="44.615986" lon="33.738258"><ele>154.2</ele><time>2011-10-11T06:33:53.0000000+00:00</time></trkpt><trkpt lat="44.61599" lon="33.738262"><ele>154.2</ele><time>2011-10-11T06:33:58.0000000+00:00</time></trkpt><trkpt lat="44.61599" lon="33.738266"><ele>154.2</ele><time>2011-10-11T06:34:03.0000000+00:00</time></trkpt><trkpt lat="44.61599" lon="33.73827"><ele>154.2</ele><time>2011-10-11T06:34:08.0000000+00:00</time></trkpt><trkpt lat="44.61599" lon="33.738274"><ele>154.2</ele><time>2011-10-11T06:34:13.0000000+00:00</time></trkpt><trkpt lat="44.615986" lon="33.738277"><ele>154.2</ele><time>2011-10-11T06:34:18.0000000+00:00</time></trkpt><trkpt lat="44.615986" lon="33.738281"><ele>154.2</ele><time>2011-10-11T06:34:23.0000000+00:00</time></trkpt><trkpt lat="44.615982" lon="33.738285"><ele>154.2</ele><time>2011-10-11T06:34:28.0000000+00:00</time></trkpt><trkpt lat="44.615978" lon="33.738289"><ele>154.2</ele><time>2011-10-11T06:34:33.0000000+00:00</time></trkpt><trkpt lat="44.615974" lon="33.738297"><ele>154.2</ele><time>2011-10-11T06:34:38.0000000+00:00</time></trkpt><trkpt lat="44.615971" lon="33.738304"><ele>154.2</ele><time>2011-10-11T06:34:43.0000000+00:00</time></trkpt><trkpt lat="44.615971" lon="33.738304"><ele>154.2</ele><time>2011-10-11T06:34:48.0000000+00:00</time></trkpt><trkpt lat="44.615967" lon="33.7383"><ele>154.2</ele><time>2011-10-11T06:34:53.0000000+00:00</time></trkpt><trkpt lat="44.615967" lon="33.738297"><ele>154.2</ele><time>2011-10-11T06:34:58.0000000+00:00</time></trkpt><trkpt lat="44.615967" lon="33.738293"><ele>154.3</ele><time>2011-10-11T06:35:03.0000000+00:00</time></trkpt><trkpt lat="44.615971" lon="33.738289"><ele>154.3</ele><time>2011-10-11T06:35:08.0000000+00:00</time></trkpt><trkpt lat="44.615971" lon="33.738285"><ele>154.3</ele><time>2011-10-11T06:35:13.0000000+00:00</time></trkpt><trkpt lat="44.615974" lon="33.738281"><ele>154.3</ele><time>2011-10-11T06:35:18.0000000+00:00</time></trkpt><trkpt lat="44.615974" lon="33.738277"><ele>154.3</ele><time>2011-10-11T06:35:23.0000000+00:00</time></trkpt><trkpt lat="44.615974" lon="33.738277"><ele>154.3</ele><time>2011-10-11T06:35:28.0000000+00:00</time></trkpt><trkpt lat="44.615974" lon="33.738277"><ele>154.4</ele><time>2011-10-11T06:35:33.0000000+00:00</time></trkpt><trkpt lat="44.615971" lon="33.738277"><ele>154.4</ele><time>2011-10-11T06:35:38.0000000+00:00</time></trkpt><trkpt lat="44.615967" lon="33.738277"><ele>154.4</ele><time>2011-10-11T06:35:43.0000000+00:00</time></trkpt><trkpt lat="44.615963" lon="33.738277"><ele>154.4</ele><time>2011-10-11T06:35:48.0000000+00:00</time></trkpt><trkpt lat="44.615955" lon="33.738266"><ele>154.4</ele><time>2011-10-11T06:35:53.0000000+00:00</time></trkpt><trkpt lat="44.615952" lon="33.738258"><ele>154.4</ele><time>2011-10-11T06:35:58.0000000+00:00</time></trkpt><trkpt lat="44.615982" lon="33.738251"><ele>154.5</ele><time>2011-10-11T06:36:03.0000000+00:00</time></trkpt><trkpt lat="44.616177" lon="33.738224"><ele>154.5</ele><time>2011-10-11T06:36:08.0000000+00:00</time></trkpt><trkpt lat="44.616299" lon="33.738125"><ele>154.7</ele><time>2011-10-11T06:36:13.0000000+00:00</time></trkpt><trkpt lat="44.616291" lon="33.738113"><ele>155.0</ele><time>2011-10-11T06:36:18.0000000+00:00</time></trkpt><trkpt lat="44.616333" lon="33.738079"><ele>155.2</ele><time>2011-10-11T06:36:23.0000000+00:00</time></trkpt><trkpt lat="44.616283" lon="33.738144"><ele>155.5</ele><time>2011-10-11T06:36:28.0000000+00:00</time></trkpt><trkpt lat="44.616165" lon="33.738224"><ele>155.6</ele><time>2011-10-11T06:36:33.0000000+00:00</time></trkpt><trkpt lat="44.616039" lon="33.738216"><ele>155.8</ele><time>2011-10-11T06:36:38.0000000+00:00</time></trkpt><trkpt lat="44.616005" lon="33.738228"><ele>156.3</ele><time>2011-10-11T06:36:43.0000000+00:00</time></trkpt><trkpt lat="44.61599" lon="33.738232"><ele>156.2</ele><time>2011-10-11T06:36:48.0000000+00:00</time></trkpt><trkpt lat="44.615948" lon="33.738251"><ele>157.7</ele><time>2011-10-11T06:36:53.0000000+00:00</time></trkpt><trkpt lat="44.615921" lon="33.738247"><ele>159.0</ele><time>2011-10-11T06:36:58.0000000+00:00</time></trkpt><trkpt lat="44.615894" lon="33.738255"><ele>159.2</ele><time>2011-10-11T06:37:03.0000000+00:00</time></trkpt><trkpt lat="44.615902" lon="33.738243"><ele>159.5</ele><time>2011-10-11T06:37:08.0000000+00:00</time></trkpt><trkpt lat="44.615898" lon="33.738255"><ele>159.6</ele><time>2011-10-11T06:37:13.0000000+00:00</time></trkpt><trkpt lat="44.615902" lon="33.738258"><ele>159.5</ele><time>2011-10-11T06:37:18.0000000+00:00</time></trkpt><trkpt lat="44.615902" lon="33.738262"><ele>159.5</ele><time>2011-10-11T06:37:23.0000000+00:00</time></trkpt><trkpt lat="44.615902" lon="33.738262"><ele>159.5</ele><time>2011-10-11T06:37:28.0000000+00:00</time></trkpt><trkpt lat="44.615898" lon="33.738266"><ele>159.6</ele><time>2011-10-11T06:37:33.0000000+00:00</time></trkpt><trkpt lat="44.615887" lon="33.738251"><ele>159.7</ele><time>2011-10-11T06:37:38.0000000+00:00</time></trkpt><trkpt lat="44.615891" lon="33.738243"><ele>159.8</ele><time>2011-10-11T06:37:43.0000000+00:00</time></trkpt><trkpt lat="44.615913" lon="33.738235"><ele>160.0</ele><time>2011-10-11T06:37:48.0000000+00:00</time></trkpt><trkpt lat="44.615929" lon="33.73822"><ele>160.1</ele><time>2011-10-11T06:37:53.0000000+00:00</time></trkpt><trkpt lat="44.615952" lon="33.738205"><ele>160.2</ele><time>2011-10-11T06:37:58.0000000+00:00</time></trkpt><trkpt lat="44.615959" lon="33.738224"><ele>160.2</ele><time>2011-10-11T06:38:03.0000000+00:00</time></trkpt><trkpt lat="44.615978" lon="33.738239"><ele>160.4</ele><time>2011-10-11T06:38:08.0000000+00:00</time></trkpt><trkpt lat="44.615929" lon="33.738277"><ele>161.0</ele><time>2011-10-11T06:38:13.0000000+00:00</time></trkpt><trkpt lat="44.615921" lon="33.738319"><ele>161.3</ele><time>2011-10-11T06:38:18.0000000+00:00</time></trkpt><trkpt lat="44.615929" lon="33.738342"><ele>161.8</ele><time>2011-10-11T06:38:23.0000000+00:00</time></trkpt><trkpt lat="44.615929" lon="33.738338"><ele>161.8</ele><time>2011-10-11T06:38:28.0000000+00:00</time></trkpt><trkpt lat="44.615929" lon="33.738338"><ele>161.8</ele><time>2011-10-11T06:38:33.0000000+00:00</time></trkpt><trkpt lat="44.615917" lon="33.738342"><ele>161.7</ele><time>2011-10-11T06:38:38.0000000+00:00</time></trkpt><trkpt lat="44.615906" lon="33.7383"><ele>161.7</ele><time>2011-10-11T06:38:43.0000000+00:00</time></trkpt><trkpt lat="44.615906" lon="33.738308"><ele>162.6</ele><time>2011-10-11T06:38:48.0000000+00:00</time></trkpt><trkpt lat="44.615906" lon="33.7383"><ele>163.7</ele><time>2011-10-11T06:38:53.0000000+00:00</time></trkpt><trkpt lat="44.615906" lon="33.7383"><ele>164.0</ele><time>2011-10-11T06:38:58.0000000+00:00</time></trkpt><trkpt lat="44.61591" lon="33.738304"><ele>164.3</ele><time>2011-10-11T06:39:03.0000000+00:00</time></trkpt><trkpt lat="44.615929" lon="33.738304"><ele>165.5</ele><time>2011-10-11T06:39:08.0000000+00:00</time></trkpt><trkpt lat="44.615898" lon="33.7383"><ele>167.2</ele><time>2011-10-11T06:39:13.0000000+00:00</time></trkpt><trkpt lat="44.615891" lon="33.738293"><ele>168.2</ele><time>2011-10-11T06:39:18.0000000+00:00</time></trkpt><trkpt lat="44.615887" lon="33.738277"><ele>169.6</ele><time>2011-10-11T06:39:23.0000000+00:00</time></trkpt><trkpt lat="44.61586" lon="33.738281"><ele>170.4</ele><time>2011-10-11T06:39:28.0000000+00:00</time></trkpt><trkpt lat="44.615829" lon="33.738281"><ele>171.2</ele><time>2011-10-11T06:39:33.0000000+00:00</time></trkpt><trkpt lat="44.615814" lon="33.738297"><ele>172.0</ele><time>2011-10-11T06:39:38.0000000+00:00</time></trkpt><trkpt lat="44.615788" lon="33.738319"><ele>172.8</ele><time>2011-10-11T06:39:43.0000000+00:00</time></trkpt><trkpt lat="44.615757" lon="33.738297"><ele>173.7</ele><time>2011-10-11T06:39:48.0000000+00:00</time></trkpt><trkpt lat="44.615681" lon="33.738224"><ele>174.6</ele><time>2011-10-11T06:39:53.0000000+00:00</time></trkpt><trkpt lat="44.615669" lon="33.738213"><ele>175.5</ele><time>2011-10-11T06:39:58.0000000+00:00</time></trkpt><trkpt lat="44.615673" lon="33.738182"><ele>176.2</ele><time>2011-10-11T06:40:03.0000000+00:00</time></trkpt><trkpt lat="44.615623" lon="33.738171"><ele>176.7</ele><time>2011-10-11T06:40:08.0000000+00:00</time></trkpt><trkpt lat="44.615578" lon="33.738152"><ele>177.3</ele><time>2011-10-11T06:40:13.0000000+00:00</time></trkpt><trkpt lat="44.61552" lon="33.738167"><ele>177.6</ele><time>2011-10-11T06:40:18.0000000+00:00</time></trkpt><trkpt lat="44.615486" lon="33.738159"><ele>178.1</ele><time>2011-10-11T06:40:23.0000000+00:00</time></trkpt><trkpt lat="44.615444" lon="33.738163"><ele>178.5</ele><time>2011-10-11T06:40:28.0000000+00:00</time></trkpt><trkpt lat="44.61541" lon="33.738163"><ele>179.1</ele><time>2011-10-11T06:40:33.0000000+00:00</time></trkpt><trkpt lat="44.615383" lon="33.738155"><ele>179.8</ele><time>2011-10-11T06:40:38.0000000+00:00</time></trkpt><trkpt lat="44.61533" lon="33.738155"><ele>180.7</ele><time>2011-10-11T06:40:43.0000000+00:00</time></trkpt><trkpt lat="44.61528" lon="33.738167"><ele>181.4</ele><time>2011-10-11T06:40:48.0000000+00:00</time></trkpt><trkpt lat="44.615231" lon="33.738186"><ele>182.4</ele><time>2011-10-11T06:40:53.0000000+00:00</time></trkpt><trkpt lat="44.615204" lon="33.73819"><ele>183.3</ele><time>2011-10-11T06:40:58.0000000+00:00</time></trkpt><trkpt lat="44.615162" lon="33.738167"><ele>184.2</ele><time>2011-10-11T06:41:03.0000000+00:00</time></trkpt><trkpt lat="44.615128" lon="33.738144"><ele>185.4</ele><time>2011-10-11T06:41:08.0000000+00:00</time></trkpt><trkpt lat="44.615105" lon="33.738098"><ele>186.5</ele><time>2011-10-11T06:41:13.0000000+00:00</time></trkpt><trkpt lat="44.615025" lon="33.738106"><ele>187.1</ele><time>2011-10-11T06:41:18.0000000+00:00</time></trkpt><trkpt lat="44.614937" lon="33.738159"><ele>187.3</ele><time>2011-10-11T06:41:23.0000000+00:00</time></trkpt><trkpt lat="44.614902" lon="33.738197"><ele>188.0</ele><time>2011-10-11T06:41:28.0000000+00:00</time></trkpt><trkpt lat="44.614853" lon="33.738216"><ele>189.5</ele><time>2011-10-11T06:41:33.0000000+00:00</time></trkpt><trkpt lat="44.614864" lon="33.738194"><ele>190.5</ele><time>2011-10-11T06:41:38.0000000+00:00</time></trkpt><trkpt lat="44.614864" lon="33.738163"><ele>191.0</ele><time>2011-10-11T06:41:43.0000000+00:00</time></trkpt><trkpt lat="44.614845" lon="33.738163"><ele>191.3</ele><time>2011-10-11T06:41:48.0000000+00:00</time></trkpt><trkpt lat="44.61483" lon="33.738178"><ele>192.2</ele><time>2011-10-11T06:41:53.0000000+00:00</time></trkpt><trkpt lat="44.614815" lon="33.738159"><ele>192.4</ele><time>2011-10-11T06:41:58.0000000+00:00</time></trkpt><trkpt lat="44.614773" lon="33.738194"><ele>193.5</ele><time>2011-10-11T06:42:03.0000000+00:00</time></trkpt><trkpt lat="44.614754" lon="33.738155"><ele>194.1</ele><time>2011-10-11T06:42:08.0000000+00:00</time></trkpt><trkpt lat="44.614735" lon="33.738121"><ele>195.7</ele><time>2011-10-11T06:42:13.0000000+00:00</time></trkpt><trkpt lat="44.614723" lon="33.738163"><ele>197.0</ele><time>2011-10-11T06:42:18.0000000+00:00</time></trkpt><trkpt lat="44.614704" lon="33.738167"><ele>197.5</ele><time>2011-10-11T06:42:23.0000000+00:00</time></trkpt><trkpt lat="44.614689" lon="33.738155"><ele>198.4</ele><time>2011-10-11T06:42:28.0000000+00:00</time></trkpt><trkpt lat="44.614685" lon="33.738106"><ele>199.3</ele><time>2011-10-11T06:42:33.0000000+00:00</time></trkpt><trkpt lat="44.614658" lon="33.738075"><ele>200.8</ele><time>2011-10-11T06:42:38.0000000+00:00</time></trkpt><trkpt lat="44.614635" lon="33.73806"><ele>201.9</ele><time>2011-10-11T06:42:43.0000000+00:00</time></trkpt><trkpt lat="44.614632" lon="33.738029"><ele>202.6</ele><time>2011-10-11T06:42:48.0000000+00:00</time></trkpt><trkpt lat="44.614605" lon="33.738007"><ele>203.3</ele><time>2011-10-11T06:42:53.0000000+00:00</time></trkpt><trkpt lat="44.614601" lon="33.737965"><ele>203.9</ele><time>2011-10-11T06:42:58.0000000+00:00</time></trkpt><trkpt lat="44.614597" lon="33.737934"><ele>204.7</ele><time>2011-10-11T06:43:03.0000000+00:00</time></trkpt><trkpt lat="44.614609" lon="33.737923"><ele>206.0</ele><time>2011-10-11T06:43:08.0000000+00:00</time></trkpt><trkpt lat="44.614605" lon="33.737972"><ele>206.8</ele><time>2011-10-11T06:43:13.0000000+00:00</time></trkpt><trkpt lat="44.614578" lon="33.737934"><ele>208.1</ele><time>2011-10-11T06:43:18.0000000+00:00</time></trkpt><trkpt lat="44.614536" lon="33.737984"><ele>209.6</ele><time>2011-10-11T06:43:23.0000000+00:00</time></trkpt><trkpt lat="44.614517" lon="33.737988"><ele>210.7</ele><time>2011-10-11T06:43:28.0000000+00:00</time></trkpt><trkpt lat="44.614536" lon="33.737946"><ele>212.7</ele><time>2011-10-11T06:43:33.0000000+00:00</time></trkpt><trkpt lat="44.614498" lon="33.737976"><ele>215.0</ele><time>2011-10-11T06:43:38.0000000+00:00</time></trkpt><trkpt lat="44.614449" lon="33.737968"><ele>216.3</ele><time>2011-10-11T06:43:43.0000000+00:00</time></trkpt><trkpt lat="44.614399" lon="33.737976"><ele>217.2</ele><time>2011-10-11T06:43:48.0000000+00:00</time></trkpt><trkpt lat="44.614353" lon="33.738003"><ele>218.0</ele><time>2011-10-11T06:43:53.0000000+00:00</time></trkpt><trkpt lat="44.614338" lon="33.738029"><ele>218.8</ele><time>2011-10-11T06:43:58.0000000+00:00</time></trkpt><trkpt lat="44.614346" lon="33.738037"><ele>219.5</ele><time>2011-10-11T06:44:03.0000000+00:00</time></trkpt><trkpt lat="44.614342" lon="33.738033"><ele>219.7</ele><time>2011-10-11T06:44:08.0000000+00:00</time></trkpt><trkpt lat="44.614323" lon="33.738026"><ele>220.0</ele><time>2011-10-11T06:44:13.0000000+00:00</time></trkpt><trkpt lat="44.614326" lon="33.738029"><ele>220.3</ele><time>2011-10-11T06:44:18.0000000+00:00</time></trkpt><trkpt lat="44.614311" lon="33.738033"><ele>220.6</ele><time>2011-10-11T06:44:23.0000000+00:00</time></trkpt><trkpt lat="44.614307" lon="33.738045"><ele>220.8</ele><time>2011-10-11T06:44:28.0000000+00:00</time></trkpt><trkpt lat="44.614304" lon="33.738049"><ele>220.9</ele><time>2011-10-11T06:44:33.0000000+00:00</time></trkpt><trkpt lat="44.614296" lon="33.738049"><ele>221.0</ele><time>2011-10-11T06:44:38.0000000+00:00</time></trkpt><trkpt lat="44.614273" lon="33.738045"><ele>221.1</ele><time>2011-10-11T06:44:43.0000000+00:00</time></trkpt><trkpt lat="44.614239" lon="33.738037"><ele>221.2</ele><time>2011-10-11T06:44:48.0000000+00:00</time></trkpt><trkpt lat="44.614159" lon="33.738007"><ele>221.8</ele><time>2011-10-11T06:44:53.0000000+00:00</time></trkpt><trkpt lat="44.614117" lon="33.737968"><ele>222.2</ele><time>2011-10-11T06:44:58.0000000+00:00</time></trkpt><trkpt lat="44.614071" lon="33.737949"><ele>223.3</ele><time>2011-10-11T06:45:03.0000000+00:00</time></trkpt><trkpt lat="44.614029" lon="33.737968"><ele>224.2</ele><time>2011-10-11T06:45:08.0000000+00:00</time></trkpt><trkpt lat="44.614006" lon="33.738022"><ele>225.3</ele><time>2011-10-11T06:45:13.0000000+00:00</time></trkpt><trkpt lat="44.614021" lon="33.738022"><ele>226.3</ele><time>2011-10-11T06:45:18.0000000+00:00</time></trkpt><trkpt lat="44.61401" lon="33.738045"><ele>228.0</ele><time>2011-10-11T06:45:23.0000000+00:00</time></trkpt><trkpt lat="44.61401" lon="33.738049"><ele>229.2</ele><time>2011-10-11T06:45:28.0000000+00:00</time></trkpt><trkpt lat="44.614006" lon="33.738064"><ele>231.0</ele><time>2011-10-11T06:45:33.0000000+00:00</time></trkpt><trkpt lat="44.613995" lon="33.738102"><ele>232.2</ele><time>2011-10-11T06:45:38.0000000+00:00</time></trkpt><trkpt lat="44.613972" lon="33.738136"><ele>233.2</ele><time>2011-10-11T06:45:43.0000000+00:00</time></trkpt><trkpt lat="44.613964" lon="33.73814"><ele>235.9</ele><time>2011-10-11T06:45:48.0000000+00:00</time></trkpt><trkpt lat="44.613964" lon="33.73814"><ele>235.9</ele><time>2011-10-11T06:45:53.0000000+00:00</time></trkpt><trkpt lat="44.613964" lon="33.73814"><ele>236.0</ele><time>2011-10-11T06:45:58.0000000+00:00</time></trkpt><trkpt lat="44.613964" lon="33.73814"><ele>236.0</ele><time>2011-10-11T06:46:03.0000000+00:00</time></trkpt><trkpt lat="44.613964" lon="33.73814"><ele>236.1</ele><time>2011-10-11T06:46:08.0000000+00:00</time></trkpt><trkpt lat="44.613972" lon="33.73814"><ele>237.1</ele><time>2011-10-11T06:46:13.0000000+00:00</time></trkpt><trkpt lat="44.613976" lon="33.738144"><ele>239.2</ele><time>2011-10-11T06:46:18.0000000+00:00</time></trkpt><trkpt lat="44.613926" lon="33.738182"><ele>240.8</ele><time>2011-10-11T06:46:23.0000000+00:00</time></trkpt><trkpt lat="44.613895" lon="33.73827"><ele>243.0</ele><time>2011-10-11T06:46:28.0000000+00:00</time></trkpt><trkpt lat="44.61388" lon="33.738346"><ele>244.4</ele><time>2011-10-11T06:46:33.0000000+00:00</time></trkpt><trkpt lat="44.61388" lon="33.738354"><ele>243.9</ele><time>2011-10-11T06:46:38.0000000+00:00</time></trkpt><trkpt lat="44.613861" lon="33.73838"><ele>244.0</ele><time>2011-10-11T06:46:43.0000000+00:00</time></trkpt><trkpt lat="44.613811" lon="33.7384"><ele>245.6</ele><time>2011-10-11T06:46:48.0000000+00:00</time></trkpt><trkpt lat="44.613762" lon="33.738392"><ele>248.2</ele><time>2011-10-11T06:46:53.0000000+00:00</time></trkpt><trkpt lat="44.613724" lon="33.73838"><ele>249.9</ele><time>2011-10-11T06:46:58.0000000+00:00</time></trkpt><trkpt lat="44.613682" lon="33.738388"><ele>251.8</ele><time>2011-10-11T06:47:03.0000000+00:00</time></trkpt><trkpt lat="44.613632" lon="33.738403"><ele>253.2</ele><time>2011-10-11T06:47:08.0000000+00:00</time></trkpt><trkpt lat="44.613594" lon="33.738434"><ele>254.6</ele><time>2011-10-11T06:47:13.0000000+00:00</time></trkpt><trkpt lat="44.613602" lon="33.738415"><ele>255.3</ele><time>2011-10-11T06:47:18.0000000+00:00</time></trkpt><trkpt lat="44.613625" lon="33.738388"><ele>256.0</ele><time>2011-10-11T06:47:23.0000000+00:00</time></trkpt><trkpt lat="44.61367" lon="33.738369"><ele>256.9</ele><time>2011-10-11T06:47:28.0000000+00:00</time></trkpt><trkpt lat="44.613716" lon="33.738392"><ele>257.5</ele><time>2011-10-11T06:47:33.0000000+00:00</time></trkpt><trkpt lat="44.613743" lon="33.738411"><ele>257.7</ele><time>2011-10-11T06:47:38.0000000+00:00</time></trkpt><trkpt lat="44.613743" lon="33.738419"><ele>257.6</ele><time>2011-10-11T06:47:43.0000000+00:00</time></trkpt><trkpt lat="44.613754" lon="33.738434"><ele>257.7</ele><time>2011-10-11T06:47:48.0000000+00:00</time></trkpt><trkpt lat="44.61377" lon="33.738434"><ele>257.3</ele><time>2011-10-11T06:47:53.0000000+00:00</time></trkpt><trkpt lat="44.61377" lon="33.738426"><ele>257.1</ele><time>2011-10-11T06:47:58.0000000+00:00</time></trkpt><trkpt lat="44.613773" lon="33.738422"><ele>256.9</ele><time>2011-10-11T06:48:03.0000000+00:00</time></trkpt><trkpt lat="44.613773" lon="33.738422"><ele>256.7</ele><time>2011-10-11T06:48:08.0000000+00:00</time></trkpt><trkpt lat="44.61377" lon="33.738426"><ele>256.7</ele><time>2011-10-11T06:48:13.0000000+00:00</time></trkpt><trkpt lat="44.61377" lon="33.738426"><ele>256.7</ele><time>2011-10-11T06:48:18.0000000+00:00</time></trkpt><trkpt lat="44.61377" lon="33.738426"><ele>256.7</ele><time>2011-10-11T06:48:23.0000000+00:00</time></trkpt><trkpt lat="44.61377" lon="33.738426"><ele>256.7</ele><time>2011-10-11T06:48:28.0000000+00:00</time></trkpt><trkpt lat="44.61377" lon="33.738426"><ele>256.7</ele><time>2011-10-11T06:48:33.0000000+00:00</time></trkpt><trkpt lat="44.613773" lon="33.73843"><ele>256.8</ele><time>2011-10-11T06:48:38.0000000+00:00</time></trkpt><trkpt lat="44.613777" lon="33.73843"><ele>256.9</ele><time>2011-10-11T06:48:43.0000000+00:00</time></trkpt><trkpt lat="44.613777" lon="33.73843"><ele>257.4</ele><time>2011-10-11T06:48:48.0000000+00:00</time></trkpt><trkpt lat="44.613773" lon="33.73843"><ele>257.6</ele><time>2011-10-11T06:48:53.0000000+00:00</time></trkpt><trkpt lat="44.613773" lon="33.73843"><ele>257.7</ele><time>2011-10-11T06:48:58.0000000+00:00</time></trkpt><trkpt lat="44.613773" lon="33.73843"><ele>257.7</ele><time>2011-10-11T06:49:03.0000000+00:00</time></trkpt><trkpt lat="44.613773" lon="33.73843"><ele>257.7</ele><time>2011-10-11T06:49:08.0000000+00:00</time></trkpt><trkpt lat="44.613773" lon="33.73843"><ele>257.7</ele><time>2011-10-11T06:49:13.0000000+00:00</time></trkpt><trkpt lat="44.613773" lon="33.73843"><ele>257.7</ele><time>2011-10-11T06:49:18.0000000+00:00</time></trkpt><trkpt lat="44.613773" lon="33.73843"><ele>257.8</ele><time>2011-10-11T06:49:23.0000000+00:00</time></trkpt><trkpt lat="44.613773" lon="33.73843"><ele>257.8</ele><time>2011-10-11T06:49:28.0000000+00:00</time></trkpt><trkpt lat="44.613773" lon="33.73843"><ele>257.8</ele><time>2011-10-11T06:49:33.0000000+00:00</time></trkpt><trkpt lat="44.613773" lon="33.73843"><ele>257.7</ele><time>2011-10-11T06:49:38.0000000+00:00</time></trkpt><trkpt lat="44.613773" lon="33.73843"><ele>257.7</ele><time>2011-10-11T06:49:43.0000000+00:00</time></trkpt><trkpt lat="44.613773" lon="33.73843"><ele>257.7</ele><time>2011-10-11T06:49:48.0000000+00:00</time></trkpt><trkpt lat="44.613773" lon="33.73843"><ele>257.7</ele><time>2011-10-11T06:49:53.0000000+00:00</time></trkpt><trkpt lat="44.613773" lon="33.73843"><ele>257.8</ele><time>2011-10-11T06:49:58.0000000+00:00</time></trkpt><trkpt lat="44.613773" lon="33.73843"><ele>257.7</ele><time>2011-10-11T06:50:03.0000000+00:00</time></trkpt><trkpt lat="44.613773" lon="33.73843"><ele>257.7</ele><time>2011-10-11T06:50:08.0000000+00:00</time></trkpt><trkpt lat="44.613777" lon="33.738426"><ele>257.6</ele><time>2011-10-11T06:50:13.0000000+00:00</time></trkpt><trkpt lat="44.613781" lon="33.73843"><ele>257.6</ele><time>2011-10-11T06:50:18.0000000+00:00</time></trkpt><trkpt lat="44.613777" lon="33.738419"><ele>258.2</ele><time>2011-10-11T06:50:23.0000000+00:00</time></trkpt><trkpt lat="44.613743" lon="33.738388"><ele>259.6</ele><time>2011-10-11T06:50:28.0000000+00:00</time></trkpt><trkpt lat="44.613716" lon="33.738384"><ele>260.9</ele><time>2011-10-11T06:50:33.0000000+00:00</time></trkpt><trkpt lat="44.613678" lon="33.738377"><ele>262.6</ele><time>2011-10-11T06:50:38.0000000+00:00</time></trkpt><trkpt lat="44.613655" lon="33.738369"><ele>265.7</ele><time>2011-10-11T06:50:43.0000000+00:00</time></trkpt><trkpt lat="44.613621" lon="33.7384"><ele>268.3</ele><time>2011-10-11T06:50:48.0000000+00:00</time></trkpt><trkpt lat="44.613586" lon="33.738438"><ele>268.9</ele><time>2011-10-11T06:50:53.0000000+00:00</time></trkpt><trkpt lat="44.613548" lon="33.738449"><ele>270.1</ele><time>2011-10-11T06:50:58.0000000+00:00</time></trkpt><trkpt lat="44.613514" lon="33.738461"><ele>271.1</ele><time>2011-10-11T06:51:03.0000000+00:00</time></trkpt><trkpt lat="44.613476" lon="33.738464"><ele>271.2</ele><time>2011-10-11T06:51:08.0000000+00:00</time></trkpt><trkpt lat="44.613445" lon="33.738487"><ele>271.5</ele><time>2011-10-11T06:51:13.0000000+00:00</time></trkpt><trkpt lat="44.613411" lon="33.738503"><ele>272.1</ele><time>2011-10-11T06:51:18.0000000+00:00</time></trkpt><trkpt lat="44.613369" lon="33.738503"><ele>272.7</ele><time>2011-10-11T06:51:23.0000000+00:00</time></trkpt><trkpt lat="44.613327" lon="33.738514"><ele>273.9</ele><time>2011-10-11T06:51:28.0000000+00:00</time></trkpt><trkpt lat="44.613281" lon="33.738529"><ele>275.2</ele><time>2011-10-11T06:51:33.0000000+00:00</time></trkpt><trkpt lat="44.613247" lon="33.738533"><ele>276.4</ele><time>2011-10-11T06:51:38.0000000+00:00</time></trkpt><trkpt lat="44.613216" lon="33.738525"><ele>276.1</ele><time>2011-10-11T06:51:43.0000000+00:00</time></trkpt><trkpt lat="44.613186" lon="33.738544"><ele>277.3</ele><time>2011-10-11T06:51:48.0000000+00:00</time></trkpt><trkpt lat="44.613167" lon="33.73859"><ele>278.9</ele><time>2011-10-11T06:51:53.0000000+00:00</time></trkpt><trkpt lat="44.613144" lon="33.73864"><ele>280.7</ele><time>2011-10-11T06:51:58.0000000+00:00</time></trkpt><trkpt lat="44.613102" lon="33.738644"><ele>281.8</ele><time>2011-10-11T06:52:03.0000000+00:00</time></trkpt><trkpt lat="44.613064" lon="33.73867"><ele>283.4</ele><time>2011-10-11T06:52:08.0000000+00:00</time></trkpt><trkpt lat="44.613022" lon="33.738712"><ele>285.4</ele><time>2011-10-11T06:52:13.0000000+00:00</time></trkpt><trkpt lat="44.612976" lon="33.738731"><ele>287.2</ele><time>2011-10-11T06:52:18.0000000+00:00</time></trkpt><trkpt lat="44.612949" lon="33.738789"><ele>288.0</ele><time>2011-10-11T06:52:23.0000000+00:00</time></trkpt><trkpt lat="44.6129" lon="33.738781"><ele>288.6</ele><time>2011-10-11T06:52:28.0000000+00:00</time></trkpt><trkpt lat="44.612869" lon="33.738781"><ele>290.2</ele><time>2011-10-11T06:52:33.0000000+00:00</time></trkpt><trkpt lat="44.612812" lon="33.738811"><ele>291.6</ele><time>2011-10-11T06:52:38.0000000+00:00</time></trkpt><trkpt lat="44.612755" lon="33.738865"><ele>292.2</ele><time>2011-10-11T06:52:43.0000000+00:00</time></trkpt><trkpt lat="44.612705" lon="33.738911"><ele>293.0</ele><time>2011-10-11T06:52:48.0000000+00:00</time></trkpt><trkpt lat="44.612663" lon="33.738983"><ele>292.3</ele><time>2011-10-11T06:52:53.0000000+00:00</time></trkpt><trkpt lat="44.612614" lon="33.739044"><ele>293.8</ele><time>2011-10-11T06:52:58.0000000+00:00</time></trkpt><trkpt lat="44.612568" lon="33.739094"><ele>295.6</ele><time>2011-10-11T06:53:03.0000000+00:00</time></trkpt><trkpt lat="44.612518" lon="33.739101"><ele>297.2</ele><time>2011-10-11T06:53:08.0000000+00:00</time></trkpt><trkpt lat="44.612446" lon="33.739098"><ele>297.5</ele><time>2011-10-11T06:53:13.0000000+00:00</time></trkpt><trkpt lat="44.612392" lon="33.739113"><ele>298.3</ele><time>2011-10-11T06:53:18.0000000+00:00</time></trkpt><trkpt lat="44.612343" lon="33.739113"><ele>299.8</ele><time>2011-10-11T06:53:23.0000000+00:00</time></trkpt><trkpt lat="44.612286" lon="33.739094"><ele>299.6</ele><time>2011-10-11T06:53:28.0000000+00:00</time></trkpt><trkpt lat="44.612282" lon="33.739117"><ele>298.9</ele><time>2011-10-11T06:53:33.0000000+00:00</time></trkpt><trkpt lat="44.612259" lon="33.739132"><ele>299.9</ele><time>2011-10-11T06:53:38.0000000+00:00</time></trkpt><trkpt lat="44.612221" lon="33.739166"><ele>299.8</ele><time>2011-10-11T06:53:43.0000000+00:00</time></trkpt><trkpt lat="44.612179" lon="33.739223"><ele>301.5</ele><time>2011-10-11T06:53:48.0000000+00:00</time></trkpt><trkpt lat="44.612129" lon="33.739235"><ele>303.2</ele><time>2011-10-11T06:53:53.0000000+00:00</time></trkpt><trkpt lat="44.612122" lon="33.739269"><ele>304.0</ele><time>2011-10-11T06:53:58.0000000+00:00</time></trkpt><trkpt lat="44.612068" lon="33.739296"><ele>302.7</ele><time>2011-10-11T06:54:03.0000000+00:00</time></trkpt><trkpt lat="44.612011" lon="33.739357"><ele>302.8</ele><time>2011-10-11T06:54:08.0000000+00:00</time></trkpt><trkpt lat="44.611965" lon="33.739418"><ele>302.5</ele><time>2011-10-11T06:54:13.0000000+00:00</time></trkpt><trkpt lat="44.611916" lon="33.73946"><ele>301.5</ele><time>2011-10-11T06:54:18.0000000+00:00</time></trkpt><trkpt lat="44.61187" lon="33.73951"><ele>302.0</ele><time>2011-10-11T06:54:23.0000000+00:00</time></trkpt><trkpt lat="44.61187" lon="33.739605"><ele>303.2</ele><time>2011-10-11T06:54:28.0000000+00:00</time></trkpt><trkpt lat="44.611858" lon="33.739643"><ele>303.6</ele><time>2011-10-11T06:54:33.0000000+00:00</time></trkpt><trkpt lat="44.611813" lon="33.739731"><ele>303.4</ele><time>2011-10-11T06:54:38.0000000+00:00</time></trkpt><trkpt lat="44.611774" lon="33.739803"><ele>302.4</ele><time>2011-10-11T06:54:43.0000000+00:00</time></trkpt><trkpt lat="44.611748" lon="33.739849"><ele>301.8</ele><time>2011-10-11T06:54:48.0000000+00:00</time></trkpt><trkpt lat="44.611717" lon="33.739983"><ele>299.8</ele><time>2011-10-11T06:54:53.0000000+00:00</time></trkpt><trkpt lat="44.611694" lon="33.740078"><ele>299.2</ele><time>2011-10-11T06:54:58.0000000+00:00</time></trkpt><trkpt lat="44.611633" lon="33.740124"><ele>299.2</ele><time>2011-10-11T06:55:03.0000000+00:00</time></trkpt><trkpt lat="44.611607" lon="33.74015"><ele>298.7</ele><time>2011-10-11T06:55:08.0000000+00:00</time></trkpt><trkpt lat="44.611572" lon="33.740219"><ele>298.5</ele><time>2011-10-11T06:55:13.0000000+00:00</time></trkpt><trkpt lat="44.611504" lon="33.740234"><ele>298.6</ele><time>2011-10-11T06:55:18.0000000+00:00</time></trkpt><trkpt lat="44.611488" lon="33.740253"><ele>298.0</ele><time>2011-10-11T06:55:23.0000000+00:00</time></trkpt><trkpt lat="44.611492" lon="33.740261"><ele>297.8</ele><time>2011-10-11T06:55:28.0000000+00:00</time></trkpt><trkpt lat="44.611492" lon="33.740303"><ele>297.4</ele><time>2011-10-11T06:55:33.0000000+00:00</time></trkpt><trkpt lat="44.611477" lon="33.740311"><ele>297.0</ele><time>2011-10-11T06:55:38.0000000+00:00</time></trkpt><trkpt lat="44.611469" lon="33.740322"><ele>296.6</ele><time>2011-10-11T06:55:43.0000000+00:00</time></trkpt><trkpt lat="44.611462" lon="33.740334"><ele>296.5</ele><time>2011-10-11T06:55:48.0000000+00:00</time></trkpt><trkpt lat="44.611462" lon="33.74033"><ele>296.2</ele><time>2011-10-11T06:55:53.0000000+00:00</time></trkpt><trkpt lat="44.611446" lon="33.740341"><ele>295.7</ele><time>2011-10-11T06:55:58.0000000+00:00</time></trkpt><trkpt lat="44.611454" lon="33.74036"><ele>295.0</ele><time>2011-10-11T06:56:03.0000000+00:00</time></trkpt><trkpt lat="44.611458" lon="33.740368"><ele>294.2</ele><time>2011-10-11T06:56:08.0000000+00:00</time></trkpt><trkpt lat="44.611454" lon="33.740368"><ele>293.9</ele><time>2011-10-11T06:56:13.0000000+00:00</time></trkpt><trkpt lat="44.611446" lon="33.740372"><ele>293.6</ele><time>2011-10-11T06:56:18.0000000+00:00</time></trkpt><trkpt lat="44.611443" lon="33.740383"><ele>293.2</ele><time>2011-10-11T06:56:23.0000000+00:00</time></trkpt><trkpt lat="44.611443" lon="33.740391"><ele>293.1</ele><time>2011-10-11T06:56:28.0000000+00:00</time></trkpt><trkpt lat="44.611446" lon="33.740387"><ele>293.1</ele><time>2011-10-11T06:56:33.0000000+00:00</time></trkpt><trkpt lat="44.611454" lon="33.740383"><ele>293.0</ele><time>2011-10-11T06:56:38.0000000+00:00</time></trkpt><trkpt lat="44.611458" lon="33.740379"><ele>292.8</ele><time>2011-10-11T06:56:43.0000000+00:00</time></trkpt><trkpt lat="44.611462" lon="33.740364"><ele>293.0</ele><time>2011-10-11T06:56:48.0000000+00:00</time></trkpt><trkpt lat="44.611454" lon="33.74036"><ele>293.3</ele><time>2011-10-11T06:56:53.0000000+00:00</time></trkpt><trkpt lat="44.611454" lon="33.740368"><ele>293.3</ele><time>2011-10-11T06:56:58.0000000+00:00</time></trkpt><trkpt lat="44.611458" lon="33.740376"><ele>293.4</ele><time>2011-10-11T06:57:03.0000000+00:00</time></trkpt><trkpt lat="44.611458" lon="33.740376"><ele>293.4</ele><time>2011-10-11T06:57:08.0000000+00:00</time></trkpt><trkpt lat="44.611462" lon="33.740376"><ele>293.4</ele><time>2011-10-11T06:57:13.0000000+00:00</time></trkpt><trkpt lat="44.611462" lon="33.740376"><ele>293.3</ele><time>2011-10-11T06:57:18.0000000+00:00</time></trkpt><trkpt lat="44.611462" lon="33.740376"><ele>293.3</ele><time>2011-10-11T06:57:23.0000000+00:00</time></trkpt><trkpt lat="44.611462" lon="33.740368"><ele>293.2</ele><time>2011-10-11T06:57:28.0000000+00:00</time></trkpt><trkpt lat="44.611462" lon="33.74036"><ele>292.8</ele><time>2011-10-11T06:57:33.0000000+00:00</time></trkpt><trkpt lat="44.611458" lon="33.740364"><ele>292.6</ele><time>2011-10-11T06:57:38.0000000+00:00</time></trkpt><trkpt lat="44.611458" lon="33.740368"><ele>292.0</ele><time>2011-10-11T06:57:43.0000000+00:00</time></trkpt><trkpt lat="44.611458" lon="33.74036"><ele>291.9</ele><time>2011-10-11T06:57:48.0000000+00:00</time></trkpt><trkpt lat="44.611458" lon="33.740345"><ele>291.2</ele><time>2011-10-11T06:57:53.0000000+00:00</time></trkpt><trkpt lat="44.611458" lon="33.740364"><ele>290.3</ele><time>2011-10-11T06:57:58.0000000+00:00</time></trkpt><trkpt lat="44.611458" lon="33.740376"><ele>290.0</ele><time>2011-10-11T06:58:03.0000000+00:00</time></trkpt><trkpt lat="44.611458" lon="33.740376"><ele>289.5</ele><time>2011-10-11T06:58:08.0000000+00:00</time></trkpt><trkpt lat="44.611458" lon="33.740368"><ele>288.8</ele><time>2011-10-11T06:58:13.0000000+00:00</time></trkpt><trkpt lat="44.611454" lon="33.740345"><ele>287.3</ele><time>2011-10-11T06:58:18.0000000+00:00</time></trkpt><trkpt lat="44.611469" lon="33.740322"><ele>287.2</ele><time>2011-10-11T06:58:23.0000000+00:00</time></trkpt><trkpt lat="44.611496" lon="33.740273"><ele>288.1</ele><time>2011-10-11T06:58:28.0000000+00:00</time></trkpt><trkpt lat="44.611485" lon="33.740211"><ele>288.4</ele><time>2011-10-11T06:58:33.0000000+00:00</time></trkpt><trkpt lat="44.61145" lon="33.740219"><ele>289.1</ele><time>2011-10-11T06:58:38.0000000+00:00</time></trkpt><trkpt lat="44.611401" lon="33.740189"><ele>292.1</ele><time>2011-10-11T06:58:43.0000000+00:00</time></trkpt><trkpt lat="44.611382" lon="33.740185"><ele>294.7</ele><time>2011-10-11T06:58:48.0000000+00:00</time></trkpt><trkpt lat="44.611382" lon="33.740181"><ele>296.7</ele><time>2011-10-11T06:58:53.0000000+00:00</time></trkpt><trkpt lat="44.611382" lon="33.740189"><ele>297.4</ele><time>2011-10-11T06:58:58.0000000+00:00</time></trkpt><trkpt lat="44.61137" lon="33.740196"><ele>298.4</ele><time>2011-10-11T06:59:03.0000000+00:00</time></trkpt><trkpt lat="44.611336" lon="33.740238"><ele>299.4</ele><time>2011-10-11T06:59:08.0000000+00:00</time></trkpt><trkpt lat="44.611343" lon="33.740276"><ele>300.8</ele><time>2011-10-11T06:59:13.0000000+00:00</time></trkpt><trkpt lat="44.611343" lon="33.740284"><ele>301.8</ele><time>2011-10-11T06:59:18.0000000+00:00</time></trkpt><trkpt lat="44.611347" lon="33.740295"><ele>301.4</ele><time>2011-10-11T06:59:23.0000000+00:00</time></trkpt><trkpt lat="44.61134" lon="33.740337"><ele>303.0</ele><time>2011-10-11T06:59:28.0000000+00:00</time></trkpt><trkpt lat="44.611282" lon="33.740376"><ele>300.9</ele><time>2011-10-11T06:59:33.0000000+00:00</time></trkpt><trkpt lat="44.611282" lon="33.740379"><ele>300.5</ele><time>2011-10-11T06:59:38.0000000+00:00</time></trkpt><trkpt lat="44.611282" lon="33.740379"><ele>300.5</ele><time>2011-10-11T06:59:43.0000000+00:00</time></trkpt><trkpt lat="44.611279" lon="33.740383"><ele>300.6</ele><time>2011-10-11T06:59:48.0000000+00:00</time></trkpt><trkpt lat="44.611275" lon="33.740383"><ele>300.6</ele><time>2011-10-11T06:59:53.0000000+00:00</time></trkpt><trkpt lat="44.611271" lon="33.740383"><ele>300.5</ele><time>2011-10-11T06:59:58.0000000+00:00</time></trkpt><trkpt lat="44.611271" lon="33.740383"><ele>300.4</ele><time>2011-10-11T07:00:03.0000000+00:00</time></trkpt><trkpt lat="44.611271" lon="33.740383"><ele>300.4</ele><time>2011-10-11T07:00:08.0000000+00:00</time></trkpt><trkpt lat="44.611271" lon="33.740383"><ele>300.4</ele><time>2011-10-11T07:00:13.0000000+00:00</time></trkpt><trkpt lat="44.611271" lon="33.740383"><ele>300.4</ele><time>2011-10-11T07:00:18.0000000+00:00</time></trkpt><trkpt lat="44.611275" lon="33.740383"><ele>300.4</ele><time>2011-10-11T07:00:23.0000000+00:00</time></trkpt><trkpt lat="44.611275" lon="33.740383"><ele>300.4</ele><time>2011-10-11T07:00:28.0000000+00:00</time></trkpt><trkpt lat="44.611275" lon="33.740383"><ele>300.4</ele><time>2011-10-11T07:00:33.0000000+00:00</time></trkpt><trkpt lat="44.611275" lon="33.740383"><ele>300.4</ele><time>2011-10-11T07:00:38.0000000+00:00</time></trkpt><trkpt lat="44.611271" lon="33.740383"><ele>300.4</ele><time>2011-10-11T07:00:43.0000000+00:00</time></trkpt><trkpt lat="44.611271" lon="33.740383"><ele>300.4</ele><time>2011-10-11T07:00:48.0000000+00:00</time></trkpt><trkpt lat="44.611271" lon="33.740383"><ele>300.4</ele><time>2011-10-11T07:00:53.0000000+00:00</time></trkpt><trkpt lat="44.611271" lon="33.740383"><ele>300.4</ele><time>2011-10-11T07:00:58.0000000+00:00</time></trkpt><trkpt lat="44.611271" lon="33.740383"><ele>300.4</ele><time>2011-10-11T07:01:03.0000000+00:00</time></trkpt><trkpt lat="44.611271" lon="33.740383"><ele>300.4</ele><time>2011-10-11T07:01:08.0000000+00:00</time></trkpt><trkpt lat="44.611271" lon="33.740383"><ele>300.4</ele><time>2011-10-11T07:01:13.0000000+00:00</time></trkpt><trkpt lat="44.611271" lon="33.740383"><ele>300.4</ele><time>2011-10-11T07:01:18.0000000+00:00</time></trkpt><trkpt lat="44.611271" lon="33.740383"><ele>300.4</ele><time>2011-10-11T07:01:23.0000000+00:00</time></trkpt><trkpt lat="44.611271" lon="33.740387"><ele>300.4</ele><time>2011-10-11T07:01:28.0000000+00:00</time></trkpt><trkpt lat="44.611271" lon="33.740387"><ele>300.4</ele><time>2011-10-11T07:01:33.0000000+00:00</time></trkpt><trkpt lat="44.611267" lon="33.740387"><ele>300.4</ele><time>2011-10-11T07:01:38.0000000+00:00</time></trkpt><trkpt lat="44.611248" lon="33.740395"><ele>300.8</ele><time>2011-10-11T07:01:43.0000000+00:00</time></trkpt><trkpt lat="44.611202" lon="33.740433"><ele>302.2</ele><time>2011-10-11T07:01:48.0000000+00:00</time></trkpt><trkpt lat="44.61113" lon="33.740444"><ele>302.1</ele><time>2011-10-11T07:01:53.0000000+00:00</time></trkpt><trkpt lat="44.611038" lon="33.740471"><ele>300.6</ele><time>2011-10-11T07:01:58.0000000+00:00</time></trkpt><trkpt lat="44.610981" lon="33.74052"><ele>298.7</ele><time>2011-10-11T07:02:03.0000000+00:00</time></trkpt><trkpt lat="44.610962" lon="33.740543"><ele>299.7</ele><time>2011-10-11T07:02:08.0000000+00:00</time></trkpt><trkpt lat="44.610939" lon="33.740578"><ele>298.6</ele><time>2011-10-11T07:02:13.0000000+00:00</time></trkpt><trkpt lat="44.61092" lon="33.740574"><ele>297.5</ele><time>2011-10-11T07:02:18.0000000+00:00</time></trkpt><trkpt lat="44.610912" lon="33.740574"><ele>296.5</ele><time>2011-10-11T07:02:23.0000000+00:00</time></trkpt><trkpt lat="44.610912" lon="33.740578"><ele>295.9</ele><time>2011-10-11T07:02:28.0000000+00:00</time></trkpt><trkpt lat="44.61092" lon="33.740578"><ele>295.7</ele><time>2011-10-11T07:02:33.0000000+00:00</time></trkpt><trkpt lat="44.610924" lon="33.740566"><ele>295.5</ele><time>2011-10-11T07:02:38.0000000+00:00</time></trkpt><trkpt lat="44.610928" lon="33.740562"><ele>295.2</ele><time>2011-10-11T07:02:43.0000000+00:00</time></trkpt><trkpt lat="44.610931" lon="33.740562"><ele>294.9</ele><time>2011-10-11T07:02:48.0000000+00:00</time></trkpt><trkpt lat="44.610931" lon="33.740566"><ele>294.7</ele><time>2011-10-11T07:02:53.0000000+00:00</time></trkpt><trkpt lat="44.610931" lon="33.740578"><ele>294.4</ele><time>2011-10-11T07:02:58.0000000+00:00</time></trkpt><trkpt lat="44.610928" lon="33.740589"><ele>294.1</ele><time>2011-10-11T07:03:03.0000000+00:00</time></trkpt><trkpt lat="44.61092" lon="33.740597"><ele>293.8</ele><time>2011-10-11T07:03:08.0000000+00:00</time></trkpt><trkpt lat="44.610916" lon="33.740604"><ele>293.6</ele><time>2011-10-11T07:03:13.0000000+00:00</time></trkpt><trkpt lat="44.610916" lon="33.740601"><ele>293.3</ele><time>2011-10-11T07:03:18.0000000+00:00</time></trkpt><trkpt lat="44.61092" lon="33.740601"><ele>293.0</ele><time>2011-10-11T07:03:23.0000000+00:00</time></trkpt><trkpt lat="44.61092" lon="33.740601"><ele>293.0</ele><time>2011-10-11T07:03:28.0000000+00:00</time></trkpt><trkpt lat="44.61092" lon="33.740601"><ele>293.0</ele><time>2011-10-11T07:03:33.0000000+00:00</time></trkpt><trkpt lat="44.61092" lon="33.740601"><ele>293.0</ele><time>2011-10-11T07:03:38.0000000+00:00</time></trkpt><trkpt lat="44.61092" lon="33.740601"><ele>293.0</ele><time>2011-10-11T07:03:43.0000000+00:00</time></trkpt><trkpt lat="44.61092" lon="33.740589"><ele>292.5</ele><time>2011-10-11T07:03:48.0000000+00:00</time></trkpt><trkpt lat="44.610931" lon="33.740589"><ele>292.3</ele><time>2011-10-11T07:03:53.0000000+00:00</time></trkpt><trkpt lat="44.610939" lon="33.740582"><ele>291.9</ele><time>2011-10-11T07:03:58.0000000+00:00</time></trkpt><trkpt lat="44.610939" lon="33.740574"><ele>291.7</ele><time>2011-10-11T07:04:03.0000000+00:00</time></trkpt><trkpt lat="44.61095" lon="33.740574"><ele>291.1</ele><time>2011-10-11T07:04:08.0000000+00:00</time></trkpt><trkpt lat="44.610954" lon="33.740574"><ele>290.9</ele><time>2011-10-11T07:04:13.0000000+00:00</time></trkpt><trkpt lat="44.610958" lon="33.740574"><ele>290.3</ele><time>2011-10-11T07:04:18.0000000+00:00</time></trkpt><trkpt lat="44.610966" lon="33.740574"><ele>289.9</ele><time>2011-10-11T07:04:23.0000000+00:00</time></trkpt><trkpt lat="44.610966" lon="33.740574"><ele>289.7</ele><time>2011-10-11T07:04:28.0000000+00:00</time></trkpt><trkpt lat="44.610966" lon="33.740574"><ele>289.5</ele><time>2011-10-11T07:04:33.0000000+00:00</time></trkpt><trkpt lat="44.610966" lon="33.740574"><ele>289.3</ele><time>2011-10-11T07:04:38.0000000+00:00</time></trkpt><trkpt lat="44.61097" lon="33.740574"><ele>289.1</ele><time>2011-10-11T07:04:43.0000000+00:00</time></trkpt><trkpt lat="44.61097" lon="33.740574"><ele>289.1</ele><time>2011-10-11T07:04:48.0000000+00:00</time></trkpt><trkpt lat="44.610962" lon="33.740574"><ele>289.0</ele><time>2011-10-11T07:04:53.0000000+00:00</time></trkpt><trkpt lat="44.610966" lon="33.740574"><ele>289.1</ele><time>2011-10-11T07:04:58.0000000+00:00</time></trkpt><trkpt lat="44.610958" lon="33.740574"><ele>289.4</ele><time>2011-10-11T07:05:03.0000000+00:00</time></trkpt><trkpt lat="44.610954" lon="33.740566"><ele>289.2</ele><time>2011-10-11T07:05:08.0000000+00:00</time></trkpt><trkpt lat="44.610954" lon="33.740562"><ele>288.7</ele><time>2011-10-11T07:05:13.0000000+00:00</time></trkpt><trkpt lat="44.61095" lon="33.740566"><ele>288.5</ele><time>2011-10-11T07:05:18.0000000+00:00</time></trkpt><trkpt lat="44.61095" lon="33.740559"><ele>288.4</ele><time>2011-10-11T07:05:23.0000000+00:00</time></trkpt><trkpt lat="44.610947" lon="33.740551"><ele>288.3</ele><time>2011-10-11T07:05:28.0000000+00:00</time></trkpt><trkpt lat="44.610939" lon="33.740543"><ele>287.9</ele><time>2011-10-11T07:05:33.0000000+00:00</time></trkpt><trkpt lat="44.610947" lon="33.740543"><ele>287.8</ele><time>2011-10-11T07:05:38.0000000+00:00</time></trkpt><trkpt lat="44.610954" lon="33.740532"><ele>287.4</ele><time>2011-10-11T07:05:43.0000000+00:00</time></trkpt><trkpt lat="44.610958" lon="33.740532"><ele>287.2</ele><time>2011-10-11T07:05:48.0000000+00:00</time></trkpt><trkpt lat="44.610958" lon="33.740528"><ele>287.1</ele><time>2011-10-11T07:05:53.0000000+00:00</time></trkpt><trkpt lat="44.61095" lon="33.740543"><ele>287.1</ele><time>2011-10-11T07:05:58.0000000+00:00</time></trkpt><trkpt lat="44.610954" lon="33.740543"><ele>286.7</ele><time>2011-10-11T07:06:03.0000000+00:00</time></trkpt><trkpt lat="44.610954" lon="33.740551"><ele>286.7</ele><time>2011-10-11T07:06:08.0000000+00:00</time></trkpt><trkpt lat="44.610954" lon="33.740547"><ele>286.7</ele><time>2011-10-11T07:06:13.0000000+00:00</time></trkpt><trkpt lat="44.61095" lon="33.740543"><ele>286.4</ele><time>2011-10-11T07:06:18.0000000+00:00</time></trkpt><trkpt lat="44.610947" lon="33.740547"><ele>285.7</ele><time>2011-10-11T07:06:23.0000000+00:00</time></trkpt><trkpt lat="44.610943" lon="33.740543"><ele>285.5</ele><time>2011-10-11T07:06:28.0000000+00:00</time></trkpt><trkpt lat="44.610939" lon="33.740551"><ele>285.1</ele><time>2011-10-11T07:06:33.0000000+00:00</time></trkpt><trkpt lat="44.610939" lon="33.740551"><ele>284.7</ele><time>2011-10-11T07:06:38.0000000+00:00</time></trkpt><trkpt lat="44.610935" lon="33.740559"><ele>284.4</ele><time>2011-10-11T07:06:43.0000000+00:00</time></trkpt><trkpt lat="44.610935" lon="33.740574"><ele>284.6</ele><time>2011-10-11T07:06:48.0000000+00:00</time></trkpt><trkpt lat="44.610931" lon="33.740574"><ele>284.2</ele><time>2011-10-11T07:06:53.0000000+00:00</time></trkpt><trkpt lat="44.610931" lon="33.74057"><ele>284.1</ele><time>2011-10-11T07:06:58.0000000+00:00</time></trkpt><trkpt lat="44.610931" lon="33.74057"><ele>284.1</ele><time>2011-10-11T07:07:03.0000000+00:00</time></trkpt><trkpt lat="44.610931" lon="33.74057"><ele>284.1</ele><time>2011-10-11T07:07:08.0000000+00:00</time></trkpt><trkpt lat="44.610931" lon="33.74057"><ele>284.1</ele><time>2011-10-11T07:07:13.0000000+00:00</time></trkpt><trkpt lat="44.610931" lon="33.74057"><ele>284.1</ele><time>2011-10-11T07:07:18.0000000+00:00</time></trkpt><trkpt lat="44.610931" lon="33.74057"><ele>284.1</ele><time>2011-10-11T07:07:23.0000000+00:00</time></trkpt><trkpt lat="44.610931" lon="33.74057"><ele>284.1</ele><time>2011-10-11T07:07:28.0000000+00:00</time></trkpt><trkpt lat="44.610931" lon="33.74057"><ele>284.1</ele><time>2011-10-11T07:07:33.0000000+00:00</time></trkpt><trkpt lat="44.610931" lon="33.74057"><ele>284.1</ele><time>2011-10-11T07:07:38.0000000+00:00</time></trkpt><trkpt lat="44.610931" lon="33.74057"><ele>284.1</ele><time>2011-10-11T07:07:43.0000000+00:00</time></trkpt><trkpt lat="44.610931" lon="33.74057"><ele>284.1</ele><time>2011-10-11T07:07:48.0000000+00:00</time></trkpt><trkpt lat="44.610931" lon="33.74057"><ele>284.1</ele><time>2011-10-11T07:07:53.0000000+00:00</time></trkpt><trkpt lat="44.610931" lon="33.74057"><ele>284.1</ele><time>2011-10-11T07:07:58.0000000+00:00</time></trkpt><trkpt lat="44.610931" lon="33.74057"><ele>284.1</ele><time>2011-10-11T07:08:03.0000000+00:00</time></trkpt><trkpt lat="44.610931" lon="33.74057"><ele>284.1</ele><time>2011-10-11T07:08:08.0000000+00:00</time></trkpt><trkpt lat="44.610931" lon="33.74057"><ele>284.1</ele><time>2011-10-11T07:08:13.0000000+00:00</time></trkpt><trkpt lat="44.610931" lon="33.74057"><ele>284.1</ele><time>2011-10-11T07:08:18.0000000+00:00</time></trkpt><trkpt lat="44.610931" lon="33.74057"><ele>284.1</ele><time>2011-10-11T07:08:23.0000000+00:00</time></trkpt><trkpt lat="44.610931" lon="33.74057"><ele>284.1</ele><time>2011-10-11T07:08:28.0000000+00:00</time></trkpt><trkpt lat="44.610931" lon="33.74057"><ele>284.1</ele><time>2011-10-11T07:08:33.0000000+00:00</time></trkpt><trkpt lat="44.610931" lon="33.74057"><ele>284.1</ele><time>2011-10-11T07:08:38.0000000+00:00</time></trkpt><trkpt lat="44.610931" lon="33.74057"><ele>284.1</ele><time>2011-10-11T07:08:43.0000000+00:00</time></trkpt><trkpt lat="44.610935" lon="33.74057"><ele>284.1</ele><time>2011-10-11T07:08:48.0000000+00:00</time></trkpt><trkpt lat="44.610935" lon="33.74057"><ele>284.1</ele><time>2011-10-11T07:08:53.0000000+00:00</time></trkpt><trkpt lat="44.610931" lon="33.74057"><ele>284.1</ele><time>2011-10-11T07:08:58.0000000+00:00</time></trkpt><trkpt lat="44.610931" lon="33.74057"><ele>284.1</ele><time>2011-10-11T07:09:03.0000000+00:00</time></trkpt><trkpt lat="44.610931" lon="33.74057"><ele>284.1</ele><time>2011-10-11T07:09:08.0000000+00:00</time></trkpt><trkpt lat="44.610931" lon="33.74057"><ele>284.0</ele><time>2011-10-11T07:09:13.0000000+00:00</time></trkpt><trkpt lat="44.610931" lon="33.74057"><ele>284.0</ele><time>2011-10-11T07:09:18.0000000+00:00</time></trkpt><trkpt lat="44.610931" lon="33.74057"><ele>284.0</ele><time>2011-10-11T07:09:23.0000000+00:00</time></trkpt><trkpt lat="44.610931" lon="33.740574"><ele>284.0</ele><time>2011-10-11T07:09:28.0000000+00:00</time></trkpt><trkpt lat="44.610931" lon="33.740574"><ele>284.0</ele><time>2011-10-11T07:09:33.0000000+00:00</time></trkpt><trkpt lat="44.610931" lon="33.740574"><ele>284.0</ele><time>2011-10-11T07:09:38.0000000+00:00</time></trkpt><trkpt lat="44.610931" lon="33.740574"><ele>284.0</ele><time>2011-10-11T07:09:43.0000000+00:00</time></trkpt><trkpt lat="44.610931" lon="33.740574"><ele>283.9</ele><time>2011-10-11T07:09:48.0000000+00:00</time></trkpt><trkpt lat="44.610931" lon="33.740574"><ele>283.9</ele><time>2011-10-11T07:09:53.0000000+00:00</time></trkpt><trkpt lat="44.610931" lon="33.740574"><ele>283.9</ele><time>2011-10-11T07:09:58.0000000+00:00</time></trkpt><trkpt lat="44.610931" lon="33.740574"><ele>283.9</ele><time>2011-10-11T07:10:03.0000000+00:00</time></trkpt><trkpt lat="44.610931" lon="33.740574"><ele>283.9</ele><time>2011-10-11T07:10:08.0000000+00:00</time></trkpt><trkpt lat="44.610931" lon="33.740574"><ele>283.9</ele><time>2011-10-11T07:10:13.0000000+00:00</time></trkpt><trkpt lat="44.610931" lon="33.740574"><ele>283.9</ele><time>2011-10-11T07:10:18.0000000+00:00</time></trkpt><trkpt lat="44.610931" lon="33.740574"><ele>283.9</ele><time>2011-10-11T07:10:23.0000000+00:00</time></trkpt><trkpt lat="44.610931" lon="33.740574"><ele>283.8</ele><time>2011-10-11T07:10:28.0000000+00:00</time></trkpt><trkpt lat="44.610928" lon="33.74057"><ele>283.1</ele><time>2011-10-11T07:10:33.0000000+00:00</time></trkpt><trkpt lat="44.610924" lon="33.740566"><ele>282.4</ele><time>2011-10-11T07:10:38.0000000+00:00</time></trkpt><trkpt lat="44.610916" lon="33.740566"><ele>281.3</ele><time>2011-10-11T07:10:43.0000000+00:00</time></trkpt><trkpt lat="44.610912" lon="33.740566"><ele>280.7</ele><time>2011-10-11T07:10:48.0000000+00:00</time></trkpt><trkpt lat="44.610909" lon="33.74057"><ele>280.2</ele><time>2011-10-11T07:10:53.0000000+00:00</time></trkpt><trkpt lat="44.610909" lon="33.740582"><ele>280.0</ele><time>2011-10-11T07:10:58.0000000+00:00</time></trkpt><trkpt lat="44.610909" lon="33.740585"><ele>280.0</ele><time>2011-10-11T07:11:03.0000000+00:00</time></trkpt><trkpt lat="44.610912" lon="33.740593"><ele>280.1</ele><time>2011-10-11T07:11:08.0000000+00:00</time></trkpt><trkpt lat="44.610909" lon="33.740585"><ele>279.8</ele><time>2011-10-11T07:11:13.0000000+00:00</time></trkpt><trkpt lat="44.610905" lon="33.74057"><ele>279.5</ele><time>2011-10-11T07:11:18.0000000+00:00</time></trkpt><trkpt lat="44.610901" lon="33.740566"><ele>279.1</ele><time>2011-10-11T07:11:23.0000000+00:00</time></trkpt><trkpt lat="44.610897" lon="33.740555"><ele>278.8</ele><time>2011-10-11T07:11:28.0000000+00:00</time></trkpt><trkpt lat="44.610897" lon="33.740555"><ele>278.7</ele><time>2011-10-11T07:11:33.0000000+00:00</time></trkpt><trkpt lat="44.610901" lon="33.740562"><ele>278.9</ele><time>2011-10-11T07:11:38.0000000+00:00</time></trkpt><trkpt lat="44.610901" lon="33.740551"><ele>278.5</ele><time>2011-10-11T07:11:43.0000000+00:00</time></trkpt><trkpt lat="44.610905" lon="33.740566"><ele>278.9</ele><time>2011-10-11T07:11:48.0000000+00:00</time></trkpt><trkpt lat="44.610909" lon="33.740562"><ele>278.9</ele><time>2011-10-11T07:11:53.0000000+00:00</time></trkpt><trkpt lat="44.610909" lon="33.740555"><ele>278.7</ele><time>2011-10-11T07:11:58.0000000+00:00</time></trkpt><trkpt lat="44.610909" lon="33.740555"><ele>278.7</ele><time>2011-10-11T07:12:03.0000000+00:00</time></trkpt><trkpt lat="44.610909" lon="33.740555"><ele>278.7</ele><time>2011-10-11T07:12:08.0000000+00:00</time></trkpt><trkpt lat="44.610909" lon="33.740555"><ele>278.7</ele><time>2011-10-11T07:12:13.0000000+00:00</time></trkpt><trkpt lat="44.610909" lon="33.740559"><ele>278.7</ele><time>2011-10-11T07:12:18.0000000+00:00</time></trkpt><trkpt lat="44.610909" lon="33.740559"><ele>278.8</ele><time>2011-10-11T07:12:23.0000000+00:00</time></trkpt><trkpt lat="44.610909" lon="33.740559"><ele>278.8</ele><time>2011-10-11T07:12:28.0000000+00:00</time></trkpt><trkpt lat="44.610909" lon="33.740559"><ele>278.8</ele><time>2011-10-11T07:12:33.0000000+00:00</time></trkpt><trkpt lat="44.610909" lon="33.740559"><ele>278.8</ele><time>2011-10-11T07:12:38.0000000+00:00</time></trkpt><trkpt lat="44.610909" lon="33.740559"><ele>278.8</ele><time>2011-10-11T07:12:43.0000000+00:00</time></trkpt><trkpt lat="44.610909" lon="33.740559"><ele>278.8</ele><time>2011-10-11T07:12:48.0000000+00:00</time></trkpt><trkpt lat="44.610909" lon="33.740559"><ele>278.8</ele><time>2011-10-11T07:12:53.0000000+00:00</time></trkpt><trkpt lat="44.610909" lon="33.740559"><ele>278.8</ele><time>2011-10-11T07:12:58.0000000+00:00</time></trkpt><trkpt lat="44.610909" lon="33.740559"><ele>278.8</ele><time>2011-10-11T07:13:03.0000000+00:00</time></trkpt><trkpt lat="44.610909" lon="33.740559"><ele>278.8</ele><time>2011-10-11T07:13:08.0000000+00:00</time></trkpt><trkpt lat="44.610909" lon="33.740559"><ele>278.8</ele><time>2011-10-11T07:13:13.0000000+00:00</time></trkpt><trkpt lat="44.610909" lon="33.740559"><ele>278.9</ele><time>2011-10-11T07:13:18.0000000+00:00</time></trkpt><trkpt lat="44.610905" lon="33.740555"><ele>278.9</ele><time>2011-10-11T07:13:23.0000000+00:00</time></trkpt><trkpt lat="44.610909" lon="33.740574"><ele>279.2</ele><time>2011-10-11T07:13:28.0000000+00:00</time></trkpt><trkpt lat="44.610912" lon="33.740593"><ele>279.3</ele><time>2011-10-11T07:13:33.0000000+00:00</time></trkpt><trkpt lat="44.610909" lon="33.740593"><ele>279.1</ele><time>2011-10-11T07:13:38.0000000+00:00</time></trkpt><trkpt lat="44.610912" lon="33.740597"><ele>279.2</ele><time>2011-10-11T07:13:43.0000000+00:00</time></trkpt><trkpt lat="44.610916" lon="33.740608"><ele>279.6</ele><time>2011-10-11T07:13:48.0000000+00:00</time></trkpt><trkpt lat="44.610916" lon="33.740612"><ele>279.7</ele><time>2011-10-11T07:13:53.0000000+00:00</time></trkpt><trkpt lat="44.610912" lon="33.740612"><ele>279.6</ele><time>2011-10-11T07:13:58.0000000+00:00</time></trkpt><trkpt lat="44.610916" lon="33.74062"><ele>279.7</ele><time>2011-10-11T07:14:03.0000000+00:00</time></trkpt><trkpt lat="44.610916" lon="33.74062"><ele>279.8</ele><time>2011-10-11T07:14:08.0000000+00:00</time></trkpt><trkpt lat="44.610916" lon="33.74062"><ele>279.8</ele><time>2011-10-11T07:14:13.0000000+00:00</time></trkpt><trkpt lat="44.610916" lon="33.74062"><ele>279.8</ele><time>2011-10-11T07:14:18.0000000+00:00</time></trkpt><trkpt lat="44.610916" lon="33.74062"><ele>279.8</ele><time>2011-10-11T07:14:23.0000000+00:00</time></trkpt><trkpt lat="44.610916" lon="33.74062"><ele>279.8</ele><time>2011-10-11T07:14:28.0000000+00:00</time></trkpt><trkpt lat="44.610916" lon="33.74062"><ele>279.8</ele><time>2011-10-11T07:14:33.0000000+00:00</time></trkpt><trkpt lat="44.610916" lon="33.74062"><ele>279.8</ele><time>2011-10-11T07:14:38.0000000+00:00</time></trkpt><trkpt lat="44.610916" lon="33.74062"><ele>279.8</ele><time>2011-10-11T07:14:43.0000000+00:00</time></trkpt><trkpt lat="44.610916" lon="33.740616"><ele>279.8</ele><time>2011-10-11T07:14:48.0000000+00:00</time></trkpt><trkpt lat="44.610916" lon="33.740616"><ele>279.8</ele><time>2011-10-11T07:14:53.0000000+00:00</time></trkpt><trkpt lat="44.610916" lon="33.740616"><ele>279.8</ele><time>2011-10-11T07:14:58.0000000+00:00</time></trkpt><trkpt lat="44.610916" lon="33.740616"><ele>279.8</ele><time>2011-10-11T07:15:03.0000000+00:00</time></trkpt><trkpt lat="44.610916" lon="33.740616"><ele>279.8</ele><time>2011-10-11T07:15:08.0000000+00:00</time></trkpt><trkpt lat="44.610916" lon="33.740616"><ele>279.8</ele><time>2011-10-11T07:15:13.0000000+00:00</time></trkpt><trkpt lat="44.610916" lon="33.740616"><ele>279.8</ele><time>2011-10-11T07:15:18.0000000+00:00</time></trkpt><trkpt lat="44.610916" lon="33.740616"><ele>279.8</ele><time>2011-10-11T07:15:23.0000000+00:00</time></trkpt><trkpt lat="44.610916" lon="33.740616"><ele>279.8</ele><time>2011-10-11T07:15:28.0000000+00:00</time></trkpt><trkpt lat="44.610916" lon="33.740616"><ele>279.9</ele><time>2011-10-11T07:15:33.0000000+00:00</time></trkpt><trkpt lat="44.610916" lon="33.740616"><ele>279.9</ele><time>2011-10-11T07:15:38.0000000+00:00</time></trkpt><trkpt lat="44.610916" lon="33.740616"><ele>279.9</ele><time>2011-10-11T07:15:43.0000000+00:00</time></trkpt><trkpt lat="44.610916" lon="33.740616"><ele>279.9</ele><time>2011-10-11T07:15:48.0000000+00:00</time></trkpt><trkpt lat="44.610916" lon="33.740616"><ele>279.9</ele><time>2011-10-11T07:15:53.0000000+00:00</time></trkpt><trkpt lat="44.610916" lon="33.740616"><ele>279.9</ele><time>2011-10-11T07:15:58.0000000+00:00</time></trkpt><trkpt lat="44.610916" lon="33.740616"><ele>279.9</ele><time>2011-10-11T07:16:03.0000000+00:00</time></trkpt><trkpt lat="44.610916" lon="33.740608"><ele>280.0</ele><time>2011-10-11T07:16:08.0000000+00:00</time></trkpt><trkpt lat="44.610912" lon="33.740608"><ele>279.9</ele><time>2011-10-11T07:16:13.0000000+00:00</time></trkpt><trkpt lat="44.610905" lon="33.740608"><ele>280.6</ele><time>2011-10-11T07:16:18.0000000+00:00</time></trkpt><trkpt lat="44.610901" lon="33.740612"><ele>281.2</ele><time>2011-10-11T07:16:23.0000000+00:00</time></trkpt><trkpt lat="44.610905" lon="33.740604"><ele>281.6</ele><time>2011-10-11T07:16:28.0000000+00:00</time></trkpt><trkpt lat="44.610912" lon="33.740593"><ele>281.7</ele><time>2011-10-11T07:16:33.0000000+00:00</time></trkpt><trkpt lat="44.610912" lon="33.740585"><ele>281.5</ele><time>2011-10-11T07:16:38.0000000+00:00</time></trkpt><trkpt lat="44.610912" lon="33.740589"><ele>281.8</ele><time>2011-10-11T07:16:43.0000000+00:00</time></trkpt><trkpt lat="44.610916" lon="33.740582"><ele>281.8</ele><time>2011-10-11T07:16:48.0000000+00:00</time></trkpt><trkpt lat="44.610916" lon="33.740578"><ele>281.8</ele><time>2011-10-11T07:16:53.0000000+00:00</time></trkpt><trkpt lat="44.61092" lon="33.74057"><ele>281.5</ele><time>2011-10-11T07:16:58.0000000+00:00</time></trkpt><trkpt lat="44.61092" lon="33.74057"><ele>281.1</ele><time>2011-10-11T07:17:03.0000000+00:00</time></trkpt><trkpt lat="44.610924" lon="33.740559"><ele>280.7</ele><time>2011-10-11T07:17:08.0000000+00:00</time></trkpt><trkpt lat="44.61092" lon="33.740566"><ele>281.2</ele><time>2011-10-11T07:17:13.0000000+00:00</time></trkpt><trkpt lat="44.61092" lon="33.74057"><ele>281.8</ele><time>2011-10-11T07:17:18.0000000+00:00</time></trkpt><trkpt lat="44.610924" lon="33.740559"><ele>282.0</ele><time>2011-10-11T07:17:23.0000000+00:00</time></trkpt><trkpt lat="44.610889" lon="33.740582"><ele>281.9</ele><time>2011-10-11T07:17:28.0000000+00:00</time></trkpt><trkpt lat="44.610859" lon="33.740623"><ele>281.9</ele><time>2011-10-11T07:17:33.0000000+00:00</time></trkpt><trkpt lat="44.610809" lon="33.740654"><ele>282.1</ele><time>2011-10-11T07:17:38.0000000+00:00</time></trkpt><trkpt lat="44.61076" lon="33.740669"><ele>282.8</ele><time>2011-10-11T07:17:43.0000000+00:00</time></trkpt><trkpt lat="44.610718" lon="33.740688"><ele>283.5</ele><time>2011-10-11T07:17:48.0000000+00:00</time></trkpt><trkpt lat="44.61068" lon="33.740707"><ele>283.9</ele><time>2011-10-11T07:17:53.0000000+00:00</time></trkpt><trkpt lat="44.610733" lon="33.740715"><ele>284.8</ele><time>2011-10-11T07:17:58.0000000+00:00</time></trkpt><trkpt lat="44.610779" lon="33.740696"><ele>286.5</ele><time>2011-10-11T07:18:03.0000000+00:00</time></trkpt><trkpt lat="44.610775" lon="33.740669"><ele>288.1</ele><time>2011-10-11T07:18:08.0000000+00:00</time></trkpt><trkpt lat="44.610733" lon="33.740685"><ele>289.4</ele><time>2011-10-11T07:18:13.0000000+00:00</time></trkpt><trkpt lat="44.61068" lon="33.740692"><ele>290.5</ele><time>2011-10-11T07:18:18.0000000+00:00</time></trkpt><trkpt lat="44.610649" lon="33.740696"><ele>291.9</ele><time>2011-10-11T07:18:23.0000000+00:00</time></trkpt><trkpt lat="44.610603" lon="33.740696"><ele>293.4</ele><time>2011-10-11T07:18:28.0000000+00:00</time></trkpt><trkpt lat="44.610542" lon="33.740723"><ele>294.4</ele><time>2011-10-11T07:18:33.0000000+00:00</time></trkpt><trkpt lat="44.610462" lon="33.740776"><ele>297.4</ele><time>2011-10-11T07:18:38.0000000+00:00</time></trkpt><trkpt lat="44.610416" lon="33.740818"><ele>299.2</ele><time>2011-10-11T07:18:43.0000000+00:00</time></trkpt><trkpt lat="44.610405" lon="33.740829"><ele>299.3</ele><time>2011-10-11T07:18:48.0000000+00:00</time></trkpt><trkpt lat="44.610378" lon="33.740822"><ele>299.7</ele><time>2011-10-11T07:18:53.0000000+00:00</time></trkpt><trkpt lat="44.610344" lon="33.740841"><ele>300.7</ele><time>2011-10-11T07:18:58.0000000+00:00</time></trkpt><trkpt lat="44.61031" lon="33.740852"><ele>301.2</ele><time>2011-10-11T07:19:03.0000000+00:00</time></trkpt><trkpt lat="44.610264" lon="33.74086"><ele>301.6</ele><time>2011-10-11T07:19:08.0000000+00:00</time></trkpt><trkpt lat="44.610203" lon="33.740864"><ele>302.4</ele><time>2011-10-11T07:19:13.0000000+00:00</time></trkpt><trkpt lat="44.61013" lon="33.740891"><ele>303.1</ele><time>2011-10-11T07:19:18.0000000+00:00</time></trkpt><trkpt lat="44.610073" lon="33.740902"><ele>303.8</ele><time>2011-10-11T07:19:23.0000000+00:00</time></trkpt><trkpt lat="44.610046" lon="33.740913"><ele>304.9</ele><time>2011-10-11T07:19:28.0000000+00:00</time></trkpt><trkpt lat="44.609993" lon="33.740906"><ele>305.3</ele><time>2011-10-11T07:19:33.0000000+00:00</time></trkpt><trkpt lat="44.609959" lon="33.740898"><ele>305.6</ele><time>2011-10-11T07:19:38.0000000+00:00</time></trkpt><trkpt lat="44.609928" lon="33.74091"><ele>305.8</ele><time>2011-10-11T07:19:43.0000000+00:00</time></trkpt><trkpt lat="44.609909" lon="33.740917"><ele>306.1</ele><time>2011-10-11T07:19:48.0000000+00:00</time></trkpt><trkpt lat="44.609924" lon="33.740921"><ele>306.1</ele><time>2011-10-11T07:19:53.0000000+00:00</time></trkpt><trkpt lat="44.609924" lon="33.740921"><ele>306.2</ele><time>2011-10-11T07:19:58.0000000+00:00</time></trkpt><trkpt lat="44.609875" lon="33.740925"><ele>306.1</ele><time>2011-10-11T07:20:03.0000000+00:00</time></trkpt><trkpt lat="44.609818" lon="33.740948"><ele>306.8</ele><time>2011-10-11T07:20:08.0000000+00:00</time></trkpt><trkpt lat="44.609779" lon="33.740929"><ele>309.2</ele><time>2011-10-11T07:20:13.0000000+00:00</time></trkpt><trkpt lat="44.60976" lon="33.740921"><ele>309.6</ele><time>2011-10-11T07:20:18.0000000+00:00</time></trkpt><trkpt lat="44.609715" lon="33.740902"><ele>309.9</ele><time>2011-10-11T07:20:23.0000000+00:00</time></trkpt><trkpt lat="44.609676" lon="33.740932"><ele>310.7</ele><time>2011-10-11T07:20:28.0000000+00:00</time></trkpt><trkpt lat="44.609604" lon="33.740948"><ele>311.4</ele><time>2011-10-11T07:20:33.0000000+00:00</time></trkpt><trkpt lat="44.609539" lon="33.740963"><ele>312.2</ele><time>2011-10-11T07:20:38.0000000+00:00</time></trkpt><trkpt lat="44.609516" lon="33.741005"><ele>314.6</ele><time>2011-10-11T07:20:43.0000000+00:00</time></trkpt><trkpt lat="44.609512" lon="33.741047"><ele>316.0</ele><time>2011-10-11T07:20:48.0000000+00:00</time></trkpt><trkpt lat="44.609489" lon="33.741039"><ele>317.4</ele><time>2011-10-11T07:20:53.0000000+00:00</time></trkpt><trkpt lat="44.609482" lon="33.741039"><ele>319.0</ele><time>2011-10-11T07:20:58.0000000+00:00</time></trkpt><trkpt lat="44.609478" lon="33.741035"><ele>319.2</ele><time>2011-10-11T07:21:03.0000000+00:00</time></trkpt><trkpt lat="44.609463" lon="33.741058"><ele>319.7</ele><time>2011-10-11T07:21:08.0000000+00:00</time></trkpt><trkpt lat="44.609444" lon="33.741081"><ele>319.8</ele><time>2011-10-11T07:21:13.0000000+00:00</time></trkpt><trkpt lat="44.609447" lon="33.741096"><ele>319.6</ele><time>2011-10-11T07:21:18.0000000+00:00</time></trkpt><trkpt lat="44.609459" lon="33.7411"><ele>319.4</ele><time>2011-10-11T07:21:23.0000000+00:00</time></trkpt><trkpt lat="44.609467" lon="33.741112"><ele>319.6</ele><time>2011-10-11T07:21:28.0000000+00:00</time></trkpt><trkpt lat="44.60947" lon="33.741123"><ele>319.6</ele><time>2011-10-11T07:21:33.0000000+00:00</time></trkpt><trkpt lat="44.60947" lon="33.741131"><ele>319.7</ele><time>2011-10-11T07:21:38.0000000+00:00</time></trkpt><trkpt lat="44.609467" lon="33.741135"><ele>319.8</ele><time>2011-10-11T07:21:43.0000000+00:00</time></trkpt><trkpt lat="44.609463" lon="33.741135"><ele>319.9</ele><time>2011-10-11T07:21:48.0000000+00:00</time></trkpt><trkpt lat="44.609459" lon="33.741127"><ele>320.0</ele><time>2011-10-11T07:21:53.0000000+00:00</time></trkpt><trkpt lat="44.609455" lon="33.741119"><ele>320.1</ele><time>2011-10-11T07:21:58.0000000+00:00</time></trkpt><trkpt lat="44.609444" lon="33.741104"><ele>320.1</ele><time>2011-10-11T07:22:03.0000000+00:00</time></trkpt><trkpt lat="44.609467" lon="33.741062"><ele>319.8</ele><time>2011-10-11T07:22:08.0000000+00:00</time></trkpt><trkpt lat="44.60944" lon="33.741051"><ele>320.2</ele><time>2011-10-11T07:22:13.0000000+00:00</time></trkpt><trkpt lat="44.609386" lon="33.741062"><ele>320.3</ele><time>2011-10-11T07:22:18.0000000+00:00</time></trkpt><trkpt lat="44.60936" lon="33.741043"><ele>320.5</ele><time>2011-10-11T07:22:23.0000000+00:00</time></trkpt><trkpt lat="44.609333" lon="33.741077"><ele>320.5</ele><time>2011-10-11T07:22:28.0000000+00:00</time></trkpt><trkpt lat="44.609291" lon="33.74107"><ele>320.6</ele><time>2011-10-11T07:22:33.0000000+00:00</time></trkpt><trkpt lat="44.609291" lon="33.741066"><ele>320.8</ele><time>2011-10-11T07:22:38.0000000+00:00</time></trkpt><trkpt lat="44.609283" lon="33.74107"><ele>320.7</ele><time>2011-10-11T07:22:43.0000000+00:00</time></trkpt><trkpt lat="44.609245" lon="33.741058"><ele>321.1</ele><time>2011-10-11T07:22:48.0000000+00:00</time></trkpt><trkpt lat="44.609207" lon="33.74107"><ele>321.1</ele><time>2011-10-11T07:22:53.0000000+00:00</time></trkpt><trkpt lat="44.609184" lon="33.741116"><ele>321.5</ele><time>2011-10-11T07:22:58.0000000+00:00</time></trkpt><trkpt lat="44.609177" lon="33.741173"><ele>321.9</ele><time>2011-10-11T07:23:03.0000000+00:00</time></trkpt><trkpt lat="44.609142" lon="33.741196"><ele>322.8</ele><time>2011-10-11T07:23:08.0000000+00:00</time></trkpt><trkpt lat="44.609158" lon="33.741203"><ele>322.3</ele><time>2011-10-11T07:23:13.0000000+00:00</time></trkpt><trkpt lat="44.609173" lon="33.741207"><ele>322.0</ele><time>2011-10-11T07:23:18.0000000+00:00</time></trkpt><trkpt lat="44.609173" lon="33.741211"><ele>322.0</ele><time>2011-10-11T07:23:23.0000000+00:00</time></trkpt><trkpt lat="44.609215" lon="33.741234"><ele>322.2</ele><time>2011-10-11T07:23:28.0000000+00:00</time></trkpt><trkpt lat="44.60923" lon="33.741276"><ele>321.9</ele><time>2011-10-11T07:23:33.0000000+00:00</time></trkpt><trkpt lat="44.609226" lon="33.741272"><ele>320.9</ele><time>2011-10-11T07:23:38.0000000+00:00</time></trkpt><trkpt lat="44.609226" lon="33.741272"><ele>320.9</ele><time>2011-10-11T07:23:43.0000000+00:00</time></trkpt><trkpt lat="44.609226" lon="33.741272"><ele>320.9</ele><time>2011-10-11T07:23:48.0000000+00:00</time></trkpt><trkpt lat="44.60923" lon="33.741261"><ele>320.7</ele><time>2011-10-11T07:23:53.0000000+00:00</time></trkpt><trkpt lat="44.609226" lon="33.74123"><ele>320.2</ele><time>2011-10-11T07:23:58.0000000+00:00</time></trkpt><trkpt lat="44.60918" lon="33.741207"><ele>320.9</ele><time>2011-10-11T07:24:03.0000000+00:00</time></trkpt><trkpt lat="44.609158" lon="33.741219"><ele>321.5</ele><time>2011-10-11T07:24:08.0000000+00:00</time></trkpt><trkpt lat="44.609135" lon="33.74123"><ele>321.9</ele><time>2011-10-11T07:24:13.0000000+00:00</time></trkpt><trkpt lat="44.609131" lon="33.741215"><ele>322.1</ele><time>2011-10-11T07:24:18.0000000+00:00</time></trkpt><trkpt lat="44.609127" lon="33.741211"><ele>322.2</ele><time>2011-10-11T07:24:23.0000000+00:00</time></trkpt><trkpt lat="44.609135" lon="33.741215"><ele>322.3</ele><time>2011-10-11T07:24:28.0000000+00:00</time></trkpt><trkpt lat="44.609142" lon="33.741219"><ele>322.3</ele><time>2011-10-11T07:24:33.0000000+00:00</time></trkpt><trkpt lat="44.609138" lon="33.741215"><ele>322.3</ele><time>2011-10-11T07:24:38.0000000+00:00</time></trkpt><trkpt lat="44.609138" lon="33.741211"><ele>322.4</ele><time>2011-10-11T07:24:43.0000000+00:00</time></trkpt><trkpt lat="44.609131" lon="33.741207"><ele>322.0</ele><time>2011-10-11T07:24:48.0000000+00:00</time></trkpt><trkpt lat="44.609127" lon="33.741203"><ele>321.9</ele><time>2011-10-11T07:24:53.0000000+00:00</time></trkpt><trkpt lat="44.609127" lon="33.741199"><ele>321.8</ele><time>2011-10-11T07:24:58.0000000+00:00</time></trkpt><trkpt lat="44.609089" lon="33.741219"><ele>321.0</ele><time>2011-10-11T07:25:03.0000000+00:00</time></trkpt><trkpt lat="44.609081" lon="33.741211"><ele>320.8</ele><time>2011-10-11T07:25:08.0000000+00:00</time></trkpt><trkpt lat="44.609081" lon="33.741203"><ele>320.7</ele><time>2011-10-11T07:25:13.0000000+00:00</time></trkpt><trkpt lat="44.609089" lon="33.741188"><ele>321.2</ele><time>2011-10-11T07:25:18.0000000+00:00</time></trkpt><trkpt lat="44.60907" lon="33.741154"><ele>321.9</ele><time>2011-10-11T07:25:23.0000000+00:00</time></trkpt><trkpt lat="44.609028" lon="33.741127"><ele>322.5</ele><time>2011-10-11T07:25:28.0000000+00:00</time></trkpt><trkpt lat="44.609005" lon="33.741096"><ele>322.5</ele><time>2011-10-11T07:25:33.0000000+00:00</time></trkpt><trkpt lat="44.608974" lon="33.741074"><ele>322.5</ele><time>2011-10-11T07:25:38.0000000+00:00</time></trkpt><trkpt lat="44.608948" lon="33.74107"><ele>323.1</ele><time>2011-10-11T07:25:43.0000000+00:00</time></trkpt><trkpt lat="44.608936" lon="33.74107"><ele>323.9</ele><time>2011-10-11T07:25:48.0000000+00:00</time></trkpt><trkpt lat="44.608898" lon="33.741066"><ele>324.2</ele><time>2011-10-11T07:25:53.0000000+00:00</time></trkpt><trkpt lat="44.608898" lon="33.741081"><ele>323.7</ele><time>2011-10-11T07:25:58.0000000+00:00</time></trkpt><trkpt lat="44.608883" lon="33.741104"><ele>323.5</ele><time>2011-10-11T07:26:03.0000000+00:00</time></trkpt><trkpt lat="44.608822" lon="33.741131"><ele>323.5</ele><time>2011-10-11T07:26:08.0000000+00:00</time></trkpt><trkpt lat="44.608814" lon="33.741135"><ele>323.4</ele><time>2011-10-11T07:26:13.0000000+00:00</time></trkpt><trkpt lat="44.608818" lon="33.741123"><ele>323.5</ele><time>2011-10-11T07:26:18.0000000+00:00</time></trkpt><trkpt lat="44.608818" lon="33.741127"><ele>323.6</ele><time>2011-10-11T07:26:23.0000000+00:00</time></trkpt><trkpt lat="44.608822" lon="33.741131"><ele>323.6</ele><time>2011-10-11T07:26:28.0000000+00:00</time></trkpt><trkpt lat="44.608826" lon="33.741131"><ele>323.6</ele><time>2011-10-11T07:26:33.0000000+00:00</time></trkpt><trkpt lat="44.608826" lon="33.741131"><ele>323.6</ele><time>2011-10-11T07:26:38.0000000+00:00</time></trkpt><trkpt lat="44.608826" lon="33.741131"><ele>323.6</ele><time>2011-10-11T07:26:43.0000000+00:00</time></trkpt><trkpt lat="44.608826" lon="33.741131"><ele>323.6</ele><time>2011-10-11T07:26:48.0000000+00:00</time></trkpt><trkpt lat="44.608826" lon="33.741131"><ele>323.6</ele><time>2011-10-11T07:26:53.0000000+00:00</time></trkpt><trkpt lat="44.608826" lon="33.741131"><ele>323.7</ele><time>2011-10-11T07:26:58.0000000+00:00</time></trkpt><trkpt lat="44.608826" lon="33.741131"><ele>323.7</ele><time>2011-10-11T07:27:03.0000000+00:00</time></trkpt><trkpt lat="44.608826" lon="33.741131"><ele>323.7</ele><time>2011-10-11T07:27:08.0000000+00:00</time></trkpt><trkpt lat="44.608826" lon="33.741131"><ele>323.7</ele><time>2011-10-11T07:27:13.0000000+00:00</time></trkpt><trkpt lat="44.608826" lon="33.741135"><ele>323.8</ele><time>2011-10-11T07:27:18.0000000+00:00</time></trkpt><trkpt lat="44.608826" lon="33.741135"><ele>323.8</ele><time>2011-10-11T07:27:23.0000000+00:00</time></trkpt><trkpt lat="44.608826" lon="33.741135"><ele>323.8</ele><time>2011-10-11T07:27:28.0000000+00:00</time></trkpt><trkpt lat="44.608826" lon="33.741135"><ele>323.8</ele><time>2011-10-11T07:27:33.0000000+00:00</time></trkpt><trkpt lat="44.608826" lon="33.741135"><ele>323.8</ele><time>2011-10-11T07:27:38.0000000+00:00</time></trkpt><trkpt lat="44.608826" lon="33.741135"><ele>323.9</ele><time>2011-10-11T07:27:43.0000000+00:00</time></trkpt><trkpt lat="44.608826" lon="33.741135"><ele>323.9</ele><time>2011-10-11T07:27:48.0000000+00:00</time></trkpt><trkpt lat="44.608826" lon="33.741135"><ele>323.9</ele><time>2011-10-11T07:27:53.0000000+00:00</time></trkpt><trkpt lat="44.608826" lon="33.741135"><ele>324.0</ele><time>2011-10-11T07:27:58.0000000+00:00</time></trkpt><trkpt lat="44.608826" lon="33.741135"><ele>324.0</ele><time>2011-10-11T07:28:03.0000000+00:00</time></trkpt><trkpt lat="44.608826" lon="33.741135"><ele>324.0</ele><time>2011-10-11T07:28:08.0000000+00:00</time></trkpt><trkpt lat="44.608826" lon="33.741135"><ele>324.0</ele><time>2011-10-11T07:28:13.0000000+00:00</time></trkpt><trkpt lat="44.608826" lon="33.741135"><ele>324.0</ele><time>2011-10-11T07:28:18.0000000+00:00</time></trkpt><trkpt lat="44.608826" lon="33.741135"><ele>324.0</ele><time>2011-10-11T07:28:23.0000000+00:00</time></trkpt><trkpt lat="44.608826" lon="33.741138"><ele>324.0</ele><time>2011-10-11T07:28:28.0000000+00:00</time></trkpt><trkpt lat="44.608826" lon="33.741138"><ele>324.0</ele><time>2011-10-11T07:28:33.0000000+00:00</time></trkpt><trkpt lat="44.608826" lon="33.741138"><ele>324.1</ele><time>2011-10-11T07:28:38.0000000+00:00</time></trkpt><trkpt lat="44.608829" lon="33.741138"><ele>324.1</ele><time>2011-10-11T07:28:43.0000000+00:00</time></trkpt><trkpt lat="44.608829" lon="33.741138"><ele>324.1</ele><time>2011-10-11T07:28:48.0000000+00:00</time></trkpt><trkpt lat="44.608829" lon="33.741138"><ele>324.1</ele><time>2011-10-11T07:28:53.0000000+00:00</time></trkpt><trkpt lat="44.608829" lon="33.741138"><ele>324.1</ele><time>2011-10-11T07:28:58.0000000+00:00</time></trkpt><trkpt lat="44.608829" lon="33.741138"><ele>324.1</ele><time>2011-10-11T07:29:03.0000000+00:00</time></trkpt><trkpt lat="44.608829" lon="33.741138"><ele>324.2</ele><time>2011-10-11T07:29:08.0000000+00:00</time></trkpt><trkpt lat="44.608829" lon="33.741138"><ele>324.2</ele><time>2011-10-11T07:29:13.0000000+00:00</time></trkpt><trkpt lat="44.608829" lon="33.741138"><ele>324.2</ele><time>2011-10-11T07:29:18.0000000+00:00</time></trkpt><trkpt lat="44.608829" lon="33.741138"><ele>324.2</ele><time>2011-10-11T07:29:23.0000000+00:00</time></trkpt><trkpt lat="44.608829" lon="33.741138"><ele>324.2</ele><time>2011-10-11T07:29:28.0000000+00:00</time></trkpt><trkpt lat="44.608829" lon="33.741138"><ele>324.2</ele><time>2011-10-11T07:29:33.0000000+00:00</time></trkpt><trkpt lat="44.608833" lon="33.741138"><ele>324.2</ele><time>2011-10-11T07:29:38.0000000+00:00</time></trkpt><trkpt lat="44.608826" lon="33.741127"><ele>324.2</ele><time>2011-10-11T07:29:43.0000000+00:00</time></trkpt><trkpt lat="44.608772" lon="33.741104"><ele>324.5</ele><time>2011-10-11T07:29:48.0000000+00:00</time></trkpt><trkpt lat="44.608749" lon="33.741096"><ele>324.8</ele><time>2011-10-11T07:29:53.0000000+00:00</time></trkpt><trkpt lat="44.608707" lon="33.741093"><ele>325.0</ele><time>2011-10-11T07:29:58.0000000+00:00</time></trkpt><trkpt lat="44.608688" lon="33.741077"><ele>325.4</ele><time>2011-10-11T07:30:03.0000000+00:00</time></trkpt><trkpt lat="44.608643" lon="33.741055"><ele>326.0</ele><time>2011-10-11T07:30:08.0000000+00:00</time></trkpt><trkpt lat="44.608624" lon="33.741024"><ele>326.7</ele><time>2011-10-11T07:30:13.0000000+00:00</time></trkpt><trkpt lat="44.608631" lon="33.741028"><ele>327.5</ele><time>2011-10-11T07:30:18.0000000+00:00</time></trkpt><trkpt lat="44.608627" lon="33.741024"><ele>328.0</ele><time>2011-10-11T07:30:23.0000000+00:00</time></trkpt><trkpt lat="44.60862" lon="33.741016"><ele>328.6</ele><time>2011-10-11T07:30:28.0000000+00:00</time></trkpt><trkpt lat="44.608589" lon="33.740993"><ele>329.0</ele><time>2011-10-11T07:30:33.0000000+00:00</time></trkpt><trkpt lat="44.608585" lon="33.740986"><ele>329.5</ele><time>2011-10-11T07:30:38.0000000+00:00</time></trkpt><trkpt lat="44.608578" lon="33.740959"><ele>329.9</ele><time>2011-10-11T07:30:43.0000000+00:00</time></trkpt><trkpt lat="44.60857" lon="33.740913"><ele>329.8</ele><time>2011-10-11T07:30:48.0000000+00:00</time></trkpt><trkpt lat="44.60857" lon="33.740898"><ele>330.2</ele><time>2011-10-11T07:30:53.0000000+00:00</time></trkpt><trkpt lat="44.608578" lon="33.740898"><ele>330.5</ele><time>2011-10-11T07:30:58.0000000+00:00</time></trkpt><trkpt lat="44.608578" lon="33.740902"><ele>330.6</ele><time>2011-10-11T07:31:03.0000000+00:00</time></trkpt><trkpt lat="44.608559" lon="33.740932"><ele>330.9</ele><time>2011-10-11T07:31:08.0000000+00:00</time></trkpt><trkpt lat="44.60854" lon="33.740925"><ele>330.2</ele><time>2011-10-11T07:31:13.0000000+00:00</time></trkpt><trkpt lat="44.608547" lon="33.740906"><ele>329.9</ele><time>2011-10-11T07:31:18.0000000+00:00</time></trkpt><trkpt lat="44.608543" lon="33.740898"><ele>330.1</ele><time>2011-10-11T07:31:23.0000000+00:00</time></trkpt><trkpt lat="44.60854" lon="33.740902"><ele>330.1</ele><time>2011-10-11T07:31:28.0000000+00:00</time></trkpt><trkpt lat="44.608543" lon="33.740906"><ele>330.1</ele><time>2011-10-11T07:31:33.0000000+00:00</time></trkpt><trkpt lat="44.608551" lon="33.74091"><ele>330.0</ele><time>2011-10-11T07:31:38.0000000+00:00</time></trkpt><trkpt lat="44.608555" lon="33.74091"><ele>330.1</ele><time>2011-10-11T07:31:43.0000000+00:00</time></trkpt><trkpt lat="44.608559" lon="33.740894"><ele>330.0</ele><time>2011-10-11T07:31:48.0000000+00:00</time></trkpt><trkpt lat="44.608559" lon="33.740852"><ele>329.6</ele><time>2011-10-11T07:31:53.0000000+00:00</time></trkpt><trkpt lat="44.608566" lon="33.740826"><ele>329.7</ele><time>2011-10-11T07:31:58.0000000+00:00</time></trkpt><trkpt lat="44.608574" lon="33.740803"><ele>329.7</ele><time>2011-10-11T07:32:03.0000000+00:00</time></trkpt><trkpt lat="44.608578" lon="33.740795"><ele>329.7</ele><time>2011-10-11T07:32:08.0000000+00:00</time></trkpt><trkpt lat="44.608578" lon="33.740784"><ele>329.7</ele><time>2011-10-11T07:32:13.0000000+00:00</time></trkpt><trkpt lat="44.608585" lon="33.74078"><ele>329.7</ele><time>2011-10-11T07:32:18.0000000+00:00</time></trkpt><trkpt lat="44.608585" lon="33.740772"><ele>329.7</ele><time>2011-10-11T07:32:23.0000000+00:00</time></trkpt><trkpt lat="44.608578" lon="33.740765"><ele>329.6</ele><time>2011-10-11T07:32:28.0000000+00:00</time></trkpt><trkpt lat="44.608574" lon="33.740757"><ele>329.6</ele><time>2011-10-11T07:32:33.0000000+00:00</time></trkpt><trkpt lat="44.608566" lon="33.740753"><ele>329.6</ele><time>2011-10-11T07:32:38.0000000+00:00</time></trkpt><trkpt lat="44.608559" lon="33.740746"><ele>329.6</ele><time>2011-10-11T07:32:43.0000000+00:00</time></trkpt><trkpt lat="44.608555" lon="33.740742"><ele>329.5</ele><time>2011-10-11T07:32:48.0000000+00:00</time></trkpt><trkpt lat="44.608505" lon="33.740765"><ele>329.0</ele><time>2011-10-11T07:32:53.0000000+00:00</time></trkpt><trkpt lat="44.60849" lon="33.740772"><ele>328.5</ele><time>2011-10-11T07:32:58.0000000+00:00</time></trkpt><trkpt lat="44.608482" lon="33.740772"><ele>328.4</ele><time>2011-10-11T07:33:03.0000000+00:00</time></trkpt><trkpt lat="44.608486" lon="33.740768"><ele>328.3</ele><time>2011-10-11T07:33:08.0000000+00:00</time></trkpt><trkpt lat="44.608486" lon="33.740761"><ele>328.2</ele><time>2011-10-11T07:33:13.0000000+00:00</time></trkpt><trkpt lat="44.608482" lon="33.740768"><ele>328.2</ele><time>2011-10-11T07:33:18.0000000+00:00</time></trkpt><trkpt lat="44.608494" lon="33.740803"><ele>328.2</ele><time>2011-10-11T07:33:23.0000000+00:00</time></trkpt><trkpt lat="44.608521" lon="33.740807"><ele>328.1</ele><time>2011-10-11T07:33:28.0000000+00:00</time></trkpt><trkpt lat="44.608524" lon="33.740795"><ele>328.1</ele><time>2011-10-11T07:33:33.0000000+00:00</time></trkpt><trkpt lat="44.608528" lon="33.740788"><ele>328.1</ele><time>2011-10-11T07:33:38.0000000+00:00</time></trkpt><trkpt lat="44.608532" lon="33.740814"><ele>328.0</ele><time>2011-10-11T07:33:43.0000000+00:00</time></trkpt><trkpt lat="44.608467" lon="33.740868"><ele>327.5</ele><time>2011-10-11T07:33:48.0000000+00:00</time></trkpt><trkpt lat="44.608498" lon="33.740871"><ele>327.0</ele><time>2011-10-11T07:33:53.0000000+00:00</time></trkpt><trkpt lat="44.608528" lon="33.740833"><ele>326.9</ele><time>2011-10-11T07:33:58.0000000+00:00</time></trkpt><trkpt lat="44.608521" lon="33.740784"><ele>326.8</ele><time>2011-10-11T07:34:03.0000000+00:00</time></trkpt><trkpt lat="44.608513" lon="33.740791"><ele>326.7</ele><time>2011-10-11T07:34:08.0000000+00:00</time></trkpt><trkpt lat="44.608459" lon="33.740761"><ele>326.7</ele><time>2011-10-11T07:34:13.0000000+00:00</time></trkpt><trkpt lat="44.608463" lon="33.740677"><ele>326.5</ele><time>2011-10-11T07:34:18.0000000+00:00</time></trkpt><trkpt lat="44.608452" lon="33.740597"><ele>326.4</ele><time>2011-10-11T07:34:23.0000000+00:00</time></trkpt><trkpt lat="44.608395" lon="33.740585"><ele>326.4</ele><time>2011-10-11T07:34:28.0000000+00:00</time></trkpt><trkpt lat="44.608322" lon="33.740562"><ele>326.3</ele><time>2011-10-11T07:34:33.0000000+00:00</time></trkpt><trkpt lat="44.608242" lon="33.740536"><ele>326.2</ele><time>2011-10-11T07:34:38.0000000+00:00</time></trkpt><trkpt lat="44.608135" lon="33.74054"><ele>326.0</ele><time>2011-10-11T07:34:43.0000000+00:00</time></trkpt><trkpt lat="44.608128" lon="33.740459"><ele>325.9</ele><time>2011-10-11T07:34:48.0000000+00:00</time></trkpt><trkpt lat="44.608372" lon="33.74065"><ele>325.9</ele><time>2011-10-11T07:34:53.0000000+00:00</time></trkpt><trkpt lat="44.608421" lon="33.740635"><ele>325.8</ele><time>2011-10-11T07:34:58.0000000+00:00</time></trkpt><trkpt lat="44.608448" lon="33.740635"><ele>325.6</ele><time>2011-10-11T07:35:03.0000000+00:00</time></trkpt><trkpt lat="44.608448" lon="33.740608"><ele>325.5</ele><time>2011-10-11T07:35:08.0000000+00:00</time></trkpt><trkpt lat="44.608421" lon="33.740597"><ele>325.5</ele><time>2011-10-11T07:35:13.0000000+00:00</time></trkpt><trkpt lat="44.608398" lon="33.740555"><ele>326.1</ele><time>2011-10-11T07:35:18.0000000+00:00</time></trkpt><trkpt lat="44.608387" lon="33.740543"><ele>326.1</ele><time>2011-10-11T07:35:23.0000000+00:00</time></trkpt><trkpt lat="44.608418" lon="33.740532"><ele>325.5</ele><time>2011-10-11T07:35:28.0000000+00:00</time></trkpt><trkpt lat="44.608414" lon="33.740524"><ele>326.5</ele><time>2011-10-11T07:35:33.0000000+00:00</time></trkpt><trkpt lat="44.608398" lon="33.740524"><ele>327.0</ele><time>2011-10-11T07:35:38.0000000+00:00</time></trkpt><trkpt lat="44.608372" lon="33.740528"><ele>326.4</ele><time>2011-10-11T07:35:43.0000000+00:00</time></trkpt><trkpt lat="44.608372" lon="33.740524"><ele>326.4</ele><time>2011-10-11T07:35:48.0000000+00:00</time></trkpt><trkpt lat="44.608368" lon="33.740528"><ele>326.4</ele><time>2011-10-11T07:35:53.0000000+00:00</time></trkpt><trkpt lat="44.608353" lon="33.740532"><ele>326.6</ele><time>2011-10-11T07:35:58.0000000+00:00</time></trkpt><trkpt lat="44.608356" lon="33.74054"><ele>325.9</ele><time>2011-10-11T07:36:03.0000000+00:00</time></trkpt><trkpt lat="44.60836" lon="33.740528"><ele>325.6</ele><time>2011-10-11T07:36:08.0000000+00:00</time></trkpt><trkpt lat="44.60836" lon="33.740532"><ele>325.4</ele><time>2011-10-11T07:36:13.0000000+00:00</time></trkpt><trkpt lat="44.60836" lon="33.740532"><ele>325.2</ele><time>2011-10-11T07:36:18.0000000+00:00</time></trkpt><trkpt lat="44.60836" lon="33.740543"><ele>325.2</ele><time>2011-10-11T07:36:23.0000000+00:00</time></trkpt><trkpt lat="44.608356" lon="33.740547"><ele>325.2</ele><time>2011-10-11T07:36:28.0000000+00:00</time></trkpt><trkpt lat="44.608353" lon="33.740547"><ele>325.3</ele><time>2011-10-11T07:36:33.0000000+00:00</time></trkpt><trkpt lat="44.608356" lon="33.740559"><ele>324.9</ele><time>2011-10-11T07:36:38.0000000+00:00</time></trkpt><trkpt lat="44.608353" lon="33.740562"><ele>324.9</ele><time>2011-10-11T07:36:43.0000000+00:00</time></trkpt><trkpt lat="44.608356" lon="33.740547"><ele>324.7</ele><time>2011-10-11T07:36:48.0000000+00:00</time></trkpt><trkpt lat="44.608345" lon="33.740509"><ele>324.3</ele><time>2011-10-11T07:36:53.0000000+00:00</time></trkpt><trkpt lat="44.608307" lon="33.740501"><ele>324.3</ele><time>2011-10-11T07:36:58.0000000+00:00</time></trkpt><trkpt lat="44.608292" lon="33.740498"><ele>324.3</ele><time>2011-10-11T07:37:03.0000000+00:00</time></trkpt><trkpt lat="44.608284" lon="33.740498"><ele>323.9</ele><time>2011-10-11T07:37:08.0000000+00:00</time></trkpt><trkpt lat="44.608307" lon="33.740555"><ele>323.6</ele><time>2011-10-11T07:37:13.0000000+00:00</time></trkpt><trkpt lat="44.608315" lon="33.740536"><ele>322.7</ele><time>2011-10-11T07:37:18.0000000+00:00</time></trkpt><trkpt lat="44.608318" lon="33.740532"><ele>322.6</ele><time>2011-10-11T07:37:23.0000000+00:00</time></trkpt><trkpt lat="44.60833" lon="33.74054"><ele>322.3</ele><time>2011-10-11T07:37:28.0000000+00:00</time></trkpt><trkpt lat="44.608315" lon="33.740528"><ele>321.4</ele><time>2011-10-11T07:37:33.0000000+00:00</time></trkpt><trkpt lat="44.608303" lon="33.740532"><ele>320.6</ele><time>2011-10-11T07:37:38.0000000+00:00</time></trkpt><trkpt lat="44.608311" lon="33.740536"><ele>319.8</ele><time>2011-10-11T07:37:43.0000000+00:00</time></trkpt><trkpt lat="44.608322" lon="33.740532"><ele>320.4</ele><time>2011-10-11T07:37:48.0000000+00:00</time></trkpt><trkpt lat="44.608341" lon="33.74054"><ele>321.4</ele><time>2011-10-11T07:37:53.0000000+00:00</time></trkpt><trkpt lat="44.608341" lon="33.74054"><ele>321.4</ele><time>2011-10-11T07:37:58.0000000+00:00</time></trkpt><trkpt lat="44.608341" lon="33.74054"><ele>321.4</ele><time>2011-10-11T07:38:03.0000000+00:00</time></trkpt><trkpt lat="44.608337" lon="33.740536"><ele>321.3</ele><time>2011-10-11T07:38:08.0000000+00:00</time></trkpt><trkpt lat="44.608337" lon="33.740536"><ele>321.3</ele><time>2011-10-11T07:38:13.0000000+00:00</time></trkpt><trkpt lat="44.608337" lon="33.740536"><ele>321.3</ele><time>2011-10-11T07:38:18.0000000+00:00</time></trkpt><trkpt lat="44.608337" lon="33.740536"><ele>321.3</ele><time>2011-10-11T07:38:23.0000000+00:00</time></trkpt><trkpt lat="44.608337" lon="33.740536"><ele>321.3</ele><time>2011-10-11T07:38:28.0000000+00:00</time></trkpt><trkpt lat="44.608337" lon="33.740536"><ele>321.4</ele><time>2011-10-11T07:38:33.0000000+00:00</time></trkpt><trkpt lat="44.608337" lon="33.740536"><ele>321.4</ele><time>2011-10-11T07:38:38.0000000+00:00</time></trkpt><trkpt lat="44.608337" lon="33.740536"><ele>321.4</ele><time>2011-10-11T07:38:43.0000000+00:00</time></trkpt><trkpt lat="44.608337" lon="33.740532"><ele>321.4</ele><time>2011-10-11T07:38:48.0000000+00:00</time></trkpt><trkpt lat="44.608334" lon="33.740528"><ele>321.4</ele><time>2011-10-11T07:38:53.0000000+00:00</time></trkpt><trkpt lat="44.60828" lon="33.740494"><ele>323.3</ele><time>2011-10-11T07:38:58.0000000+00:00</time></trkpt><trkpt lat="44.608231" lon="33.740452"><ele>322.6</ele><time>2011-10-11T07:39:03.0000000+00:00</time></trkpt><trkpt lat="44.608166" lon="33.740398"><ele>322.3</ele><time>2011-10-11T07:39:08.0000000+00:00</time></trkpt><trkpt lat="44.608105" lon="33.740372"><ele>322.3</ele><time>2011-10-11T07:39:13.0000000+00:00</time></trkpt><trkpt lat="44.608017" lon="33.740356"><ele>323.2</ele><time>2011-10-11T07:39:18.0000000+00:00</time></trkpt><trkpt lat="44.607929" lon="33.740314"><ele>323.5</ele><time>2011-10-11T07:39:23.0000000+00:00</time></trkpt><trkpt lat="44.607845" lon="33.740292"><ele>324.5</ele><time>2011-10-11T07:39:28.0000000+00:00</time></trkpt><trkpt lat="44.607769" lon="33.740265"><ele>325.1</ele><time>2011-10-11T07:39:33.0000000+00:00</time></trkpt><trkpt lat="44.607704" lon="33.740253"><ele>326.3</ele><time>2011-10-11T07:39:38.0000000+00:00</time></trkpt><trkpt lat="44.607658" lon="33.740219"><ele>325.8</ele><time>2011-10-11T07:39:43.0000000+00:00</time></trkpt><trkpt lat="44.607635" lon="33.740196"><ele>324.4</ele><time>2011-10-11T07:39:48.0000000+00:00</time></trkpt><trkpt lat="44.60759" lon="33.740177"><ele>323.8</ele><time>2011-10-11T07:39:53.0000000+00:00</time></trkpt><trkpt lat="44.607574" lon="33.740147"><ele>323.2</ele><time>2011-10-11T07:39:58.0000000+00:00</time></trkpt><trkpt lat="44.607559" lon="33.74015"><ele>322.6</ele><time>2011-10-11T07:40:03.0000000+00:00</time></trkpt><trkpt lat="44.607552" lon="33.740147"><ele>321.9</ele><time>2011-10-11T07:40:08.0000000+00:00</time></trkpt><trkpt lat="44.607552" lon="33.740154"><ele>321.4</ele><time>2011-10-11T07:40:13.0000000+00:00</time></trkpt><trkpt lat="44.607536" lon="33.740124"><ele>321.0</ele><time>2011-10-11T07:40:18.0000000+00:00</time></trkpt><trkpt lat="44.60754" lon="33.74012"><ele>321.1</ele><time>2011-10-11T07:40:23.0000000+00:00</time></trkpt><trkpt lat="44.60754" lon="33.740116"><ele>321.1</ele><time>2011-10-11T07:40:28.0000000+00:00</time></trkpt><trkpt lat="44.607529" lon="33.740078"><ele>320.8</ele><time>2011-10-11T07:40:33.0000000+00:00</time></trkpt><trkpt lat="44.607521" lon="33.740044"><ele>320.5</ele><time>2011-10-11T07:40:38.0000000+00:00</time></trkpt><trkpt lat="44.607536" lon="33.74004"><ele>320.0</ele><time>2011-10-11T07:40:43.0000000+00:00</time></trkpt><trkpt lat="44.60754" lon="33.740044"><ele>319.3</ele><time>2011-10-11T07:40:48.0000000+00:00</time></trkpt><trkpt lat="44.60754" lon="33.740036"><ele>319.5</ele><time>2011-10-11T07:40:53.0000000+00:00</time></trkpt><trkpt lat="44.607525" lon="33.740009"><ele>318.6</ele><time>2011-10-11T07:40:58.0000000+00:00</time></trkpt><trkpt lat="44.607521" lon="33.739983"><ele>318.2</ele><time>2011-10-11T07:41:03.0000000+00:00</time></trkpt><trkpt lat="44.60751" lon="33.739964"><ele>317.8</ele><time>2011-10-11T07:41:08.0000000+00:00</time></trkpt><trkpt lat="44.607513" lon="33.739918"><ele>318.4</ele><time>2011-10-11T07:41:13.0000000+00:00</time></trkpt><trkpt lat="44.607506" lon="33.739895"><ele>318.9</ele><time>2011-10-11T07:41:18.0000000+00:00</time></trkpt><trkpt lat="44.607502" lon="33.739876"><ele>319.3</ele><time>2011-10-11T07:41:23.0000000+00:00</time></trkpt><trkpt lat="44.607525" lon="33.739819"><ele>319.6</ele><time>2011-10-11T07:41:28.0000000+00:00</time></trkpt><trkpt lat="44.607548" lon="33.739761"><ele>322.6</ele><time>2011-10-11T07:41:33.0000000+00:00</time></trkpt><trkpt lat="44.607548" lon="33.739754"><ele>322.7</ele><time>2011-10-11T07:41:38.0000000+00:00</time></trkpt><trkpt lat="44.607552" lon="33.739746"><ele>322.9</ele><time>2011-10-11T07:41:43.0000000+00:00</time></trkpt><trkpt lat="44.607552" lon="33.739754"><ele>323.0</ele><time>2011-10-11T07:41:48.0000000+00:00</time></trkpt><trkpt lat="44.607548" lon="33.739758"><ele>323.2</ele><time>2011-10-11T07:41:53.0000000+00:00</time></trkpt><trkpt lat="44.60754" lon="33.739754"><ele>323.5</ele><time>2011-10-11T07:41:58.0000000+00:00</time></trkpt><trkpt lat="44.607521" lon="33.73975"><ele>323.8</ele><time>2011-10-11T07:42:03.0000000+00:00</time></trkpt><trkpt lat="44.607475" lon="33.739723"><ele>323.9</ele><time>2011-10-11T07:42:08.0000000+00:00</time></trkpt><trkpt lat="44.607433" lon="33.739723"><ele>324.4</ele><time>2011-10-11T07:42:13.0000000+00:00</time></trkpt><trkpt lat="44.607342" lon="33.739719"><ele>325.5</ele><time>2011-10-11T07:42:18.0000000+00:00</time></trkpt><trkpt lat="44.607265" lon="33.739731"><ele>325.9</ele><time>2011-10-11T07:42:23.0000000+00:00</time></trkpt><trkpt lat="44.607231" lon="33.739708"><ele>325.9</ele><time>2011-10-11T07:42:28.0000000+00:00</time></trkpt><trkpt lat="44.607185" lon="33.739655"><ele>324.9</ele><time>2011-10-11T07:42:33.0000000+00:00</time></trkpt><trkpt lat="44.607132" lon="33.739624"><ele>324.1</ele><time>2011-10-11T07:42:38.0000000+00:00</time></trkpt><trkpt lat="44.60709" lon="33.739609"><ele>322.3</ele><time>2011-10-11T07:42:43.0000000+00:00</time></trkpt><trkpt lat="44.607082" lon="33.73959"><ele>322.7</ele><time>2011-10-11T07:42:48.0000000+00:00</time></trkpt><trkpt lat="44.607079" lon="33.739574"><ele>323.3</ele><time>2011-10-11T07:42:53.0000000+00:00</time></trkpt><trkpt lat="44.607079" lon="33.739552"><ele>324.8</ele><time>2011-10-11T07:42:58.0000000+00:00</time></trkpt><trkpt lat="44.607086" lon="33.739487"><ele>325.6</ele><time>2011-10-11T07:43:03.0000000+00:00</time></trkpt><trkpt lat="44.607059" lon="33.739391"><ele>325.6</ele><time>2011-10-11T07:43:08.0000000+00:00</time></trkpt><trkpt lat="44.607033" lon="33.739353"><ele>324.4</ele><time>2011-10-11T07:43:13.0000000+00:00</time></trkpt><trkpt lat="44.607052" lon="33.73933"><ele>325.3</ele><time>2011-10-11T07:43:18.0000000+00:00</time></trkpt><trkpt lat="44.607052" lon="33.73933"><ele>324.9</ele><time>2011-10-11T07:43:23.0000000+00:00</time></trkpt><trkpt lat="44.607044" lon="33.739323"><ele>325.0</ele><time>2011-10-11T07:43:28.0000000+00:00</time></trkpt><trkpt lat="44.607037" lon="33.739334"><ele>325.7</ele><time>2011-10-11T07:43:33.0000000+00:00</time></trkpt><trkpt lat="44.607018" lon="33.739323"><ele>325.9</ele><time>2011-10-11T07:43:38.0000000+00:00</time></trkpt><trkpt lat="44.606995" lon="33.739288"><ele>326.2</ele><time>2011-10-11T07:43:43.0000000+00:00</time></trkpt><trkpt lat="44.606976" lon="33.739223"><ele>326.6</ele><time>2011-10-11T07:43:48.0000000+00:00</time></trkpt><trkpt lat="44.606941" lon="33.739166"><ele>326.8</ele><time>2011-10-11T07:43:53.0000000+00:00</time></trkpt><trkpt lat="44.606903" lon="33.739128"><ele>327.0</ele><time>2011-10-11T07:43:58.0000000+00:00</time></trkpt><trkpt lat="44.606846" lon="33.739098"><ele>326.8</ele><time>2011-10-11T07:44:03.0000000+00:00</time></trkpt><trkpt lat="44.606842" lon="33.739059"><ele>327.1</ele><time>2011-10-11T07:44:08.0000000+00:00</time></trkpt><trkpt lat="44.606842" lon="33.739014"><ele>327.4</ele><time>2011-10-11T07:44:13.0000000+00:00</time></trkpt><trkpt lat="44.606831" lon="33.738972"><ele>328.5</ele><time>2011-10-11T07:44:18.0000000+00:00</time></trkpt><trkpt lat="44.606815" lon="33.738976"><ele>330.4</ele><time>2011-10-11T07:44:23.0000000+00:00</time></trkpt><trkpt lat="44.606785" lon="33.738976"><ele>330.8</ele><time>2011-10-11T07:44:28.0000000+00:00</time></trkpt><trkpt lat="44.606724" lon="33.738972"><ele>330.6</ele><time>2011-10-11T07:44:33.0000000+00:00</time></trkpt><trkpt lat="44.606724" lon="33.738941"><ele>330.8</ele><time>2011-10-11T07:44:38.0000000+00:00</time></trkpt><trkpt lat="44.606724" lon="33.738899"><ele>331.0</ele><time>2011-10-11T07:44:43.0000000+00:00</time></trkpt><trkpt lat="44.606716" lon="33.738846"><ele>331.1</ele><time>2011-10-11T07:44:48.0000000+00:00</time></trkpt><trkpt lat="44.606731" lon="33.738777"><ele>331.3</ele><time>2011-10-11T07:44:53.0000000+00:00</time></trkpt><trkpt lat="44.606731" lon="33.738697"><ele>331.2</ele><time>2011-10-11T07:44:58.0000000+00:00</time></trkpt><trkpt lat="44.606731" lon="33.738651"><ele>330.9</ele><time>2011-10-11T07:45:03.0000000+00:00</time></trkpt><trkpt lat="44.606724" lon="33.738632"><ele>330.4</ele><time>2011-10-11T07:45:08.0000000+00:00</time></trkpt><trkpt lat="44.606712" lon="33.738644"><ele>331.5</ele><time>2011-10-11T07:45:13.0000000+00:00</time></trkpt><trkpt lat="44.606678" lon="33.738609"><ele>331.6</ele><time>2011-10-11T07:45:18.0000000+00:00</time></trkpt><trkpt lat="44.606651" lon="33.73859"><ele>331.6</ele><time>2011-10-11T07:45:23.0000000+00:00</time></trkpt><trkpt lat="44.606617" lon="33.738586"><ele>331.1</ele><time>2011-10-11T07:45:28.0000000+00:00</time></trkpt><trkpt lat="44.606602" lon="33.738602"><ele>330.2</ele><time>2011-10-11T07:45:33.0000000+00:00</time></trkpt><trkpt lat="44.606571" lon="33.738632"><ele>331.2</ele><time>2011-10-11T07:45:38.0000000+00:00</time></trkpt><trkpt lat="44.60656" lon="33.73867"><ele>330.5</ele><time>2011-10-11T07:45:43.0000000+00:00</time></trkpt><trkpt lat="44.606529" lon="33.738705"><ele>330.2</ele><time>2011-10-11T07:45:48.0000000+00:00</time></trkpt><trkpt lat="44.606503" lon="33.738716"><ele>330.1</ele><time>2011-10-11T07:45:53.0000000+00:00</time></trkpt><trkpt lat="44.606461" lon="33.738728"><ele>330.0</ele><time>2011-10-11T07:45:58.0000000+00:00</time></trkpt><trkpt lat="44.606411" lon="33.738743"><ele>330.0</ele><time>2011-10-11T07:46:03.0000000+00:00</time></trkpt><trkpt lat="44.606369" lon="33.73877"><ele>330.1</ele><time>2011-10-11T07:46:08.0000000+00:00</time></trkpt><trkpt lat="44.606323" lon="33.738781"><ele>330.1</ele><time>2011-10-11T07:46:13.0000000+00:00</time></trkpt><trkpt lat="44.606285" lon="33.738781"><ele>330.2</ele><time>2011-10-11T07:46:18.0000000+00:00</time></trkpt><trkpt lat="44.606243" lon="33.738766"><ele>330.2</ele><time>2011-10-11T07:46:23.0000000+00:00</time></trkpt><trkpt lat="44.606266" lon="33.738766"><ele>329.5</ele><time>2011-10-11T07:46:28.0000000+00:00</time></trkpt><trkpt lat="44.606266" lon="33.738766"><ele>329.5</ele><time>2011-10-11T07:46:33.0000000+00:00</time></trkpt><trkpt lat="44.606266" lon="33.73877"><ele>329.4</ele><time>2011-10-11T07:46:38.0000000+00:00</time></trkpt><trkpt lat="44.606289" lon="33.738773"><ele>329.3</ele><time>2011-10-11T07:46:43.0000000+00:00</time></trkpt><trkpt lat="44.606289" lon="33.738754"><ele>329.3</ele><time>2011-10-11T07:46:48.0000000+00:00</time></trkpt><trkpt lat="44.606281" lon="33.738743"><ele>329.3</ele><time>2011-10-11T07:46:53.0000000+00:00</time></trkpt><trkpt lat="44.606281" lon="33.738735"><ele>329.3</ele><time>2011-10-11T07:46:58.0000000+00:00</time></trkpt><trkpt lat="44.606293" lon="33.738731"><ele>329.3</ele><time>2011-10-11T07:47:03.0000000+00:00</time></trkpt><trkpt lat="44.606293" lon="33.738735"><ele>329.2</ele><time>2011-10-11T07:47:08.0000000+00:00</time></trkpt><trkpt lat="44.606297" lon="33.738739"><ele>329.2</ele><time>2011-10-11T07:47:13.0000000+00:00</time></trkpt><trkpt lat="44.606297" lon="33.738743"><ele>329.2</ele><time>2011-10-11T07:47:18.0000000+00:00</time></trkpt><trkpt lat="44.606297" lon="33.738739"><ele>329.2</ele><time>2011-10-11T07:47:23.0000000+00:00</time></trkpt><trkpt lat="44.606285" lon="33.73872"><ele>328.7</ele><time>2011-10-11T07:47:28.0000000+00:00</time></trkpt><trkpt lat="44.606247" lon="33.738708"><ele>328.3</ele><time>2011-10-11T07:47:33.0000000+00:00</time></trkpt><trkpt lat="44.606243" lon="33.738705"><ele>328.1</ele><time>2011-10-11T07:47:38.0000000+00:00</time></trkpt><trkpt lat="44.606243" lon="33.738705"><ele>328.1</ele><time>2011-10-11T07:47:43.0000000+00:00</time></trkpt><trkpt lat="44.606243" lon="33.738705"><ele>328.0</ele><time>2011-10-11T07:47:48.0000000+00:00</time></trkpt><trkpt lat="44.606243" lon="33.738705"><ele>328.1</ele><time>2011-10-11T07:47:53.0000000+00:00</time></trkpt><trkpt lat="44.606243" lon="33.738705"><ele>328.1</ele><time>2011-10-11T07:47:58.0000000+00:00</time></trkpt><trkpt lat="44.606243" lon="33.738705"><ele>328.1</ele><time>2011-10-11T07:48:03.0000000+00:00</time></trkpt><trkpt lat="44.606239" lon="33.738705"><ele>328.1</ele><time>2011-10-11T07:48:08.0000000+00:00</time></trkpt><trkpt lat="44.606239" lon="33.738705"><ele>328.1</ele><time>2011-10-11T07:48:13.0000000+00:00</time></trkpt><trkpt lat="44.606216" lon="33.738716"><ele>327.3</ele><time>2011-10-11T07:48:18.0000000+00:00</time></trkpt><trkpt lat="44.606228" lon="33.73872"><ele>327.3</ele><time>2011-10-11T07:48:23.0000000+00:00</time></trkpt><trkpt lat="44.606251" lon="33.738735"><ele>327.3</ele><time>2011-10-11T07:48:28.0000000+00:00</time></trkpt><trkpt lat="44.606277" lon="33.738773"><ele>327.6</ele><time>2011-10-11T07:48:33.0000000+00:00</time></trkpt><trkpt lat="44.60627" lon="33.738766"><ele>327.9</ele><time>2011-10-11T07:48:38.0000000+00:00</time></trkpt><trkpt lat="44.606266" lon="33.738758"><ele>328.6</ele><time>2011-10-11T07:48:43.0000000+00:00</time></trkpt><trkpt lat="44.606266" lon="33.738754"><ele>329.2</ele><time>2011-10-11T07:48:48.0000000+00:00</time></trkpt><trkpt lat="44.60627" lon="33.738754"><ele>329.8</ele><time>2011-10-11T07:48:53.0000000+00:00</time></trkpt><trkpt lat="44.60627" lon="33.73875"><ele>330.3</ele><time>2011-10-11T07:48:58.0000000+00:00</time></trkpt><trkpt lat="44.60627" lon="33.738754"><ele>330.7</ele><time>2011-10-11T07:49:03.0000000+00:00</time></trkpt><trkpt lat="44.606274" lon="33.738762"><ele>331.1</ele><time>2011-10-11T07:49:08.0000000+00:00</time></trkpt><trkpt lat="44.606274" lon="33.738777"><ele>331.5</ele><time>2011-10-11T07:49:13.0000000+00:00</time></trkpt><trkpt lat="44.606274" lon="33.738781"><ele>331.7</ele><time>2011-10-11T07:49:18.0000000+00:00</time></trkpt><trkpt lat="44.606274" lon="33.738781"><ele>331.7</ele><time>2011-10-11T07:49:23.0000000+00:00</time></trkpt><trkpt lat="44.606274" lon="33.738777"><ele>331.7</ele><time>2011-10-11T07:49:28.0000000+00:00</time></trkpt><trkpt lat="44.60627" lon="33.738777"><ele>331.7</ele><time>2011-10-11T07:49:33.0000000+00:00</time></trkpt><trkpt lat="44.60627" lon="33.738777"><ele>331.7</ele><time>2011-10-11T07:49:38.0000000+00:00</time></trkpt><trkpt lat="44.60627" lon="33.738777"><ele>331.7</ele><time>2011-10-11T07:49:43.0000000+00:00</time></trkpt><trkpt lat="44.60627" lon="33.738777"><ele>331.7</ele><time>2011-10-11T07:49:48.0000000+00:00</time></trkpt><trkpt lat="44.60627" lon="33.738777"><ele>331.6</ele><time>2011-10-11T07:49:53.0000000+00:00</time></trkpt><trkpt lat="44.60627" lon="33.738777"><ele>331.6</ele><time>2011-10-11T07:49:58.0000000+00:00</time></trkpt><trkpt lat="44.60627" lon="33.738777"><ele>331.5</ele><time>2011-10-11T07:50:03.0000000+00:00</time></trkpt><trkpt lat="44.60627" lon="33.738773"><ele>331.5</ele><time>2011-10-11T07:50:08.0000000+00:00</time></trkpt><trkpt lat="44.60627" lon="33.738773"><ele>331.5</ele><time>2011-10-11T07:50:13.0000000+00:00</time></trkpt><trkpt lat="44.60627" lon="33.738773"><ele>331.4</ele><time>2011-10-11T07:50:18.0000000+00:00</time></trkpt><trkpt lat="44.60627" lon="33.738773"><ele>331.4</ele><time>2011-10-11T07:50:23.0000000+00:00</time></trkpt><trkpt lat="44.60627" lon="33.738773"><ele>331.4</ele><time>2011-10-11T07:50:28.0000000+00:00</time></trkpt><trkpt lat="44.606224" lon="33.738682"><ele>318.3</ele><time>2011-10-11T07:50:33.0000000+00:00</time></trkpt><trkpt lat="44.606201" lon="33.738697"><ele>318.2</ele><time>2011-10-11T07:50:38.0000000+00:00</time></trkpt><trkpt lat="44.606205" lon="33.738686"><ele>318.0</ele><time>2011-10-11T07:50:43.0000000+00:00</time></trkpt><trkpt lat="44.606236" lon="33.73864"><ele>317.5</ele><time>2011-10-11T07:50:48.0000000+00:00</time></trkpt><trkpt lat="44.606255" lon="33.738609"><ele>317.4</ele><time>2011-10-11T07:50:53.0000000+00:00</time></trkpt><trkpt lat="44.60627" lon="33.738583"><ele>316.8</ele><time>2011-10-11T07:50:58.0000000+00:00</time></trkpt><trkpt lat="44.606319" lon="33.738583"><ele>317.7</ele><time>2011-10-11T07:51:03.0000000+00:00</time></trkpt><trkpt lat="44.606308" lon="33.738556"><ele>317.8</ele><time>2011-10-11T07:51:08.0000000+00:00</time></trkpt><trkpt lat="44.606304" lon="33.738544"><ele>318.0</ele><time>2011-10-11T07:51:13.0000000+00:00</time></trkpt><trkpt lat="44.6063" lon="33.738541"><ele>318.2</ele><time>2011-10-11T07:51:18.0000000+00:00</time></trkpt><trkpt lat="44.606297" lon="33.738544"><ele>318.4</ele><time>2011-10-11T07:51:23.0000000+00:00</time></trkpt><trkpt lat="44.606297" lon="33.738548"><ele>318.6</ele><time>2011-10-11T07:51:28.0000000+00:00</time></trkpt><trkpt lat="44.606297" lon="33.738548"><ele>318.8</ele><time>2011-10-11T07:51:33.0000000+00:00</time></trkpt><trkpt lat="44.606297" lon="33.738548"><ele>318.9</ele><time>2011-10-11T07:51:38.0000000+00:00</time></trkpt><trkpt lat="44.606297" lon="33.738548"><ele>318.9</ele><time>2011-10-11T07:51:43.0000000+00:00</time></trkpt><trkpt lat="44.606297" lon="33.738548"><ele>318.9</ele><time>2011-10-11T07:51:48.0000000+00:00</time></trkpt><trkpt lat="44.606312" lon="33.738544"><ele>318.6</ele><time>2011-10-11T07:51:53.0000000+00:00</time></trkpt><trkpt lat="44.606358" lon="33.738529"><ele>317.8</ele><time>2011-10-11T07:51:58.0000000+00:00</time></trkpt><trkpt lat="44.6064" lon="33.738506"><ele>316.9</ele><time>2011-10-11T07:52:03.0000000+00:00</time></trkpt><trkpt lat="44.606419" lon="33.738499"><ele>316.6</ele><time>2011-10-11T07:52:08.0000000+00:00</time></trkpt><trkpt lat="44.606441" lon="33.738483"><ele>316.1</ele><time>2011-10-11T07:52:13.0000000+00:00</time></trkpt><trkpt lat="44.606449" lon="33.738457"><ele>316.1</ele><time>2011-10-11T07:52:18.0000000+00:00</time></trkpt><trkpt lat="44.606453" lon="33.738468"><ele>316.4</ele><time>2011-10-11T07:52:23.0000000+00:00</time></trkpt><trkpt lat="44.606457" lon="33.738468"><ele>316.4</ele><time>2011-10-11T07:52:28.0000000+00:00</time></trkpt><trkpt lat="44.606449" lon="33.738472"><ele>315.1</ele><time>2011-10-11T07:52:33.0000000+00:00</time></trkpt><trkpt lat="44.606434" lon="33.738491"><ele>314.6</ele><time>2011-10-11T07:52:38.0000000+00:00</time></trkpt><trkpt lat="44.606438" lon="33.738495"><ele>314.2</ele><time>2011-10-11T07:52:43.0000000+00:00</time></trkpt><trkpt lat="44.606422" lon="33.738506"><ele>313.4</ele><time>2011-10-11T07:52:48.0000000+00:00</time></trkpt><trkpt lat="44.606407" lon="33.738514"><ele>313.2</ele><time>2011-10-11T07:52:53.0000000+00:00</time></trkpt><trkpt lat="44.606407" lon="33.738514"><ele>313.1</ele><time>2011-10-11T07:52:58.0000000+00:00</time></trkpt><trkpt lat="44.606407" lon="33.738518"><ele>313.1</ele><time>2011-10-11T07:53:03.0000000+00:00</time></trkpt><trkpt lat="44.606411" lon="33.738518"><ele>313.0</ele><time>2011-10-11T07:53:08.0000000+00:00</time></trkpt><trkpt lat="44.606407" lon="33.738522"><ele>313.1</ele><time>2011-10-11T07:53:13.0000000+00:00</time></trkpt><trkpt lat="44.606392" lon="33.738537"><ele>313.0</ele><time>2011-10-11T07:53:18.0000000+00:00</time></trkpt><trkpt lat="44.606377" lon="33.738544"><ele>312.8</ele><time>2011-10-11T07:53:23.0000000+00:00</time></trkpt><trkpt lat="44.606377" lon="33.738548"><ele>312.6</ele><time>2011-10-11T07:53:28.0000000+00:00</time></trkpt><trkpt lat="44.606377" lon="33.738544"><ele>312.4</ele><time>2011-10-11T07:53:33.0000000+00:00</time></trkpt><trkpt lat="44.606377" lon="33.738544"><ele>312.3</ele><time>2011-10-11T07:53:38.0000000+00:00</time></trkpt><trkpt lat="44.606377" lon="33.738544"><ele>312.3</ele><time>2011-10-11T07:53:43.0000000+00:00</time></trkpt><trkpt lat="44.606377" lon="33.738544"><ele>312.3</ele><time>2011-10-11T07:53:48.0000000+00:00</time></trkpt><trkpt lat="44.606377" lon="33.738544"><ele>312.3</ele><time>2011-10-11T07:53:53.0000000+00:00</time></trkpt><trkpt lat="44.606377" lon="33.738544"><ele>312.3</ele><time>2011-10-11T07:53:58.0000000+00:00</time></trkpt><trkpt lat="44.606373" lon="33.738544"><ele>312.3</ele><time>2011-10-11T07:54:03.0000000+00:00</time></trkpt><trkpt lat="44.606373" lon="33.738544"><ele>312.3</ele><time>2011-10-11T07:54:08.0000000+00:00</time></trkpt><trkpt lat="44.606354" lon="33.738571"><ele>312.4</ele><time>2011-10-11T07:54:13.0000000+00:00</time></trkpt><trkpt lat="44.606312" lon="33.738598"><ele>312.2</ele><time>2011-10-11T07:54:18.0000000+00:00</time></trkpt><trkpt lat="44.606255" lon="33.738625"><ele>311.4</ele><time>2011-10-11T07:54:23.0000000+00:00</time></trkpt><trkpt lat="44.606232" lon="33.738682"><ele>310.9</ele><time>2011-10-11T07:54:28.0000000+00:00</time></trkpt><trkpt lat="44.606201" lon="33.738724"><ele>312.3</ele><time>2011-10-11T07:54:33.0000000+00:00</time></trkpt><trkpt lat="44.606197" lon="33.738708"><ele>313.2</ele><time>2011-10-11T07:54:38.0000000+00:00</time></trkpt><trkpt lat="44.606197" lon="33.738712"><ele>313.2</ele><time>2011-10-11T07:54:43.0000000+00:00</time></trkpt><trkpt lat="44.60619" lon="33.738724"><ele>313.1</ele><time>2011-10-11T07:54:48.0000000+00:00</time></trkpt><trkpt lat="44.606194" lon="33.738731"><ele>313.3</ele><time>2011-10-11T07:54:53.0000000+00:00</time></trkpt><trkpt lat="44.606213" lon="33.738739"><ele>314.0</ele><time>2011-10-11T07:54:58.0000000+00:00</time></trkpt><trkpt lat="44.606236" lon="33.738758"><ele>314.5</ele><time>2011-10-11T07:55:03.0000000+00:00</time></trkpt><trkpt lat="44.606243" lon="33.738789"><ele>315.1</ele><time>2011-10-11T07:55:08.0000000+00:00</time></trkpt><trkpt lat="44.606239" lon="33.738781"><ele>315.1</ele><time>2011-10-11T07:55:13.0000000+00:00</time></trkpt><trkpt lat="44.606277" lon="33.738762"><ele>315.9</ele><time>2011-10-11T07:55:18.0000000+00:00</time></trkpt><trkpt lat="44.606316" lon="33.738777"><ele>316.8</ele><time>2011-10-11T07:55:23.0000000+00:00</time></trkpt><trkpt lat="44.606316" lon="33.738831"><ele>317.0</ele><time>2011-10-11T07:55:28.0000000+00:00</time></trkpt><trkpt lat="44.606316" lon="33.738865"><ele>317.1</ele><time>2011-10-11T07:55:33.0000000+00:00</time></trkpt><trkpt lat="44.6063" lon="33.738888"><ele>317.1</ele><time>2011-10-11T07:55:38.0000000+00:00</time></trkpt><trkpt lat="44.606297" lon="33.738888"><ele>317.1</ele><time>2011-10-11T07:55:43.0000000+00:00</time></trkpt><trkpt lat="44.606297" lon="33.738888"><ele>317.2</ele><time>2011-10-11T07:55:48.0000000+00:00</time></trkpt><trkpt lat="44.606304" lon="33.738865"><ele>317.2</ele><time>2011-10-11T07:55:53.0000000+00:00</time></trkpt><trkpt lat="44.606316" lon="33.738861"><ele>317.2</ele><time>2011-10-11T07:55:58.0000000+00:00</time></trkpt><trkpt lat="44.606319" lon="33.738865"><ele>317.2</ele><time>2011-10-11T07:56:03.0000000+00:00</time></trkpt><trkpt lat="44.606331" lon="33.738873"><ele>317.2</ele><time>2011-10-11T07:56:08.0000000+00:00</time></trkpt><trkpt lat="44.606335" lon="33.73888"><ele>317.1</ele><time>2011-10-11T07:56:13.0000000+00:00</time></trkpt><trkpt lat="44.606365" lon="33.738911"><ele>317.1</ele><time>2011-10-11T07:56:18.0000000+00:00</time></trkpt><trkpt lat="44.606388" lon="33.738918"><ele>317.1</ele><time>2011-10-11T07:56:23.0000000+00:00</time></trkpt><trkpt lat="44.60643" lon="33.738926"><ele>317.0</ele><time>2011-10-11T07:56:28.0000000+00:00</time></trkpt><trkpt lat="44.606441" lon="33.738911"><ele>316.9</ele><time>2011-10-11T07:56:33.0000000+00:00</time></trkpt><trkpt lat="44.606483" lon="33.738934"><ele>316.8</ele><time>2011-10-11T07:56:38.0000000+00:00</time></trkpt><trkpt lat="44.606419" lon="33.738934"><ele>316.7</ele><time>2011-10-11T07:56:43.0000000+00:00</time></trkpt><trkpt lat="44.606419" lon="33.738922"><ele>316.7</ele><time>2011-10-11T07:56:48.0000000+00:00</time></trkpt><trkpt lat="44.606419" lon="33.738914"><ele>316.7</ele><time>2011-10-11T07:56:53.0000000+00:00</time></trkpt><trkpt lat="44.606415" lon="33.738914"><ele>316.6</ele><time>2011-10-11T07:56:58.0000000+00:00</time></trkpt><trkpt lat="44.606392" lon="33.738892"><ele>316.6</ele><time>2011-10-11T07:57:03.0000000+00:00</time></trkpt><trkpt lat="44.606358" lon="33.738865"><ele>316.6</ele><time>2011-10-11T07:57:08.0000000+00:00</time></trkpt><trkpt lat="44.606335" lon="33.738846"><ele>316.6</ele><time>2011-10-11T07:57:13.0000000+00:00</time></trkpt><trkpt lat="44.606316" lon="33.738842"><ele>316.6</ele><time>2011-10-11T07:57:18.0000000+00:00</time></trkpt><trkpt lat="44.606304" lon="33.738857"><ele>316.6</ele><time>2011-10-11T07:57:23.0000000+00:00</time></trkpt><trkpt lat="44.606285" lon="33.738865"><ele>316.7</ele><time>2011-10-11T07:57:28.0000000+00:00</time></trkpt><trkpt lat="44.606281" lon="33.738853"><ele>316.7</ele><time>2011-10-11T07:57:33.0000000+00:00</time></trkpt><trkpt lat="44.606369" lon="33.738895"><ele>317.4</ele><time>2011-10-11T07:57:38.0000000+00:00</time></trkpt><trkpt lat="44.606419" lon="33.738892"><ele>317.1</ele><time>2011-10-11T07:57:43.0000000+00:00</time></trkpt><trkpt lat="44.606422" lon="33.738873"><ele>317.0</ele><time>2011-10-11T07:57:48.0000000+00:00</time></trkpt><trkpt lat="44.60643" lon="33.738857"><ele>316.9</ele><time>2011-10-11T07:57:53.0000000+00:00</time></trkpt><trkpt lat="44.606407" lon="33.738827"><ele>316.6</ele><time>2011-10-11T07:57:58.0000000+00:00</time></trkpt><trkpt lat="44.606407" lon="33.738811"><ele>316.5</ele><time>2011-10-11T07:58:03.0000000+00:00</time></trkpt><trkpt lat="44.606384" lon="33.738819"><ele>316.9</ele><time>2011-10-11T07:58:08.0000000+00:00</time></trkpt><trkpt lat="44.606373" lon="33.738808"><ele>317.9</ele><time>2011-10-11T07:58:13.0000000+00:00</time></trkpt><trkpt lat="44.606365" lon="33.738804"><ele>318.1</ele><time>2011-10-11T07:58:18.0000000+00:00</time></trkpt><trkpt lat="44.606354" lon="33.7388"><ele>318.2</ele><time>2011-10-11T07:58:23.0000000+00:00</time></trkpt><trkpt lat="44.606346" lon="33.738796"><ele>318.4</ele><time>2011-10-11T07:58:28.0000000+00:00</time></trkpt><trkpt lat="44.606339" lon="33.738792"><ele>318.6</ele><time>2011-10-11T07:58:33.0000000+00:00</time></trkpt><trkpt lat="44.606335" lon="33.738789"><ele>318.7</ele><time>2011-10-11T07:58:38.0000000+00:00</time></trkpt><trkpt lat="44.606331" lon="33.738789"><ele>318.9</ele><time>2011-10-11T07:58:43.0000000+00:00</time></trkpt><trkpt lat="44.606335" lon="33.738785"><ele>319.1</ele><time>2011-10-11T07:58:48.0000000+00:00</time></trkpt><trkpt lat="44.606342" lon="33.738792"><ele>319.2</ele><time>2011-10-11T07:58:53.0000000+00:00</time></trkpt><trkpt lat="44.606308" lon="33.738831"><ele>319.1</ele><time>2011-10-11T07:58:58.0000000+00:00</time></trkpt><trkpt lat="44.606331" lon="33.738811"><ele>319.4</ele><time>2011-10-11T07:59:03.0000000+00:00</time></trkpt><trkpt lat="44.606339" lon="33.738773"><ele>319.7</ele><time>2011-10-11T07:59:08.0000000+00:00</time></trkpt><trkpt lat="44.606319" lon="33.738762"><ele>320.0</ele><time>2011-10-11T07:59:13.0000000+00:00</time></trkpt><trkpt lat="44.606281" lon="33.738758"><ele>320.2</ele><time>2011-10-11T07:59:18.0000000+00:00</time></trkpt><trkpt lat="44.606243" lon="33.73875"><ele>319.6</ele><time>2011-10-11T07:59:23.0000000+00:00</time></trkpt><trkpt lat="44.606209" lon="33.738773"><ele>319.2</ele><time>2011-10-11T07:59:28.0000000+00:00</time></trkpt><trkpt lat="44.606239" lon="33.738819"><ele>318.4</ele><time>2011-10-11T07:59:33.0000000+00:00</time></trkpt><trkpt lat="44.60627" lon="33.738857"><ele>317.5</ele><time>2011-10-11T07:59:38.0000000+00:00</time></trkpt><trkpt lat="44.606274" lon="33.738853"><ele>317.1</ele><time>2011-10-11T07:59:43.0000000+00:00</time></trkpt><trkpt lat="44.606281" lon="33.738861"><ele>316.6</ele><time>2011-10-11T07:59:48.0000000+00:00</time></trkpt><trkpt lat="44.606289" lon="33.738865"><ele>316.4</ele><time>2011-10-11T07:59:53.0000000+00:00</time></trkpt><trkpt lat="44.606277" lon="33.738865"><ele>316.3</ele><time>2011-10-11T07:59:58.0000000+00:00</time></trkpt><trkpt lat="44.60627" lon="33.738865"><ele>316.5</ele><time>2011-10-11T08:00:03.0000000+00:00</time></trkpt><trkpt lat="44.606274" lon="33.738873"><ele>316.4</ele><time>2011-10-11T08:00:08.0000000+00:00</time></trkpt><trkpt lat="44.606297" lon="33.73888"><ele>316.0</ele><time>2011-10-11T08:00:13.0000000+00:00</time></trkpt><trkpt lat="44.606308" lon="33.73888"><ele>315.5</ele><time>2011-10-11T08:00:18.0000000+00:00</time></trkpt><trkpt lat="44.606308" lon="33.738903"><ele>315.2</ele><time>2011-10-11T08:00:23.0000000+00:00</time></trkpt><trkpt lat="44.606293" lon="33.73893"><ele>314.6</ele><time>2011-10-11T08:00:28.0000000+00:00</time></trkpt><trkpt lat="44.606293" lon="33.738972"><ele>314.1</ele><time>2011-10-11T08:00:33.0000000+00:00</time></trkpt><trkpt lat="44.606293" lon="33.738976"><ele>313.8</ele><time>2011-10-11T08:00:38.0000000+00:00</time></trkpt><trkpt lat="44.606316" lon="33.739025"><ele>312.7</ele><time>2011-10-11T08:00:43.0000000+00:00</time></trkpt><trkpt lat="44.606319" lon="33.739067"><ele>312.5</ele><time>2011-10-11T08:00:48.0000000+00:00</time></trkpt><trkpt lat="44.606323" lon="33.739113"><ele>313.6</ele><time>2011-10-11T08:00:53.0000000+00:00</time></trkpt><trkpt lat="44.606339" lon="33.739197"><ele>314.6</ele><time>2011-10-11T08:00:58.0000000+00:00</time></trkpt><trkpt lat="44.606388" lon="33.739262"><ele>316.2</ele><time>2011-10-11T08:01:03.0000000+00:00</time></trkpt><trkpt lat="44.606411" lon="33.739307"><ele>318.0</ele><time>2011-10-11T08:01:08.0000000+00:00</time></trkpt><trkpt lat="44.606457" lon="33.739334"><ele>319.5</ele><time>2011-10-11T08:01:13.0000000+00:00</time></trkpt><trkpt lat="44.606472" lon="33.739361"><ele>320.4</ele><time>2011-10-11T08:01:18.0000000+00:00</time></trkpt><trkpt lat="44.606503" lon="33.739388"><ele>321.3</ele><time>2011-10-11T08:01:23.0000000+00:00</time></trkpt><trkpt lat="44.606491" lon="33.739391"><ele>321.3</ele><time>2011-10-11T08:01:28.0000000+00:00</time></trkpt><trkpt lat="44.606487" lon="33.73938"><ele>321.3</ele><time>2011-10-11T08:01:33.0000000+00:00</time></trkpt><trkpt lat="44.606457" lon="33.739315"><ele>321.1</ele><time>2011-10-11T08:01:38.0000000+00:00</time></trkpt><trkpt lat="44.606396" lon="33.739235"><ele>320.8</ele><time>2011-10-11T08:01:43.0000000+00:00</time></trkpt><trkpt lat="44.606396" lon="33.739159"><ele>320.0</ele><time>2011-10-11T08:01:48.0000000+00:00</time></trkpt><trkpt lat="44.606392" lon="33.739159"><ele>319.9</ele><time>2011-10-11T08:01:53.0000000+00:00</time></trkpt><trkpt lat="44.606396" lon="33.739159"><ele>319.9</ele><time>2011-10-11T08:01:58.0000000+00:00</time></trkpt><trkpt lat="44.6064" lon="33.739162"><ele>319.8</ele><time>2011-10-11T08:02:03.0000000+00:00</time></trkpt><trkpt lat="44.606441" lon="33.739223"><ele>319.3</ele><time>2011-10-11T08:02:08.0000000+00:00</time></trkpt><trkpt lat="44.606461" lon="33.739296"><ele>318.7</ele><time>2011-10-11T08:02:13.0000000+00:00</time></trkpt><trkpt lat="44.606522" lon="33.739376"><ele>317.9</ele><time>2011-10-11T08:02:18.0000000+00:00</time></trkpt><trkpt lat="44.606556" lon="33.739449"><ele>317.0</ele><time>2011-10-11T08:02:23.0000000+00:00</time></trkpt><trkpt lat="44.606564" lon="33.739532"><ele>315.9</ele><time>2011-10-11T08:02:28.0000000+00:00</time></trkpt><trkpt lat="44.606579" lon="33.73959"><ele>315.1</ele><time>2011-10-11T08:02:33.0000000+00:00</time></trkpt><trkpt lat="44.606575" lon="33.739658"><ele>314.0</ele><time>2011-10-11T08:02:38.0000000+00:00</time></trkpt><trkpt lat="44.606586" lon="33.739735"><ele>312.4</ele><time>2011-10-11T08:02:43.0000000+00:00</time></trkpt><trkpt lat="44.606602" lon="33.739799"><ele>310.8</ele><time>2011-10-11T08:02:48.0000000+00:00</time></trkpt><trkpt lat="44.606617" lon="33.739876"><ele>308.6</ele><time>2011-10-11T08:02:53.0000000+00:00</time></trkpt><trkpt lat="44.60664" lon="33.739941"><ele>307.1</ele><time>2011-10-11T08:02:58.0000000+00:00</time></trkpt><trkpt lat="44.606632" lon="33.73999"><ele>305.1</ele><time>2011-10-11T08:03:03.0000000+00:00</time></trkpt><trkpt lat="44.606647" lon="33.740063"><ele>303.3</ele><time>2011-10-11T08:03:08.0000000+00:00</time></trkpt><trkpt lat="44.606686" lon="33.740105"><ele>300.9</ele><time>2011-10-11T08:03:13.0000000+00:00</time></trkpt><trkpt lat="44.606716" lon="33.740135"><ele>298.8</ele><time>2011-10-11T08:03:18.0000000+00:00</time></trkpt><trkpt lat="44.606728" lon="33.740189"><ele>297.1</ele><time>2011-10-11T08:03:23.0000000+00:00</time></trkpt><trkpt lat="44.606735" lon="33.740253"><ele>295.6</ele><time>2011-10-11T08:03:28.0000000+00:00</time></trkpt><trkpt lat="44.606766" lon="33.740322"><ele>292.1</ele><time>2011-10-11T08:03:33.0000000+00:00</time></trkpt><trkpt lat="44.606792" lon="33.740391"><ele>289.3</ele><time>2011-10-11T08:03:38.0000000+00:00</time></trkpt><trkpt lat="44.606792" lon="33.74049"><ele>287.1</ele><time>2011-10-11T08:03:43.0000000+00:00</time></trkpt><trkpt lat="44.606804" lon="33.74057"><ele>284.9</ele><time>2011-10-11T08:03:48.0000000+00:00</time></trkpt><trkpt lat="44.606819" lon="33.740658"><ele>283.3</ele><time>2011-10-11T08:03:53.0000000+00:00</time></trkpt><trkpt lat="44.606842" lon="33.740692"><ele>281.6</ele><time>2011-10-11T08:03:58.0000000+00:00</time></trkpt><trkpt lat="44.606846" lon="33.740749"><ele>280.1</ele><time>2011-10-11T08:04:03.0000000+00:00</time></trkpt><trkpt lat="44.606861" lon="33.740814"><ele>278.8</ele><time>2011-10-11T08:04:08.0000000+00:00</time></trkpt><trkpt lat="44.60685" lon="33.740883"><ele>277.4</ele><time>2011-10-11T08:04:13.0000000+00:00</time></trkpt><trkpt lat="44.606857" lon="33.740936"><ele>276.0</ele><time>2011-10-11T08:04:18.0000000+00:00</time></trkpt><trkpt lat="44.606873" lon="33.740971"><ele>275.1</ele><time>2011-10-11T08:04:23.0000000+00:00</time></trkpt><trkpt lat="44.606869" lon="33.740971"><ele>274.7</ele><time>2011-10-11T08:04:28.0000000+00:00</time></trkpt><trkpt lat="44.606869" lon="33.740974"><ele>274.5</ele><time>2011-10-11T08:04:33.0000000+00:00</time></trkpt><trkpt lat="44.606857" lon="33.741028"><ele>274.9</ele><time>2011-10-11T08:04:38.0000000+00:00</time></trkpt><trkpt lat="44.606857" lon="33.741062"><ele>274.5</ele><time>2011-10-11T08:04:43.0000000+00:00</time></trkpt><trkpt lat="44.606831" lon="33.741104"><ele>274.3</ele><time>2011-10-11T08:04:48.0000000+00:00</time></trkpt><trkpt lat="44.606819" lon="33.741135"><ele>274.6</ele><time>2011-10-11T08:04:53.0000000+00:00</time></trkpt><trkpt lat="44.606827" lon="33.741138"><ele>274.7</ele><time>2011-10-11T08:04:58.0000000+00:00</time></trkpt><trkpt lat="44.606831" lon="33.741116"><ele>275.2</ele><time>2011-10-11T08:05:03.0000000+00:00</time></trkpt><trkpt lat="44.60685" lon="33.7411"><ele>276.0</ele><time>2011-10-11T08:05:08.0000000+00:00</time></trkpt><trkpt lat="44.606861" lon="33.741104"><ele>276.3</ele><time>2011-10-11T08:05:13.0000000+00:00</time></trkpt><trkpt lat="44.60685" lon="33.741096"><ele>277.1</ele><time>2011-10-11T08:05:18.0000000+00:00</time></trkpt><trkpt lat="44.606838" lon="33.7411"><ele>277.4</ele><time>2011-10-11T08:05:23.0000000+00:00</time></trkpt><trkpt lat="44.606819" lon="33.741131"><ele>277.6</ele><time>2011-10-11T08:05:28.0000000+00:00</time></trkpt><trkpt lat="44.606812" lon="33.741165"><ele>277.9</ele><time>2011-10-11T08:05:33.0000000+00:00</time></trkpt><trkpt lat="44.606812" lon="33.74118"><ele>278.1</ele><time>2011-10-11T08:05:38.0000000+00:00</time></trkpt><trkpt lat="44.606815" lon="33.741177"><ele>278.4</ele><time>2011-10-11T08:05:43.0000000+00:00</time></trkpt><trkpt lat="44.606812" lon="33.74118"><ele>278.0</ele><time>2011-10-11T08:05:48.0000000+00:00</time></trkpt><trkpt lat="44.606804" lon="33.74115"><ele>277.6</ele><time>2011-10-11T08:05:53.0000000+00:00</time></trkpt><trkpt lat="44.606773" lon="33.74115"><ele>277.1</ele><time>2011-10-11T08:05:58.0000000+00:00</time></trkpt><trkpt lat="44.606754" lon="33.74118"><ele>277.2</ele><time>2011-10-11T08:06:03.0000000+00:00</time></trkpt><trkpt lat="44.606766" lon="33.741215"><ele>276.8</ele><time>2011-10-11T08:06:08.0000000+00:00</time></trkpt><trkpt lat="44.606754" lon="33.741264"><ele>276.7</ele><time>2011-10-11T08:06:13.0000000+00:00</time></trkpt><trkpt lat="44.606747" lon="33.741302"><ele>276.6</ele><time>2011-10-11T08:06:18.0000000+00:00</time></trkpt><trkpt lat="44.606739" lon="33.741364"><ele>276.5</ele><time>2011-10-11T08:06:23.0000000+00:00</time></trkpt><trkpt lat="44.606743" lon="33.741436"><ele>276.4</ele><time>2011-10-11T08:06:28.0000000+00:00</time></trkpt><trkpt lat="44.606754" lon="33.741535"><ele>276.1</ele><time>2011-10-11T08:06:33.0000000+00:00</time></trkpt><trkpt lat="44.606808" lon="33.741631"><ele>275.3</ele><time>2011-10-11T08:06:38.0000000+00:00</time></trkpt><trkpt lat="44.606869" lon="33.741699"><ele>274.6</ele><time>2011-10-11T08:06:43.0000000+00:00</time></trkpt><trkpt lat="44.606915" lon="33.741749"><ele>274.8</ele><time>2011-10-11T08:06:48.0000000+00:00</time></trkpt><trkpt lat="44.606953" lon="33.741806"><ele>274.7</ele><time>2011-10-11T08:06:53.0000000+00:00</time></trkpt><trkpt lat="44.606956" lon="33.741901"><ele>274.2</ele><time>2011-10-11T08:06:58.0000000+00:00</time></trkpt><trkpt lat="44.606964" lon="33.741997"><ele>272.6</ele><time>2011-10-11T08:07:03.0000000+00:00</time></trkpt><trkpt lat="44.606991" lon="33.742096"><ele>270.9</ele><time>2011-10-11T08:07:08.0000000+00:00</time></trkpt><trkpt lat="44.607006" lon="33.742176"><ele>266.8</ele><time>2011-10-11T08:07:13.0000000+00:00</time></trkpt><trkpt lat="44.607025" lon="33.742245"><ele>262.9</ele><time>2011-10-11T08:07:18.0000000+00:00</time></trkpt><trkpt lat="44.607071" lon="33.742298"><ele>259.5</ele><time>2011-10-11T08:07:23.0000000+00:00</time></trkpt><trkpt lat="44.607124" lon="33.742382"><ele>257.7</ele><time>2011-10-11T08:07:28.0000000+00:00</time></trkpt><trkpt lat="44.607185" lon="33.742435"><ele>255.8</ele><time>2011-10-11T08:07:33.0000000+00:00</time></trkpt><trkpt lat="44.607258" lon="33.7425"><ele>252.9</ele><time>2011-10-11T08:07:38.0000000+00:00</time></trkpt><trkpt lat="44.607315" lon="33.742561"><ele>250.6</ele><time>2011-10-11T08:07:43.0000000+00:00</time></trkpt><trkpt lat="44.607376" lon="33.742584"><ele>248.4</ele><time>2011-10-11T08:07:48.0000000+00:00</time></trkpt><trkpt lat="44.607445" lon="33.742641"><ele>246.5</ele><time>2011-10-11T08:07:53.0000000+00:00</time></trkpt><trkpt lat="44.607502" lon="33.742672"><ele>245.7</ele><time>2011-10-11T08:07:58.0000000+00:00</time></trkpt><trkpt lat="44.607563" lon="33.742722"><ele>244.9</ele><time>2011-10-11T08:08:03.0000000+00:00</time></trkpt><trkpt lat="44.607609" lon="33.742775"><ele>244.6</ele><time>2011-10-11T08:08:08.0000000+00:00</time></trkpt><trkpt lat="44.607655" lon="33.742809"><ele>243.9</ele><time>2011-10-11T08:08:13.0000000+00:00</time></trkpt><trkpt lat="44.607761" lon="33.742851"><ele>243.0</ele><time>2011-10-11T08:08:18.0000000+00:00</time></trkpt><trkpt lat="44.607822" lon="33.742878"><ele>242.4</ele><time>2011-10-11T08:08:23.0000000+00:00</time></trkpt><trkpt lat="44.607864" lon="33.742905"><ele>242.2</ele><time>2011-10-11T08:08:28.0000000+00:00</time></trkpt><trkpt lat="44.607925" lon="33.742935"><ele>241.4</ele><time>2011-10-11T08:08:33.0000000+00:00</time></trkpt><trkpt lat="44.607975" lon="33.742966"><ele>240.3</ele><time>2011-10-11T08:08:38.0000000+00:00</time></trkpt><trkpt lat="44.608047" lon="33.742962"><ele>238.8</ele><time>2011-10-11T08:08:43.0000000+00:00</time></trkpt><trkpt lat="44.608105" lon="33.742992"><ele>238.0</ele><time>2011-10-11T08:08:48.0000000+00:00</time></trkpt><trkpt lat="44.60815" lon="33.743034"><ele>236.9</ele><time>2011-10-11T08:08:53.0000000+00:00</time></trkpt><trkpt lat="44.608192" lon="33.743088"><ele>236.1</ele><time>2011-10-11T08:08:58.0000000+00:00</time></trkpt><trkpt lat="44.608238" lon="33.743118"><ele>236.1</ele><time>2011-10-11T08:09:03.0000000+00:00</time></trkpt><trkpt lat="44.608284" lon="33.743176"><ele>236.1</ele><time>2011-10-11T08:09:08.0000000+00:00</time></trkpt><trkpt lat="44.608307" lon="33.743214"><ele>235.8</ele><time>2011-10-11T08:09:13.0000000+00:00</time></trkpt><trkpt lat="44.608376" lon="33.743221"><ele>235.2</ele><time>2011-10-11T08:09:18.0000000+00:00</time></trkpt><trkpt lat="44.608402" lon="33.743324"><ele>235.8</ele><time>2011-10-11T08:09:23.0000000+00:00</time></trkpt><trkpt lat="44.608452" lon="33.743362"><ele>236.3</ele><time>2011-10-11T08:09:28.0000000+00:00</time></trkpt><trkpt lat="44.608494" lon="33.743401"><ele>236.8</ele><time>2011-10-11T08:09:33.0000000+00:00</time></trkpt><trkpt lat="44.608547" lon="33.743431"><ele>235.9</ele><time>2011-10-11T08:09:38.0000000+00:00</time></trkpt><trkpt lat="44.608585" lon="33.743488"><ele>236.5</ele><time>2011-10-11T08:09:43.0000000+00:00</time></trkpt><trkpt lat="44.608643" lon="33.743534"><ele>235.8</ele><time>2011-10-11T08:09:48.0000000+00:00</time></trkpt><trkpt lat="44.6087" lon="33.743534"><ele>233.5</ele><time>2011-10-11T08:09:53.0000000+00:00</time></trkpt><trkpt lat="44.608768" lon="33.743546"><ele>232.3</ele><time>2011-10-11T08:09:58.0000000+00:00</time></trkpt><trkpt lat="44.608837" lon="33.743557"><ele>231.3</ele><time>2011-10-11T08:10:03.0000000+00:00</time></trkpt><trkpt lat="44.608891" lon="33.743584"><ele>230.5</ele><time>2011-10-11T08:10:08.0000000+00:00</time></trkpt><trkpt lat="44.608955" lon="33.743614"><ele>230.5</ele><time>2011-10-11T08:10:13.0000000+00:00</time></trkpt><trkpt lat="44.609005" lon="33.743629"><ele>229.7</ele><time>2011-10-11T08:10:18.0000000+00:00</time></trkpt><trkpt lat="44.609058" lon="33.743649"><ele>229.7</ele><time>2011-10-11T08:10:23.0000000+00:00</time></trkpt><trkpt lat="44.609119" lon="33.74366"><ele>228.7</ele><time>2011-10-11T08:10:28.0000000+00:00</time></trkpt><trkpt lat="44.609173" lon="33.743671"><ele>229.2</ele><time>2011-10-11T08:10:33.0000000+00:00</time></trkpt><trkpt lat="44.609238" lon="33.743664"><ele>229.3</ele><time>2011-10-11T08:10:38.0000000+00:00</time></trkpt><trkpt lat="44.60928" lon="33.743668"><ele>229.3</ele><time>2011-10-11T08:10:43.0000000+00:00</time></trkpt><trkpt lat="44.609348" lon="33.74366"><ele>229.5</ele><time>2011-10-11T08:10:48.0000000+00:00</time></trkpt><trkpt lat="44.609421" lon="33.743656"><ele>229.3</ele><time>2011-10-11T08:10:53.0000000+00:00</time></trkpt><trkpt lat="44.609474" lon="33.743664"><ele>228.7</ele><time>2011-10-11T08:10:58.0000000+00:00</time></trkpt><trkpt lat="44.609539" lon="33.743664"><ele>228.0</ele><time>2011-10-11T08:11:03.0000000+00:00</time></trkpt><trkpt lat="44.6096" lon="33.743683"><ele>227.7</ele><time>2011-10-11T08:11:08.0000000+00:00</time></trkpt><trkpt lat="44.609653" lon="33.743725"><ele>227.0</ele><time>2011-10-11T08:11:13.0000000+00:00</time></trkpt><trkpt lat="44.609715" lon="33.743755"><ele>226.4</ele><time>2011-10-11T08:11:18.0000000+00:00</time></trkpt><trkpt lat="44.609791" lon="33.743771"><ele>226.4</ele><time>2011-10-11T08:11:23.0000000+00:00</time></trkpt><trkpt lat="44.609837" lon="33.743755"><ele>227.4</ele><time>2011-10-11T08:11:28.0000000+00:00</time></trkpt><trkpt lat="44.609901" lon="33.743774"><ele>227.7</ele><time>2011-10-11T08:11:33.0000000+00:00</time></trkpt><trkpt lat="44.609974" lon="33.743793"><ele>227.3</ele><time>2011-10-11T08:11:38.0000000+00:00</time></trkpt><trkpt lat="44.61005" lon="33.743755"><ele>227.9</ele><time>2011-10-11T08:11:43.0000000+00:00</time></trkpt><trkpt lat="44.610119" lon="33.743687"><ele>227.6</ele><time>2011-10-11T08:11:48.0000000+00:00</time></trkpt><trkpt lat="44.610199" lon="33.743645"><ele>228.1</ele><time>2011-10-11T08:11:53.0000000+00:00</time></trkpt><trkpt lat="44.610256" lon="33.743595"><ele>229.3</ele><time>2011-10-11T08:11:58.0000000+00:00</time></trkpt><trkpt lat="44.610325" lon="33.743553"><ele>232.2</ele><time>2011-10-11T08:12:03.0000000+00:00</time></trkpt><trkpt lat="44.610386" lon="33.743523"><ele>232.6</ele><time>2011-10-11T08:12:08.0000000+00:00</time></trkpt><trkpt lat="44.610451" lon="33.743427"><ele>234.0</ele><time>2011-10-11T08:12:13.0000000+00:00</time></trkpt><trkpt lat="44.610519" lon="33.743366"><ele>234.2</ele><time>2011-10-11T08:12:18.0000000+00:00</time></trkpt><trkpt lat="44.610569" lon="33.743294"><ele>233.8</ele><time>2011-10-11T08:12:23.0000000+00:00</time></trkpt><trkpt lat="44.610638" lon="33.743229"><ele>234.8</ele><time>2011-10-11T08:12:28.0000000+00:00</time></trkpt><trkpt lat="44.61068" lon="33.743164"><ele>234.5</ele><time>2011-10-11T08:12:33.0000000+00:00</time></trkpt><trkpt lat="44.610729" lon="33.743103"><ele>234.5</ele><time>2011-10-11T08:12:38.0000000+00:00</time></trkpt><trkpt lat="44.610806" lon="33.743069"><ele>234.7</ele><time>2011-10-11T08:12:43.0000000+00:00</time></trkpt><trkpt lat="44.61087" lon="33.743038"><ele>234.9</ele><time>2011-10-11T08:12:48.0000000+00:00</time></trkpt><trkpt lat="44.610928" lon="33.74297"><ele>236.4</ele><time>2011-10-11T08:12:53.0000000+00:00</time></trkpt><trkpt lat="44.610977" lon="33.742931"><ele>236.1</ele><time>2011-10-11T08:12:58.0000000+00:00</time></trkpt><trkpt lat="44.611042" lon="33.742886"><ele>236.2</ele><time>2011-10-11T08:13:03.0000000+00:00</time></trkpt><trkpt lat="44.611088" lon="33.74284"><ele>236.6</ele><time>2011-10-11T08:13:08.0000000+00:00</time></trkpt><trkpt lat="44.611156" lon="33.742802"><ele>236.9</ele><time>2011-10-11T08:13:13.0000000+00:00</time></trkpt><trkpt lat="44.611229" lon="33.742764"><ele>235.9</ele><time>2011-10-11T08:13:18.0000000+00:00</time></trkpt><trkpt lat="44.611305" lon="33.742733"><ele>235.2</ele><time>2011-10-11T08:13:23.0000000+00:00</time></trkpt><trkpt lat="44.611332" lon="33.74268"><ele>233.6</ele><time>2011-10-11T08:13:28.0000000+00:00</time></trkpt><trkpt lat="44.611382" lon="33.74263"><ele>233.5</ele><time>2011-10-11T08:13:33.0000000+00:00</time></trkpt><trkpt lat="44.611458" lon="33.742603"><ele>233.1</ele><time>2011-10-11T08:13:38.0000000+00:00</time></trkpt><trkpt lat="44.611511" lon="33.742561"><ele>233.2</ele><time>2011-10-11T08:13:43.0000000+00:00</time></trkpt><trkpt lat="44.611557" lon="33.742542"><ele>233.0</ele><time>2011-10-11T08:13:48.0000000+00:00</time></trkpt><trkpt lat="44.61161" lon="33.742458"><ele>232.9</ele><time>2011-10-11T08:13:53.0000000+00:00</time></trkpt><trkpt lat="44.611649" lon="33.742401"><ele>233.2</ele><time>2011-10-11T08:13:58.0000000+00:00</time></trkpt><trkpt lat="44.611683" lon="33.742336"><ele>233.4</ele><time>2011-10-11T08:14:03.0000000+00:00</time></trkpt><trkpt lat="44.611744" lon="33.742313"><ele>234.8</ele><time>2011-10-11T08:14:08.0000000+00:00</time></trkpt><trkpt lat="44.61179" lon="33.74229"><ele>235.9</ele><time>2011-10-11T08:14:13.0000000+00:00</time></trkpt><trkpt lat="44.611843" lon="33.742176"><ele>236.1</ele><time>2011-10-11T08:14:18.0000000+00:00</time></trkpt><trkpt lat="44.6119" lon="33.742096"><ele>236.6</ele><time>2011-10-11T08:14:23.0000000+00:00</time></trkpt><trkpt lat="44.61195" lon="33.742054"><ele>237.7</ele><time>2011-10-11T08:14:28.0000000+00:00</time></trkpt><trkpt lat="44.612003" lon="33.742023"><ele>238.1</ele><time>2011-10-11T08:14:33.0000000+00:00</time></trkpt><trkpt lat="44.612064" lon="33.742023"><ele>238.1</ele><time>2011-10-11T08:14:38.0000000+00:00</time></trkpt><trkpt lat="44.612144" lon="33.742046"><ele>236.4</ele><time>2011-10-11T08:14:43.0000000+00:00</time></trkpt><trkpt lat="44.612217" lon="33.741955"><ele>232.3</ele><time>2011-10-11T08:14:48.0000000+00:00</time></trkpt><trkpt lat="44.612263" lon="33.741894"><ele>231.2</ele><time>2011-10-11T08:14:53.0000000+00:00</time></trkpt><trkpt lat="44.612328" lon="33.741806"><ele>229.6</ele><time>2011-10-11T08:14:58.0000000+00:00</time></trkpt><trkpt lat="44.612392" lon="33.741726"><ele>228.8</ele><time>2011-10-11T08:15:03.0000000+00:00</time></trkpt><trkpt lat="44.612423" lon="33.741642"><ele>227.1</ele><time>2011-10-11T08:15:08.0000000+00:00</time></trkpt><trkpt lat="44.61248" lon="33.741566"><ele>225.5</ele><time>2011-10-11T08:15:13.0000000+00:00</time></trkpt><trkpt lat="44.61253" lon="33.741501"><ele>225.7</ele><time>2011-10-11T08:15:18.0000000+00:00</time></trkpt><trkpt lat="44.612583" lon="33.741436"><ele>224.5</ele><time>2011-10-11T08:15:23.0000000+00:00</time></trkpt><trkpt lat="44.612625" lon="33.74136"><ele>222.3</ele><time>2011-10-11T08:15:28.0000000+00:00</time></trkpt><trkpt lat="44.612675" lon="33.741295"><ele>221.3</ele><time>2011-10-11T08:15:33.0000000+00:00</time></trkpt><trkpt lat="44.61272" lon="33.741234"><ele>219.7</ele><time>2011-10-11T08:15:38.0000000+00:00</time></trkpt><trkpt lat="44.612762" lon="33.741173"><ele>219.5</ele><time>2011-10-11T08:15:43.0000000+00:00</time></trkpt><trkpt lat="44.612808" lon="33.741093"><ele>219.4</ele><time>2011-10-11T08:15:48.0000000+00:00</time></trkpt><trkpt lat="44.612854" lon="33.741009"><ele>219.0</ele><time>2011-10-11T08:15:53.0000000+00:00</time></trkpt><trkpt lat="44.612919" lon="33.740959"><ele>218.6</ele><time>2011-10-11T08:15:58.0000000+00:00</time></trkpt><trkpt lat="44.612965" lon="33.740887"><ele>217.8</ele><time>2011-10-11T08:16:03.0000000+00:00</time></trkpt><trkpt lat="44.613003" lon="33.74081"><ele>217.3</ele><time>2011-10-11T08:16:08.0000000+00:00</time></trkpt><trkpt lat="44.613041" lon="33.740757"><ele>217.0</ele><time>2011-10-11T08:16:13.0000000+00:00</time></trkpt><trkpt lat="44.613087" lon="33.740677"><ele>217.0</ele><time>2011-10-11T08:16:18.0000000+00:00</time></trkpt><trkpt lat="44.613132" lon="33.740635"><ele>216.7</ele><time>2011-10-11T08:16:23.0000000+00:00</time></trkpt><trkpt lat="44.613197" lon="33.740593"><ele>217.0</ele><time>2011-10-11T08:16:28.0000000+00:00</time></trkpt><trkpt lat="44.613281" lon="33.740566"><ele>217.2</ele><time>2011-10-11T08:16:33.0000000+00:00</time></trkpt><trkpt lat="44.613354" lon="33.740532"><ele>217.5</ele><time>2011-10-11T08:16:38.0000000+00:00</time></trkpt><trkpt lat="44.613426" lon="33.740486"><ele>217.0</ele><time>2011-10-11T08:16:43.0000000+00:00</time></trkpt><trkpt lat="44.613483" lon="33.740448"><ele>216.1</ele><time>2011-10-11T08:16:48.0000000+00:00</time></trkpt><trkpt lat="44.613552" lon="33.74041"><ele>215.9</ele><time>2011-10-11T08:16:53.0000000+00:00</time></trkpt><trkpt lat="44.613621" lon="33.740356"><ele>215.9</ele><time>2011-10-11T08:16:58.0000000+00:00</time></trkpt><trkpt lat="44.613682" lon="33.740307"><ele>216.2</ele><time>2011-10-11T08:17:03.0000000+00:00</time></trkpt><trkpt lat="44.613739" lon="33.740265"><ele>216.6</ele><time>2011-10-11T08:17:08.0000000+00:00</time></trkpt><trkpt lat="44.613789" lon="33.740234"><ele>216.4</ele><time>2011-10-11T08:17:13.0000000+00:00</time></trkpt><trkpt lat="44.613834" lon="33.740189"><ele>215.7</ele><time>2011-10-11T08:17:18.0000000+00:00</time></trkpt><trkpt lat="44.613892" lon="33.740139"><ele>215.5</ele><time>2011-10-11T08:17:23.0000000+00:00</time></trkpt><trkpt lat="44.613953" lon="33.740082"><ele>215.3</ele><time>2011-10-11T08:17:28.0000000+00:00</time></trkpt><trkpt lat="44.614014" lon="33.740028"><ele>214.9</ele><time>2011-10-11T08:17:33.0000000+00:00</time></trkpt><trkpt lat="44.614056" lon="33.739967"><ele>213.6</ele><time>2011-10-11T08:17:38.0000000+00:00</time></trkpt><trkpt lat="44.614117" lon="33.739906"><ele>211.6</ele><time>2011-10-11T08:17:43.0000000+00:00</time></trkpt><trkpt lat="44.614166" lon="33.739861"><ele>211.1</ele><time>2011-10-11T08:17:48.0000000+00:00</time></trkpt><trkpt lat="44.614208" lon="33.739838"><ele>210.2</ele><time>2011-10-11T08:17:53.0000000+00:00</time></trkpt><trkpt lat="44.61425" lon="33.739819"><ele>208.9</ele><time>2011-10-11T08:17:58.0000000+00:00</time></trkpt><trkpt lat="44.614311" lon="33.739792"><ele>208.3</ele><time>2011-10-11T08:18:03.0000000+00:00</time></trkpt><trkpt lat="44.614407" lon="33.739727"><ele>207.6</ele><time>2011-10-11T08:18:08.0000000+00:00</time></trkpt><trkpt lat="44.614456" lon="33.739681"><ele>208.0</ele><time>2011-10-11T08:18:13.0000000+00:00</time></trkpt><trkpt lat="44.61454" lon="33.739601"><ele>207.3</ele><time>2011-10-11T08:18:18.0000000+00:00</time></trkpt><trkpt lat="44.614616" lon="33.739544"><ele>206.6</ele><time>2011-10-11T08:18:23.0000000+00:00</time></trkpt><trkpt lat="44.614674" lon="33.739475"><ele>206.2</ele><time>2011-10-11T08:18:28.0000000+00:00</time></trkpt><trkpt lat="44.614742" lon="33.739403"><ele>205.1</ele><time>2011-10-11T08:18:33.0000000+00:00</time></trkpt><trkpt lat="44.614811" lon="33.739357"><ele>203.8</ele><time>2011-10-11T08:18:38.0000000+00:00</time></trkpt><trkpt lat="44.614857" lon="33.739296"><ele>202.7</ele><time>2011-10-11T08:18:43.0000000+00:00</time></trkpt><trkpt lat="44.614918" lon="33.73925"><ele>201.2</ele><time>2011-10-11T08:18:48.0000000+00:00</time></trkpt><trkpt lat="44.614971" lon="33.739197"><ele>200.1</ele><time>2011-10-11T08:18:53.0000000+00:00</time></trkpt><trkpt lat="44.615032" lon="33.739155"><ele>198.5</ele><time>2011-10-11T08:18:58.0000000+00:00</time></trkpt><trkpt lat="44.615097" lon="33.739113"><ele>198.0</ele><time>2011-10-11T08:19:03.0000000+00:00</time></trkpt><trkpt lat="44.61517" lon="33.739063"><ele>198.4</ele><time>2011-10-11T08:19:08.0000000+00:00</time></trkpt><trkpt lat="44.615223" lon="33.739014"><ele>198.0</ele><time>2011-10-11T08:19:13.0000000+00:00</time></trkpt><trkpt lat="44.615265" lon="33.738945"><ele>198.0</ele><time>2011-10-11T08:19:18.0000000+00:00</time></trkpt><trkpt lat="44.615288" lon="33.738911"><ele>198.0</ele><time>2011-10-11T08:19:23.0000000+00:00</time></trkpt><trkpt lat="44.615334" lon="33.738876"><ele>197.7</ele><time>2011-10-11T08:19:28.0000000+00:00</time></trkpt><trkpt lat="44.615417" lon="33.738827"><ele>197.6</ele><time>2011-10-11T08:19:33.0000000+00:00</time></trkpt><trkpt lat="44.615467" lon="33.73875"><ele>197.8</ele><time>2011-10-11T08:19:38.0000000+00:00</time></trkpt><trkpt lat="44.615513" lon="33.738682"><ele>197.7</ele><time>2011-10-11T08:19:43.0000000+00:00</time></trkpt><trkpt lat="44.61557" lon="33.738628"><ele>197.7</ele><time>2011-10-11T08:19:48.0000000+00:00</time></trkpt><trkpt lat="44.615635" lon="33.738594"><ele>197.9</ele><time>2011-10-11T08:19:53.0000000+00:00</time></trkpt><trkpt lat="44.615692" lon="33.738541"><ele>197.7</ele><time>2011-10-11T08:19:58.0000000+00:00</time></trkpt><trkpt lat="44.615753" lon="33.738483"><ele>198.0</ele><time>2011-10-11T08:20:03.0000000+00:00</time></trkpt><trkpt lat="44.615807" lon="33.738441"><ele>197.1</ele><time>2011-10-11T08:20:08.0000000+00:00</time></trkpt><trkpt lat="44.615875" lon="33.738419"><ele>198.2</ele><time>2011-10-11T08:20:13.0000000+00:00</time></trkpt><trkpt lat="44.615875" lon="33.738396"><ele>199.1</ele><time>2011-10-11T08:20:18.0000000+00:00</time></trkpt><trkpt lat="44.615879" lon="33.738403"><ele>199.4</ele><time>2011-10-11T08:20:23.0000000+00:00</time></trkpt><trkpt lat="44.615891" lon="33.738392"><ele>199.6</ele><time>2011-10-11T08:20:28.0000000+00:00</time></trkpt><trkpt lat="44.615891" lon="33.738377"><ele>199.7</ele><time>2011-10-11T08:20:33.0000000+00:00</time></trkpt><trkpt lat="44.615887" lon="33.73838"><ele>200.0</ele><time>2011-10-11T08:20:38.0000000+00:00</time></trkpt><trkpt lat="44.615875" lon="33.738396"><ele>199.8</ele><time>2011-10-11T08:20:43.0000000+00:00</time></trkpt><trkpt lat="44.615856" lon="33.738419"><ele>199.9</ele><time>2011-10-11T08:20:48.0000000+00:00</time></trkpt><trkpt lat="44.615852" lon="33.738422"><ele>200.5</ele><time>2011-10-11T08:20:53.0000000+00:00</time></trkpt><trkpt lat="44.615845" lon="33.738407"><ele>201.1</ele><time>2011-10-11T08:20:58.0000000+00:00</time></trkpt><trkpt lat="44.615849" lon="33.738407"><ele>201.0</ele><time>2011-10-11T08:21:03.0000000+00:00</time></trkpt><trkpt lat="44.615849" lon="33.738403"><ele>201.4</ele><time>2011-10-11T08:21:08.0000000+00:00</time></trkpt><trkpt lat="44.615868" lon="33.738365"><ele>201.4</ele><time>2011-10-11T08:21:13.0000000+00:00</time></trkpt><trkpt lat="44.615883" lon="33.738365"><ele>201.0</ele><time>2011-10-11T08:21:18.0000000+00:00</time></trkpt><trkpt lat="44.615887" lon="33.738369"><ele>201.1</ele><time>2011-10-11T08:21:23.0000000+00:00</time></trkpt><trkpt lat="44.615887" lon="33.738358"><ele>201.1</ele><time>2011-10-11T08:21:28.0000000+00:00</time></trkpt><trkpt lat="44.615891" lon="33.738354"><ele>201.1</ele><time>2011-10-11T08:21:33.0000000+00:00</time></trkpt><trkpt lat="44.615887" lon="33.738342"><ele>201.1</ele><time>2011-10-11T08:21:38.0000000+00:00</time></trkpt><trkpt lat="44.615879" lon="33.738327"><ele>201.1</ele><time>2011-10-11T08:21:43.0000000+00:00</time></trkpt><trkpt lat="44.615875" lon="33.738323"><ele>201.1</ele><time>2011-10-11T08:21:48.0000000+00:00</time></trkpt><trkpt lat="44.615871" lon="33.738331"><ele>201.1</ele><time>2011-10-11T08:21:53.0000000+00:00</time></trkpt><trkpt lat="44.615864" lon="33.738354"><ele>201.1</ele><time>2011-10-11T08:21:58.0000000+00:00</time></trkpt><trkpt lat="44.615852" lon="33.738419"><ele>201.2</ele><time>2011-10-11T08:22:03.0000000+00:00</time></trkpt><trkpt lat="44.615849" lon="33.738464"><ele>201.2</ele><time>2011-10-11T08:22:08.0000000+00:00</time></trkpt><trkpt lat="44.615887" lon="33.738396"><ele>201.3</ele><time>2011-10-11T08:22:13.0000000+00:00</time></trkpt><trkpt lat="44.615894" lon="33.738377"><ele>201.8</ele><time>2011-10-11T08:22:18.0000000+00:00</time></trkpt><trkpt lat="44.615894" lon="33.738377"><ele>201.8</ele><time>2011-10-11T08:22:23.0000000+00:00</time></trkpt><trkpt lat="44.615894" lon="33.738377"><ele>201.8</ele><time>2011-10-11T08:22:28.0000000+00:00</time></trkpt><trkpt lat="44.615891" lon="33.738373"><ele>201.8</ele><time>2011-10-11T08:22:33.0000000+00:00</time></trkpt><trkpt lat="44.615891" lon="33.738373"><ele>201.8</ele><time>2011-10-11T08:22:38.0000000+00:00</time></trkpt><trkpt lat="44.615887" lon="33.738377"><ele>201.8</ele><time>2011-10-11T08:22:43.0000000+00:00</time></trkpt><trkpt lat="44.615887" lon="33.738373"><ele>201.8</ele><time>2011-10-11T08:22:48.0000000+00:00</time></trkpt><trkpt lat="44.615887" lon="33.738369"><ele>201.8</ele><time>2011-10-11T08:22:53.0000000+00:00</time></trkpt><trkpt lat="44.615887" lon="33.738361"><ele>201.8</ele><time>2011-10-11T08:22:58.0000000+00:00</time></trkpt><trkpt lat="44.615891" lon="33.73835"><ele>201.8</ele><time>2011-10-11T08:23:03.0000000+00:00</time></trkpt><trkpt lat="44.615898" lon="33.738335"><ele>201.8</ele><time>2011-10-11T08:23:08.0000000+00:00</time></trkpt><trkpt lat="44.615902" lon="33.738319"><ele>201.8</ele><time>2011-10-11T08:23:13.0000000+00:00</time></trkpt><trkpt lat="44.61591" lon="33.738308"><ele>201.8</ele><time>2011-10-11T08:23:18.0000000+00:00</time></trkpt><trkpt lat="44.615917" lon="33.738297"><ele>201.8</ele><time>2011-10-11T08:23:23.0000000+00:00</time></trkpt><trkpt lat="44.615925" lon="33.738297"><ele>201.8</ele><time>2011-10-11T08:23:28.0000000+00:00</time></trkpt><trkpt lat="44.615932" lon="33.738308"><ele>201.8</ele><time>2011-10-11T08:23:33.0000000+00:00</time></trkpt><trkpt lat="44.615921" lon="33.7383"><ele>202.0</ele><time>2011-10-11T08:23:38.0000000+00:00</time></trkpt><trkpt lat="44.615894" lon="33.738266"><ele>202.5</ele><time>2011-10-11T08:23:43.0000000+00:00</time></trkpt><trkpt lat="44.615871" lon="33.738247"><ele>202.9</ele><time>2011-10-11T08:23:48.0000000+00:00</time></trkpt><trkpt lat="44.615864" lon="33.738247"><ele>202.8</ele><time>2011-10-11T08:23:53.0000000+00:00</time></trkpt><trkpt lat="44.615871" lon="33.738266"><ele>203.1</ele><time>2011-10-11T08:23:58.0000000+00:00</time></trkpt><trkpt lat="44.615875" lon="33.738285"><ele>203.3</ele><time>2011-10-11T08:24:03.0000000+00:00</time></trkpt><trkpt lat="44.615887" lon="33.738304"><ele>203.5</ele><time>2011-10-11T08:24:08.0000000+00:00</time></trkpt><trkpt lat="44.615894" lon="33.738319"><ele>203.5</ele><time>2011-10-11T08:24:13.0000000+00:00</time></trkpt><trkpt lat="44.615902" lon="33.738323"><ele>203.4</ele><time>2011-10-11T08:24:18.0000000+00:00</time></trkpt><trkpt lat="44.61591" lon="33.738316"><ele>203.4</ele><time>2011-10-11T08:24:23.0000000+00:00</time></trkpt><trkpt lat="44.61591" lon="33.738304"><ele>203.5</ele><time>2011-10-11T08:24:28.0000000+00:00</time></trkpt><trkpt lat="44.61591" lon="33.738304"><ele>203.5</ele><time>2011-10-11T08:24:33.0000000+00:00</time></trkpt><trkpt lat="44.61591" lon="33.738304"><ele>203.6</ele><time>2011-10-11T08:24:38.0000000+00:00</time></trkpt><trkpt lat="44.61591" lon="33.738304"><ele>203.5</ele><time>2011-10-11T08:24:43.0000000+00:00</time></trkpt><trkpt lat="44.61591" lon="33.738304"><ele>203.5</ele><time>2011-10-11T08:24:48.0000000+00:00</time></trkpt><trkpt lat="44.61591" lon="33.738304"><ele>203.5</ele><time>2011-10-11T08:24:53.0000000+00:00</time></trkpt><trkpt lat="44.61591" lon="33.738304"><ele>203.5</ele><time>2011-10-11T08:24:58.0000000+00:00</time></trkpt><trkpt lat="44.61591" lon="33.738304"><ele>203.5</ele><time>2011-10-11T08:25:03.0000000+00:00</time></trkpt><trkpt lat="44.61591" lon="33.738304"><ele>203.5</ele><time>2011-10-11T08:25:08.0000000+00:00</time></trkpt><trkpt lat="44.61591" lon="33.738304"><ele>203.5</ele><time>2011-10-11T08:25:13.0000000+00:00</time></trkpt><trkpt lat="44.61591" lon="33.738304"><ele>203.5</ele><time>2011-10-11T08:25:18.0000000+00:00</time></trkpt><trkpt lat="44.615913" lon="33.738308"><ele>203.5</ele><time>2011-10-11T08:25:23.0000000+00:00</time></trkpt><trkpt lat="44.615917" lon="33.738312"><ele>203.5</ele><time>2011-10-11T08:25:28.0000000+00:00</time></trkpt><trkpt lat="44.615921" lon="33.738319"><ele>203.5</ele><time>2011-10-11T08:25:33.0000000+00:00</time></trkpt><trkpt lat="44.615925" lon="33.738323"><ele>203.5</ele><time>2011-10-11T08:25:38.0000000+00:00</time></trkpt><trkpt lat="44.615929" lon="33.738331"><ele>203.5</ele><time>2011-10-11T08:25:43.0000000+00:00</time></trkpt><trkpt lat="44.615932" lon="33.738335"><ele>203.4</ele><time>2011-10-11T08:25:48.0000000+00:00</time></trkpt><trkpt lat="44.615936" lon="33.738335"><ele>203.4</ele><time>2011-10-11T08:25:53.0000000+00:00</time></trkpt><trkpt lat="44.61594" lon="33.738338"><ele>203.4</ele><time>2011-10-11T08:25:58.0000000+00:00</time></trkpt><trkpt lat="44.615944" lon="33.738338"><ele>203.3</ele><time>2011-10-11T08:26:03.0000000+00:00</time></trkpt><trkpt lat="44.615944" lon="33.738338"><ele>203.3</ele><time>2011-10-11T08:26:08.0000000+00:00</time></trkpt><trkpt lat="44.615944" lon="33.738338"><ele>203.3</ele><time>2011-10-11T08:26:13.0000000+00:00</time></trkpt><trkpt lat="44.615948" lon="33.738338"><ele>203.3</ele><time>2011-10-11T08:26:18.0000000+00:00</time></trkpt><trkpt lat="44.615944" lon="33.738338"><ele>203.3</ele><time>2011-10-11T08:26:23.0000000+00:00</time></trkpt><trkpt lat="44.615944" lon="33.738338"><ele>203.3</ele><time>2011-10-11T08:26:28.0000000+00:00</time></trkpt><trkpt lat="44.61602" lon="33.738342"><ele>204.2</ele><time>2011-10-11T08:26:33.0000000+00:00</time></trkpt><trkpt lat="44.616169" lon="33.738293"><ele>203.4</ele><time>2011-10-11T08:26:38.0000000+00:00</time></trkpt><trkpt lat="44.616295" lon="33.738129"><ele>203.3</ele><time>2011-10-11T08:26:43.0000000+00:00</time></trkpt><trkpt lat="44.616371" lon="33.738018"><ele>201.6</ele><time>2011-10-11T08:26:48.0000000+00:00</time></trkpt><trkpt lat="44.616508" lon="33.737934"><ele>199.7</ele><time>2011-10-11T08:26:53.0000000+00:00</time></trkpt><trkpt lat="44.616631" lon="33.737823"><ele>202.1</ele><time>2011-10-11T08:26:58.0000000+00:00</time></trkpt><trkpt lat="44.61668" lon="33.737942"><ele>199.9</ele><time>2011-10-11T08:27:03.0000000+00:00</time></trkpt><trkpt lat="44.616623" lon="33.737953"><ele>199.6</ele><time>2011-10-11T08:27:08.0000000+00:00</time></trkpt><trkpt lat="44.616547" lon="33.737946"><ele>199.6</ele><time>2011-10-11T08:27:13.0000000+00:00</time></trkpt><trkpt lat="44.616497" lon="33.737843"><ele>197.9</ele><time>2011-10-11T08:27:18.0000000+00:00</time></trkpt><trkpt lat="44.616478" lon="33.737789"><ele>197.7</ele><time>2011-10-11T08:27:23.0000000+00:00</time></trkpt><trkpt lat="44.616486" lon="33.73777"><ele>197.1</ele><time>2011-10-11T08:27:28.0000000+00:00</time></trkpt><trkpt lat="44.616486" lon="33.737766"><ele>196.5</ele><time>2011-10-11T08:27:33.0000000+00:00</time></trkpt><trkpt lat="44.616486" lon="33.737766"><ele>196.1</ele><time>2011-10-11T08:27:38.0000000+00:00</time></trkpt><trkpt lat="44.616486" lon="33.73777"><ele>195.7</ele><time>2011-10-11T08:27:43.0000000+00:00</time></trkpt><trkpt lat="44.616489" lon="33.737774"><ele>195.5</ele><time>2011-10-11T08:27:48.0000000+00:00</time></trkpt><trkpt lat="44.616489" lon="33.737774"><ele>195.2</ele><time>2011-10-11T08:27:53.0000000+00:00</time></trkpt><trkpt lat="44.616489" lon="33.737774"><ele>195.1</ele><time>2011-10-11T08:27:58.0000000+00:00</time></trkpt><trkpt lat="44.616486" lon="33.737774"><ele>194.9</ele><time>2011-10-11T08:28:03.0000000+00:00</time></trkpt><trkpt lat="44.616486" lon="33.73777"><ele>194.7</ele><time>2011-10-11T08:28:08.0000000+00:00</time></trkpt><trkpt lat="44.616486" lon="33.737774"><ele>194.6</ele><time>2011-10-11T08:28:13.0000000+00:00</time></trkpt><trkpt lat="44.616489" lon="33.737778"><ele>194.4</ele><time>2011-10-11T08:28:18.0000000+00:00</time></trkpt><trkpt lat="44.616489" lon="33.737774"><ele>194.1</ele><time>2011-10-11T08:28:23.0000000+00:00</time></trkpt><trkpt lat="44.616489" lon="33.73777"><ele>193.7</ele><time>2011-10-11T08:28:28.0000000+00:00</time></trkpt><trkpt lat="44.616489" lon="33.73777"><ele>193.7</ele><time>2011-10-11T08:28:33.0000000+00:00</time></trkpt><trkpt lat="44.616489" lon="33.73777"><ele>193.7</ele><time>2011-10-11T08:28:38.0000000+00:00</time></trkpt><trkpt lat="44.616489" lon="33.73777"><ele>193.7</ele><time>2011-10-11T08:28:43.0000000+00:00</time></trkpt><trkpt lat="44.616489" lon="33.73777"><ele>193.6</ele><time>2011-10-11T08:28:48.0000000+00:00</time></trkpt><trkpt lat="44.616493" lon="33.73777"><ele>193.2</ele><time>2011-10-11T08:28:53.0000000+00:00</time></trkpt><trkpt lat="44.616497" lon="33.73777"><ele>193.0</ele><time>2011-10-11T08:28:58.0000000+00:00</time></trkpt><trkpt lat="44.616497" lon="33.73777"><ele>192.4</ele><time>2011-10-11T08:29:03.0000000+00:00</time></trkpt><trkpt lat="44.616497" lon="33.73777"><ele>191.8</ele><time>2011-10-11T08:29:08.0000000+00:00</time></trkpt><trkpt lat="44.616497" lon="33.73777"><ele>191.8</ele><time>2011-10-11T08:29:13.0000000+00:00</time></trkpt><trkpt lat="44.616501" lon="33.73777"><ele>191.5</ele><time>2011-10-11T08:29:18.0000000+00:00</time></trkpt><trkpt lat="44.616501" lon="33.737762"><ele>191.3</ele><time>2011-10-11T08:29:23.0000000+00:00</time></trkpt><trkpt lat="44.616512" lon="33.737743"><ele>191.5</ele><time>2011-10-11T08:29:28.0000000+00:00</time></trkpt><trkpt lat="44.61652" lon="33.737728"><ele>191.0</ele><time>2011-10-11T08:29:33.0000000+00:00</time></trkpt><trkpt lat="44.616516" lon="33.737732"><ele>190.3</ele><time>2011-10-11T08:29:38.0000000+00:00</time></trkpt><trkpt lat="44.61652" lon="33.737724"><ele>190.7</ele><time>2011-10-11T08:29:43.0000000+00:00</time></trkpt><trkpt lat="44.616516" lon="33.737728"><ele>190.6</ele><time>2011-10-11T08:29:48.0000000+00:00</time></trkpt><trkpt lat="44.616501" lon="33.737751"><ele>190.3</ele><time>2011-10-11T08:29:53.0000000+00:00</time></trkpt><trkpt lat="44.616493" lon="33.737762"><ele>190.3</ele><time>2011-10-11T08:29:58.0000000+00:00</time></trkpt><trkpt lat="44.616493" lon="33.737762"><ele>190.3</ele><time>2011-10-11T08:30:03.0000000+00:00</time></trkpt><trkpt lat="44.616493" lon="33.737762"><ele>190.3</ele><time>2011-10-11T08:30:08.0000000+00:00</time></trkpt><trkpt lat="44.616489" lon="33.737762"><ele>190.3</ele><time>2011-10-11T08:30:13.0000000+00:00</time></trkpt><trkpt lat="44.616489" lon="33.737762"><ele>190.3</ele><time>2011-10-11T08:30:18.0000000+00:00</time></trkpt><trkpt lat="44.616489" lon="33.737762"><ele>190.3</ele><time>2011-10-11T08:30:23.0000000+00:00</time></trkpt><trkpt lat="44.616489" lon="33.737762"><ele>190.3</ele><time>2011-10-11T08:30:28.0000000+00:00</time></trkpt><trkpt lat="44.616489" lon="33.737762"><ele>190.2</ele><time>2011-10-11T08:30:33.0000000+00:00</time></trkpt><trkpt lat="44.616489" lon="33.737762"><ele>190.2</ele><time>2011-10-11T08:30:38.0000000+00:00</time></trkpt><trkpt lat="44.616489" lon="33.737762"><ele>190.2</ele><time>2011-10-11T08:30:43.0000000+00:00</time></trkpt><trkpt lat="44.616489" lon="33.737762"><ele>190.2</ele><time>2011-10-11T08:30:48.0000000+00:00</time></trkpt><trkpt lat="44.616489" lon="33.737762"><ele>190.2</ele><time>2011-10-11T08:30:53.0000000+00:00</time></trkpt><trkpt lat="44.616489" lon="33.737762"><ele>190.2</ele><time>2011-10-11T08:30:58.0000000+00:00</time></trkpt><trkpt lat="44.616489" lon="33.737766"><ele>190.2</ele><time>2011-10-11T08:31:03.0000000+00:00</time></trkpt><trkpt lat="44.616489" lon="33.737766"><ele>190.2</ele><time>2011-10-11T08:31:08.0000000+00:00</time></trkpt><trkpt lat="44.616489" lon="33.737766"><ele>190.2</ele><time>2011-10-11T08:31:13.0000000+00:00</time></trkpt><trkpt lat="44.616489" lon="33.737766"><ele>190.2</ele><time>2011-10-11T08:31:18.0000000+00:00</time></trkpt><trkpt lat="44.616489" lon="33.737766"><ele>190.2</ele><time>2011-10-11T08:31:23.0000000+00:00</time></trkpt><trkpt lat="44.616489" lon="33.737766"><ele>190.2</ele><time>2011-10-11T08:31:28.0000000+00:00</time></trkpt><trkpt lat="44.616489" lon="33.737766"><ele>190.2</ele><time>2011-10-11T08:31:33.0000000+00:00</time></trkpt><trkpt lat="44.616489" lon="33.737766"><ele>190.2</ele><time>2011-10-11T08:31:38.0000000+00:00</time></trkpt><trkpt lat="44.616489" lon="33.737766"><ele>190.2</ele><time>2011-10-11T08:31:43.0000000+00:00</time></trkpt><trkpt lat="44.616489" lon="33.737766"><ele>190.2</ele><time>2011-10-11T08:31:48.0000000+00:00</time></trkpt><trkpt lat="44.616489" lon="33.737766"><ele>190.2</ele><time>2011-10-11T08:31:53.0000000+00:00</time></trkpt><trkpt lat="44.616489" lon="33.737766"><ele>190.2</ele><time>2011-10-11T08:31:58.0000000+00:00</time></trkpt><trkpt lat="44.616489" lon="33.737766"><ele>190.2</ele><time>2011-10-11T08:32:03.0000000+00:00</time></trkpt><trkpt lat="44.616489" lon="33.737766"><ele>190.2</ele><time>2011-10-11T08:32:08.0000000+00:00</time></trkpt><trkpt lat="44.616489" lon="33.737766"><ele>190.2</ele><time>2011-10-11T08:32:13.0000000+00:00</time></trkpt><trkpt lat="44.616489" lon="33.737766"><ele>190.2</ele><time>2011-10-11T08:32:18.0000000+00:00</time></trkpt><trkpt lat="44.616489" lon="33.737766"><ele>190.2</ele><time>2011-10-11T08:32:23.0000000+00:00</time></trkpt><trkpt lat="44.616489" lon="33.73777"><ele>190.2</ele><time>2011-10-11T08:32:28.0000000+00:00</time></trkpt><trkpt lat="44.616489" lon="33.73777"><ele>190.2</ele><time>2011-10-11T08:32:33.0000000+00:00</time></trkpt><trkpt lat="44.616489" lon="33.73777"><ele>190.2</ele><time>2011-10-11T08:32:38.0000000+00:00</time></trkpt><trkpt lat="44.616489" lon="33.73777"><ele>190.2</ele><time>2011-10-11T08:32:43.0000000+00:00</time></trkpt><trkpt lat="44.616489" lon="33.73777"><ele>190.2</ele><time>2011-10-11T08:32:48.0000000+00:00</time></trkpt><trkpt lat="44.616489" lon="33.73777"><ele>190.2</ele><time>2011-10-11T08:32:53.0000000+00:00</time></trkpt><trkpt lat="44.616489" lon="33.73777"><ele>190.2</ele><time>2011-10-11T08:32:58.0000000+00:00</time></trkpt><trkpt lat="44.616489" lon="33.73777"><ele>190.2</ele><time>2011-10-11T08:33:03.0000000+00:00</time></trkpt><trkpt lat="44.616489" lon="33.73777"><ele>190.2</ele><time>2011-10-11T08:33:08.0000000+00:00</time></trkpt><trkpt lat="44.616489" lon="33.73777"><ele>190.2</ele><time>2011-10-11T08:33:13.0000000+00:00</time></trkpt><trkpt lat="44.616489" lon="33.73777"><ele>190.2</ele><time>2011-10-11T08:33:18.0000000+00:00</time></trkpt><trkpt lat="44.616489" lon="33.73777"><ele>190.2</ele><time>2011-10-11T08:33:23.0000000+00:00</time></trkpt><trkpt lat="44.616489" lon="33.73777"><ele>190.2</ele><time>2011-10-11T08:33:28.0000000+00:00</time></trkpt><trkpt lat="44.616493" lon="33.73777"><ele>190.3</ele><time>2011-10-11T08:33:33.0000000+00:00</time></trkpt><trkpt lat="44.616493" lon="33.73777"><ele>190.3</ele><time>2011-10-11T08:33:38.0000000+00:00</time></trkpt><trkpt lat="44.616493" lon="33.73777"><ele>190.3</ele><time>2011-10-11T08:33:43.0000000+00:00</time></trkpt><trkpt lat="44.616493" lon="33.73777"><ele>190.3</ele><time>2011-10-11T08:33:48.0000000+00:00</time></trkpt><trkpt lat="44.616493" lon="33.73777"><ele>190.3</ele><time>2011-10-11T08:33:53.0000000+00:00</time></trkpt><trkpt lat="44.616493" lon="33.73777"><ele>190.3</ele><time>2011-10-11T08:33:58.0000000+00:00</time></trkpt><trkpt lat="44.616493" lon="33.73777"><ele>190.3</ele><time>2011-10-11T08:34:03.0000000+00:00</time></trkpt><trkpt lat="44.616493" lon="33.73777"><ele>190.3</ele><time>2011-10-11T08:34:08.0000000+00:00</time></trkpt><trkpt lat="44.616493" lon="33.73777"><ele>190.3</ele><time>2011-10-11T08:34:13.0000000+00:00</time></trkpt><trkpt lat="44.616493" lon="33.73777"><ele>190.3</ele><time>2011-10-11T08:34:18.0000000+00:00</time></trkpt><trkpt lat="44.616493" lon="33.73777"><ele>190.3</ele><time>2011-10-11T08:34:23.0000000+00:00</time></trkpt><trkpt lat="44.616493" lon="33.73777"><ele>190.3</ele><time>2011-10-11T08:34:28.0000000+00:00</time></trkpt><trkpt lat="44.616493" lon="33.73777"><ele>190.3</ele><time>2011-10-11T08:34:33.0000000+00:00</time></trkpt><trkpt lat="44.616493" lon="33.73777"><ele>190.3</ele><time>2011-10-11T08:34:38.0000000+00:00</time></trkpt><trkpt lat="44.616493" lon="33.73777"><ele>190.2</ele><time>2011-10-11T08:34:43.0000000+00:00</time></trkpt><trkpt lat="44.616493" lon="33.73777"><ele>190.2</ele><time>2011-10-11T08:34:48.0000000+00:00</time></trkpt><trkpt lat="44.616493" lon="33.73777"><ele>190.2</ele><time>2011-10-11T08:34:53.0000000+00:00</time></trkpt><trkpt lat="44.616493" lon="33.73777"><ele>190.2</ele><time>2011-10-11T08:34:58.0000000+00:00</time></trkpt><trkpt lat="44.616493" lon="33.73777"><ele>190.2</ele><time>2011-10-11T08:35:03.0000000+00:00</time></trkpt><trkpt lat="44.616493" lon="33.73777"><ele>190.2</ele><time>2011-10-11T08:35:08.0000000+00:00</time></trkpt><trkpt lat="44.616493" lon="33.73777"><ele>190.2</ele><time>2011-10-11T08:35:13.0000000+00:00</time></trkpt><trkpt lat="44.616493" lon="33.73777"><ele>190.2</ele><time>2011-10-11T08:35:18.0000000+00:00</time></trkpt><trkpt lat="44.616493" lon="33.73777"><ele>190.2</ele><time>2011-10-11T08:35:23.0000000+00:00</time></trkpt><trkpt lat="44.616489" lon="33.73777"><ele>190.2</ele><time>2011-10-11T08:35:28.0000000+00:00</time></trkpt><trkpt lat="44.616489" lon="33.73777"><ele>190.2</ele><time>2011-10-11T08:35:33.0000000+00:00</time></trkpt><trkpt lat="44.616489" lon="33.73777"><ele>190.2</ele><time>2011-10-11T08:35:38.0000000+00:00</time></trkpt><trkpt lat="44.616489" lon="33.73777"><ele>190.2</ele><time>2011-10-11T08:35:43.0000000+00:00</time></trkpt><trkpt lat="44.616489" lon="33.73777"><ele>190.1</ele><time>2011-10-11T08:35:48.0000000+00:00</time></trkpt><trkpt lat="44.616489" lon="33.73777"><ele>190.1</ele><time>2011-10-11T08:35:53.0000000+00:00</time></trkpt><trkpt lat="44.616489" lon="33.737774"><ele>190.1</ele><time>2011-10-11T08:35:58.0000000+00:00</time></trkpt><trkpt lat="44.616489" lon="33.737774"><ele>190.1</ele><time>2011-10-11T08:36:03.0000000+00:00</time></trkpt><trkpt lat="44.616489" lon="33.737774"><ele>190.1</ele><time>2011-10-11T08:36:08.0000000+00:00</time></trkpt><trkpt lat="44.616489" lon="33.737774"><ele>190.1</ele><time>2011-10-11T08:36:13.0000000+00:00</time></trkpt><trkpt lat="44.616489" lon="33.737774"><ele>190.1</ele><time>2011-10-11T08:36:18.0000000+00:00</time></trkpt><trkpt lat="44.616489" lon="33.737774"><ele>190.1</ele><time>2011-10-11T08:36:23.0000000+00:00</time></trkpt><trkpt lat="44.616489" lon="33.737774"><ele>190.1</ele><time>2011-10-11T08:36:28.0000000+00:00</time></trkpt><trkpt lat="44.616489" lon="33.737774"><ele>190.1</ele><time>2011-10-11T08:36:33.0000000+00:00</time></trkpt><trkpt lat="44.616489" lon="33.737774"><ele>190.1</ele><time>2011-10-11T08:36:38.0000000+00:00</time></trkpt><trkpt lat="44.616489" lon="33.737774"><ele>190.1</ele><time>2011-10-11T08:36:43.0000000+00:00</time></trkpt><trkpt lat="44.616489" lon="33.737774"><ele>190.1</ele><time>2011-10-11T08:36:48.0000000+00:00</time></trkpt><trkpt lat="44.616489" lon="33.737774"><ele>190.1</ele><time>2011-10-11T08:36:53.0000000+00:00</time></trkpt><trkpt lat="44.616493" lon="33.737774"><ele>190.1</ele><time>2011-10-11T08:36:58.0000000+00:00</time></trkpt><trkpt lat="44.616493" lon="33.737774"><ele>190.0</ele><time>2011-10-11T08:37:03.0000000+00:00</time></trkpt><trkpt lat="44.616493" lon="33.73777"><ele>189.9</ele><time>2011-10-11T08:37:08.0000000+00:00</time></trkpt><trkpt lat="44.616493" lon="33.73777"><ele>189.9</ele><time>2011-10-11T08:37:13.0000000+00:00</time></trkpt><trkpt lat="44.616493" lon="33.73777"><ele>189.8</ele><time>2011-10-11T08:37:18.0000000+00:00</time></trkpt><trkpt lat="44.616493" lon="33.73777"><ele>189.8</ele><time>2011-10-11T08:37:23.0000000+00:00</time></trkpt><trkpt lat="44.616493" lon="33.73777"><ele>189.8</ele><time>2011-10-11T08:37:28.0000000+00:00</time></trkpt><trkpt lat="44.616493" lon="33.73777"><ele>189.8</ele><time>2011-10-11T08:37:33.0000000+00:00</time></trkpt><trkpt lat="44.616493" lon="33.737766"><ele>189.7</ele><time>2011-10-11T08:37:38.0000000+00:00</time></trkpt><trkpt lat="44.616493" lon="33.737766"><ele>189.7</ele><time>2011-10-11T08:37:43.0000000+00:00</time></trkpt><trkpt lat="44.616493" lon="33.737766"><ele>189.6</ele><time>2011-10-11T08:37:48.0000000+00:00</time></trkpt><trkpt lat="44.616493" lon="33.737766"><ele>189.5</ele><time>2011-10-11T08:37:53.0000000+00:00</time></trkpt><trkpt lat="44.616489" lon="33.737766"><ele>189.5</ele><time>2011-10-11T08:37:58.0000000+00:00</time></trkpt><trkpt lat="44.616489" lon="33.737766"><ele>189.5</ele><time>2011-10-11T08:38:03.0000000+00:00</time></trkpt><trkpt lat="44.616489" lon="33.737766"><ele>189.4</ele><time>2011-10-11T08:38:08.0000000+00:00</time></trkpt><trkpt lat="44.616489" lon="33.73777"><ele>189.4</ele><time>2011-10-11T08:38:13.0000000+00:00</time></trkpt><trkpt lat="44.616489" lon="33.73777"><ele>189.4</ele><time>2011-10-11T08:38:18.0000000+00:00</time></trkpt><trkpt lat="44.616489" lon="33.73777"><ele>189.4</ele><time>2011-10-11T08:38:23.0000000+00:00</time></trkpt><trkpt lat="44.616489" lon="33.73777"><ele>189.4</ele><time>2011-10-11T08:38:28.0000000+00:00</time></trkpt><trkpt lat="44.616489" lon="33.73777"><ele>189.4</ele><time>2011-10-11T08:38:33.0000000+00:00</time></trkpt><trkpt lat="44.616489" lon="33.73777"><ele>189.3</ele><time>2011-10-11T08:38:38.0000000+00:00</time></trkpt><trkpt lat="44.616489" lon="33.73777"><ele>189.3</ele><time>2011-10-11T08:38:43.0000000+00:00</time></trkpt><trkpt lat="44.616489" lon="33.73777"><ele>189.3</ele><time>2011-10-11T08:38:48.0000000+00:00</time></trkpt><trkpt lat="44.616489" lon="33.73777"><ele>189.3</ele><time>2011-10-11T08:38:53.0000000+00:00</time></trkpt><trkpt lat="44.616489" lon="33.737766"><ele>189.4</ele><time>2011-10-11T08:38:58.0000000+00:00</time></trkpt><trkpt lat="44.616489" lon="33.737766"><ele>189.4</ele><time>2011-10-11T08:39:03.0000000+00:00</time></trkpt><trkpt lat="44.616489" lon="33.737766"><ele>189.4</ele><time>2011-10-11T08:39:08.0000000+00:00</time></trkpt><trkpt lat="44.616489" lon="33.737766"><ele>189.4</ele><time>2011-10-11T08:39:13.0000000+00:00</time></trkpt><trkpt lat="44.616489" lon="33.737766"><ele>189.4</ele><time>2011-10-11T08:39:18.0000000+00:00</time></trkpt><trkpt lat="44.616486" lon="33.737766"><ele>189.4</ele><time>2011-10-11T08:39:23.0000000+00:00</time></trkpt><trkpt lat="44.616486" lon="33.737766"><ele>189.3</ele><time>2011-10-11T08:39:28.0000000+00:00</time></trkpt><trkpt lat="44.616486" lon="33.737766"><ele>189.3</ele><time>2011-10-11T08:39:33.0000000+00:00</time></trkpt><trkpt lat="44.616486" lon="33.737766"><ele>189.3</ele><time>2011-10-11T08:39:38.0000000+00:00</time></trkpt><trkpt lat="44.616486" lon="33.737766"><ele>189.3</ele><time>2011-10-11T08:39:43.0000000+00:00</time></trkpt><trkpt lat="44.616486" lon="33.737766"><ele>189.3</ele><time>2011-10-11T08:39:48.0000000+00:00</time></trkpt><trkpt lat="44.616486" lon="33.737766"><ele>189.3</ele><time>2011-10-11T08:39:53.0000000+00:00</time></trkpt><trkpt lat="44.616486" lon="33.737766"><ele>189.3</ele><time>2011-10-11T08:39:58.0000000+00:00</time></trkpt><trkpt lat="44.616486" lon="33.737766"><ele>189.4</ele><time>2011-10-11T08:40:03.0000000+00:00</time></trkpt><trkpt lat="44.616486" lon="33.737766"><ele>189.5</ele><time>2011-10-11T08:40:08.0000000+00:00</time></trkpt><trkpt lat="44.616486" lon="33.737766"><ele>189.5</ele><time>2011-10-11T08:40:13.0000000+00:00</time></trkpt><trkpt lat="44.616486" lon="33.737766"><ele>189.5</ele><time>2011-10-11T08:40:18.0000000+00:00</time></trkpt><trkpt lat="44.616486" lon="33.737766"><ele>189.6</ele><time>2011-10-11T08:40:23.0000000+00:00</time></trkpt><trkpt lat="44.616486" lon="33.737766"><ele>189.6</ele><time>2011-10-11T08:40:28.0000000+00:00</time></trkpt><trkpt lat="44.616486" lon="33.737766"><ele>189.6</ele><time>2011-10-11T08:40:33.0000000+00:00</time></trkpt><trkpt lat="44.616486" lon="33.737766"><ele>189.5</ele><time>2011-10-11T08:40:38.0000000+00:00</time></trkpt><trkpt lat="44.616486" lon="33.737766"><ele>189.3</ele><time>2011-10-11T08:40:43.0000000+00:00</time></trkpt><trkpt lat="44.616489" lon="33.737766"><ele>189.1</ele><time>2011-10-11T08:40:48.0000000+00:00</time></trkpt><trkpt lat="44.616489" lon="33.737766"><ele>188.9</ele><time>2011-10-11T08:40:53.0000000+00:00</time></trkpt><trkpt lat="44.616489" lon="33.737766"><ele>188.9</ele><time>2011-10-11T08:40:58.0000000+00:00</time></trkpt><trkpt lat="44.616489" lon="33.737766"><ele>188.9</ele><time>2011-10-11T08:41:03.0000000+00:00</time></trkpt><trkpt lat="44.616489" lon="33.737762"><ele>188.9</ele><time>2011-10-11T08:41:08.0000000+00:00</time></trkpt><trkpt lat="44.616489" lon="33.737762"><ele>188.8</ele><time>2011-10-11T08:41:13.0000000+00:00</time></trkpt><trkpt lat="44.616489" lon="33.737762"><ele>188.8</ele><time>2011-10-11T08:41:18.0000000+00:00</time></trkpt><trkpt lat="44.616489" lon="33.737762"><ele>188.8</ele><time>2011-10-11T08:41:23.0000000+00:00</time></trkpt><trkpt lat="44.616489" lon="33.737762"><ele>188.8</ele><time>2011-10-11T08:41:28.0000000+00:00</time></trkpt><trkpt lat="44.616486" lon="33.737762"><ele>188.7</ele><time>2011-10-11T08:41:33.0000000+00:00</time></trkpt><trkpt lat="44.616482" lon="33.737766"><ele>188.7</ele><time>2011-10-11T08:41:38.0000000+00:00</time></trkpt><trkpt lat="44.616482" lon="33.737766"><ele>188.7</ele><time>2011-10-11T08:41:43.0000000+00:00</time></trkpt><trkpt lat="44.616482" lon="33.73777"><ele>188.6</ele><time>2011-10-11T08:41:48.0000000+00:00</time></trkpt><trkpt lat="44.616482" lon="33.73777"><ele>188.6</ele><time>2011-10-11T08:41:53.0000000+00:00</time></trkpt><trkpt lat="44.616482" lon="33.737774"><ele>188.6</ele><time>2011-10-11T08:41:58.0000000+00:00</time></trkpt><trkpt lat="44.616478" lon="33.737774"><ele>188.5</ele><time>2011-10-11T08:42:03.0000000+00:00</time></trkpt><trkpt lat="44.616478" lon="33.737774"><ele>188.5</ele><time>2011-10-11T08:42:08.0000000+00:00</time></trkpt><trkpt lat="44.616478" lon="33.737778"><ele>188.5</ele><time>2011-10-11T08:42:13.0000000+00:00</time></trkpt><trkpt lat="44.616478" lon="33.737778"><ele>188.5</ele><time>2011-10-11T08:42:18.0000000+00:00</time></trkpt><trkpt lat="44.616478" lon="33.737778"><ele>188.5</ele><time>2011-10-11T08:42:23.0000000+00:00</time></trkpt><trkpt lat="44.616478" lon="33.737778"><ele>188.5</ele><time>2011-10-11T08:42:28.0000000+00:00</time></trkpt><trkpt lat="44.616478" lon="33.737778"><ele>188.5</ele><time>2011-10-11T08:42:33.0000000+00:00</time></trkpt><trkpt lat="44.616478" lon="33.737778"><ele>188.5</ele><time>2011-10-11T08:42:38.0000000+00:00</time></trkpt><trkpt lat="44.616478" lon="33.737778"><ele>188.5</ele><time>2011-10-11T08:42:43.0000000+00:00</time></trkpt><trkpt lat="44.616478" lon="33.737778"><ele>188.5</ele><time>2011-10-11T08:42:48.0000000+00:00</time></trkpt><trkpt lat="44.616478" lon="33.737778"><ele>188.5</ele><time>2011-10-11T08:42:53.0000000+00:00</time></trkpt><trkpt lat="44.616478" lon="33.737778"><ele>188.5</ele><time>2011-10-11T08:42:58.0000000+00:00</time></trkpt><trkpt lat="44.616478" lon="33.737778"><ele>188.5</ele><time>2011-10-11T08:43:03.0000000+00:00</time></trkpt><trkpt lat="44.616478" lon="33.737778"><ele>188.5</ele><time>2011-10-11T08:43:08.0000000+00:00</time></trkpt><trkpt lat="44.616478" lon="33.737778"><ele>188.5</ele><time>2011-10-11T08:43:13.0000000+00:00</time></trkpt><trkpt lat="44.616478" lon="33.737778"><ele>188.4</ele><time>2011-10-11T08:43:18.0000000+00:00</time></trkpt><trkpt lat="44.616478" lon="33.737778"><ele>188.3</ele><time>2011-10-11T08:43:23.0000000+00:00</time></trkpt><trkpt lat="44.616474" lon="33.737778"><ele>188.3</ele><time>2011-10-11T08:43:28.0000000+00:00</time></trkpt><trkpt lat="44.616474" lon="33.737778"><ele>188.3</ele><time>2011-10-11T08:43:33.0000000+00:00</time></trkpt><trkpt lat="44.616474" lon="33.737778"><ele>188.2</ele><time>2011-10-11T08:43:38.0000000+00:00</time></trkpt><trkpt lat="44.616474" lon="33.737778"><ele>188.2</ele><time>2011-10-11T08:43:43.0000000+00:00</time></trkpt><trkpt lat="44.616474" lon="33.737778"><ele>188.2</ele><time>2011-10-11T08:43:48.0000000+00:00</time></trkpt><trkpt lat="44.616474" lon="33.737778"><ele>188.2</ele><time>2011-10-11T08:43:53.0000000+00:00</time></trkpt><trkpt lat="44.616474" lon="33.737778"><ele>188.2</ele><time>2011-10-11T08:43:58.0000000+00:00</time></trkpt><trkpt lat="44.616474" lon="33.737778"><ele>188.2</ele><time>2011-10-11T08:44:03.0000000+00:00</time></trkpt><trkpt lat="44.616474" lon="33.737778"><ele>188.1</ele><time>2011-10-11T08:44:08.0000000+00:00</time></trkpt><trkpt lat="44.616474" lon="33.737785"><ele>186.8</ele><time>2011-10-11T08:44:13.0000000+00:00</time></trkpt><trkpt lat="44.61647" lon="33.737766"><ele>185.6</ele><time>2011-10-11T08:44:18.0000000+00:00</time></trkpt><trkpt lat="44.616467" lon="33.737759"><ele>184.9</ele><time>2011-10-11T08:44:23.0000000+00:00</time></trkpt><trkpt lat="44.616467" lon="33.737759"><ele>184.8</ele><time>2011-10-11T08:44:28.0000000+00:00</time></trkpt><trkpt lat="44.616463" lon="33.737755"><ele>184.8</ele><time>2011-10-11T08:44:33.0000000+00:00</time></trkpt><trkpt lat="44.616459" lon="33.737751"><ele>184.9</ele><time>2011-10-11T08:44:38.0000000+00:00</time></trkpt><trkpt lat="44.616436" lon="33.737762"><ele>184.8</ele><time>2011-10-11T08:44:43.0000000+00:00</time></trkpt><trkpt lat="44.616436" lon="33.737762"><ele>184.5</ele><time>2011-10-11T08:44:48.0000000+00:00</time></trkpt><trkpt lat="44.616436" lon="33.737766"><ele>184.5</ele><time>2011-10-11T08:44:53.0000000+00:00</time></trkpt><trkpt lat="44.616436" lon="33.737766"><ele>184.5</ele><time>2011-10-11T08:44:58.0000000+00:00</time></trkpt><trkpt lat="44.616432" lon="33.737766"><ele>184.5</ele><time>2011-10-11T08:45:03.0000000+00:00</time></trkpt><trkpt lat="44.616432" lon="33.737766"><ele>184.6</ele><time>2011-10-11T08:45:08.0000000+00:00</time></trkpt><trkpt lat="44.616432" lon="33.737766"><ele>184.6</ele><time>2011-10-11T08:45:13.0000000+00:00</time></trkpt><trkpt lat="44.61644" lon="33.737762"><ele>184.6</ele><time>2011-10-11T08:45:18.0000000+00:00</time></trkpt><trkpt lat="44.616444" lon="33.737755"><ele>184.5</ele><time>2011-10-11T08:45:23.0000000+00:00</time></trkpt><trkpt lat="44.616447" lon="33.737751"><ele>184.5</ele><time>2011-10-11T08:45:28.0000000+00:00</time></trkpt><trkpt lat="44.616451" lon="33.737743"><ele>184.4</ele><time>2011-10-11T08:45:33.0000000+00:00</time></trkpt><trkpt lat="44.616486" lon="33.737732"><ele>184.4</ele><time>2011-10-11T08:45:38.0000000+00:00</time></trkpt><trkpt lat="44.61647" lon="33.737743"><ele>184.4</ele><time>2011-10-11T08:45:43.0000000+00:00</time></trkpt><trkpt lat="44.616467" lon="33.737743"><ele>184.4</ele><time>2011-10-11T08:45:48.0000000+00:00</time></trkpt><trkpt lat="44.61647" lon="33.737743"><ele>184.4</ele><time>2011-10-11T08:45:53.0000000+00:00</time></trkpt><trkpt lat="44.616474" lon="33.73774"><ele>184.4</ele><time>2011-10-11T08:45:58.0000000+00:00</time></trkpt><trkpt lat="44.616474" lon="33.737732"><ele>184.4</ele><time>2011-10-11T08:46:03.0000000+00:00</time></trkpt><trkpt lat="44.616478" lon="33.737724"><ele>184.4</ele><time>2011-10-11T08:46:08.0000000+00:00</time></trkpt><trkpt lat="44.616478" lon="33.737724"><ele>184.0</ele><time>2011-10-11T08:46:13.0000000+00:00</time></trkpt><trkpt lat="44.616474" lon="33.737713"><ele>183.8</ele><time>2011-10-11T08:46:18.0000000+00:00</time></trkpt><trkpt lat="44.61647" lon="33.737713"><ele>183.4</ele><time>2011-10-11T08:46:23.0000000+00:00</time></trkpt><trkpt lat="44.616447" lon="33.737747"><ele>182.6</ele><time>2011-10-11T08:46:28.0000000+00:00</time></trkpt><trkpt lat="44.616447" lon="33.737747"><ele>182.6</ele><time>2011-10-11T08:46:33.0000000+00:00</time></trkpt><trkpt lat="44.616455" lon="33.737751"><ele>182.6</ele><time>2011-10-11T08:46:38.0000000+00:00</time></trkpt><trkpt lat="44.616463" lon="33.737751"><ele>182.6</ele><time>2011-10-11T08:46:43.0000000+00:00</time></trkpt><trkpt lat="44.616478" lon="33.737755"><ele>182.0</ele><time>2011-10-11T08:46:48.0000000+00:00</time></trkpt><trkpt lat="44.616486" lon="33.737751"><ele>182.0</ele><time>2011-10-11T08:46:53.0000000+00:00</time></trkpt><trkpt lat="44.616486" lon="33.737755"><ele>182.0</ele><time>2011-10-11T08:46:58.0000000+00:00</time></trkpt><trkpt lat="44.616486" lon="33.737755"><ele>182.0</ele><time>2011-10-11T08:47:03.0000000+00:00</time></trkpt><trkpt lat="44.616482" lon="33.737755"><ele>182.0</ele><time>2011-10-11T08:47:08.0000000+00:00</time></trkpt><trkpt lat="44.616482" lon="33.737751"><ele>182.0</ele><time>2011-10-11T08:47:13.0000000+00:00</time></trkpt><trkpt lat="44.616478" lon="33.737751"><ele>181.9</ele><time>2011-10-11T08:47:18.0000000+00:00</time></trkpt><trkpt lat="44.616478" lon="33.737751"><ele>181.8</ele><time>2011-10-11T08:47:23.0000000+00:00</time></trkpt><trkpt lat="44.616474" lon="33.737751"><ele>181.7</ele><time>2011-10-11T08:47:28.0000000+00:00</time></trkpt><trkpt lat="44.616474" lon="33.737751"><ele>181.7</ele><time>2011-10-11T08:47:33.0000000+00:00</time></trkpt><trkpt lat="44.616474" lon="33.737751"><ele>181.7</ele><time>2011-10-11T08:47:38.0000000+00:00</time></trkpt><trkpt lat="44.616474" lon="33.737751"><ele>181.6</ele><time>2011-10-11T08:47:43.0000000+00:00</time></trkpt><trkpt lat="44.616474" lon="33.737751"><ele>181.6</ele><time>2011-10-11T08:47:48.0000000+00:00</time></trkpt><trkpt lat="44.616474" lon="33.737751"><ele>181.6</ele><time>2011-10-11T08:47:53.0000000+00:00</time></trkpt><trkpt lat="44.616474" lon="33.737751"><ele>181.6</ele><time>2011-10-11T08:47:58.0000000+00:00</time></trkpt><trkpt lat="44.616474" lon="33.737751"><ele>181.5</ele><time>2011-10-11T08:48:03.0000000+00:00</time></trkpt><trkpt lat="44.616474" lon="33.737751"><ele>181.5</ele><time>2011-10-11T08:48:08.0000000+00:00</time></trkpt><trkpt lat="44.616474" lon="33.737751"><ele>181.5</ele><time>2011-10-11T08:48:13.0000000+00:00</time></trkpt><trkpt lat="44.616474" lon="33.737751"><ele>181.5</ele><time>2011-10-11T08:48:18.0000000+00:00</time></trkpt><trkpt lat="44.616474" lon="33.737751"><ele>181.5</ele><time>2011-10-11T08:48:23.0000000+00:00</time></trkpt><trkpt lat="44.616474" lon="33.737751"><ele>181.5</ele><time>2011-10-11T08:48:28.0000000+00:00</time></trkpt><trkpt lat="44.61647" lon="33.737751"><ele>181.5</ele><time>2011-10-11T08:48:33.0000000+00:00</time></trkpt><trkpt lat="44.61647" lon="33.737751"><ele>181.4</ele><time>2011-10-11T08:48:38.0000000+00:00</time></trkpt><trkpt lat="44.61647" lon="33.737751"><ele>181.4</ele><time>2011-10-11T08:48:43.0000000+00:00</time></trkpt><trkpt lat="44.61647" lon="33.737751"><ele>181.4</ele><time>2011-10-11T08:48:48.0000000+00:00</time></trkpt><trkpt lat="44.61647" lon="33.737751"><ele>181.5</ele><time>2011-10-11T08:48:53.0000000+00:00</time></trkpt><trkpt lat="44.61647" lon="33.737751"><ele>181.5</ele><time>2011-10-11T08:48:58.0000000+00:00</time></trkpt><trkpt lat="44.61647" lon="33.737751"><ele>181.4</ele><time>2011-10-11T08:49:03.0000000+00:00</time></trkpt><trkpt lat="44.61647" lon="33.737751"><ele>181.4</ele><time>2011-10-11T08:49:08.0000000+00:00</time></trkpt><trkpt lat="44.61647" lon="33.737751"><ele>181.4</ele><time>2011-10-11T08:49:13.0000000+00:00</time></trkpt><trkpt lat="44.61647" lon="33.737747"><ele>181.4</ele><time>2011-10-11T08:49:18.0000000+00:00</time></trkpt><trkpt lat="44.61647" lon="33.737747"><ele>181.4</ele><time>2011-10-11T08:49:23.0000000+00:00</time></trkpt><trkpt lat="44.616467" lon="33.737747"><ele>181.4</ele><time>2011-10-11T08:49:28.0000000+00:00</time></trkpt><trkpt lat="44.616467" lon="33.737747"><ele>181.4</ele><time>2011-10-11T08:49:33.0000000+00:00</time></trkpt><trkpt lat="44.616467" lon="33.737747"><ele>181.4</ele><time>2011-10-11T08:49:38.0000000+00:00</time></trkpt><trkpt lat="44.616467" lon="33.737747"><ele>181.4</ele><time>2011-10-11T08:49:43.0000000+00:00</time></trkpt><trkpt lat="44.616467" lon="33.737747"><ele>181.4</ele><time>2011-10-11T08:49:48.0000000+00:00</time></trkpt><trkpt lat="44.616467" lon="33.737747"><ele>181.4</ele><time>2011-10-11T08:49:53.0000000+00:00</time></trkpt><trkpt lat="44.616467" lon="33.737747"><ele>181.4</ele><time>2011-10-11T08:49:58.0000000+00:00</time></trkpt><trkpt lat="44.616467" lon="33.737747"><ele>181.4</ele><time>2011-10-11T08:50:03.0000000+00:00</time></trkpt><trkpt lat="44.616467" lon="33.737747"><ele>181.4</ele><time>2011-10-11T08:50:08.0000000+00:00</time></trkpt><trkpt lat="44.616467" lon="33.737747"><ele>181.3</ele><time>2011-10-11T08:50:13.0000000+00:00</time></trkpt><trkpt lat="44.616467" lon="33.737747"><ele>181.3</ele><time>2011-10-11T08:50:18.0000000+00:00</time></trkpt><trkpt lat="44.616467" lon="33.737747"><ele>181.3</ele><time>2011-10-11T08:50:23.0000000+00:00</time></trkpt><trkpt lat="44.616467" lon="33.737747"><ele>181.3</ele><time>2011-10-11T08:50:28.0000000+00:00</time></trkpt><trkpt lat="44.616467" lon="33.737747"><ele>181.3</ele><time>2011-10-11T08:50:33.0000000+00:00</time></trkpt><trkpt lat="44.616467" lon="33.737747"><ele>181.3</ele><time>2011-10-11T08:50:38.0000000+00:00</time></trkpt><trkpt lat="44.616467" lon="33.737747"><ele>181.3</ele><time>2011-10-11T08:50:43.0000000+00:00</time></trkpt><trkpt lat="44.616463" lon="33.737747"><ele>181.4</ele><time>2011-10-11T08:50:48.0000000+00:00</time></trkpt><trkpt lat="44.616459" lon="33.737751"><ele>181.4</ele><time>2011-10-11T08:50:53.0000000+00:00</time></trkpt><trkpt lat="44.616455" lon="33.737751"><ele>181.4</ele><time>2011-10-11T08:50:58.0000000+00:00</time></trkpt><trkpt lat="44.616451" lon="33.737755"><ele>181.5</ele><time>2011-10-11T08:51:03.0000000+00:00</time></trkpt><trkpt lat="44.616444" lon="33.737755"><ele>181.5</ele><time>2011-10-11T08:51:08.0000000+00:00</time></trkpt><trkpt lat="44.61644" lon="33.737762"><ele>181.5</ele><time>2011-10-11T08:51:13.0000000+00:00</time></trkpt><trkpt lat="44.616436" lon="33.737766"><ele>181.6</ele><time>2011-10-11T08:51:18.0000000+00:00</time></trkpt><trkpt lat="44.616432" lon="33.73777"><ele>181.6</ele><time>2011-10-11T08:51:23.0000000+00:00</time></trkpt><trkpt lat="44.616428" lon="33.73777"><ele>181.6</ele><time>2011-10-11T08:51:28.0000000+00:00</time></trkpt><trkpt lat="44.616421" lon="33.737774"><ele>181.6</ele><time>2011-10-11T08:51:33.0000000+00:00</time></trkpt><trkpt lat="44.616417" lon="33.737778"><ele>181.7</ele><time>2011-10-11T08:51:38.0000000+00:00</time></trkpt><trkpt lat="44.616413" lon="33.737782"><ele>181.7</ele><time>2011-10-11T08:51:43.0000000+00:00</time></trkpt><trkpt lat="44.616409" lon="33.737782"><ele>181.7</ele><time>2011-10-11T08:51:48.0000000+00:00</time></trkpt><trkpt lat="44.616405" lon="33.737785"><ele>181.7</ele><time>2011-10-11T08:51:53.0000000+00:00</time></trkpt><trkpt lat="44.616398" lon="33.737793"><ele>181.7</ele><time>2011-10-11T08:51:58.0000000+00:00</time></trkpt><trkpt lat="44.616394" lon="33.737801"><ele>181.7</ele><time>2011-10-11T08:52:03.0000000+00:00</time></trkpt><trkpt lat="44.61639" lon="33.737808"><ele>181.7</ele><time>2011-10-11T08:52:08.0000000+00:00</time></trkpt><trkpt lat="44.616386" lon="33.737816"><ele>181.6</ele><time>2011-10-11T08:52:13.0000000+00:00</time></trkpt><trkpt lat="44.61639" lon="33.737816"><ele>181.6</ele><time>2011-10-11T08:52:18.0000000+00:00</time></trkpt><trkpt lat="44.61639" lon="33.737816"><ele>181.6</ele><time>2011-10-11T08:52:23.0000000+00:00</time></trkpt><trkpt lat="44.616394" lon="33.737816"><ele>181.5</ele><time>2011-10-11T08:52:28.0000000+00:00</time></trkpt><trkpt lat="44.616394" lon="33.73782"><ele>181.5</ele><time>2011-10-11T08:52:33.0000000+00:00</time></trkpt><trkpt lat="44.61639" lon="33.73782"><ele>181.5</ele><time>2011-10-11T08:52:38.0000000+00:00</time></trkpt><trkpt lat="44.616386" lon="33.73782"><ele>181.4</ele><time>2011-10-11T08:52:43.0000000+00:00</time></trkpt><trkpt lat="44.616386" lon="33.73782"><ele>181.4</ele><time>2011-10-11T08:52:48.0000000+00:00</time></trkpt><trkpt lat="44.616383" lon="33.73782"><ele>181.4</ele><time>2011-10-11T08:52:53.0000000+00:00</time></trkpt><trkpt lat="44.616383" lon="33.73782"><ele>181.3</ele><time>2011-10-11T08:52:58.0000000+00:00</time></trkpt><trkpt lat="44.616383" lon="33.737816"><ele>181.2</ele><time>2011-10-11T08:53:03.0000000+00:00</time></trkpt><trkpt lat="44.616386" lon="33.737812"><ele>181.1</ele><time>2011-10-11T08:53:08.0000000+00:00</time></trkpt><trkpt lat="44.61639" lon="33.737812"><ele>181.0</ele><time>2011-10-11T08:53:13.0000000+00:00</time></trkpt><trkpt lat="44.616402" lon="33.737835"><ele>180.2</ele><time>2011-10-11T08:53:18.0000000+00:00</time></trkpt><trkpt lat="44.616402" lon="33.73782"><ele>178.8</ele><time>2011-10-11T08:53:23.0000000+00:00</time></trkpt><trkpt lat="44.616405" lon="33.737831"><ele>179.0</ele><time>2011-10-11T08:53:28.0000000+00:00</time></trkpt><trkpt lat="44.616417" lon="33.737831"><ele>178.2</ele><time>2011-10-11T08:53:33.0000000+00:00</time></trkpt><trkpt lat="44.616417" lon="33.737823"><ele>178.3</ele><time>2011-10-11T08:53:38.0000000+00:00</time></trkpt><trkpt lat="44.616436" lon="33.737785"><ele>177.8</ele><time>2011-10-11T08:53:43.0000000+00:00</time></trkpt><trkpt lat="44.616451" lon="33.737789"><ele>177.2</ele><time>2011-10-11T08:53:48.0000000+00:00</time></trkpt><trkpt lat="44.616451" lon="33.737789"><ele>177.0</ele><time>2011-10-11T08:53:53.0000000+00:00</time></trkpt><trkpt lat="44.616451" lon="33.737789"><ele>176.9</ele><time>2011-10-11T08:53:58.0000000+00:00</time></trkpt><trkpt lat="44.616447" lon="33.737789"><ele>176.8</ele><time>2011-10-11T08:54:03.0000000+00:00</time></trkpt><trkpt lat="44.616451" lon="33.737789"><ele>176.8</ele><time>2011-10-11T08:54:08.0000000+00:00</time></trkpt><trkpt lat="44.616451" lon="33.737789"><ele>176.8</ele><time>2011-10-11T08:54:13.0000000+00:00</time></trkpt><trkpt lat="44.616451" lon="33.737789"><ele>176.8</ele><time>2011-10-11T08:54:18.0000000+00:00</time></trkpt><trkpt lat="44.616451" lon="33.737789"><ele>176.8</ele><time>2011-10-11T08:54:23.0000000+00:00</time></trkpt><trkpt lat="44.616451" lon="33.737789"><ele>176.8</ele><time>2011-10-11T08:54:28.0000000+00:00</time></trkpt><trkpt lat="44.616451" lon="33.737793"><ele>176.7</ele><time>2011-10-11T08:54:33.0000000+00:00</time></trkpt><trkpt lat="44.616451" lon="33.737797"><ele>176.7</ele><time>2011-10-11T08:54:38.0000000+00:00</time></trkpt><trkpt lat="44.616444" lon="33.737808"><ele>176.8</ele><time>2011-10-11T08:54:43.0000000+00:00</time></trkpt><trkpt lat="44.616436" lon="33.737804"><ele>177.0</ele><time>2011-10-11T08:54:48.0000000+00:00</time></trkpt><trkpt lat="44.616425" lon="33.737804"><ele>176.5</ele><time>2011-10-11T08:54:53.0000000+00:00</time></trkpt><trkpt lat="44.616398" lon="33.737808"><ele>177.1</ele><time>2011-10-11T08:54:58.0000000+00:00</time></trkpt><trkpt lat="44.616383" lon="33.737804"><ele>177.1</ele><time>2011-10-11T08:55:03.0000000+00:00</time></trkpt><trkpt lat="44.616383" lon="33.737801"><ele>178.0</ele><time>2011-10-11T08:55:08.0000000+00:00</time></trkpt><trkpt lat="44.616375" lon="33.737816"><ele>178.3</ele><time>2011-10-11T08:55:13.0000000+00:00</time></trkpt><trkpt lat="44.616379" lon="33.73782"><ele>178.3</ele><time>2011-10-11T08:55:18.0000000+00:00</time></trkpt><trkpt lat="44.616367" lon="33.737823"><ele>177.8</ele><time>2011-10-11T08:55:23.0000000+00:00</time></trkpt><trkpt lat="44.616364" lon="33.73782"><ele>177.8</ele><time>2011-10-11T08:55:28.0000000+00:00</time></trkpt><trkpt lat="44.616364" lon="33.73782"><ele>177.9</ele><time>2011-10-11T08:55:33.0000000+00:00</time></trkpt><trkpt lat="44.616356" lon="33.73782"><ele>177.9</ele><time>2011-10-11T08:55:38.0000000+00:00</time></trkpt><trkpt lat="44.616356" lon="33.737827"><ele>178.1</ele><time>2011-10-11T08:55:43.0000000+00:00</time></trkpt><trkpt lat="44.616364" lon="33.737843"><ele>178.0</ele><time>2011-10-11T08:55:48.0000000+00:00</time></trkpt><trkpt lat="44.616364" lon="33.737846"><ele>178.1</ele><time>2011-10-11T08:55:53.0000000+00:00</time></trkpt><trkpt lat="44.61636" lon="33.73785"><ele>178.1</ele><time>2011-10-11T08:55:58.0000000+00:00</time></trkpt><trkpt lat="44.616367" lon="33.737831"><ele>178.2</ele><time>2011-10-11T08:56:03.0000000+00:00</time></trkpt><trkpt lat="44.61636" lon="33.737827"><ele>178.4</ele><time>2011-10-11T08:56:08.0000000+00:00</time></trkpt><trkpt lat="44.616356" lon="33.737831"><ele>178.5</ele><time>2011-10-11T08:56:13.0000000+00:00</time></trkpt><trkpt lat="44.616352" lon="33.737831"><ele>178.5</ele><time>2011-10-11T08:56:18.0000000+00:00</time></trkpt><trkpt lat="44.61636" lon="33.737831"><ele>178.3</ele><time>2011-10-11T08:56:23.0000000+00:00</time></trkpt><trkpt lat="44.616364" lon="33.737831"><ele>179.4</ele><time>2011-10-11T08:56:28.0000000+00:00</time></trkpt><trkpt lat="44.616364" lon="33.737843"><ele>179.4</ele><time>2011-10-11T08:56:33.0000000+00:00</time></trkpt><trkpt lat="44.616367" lon="33.737846"><ele>179.3</ele><time>2011-10-11T08:56:38.0000000+00:00</time></trkpt><trkpt lat="44.61639" lon="33.73782"><ele>179.2</ele><time>2011-10-11T08:56:43.0000000+00:00</time></trkpt><trkpt lat="44.616367" lon="33.737823"><ele>179.2</ele><time>2011-10-11T08:56:48.0000000+00:00</time></trkpt><trkpt lat="44.61636" lon="33.73782"><ele>179.2</ele><time>2011-10-11T08:56:53.0000000+00:00</time></trkpt><trkpt lat="44.616356" lon="33.737808"><ele>179.2</ele><time>2011-10-11T08:56:58.0000000+00:00</time></trkpt><trkpt lat="44.616341" lon="33.737827"><ele>179.2</ele><time>2011-10-11T08:57:03.0000000+00:00</time></trkpt><trkpt lat="44.616322" lon="33.73785"><ele>179.3</ele><time>2011-10-11T08:57:08.0000000+00:00</time></trkpt><trkpt lat="44.616341" lon="33.737858"><ele>179.3</ele><time>2011-10-11T08:57:13.0000000+00:00</time></trkpt><trkpt lat="44.616344" lon="33.737877"><ele>179.3</ele><time>2011-10-11T08:57:18.0000000+00:00</time></trkpt><trkpt lat="44.616341" lon="33.737892"><ele>179.3</ele><time>2011-10-11T08:57:23.0000000+00:00</time></trkpt><trkpt lat="44.616333" lon="33.737888"><ele>179.3</ele><time>2011-10-11T08:57:28.0000000+00:00</time></trkpt><trkpt lat="44.616364" lon="33.737869"><ele>179.3</ele><time>2011-10-11T08:57:33.0000000+00:00</time></trkpt><trkpt lat="44.616398" lon="33.73782"><ele>179.3</ele><time>2011-10-11T08:57:38.0000000+00:00</time></trkpt><trkpt lat="44.616405" lon="33.737801"><ele>179.2</ele><time>2011-10-11T08:57:43.0000000+00:00</time></trkpt><trkpt lat="44.616409" lon="33.737793"><ele>179.3</ele><time>2011-10-11T08:57:48.0000000+00:00</time></trkpt><trkpt lat="44.616413" lon="33.737789"><ele>179.3</ele><time>2011-10-11T08:57:53.0000000+00:00</time></trkpt><trkpt lat="44.616413" lon="33.737785"><ele>179.3</ele><time>2011-10-11T08:57:58.0000000+00:00</time></trkpt><trkpt lat="44.616413" lon="33.737778"><ele>179.3</ele><time>2011-10-11T08:58:03.0000000+00:00</time></trkpt><trkpt lat="44.616413" lon="33.737774"><ele>179.4</ele><time>2011-10-11T08:58:08.0000000+00:00</time></trkpt><trkpt lat="44.616409" lon="33.737766"><ele>179.4</ele><time>2011-10-11T08:58:13.0000000+00:00</time></trkpt><trkpt lat="44.616405" lon="33.737766"><ele>179.4</ele><time>2011-10-11T08:58:18.0000000+00:00</time></trkpt><trkpt lat="44.616405" lon="33.73777"><ele>179.4</ele><time>2011-10-11T08:58:23.0000000+00:00</time></trkpt><trkpt lat="44.616405" lon="33.737782"><ele>179.5</ele><time>2011-10-11T08:58:28.0000000+00:00</time></trkpt><trkpt lat="44.616436" lon="33.73782"><ele>179.5</ele><time>2011-10-11T08:58:33.0000000+00:00</time></trkpt><trkpt lat="44.616543" lon="33.737888"><ele>179.5</ele><time>2011-10-11T08:58:38.0000000+00:00</time></trkpt><trkpt lat="44.61676" lon="33.737957"><ele>179.5</ele><time>2011-10-11T08:58:43.0000000+00:00</time></trkpt><trkpt lat="44.617062" lon="33.737961"><ele>179.6</ele><time>2011-10-11T08:58:48.0000000+00:00</time></trkpt><trkpt lat="44.617481" lon="33.737839"><ele>179.4</ele><time>2011-10-11T08:58:53.0000000+00:00</time></trkpt><trkpt lat="44.617889" lon="33.737659"><ele>178.6</ele><time>2011-10-11T08:58:58.0000000+00:00</time></trkpt><trkpt lat="44.61832" lon="33.737522"><ele>177.8</ele><time>2011-10-11T08:59:03.0000000+00:00</time></trkpt><trkpt lat="44.618847" lon="33.737396"><ele>177.3</ele><time>2011-10-11T08:59:08.0000000+00:00</time></trkpt><trkpt lat="44.619324" lon="33.737366"><ele>177.2</ele><time>2011-10-11T08:59:13.0000000+00:00</time></trkpt><trkpt lat="44.619804" lon="33.737362"><ele>177.6</ele><time>2011-10-11T08:59:18.0000000+00:00</time></trkpt><trkpt lat="44.620193" lon="33.737396"><ele>178.6</ele><time>2011-10-11T08:59:23.0000000+00:00</time></trkpt><trkpt lat="44.620438" lon="33.73745"><ele>179.1</ele><time>2011-10-11T08:59:28.0000000+00:00</time></trkpt><trkpt lat="44.620678" lon="33.737465"><ele>180.3</ele><time>2011-10-11T08:59:33.0000000+00:00</time></trkpt><trkpt lat="44.620857" lon="33.737514"><ele>180.3</ele><time>2011-10-11T08:59:38.0000000+00:00</time></trkpt><trkpt lat="44.621078" lon="33.737587"><ele>180.1</ele><time>2011-10-11T08:59:43.0000000+00:00</time></trkpt><trkpt lat="44.621212" lon="33.737865"><ele>179.0</ele><time>2011-10-11T08:59:48.0000000+00:00</time></trkpt><trkpt lat="44.621365" lon="33.738224"><ele>178.3</ele><time>2011-10-11T08:59:53.0000000+00:00</time></trkpt><trkpt lat="44.621536" lon="33.73859"><ele>177.8</ele><time>2011-10-11T08:59:58.0000000+00:00</time></trkpt><trkpt lat="44.621857" lon="33.73896"><ele>177.4</ele><time>2011-10-11T09:00:03.0000000+00:00</time></trkpt><trkpt lat="44.62225" lon="33.739372"><ele>177.2</ele><time>2011-10-11T09:00:08.0000000+00:00</time></trkpt><trkpt lat="44.622711" lon="33.739803"><ele>176.3</ele><time>2011-10-11T09:00:13.0000000+00:00</time></trkpt><trkpt lat="44.623158" lon="33.74004"><ele>176.3</ele><time>2011-10-11T09:00:18.0000000+00:00</time></trkpt><trkpt lat="44.623547" lon="33.740265"><ele>175.8</ele><time>2011-10-11T09:00:23.0000000+00:00</time></trkpt><trkpt lat="44.623783" lon="33.740444"><ele>175.8</ele><time>2011-10-11T09:00:28.0000000+00:00</time></trkpt><trkpt lat="44.623898" lon="33.740517"><ele>176.6</ele><time>2011-10-11T09:00:33.0000000+00:00</time></trkpt><trkpt lat="44.62402" lon="33.740814"><ele>176.5</ele><time>2011-10-11T09:00:38.0000000+00:00</time></trkpt><trkpt lat="44.624104" lon="33.741207"><ele>176.9</ele><time>2011-10-11T09:00:43.0000000+00:00</time></trkpt><trkpt lat="44.624176" lon="33.741722"><ele>177.3</ele><time>2011-10-11T09:00:48.0000000+00:00</time></trkpt><trkpt lat="44.624252" lon="33.74231"><ele>177.7</ele><time>2011-10-11T09:00:53.0000000+00:00</time></trkpt><trkpt lat="44.624313" lon="33.742966"><ele>177.7</ele><time>2011-10-11T09:00:58.0000000+00:00</time></trkpt><trkpt lat="44.624355" lon="33.743538"><ele>177.9</ele><time>2011-10-11T09:01:03.0000000+00:00</time></trkpt><trkpt lat="44.624485" lon="33.744057"><ele>177.7</ele><time>2011-10-11T09:01:08.0000000+00:00</time></trkpt><trkpt lat="44.624641" lon="33.744259"><ele>177.6</ele><time>2011-10-11T09:01:13.0000000+00:00</time></trkpt><trkpt lat="44.624702" lon="33.744511"><ele>176.9</ele><time>2011-10-11T09:01:18.0000000+00:00</time></trkpt><trkpt lat="44.624748" lon="33.744785"><ele>176.5</ele><time>2011-10-11T09:01:23.0000000+00:00</time></trkpt><trkpt lat="44.624756" lon="33.745068"><ele>176.5</ele><time>2011-10-11T09:01:28.0000000+00:00</time></trkpt><trkpt lat="44.624702" lon="33.745388"><ele>176.6</ele><time>2011-10-11T09:01:33.0000000+00:00</time></trkpt><trkpt lat="44.624733" lon="33.745686"><ele>176.7</ele><time>2011-10-11T09:01:38.0000000+00:00</time></trkpt><trkpt lat="44.624828" lon="33.745865"><ele>176.6</ele><time>2011-10-11T09:01:43.0000000+00:00</time></trkpt><trkpt lat="44.624886" lon="33.745949"><ele>176.5</ele><time>2011-10-11T09:01:48.0000000+00:00</time></trkpt><trkpt lat="44.625015" lon="33.746117"><ele>176.2</ele><time>2011-10-11T09:01:53.0000000+00:00</time></trkpt><trkpt lat="44.62521" lon="33.746387"><ele>176.5</ele><time>2011-10-11T09:01:58.0000000+00:00</time></trkpt><trkpt lat="44.62534" lon="33.746639"><ele>176.5</ele><time>2011-10-11T09:02:03.0000000+00:00</time></trkpt><trkpt lat="44.625427" lon="33.746803"><ele>176.7</ele><time>2011-10-11T09:02:08.0000000+00:00</time></trkpt><trkpt lat="44.625523" lon="33.746998"><ele>176.7</ele><time>2011-10-11T09:02:13.0000000+00:00</time></trkpt><trkpt lat="44.625607" lon="33.747177"><ele>176.8</ele><time>2011-10-11T09:02:18.0000000+00:00</time></trkpt><trkpt lat="44.62569" lon="33.747391"><ele>177.1</ele><time>2011-10-11T09:02:23.0000000+00:00</time></trkpt><trkpt lat="44.625805" lon="33.747581"><ele>177.3</ele><time>2011-10-11T09:02:28.0000000+00:00</time></trkpt><trkpt lat="44.625896" lon="33.747753"><ele>177.2</ele><time>2011-10-11T09:02:33.0000000+00:00</time></trkpt><trkpt lat="44.625984" lon="33.747856"><ele>176.9</ele><time>2011-10-11T09:02:38.0000000+00:00</time></trkpt><trkpt lat="44.626057" lon="33.747978"><ele>176.5</ele><time>2011-10-11T09:02:43.0000000+00:00</time></trkpt><trkpt lat="44.626102" lon="33.748074"><ele>176.4</ele><time>2011-10-11T09:02:48.0000000+00:00</time></trkpt><trkpt lat="44.626167" lon="33.748173"><ele>176.6</ele><time>2011-10-11T09:02:53.0000000+00:00</time></trkpt><trkpt lat="44.626221" lon="33.748295"><ele>176.6</ele><time>2011-10-11T09:02:58.0000000+00:00</time></trkpt><trkpt lat="44.62627" lon="33.748466"><ele>176.4</ele><time>2011-10-11T09:03:03.0000000+00:00</time></trkpt><trkpt lat="44.626358" lon="33.748619"><ele>176.6</ele><time>2011-10-11T09:03:08.0000000+00:00</time></trkpt><trkpt lat="44.626419" lon="33.748791"><ele>177.0</ele><time>2011-10-11T09:03:13.0000000+00:00</time></trkpt><trkpt lat="44.626465" lon="33.748936"><ele>177.3</ele><time>2011-10-11T09:03:18.0000000+00:00</time></trkpt><trkpt lat="44.626549" lon="33.749111"><ele>177.8</ele><time>2011-10-11T09:03:23.0000000+00:00</time></trkpt><trkpt lat="44.626606" lon="33.749317"><ele>178.7</ele><time>2011-10-11T09:03:28.0000000+00:00</time></trkpt><trkpt lat="44.626732" lon="33.749557"><ele>179.4</ele><time>2011-10-11T09:03:33.0000000+00:00</time></trkpt><trkpt lat="44.626919" lon="33.749866"><ele>180.1</ele><time>2011-10-11T09:03:38.0000000+00:00</time></trkpt><trkpt lat="44.627098" lon="33.750225"><ele>180.4</ele><time>2011-10-11T09:03:43.0000000+00:00</time></trkpt><trkpt lat="44.627266" lon="33.750595"><ele>180.8</ele><time>2011-10-11T09:03:48.0000000+00:00</time></trkpt><trkpt lat="44.627445" lon="33.750973"><ele>182.5</ele><time>2011-10-11T09:03:53.0000000+00:00</time></trkpt><trkpt lat="44.627594" lon="33.75127"><ele>183.4</ele><time>2011-10-11T09:03:58.0000000+00:00</time></trkpt><trkpt lat="44.627754" lon="33.751495"><ele>183.6</ele><time>2011-10-11T09:04:03.0000000+00:00</time></trkpt><trkpt lat="44.627888" lon="33.751808"><ele>183.7</ele><time>2011-10-11T09:04:08.0000000+00:00</time></trkpt><trkpt lat="44.628075" lon="33.752239"><ele>183.5</ele><time>2011-10-11T09:04:13.0000000+00:00</time></trkpt><trkpt lat="44.628273" lon="33.75259"><ele>183.0</ele><time>2011-10-11T09:04:18.0000000+00:00</time></trkpt><trkpt lat="44.628483" lon="33.752918"><ele>183.1</ele><time>2011-10-11T09:04:23.0000000+00:00</time></trkpt><trkpt lat="44.628723" lon="33.753265"><ele>182.8</ele><time>2011-10-11T09:04:28.0000000+00:00</time></trkpt><trkpt lat="44.628929" lon="33.753571"><ele>183.0</ele><time>2011-10-11T09:04:33.0000000+00:00</time></trkpt><trkpt lat="44.62912" lon="33.753807"><ele>184.4</ele><time>2011-10-11T09:04:38.0000000+00:00</time></trkpt><trkpt lat="44.629314" lon="33.754097"><ele>183.2</ele><time>2011-10-11T09:04:43.0000000+00:00</time></trkpt><trkpt lat="44.629559" lon="33.754486"><ele>185.7</ele><time>2011-10-11T09:04:48.0000000+00:00</time></trkpt><trkpt lat="44.629826" lon="33.754845"><ele>186.8</ele><time>2011-10-11T09:04:53.0000000+00:00</time></trkpt><trkpt lat="44.630085" lon="33.755165"><ele>185.7</ele><time>2011-10-11T09:04:58.0000000+00:00</time></trkpt><trkpt lat="44.630337" lon="33.755527"><ele>184.5</ele><time>2011-10-11T09:05:03.0000000+00:00</time></trkpt><trkpt lat="44.630512" lon="33.75589"><ele>184.2</ele><time>2011-10-11T09:05:08.0000000+00:00</time></trkpt><trkpt lat="44.6306" lon="33.756199"><ele>182.4</ele><time>2011-10-11T09:05:13.0000000+00:00</time></trkpt><trkpt lat="44.630672" lon="33.756485"><ele>180.6</ele><time>2011-10-11T09:05:18.0000000+00:00</time></trkpt><trkpt lat="44.630764" lon="33.756733"><ele>178.3</ele><time>2011-10-11T09:05:23.0000000+00:00</time></trkpt><trkpt lat="44.63089" lon="33.75703"><ele>177.7</ele><time>2011-10-11T09:05:28.0000000+00:00</time></trkpt><trkpt lat="44.631039" lon="33.757366"><ele>178.2</ele><time>2011-10-11T09:05:33.0000000+00:00</time></trkpt><trkpt lat="44.631142" lon="33.757771"><ele>179.0</ele><time>2011-10-11T09:05:38.0000000+00:00</time></trkpt><trkpt lat="44.631302" lon="33.758087"><ele>180.2</ele><time>2011-10-11T09:05:43.0000000+00:00</time></trkpt><trkpt lat="44.631531" lon="33.758358"><ele>180.3</ele><time>2011-10-11T09:05:48.0000000+00:00</time></trkpt><trkpt lat="44.631729" lon="33.758774"><ele>176.4</ele><time>2011-10-11T09:05:53.0000000+00:00</time></trkpt><trkpt lat="44.63192" lon="33.759148"><ele>173.6</ele><time>2011-10-11T09:05:58.0000000+00:00</time></trkpt><trkpt lat="44.63208" lon="33.75943"><ele>172.2</ele><time>2011-10-11T09:06:03.0000000+00:00</time></trkpt><trkpt lat="44.632328" lon="33.759743"><ele>171.8</ele><time>2011-10-11T09:06:08.0000000+00:00</time></trkpt><trkpt lat="44.632591" lon="33.760136"><ele>170.8</ele><time>2011-10-11T09:06:13.0000000+00:00</time></trkpt><trkpt lat="44.632866" lon="33.760578"><ele>170.3</ele><time>2011-10-11T09:06:18.0000000+00:00</time></trkpt><trkpt lat="44.633137" lon="33.761013"><ele>168.3</ele><time>2011-10-11T09:06:23.0000000+00:00</time></trkpt><trkpt lat="44.633385" lon="33.76144"><ele>165.5</ele><time>2011-10-11T09:06:28.0000000+00:00</time></trkpt><trkpt lat="44.633514" lon="33.761948"><ele>160.9</ele><time>2011-10-11T09:06:33.0000000+00:00</time></trkpt><trkpt lat="44.633648" lon="33.762383"><ele>157.4</ele><time>2011-10-11T09:06:38.0000000+00:00</time></trkpt><trkpt lat="44.633728" lon="33.762623"><ele>155.7</ele><time>2011-10-11T09:06:43.0000000+00:00</time></trkpt><trkpt lat="44.633793" lon="33.763004"><ele>155.6</ele><time>2011-10-11T09:06:48.0000000+00:00</time></trkpt><trkpt lat="44.63377" lon="33.763454"><ele>155.7</ele><time>2011-10-11T09:06:53.0000000+00:00</time></trkpt><trkpt lat="44.633694" lon="33.763691"><ele>153.9</ele><time>2011-10-11T09:06:58.0000000+00:00</time></trkpt><trkpt lat="44.633644" lon="33.763809"><ele>155.3</ele><time>2011-10-11T09:07:03.0000000+00:00</time></trkpt><trkpt lat="44.633614" lon="33.763908"><ele>155.8</ele><time>2011-10-11T09:07:08.0000000+00:00</time></trkpt><trkpt lat="44.633579" lon="33.763985"><ele>157.8</ele><time>2011-10-11T09:07:13.0000000+00:00</time></trkpt><trkpt lat="44.633507" lon="33.764103"><ele>158.4</ele><time>2011-10-11T09:07:18.0000000+00:00</time></trkpt><trkpt lat="44.633396" lon="33.764278"><ele>160.7</ele><time>2011-10-11T09:07:23.0000000+00:00</time></trkpt><trkpt lat="44.633331" lon="33.76453"><ele>161.8</ele><time>2011-10-11T09:07:28.0000000+00:00</time></trkpt><trkpt lat="44.633377" lon="33.764969"><ele>161.7</ele><time>2011-10-11T09:07:33.0000000+00:00</time></trkpt><trkpt lat="44.633484" lon="33.765434"><ele>159.4</ele><time>2011-10-11T09:07:38.0000000+00:00</time></trkpt><trkpt lat="44.633705" lon="33.765808"><ele>160.1</ele><time>2011-10-11T09:07:43.0000000+00:00</time></trkpt><trkpt lat="44.633972" lon="33.766224"><ele>158.2</ele><time>2011-10-11T09:07:48.0000000+00:00</time></trkpt><trkpt lat="44.634197" lon="33.766663"><ele>154.9</ele><time>2011-10-11T09:07:53.0000000+00:00</time></trkpt><trkpt lat="44.634254" lon="33.766922"><ele>150.7</ele><time>2011-10-11T09:07:58.0000000+00:00</time></trkpt><trkpt lat="44.634335" lon="33.767105"><ele>149.2</ele><time>2011-10-11T09:08:03.0000000+00:00</time></trkpt><trkpt lat="44.634399" lon="33.76733"><ele>150.0</ele><time>2011-10-11T09:08:08.0000000+00:00</time></trkpt><trkpt lat="44.634422" lon="33.767502"><ele>150.5</ele><time>2011-10-11T09:08:13.0000000+00:00</time></trkpt><trkpt lat="44.634438" lon="33.767677"><ele>151.3</ele><time>2011-10-11T09:08:18.0000000+00:00</time></trkpt><trkpt lat="44.63446" lon="33.767864"><ele>155.4</ele><time>2011-10-11T09:08:23.0000000+00:00</time></trkpt><trkpt lat="44.634567" lon="33.768013"><ele>156.7</ele><time>2011-10-11T09:08:28.0000000+00:00</time></trkpt><trkpt lat="44.634705" lon="33.768265"><ele>156.3</ele><time>2011-10-11T09:08:33.0000000+00:00</time></trkpt><trkpt lat="44.6348" lon="33.768501"><ele>157.9</ele><time>2011-10-11T09:08:38.0000000+00:00</time></trkpt><trkpt lat="44.634972" lon="33.76873"><ele>159.0</ele><time>2011-10-11T09:08:43.0000000+00:00</time></trkpt><trkpt lat="44.635075" lon="33.769184"><ele>159.7</ele><time>2011-10-11T09:08:48.0000000+00:00</time></trkpt><trkpt lat="44.63517" lon="33.769779"><ele>160.0</ele><time>2011-10-11T09:08:53.0000000+00:00</time></trkpt><trkpt lat="44.635208" lon="33.770382"><ele>161.1</ele><time>2011-10-11T09:08:58.0000000+00:00</time></trkpt><trkpt lat="44.635159" lon="33.77092"><ele>161.6</ele><time>2011-10-11T09:09:03.0000000+00:00</time></trkpt><trkpt lat="44.635128" lon="33.77145"><ele>163.2</ele><time>2011-10-11T09:09:08.0000000+00:00</time></trkpt><trkpt lat="44.635178" lon="33.771759"><ele>162.6</ele><time>2011-10-11T09:09:13.0000000+00:00</time></trkpt><trkpt lat="44.635139" lon="33.771862"><ele>161.7</ele><time>2011-10-11T09:09:18.0000000+00:00</time></trkpt><trkpt lat="44.635139" lon="33.772079"><ele>163.5</ele><time>2011-10-11T09:09:23.0000000+00:00</time></trkpt><trkpt lat="44.63517" lon="33.772308"><ele>163.7</ele><time>2011-10-11T09:09:28.0000000+00:00</time></trkpt><trkpt lat="44.635178" lon="33.772678"><ele>160.6</ele><time>2011-10-11T09:09:33.0000000+00:00</time></trkpt><trkpt lat="44.63517" lon="33.773102"><ele>156.2</ele><time>2011-10-11T09:09:38.0000000+00:00</time></trkpt><trkpt lat="44.635113" lon="33.77335"><ele>152.3</ele><time>2011-10-11T09:09:43.0000000+00:00</time></trkpt><trkpt lat="44.635193" lon="33.773624"><ele>149.5</ele><time>2011-10-11T09:09:48.0000000+00:00</time></trkpt><trkpt lat="44.635284" lon="33.774181"><ele>146.3</ele><time>2011-10-11T09:09:53.0000000+00:00</time></trkpt><trkpt lat="44.635456" lon="33.774818"><ele>143.2</ele><time>2011-10-11T09:09:58.0000000+00:00</time></trkpt><trkpt lat="44.635715" lon="33.775436"><ele>144.6</ele><time>2011-10-11T09:10:03.0000000+00:00</time></trkpt><trkpt lat="44.636078" lon="33.775997"><ele>145.6</ele><time>2011-10-11T09:10:08.0000000+00:00</time></trkpt><trkpt lat="44.636456" lon="33.776508"><ele>145.0</ele><time>2011-10-11T09:10:13.0000000+00:00</time></trkpt><trkpt lat="44.636898" lon="33.776917"><ele>144.2</ele><time>2011-10-11T09:10:18.0000000+00:00</time></trkpt><trkpt lat="44.637329" lon="33.777386"><ele>143.2</ele><time>2011-10-11T09:10:23.0000000+00:00</time></trkpt><trkpt lat="44.637676" lon="33.777859"><ele>143.2</ele><time>2011-10-11T09:10:28.0000000+00:00</time></trkpt><trkpt lat="44.638054" lon="33.778328"><ele>142.1</ele><time>2011-10-11T09:10:33.0000000+00:00</time></trkpt><trkpt lat="44.638412" lon="33.77877"><ele>142.8</ele><time>2011-10-11T09:10:38.0000000+00:00</time></trkpt><trkpt lat="44.638851" lon="33.779186"><ele>145.7</ele><time>2011-10-11T09:10:43.0000000+00:00</time></trkpt><trkpt lat="44.639343" lon="33.779518"><ele>144.8</ele><time>2011-10-11T09:10:48.0000000+00:00</time></trkpt><trkpt lat="44.639927" lon="33.779804"><ele>142.1</ele><time>2011-10-11T09:10:53.0000000+00:00</time></trkpt><trkpt lat="44.640423" lon="33.780231"><ele>142.0</ele><time>2011-10-11T09:10:58.0000000+00:00</time></trkpt><trkpt lat="44.640984" lon="33.780376"><ele>139.7</ele><time>2011-10-11T09:11:03.0000000+00:00</time></trkpt><trkpt lat="44.641541" lon="33.780354"><ele>136.9</ele><time>2011-10-11T09:11:08.0000000+00:00</time></trkpt><trkpt lat="44.642136" lon="33.780479"><ele>132.8</ele><time>2011-10-11T09:11:13.0000000+00:00</time></trkpt><trkpt lat="44.642799" lon="33.780598"><ele>130.2</ele><time>2011-10-11T09:11:18.0000000+00:00</time></trkpt><trkpt lat="44.64349" lon="33.780785"><ele>123.3</ele><time>2011-10-11T09:11:23.0000000+00:00</time></trkpt><trkpt lat="44.644161" lon="33.781006"><ele>118.0</ele><time>2011-10-11T09:11:28.0000000+00:00</time></trkpt><trkpt lat="44.644794" lon="33.781384"><ele>115.4</ele><time>2011-10-11T09:11:33.0000000+00:00</time></trkpt><trkpt lat="44.645355" lon="33.78159"><ele>114.0</ele><time>2011-10-11T09:11:38.0000000+00:00</time></trkpt><trkpt lat="44.645908" lon="33.781635"><ele>109.0</ele><time>2011-10-11T09:11:43.0000000+00:00</time></trkpt><trkpt lat="44.646454" lon="33.78159"><ele>106.3</ele><time>2011-10-11T09:11:48.0000000+00:00</time></trkpt><trkpt lat="44.646935" lon="33.781502"><ele>104.3</ele><time>2011-10-11T09:11:53.0000000+00:00</time></trkpt><trkpt lat="44.64724" lon="33.781471"><ele>103.6</ele><time>2011-10-11T09:11:58.0000000+00:00</time></trkpt><trkpt lat="44.647388" lon="33.781467"><ele>102.8</ele><time>2011-10-11T09:12:03.0000000+00:00</time></trkpt><trkpt lat="44.647667" lon="33.781467"><ele>100.5</ele><time>2011-10-11T09:12:08.0000000+00:00</time></trkpt><trkpt lat="44.647991" lon="33.781376"><ele>97.6</ele><time>2011-10-11T09:12:13.0000000+00:00</time></trkpt><trkpt lat="44.648277" lon="33.781258"><ele>100.0</ele><time>2011-10-11T09:12:18.0000000+00:00</time></trkpt><trkpt lat="44.648411" lon="33.781307"><ele>107.9</ele><time>2011-10-11T09:12:23.0000000+00:00</time></trkpt><trkpt lat="44.648499" lon="33.781502"><ele>111.0</ele><time>2011-10-11T09:12:28.0000000+00:00</time></trkpt><trkpt lat="44.648506" lon="33.781944"><ele>114.0</ele><time>2011-10-11T09:12:33.0000000+00:00</time></trkpt><trkpt lat="44.648579" lon="33.78244"><ele>119.3</ele><time>2011-10-11T09:12:38.0000000+00:00</time></trkpt><trkpt lat="44.648632" lon="33.782928"><ele>120.3</ele><time>2011-10-11T09:12:43.0000000+00:00</time></trkpt><trkpt lat="44.64856" lon="33.783367"><ele>117.8</ele><time>2011-10-11T09:12:48.0000000+00:00</time></trkpt><trkpt lat="44.648598" lon="33.783691"><ele>118.2</ele><time>2011-10-11T09:12:53.0000000+00:00</time></trkpt><trkpt lat="44.648582" lon="33.784031"><ele>122.4</ele><time>2011-10-11T09:12:58.0000000+00:00</time></trkpt><trkpt lat="44.648598" lon="33.784359"><ele>127.3</ele><time>2011-10-11T09:13:03.0000000+00:00</time></trkpt><trkpt lat="44.648678" lon="33.784496"><ele>128.2</ele><time>2011-10-11T09:13:08.0000000+00:00</time></trkpt><trkpt lat="44.64888" lon="33.784569"><ele>127.3</ele><time>2011-10-11T09:13:13.0000000+00:00</time></trkpt><trkpt lat="44.649158" lon="33.784454"><ele>127.5</ele><time>2011-10-11T09:13:18.0000000+00:00</time></trkpt><trkpt lat="44.649532" lon="33.784382"><ele>130.5</ele><time>2011-10-11T09:13:23.0000000+00:00</time></trkpt><trkpt lat="44.649921" lon="33.78426"><ele>130.7</ele><time>2011-10-11T09:13:28.0000000+00:00</time></trkpt><trkpt lat="44.650368" lon="33.784065"><ele>134.2</ele><time>2011-10-11T09:13:33.0000000+00:00</time></trkpt><trkpt lat="44.650909" lon="33.783802"><ele>134.4</ele><time>2011-10-11T09:13:38.0000000+00:00</time></trkpt><trkpt lat="44.651421" lon="33.783539"><ele>132.5</ele><time>2011-10-11T09:13:43.0000000+00:00</time></trkpt><trkpt lat="44.65202" lon="33.783272"><ele>132.1</ele><time>2011-10-11T09:13:48.0000000+00:00</time></trkpt><trkpt lat="44.652676" lon="33.783035"><ele>132.3</ele><time>2011-10-11T09:13:53.0000000+00:00</time></trkpt><trkpt lat="44.653297" lon="33.782803"><ele>132.0</ele><time>2011-10-11T09:13:58.0000000+00:00</time></trkpt><trkpt lat="44.653896" lon="33.782516"><ele>133.5</ele><time>2011-10-11T09:14:03.0000000+00:00</time></trkpt><trkpt lat="44.654579" lon="33.782238"><ele>136.1</ele><time>2011-10-11T09:14:08.0000000+00:00</time></trkpt><trkpt lat="44.655243" lon="33.781982"><ele>137.6</ele><time>2011-10-11T09:14:13.0000000+00:00</time></trkpt><trkpt lat="44.655922" lon="33.781731"><ele>138.2</ele><time>2011-10-11T09:14:18.0000000+00:00</time></trkpt><trkpt lat="44.656574" lon="33.781433"><ele>137.6</ele><time>2011-10-11T09:14:23.0000000+00:00</time></trkpt><trkpt lat="44.657131" lon="33.78109"><ele>134.3</ele><time>2011-10-11T09:14:28.0000000+00:00</time></trkpt><trkpt lat="44.657665" lon="33.780769"><ele>131.5</ele><time>2011-10-11T09:14:33.0000000+00:00</time></trkpt><trkpt lat="44.658157" lon="33.780479"><ele>130.3</ele><time>2011-10-11T09:14:38.0000000+00:00</time></trkpt><trkpt lat="44.658676" lon="33.780224"><ele>129.3</ele><time>2011-10-11T09:14:43.0000000+00:00</time></trkpt><trkpt lat="44.659252" lon="33.780167"><ele>127.8</ele><time>2011-10-11T09:14:48.0000000+00:00</time></trkpt><trkpt lat="44.659847" lon="33.780293"><ele>118.1</ele><time>2011-10-11T09:14:53.0000000+00:00</time></trkpt><trkpt lat="44.660492" lon="33.780495"><ele>109.9</ele><time>2011-10-11T09:14:58.0000000+00:00</time></trkpt><trkpt lat="44.661182" lon="33.780663"><ele>105.5</ele><time>2011-10-11T09:15:03.0000000+00:00</time></trkpt><trkpt lat="44.6618" lon="33.780933"><ele>101.6</ele><time>2011-10-11T09:15:08.0000000+00:00</time></trkpt><trkpt lat="44.662292" lon="33.78159"><ele>95.9</ele><time>2011-10-11T09:15:13.0000000+00:00</time></trkpt><trkpt lat="44.662571" lon="33.782387"><ele>94.6</ele><time>2011-10-11T09:15:18.0000000+00:00</time></trkpt><trkpt lat="44.662704" lon="33.783085"><ele>97.6</ele><time>2011-10-11T09:15:23.0000000+00:00</time></trkpt><trkpt lat="44.66264" lon="33.783749"><ele>98.3</ele><time>2011-10-11T09:15:28.0000000+00:00</time></trkpt><trkpt lat="44.662579" lon="33.784443"><ele>98.6</ele><time>2011-10-11T09:15:33.0000000+00:00</time></trkpt><trkpt lat="44.662479" lon="33.785198"><ele>98.5</ele><time>2011-10-11T09:15:38.0000000+00:00</time></trkpt><trkpt lat="44.662342" lon="33.786037"><ele>99.8</ele><time>2011-10-11T09:15:43.0000000+00:00</time></trkpt><trkpt lat="44.662312" lon="33.786915"><ele>99.8</ele><time>2011-10-11T09:15:48.0000000+00:00</time></trkpt><trkpt lat="44.662331" lon="33.787834"><ele>99.5</ele><time>2011-10-11T09:15:53.0000000+00:00</time></trkpt><trkpt lat="44.662209" lon="33.788784"><ele>99.0</ele><time>2011-10-11T09:15:58.0000000+00:00</time></trkpt><trkpt lat="44.662037" lon="33.789742"><ele>99.0</ele><time>2011-10-11T09:16:03.0000000+00:00</time></trkpt><trkpt lat="44.661907" lon="33.790771"><ele>99.4</ele><time>2011-10-11T09:16:08.0000000+00:00</time></trkpt><trkpt lat="44.661755" lon="33.791805"><ele>99.4</ele><time>2011-10-11T09:16:13.0000000+00:00</time></trkpt><trkpt lat="44.661564" lon="33.792648"><ele>101.4</ele><time>2011-10-11T09:16:18.0000000+00:00</time></trkpt><trkpt lat="44.661404" lon="33.793438"><ele>103.9</ele><time>2011-10-11T09:16:23.0000000+00:00</time></trkpt><trkpt lat="44.661274" lon="33.794212"><ele>104.7</ele><time>2011-10-11T09:16:28.0000000+00:00</time></trkpt><trkpt lat="44.66119" lon="33.794941"><ele>105.1</ele><time>2011-10-11T09:16:33.0000000+00:00</time></trkpt><trkpt lat="44.661221" lon="33.795654"><ele>106.6</ele><time>2011-10-11T09:16:38.0000000+00:00</time></trkpt><trkpt lat="44.661209" lon="33.796368"><ele>108.3</ele><time>2011-10-11T09:16:43.0000000+00:00</time></trkpt><trkpt lat="44.660954" lon="33.797054"><ele>110.1</ele><time>2011-10-11T09:16:48.0000000+00:00</time></trkpt><trkpt lat="44.660591" lon="33.797741"><ele>112.1</ele><time>2011-10-11T09:16:53.0000000+00:00</time></trkpt><trkpt lat="44.660339" lon="33.798527"><ele>115.6</ele><time>2011-10-11T09:16:58.0000000+00:00</time></trkpt><trkpt lat="44.660027" lon="33.799393"><ele>114.2</ele><time>2011-10-11T09:17:03.0000000+00:00</time></trkpt><trkpt lat="44.659576" lon="33.800171"><ele>112.5</ele><time>2011-10-11T09:17:08.0000000+00:00</time></trkpt><trkpt lat="44.659161" lon="33.800915"><ele>110.4</ele><time>2011-10-11T09:17:13.0000000+00:00</time></trkpt><trkpt lat="44.658779" lon="33.801594"><ele>107.2</ele><time>2011-10-11T09:17:18.0000000+00:00</time></trkpt><trkpt lat="44.658253" lon="33.802086"><ele>102.9</ele><time>2011-10-11T09:17:23.0000000+00:00</time></trkpt><trkpt lat="44.657673" lon="33.802402"><ele>100.9</ele><time>2011-10-11T09:17:28.0000000+00:00</time></trkpt><trkpt lat="44.657166" lon="33.802818"><ele>101.0</ele><time>2011-10-11T09:17:33.0000000+00:00</time></trkpt><trkpt lat="44.656849" lon="33.803558"><ele>102.0</ele><time>2011-10-11T09:17:38.0000000+00:00</time></trkpt><trkpt lat="44.656559" lon="33.80434"><ele>103.0</ele><time>2011-10-11T09:17:43.0000000+00:00</time></trkpt><trkpt lat="44.656269" lon="33.805161"><ele>102.7</ele><time>2011-10-11T09:17:48.0000000+00:00</time></trkpt><trkpt lat="44.65588" lon="33.805897"><ele>102.8</ele><time>2011-10-11T09:17:53.0000000+00:00</time></trkpt><trkpt lat="44.655411" lon="33.80658"><ele>103.3</ele><time>2011-10-11T09:17:58.0000000+00:00</time></trkpt><trkpt lat="44.654961" lon="33.807312"><ele>104.4</ele><time>2011-10-11T09:18:03.0000000+00:00</time></trkpt><trkpt lat="44.654533" lon="33.807995"><ele>105.5</ele><time>2011-10-11T09:18:08.0000000+00:00</time></trkpt><trkpt lat="44.65414" lon="33.808743"><ele>106.6</ele><time>2011-10-11T09:18:13.0000000+00:00</time></trkpt><trkpt lat="44.653782" lon="33.809471"><ele>107.5</ele><time>2011-10-11T09:18:18.0000000+00:00</time></trkpt><trkpt lat="44.653446" lon="33.810253"><ele>110.2</ele><time>2011-10-11T09:18:23.0000000+00:00</time></trkpt><trkpt lat="44.653111" lon="33.811138"><ele>113.0</ele><time>2011-10-11T09:18:28.0000000+00:00</time></trkpt><trkpt lat="44.652733" lon="33.81208"><ele>116.2</ele><time>2011-10-11T09:18:33.0000000+00:00</time></trkpt><trkpt lat="44.652332" lon="33.812992"><ele>120.1</ele><time>2011-10-11T09:18:38.0000000+00:00</time></trkpt><trkpt lat="44.651878" lon="33.813671"><ele>124.0</ele><time>2011-10-11T09:18:43.0000000+00:00</time></trkpt><trkpt lat="44.651386" lon="33.814171"><ele>126.4</ele><time>2011-10-11T09:18:48.0000000+00:00</time></trkpt><trkpt lat="44.65089" lon="33.814701"><ele>128.4</ele><time>2011-10-11T09:18:53.0000000+00:00</time></trkpt><trkpt lat="44.650391" lon="33.815269"><ele>130.2</ele><time>2011-10-11T09:18:58.0000000+00:00</time></trkpt><trkpt lat="44.649853" lon="33.815865"><ele>131.3</ele><time>2011-10-11T09:19:03.0000000+00:00</time></trkpt><trkpt lat="44.649273" lon="33.816406"><ele>128.7</ele><time>2011-10-11T09:19:08.0000000+00:00</time></trkpt><trkpt lat="44.648773" lon="33.816956"><ele>128.1</ele><time>2011-10-11T09:19:13.0000000+00:00</time></trkpt><trkpt lat="44.648335" lon="33.817589"><ele>128.3</ele><time>2011-10-11T09:19:18.0000000+00:00</time></trkpt><trkpt lat="44.647953" lon="33.81815"><ele>129.1</ele><time>2011-10-11T09:19:23.0000000+00:00</time></trkpt><trkpt lat="44.647778" lon="33.818748"><ele>129.2</ele><time>2011-10-11T09:19:28.0000000+00:00</time></trkpt><trkpt lat="44.647671" lon="33.819485"><ele>128.8</ele><time>2011-10-11T09:19:33.0000000+00:00</time></trkpt><trkpt lat="44.647491" lon="33.820347"><ele>128.2</ele><time>2011-10-11T09:19:38.0000000+00:00</time></trkpt><trkpt lat="44.647129" lon="33.821152"><ele>128.0</ele><time>2011-10-11T09:19:43.0000000+00:00</time></trkpt><trkpt lat="44.646667" lon="33.821747"><ele>128.4</ele><time>2011-10-11T09:19:48.0000000+00:00</time></trkpt><trkpt lat="44.646107" lon="33.822323"><ele>128.3</ele><time>2011-10-11T09:19:53.0000000+00:00</time></trkpt><trkpt lat="44.64571" lon="33.822968"><ele>129.3</ele><time>2011-10-11T09:19:58.0000000+00:00</time></trkpt><trkpt lat="44.645229" lon="33.823582"><ele>130.1</ele><time>2011-10-11T09:20:03.0000000+00:00</time></trkpt><trkpt lat="44.644745" lon="33.824112"><ele>130.1</ele><time>2011-10-11T09:20:08.0000000+00:00</time></trkpt><trkpt lat="44.644299" lon="33.82494"><ele>128.8</ele><time>2011-10-11T09:20:13.0000000+00:00</time></trkpt><trkpt lat="44.643944" lon="33.825802"><ele>128.1</ele><time>2011-10-11T09:20:18.0000000+00:00</time></trkpt><trkpt lat="44.64373" lon="33.826828"><ele>125.4</ele><time>2011-10-11T09:20:23.0000000+00:00</time></trkpt><trkpt lat="44.643543" lon="33.827751"><ele>123.9</ele><time>2011-10-11T09:20:28.0000000+00:00</time></trkpt><trkpt lat="44.643181" lon="33.828556"><ele>122.7</ele><time>2011-10-11T09:20:33.0000000+00:00</time></trkpt><trkpt lat="44.642773" lon="33.829369"><ele>120.9</ele><time>2011-10-11T09:20:38.0000000+00:00</time></trkpt><trkpt lat="44.642342" lon="33.830143"><ele>121.8</ele><time>2011-10-11T09:20:43.0000000+00:00</time></trkpt><trkpt lat="44.642021" lon="33.831005"><ele>122.3</ele><time>2011-10-11T09:20:48.0000000+00:00</time></trkpt><trkpt lat="44.641945" lon="33.831959"><ele>122.4</ele><time>2011-10-11T09:20:53.0000000+00:00</time></trkpt><trkpt lat="44.641712" lon="33.832794"><ele>122.6</ele><time>2011-10-11T09:20:58.0000000+00:00</time></trkpt><trkpt lat="44.641415" lon="33.833588"><ele>121.3</ele><time>2011-10-11T09:21:03.0000000+00:00</time></trkpt><trkpt lat="44.641109" lon="33.834396"><ele>119.4</ele><time>2011-10-11T09:21:08.0000000+00:00</time></trkpt><trkpt lat="44.64098" lon="33.83532"><ele>117.2</ele><time>2011-10-11T09:21:13.0000000+00:00</time></trkpt><trkpt lat="44.640839" lon="33.836273"><ele>115.8</ele><time>2011-10-11T09:21:18.0000000+00:00</time></trkpt><trkpt lat="44.640724" lon="33.837154"><ele>114.8</ele><time>2011-10-11T09:21:23.0000000+00:00</time></trkpt><trkpt lat="44.640553" lon="33.837971"><ele>114.1</ele><time>2011-10-11T09:21:28.0000000+00:00</time></trkpt><trkpt lat="44.640259" lon="33.838753"><ele>113.9</ele><time>2011-10-11T09:21:33.0000000+00:00</time></trkpt><trkpt lat="44.639927" lon="33.839523"><ele>114.1</ele><time>2011-10-11T09:21:38.0000000+00:00</time></trkpt><trkpt lat="44.639618" lon="33.840336"><ele>114.6</ele><time>2011-10-11T09:21:43.0000000+00:00</time></trkpt><trkpt lat="44.63945" lon="33.841183"><ele>115.3</ele><time>2011-10-11T09:21:48.0000000+00:00</time></trkpt><trkpt lat="44.639484" lon="33.841995"><ele>116.4</ele><time>2011-10-11T09:21:53.0000000+00:00</time></trkpt><trkpt lat="44.639648" lon="33.842838"><ele>117.4</ele><time>2011-10-11T09:21:58.0000000+00:00</time></trkpt><trkpt lat="44.639969" lon="33.843719"><ele>117.2</ele><time>2011-10-11T09:22:03.0000000+00:00</time></trkpt><trkpt lat="44.640228" lon="33.844482"><ele>119.5</ele><time>2011-10-11T09:22:08.0000000+00:00</time></trkpt><trkpt lat="44.640202" lon="33.845242"><ele>119.7</ele><time>2011-10-11T09:22:13.0000000+00:00</time></trkpt><trkpt lat="44.640121" lon="33.845951"><ele>119.7</ele><time>2011-10-11T09:22:18.0000000+00:00</time></trkpt><trkpt lat="44.640106" lon="33.846748"><ele>121.3</ele><time>2011-10-11T09:22:23.0000000+00:00</time></trkpt><trkpt lat="44.639912" lon="33.84753"><ele>121.7</ele><time>2011-10-11T09:22:28.0000000+00:00</time></trkpt><trkpt lat="44.639565" lon="33.848038"><ele>123.7</ele><time>2011-10-11T09:22:33.0000000+00:00</time></trkpt><trkpt lat="44.63913" lon="33.848434"><ele>125.7</ele><time>2011-10-11T09:22:38.0000000+00:00</time></trkpt><trkpt lat="44.638763" lon="33.849068"><ele>128.2</ele><time>2011-10-11T09:22:43.0000000+00:00</time></trkpt><trkpt lat="44.638317" lon="33.849819"><ele>130.8</ele><time>2011-10-11T09:22:48.0000000+00:00</time></trkpt><trkpt lat="44.638027" lon="33.850632"><ele>131.2</ele><time>2011-10-11T09:22:53.0000000+00:00</time></trkpt><trkpt lat="44.637779" lon="33.851364"><ele>131.7</ele><time>2011-10-11T09:22:58.0000000+00:00</time></trkpt><trkpt lat="44.637478" lon="33.852051"><ele>134.8</ele><time>2011-10-11T09:23:03.0000000+00:00</time></trkpt><trkpt lat="44.637115" lon="33.852818"><ele>137.0</ele><time>2011-10-11T09:23:08.0000000+00:00</time></trkpt><trkpt lat="44.636696" lon="33.8536"><ele>139.1</ele><time>2011-10-11T09:23:13.0000000+00:00</time></trkpt><trkpt lat="44.63623" lon="33.854408"><ele>138.7</ele><time>2011-10-11T09:23:18.0000000+00:00</time></trkpt><trkpt lat="44.635731" lon="33.855053"><ele>138.6</ele><time>2011-10-11T09:23:23.0000000+00:00</time></trkpt><trkpt lat="44.635422" lon="33.85585"><ele>140.0</ele><time>2011-10-11T09:23:28.0000000+00:00</time></trkpt><trkpt lat="44.635143" lon="33.856758"><ele>139.8</ele><time>2011-10-11T09:23:33.0000000+00:00</time></trkpt><trkpt lat="44.634773" lon="33.857552"><ele>140.3</ele><time>2011-10-11T09:23:38.0000000+00:00</time></trkpt><trkpt lat="44.634331" lon="33.858337"><ele>142.0</ele><time>2011-10-11T09:23:43.0000000+00:00</time></trkpt><trkpt lat="44.633881" lon="33.859055"><ele>144.0</ele><time>2011-10-11T09:23:48.0000000+00:00</time></trkpt><trkpt lat="44.633492" lon="33.85981"><ele>143.1</ele><time>2011-10-11T09:23:53.0000000+00:00</time></trkpt><trkpt lat="44.633175" lon="33.860542"><ele>142.5</ele><time>2011-10-11T09:23:58.0000000+00:00</time></trkpt><trkpt lat="44.632912" lon="33.861095"><ele>145.0</ele><time>2011-10-11T09:24:03.0000000+00:00</time></trkpt><trkpt lat="44.632885" lon="33.861191"><ele>143.7</ele><time>2011-10-11T09:24:08.0000000+00:00</time></trkpt><trkpt lat="44.632874" lon="33.861233"><ele>144.8</ele><time>2011-10-11T09:24:13.0000000+00:00</time></trkpt><trkpt lat="44.632854" lon="33.861248"><ele>146.2</ele><time>2011-10-11T09:24:18.0000000+00:00</time></trkpt><trkpt lat="44.632862" lon="33.86124"><ele>146.9</ele><time>2011-10-11T09:24:23.0000000+00:00</time></trkpt><trkpt lat="44.632851" lon="33.861217"><ele>147.2</ele><time>2011-10-11T09:24:28.0000000+00:00</time></trkpt><trkpt lat="44.632847" lon="33.86121"><ele>147.2</ele><time>2011-10-11T09:24:33.0000000+00:00</time></trkpt><trkpt lat="44.632843" lon="33.861206"><ele>147.1</ele><time>2011-10-11T09:24:38.0000000+00:00</time></trkpt><trkpt lat="44.632854" lon="33.86121"><ele>147.1</ele><time>2011-10-11T09:24:43.0000000+00:00</time></trkpt><trkpt lat="44.632858" lon="33.861198"><ele>147.0</ele><time>2011-10-11T09:24:48.0000000+00:00</time></trkpt><trkpt lat="44.632854" lon="33.861187"><ele>147.1</ele><time>2011-10-11T09:24:53.0000000+00:00</time></trkpt><trkpt lat="44.632854" lon="33.861187"><ele>147.0</ele><time>2011-10-11T09:24:58.0000000+00:00</time></trkpt><trkpt lat="44.632854" lon="33.861176"><ele>147.0</ele><time>2011-10-11T09:25:03.0000000+00:00</time></trkpt><trkpt lat="44.632847" lon="33.861092"><ele>146.1</ele><time>2011-10-11T09:25:08.0000000+00:00</time></trkpt><trkpt lat="44.632828" lon="33.861042"><ele>145.2</ele><time>2011-10-11T09:25:13.0000000+00:00</time></trkpt><trkpt lat="44.632813" lon="33.861027"><ele>145.8</ele><time>2011-10-11T09:25:18.0000000+00:00</time></trkpt><trkpt lat="44.632809" lon="33.861015"><ele>146.5</ele><time>2011-10-11T09:25:23.0000000+00:00</time></trkpt><trkpt lat="44.632816" lon="33.861"><ele>147.2</ele><time>2011-10-11T09:25:28.0000000+00:00</time></trkpt><trkpt lat="44.632809" lon="33.860989"><ele>147.7</ele><time>2011-10-11T09:25:33.0000000+00:00</time></trkpt><trkpt lat="44.632805" lon="33.860981"><ele>148.2</ele><time>2011-10-11T09:25:38.0000000+00:00</time></trkpt><trkpt lat="44.632805" lon="33.860973"><ele>148.8</ele><time>2011-10-11T09:25:43.0000000+00:00</time></trkpt><trkpt lat="44.632805" lon="33.86097"><ele>149.3</ele><time>2011-10-11T09:25:48.0000000+00:00</time></trkpt><trkpt lat="44.632805" lon="33.860966"><ele>149.8</ele><time>2011-10-11T09:25:53.0000000+00:00</time></trkpt><trkpt lat="44.632797" lon="33.860962"><ele>150.3</ele><time>2011-10-11T09:25:58.0000000+00:00</time></trkpt><trkpt lat="44.63279" lon="33.860958"><ele>150.9</ele><time>2011-10-11T09:26:03.0000000+00:00</time></trkpt><trkpt lat="44.632782" lon="33.860954"><ele>151.4</ele><time>2011-10-11T09:26:08.0000000+00:00</time></trkpt><trkpt lat="44.632778" lon="33.86095"><ele>151.9</ele><time>2011-10-11T09:26:13.0000000+00:00</time></trkpt><trkpt lat="44.632778" lon="33.86095"><ele>152.4</ele><time>2011-10-11T09:26:18.0000000+00:00</time></trkpt><trkpt lat="44.632786" lon="33.86095"><ele>152.9</ele><time>2011-10-11T09:26:23.0000000+00:00</time></trkpt><trkpt lat="44.63279" lon="33.86095"><ele>153.4</ele><time>2011-10-11T09:26:28.0000000+00:00</time></trkpt><trkpt lat="44.63279" lon="33.860958"><ele>153.9</ele><time>2011-10-11T09:26:33.0000000+00:00</time></trkpt><trkpt lat="44.63279" lon="33.860966"><ele>154.4</ele><time>2011-10-11T09:26:38.0000000+00:00</time></trkpt><trkpt lat="44.632786" lon="33.860973"><ele>154.9</ele><time>2011-10-11T09:26:43.0000000+00:00</time></trkpt><trkpt lat="44.632786" lon="33.860977"><ele>155.4</ele><time>2011-10-11T09:26:48.0000000+00:00</time></trkpt><trkpt lat="44.632778" lon="33.860977"><ele>155.9</ele><time>2011-10-11T09:26:53.0000000+00:00</time></trkpt><trkpt lat="44.632774" lon="33.860973"><ele>156.4</ele><time>2011-10-11T09:26:58.0000000+00:00</time></trkpt><trkpt lat="44.632774" lon="33.860977"><ele>156.9</ele><time>2011-10-11T09:27:03.0000000+00:00</time></trkpt><trkpt lat="44.632771" lon="33.860981"><ele>157.3</ele><time>2011-10-11T09:27:08.0000000+00:00</time></trkpt><trkpt lat="44.632774" lon="33.860985"><ele>157.8</ele><time>2011-10-11T09:27:13.0000000+00:00</time></trkpt><trkpt lat="44.632778" lon="33.860992"><ele>158.3</ele><time>2011-10-11T09:27:18.0000000+00:00</time></trkpt><trkpt lat="44.632782" lon="33.861"><ele>158.7</ele><time>2011-10-11T09:27:23.0000000+00:00</time></trkpt><trkpt lat="44.63279" lon="33.861008"><ele>159.2</ele><time>2011-10-11T09:27:28.0000000+00:00</time></trkpt><trkpt lat="44.632793" lon="33.861019"><ele>159.6</ele><time>2011-10-11T09:27:33.0000000+00:00</time></trkpt><trkpt lat="44.632801" lon="33.861027"><ele>160.0</ele><time>2011-10-11T09:27:38.0000000+00:00</time></trkpt><trkpt lat="44.632805" lon="33.861034"><ele>160.4</ele><time>2011-10-11T09:27:43.0000000+00:00</time></trkpt><trkpt lat="44.632809" lon="33.861038"><ele>160.8</ele><time>2011-10-11T09:27:48.0000000+00:00</time></trkpt><trkpt lat="44.632805" lon="33.861034"><ele>161.2</ele><time>2011-10-11T09:27:53.0000000+00:00</time></trkpt><trkpt lat="44.632797" lon="33.861034"><ele>161.7</ele><time>2011-10-11T09:27:58.0000000+00:00</time></trkpt><trkpt lat="44.63279" lon="33.861031"><ele>162.1</ele><time>2011-10-11T09:28:03.0000000+00:00</time></trkpt><trkpt lat="44.632786" lon="33.861027"><ele>162.5</ele><time>2011-10-11T09:28:08.0000000+00:00</time></trkpt><trkpt lat="44.632782" lon="33.861027"><ele>162.9</ele><time>2011-10-11T09:28:13.0000000+00:00</time></trkpt><trkpt lat="44.632782" lon="33.861031"><ele>163.3</ele><time>2011-10-11T09:28:18.0000000+00:00</time></trkpt><trkpt lat="44.632786" lon="33.861031"><ele>163.7</ele><time>2011-10-11T09:28:23.0000000+00:00</time></trkpt><trkpt lat="44.632793" lon="33.861031"><ele>164.0</ele><time>2011-10-11T09:28:28.0000000+00:00</time></trkpt><trkpt lat="44.632801" lon="33.861031"><ele>164.4</ele><time>2011-10-11T09:28:33.0000000+00:00</time></trkpt><trkpt lat="44.632809" lon="33.861031"><ele>164.8</ele><time>2011-10-11T09:28:38.0000000+00:00</time></trkpt><trkpt lat="44.632816" lon="33.861031"><ele>165.2</ele><time>2011-10-11T09:28:43.0000000+00:00</time></trkpt><trkpt lat="44.632824" lon="33.861027"><ele>165.5</ele><time>2011-10-11T09:28:48.0000000+00:00</time></trkpt><trkpt lat="44.632828" lon="33.861023"><ele>165.8</ele><time>2011-10-11T09:28:53.0000000+00:00</time></trkpt><trkpt lat="44.63282" lon="33.861027"><ele>165.8</ele><time>2011-10-11T09:28:58.0000000+00:00</time></trkpt><trkpt lat="44.632828" lon="33.861031"><ele>165.8</ele><time>2011-10-11T09:29:03.0000000+00:00</time></trkpt><trkpt lat="44.632847" lon="33.861019"><ele>165.3</ele><time>2011-10-11T09:29:08.0000000+00:00</time></trkpt><trkpt lat="44.632862" lon="33.861023"><ele>164.6</ele><time>2011-10-11T09:29:13.0000000+00:00</time></trkpt><trkpt lat="44.632912" lon="33.861023"><ele>163.6</ele><time>2011-10-11T09:29:18.0000000+00:00</time></trkpt><trkpt lat="44.632912" lon="33.861008"><ele>163.2</ele><time>2011-10-11T09:29:23.0000000+00:00</time></trkpt><trkpt lat="44.6329" lon="33.861023"><ele>162.7</ele><time>2011-10-11T09:29:28.0000000+00:00</time></trkpt><trkpt lat="44.632904" lon="33.861019"><ele>162.6</ele><time>2011-10-11T09:29:33.0000000+00:00</time></trkpt><trkpt lat="44.632908" lon="33.861015"><ele>162.5</ele><time>2011-10-11T09:29:38.0000000+00:00</time></trkpt><trkpt lat="44.632904" lon="33.861012"><ele>162.4</ele><time>2011-10-11T09:29:43.0000000+00:00</time></trkpt><trkpt lat="44.632908" lon="33.861008"><ele>162.2</ele><time>2011-10-11T09:29:48.0000000+00:00</time></trkpt><trkpt lat="44.632908" lon="33.861004"><ele>162.0</ele><time>2011-10-11T09:29:53.0000000+00:00</time></trkpt><trkpt lat="44.632908" lon="33.861"><ele>161.8</ele><time>2011-10-11T09:29:58.0000000+00:00</time></trkpt><trkpt lat="44.632904" lon="33.861"><ele>161.7</ele><time>2011-10-11T09:30:03.0000000+00:00</time></trkpt><trkpt lat="44.632904" lon="33.861"><ele>161.7</ele><time>2011-10-11T09:30:08.0000000+00:00</time></trkpt><trkpt lat="44.632904" lon="33.861"><ele>161.7</ele><time>2011-10-11T09:30:13.0000000+00:00</time></trkpt><trkpt lat="44.632904" lon="33.861"><ele>161.6</ele><time>2011-10-11T09:30:18.0000000+00:00</time></trkpt><trkpt lat="44.632904" lon="33.861004"><ele>161.6</ele><time>2011-10-11T09:30:23.0000000+00:00</time></trkpt><trkpt lat="44.632904" lon="33.861004"><ele>161.6</ele><time>2011-10-11T09:30:28.0000000+00:00</time></trkpt><trkpt lat="44.6329" lon="33.861004"><ele>161.6</ele><time>2011-10-11T09:30:33.0000000+00:00</time></trkpt><trkpt lat="44.6329" lon="33.861004"><ele>161.5</ele><time>2011-10-11T09:30:38.0000000+00:00</time></trkpt><trkpt lat="44.6329" lon="33.861004"><ele>161.5</ele><time>2011-10-11T09:30:43.0000000+00:00</time></trkpt><trkpt lat="44.6329" lon="33.861004"><ele>161.5</ele><time>2011-10-11T09:30:48.0000000+00:00</time></trkpt><trkpt lat="44.6329" lon="33.861004"><ele>161.5</ele><time>2011-10-11T09:30:53.0000000+00:00</time></trkpt><trkpt lat="44.6329" lon="33.861004"><ele>161.4</ele><time>2011-10-11T09:30:58.0000000+00:00</time></trkpt><trkpt lat="44.6329" lon="33.861004"><ele>161.4</ele><time>2011-10-11T09:31:03.0000000+00:00</time></trkpt><trkpt lat="44.6329" lon="33.861004"><ele>161.3</ele><time>2011-10-11T09:31:08.0000000+00:00</time></trkpt><trkpt lat="44.6329" lon="33.861004"><ele>161.3</ele><time>2011-10-11T09:31:13.0000000+00:00</time></trkpt><trkpt lat="44.6329" lon="33.861004"><ele>161.3</ele><time>2011-10-11T09:31:18.0000000+00:00</time></trkpt><trkpt lat="44.6329" lon="33.861004"><ele>161.3</ele><time>2011-10-11T09:31:23.0000000+00:00</time></trkpt><trkpt lat="44.6329" lon="33.861004"><ele>161.2</ele><time>2011-10-11T09:31:28.0000000+00:00</time></trkpt><trkpt lat="44.6329" lon="33.861004"><ele>161.2</ele><time>2011-10-11T09:31:33.0000000+00:00</time></trkpt><trkpt lat="44.6329" lon="33.861004"><ele>161.2</ele><time>2011-10-11T09:31:38.0000000+00:00</time></trkpt><trkpt lat="44.632904" lon="33.861004"><ele>161.1</ele><time>2011-10-11T09:31:43.0000000+00:00</time></trkpt><trkpt lat="44.632904" lon="33.861004"><ele>161.1</ele><time>2011-10-11T09:31:48.0000000+00:00</time></trkpt><trkpt lat="44.6329" lon="33.861004"><ele>161.1</ele><time>2011-10-11T09:31:53.0000000+00:00</time></trkpt><trkpt lat="44.6329" lon="33.861004"><ele>161.0</ele><time>2011-10-11T09:31:58.0000000+00:00</time></trkpt><trkpt lat="44.6329" lon="33.861004"><ele>161.0</ele><time>2011-10-11T09:32:03.0000000+00:00</time></trkpt><trkpt lat="44.6329" lon="33.861004"><ele>161.0</ele><time>2011-10-11T09:32:08.0000000+00:00</time></trkpt><trkpt lat="44.632893" lon="33.860996"><ele>160.4</ele><time>2011-10-11T09:32:13.0000000+00:00</time></trkpt><trkpt lat="44.632896" lon="33.861"><ele>160.1</ele><time>2011-10-11T09:32:18.0000000+00:00</time></trkpt><trkpt lat="44.632889" lon="33.860989"><ele>160.0</ele><time>2011-10-11T09:32:23.0000000+00:00</time></trkpt><trkpt lat="44.632896" lon="33.860981"><ele>160.1</ele><time>2011-10-11T09:32:28.0000000+00:00</time></trkpt><trkpt lat="44.632904" lon="33.860985"><ele>160.1</ele><time>2011-10-11T09:32:33.0000000+00:00</time></trkpt><trkpt lat="44.632912" lon="33.861019"><ele>158.7</ele><time>2011-10-11T09:32:38.0000000+00:00</time></trkpt><trkpt lat="44.632896" lon="33.861073"><ele>157.9</ele><time>2011-10-11T09:32:43.0000000+00:00</time></trkpt><trkpt lat="44.632896" lon="33.861076"><ele>157.4</ele><time>2011-10-11T09:32:48.0000000+00:00</time></trkpt><trkpt lat="44.632858" lon="33.861118"><ele>155.6</ele><time>2011-10-11T09:32:53.0000000+00:00</time></trkpt><trkpt lat="44.632835" lon="33.861095"><ele>152.7</ele><time>2011-10-11T09:32:58.0000000+00:00</time></trkpt><trkpt lat="44.632813" lon="33.861073"><ele>151.7</ele><time>2011-10-11T09:33:03.0000000+00:00</time></trkpt><trkpt lat="44.632809" lon="33.861065"><ele>151.1</ele><time>2011-10-11T09:33:08.0000000+00:00</time></trkpt><trkpt lat="44.632797" lon="33.86108"><ele>148.7</ele><time>2011-10-11T09:33:13.0000000+00:00</time></trkpt><trkpt lat="44.632809" lon="33.86108"><ele>147.7</ele><time>2011-10-11T09:33:18.0000000+00:00</time></trkpt><trkpt lat="44.632813" lon="33.86108"><ele>146.4</ele><time>2011-10-11T09:33:23.0000000+00:00</time></trkpt><trkpt lat="44.632824" lon="33.86108"><ele>144.7</ele><time>2011-10-11T09:33:28.0000000+00:00</time></trkpt><trkpt lat="44.632835" lon="33.86108"><ele>143.8</ele><time>2011-10-11T09:33:33.0000000+00:00</time></trkpt><trkpt lat="44.632839" lon="33.86108"><ele>142.8</ele><time>2011-10-11T09:33:38.0000000+00:00</time></trkpt><trkpt lat="44.632839" lon="33.861076"><ele>142.5</ele><time>2011-10-11T09:33:43.0000000+00:00</time></trkpt><trkpt lat="44.632839" lon="33.86108"><ele>142.2</ele><time>2011-10-11T09:33:48.0000000+00:00</time></trkpt><trkpt lat="44.632809" lon="33.861076"><ele>142.1</ele><time>2011-10-11T09:33:53.0000000+00:00</time></trkpt><trkpt lat="44.632797" lon="33.86108"><ele>142.1</ele><time>2011-10-11T09:33:58.0000000+00:00</time></trkpt><trkpt lat="44.632797" lon="33.861076"><ele>142.2</ele><time>2011-10-11T09:34:03.0000000+00:00</time></trkpt><trkpt lat="44.632797" lon="33.86108"><ele>142.2</ele><time>2011-10-11T09:34:08.0000000+00:00</time></trkpt><trkpt lat="44.632797" lon="33.86108"><ele>142.2</ele><time>2011-10-11T09:34:13.0000000+00:00</time></trkpt><trkpt lat="44.632797" lon="33.86108"><ele>142.2</ele><time>2011-10-11T09:34:18.0000000+00:00</time></trkpt><trkpt lat="44.632797" lon="33.86108"><ele>142.2</ele><time>2011-10-11T09:34:23.0000000+00:00</time></trkpt><trkpt lat="44.632797" lon="33.86108"><ele>142.2</ele><time>2011-10-11T09:34:28.0000000+00:00</time></trkpt><trkpt lat="44.632793" lon="33.86108"><ele>142.0</ele><time>2011-10-11T09:34:33.0000000+00:00</time></trkpt><trkpt lat="44.632793" lon="33.86108"><ele>141.5</ele><time>2011-10-11T09:34:38.0000000+00:00</time></trkpt><trkpt lat="44.632778" lon="33.861084"><ele>141.1</ele><time>2011-10-11T09:34:43.0000000+00:00</time></trkpt><trkpt lat="44.632778" lon="33.861084"><ele>141.1</ele><time>2011-10-11T09:34:48.0000000+00:00</time></trkpt><trkpt lat="44.632778" lon="33.86108"><ele>141.1</ele><time>2011-10-11T09:34:53.0000000+00:00</time></trkpt><trkpt lat="44.632778" lon="33.861084"><ele>141.1</ele><time>2011-10-11T09:34:58.0000000+00:00</time></trkpt><trkpt lat="44.632782" lon="33.86108"><ele>141.1</ele><time>2011-10-11T09:35:03.0000000+00:00</time></trkpt><trkpt lat="44.632782" lon="33.86108"><ele>141.1</ele><time>2011-10-11T09:35:08.0000000+00:00</time></trkpt><trkpt lat="44.63279" lon="33.861073"><ele>140.3</ele><time>2011-10-11T09:35:13.0000000+00:00</time></trkpt><trkpt lat="44.632793" lon="33.861076"><ele>139.8</ele><time>2011-10-11T09:35:18.0000000+00:00</time></trkpt><trkpt lat="44.632793" lon="33.861076"><ele>139.8</ele><time>2011-10-11T09:35:23.0000000+00:00</time></trkpt><trkpt lat="44.632793" lon="33.861076"><ele>139.8</ele><time>2011-10-11T09:35:28.0000000+00:00</time></trkpt><trkpt lat="44.632793" lon="33.861076"><ele>139.8</ele><time>2011-10-11T09:35:33.0000000+00:00</time></trkpt><trkpt lat="44.632793" lon="33.861073"><ele>139.7</ele><time>2011-10-11T09:35:38.0000000+00:00</time></trkpt><trkpt lat="44.632793" lon="33.861073"><ele>139.7</ele><time>2011-10-11T09:35:43.0000000+00:00</time></trkpt><trkpt lat="44.632793" lon="33.861073"><ele>139.7</ele><time>2011-10-11T09:35:48.0000000+00:00</time></trkpt><trkpt lat="44.632793" lon="33.861069"><ele>139.2</ele><time>2011-10-11T09:35:53.0000000+00:00</time></trkpt><trkpt lat="44.632793" lon="33.861073"><ele>138.6</ele><time>2011-10-11T09:35:58.0000000+00:00</time></trkpt><trkpt lat="44.632793" lon="33.861073"><ele>138.7</ele><time>2011-10-11T09:36:03.0000000+00:00</time></trkpt><trkpt lat="44.632793" lon="33.861073"><ele>138.7</ele><time>2011-10-11T09:36:08.0000000+00:00</time></trkpt><trkpt lat="44.632793" lon="33.861073"><ele>138.6</ele><time>2011-10-11T09:36:13.0000000+00:00</time></trkpt><trkpt lat="44.632793" lon="33.861073"><ele>138.7</ele><time>2011-10-11T09:36:18.0000000+00:00</time></trkpt><trkpt lat="44.632793" lon="33.861073"><ele>138.7</ele><time>2011-10-11T09:36:23.0000000+00:00</time></trkpt><trkpt lat="44.63279" lon="33.861069"><ele>138.5</ele><time>2011-10-11T09:36:28.0000000+00:00</time></trkpt><trkpt lat="44.63279" lon="33.861065"><ele>138.5</ele><time>2011-10-11T09:36:33.0000000+00:00</time></trkpt><trkpt lat="44.63279" lon="33.861065"><ele>138.7</ele><time>2011-10-11T09:36:38.0000000+00:00</time></trkpt><trkpt lat="44.63279" lon="33.861065"><ele>138.7</ele><time>2011-10-11T09:36:43.0000000+00:00</time></trkpt><trkpt lat="44.63279" lon="33.861065"><ele>138.7</ele><time>2011-10-11T09:36:48.0000000+00:00</time></trkpt><trkpt lat="44.632786" lon="33.861065"><ele>138.7</ele><time>2011-10-11T09:36:53.0000000+00:00</time></trkpt><trkpt lat="44.632786" lon="33.861065"><ele>138.7</ele><time>2011-10-11T09:36:58.0000000+00:00</time></trkpt><trkpt lat="44.63279" lon="33.861065"><ele>138.6</ele><time>2011-10-11T09:37:03.0000000+00:00</time></trkpt><trkpt lat="44.632793" lon="33.861061"><ele>137.9</ele><time>2011-10-11T09:37:08.0000000+00:00</time></trkpt><trkpt lat="44.632793" lon="33.861061"><ele>137.9</ele><time>2011-10-11T09:37:13.0000000+00:00</time></trkpt><trkpt lat="44.632793" lon="33.861061"><ele>137.9</ele><time>2011-10-11T09:37:18.0000000+00:00</time></trkpt><trkpt lat="44.632793" lon="33.861065"><ele>137.7</ele><time>2011-10-11T09:37:23.0000000+00:00</time></trkpt><trkpt lat="44.632793" lon="33.861069"><ele>137.4</ele><time>2011-10-11T09:37:28.0000000+00:00</time></trkpt><trkpt lat="44.632797" lon="33.861073"><ele>137.4</ele><time>2011-10-11T09:37:33.0000000+00:00</time></trkpt><trkpt lat="44.632813" lon="33.861069"><ele>137.4</ele><time>2011-10-11T09:37:38.0000000+00:00</time></trkpt><trkpt lat="44.632835" lon="33.861092"><ele>139.5</ele><time>2011-10-11T09:37:43.0000000+00:00</time></trkpt><trkpt lat="44.632824" lon="33.861092"><ele>142.5</ele><time>2011-10-11T09:37:48.0000000+00:00</time></trkpt><trkpt lat="44.632828" lon="33.861088"><ele>142.5</ele><time>2011-10-11T09:37:53.0000000+00:00</time></trkpt><trkpt lat="44.632824" lon="33.861088"><ele>142.7</ele><time>2011-10-11T09:37:58.0000000+00:00</time></trkpt><trkpt lat="44.632828" lon="33.861088"><ele>142.8</ele><time>2011-10-11T09:38:03.0000000+00:00</time></trkpt><trkpt lat="44.632828" lon="33.861088"><ele>142.8</ele><time>2011-10-11T09:38:08.0000000+00:00</time></trkpt><trkpt lat="44.632832" lon="33.861095"><ele>142.8</ele><time>2011-10-11T09:38:13.0000000+00:00</time></trkpt><trkpt lat="44.632832" lon="33.861092"><ele>142.8</ele><time>2011-10-11T09:38:18.0000000+00:00</time></trkpt><trkpt lat="44.632832" lon="33.861088"><ele>142.9</ele><time>2011-10-11T09:38:23.0000000+00:00</time></trkpt><trkpt lat="44.632828" lon="33.861095"><ele>142.9</ele><time>2011-10-11T09:38:28.0000000+00:00</time></trkpt><trkpt lat="44.632816" lon="33.861088"><ele>142.8</ele><time>2011-10-11T09:38:33.0000000+00:00</time></trkpt><trkpt lat="44.632797" lon="33.861073"><ele>142.7</ele><time>2011-10-11T09:38:38.0000000+00:00</time></trkpt><trkpt lat="44.63279" lon="33.861092"><ele>142.5</ele><time>2011-10-11T09:38:43.0000000+00:00</time></trkpt><trkpt lat="44.63279" lon="33.861095"><ele>142.5</ele><time>2011-10-11T09:38:48.0000000+00:00</time></trkpt><trkpt lat="44.632801" lon="33.861103"><ele>142.5</ele><time>2011-10-11T09:38:53.0000000+00:00</time></trkpt><trkpt lat="44.632828" lon="33.861141"><ele>142.5</ele><time>2011-10-11T09:38:58.0000000+00:00</time></trkpt><trkpt lat="44.632816" lon="33.861229"><ele>142.2</ele><time>2011-10-11T09:39:03.0000000+00:00</time></trkpt><trkpt lat="44.632683" lon="33.861485"><ele>142.1</ele><time>2011-10-11T09:39:08.0000000+00:00</time></trkpt><trkpt lat="44.632435" lon="33.861874"><ele>142.0</ele><time>2011-10-11T09:39:13.0000000+00:00</time></trkpt><trkpt lat="44.632061" lon="33.862362"><ele>141.8</ele><time>2011-10-11T09:39:18.0000000+00:00</time></trkpt><trkpt lat="44.631607" lon="33.862843"><ele>142.1</ele><time>2011-10-11T09:39:23.0000000+00:00</time></trkpt><trkpt lat="44.631081" lon="33.863323"><ele>141.9</ele><time>2011-10-11T09:39:28.0000000+00:00</time></trkpt><trkpt lat="44.630646" lon="33.86377"><ele>142.0</ele><time>2011-10-11T09:39:33.0000000+00:00</time></trkpt><trkpt lat="44.630215" lon="33.864227"><ele>142.2</ele><time>2011-10-11T09:39:38.0000000+00:00</time></trkpt><trkpt lat="44.629868" lon="33.864544"><ele>142.4</ele><time>2011-10-11T09:39:43.0000000+00:00</time></trkpt><trkpt lat="44.629745" lon="33.864723"><ele>142.9</ele><time>2011-10-11T09:39:48.0000000+00:00</time></trkpt><trkpt lat="44.629639" lon="33.865025"><ele>144.0</ele><time>2011-10-11T09:39:53.0000000+00:00</time></trkpt><trkpt lat="44.629429" lon="33.865429"><ele>144.5</ele><time>2011-10-11T09:39:58.0000000+00:00</time></trkpt><trkpt lat="44.62928" lon="33.865948"><ele>145.9</ele><time>2011-10-11T09:40:03.0000000+00:00</time></trkpt><trkpt lat="44.629128" lon="33.866508"><ele>147.4</ele><time>2011-10-11T09:40:08.0000000+00:00</time></trkpt><trkpt lat="44.628887" lon="33.867123"><ele>149.1</ele><time>2011-10-11T09:40:13.0000000+00:00</time></trkpt><trkpt lat="44.628529" lon="33.867706"><ele>150.7</ele><time>2011-10-11T09:40:18.0000000+00:00</time></trkpt><trkpt lat="44.628132" lon="33.868198"><ele>151.9</ele><time>2011-10-11T09:40:23.0000000+00:00</time></trkpt><trkpt lat="44.627689" lon="33.868626"><ele>153.2</ele><time>2011-10-11T09:40:28.0000000+00:00</time></trkpt><trkpt lat="44.627186" lon="33.86903"><ele>154.6</ele><time>2011-10-11T09:40:33.0000000+00:00</time></trkpt><trkpt lat="44.626659" lon="33.869427"><ele>155.6</ele><time>2011-10-11T09:40:38.0000000+00:00</time></trkpt><trkpt lat="44.626125" lon="33.869892"><ele>157.2</ele><time>2011-10-11T09:40:43.0000000+00:00</time></trkpt><trkpt lat="44.625599" lon="33.870365"><ele>158.9</ele><time>2011-10-11T09:40:48.0000000+00:00</time></trkpt><trkpt lat="44.625088" lon="33.870876"><ele>159.8</ele><time>2011-10-11T09:40:53.0000000+00:00</time></trkpt><trkpt lat="44.624561" lon="33.871216"><ele>161.2</ele><time>2011-10-11T09:40:58.0000000+00:00</time></trkpt><trkpt lat="44.624054" lon="33.871513"><ele>161.7</ele><time>2011-10-11T09:41:03.0000000+00:00</time></trkpt><trkpt lat="44.623619" lon="33.872101"><ele>162.4</ele><time>2011-10-11T09:41:08.0000000+00:00</time></trkpt><trkpt lat="44.623344" lon="33.87289"><ele>164.3</ele><time>2011-10-11T09:41:13.0000000+00:00</time></trkpt><trkpt lat="44.623055" lon="33.873726"><ele>163.8</ele><time>2011-10-11T09:41:18.0000000+00:00</time></trkpt><trkpt lat="44.622807" lon="33.87455"><ele>164.7</ele><time>2011-10-11T09:41:23.0000000+00:00</time></trkpt><trkpt lat="44.622566" lon="33.875301"><ele>167.5</ele><time>2011-10-11T09:41:28.0000000+00:00</time></trkpt><trkpt lat="44.622265" lon="33.875984"><ele>171.4</ele><time>2011-10-11T09:41:33.0000000+00:00</time></trkpt><trkpt lat="44.621956" lon="33.876648"><ele>175.8</ele><time>2011-10-11T09:41:38.0000000+00:00</time></trkpt><trkpt lat="44.621517" lon="33.87727"><ele>178.9</ele><time>2011-10-11T09:41:43.0000000+00:00</time></trkpt><trkpt lat="44.620934" lon="33.877811"><ele>181.8</ele><time>2011-10-11T09:41:48.0000000+00:00</time></trkpt><trkpt lat="44.62022" lon="33.877979"><ele>183.1</ele><time>2011-10-11T09:41:53.0000000+00:00</time></trkpt><trkpt lat="44.619606" lon="33.877728"><ele>180.3</ele><time>2011-10-11T09:41:58.0000000+00:00</time></trkpt><trkpt lat="44.618965" lon="33.877506"><ele>177.0</ele><time>2011-10-11T09:42:03.0000000+00:00</time></trkpt><trkpt lat="44.618294" lon="33.877472"><ele>175.2</ele><time>2011-10-11T09:42:08.0000000+00:00</time></trkpt><trkpt lat="44.617622" lon="33.877499"><ele>174.5</ele><time>2011-10-11T09:42:13.0000000+00:00</time></trkpt><trkpt lat="44.616974" lon="33.877777"><ele>174.2</ele><time>2011-10-11T09:42:18.0000000+00:00</time></trkpt><trkpt lat="44.616478" lon="33.878281"><ele>174.1</ele><time>2011-10-11T09:42:23.0000000+00:00</time></trkpt><trkpt lat="44.616192" lon="33.878975"><ele>173.4</ele><time>2011-10-11T09:42:28.0000000+00:00</time></trkpt><trkpt lat="44.615963" lon="33.879646"><ele>171.3</ele><time>2011-10-11T09:42:33.0000000+00:00</time></trkpt><trkpt lat="44.615704" lon="33.880241"><ele>170.0</ele><time>2011-10-11T09:42:38.0000000+00:00</time></trkpt><trkpt lat="44.615444" lon="33.880852"><ele>170.0</ele><time>2011-10-11T09:42:43.0000000+00:00</time></trkpt><trkpt lat="44.615128" lon="33.881458"><ele>169.0</ele><time>2011-10-11T09:42:48.0000000+00:00</time></trkpt><trkpt lat="44.614761" lon="33.882092"><ele>168.4</ele><time>2011-10-11T09:42:53.0000000+00:00</time></trkpt><trkpt lat="44.614388" lon="33.88274"><ele>167.3</ele><time>2011-10-11T09:42:58.0000000+00:00</time></trkpt><trkpt lat="44.613991" lon="33.883442"><ele>167.0</ele><time>2011-10-11T09:43:03.0000000+00:00</time></trkpt><trkpt lat="44.613594" lon="33.884224"><ele>167.8</ele><time>2011-10-11T09:43:08.0000000+00:00</time></trkpt><trkpt lat="44.613232" lon="33.884926"><ele>170.0</ele><time>2011-10-11T09:43:13.0000000+00:00</time></trkpt><trkpt lat="44.612732" lon="33.885391"><ele>176.1</ele><time>2011-10-11T09:43:18.0000000+00:00</time></trkpt><trkpt lat="44.612137" lon="33.885723"><ele>180.0</ele><time>2011-10-11T09:43:23.0000000+00:00</time></trkpt><trkpt lat="44.61153" lon="33.885986"><ele>183.5</ele><time>2011-10-11T09:43:28.0000000+00:00</time></trkpt><trkpt lat="44.610962" lon="33.886379"><ele>186.6</ele><time>2011-10-11T09:43:33.0000000+00:00</time></trkpt><trkpt lat="44.610386" lon="33.886925"><ele>188.4</ele><time>2011-10-11T09:43:38.0000000+00:00</time></trkpt><trkpt lat="44.609921" lon="33.887524"><ele>192.4</ele><time>2011-10-11T09:43:43.0000000+00:00</time></trkpt><trkpt lat="44.609692" lon="33.888294"><ele>194.1</ele><time>2011-10-11T09:43:48.0000000+00:00</time></trkpt><trkpt lat="44.609314" lon="33.888916"><ele>195.5</ele><time>2011-10-11T09:43:53.0000000+00:00</time></trkpt><trkpt lat="44.609074" lon="33.889656"><ele>194.7</ele><time>2011-10-11T09:43:58.0000000+00:00</time></trkpt><trkpt lat="44.608784" lon="33.890377"><ele>194.6</ele><time>2011-10-11T09:44:03.0000000+00:00</time></trkpt><trkpt lat="44.608471" lon="33.891045"><ele>193.6</ele><time>2011-10-11T09:44:08.0000000+00:00</time></trkpt><trkpt lat="44.608273" lon="33.891964"><ele>190.4</ele><time>2011-10-11T09:44:13.0000000+00:00</time></trkpt><trkpt lat="44.608013" lon="33.892883"><ele>188.2</ele><time>2011-10-11T09:44:18.0000000+00:00</time></trkpt><trkpt lat="44.607719" lon="33.89381"><ele>187.9</ele><time>2011-10-11T09:44:23.0000000+00:00</time></trkpt><trkpt lat="44.607361" lon="33.894661"><ele>186.9</ele><time>2011-10-11T09:44:28.0000000+00:00</time></trkpt><trkpt lat="44.606853" lon="33.895405"><ele>186.8</ele><time>2011-10-11T09:44:33.0000000+00:00</time></trkpt><trkpt lat="44.606194" lon="33.895885"><ele>183.7</ele><time>2011-10-11T09:44:38.0000000+00:00</time></trkpt><trkpt lat="44.605686" lon="33.896568"><ele>182.8</ele><time>2011-10-11T09:44:43.0000000+00:00</time></trkpt><trkpt lat="44.605209" lon="33.897285"><ele>182.2</ele><time>2011-10-11T09:44:48.0000000+00:00</time></trkpt><trkpt lat="44.604755" lon="33.897919"><ele>182.1</ele><time>2011-10-11T09:44:53.0000000+00:00</time></trkpt><trkpt lat="44.604374" lon="33.898575"><ele>183.2</ele><time>2011-10-11T09:44:58.0000000+00:00</time></trkpt><trkpt lat="44.60413" lon="33.899334"><ele>182.3</ele><time>2011-10-11T09:45:03.0000000+00:00</time></trkpt><trkpt lat="44.603931" lon="33.900112"><ele>181.6</ele><time>2011-10-11T09:45:08.0000000+00:00</time></trkpt><trkpt lat="44.603893" lon="33.900948"><ele>181.1</ele><time>2011-10-11T09:45:13.0000000+00:00</time></trkpt><trkpt lat="44.603561" lon="33.901554"><ele>181.4</ele><time>2011-10-11T09:45:18.0000000+00:00</time></trkpt><trkpt lat="44.603073" lon="33.902065"><ele>178.6</ele><time>2011-10-11T09:45:23.0000000+00:00</time></trkpt><trkpt lat="44.60257" lon="33.902573"><ele>179.9</ele><time>2011-10-11T09:45:28.0000000+00:00</time></trkpt><trkpt lat="44.602108" lon="33.903229"><ele>181.1</ele><time>2011-10-11T09:45:33.0000000+00:00</time></trkpt><trkpt lat="44.60165" lon="33.903934"><ele>182.1</ele><time>2011-10-11T09:45:38.0000000+00:00</time></trkpt><trkpt lat="44.601162" lon="33.904625"><ele>182.6</ele><time>2011-10-11T09:45:43.0000000+00:00</time></trkpt><trkpt lat="44.600719" lon="33.905434"><ele>181.8</ele><time>2011-10-11T09:45:48.0000000+00:00</time></trkpt><trkpt lat="44.600372" lon="33.906364"><ele>180.2</ele><time>2011-10-11T09:45:53.0000000+00:00</time></trkpt><trkpt lat="44.600082" lon="33.907242"><ele>182.3</ele><time>2011-10-11T09:45:58.0000000+00:00</time></trkpt><trkpt lat="44.599731" lon="33.908047"><ele>183.8</ele><time>2011-10-11T09:46:03.0000000+00:00</time></trkpt><trkpt lat="44.599319" lon="33.908741"><ele>187.5</ele><time>2011-10-11T09:46:08.0000000+00:00</time></trkpt><trkpt lat="44.598927" lon="33.909462"><ele>190.3</ele><time>2011-10-11T09:46:13.0000000+00:00</time></trkpt><trkpt lat="44.598377" lon="33.910069"><ele>193.0</ele><time>2011-10-11T09:46:18.0000000+00:00</time></trkpt><trkpt lat="44.59774" lon="33.910702"><ele>195.3</ele><time>2011-10-11T09:46:23.0000000+00:00</time></trkpt><trkpt lat="44.597145" lon="33.911388"><ele>198.1</ele><time>2011-10-11T09:46:28.0000000+00:00</time></trkpt><trkpt lat="44.596539" lon="33.911995"><ele>199.7</ele><time>2011-10-11T09:46:33.0000000+00:00</time></trkpt><trkpt lat="44.595905" lon="33.91238"><ele>199.5</ele><time>2011-10-11T09:46:38.0000000+00:00</time></trkpt><trkpt lat="44.595242" lon="33.9128"><ele>198.2</ele><time>2011-10-11T09:46:43.0000000+00:00</time></trkpt><trkpt lat="44.594715" lon="33.913357"><ele>200.4</ele><time>2011-10-11T09:46:48.0000000+00:00</time></trkpt><trkpt lat="44.594215" lon="33.913811"><ele>200.4</ele><time>2011-10-11T09:46:53.0000000+00:00</time></trkpt><trkpt lat="44.593746" lon="33.914108"><ele>200.7</ele><time>2011-10-11T09:46:58.0000000+00:00</time></trkpt><trkpt lat="44.593273" lon="33.914261"><ele>200.0</ele><time>2011-10-11T09:47:03.0000000+00:00</time></trkpt><trkpt lat="44.592876" lon="33.914497"><ele>199.4</ele><time>2011-10-11T09:47:08.0000000+00:00</time></trkpt><trkpt lat="44.592518" lon="33.914948"><ele>200.4</ele><time>2011-10-11T09:47:13.0000000+00:00</time></trkpt><trkpt lat="44.592171" lon="33.915501"><ele>201.4</ele><time>2011-10-11T09:47:18.0000000+00:00</time></trkpt><trkpt lat="44.591831" lon="33.916092"><ele>201.1</ele><time>2011-10-11T09:47:23.0000000+00:00</time></trkpt><trkpt lat="44.591484" lon="33.916725"><ele>198.7</ele><time>2011-10-11T09:47:28.0000000+00:00</time></trkpt><trkpt lat="44.591057" lon="33.917404"><ele>197.4</ele><time>2011-10-11T09:47:33.0000000+00:00</time></trkpt><trkpt lat="44.590641" lon="33.918056"><ele>196.6</ele><time>2011-10-11T09:47:38.0000000+00:00</time></trkpt><trkpt lat="44.590206" lon="33.918736"><ele>196.2</ele><time>2011-10-11T09:47:43.0000000+00:00</time></trkpt><trkpt lat="44.589756" lon="33.919441"><ele>198.4</ele><time>2011-10-11T09:47:48.0000000+00:00</time></trkpt><trkpt lat="44.589233" lon="33.920132"><ele>194.3</ele><time>2011-10-11T09:47:53.0000000+00:00</time></trkpt><trkpt lat="44.588707" lon="33.920799"><ele>192.8</ele><time>2011-10-11T09:47:58.0000000+00:00</time></trkpt><trkpt lat="44.588169" lon="33.921463"><ele>191.0</ele><time>2011-10-11T09:48:03.0000000+00:00</time></trkpt><trkpt lat="44.587654" lon="33.922142"><ele>191.5</ele><time>2011-10-11T09:48:08.0000000+00:00</time></trkpt><trkpt lat="44.587162" lon="33.922794"><ele>191.8</ele><time>2011-10-11T09:48:13.0000000+00:00</time></trkpt><trkpt lat="44.586697" lon="33.923393"><ele>190.6</ele><time>2011-10-11T09:48:18.0000000+00:00</time></trkpt><trkpt lat="44.586269" lon="33.924026"><ele>190.8</ele><time>2011-10-11T09:48:23.0000000+00:00</time></trkpt><trkpt lat="44.585865" lon="33.924755"><ele>192.0</ele><time>2011-10-11T09:48:28.0000000+00:00</time></trkpt><trkpt lat="44.585442" lon="33.925579"><ele>194.5</ele><time>2011-10-11T09:48:33.0000000+00:00</time></trkpt><trkpt lat="44.585049" lon="33.926346"><ele>196.1</ele><time>2011-10-11T09:48:38.0000000+00:00</time></trkpt><trkpt lat="44.584671" lon="33.927113"><ele>197.5</ele><time>2011-10-11T09:48:43.0000000+00:00</time></trkpt><trkpt lat="44.584282" lon="33.927895"><ele>200.1</ele><time>2011-10-11T09:48:48.0000000+00:00</time></trkpt><trkpt lat="44.583912" lon="33.928696"><ele>202.5</ele><time>2011-10-11T09:48:53.0000000+00:00</time></trkpt><trkpt lat="44.583538" lon="33.929489"><ele>204.2</ele><time>2011-10-11T09:48:58.0000000+00:00</time></trkpt><trkpt lat="44.583263" lon="33.930435"><ele>204.1</ele><time>2011-10-11T09:49:03.0000000+00:00</time></trkpt><trkpt lat="44.583088" lon="33.931458"><ele>208.9</ele><time>2011-10-11T09:49:08.0000000+00:00</time></trkpt><trkpt lat="44.582874" lon="33.932438"><ele>212.3</ele><time>2011-10-11T09:49:13.0000000+00:00</time></trkpt><trkpt lat="44.58268" lon="33.933365"><ele>210.9</ele><time>2011-10-11T09:49:18.0000000+00:00</time></trkpt><trkpt lat="44.5825" lon="33.934246"><ele>213.0</ele><time>2011-10-11T09:49:23.0000000+00:00</time></trkpt><trkpt lat="44.582321" lon="33.935078"><ele>213.3</ele><time>2011-10-11T09:49:28.0000000+00:00</time></trkpt><trkpt lat="44.582218" lon="33.935856"><ele>209.6</ele><time>2011-10-11T09:49:33.0000000+00:00</time></trkpt><trkpt lat="44.58202" lon="33.936554"><ele>210.2</ele><time>2011-10-11T09:49:38.0000000+00:00</time></trkpt><trkpt lat="44.581554" lon="33.936905"><ele>210.7</ele><time>2011-10-11T09:49:43.0000000+00:00</time></trkpt><trkpt lat="44.580952" lon="33.937092"><ele>210.6</ele><time>2011-10-11T09:49:48.0000000+00:00</time></trkpt><trkpt lat="44.580288" lon="33.937263"><ele>211.1</ele><time>2011-10-11T09:49:53.0000000+00:00</time></trkpt><trkpt lat="44.579651" lon="33.937469"><ele>211.3</ele><time>2011-10-11T09:49:58.0000000+00:00</time></trkpt><trkpt lat="44.579021" lon="33.937744"><ele>214.4</ele><time>2011-10-11T09:50:03.0000000+00:00</time></trkpt><trkpt lat="44.578384" lon="33.938095"><ele>216.4</ele><time>2011-10-11T09:50:08.0000000+00:00</time></trkpt><trkpt lat="44.577732" lon="33.938427"><ele>217.6</ele><time>2011-10-11T09:50:13.0000000+00:00</time></trkpt><trkpt lat="44.57708" lon="33.938896"><ele>217.0</ele><time>2011-10-11T09:50:18.0000000+00:00</time></trkpt><trkpt lat="44.576462" lon="33.939396"><ele>219.1</ele><time>2011-10-11T09:50:23.0000000+00:00</time></trkpt><trkpt lat="44.575863" lon="33.93996"><ele>220.6</ele><time>2011-10-11T09:50:28.0000000+00:00</time></trkpt><trkpt lat="44.575317" lon="33.940697"><ele>221.7</ele><time>2011-10-11T09:50:33.0000000+00:00</time></trkpt><trkpt lat="44.574787" lon="33.941517"><ele>221.9</ele><time>2011-10-11T09:50:38.0000000+00:00</time></trkpt><trkpt lat="44.574184" lon="33.942131"><ele>222.6</ele><time>2011-10-11T09:50:43.0000000+00:00</time></trkpt><trkpt lat="44.573505" lon="33.942654"><ele>223.3</ele><time>2011-10-11T09:50:48.0000000+00:00</time></trkpt><trkpt lat="44.572895" lon="33.9431"><ele>225.1</ele><time>2011-10-11T09:50:53.0000000+00:00</time></trkpt><trkpt lat="44.572323" lon="33.943489"><ele>226.4</ele><time>2011-10-11T09:50:58.0000000+00:00</time></trkpt><trkpt lat="44.571716" lon="33.943661"><ele>227.2</ele><time>2011-10-11T09:51:03.0000000+00:00</time></trkpt><trkpt lat="44.571041" lon="33.94379"><ele>227.2</ele><time>2011-10-11T09:51:08.0000000+00:00</time></trkpt><trkpt lat="44.570381" lon="33.943935"><ele>227.1</ele><time>2011-10-11T09:51:13.0000000+00:00</time></trkpt><trkpt lat="44.569721" lon="33.944145"><ele>228.6</ele><time>2011-10-11T09:51:18.0000000+00:00</time></trkpt><trkpt lat="44.569069" lon="33.944389"><ele>228.6</ele><time>2011-10-11T09:51:23.0000000+00:00</time></trkpt><trkpt lat="44.568451" lon="33.944664"><ele>229.0</ele><time>2011-10-11T09:51:28.0000000+00:00</time></trkpt><trkpt lat="44.567814" lon="33.945"><ele>230.5</ele><time>2011-10-11T09:51:33.0000000+00:00</time></trkpt><trkpt lat="44.5672" lon="33.945358"><ele>233.3</ele><time>2011-10-11T09:51:38.0000000+00:00</time></trkpt><trkpt lat="44.566608" lon="33.945797"><ele>236.9</ele><time>2011-10-11T09:51:43.0000000+00:00</time></trkpt><trkpt lat="44.566044" lon="33.946285"><ele>237.8</ele><time>2011-10-11T09:51:48.0000000+00:00</time></trkpt><trkpt lat="44.565475" lon="33.946789"><ele>238.5</ele><time>2011-10-11T09:51:53.0000000+00:00</time></trkpt><trkpt lat="44.564907" lon="33.947254"><ele>237.7</ele><time>2011-10-11T09:51:58.0000000+00:00</time></trkpt><trkpt lat="44.564419" lon="33.947697"><ele>238.6</ele><time>2011-10-11T09:52:03.0000000+00:00</time></trkpt><trkpt lat="44.563881" lon="33.948059"><ele>239.1</ele><time>2011-10-11T09:52:08.0000000+00:00</time></trkpt><trkpt lat="44.563297" lon="33.948345"><ele>239.8</ele><time>2011-10-11T09:52:13.0000000+00:00</time></trkpt><trkpt lat="44.562691" lon="33.94854"><ele>238.6</ele><time>2011-10-11T09:52:18.0000000+00:00</time></trkpt><trkpt lat="44.562111" lon="33.948833"><ele>240.8</ele><time>2011-10-11T09:52:23.0000000+00:00</time></trkpt><trkpt lat="44.561573" lon="33.949135"><ele>243.3</ele><time>2011-10-11T09:52:28.0000000+00:00</time></trkpt><trkpt lat="44.561092" lon="33.949436"><ele>245.2</ele><time>2011-10-11T09:52:33.0000000+00:00</time></trkpt><trkpt lat="44.560623" lon="33.949745"><ele>249.7</ele><time>2011-10-11T09:52:38.0000000+00:00</time></trkpt><trkpt lat="44.560116" lon="33.950069"><ele>251.6</ele><time>2011-10-11T09:52:43.0000000+00:00</time></trkpt><trkpt lat="44.559681" lon="33.950493"><ele>252.7</ele><time>2011-10-11T09:52:48.0000000+00:00</time></trkpt><trkpt lat="44.559387" lon="33.950951"><ele>255.0</ele><time>2011-10-11T09:52:53.0000000+00:00</time></trkpt><trkpt lat="44.559044" lon="33.951378"><ele>254.4</ele><time>2011-10-11T09:52:58.0000000+00:00</time></trkpt><trkpt lat="44.558636" lon="33.951736"><ele>255.5</ele><time>2011-10-11T09:53:03.0000000+00:00</time></trkpt><trkpt lat="44.55825" lon="33.952126"><ele>255.9</ele><time>2011-10-11T09:53:08.0000000+00:00</time></trkpt><trkpt lat="44.557854" lon="33.952435"><ele>255.8</ele><time>2011-10-11T09:53:13.0000000+00:00</time></trkpt><trkpt lat="44.557411" lon="33.952526"><ele>256.8</ele><time>2011-10-11T09:53:18.0000000+00:00</time></trkpt><trkpt lat="44.5569" lon="33.952633"><ele>256.9</ele><time>2011-10-11T09:53:23.0000000+00:00</time></trkpt><trkpt lat="44.556385" lon="33.952774"><ele>255.9</ele><time>2011-10-11T09:53:28.0000000+00:00</time></trkpt><trkpt lat="44.555824" lon="33.952927"><ele>256.3</ele><time>2011-10-11T09:53:33.0000000+00:00</time></trkpt><trkpt lat="44.555271" lon="33.953041"><ele>256.2</ele><time>2011-10-11T09:53:38.0000000+00:00</time></trkpt><trkpt lat="44.55476" lon="33.953178"><ele>256.3</ele><time>2011-10-11T09:53:43.0000000+00:00</time></trkpt><trkpt lat="44.554291" lon="33.953449"><ele>256.9</ele><time>2011-10-11T09:53:48.0000000+00:00</time></trkpt><trkpt lat="44.553829" lon="33.953903"><ele>257.1</ele><time>2011-10-11T09:53:53.0000000+00:00</time></trkpt><trkpt lat="44.553326" lon="33.9543"><ele>255.4</ele><time>2011-10-11T09:53:58.0000000+00:00</time></trkpt><trkpt lat="44.552887" lon="33.954723"><ele>257.4</ele><time>2011-10-11T09:54:03.0000000+00:00</time></trkpt><trkpt lat="44.552601" lon="33.955292"><ele>257.7</ele><time>2011-10-11T09:54:08.0000000+00:00</time></trkpt><trkpt lat="44.552284" lon="33.95573"><ele>258.6</ele><time>2011-10-11T09:54:13.0000000+00:00</time></trkpt><trkpt lat="44.551937" lon="33.956013"><ele>261.2</ele><time>2011-10-11T09:54:18.0000000+00:00</time></trkpt><trkpt lat="44.551598" lon="33.956131"><ele>263.0</ele><time>2011-10-11T09:54:23.0000000+00:00</time></trkpt><trkpt lat="44.551376" lon="33.956173"><ele>264.1</ele><time>2011-10-11T09:54:28.0000000+00:00</time></trkpt><trkpt lat="44.551235" lon="33.956184"><ele>264.8</ele><time>2011-10-11T09:54:33.0000000+00:00</time></trkpt><trkpt lat="44.551125" lon="33.956223"><ele>265.7</ele><time>2011-10-11T09:54:38.0000000+00:00</time></trkpt><trkpt lat="44.551067" lon="33.956242"><ele>266.3</ele><time>2011-10-11T09:54:43.0000000+00:00</time></trkpt><trkpt lat="44.550884" lon="33.956276"><ele>267.0</ele><time>2011-10-11T09:54:48.0000000+00:00</time></trkpt><trkpt lat="44.550625" lon="33.956329"><ele>267.0</ele><time>2011-10-11T09:54:53.0000000+00:00</time></trkpt><trkpt lat="44.550274" lon="33.956383"><ele>268.4</ele><time>2011-10-11T09:54:58.0000000+00:00</time></trkpt><trkpt lat="44.549847" lon="33.95649"><ele>270.1</ele><time>2011-10-11T09:55:03.0000000+00:00</time></trkpt><trkpt lat="44.549465" lon="33.956631"><ele>271.7</ele><time>2011-10-11T09:55:08.0000000+00:00</time></trkpt><trkpt lat="44.549164" lon="33.956749"><ele>272.8</ele><time>2011-10-11T09:55:13.0000000+00:00</time></trkpt><trkpt lat="44.548805" lon="33.95686"><ele>274.5</ele><time>2011-10-11T09:55:18.0000000+00:00</time></trkpt><trkpt lat="44.548424" lon="33.956993"><ele>276.6</ele><time>2011-10-11T09:55:23.0000000+00:00</time></trkpt><trkpt lat="44.548187" lon="33.957207"><ele>279.1</ele><time>2011-10-11T09:55:28.0000000+00:00</time></trkpt><trkpt lat="44.548016" lon="33.957523"><ele>278.6</ele><time>2011-10-11T09:55:33.0000000+00:00</time></trkpt><trkpt lat="44.547977" lon="33.957695"><ele>278.7</ele><time>2011-10-11T09:55:38.0000000+00:00</time></trkpt><trkpt lat="44.547993" lon="33.957848"><ele>280.9</ele><time>2011-10-11T09:55:43.0000000+00:00</time></trkpt><trkpt lat="44.547981" lon="33.958149"><ele>283.1</ele><time>2011-10-11T09:55:48.0000000+00:00</time></trkpt><trkpt lat="44.547752" lon="33.958401"><ele>284.7</ele><time>2011-10-11T09:55:53.0000000+00:00</time></trkpt><trkpt lat="44.547451" lon="33.958652"><ele>285.9</ele><time>2011-10-11T09:55:58.0000000+00:00</time></trkpt><trkpt lat="44.547192" lon="33.958805"><ele>286.9</ele><time>2011-10-11T09:56:03.0000000+00:00</time></trkpt><trkpt lat="44.546894" lon="33.958832"><ele>288.8</ele><time>2011-10-11T09:56:08.0000000+00:00</time></trkpt><trkpt lat="44.546795" lon="33.959042"><ele>290.9</ele><time>2011-10-11T09:56:13.0000000+00:00</time></trkpt><trkpt lat="44.546661" lon="33.959373"><ele>292.4</ele><time>2011-10-11T09:56:18.0000000+00:00</time></trkpt><trkpt lat="44.546425" lon="33.959572"><ele>293.5</ele><time>2011-10-11T09:56:23.0000000+00:00</time></trkpt><trkpt lat="44.546276" lon="33.959961"><ele>293.1</ele><time>2011-10-11T09:56:28.0000000+00:00</time></trkpt><trkpt lat="44.54607" lon="33.960159"><ele>293.3</ele><time>2011-10-11T09:56:33.0000000+00:00</time></trkpt><trkpt lat="44.54575" lon="33.960361"><ele>295.1</ele><time>2011-10-11T09:56:38.0000000+00:00</time></trkpt><trkpt lat="44.545422" lon="33.960705"><ele>295.3</ele><time>2011-10-11T09:56:43.0000000+00:00</time></trkpt><trkpt lat="44.545166" lon="33.960835"><ele>298.3</ele><time>2011-10-11T09:56:48.0000000+00:00</time></trkpt><trkpt lat="44.544888" lon="33.960682"><ele>300.2</ele><time>2011-10-11T09:56:53.0000000+00:00</time></trkpt><trkpt lat="44.544544" lon="33.960625"><ele>301.4</ele><time>2011-10-11T09:56:58.0000000+00:00</time></trkpt><trkpt lat="44.544167" lon="33.960423"><ele>302.5</ele><time>2011-10-11T09:57:03.0000000+00:00</time></trkpt><trkpt lat="44.543869" lon="33.960224"><ele>302.8</ele><time>2011-10-11T09:57:08.0000000+00:00</time></trkpt><trkpt lat="44.543655" lon="33.960396"><ele>304.7</ele><time>2011-10-11T09:57:13.0000000+00:00</time></trkpt><trkpt lat="44.543495" lon="33.960197"><ele>306.2</ele><time>2011-10-11T09:57:18.0000000+00:00</time></trkpt><trkpt lat="44.543327" lon="33.959972"><ele>307.9</ele><time>2011-10-11T09:57:23.0000000+00:00</time></trkpt><trkpt lat="44.543045" lon="33.96006"><ele>309.6</ele><time>2011-10-11T09:57:28.0000000+00:00</time></trkpt><trkpt lat="44.542805" lon="33.96022"><ele>311.6</ele><time>2011-10-11T09:57:33.0000000+00:00</time></trkpt><trkpt lat="44.542816" lon="33.96056"><ele>316.1</ele><time>2011-10-11T09:57:38.0000000+00:00</time></trkpt><trkpt lat="44.543072" lon="33.960979"><ele>322.2</ele><time>2011-10-11T09:57:43.0000000+00:00</time></trkpt><trkpt lat="44.543037" lon="33.961269"><ele>326.4</ele><time>2011-10-11T09:57:48.0000000+00:00</time></trkpt><trkpt lat="44.54282" lon="33.961483"><ele>329.9</ele><time>2011-10-11T09:57:53.0000000+00:00</time></trkpt><trkpt lat="44.542603" lon="33.961788"><ele>333.8</ele><time>2011-10-11T09:57:58.0000000+00:00</time></trkpt><trkpt lat="44.542286" lon="33.962177"><ele>337.1</ele><time>2011-10-11T09:58:03.0000000+00:00</time></trkpt><trkpt lat="44.541935" lon="33.962624"><ele>339.4</ele><time>2011-10-11T09:58:08.0000000+00:00</time></trkpt><trkpt lat="44.54155" lon="33.962814"><ele>338.2</ele><time>2011-10-11T09:58:13.0000000+00:00</time></trkpt><trkpt lat="44.541214" lon="33.963245"><ele>336.0</ele><time>2011-10-11T09:58:18.0000000+00:00</time></trkpt><trkpt lat="44.540871" lon="33.963604"><ele>334.4</ele><time>2011-10-11T09:58:23.0000000+00:00</time></trkpt><trkpt lat="44.540665" lon="33.964203"><ele>333.4</ele><time>2011-10-11T09:58:28.0000000+00:00</time></trkpt><trkpt lat="44.540356" lon="33.964668"><ele>332.6</ele><time>2011-10-11T09:58:33.0000000+00:00</time></trkpt><trkpt lat="44.540127" lon="33.964928"><ele>330.6</ele><time>2011-10-11T09:58:38.0000000+00:00</time></trkpt><trkpt lat="44.540028" lon="33.965038"><ele>331.1</ele><time>2011-10-11T09:58:43.0000000+00:00</time></trkpt><trkpt lat="44.539799" lon="33.965023"><ele>331.7</ele><time>2011-10-11T09:58:48.0000000+00:00</time></trkpt><trkpt lat="44.539463" lon="33.965168"><ele>333.5</ele><time>2011-10-11T09:58:53.0000000+00:00</time></trkpt><trkpt lat="44.539173" lon="33.965553"><ele>333.5</ele><time>2011-10-11T09:58:58.0000000+00:00</time></trkpt><trkpt lat="44.539185" lon="33.966133"><ele>333.3</ele><time>2011-10-11T09:59:03.0000000+00:00</time></trkpt><trkpt lat="44.539299" lon="33.966694"><ele>331.9</ele><time>2011-10-11T09:59:08.0000000+00:00</time></trkpt><trkpt lat="44.539043" lon="33.967022"><ele>330.9</ele><time>2011-10-11T09:59:13.0000000+00:00</time></trkpt><trkpt lat="44.538826" lon="33.967339"><ele>331.9</ele><time>2011-10-11T09:59:18.0000000+00:00</time></trkpt><trkpt lat="44.538662" lon="33.967541"><ele>334.7</ele><time>2011-10-11T09:59:23.0000000+00:00</time></trkpt><trkpt lat="44.538658" lon="33.968079"><ele>338.7</ele><time>2011-10-11T09:59:28.0000000+00:00</time></trkpt><trkpt lat="44.538647" lon="33.968651"><ele>340.4</ele><time>2011-10-11T09:59:33.0000000+00:00</time></trkpt><trkpt lat="44.538364" lon="33.969021"><ele>339.3</ele><time>2011-10-11T09:59:38.0000000+00:00</time></trkpt><trkpt lat="44.538303" lon="33.969593"><ele>343.4</ele><time>2011-10-11T09:59:43.0000000+00:00</time></trkpt><trkpt lat="44.538197" lon="33.969963"><ele>341.1</ele><time>2011-10-11T09:59:48.0000000+00:00</time></trkpt><trkpt lat="44.538055" lon="33.970161"><ele>345.0</ele><time>2011-10-11T09:59:53.0000000+00:00</time></trkpt><trkpt lat="44.537792" lon="33.970306"><ele>346.0</ele><time>2011-10-11T09:59:58.0000000+00:00</time></trkpt><trkpt lat="44.537479" lon="33.970406"><ele>346.1</ele><time>2011-10-11T10:00:03.0000000+00:00</time></trkpt><trkpt lat="44.537064" lon="33.970638"><ele>347.6</ele><time>2011-10-11T10:00:08.0000000+00:00</time></trkpt><trkpt lat="44.536633" lon="33.970844"><ele>349.7</ele><time>2011-10-11T10:00:13.0000000+00:00</time></trkpt><trkpt lat="44.536293" lon="33.971107"><ele>354.8</ele><time>2011-10-11T10:00:18.0000000+00:00</time></trkpt><trkpt lat="44.535919" lon="33.971169"><ele>356.8</ele><time>2011-10-11T10:00:23.0000000+00:00</time></trkpt><trkpt lat="44.535564" lon="33.971046"><ele>359.0</ele><time>2011-10-11T10:00:28.0000000+00:00</time></trkpt><trkpt lat="44.535179" lon="33.971027"><ele>361.3</ele><time>2011-10-11T10:00:33.0000000+00:00</time></trkpt><trkpt lat="44.534882" lon="33.971165"><ele>363.6</ele><time>2011-10-11T10:00:38.0000000+00:00</time></trkpt><trkpt lat="44.534798" lon="33.971584"><ele>365.4</ele><time>2011-10-11T10:00:43.0000000+00:00</time></trkpt><trkpt lat="44.534557" lon="33.971973"><ele>363.2</ele><time>2011-10-11T10:00:48.0000000+00:00</time></trkpt><trkpt lat="44.534317" lon="33.972103"><ele>367.6</ele><time>2011-10-11T10:00:53.0000000+00:00</time></trkpt><trkpt lat="44.533852" lon="33.97226"><ele>370.3</ele><time>2011-10-11T10:00:58.0000000+00:00</time></trkpt><trkpt lat="44.533329" lon="33.972527"><ele>371.8</ele><time>2011-10-11T10:01:03.0000000+00:00</time></trkpt><trkpt lat="44.533028" lon="33.973"><ele>373.1</ele><time>2011-10-11T10:01:08.0000000+00:00</time></trkpt><trkpt lat="44.532753" lon="33.973637"><ele>373.7</ele><time>2011-10-11T10:01:13.0000000+00:00</time></trkpt><trkpt lat="44.532509" lon="33.974255"><ele>374.3</ele><time>2011-10-11T10:01:18.0000000+00:00</time></trkpt><trkpt lat="44.532257" lon="33.974754"><ele>375.2</ele><time>2011-10-11T10:01:23.0000000+00:00</time></trkpt><trkpt lat="44.531963" lon="33.974991"><ele>376.5</ele><time>2011-10-11T10:01:28.0000000+00:00</time></trkpt><trkpt lat="44.531639" lon="33.975292"><ele>377.5</ele><time>2011-10-11T10:01:33.0000000+00:00</time></trkpt><trkpt lat="44.531452" lon="33.9758"><ele>378.9</ele><time>2011-10-11T10:01:38.0000000+00:00</time></trkpt><trkpt lat="44.531216" lon="33.976177"><ele>379.6</ele><time>2011-10-11T10:01:43.0000000+00:00</time></trkpt><trkpt lat="44.530918" lon="33.976364"><ele>380.7</ele><time>2011-10-11T10:01:48.0000000+00:00</time></trkpt><trkpt lat="44.530781" lon="33.976849"><ele>381.2</ele><time>2011-10-11T10:01:53.0000000+00:00</time></trkpt><trkpt lat="44.530575" lon="33.977283"><ele>381.2</ele><time>2011-10-11T10:01:58.0000000+00:00</time></trkpt><trkpt lat="44.53022" lon="33.977551"><ele>381.9</ele><time>2011-10-11T10:02:03.0000000+00:00</time></trkpt><trkpt lat="44.5298" lon="33.977802"><ele>382.8</ele><time>2011-10-11T10:02:08.0000000+00:00</time></trkpt><trkpt lat="44.529396" lon="33.978069"><ele>383.3</ele><time>2011-10-11T10:02:13.0000000+00:00</time></trkpt><trkpt lat="44.528889" lon="33.978325"><ele>383.9</ele><time>2011-10-11T10:02:18.0000000+00:00</time></trkpt><trkpt lat="44.528404" lon="33.978649"><ele>384.6</ele><time>2011-10-11T10:02:23.0000000+00:00</time></trkpt><trkpt lat="44.527859" lon="33.978935"><ele>385.2</ele><time>2011-10-11T10:02:28.0000000+00:00</time></trkpt><trkpt lat="44.527355" lon="33.979294"><ele>385.0</ele><time>2011-10-11T10:02:33.0000000+00:00</time></trkpt><trkpt lat="44.526997" lon="33.979622"><ele>384.8</ele><time>2011-10-11T10:02:38.0000000+00:00</time></trkpt><trkpt lat="44.526711" lon="33.979904"><ele>386.2</ele><time>2011-10-11T10:02:43.0000000+00:00</time></trkpt><trkpt lat="44.526413" lon="33.980038"><ele>386.1</ele><time>2011-10-11T10:02:48.0000000+00:00</time></trkpt><trkpt lat="44.526157" lon="33.979961"><ele>387.7</ele><time>2011-10-11T10:02:53.0000000+00:00</time></trkpt><trkpt lat="44.52581" lon="33.979919"><ele>388.8</ele><time>2011-10-11T10:02:58.0000000+00:00</time></trkpt><trkpt lat="44.525486" lon="33.979992"><ele>390.0</ele><time>2011-10-11T10:03:03.0000000+00:00</time></trkpt><trkpt lat="44.52523" lon="33.980164"><ele>390.9</ele><time>2011-10-11T10:03:08.0000000+00:00</time></trkpt><trkpt lat="44.524887" lon="33.980335"><ele>392.0</ele><time>2011-10-11T10:03:13.0000000+00:00</time></trkpt><trkpt lat="44.524517" lon="33.980526"><ele>392.1</ele><time>2011-10-11T10:03:18.0000000+00:00</time></trkpt><trkpt lat="44.524155" lon="33.980728"><ele>391.8</ele><time>2011-10-11T10:03:23.0000000+00:00</time></trkpt><trkpt lat="44.523876" lon="33.981152"><ele>393.2</ele><time>2011-10-11T10:03:28.0000000+00:00</time></trkpt><trkpt lat="44.523495" lon="33.981544"><ele>393.1</ele><time>2011-10-11T10:03:33.0000000+00:00</time></trkpt><trkpt lat="44.52327" lon="33.982075"><ele>393.0</ele><time>2011-10-11T10:03:38.0000000+00:00</time></trkpt><trkpt lat="44.523159" lon="33.982662"><ele>392.3</ele><time>2011-10-11T10:03:43.0000000+00:00</time></trkpt><trkpt lat="44.522835" lon="33.982964"><ele>392.4</ele><time>2011-10-11T10:03:48.0000000+00:00</time></trkpt><trkpt lat="44.522709" lon="33.983177"><ele>394.2</ele><time>2011-10-11T10:03:53.0000000+00:00</time></trkpt><trkpt lat="44.522461" lon="33.983383"><ele>395.6</ele><time>2011-10-11T10:03:58.0000000+00:00</time></trkpt><trkpt lat="44.522221" lon="33.983543"><ele>397.6</ele><time>2011-10-11T10:04:03.0000000+00:00</time></trkpt><trkpt lat="44.521812" lon="33.983665"><ele>400.5</ele><time>2011-10-11T10:04:08.0000000+00:00</time></trkpt><trkpt lat="44.521461" lon="33.983635"><ele>401.2</ele><time>2011-10-11T10:04:13.0000000+00:00</time></trkpt><trkpt lat="44.521141" lon="33.983421"><ele>401.6</ele><time>2011-10-11T10:04:18.0000000+00:00</time></trkpt><trkpt lat="44.520733" lon="33.983562"><ele>402.8</ele><time>2011-10-11T10:04:23.0000000+00:00</time></trkpt><trkpt lat="44.520309" lon="33.983723"><ele>404.3</ele><time>2011-10-11T10:04:28.0000000+00:00</time></trkpt><trkpt lat="44.519905" lon="33.983807"><ele>404.5</ele><time>2011-10-11T10:04:33.0000000+00:00</time></trkpt><trkpt lat="44.519581" lon="33.983879"><ele>404.7</ele><time>2011-10-11T10:04:38.0000000+00:00</time></trkpt><trkpt lat="44.519379" lon="33.984043"><ele>405.4</ele><time>2011-10-11T10:04:43.0000000+00:00</time></trkpt><trkpt lat="44.519115" lon="33.984241"><ele>405.2</ele><time>2011-10-11T10:04:48.0000000+00:00</time></trkpt><trkpt lat="44.518787" lon="33.984554"><ele>403.9</ele><time>2011-10-11T10:04:53.0000000+00:00</time></trkpt><trkpt lat="44.518459" lon="33.984783"><ele>402.4</ele><time>2011-10-11T10:04:58.0000000+00:00</time></trkpt><trkpt lat="44.518291" lon="33.985134"><ele>397.6</ele><time>2011-10-11T10:05:03.0000000+00:00</time></trkpt><trkpt lat="44.518139" lon="33.98531"><ele>401.7</ele><time>2011-10-11T10:05:08.0000000+00:00</time></trkpt><trkpt lat="44.517963" lon="33.98521"><ele>403.2</ele><time>2011-10-11T10:05:13.0000000+00:00</time></trkpt><trkpt lat="44.517792" lon="33.984924"><ele>404.2</ele><time>2011-10-11T10:05:18.0000000+00:00</time></trkpt><trkpt lat="44.517712" lon="33.984737"><ele>408.0</ele><time>2011-10-11T10:05:23.0000000+00:00</time></trkpt><trkpt lat="44.517628" lon="33.984547"><ele>410.0</ele><time>2011-10-11T10:05:28.0000000+00:00</time></trkpt><trkpt lat="44.517471" lon="33.984383"><ele>413.0</ele><time>2011-10-11T10:05:33.0000000+00:00</time></trkpt><trkpt lat="44.517307" lon="33.984322"><ele>419.2</ele><time>2011-10-11T10:05:38.0000000+00:00</time></trkpt><trkpt lat="44.517185" lon="33.984291"><ele>423.2</ele><time>2011-10-11T10:05:43.0000000+00:00</time></trkpt><trkpt lat="44.517159" lon="33.984272"><ele>425.6</ele><time>2011-10-11T10:05:48.0000000+00:00</time></trkpt><trkpt lat="44.517147" lon="33.984261"><ele>427.4</ele><time>2011-10-11T10:05:53.0000000+00:00</time></trkpt><trkpt lat="44.517132" lon="33.984253"><ele>428.6</ele><time>2011-10-11T10:05:58.0000000+00:00</time></trkpt><trkpt lat="44.517117" lon="33.984241"><ele>429.5</ele><time>2011-10-11T10:06:03.0000000+00:00</time></trkpt><trkpt lat="44.517105" lon="33.984234"><ele>430.1</ele><time>2011-10-11T10:06:08.0000000+00:00</time></trkpt><trkpt lat="44.517097" lon="33.984226"><ele>430.6</ele><time>2011-10-11T10:06:13.0000000+00:00</time></trkpt><trkpt lat="44.517094" lon="33.984219"><ele>430.7</ele><time>2011-10-11T10:06:18.0000000+00:00</time></trkpt><trkpt lat="44.517094" lon="33.984211"><ele>430.6</ele><time>2011-10-11T10:06:23.0000000+00:00</time></trkpt><trkpt lat="44.517094" lon="33.984211"><ele>430.6</ele><time>2011-10-11T10:06:28.0000000+00:00</time></trkpt><trkpt lat="44.517094" lon="33.984207"><ele>430.6</ele><time>2011-10-11T10:06:33.0000000+00:00</time></trkpt><trkpt lat="44.517094" lon="33.9842"><ele>430.5</ele><time>2011-10-11T10:06:38.0000000+00:00</time></trkpt><trkpt lat="44.517101" lon="33.984192"><ele>430.5</ele><time>2011-10-11T10:06:43.0000000+00:00</time></trkpt><trkpt lat="44.517105" lon="33.984184"><ele>430.4</ele><time>2011-10-11T10:06:48.0000000+00:00</time></trkpt><trkpt lat="44.517101" lon="33.98418"><ele>430.3</ele><time>2011-10-11T10:06:53.0000000+00:00</time></trkpt><trkpt lat="44.517094" lon="33.984173"><ele>430.2</ele><time>2011-10-11T10:06:58.0000000+00:00</time></trkpt><trkpt lat="44.517094" lon="33.984165"><ele>430.1</ele><time>2011-10-11T10:07:03.0000000+00:00</time></trkpt><trkpt lat="44.517086" lon="33.98415"><ele>430.0</ele><time>2011-10-11T10:07:08.0000000+00:00</time></trkpt><trkpt lat="44.517101" lon="33.98415"><ele>429.9</ele><time>2011-10-11T10:07:13.0000000+00:00</time></trkpt><trkpt lat="44.517105" lon="33.984146"><ele>429.8</ele><time>2011-10-11T10:07:18.0000000+00:00</time></trkpt><trkpt lat="44.517094" lon="33.984169"><ele>429.2</ele><time>2011-10-11T10:07:23.0000000+00:00</time></trkpt><trkpt lat="44.517094" lon="33.984158"><ele>428.6</ele><time>2011-10-11T10:07:28.0000000+00:00</time></trkpt><trkpt lat="44.51709" lon="33.984165"><ele>428.5</ele><time>2011-10-11T10:07:33.0000000+00:00</time></trkpt><trkpt lat="44.517086" lon="33.98418"><ele>428.5</ele><time>2011-10-11T10:07:38.0000000+00:00</time></trkpt><trkpt lat="44.517082" lon="33.984192"><ele>428.5</ele><time>2011-10-11T10:07:43.0000000+00:00</time></trkpt><trkpt lat="44.517078" lon="33.984196"><ele>428.5</ele><time>2011-10-11T10:07:48.0000000+00:00</time></trkpt><trkpt lat="44.517097" lon="33.984276"><ele>428.4</ele><time>2011-10-11T10:07:53.0000000+00:00</time></trkpt><trkpt lat="44.517105" lon="33.984287"><ele>428.4</ele><time>2011-10-11T10:07:58.0000000+00:00</time></trkpt><trkpt lat="44.517109" lon="33.984291"><ele>428.4</ele><time>2011-10-11T10:08:03.0000000+00:00</time></trkpt><trkpt lat="44.517117" lon="33.984291"><ele>428.4</ele><time>2011-10-11T10:08:08.0000000+00:00</time></trkpt><trkpt lat="44.517124" lon="33.984291"><ele>428.4</ele><time>2011-10-11T10:08:13.0000000+00:00</time></trkpt><trkpt lat="44.517128" lon="33.984291"><ele>428.4</ele><time>2011-10-11T10:08:18.0000000+00:00</time></trkpt><trkpt lat="44.517128" lon="33.984287"><ele>428.4</ele><time>2011-10-11T10:08:23.0000000+00:00</time></trkpt><trkpt lat="44.517128" lon="33.984291"><ele>428.5</ele><time>2011-10-11T10:08:28.0000000+00:00</time></trkpt><trkpt lat="44.517132" lon="33.984291"><ele>428.5</ele><time>2011-10-11T10:08:33.0000000+00:00</time></trkpt><trkpt lat="44.517132" lon="33.984291"><ele>428.5</ele><time>2011-10-11T10:08:38.0000000+00:00</time></trkpt><trkpt lat="44.517132" lon="33.984291"><ele>428.5</ele><time>2011-10-11T10:08:43.0000000+00:00</time></trkpt><trkpt lat="44.517132" lon="33.984291"><ele>428.6</ele><time>2011-10-11T10:08:48.0000000+00:00</time></trkpt><trkpt lat="44.517132" lon="33.984291"><ele>428.6</ele><time>2011-10-11T10:08:53.0000000+00:00</time></trkpt><trkpt lat="44.517132" lon="33.984291"><ele>428.7</ele><time>2011-10-11T10:08:58.0000000+00:00</time></trkpt><trkpt lat="44.517136" lon="33.984291"><ele>428.7</ele><time>2011-10-11T10:09:03.0000000+00:00</time></trkpt><trkpt lat="44.517136" lon="33.984291"><ele>428.7</ele><time>2011-10-11T10:09:08.0000000+00:00</time></trkpt><trkpt lat="44.517136" lon="33.984291"><ele>428.7</ele><time>2011-10-11T10:09:13.0000000+00:00</time></trkpt><trkpt lat="44.517132" lon="33.984291"><ele>428.7</ele><time>2011-10-11T10:09:18.0000000+00:00</time></trkpt><trkpt lat="44.517132" lon="33.984291"><ele>428.7</ele><time>2011-10-11T10:09:23.0000000+00:00</time></trkpt><trkpt lat="44.517132" lon="33.984291"><ele>428.7</ele><time>2011-10-11T10:09:28.0000000+00:00</time></trkpt><trkpt lat="44.517132" lon="33.984291"><ele>428.6</ele><time>2011-10-11T10:09:33.0000000+00:00</time></trkpt><trkpt lat="44.517136" lon="33.984295"><ele>428.7</ele><time>2011-10-11T10:09:38.0000000+00:00</time></trkpt><trkpt lat="44.517132" lon="33.984299"><ele>428.6</ele><time>2011-10-11T10:09:43.0000000+00:00</time></trkpt><trkpt lat="44.517136" lon="33.984299"><ele>428.6</ele><time>2011-10-11T10:09:48.0000000+00:00</time></trkpt><trkpt lat="44.517139" lon="33.984303"><ele>428.6</ele><time>2011-10-11T10:09:53.0000000+00:00</time></trkpt><trkpt lat="44.517159" lon="33.984299"><ele>428.4</ele><time>2011-10-11T10:09:58.0000000+00:00</time></trkpt><trkpt lat="44.517178" lon="33.984295"><ele>428.3</ele><time>2011-10-11T10:10:03.0000000+00:00</time></trkpt><trkpt lat="44.517185" lon="33.984291"><ele>428.4</ele><time>2011-10-11T10:10:08.0000000+00:00</time></trkpt><trkpt lat="44.517193" lon="33.984283"><ele>428.4</ele><time>2011-10-11T10:10:13.0000000+00:00</time></trkpt><trkpt lat="44.5172" lon="33.984276"><ele>428.4</ele><time>2011-10-11T10:10:18.0000000+00:00</time></trkpt><trkpt lat="44.517208" lon="33.984268"><ele>428.4</ele><time>2011-10-11T10:10:23.0000000+00:00</time></trkpt><trkpt lat="44.517212" lon="33.984268"><ele>428.4</ele><time>2011-10-11T10:10:28.0000000+00:00</time></trkpt><trkpt lat="44.517216" lon="33.984268"><ele>428.4</ele><time>2011-10-11T10:10:33.0000000+00:00</time></trkpt><trkpt lat="44.517216" lon="33.984268"><ele>428.5</ele><time>2011-10-11T10:10:38.0000000+00:00</time></trkpt><trkpt lat="44.517216" lon="33.984268"><ele>428.5</ele><time>2011-10-11T10:10:43.0000000+00:00</time></trkpt><trkpt lat="44.51722" lon="33.984272"><ele>428.5</ele><time>2011-10-11T10:10:48.0000000+00:00</time></trkpt><trkpt lat="44.51722" lon="33.984272"><ele>428.6</ele><time>2011-10-11T10:10:53.0000000+00:00</time></trkpt><trkpt lat="44.51722" lon="33.984272"><ele>428.5</ele><time>2011-10-11T10:10:58.0000000+00:00</time></trkpt><trkpt lat="44.51722" lon="33.984272"><ele>428.4</ele><time>2011-10-11T10:11:03.0000000+00:00</time></trkpt><trkpt lat="44.517223" lon="33.984268"><ele>428.4</ele><time>2011-10-11T10:11:08.0000000+00:00</time></trkpt><trkpt lat="44.517227" lon="33.984264"><ele>428.3</ele><time>2011-10-11T10:11:13.0000000+00:00</time></trkpt><trkpt lat="44.517223" lon="33.984268"><ele>428.2</ele><time>2011-10-11T10:11:18.0000000+00:00</time></trkpt><trkpt lat="44.51722" lon="33.984272"><ele>428.2</ele><time>2011-10-11T10:11:23.0000000+00:00</time></trkpt><trkpt lat="44.517212" lon="33.984276"><ele>428.2</ele><time>2011-10-11T10:11:28.0000000+00:00</time></trkpt><trkpt lat="44.517208" lon="33.984276"><ele>428.2</ele><time>2011-10-11T10:11:33.0000000+00:00</time></trkpt><trkpt lat="44.517204" lon="33.984276"><ele>428.1</ele><time>2011-10-11T10:11:38.0000000+00:00</time></trkpt><trkpt lat="44.517197" lon="33.984268"><ele>427.5</ele><time>2011-10-11T10:11:43.0000000+00:00</time></trkpt><trkpt lat="44.517178" lon="33.984283"><ele>426.9</ele><time>2011-10-11T10:11:48.0000000+00:00</time></trkpt><trkpt lat="44.517162" lon="33.984283"><ele>422.8</ele><time>2011-10-11T10:11:53.0000000+00:00</time></trkpt><trkpt lat="44.517143" lon="33.984299"><ele>421.6</ele><time>2011-10-11T10:11:58.0000000+00:00</time></trkpt><trkpt lat="44.517132" lon="33.984329"><ele>420.9</ele><time>2011-10-11T10:12:03.0000000+00:00</time></trkpt><trkpt lat="44.517132" lon="33.984318"><ele>420.3</ele><time>2011-10-11T10:12:08.0000000+00:00</time></trkpt><trkpt lat="44.517124" lon="33.984318"><ele>419.8</ele><time>2011-10-11T10:12:13.0000000+00:00</time></trkpt><trkpt lat="44.517097" lon="33.984341"><ele>419.2</ele><time>2011-10-11T10:12:18.0000000+00:00</time></trkpt><trkpt lat="44.517082" lon="33.984337"><ele>417.8</ele><time>2011-10-11T10:12:23.0000000+00:00</time></trkpt><trkpt lat="44.517078" lon="33.984337"><ele>417.8</ele><time>2011-10-11T10:12:28.0000000+00:00</time></trkpt><trkpt lat="44.517082" lon="33.984333"><ele>417.7</ele><time>2011-10-11T10:12:33.0000000+00:00</time></trkpt><trkpt lat="44.517086" lon="33.984333"><ele>417.6</ele><time>2011-10-11T10:12:38.0000000+00:00</time></trkpt><trkpt lat="44.51709" lon="33.984322"><ele>417.5</ele><time>2011-10-11T10:12:43.0000000+00:00</time></trkpt><trkpt lat="44.517094" lon="33.984318"><ele>417.4</ele><time>2011-10-11T10:12:48.0000000+00:00</time></trkpt><trkpt lat="44.517094" lon="33.984314"><ele>417.4</ele><time>2011-10-11T10:12:53.0000000+00:00</time></trkpt><trkpt lat="44.517094" lon="33.984314"><ele>417.4</ele><time>2011-10-11T10:12:58.0000000+00:00</time></trkpt><trkpt lat="44.517097" lon="33.984306"><ele>417.4</ele><time>2011-10-11T10:13:03.0000000+00:00</time></trkpt><trkpt lat="44.517097" lon="33.984303"><ele>417.3</ele><time>2011-10-11T10:13:08.0000000+00:00</time></trkpt><trkpt lat="44.517094" lon="33.984303"><ele>417.3</ele><time>2011-10-11T10:13:13.0000000+00:00</time></trkpt><trkpt lat="44.517086" lon="33.984303"><ele>417.3</ele><time>2011-10-11T10:13:18.0000000+00:00</time></trkpt><trkpt lat="44.51709" lon="33.984299"><ele>417.3</ele><time>2011-10-11T10:13:23.0000000+00:00</time></trkpt><trkpt lat="44.517094" lon="33.984306"><ele>417.3</ele><time>2011-10-11T10:13:28.0000000+00:00</time></trkpt><trkpt lat="44.517094" lon="33.984303"><ele>417.2</ele><time>2011-10-11T10:13:33.0000000+00:00</time></trkpt><trkpt lat="44.517101" lon="33.984306"><ele>417.2</ele><time>2011-10-11T10:13:38.0000000+00:00</time></trkpt><trkpt lat="44.517109" lon="33.984303"><ele>417.2</ele><time>2011-10-11T10:13:43.0000000+00:00</time></trkpt><trkpt lat="44.517113" lon="33.984295"><ele>417.1</ele><time>2011-10-11T10:13:48.0000000+00:00</time></trkpt><trkpt lat="44.517113" lon="33.984295"><ele>417.1</ele><time>2011-10-11T10:13:53.0000000+00:00</time></trkpt><trkpt lat="44.517117" lon="33.984291"><ele>417.0</ele><time>2011-10-11T10:13:58.0000000+00:00</time></trkpt><trkpt lat="44.51712" lon="33.984287"><ele>416.9</ele><time>2011-10-11T10:14:03.0000000+00:00</time></trkpt><trkpt lat="44.51712" lon="33.984295"><ele>416.9</ele><time>2011-10-11T10:14:08.0000000+00:00</time></trkpt><trkpt lat="44.517143" lon="33.984283"><ele>417.1</ele><time>2011-10-11T10:14:13.0000000+00:00</time></trkpt><trkpt lat="44.517181" lon="33.984257"><ele>417.1</ele><time>2011-10-11T10:14:18.0000000+00:00</time></trkpt><trkpt lat="44.517204" lon="33.984238"><ele>416.8</ele><time>2011-10-11T10:14:23.0000000+00:00</time></trkpt><trkpt lat="44.517212" lon="33.98423"><ele>416.5</ele><time>2011-10-11T10:14:28.0000000+00:00</time></trkpt><trkpt lat="44.517223" lon="33.98423"><ele>416.4</ele><time>2011-10-11T10:14:33.0000000+00:00</time></trkpt><trkpt lat="44.517231" lon="33.98423"><ele>416.4</ele><time>2011-10-11T10:14:38.0000000+00:00</time></trkpt><trkpt lat="44.517239" lon="33.984238"><ele>416.4</ele><time>2011-10-11T10:14:43.0000000+00:00</time></trkpt><trkpt lat="44.517246" lon="33.984245"><ele>416.5</ele><time>2011-10-11T10:14:48.0000000+00:00</time></trkpt><trkpt lat="44.517254" lon="33.984253"><ele>416.6</ele><time>2011-10-11T10:14:53.0000000+00:00</time></trkpt><trkpt lat="44.517262" lon="33.984261"><ele>416.9</ele><time>2011-10-11T10:14:58.0000000+00:00</time></trkpt><trkpt lat="44.517281" lon="33.984291"><ele>418.7</ele><time>2011-10-11T10:15:03.0000000+00:00</time></trkpt><trkpt lat="44.517246" lon="33.984364"><ele>420.8</ele><time>2011-10-11T10:15:08.0000000+00:00</time></trkpt><trkpt lat="44.51725" lon="33.984367"><ele>423.2</ele><time>2011-10-11T10:15:13.0000000+00:00</time></trkpt><trkpt lat="44.51725" lon="33.984379"><ele>423.9</ele><time>2011-10-11T10:15:18.0000000+00:00</time></trkpt><trkpt lat="44.51725" lon="33.984383"><ele>425.0</ele><time>2011-10-11T10:15:23.0000000+00:00</time></trkpt><trkpt lat="44.517258" lon="33.984386"><ele>426.2</ele><time>2011-10-11T10:15:28.0000000+00:00</time></trkpt><trkpt lat="44.517265" lon="33.984394"><ele>427.3</ele><time>2011-10-11T10:15:33.0000000+00:00</time></trkpt><trkpt lat="44.517269" lon="33.984398"><ele>428.3</ele><time>2011-10-11T10:15:38.0000000+00:00</time></trkpt><trkpt lat="44.517273" lon="33.984406"><ele>429.2</ele><time>2011-10-11T10:15:43.0000000+00:00</time></trkpt><trkpt lat="44.517273" lon="33.984413"><ele>430.1</ele><time>2011-10-11T10:15:48.0000000+00:00</time></trkpt><trkpt lat="44.517273" lon="33.984417"><ele>431.0</ele><time>2011-10-11T10:15:53.0000000+00:00</time></trkpt><trkpt lat="44.517273" lon="33.984421"><ele>432.0</ele><time>2011-10-11T10:15:58.0000000+00:00</time></trkpt><trkpt lat="44.517277" lon="33.984428"><ele>432.9</ele><time>2011-10-11T10:16:03.0000000+00:00</time></trkpt><trkpt lat="44.517277" lon="33.984432"><ele>433.9</ele><time>2011-10-11T10:16:08.0000000+00:00</time></trkpt><trkpt lat="44.517277" lon="33.984436"><ele>434.8</ele><time>2011-10-11T10:16:13.0000000+00:00</time></trkpt><trkpt lat="44.517281" lon="33.984436"><ele>435.7</ele><time>2011-10-11T10:16:18.0000000+00:00</time></trkpt><trkpt lat="44.517284" lon="33.984444"><ele>436.8</ele><time>2011-10-11T10:16:23.0000000+00:00</time></trkpt><trkpt lat="44.517284" lon="33.984447"><ele>437.9</ele><time>2011-10-11T10:16:28.0000000+00:00</time></trkpt><trkpt lat="44.517288" lon="33.984451"><ele>439.0</ele><time>2011-10-11T10:16:33.0000000+00:00</time></trkpt><trkpt lat="44.517292" lon="33.984459"><ele>440.2</ele><time>2011-10-11T10:16:38.0000000+00:00</time></trkpt><trkpt lat="44.517288" lon="33.984467"><ele>441.2</ele><time>2011-10-11T10:16:43.0000000+00:00</time></trkpt><trkpt lat="44.517288" lon="33.98447"><ele>442.2</ele><time>2011-10-11T10:16:48.0000000+00:00</time></trkpt><trkpt lat="44.517265" lon="33.984463"><ele>442.5</ele><time>2011-10-11T10:16:53.0000000+00:00</time></trkpt><trkpt lat="44.517227" lon="33.984447"><ele>440.3</ele><time>2011-10-11T10:16:58.0000000+00:00</time></trkpt><trkpt lat="44.517208" lon="33.984428"><ele>437.5</ele><time>2011-10-11T10:17:03.0000000+00:00</time></trkpt><trkpt lat="44.517227" lon="33.984383"><ele>433.5</ele><time>2011-10-11T10:17:08.0000000+00:00</time></trkpt><trkpt lat="44.517235" lon="33.984344"><ele>429.8</ele><time>2011-10-11T10:17:13.0000000+00:00</time></trkpt><trkpt lat="44.517246" lon="33.984322"><ele>427.3</ele><time>2011-10-11T10:17:18.0000000+00:00</time></trkpt><trkpt lat="44.517235" lon="33.984318"><ele>425.0</ele><time>2011-10-11T10:17:23.0000000+00:00</time></trkpt><trkpt lat="44.517235" lon="33.984303"><ele>423.6</ele><time>2011-10-11T10:17:28.0000000+00:00</time></trkpt><trkpt lat="44.517246" lon="33.984276"><ele>422.2</ele><time>2011-10-11T10:17:33.0000000+00:00</time></trkpt><trkpt lat="44.517262" lon="33.984257"><ele>421.0</ele><time>2011-10-11T10:17:38.0000000+00:00</time></trkpt><trkpt lat="44.517265" lon="33.984226"><ele>418.8</ele><time>2011-10-11T10:17:43.0000000+00:00</time></trkpt><trkpt lat="44.517242" lon="33.984215"><ele>417.6</ele><time>2011-10-11T10:17:48.0000000+00:00</time></trkpt><trkpt lat="44.517242" lon="33.984211"><ele>416.5</ele><time>2011-10-11T10:17:53.0000000+00:00</time></trkpt><trkpt lat="44.517239" lon="33.984215"><ele>415.4</ele><time>2011-10-11T10:17:58.0000000+00:00</time></trkpt><trkpt lat="44.517231" lon="33.984219"><ele>414.5</ele><time>2011-10-11T10:18:03.0000000+00:00</time></trkpt><trkpt lat="44.517189" lon="33.9842"><ele>415.8</ele><time>2011-10-11T10:18:08.0000000+00:00</time></trkpt><trkpt lat="44.517159" lon="33.984207"><ele>417.4</ele><time>2011-10-11T10:18:13.0000000+00:00</time></trkpt><trkpt lat="44.517136" lon="33.984238"><ele>416.8</ele><time>2011-10-11T10:18:18.0000000+00:00</time></trkpt><trkpt lat="44.517094" lon="33.984203"><ele>415.9</ele><time>2011-10-11T10:18:23.0000000+00:00</time></trkpt><trkpt lat="44.517105" lon="33.984203"><ele>416.1</ele><time>2011-10-11T10:18:28.0000000+00:00</time></trkpt><trkpt lat="44.517105" lon="33.984241"><ele>417.0</ele><time>2011-10-11T10:18:33.0000000+00:00</time></trkpt><trkpt lat="44.517082" lon="33.984268"><ele>416.5</ele><time>2011-10-11T10:18:38.0000000+00:00</time></trkpt><trkpt lat="44.517086" lon="33.984303"><ele>416.0</ele><time>2011-10-11T10:18:43.0000000+00:00</time></trkpt><trkpt lat="44.517094" lon="33.984329"><ele>415.6</ele><time>2011-10-11T10:18:48.0000000+00:00</time></trkpt><trkpt lat="44.517086" lon="33.984333"><ele>415.1</ele><time>2011-10-11T10:18:53.0000000+00:00</time></trkpt><trkpt lat="44.51709" lon="33.984303"><ele>414.2</ele><time>2011-10-11T10:18:58.0000000+00:00</time></trkpt><trkpt lat="44.517105" lon="33.984287"><ele>413.0</ele><time>2011-10-11T10:19:03.0000000+00:00</time></trkpt><trkpt lat="44.517124" lon="33.984287"><ele>413.6</ele><time>2011-10-11T10:19:08.0000000+00:00</time></trkpt><trkpt lat="44.517143" lon="33.984276"><ele>414.1</ele><time>2011-10-11T10:19:13.0000000+00:00</time></trkpt><trkpt lat="44.51717" lon="33.984249"><ele>415.1</ele><time>2011-10-11T10:19:18.0000000+00:00</time></trkpt><trkpt lat="44.517204" lon="33.984264"><ele>416.6</ele><time>2011-10-11T10:19:23.0000000+00:00</time></trkpt><trkpt lat="44.517197" lon="33.984299"><ele>417.7</ele><time>2011-10-11T10:19:28.0000000+00:00</time></trkpt><trkpt lat="44.517174" lon="33.984303"><ele>418.4</ele><time>2011-10-11T10:19:33.0000000+00:00</time></trkpt><trkpt lat="44.51717" lon="33.984314"><ele>418.9</ele><time>2011-10-11T10:19:38.0000000+00:00</time></trkpt><trkpt lat="44.517109" lon="33.984303"><ele>416.8</ele><time>2011-10-11T10:19:43.0000000+00:00</time></trkpt><trkpt lat="44.517097" lon="33.984283"><ele>415.6</ele><time>2011-10-11T10:19:48.0000000+00:00</time></trkpt><trkpt lat="44.51709" lon="33.98428"><ele>415.5</ele><time>2011-10-11T10:19:53.0000000+00:00</time></trkpt><trkpt lat="44.51709" lon="33.98428"><ele>414.7</ele><time>2011-10-11T10:19:58.0000000+00:00</time></trkpt><trkpt lat="44.517086" lon="33.984283"><ele>414.6</ele><time>2011-10-11T10:20:03.0000000+00:00</time></trkpt><trkpt lat="44.517082" lon="33.984287"><ele>414.6</ele><time>2011-10-11T10:20:08.0000000+00:00</time></trkpt><trkpt lat="44.517082" lon="33.984291"><ele>414.6</ele><time>2011-10-11T10:20:13.0000000+00:00</time></trkpt><trkpt lat="44.517078" lon="33.984291"><ele>414.6</ele><time>2011-10-11T10:20:18.0000000+00:00</time></trkpt><trkpt lat="44.517082" lon="33.984291"><ele>414.6</ele><time>2011-10-11T10:20:23.0000000+00:00</time></trkpt><trkpt lat="44.517082" lon="33.984291"><ele>414.6</ele><time>2011-10-11T10:20:28.0000000+00:00</time></trkpt><trkpt lat="44.517082" lon="33.984287"><ele>414.6</ele><time>2011-10-11T10:20:33.0000000+00:00</time></trkpt><trkpt lat="44.517082" lon="33.984287"><ele>414.6</ele><time>2011-10-11T10:20:38.0000000+00:00</time></trkpt><trkpt lat="44.517082" lon="33.984287"><ele>414.5</ele><time>2011-10-11T10:20:43.0000000+00:00</time></trkpt><trkpt lat="44.517082" lon="33.984287"><ele>414.5</ele><time>2011-10-11T10:20:48.0000000+00:00</time></trkpt><trkpt lat="44.517082" lon="33.984283"><ele>414.5</ele><time>2011-10-11T10:20:53.0000000+00:00</time></trkpt><trkpt lat="44.517082" lon="33.984283"><ele>414.4</ele><time>2011-10-11T10:20:58.0000000+00:00</time></trkpt><trkpt lat="44.517082" lon="33.984283"><ele>414.5</ele><time>2011-10-11T10:21:03.0000000+00:00</time></trkpt><trkpt lat="44.517082" lon="33.984283"><ele>414.5</ele><time>2011-10-11T10:21:08.0000000+00:00</time></trkpt><trkpt lat="44.517082" lon="33.98428"><ele>414.5</ele><time>2011-10-11T10:21:13.0000000+00:00</time></trkpt><trkpt lat="44.517082" lon="33.98428"><ele>414.5</ele><time>2011-10-11T10:21:18.0000000+00:00</time></trkpt><trkpt lat="44.517082" lon="33.98428"><ele>414.5</ele><time>2011-10-11T10:21:23.0000000+00:00</time></trkpt><trkpt lat="44.517082" lon="33.984276"><ele>414.6</ele><time>2011-10-11T10:21:28.0000000+00:00</time></trkpt><trkpt lat="44.517082" lon="33.984276"><ele>414.6</ele><time>2011-10-11T10:21:33.0000000+00:00</time></trkpt><trkpt lat="44.517082" lon="33.984276"><ele>414.6</ele><time>2011-10-11T10:21:38.0000000+00:00</time></trkpt><trkpt lat="44.517078" lon="33.984276"><ele>414.6</ele><time>2011-10-11T10:21:43.0000000+00:00</time></trkpt><trkpt lat="44.517078" lon="33.984276"><ele>414.6</ele><time>2011-10-11T10:21:48.0000000+00:00</time></trkpt><trkpt lat="44.517078" lon="33.984276"><ele>414.7</ele><time>2011-10-11T10:21:53.0000000+00:00</time></trkpt><trkpt lat="44.517078" lon="33.984276"><ele>414.7</ele><time>2011-10-11T10:21:58.0000000+00:00</time></trkpt><trkpt lat="44.517078" lon="33.984272"><ele>414.8</ele><time>2011-10-11T10:22:03.0000000+00:00</time></trkpt><trkpt lat="44.517078" lon="33.984272"><ele>414.8</ele><time>2011-10-11T10:22:08.0000000+00:00</time></trkpt><trkpt lat="44.517078" lon="33.984272"><ele>414.8</ele><time>2011-10-11T10:22:13.0000000+00:00</time></trkpt><trkpt lat="44.517078" lon="33.984272"><ele>414.8</ele><time>2011-10-11T10:22:18.0000000+00:00</time></trkpt><trkpt lat="44.517078" lon="33.984272"><ele>414.8</ele><time>2011-10-11T10:22:23.0000000+00:00</time></trkpt><trkpt lat="44.517078" lon="33.984272"><ele>414.8</ele><time>2011-10-11T10:22:28.0000000+00:00</time></trkpt><trkpt lat="44.517078" lon="33.984272"><ele>414.8</ele><time>2011-10-11T10:22:33.0000000+00:00</time></trkpt><trkpt lat="44.517078" lon="33.984268"><ele>414.8</ele><time>2011-10-11T10:22:38.0000000+00:00</time></trkpt><trkpt lat="44.517078" lon="33.984268"><ele>414.8</ele><time>2011-10-11T10:22:43.0000000+00:00</time></trkpt><trkpt lat="44.517078" lon="33.984268"><ele>414.8</ele><time>2011-10-11T10:22:48.0000000+00:00</time></trkpt><trkpt lat="44.517078" lon="33.984268"><ele>414.8</ele><time>2011-10-11T10:22:53.0000000+00:00</time></trkpt><trkpt lat="44.517078" lon="33.984264"><ele>414.9</ele><time>2011-10-11T10:22:58.0000000+00:00</time></trkpt><trkpt lat="44.517078" lon="33.984264"><ele>414.9</ele><time>2011-10-11T10:23:03.0000000+00:00</time></trkpt><trkpt lat="44.517075" lon="33.984264"><ele>414.9</ele><time>2011-10-11T10:23:08.0000000+00:00</time></trkpt><trkpt lat="44.517075" lon="33.984264"><ele>414.9</ele><time>2011-10-11T10:23:13.0000000+00:00</time></trkpt><trkpt lat="44.517075" lon="33.984264"><ele>415.0</ele><time>2011-10-11T10:23:18.0000000+00:00</time></trkpt><trkpt lat="44.517075" lon="33.984264"><ele>415.1</ele><time>2011-10-11T10:23:23.0000000+00:00</time></trkpt><trkpt lat="44.517075" lon="33.984261"><ele>415.1</ele><time>2011-10-11T10:23:28.0000000+00:00</time></trkpt><trkpt lat="44.517075" lon="33.984261"><ele>415.1</ele><time>2011-10-11T10:23:33.0000000+00:00</time></trkpt><trkpt lat="44.517075" lon="33.984261"><ele>415.2</ele><time>2011-10-11T10:23:38.0000000+00:00</time></trkpt><trkpt lat="44.517075" lon="33.984261"><ele>415.2</ele><time>2011-10-11T10:23:43.0000000+00:00</time></trkpt><trkpt lat="44.517075" lon="33.984261"><ele>415.2</ele><time>2011-10-11T10:23:48.0000000+00:00</time></trkpt><trkpt lat="44.517075" lon="33.984261"><ele>415.3</ele><time>2011-10-11T10:23:53.0000000+00:00</time></trkpt><trkpt lat="44.517075" lon="33.984261"><ele>415.3</ele><time>2011-10-11T10:23:58.0000000+00:00</time></trkpt><trkpt lat="44.517075" lon="33.984261"><ele>415.2</ele><time>2011-10-11T10:24:03.0000000+00:00</time></trkpt><trkpt lat="44.517075" lon="33.984261"><ele>415.2</ele><time>2011-10-11T10:24:08.0000000+00:00</time></trkpt><trkpt lat="44.517075" lon="33.984261"><ele>415.1</ele><time>2011-10-11T10:24:13.0000000+00:00</time></trkpt><trkpt lat="44.517075" lon="33.984261"><ele>415.1</ele><time>2011-10-11T10:24:18.0000000+00:00</time></trkpt><trkpt lat="44.517075" lon="33.984261"><ele>415.1</ele><time>2011-10-11T10:24:23.0000000+00:00</time></trkpt><trkpt lat="44.517075" lon="33.984261"><ele>415.0</ele><time>2011-10-11T10:24:28.0000000+00:00</time></trkpt><trkpt lat="44.517075" lon="33.984261"><ele>415.0</ele><time>2011-10-11T10:24:33.0000000+00:00</time></trkpt><trkpt lat="44.517075" lon="33.984261"><ele>415.0</ele><time>2011-10-11T10:24:38.0000000+00:00</time></trkpt><trkpt lat="44.517075" lon="33.984261"><ele>415.0</ele><time>2011-10-11T10:24:43.0000000+00:00</time></trkpt><trkpt lat="44.517075" lon="33.984261"><ele>415.0</ele><time>2011-10-11T10:24:48.0000000+00:00</time></trkpt><trkpt lat="44.517075" lon="33.984261"><ele>415.0</ele><time>2011-10-11T10:24:53.0000000+00:00</time></trkpt><trkpt lat="44.517078" lon="33.984261"><ele>415.1</ele><time>2011-10-11T10:24:58.0000000+00:00</time></trkpt><trkpt lat="44.517078" lon="33.984261"><ele>415.0</ele><time>2011-10-11T10:25:03.0000000+00:00</time></trkpt><trkpt lat="44.517075" lon="33.984261"><ele>415.1</ele><time>2011-10-11T10:25:08.0000000+00:00</time></trkpt><trkpt lat="44.517075" lon="33.984261"><ele>415.2</ele><time>2011-10-11T10:25:13.0000000+00:00</time></trkpt><trkpt lat="44.517075" lon="33.984264"><ele>415.2</ele><time>2011-10-11T10:25:18.0000000+00:00</time></trkpt><trkpt lat="44.517075" lon="33.984264"><ele>415.3</ele><time>2011-10-11T10:25:23.0000000+00:00</time></trkpt><trkpt lat="44.517075" lon="33.984264"><ele>415.3</ele><time>2011-10-11T10:25:28.0000000+00:00</time></trkpt><trkpt lat="44.517075" lon="33.984264"><ele>415.3</ele><time>2011-10-11T10:25:33.0000000+00:00</time></trkpt><trkpt lat="44.517078" lon="33.984261"><ele>415.3</ele><time>2011-10-11T10:25:38.0000000+00:00</time></trkpt><trkpt lat="44.517078" lon="33.984261"><ele>415.3</ele><time>2011-10-11T10:25:43.0000000+00:00</time></trkpt><trkpt lat="44.517078" lon="33.984249"><ele>415.7</ele><time>2011-10-11T10:25:48.0000000+00:00</time></trkpt><trkpt lat="44.517086" lon="33.984249"><ele>416.0</ele><time>2011-10-11T10:25:53.0000000+00:00</time></trkpt><trkpt lat="44.517086" lon="33.984253"><ele>416.1</ele><time>2011-10-11T10:25:58.0000000+00:00</time></trkpt><trkpt lat="44.517086" lon="33.984253"><ele>416.0</ele><time>2011-10-11T10:26:03.0000000+00:00</time></trkpt><trkpt lat="44.517097" lon="33.98423"><ele>415.0</ele><time>2011-10-11T10:26:08.0000000+00:00</time></trkpt><trkpt lat="44.517097" lon="33.984211"><ele>414.9</ele><time>2011-10-11T10:26:13.0000000+00:00</time></trkpt><trkpt lat="44.517109" lon="33.984215"><ele>414.6</ele><time>2011-10-11T10:26:18.0000000+00:00</time></trkpt><trkpt lat="44.517109" lon="33.984226"><ele>414.7</ele><time>2011-10-11T10:26:23.0000000+00:00</time></trkpt><trkpt lat="44.517109" lon="33.98423"><ele>414.9</ele><time>2011-10-11T10:26:28.0000000+00:00</time></trkpt><trkpt lat="44.517113" lon="33.98423"><ele>414.9</ele><time>2011-10-11T10:26:33.0000000+00:00</time></trkpt><trkpt lat="44.517113" lon="33.984238"><ele>414.4</ele><time>2011-10-11T10:26:38.0000000+00:00</time></trkpt><trkpt lat="44.517109" lon="33.984226"><ele>415.7</ele><time>2011-10-11T10:26:43.0000000+00:00</time></trkpt><trkpt lat="44.517105" lon="33.984215"><ele>416.2</ele><time>2011-10-11T10:26:48.0000000+00:00</time></trkpt><trkpt lat="44.517101" lon="33.984215"><ele>416.2</ele><time>2011-10-11T10:26:53.0000000+00:00</time></trkpt><trkpt lat="44.517105" lon="33.984215"><ele>416.3</ele><time>2011-10-11T10:26:58.0000000+00:00</time></trkpt><trkpt lat="44.517101" lon="33.984219"><ele>416.3</ele><time>2011-10-11T10:27:03.0000000+00:00</time></trkpt><trkpt lat="44.517101" lon="33.984222"><ele>416.3</ele><time>2011-10-11T10:27:08.0000000+00:00</time></trkpt><trkpt lat="44.517101" lon="33.984226"><ele>416.3</ele><time>2011-10-11T10:27:13.0000000+00:00</time></trkpt><trkpt lat="44.517101" lon="33.984226"><ele>416.3</ele><time>2011-10-11T10:27:18.0000000+00:00</time></trkpt><trkpt lat="44.517101" lon="33.984226"><ele>416.3</ele><time>2011-10-11T10:27:23.0000000+00:00</time></trkpt><trkpt lat="44.517101" lon="33.984226"><ele>416.3</ele><time>2011-10-11T10:27:28.0000000+00:00</time></trkpt><trkpt lat="44.517101" lon="33.984226"><ele>416.3</ele><time>2011-10-11T10:27:33.0000000+00:00</time></trkpt><trkpt lat="44.517101" lon="33.984226"><ele>416.3</ele><time>2011-10-11T10:27:38.0000000+00:00</time></trkpt><trkpt lat="44.517101" lon="33.984226"><ele>416.3</ele><time>2011-10-11T10:27:43.0000000+00:00</time></trkpt><trkpt lat="44.517101" lon="33.984226"><ele>416.3</ele><time>2011-10-11T10:27:48.0000000+00:00</time></trkpt><trkpt lat="44.517101" lon="33.984226"><ele>416.3</ele><time>2011-10-11T10:27:53.0000000+00:00</time></trkpt><trkpt lat="44.517101" lon="33.984226"><ele>416.3</ele><time>2011-10-11T10:27:58.0000000+00:00</time></trkpt><trkpt lat="44.517101" lon="33.984226"><ele>416.3</ele><time>2011-10-11T10:28:03.0000000+00:00</time></trkpt><trkpt lat="44.517101" lon="33.984222"><ele>416.3</ele><time>2011-10-11T10:28:08.0000000+00:00</time></trkpt><trkpt lat="44.517094" lon="33.984211"><ele>416.1</ele><time>2011-10-11T10:28:13.0000000+00:00</time></trkpt><trkpt lat="44.517094" lon="33.984211"><ele>416.2</ele><time>2011-10-11T10:28:18.0000000+00:00</time></trkpt><trkpt lat="44.517094" lon="33.984211"><ele>416.2</ele><time>2011-10-11T10:28:23.0000000+00:00</time></trkpt><trkpt lat="44.517094" lon="33.984207"><ele>416.2</ele><time>2011-10-11T10:28:28.0000000+00:00</time></trkpt><trkpt lat="44.51709" lon="33.984211"><ele>416.2</ele><time>2011-10-11T10:28:33.0000000+00:00</time></trkpt><trkpt lat="44.51709" lon="33.984222"><ele>416.2</ele><time>2011-10-11T10:28:38.0000000+00:00</time></trkpt><trkpt lat="44.51709" lon="33.984222"><ele>416.2</ele><time>2011-10-11T10:28:43.0000000+00:00</time></trkpt><trkpt lat="44.51709" lon="33.984222"><ele>416.2</ele><time>2011-10-11T10:28:48.0000000+00:00</time></trkpt><trkpt lat="44.517094" lon="33.984222"><ele>416.2</ele><time>2011-10-11T10:28:53.0000000+00:00</time></trkpt><trkpt lat="44.517094" lon="33.984222"><ele>416.2</ele><time>2011-10-11T10:28:58.0000000+00:00</time></trkpt><trkpt lat="44.517094" lon="33.984222"><ele>416.3</ele><time>2011-10-11T10:29:03.0000000+00:00</time></trkpt><trkpt lat="44.51709" lon="33.984226"><ele>416.3</ele><time>2011-10-11T10:29:08.0000000+00:00</time></trkpt><trkpt lat="44.51709" lon="33.984226"><ele>416.4</ele><time>2011-10-11T10:29:13.0000000+00:00</time></trkpt><trkpt lat="44.51709" lon="33.984226"><ele>416.4</ele><time>2011-10-11T10:29:18.0000000+00:00</time></trkpt><trkpt lat="44.51709" lon="33.984222"><ele>416.5</ele><time>2011-10-11T10:29:23.0000000+00:00</time></trkpt><trkpt lat="44.51709" lon="33.984226"><ele>416.5</ele><time>2011-10-11T10:29:28.0000000+00:00</time></trkpt><trkpt lat="44.51709" lon="33.984226"><ele>416.5</ele><time>2011-10-11T10:29:33.0000000+00:00</time></trkpt><trkpt lat="44.517094" lon="33.984234"><ele>416.6</ele><time>2011-10-11T10:29:38.0000000+00:00</time></trkpt><trkpt lat="44.517101" lon="33.98423"><ele>417.8</ele><time>2011-10-11T10:29:43.0000000+00:00</time></trkpt><trkpt lat="44.517105" lon="33.984196"><ele>418.9</ele><time>2011-10-11T10:29:48.0000000+00:00</time></trkpt><trkpt lat="44.517132" lon="33.984158"><ele>418.3</ele><time>2011-10-11T10:29:53.0000000+00:00</time></trkpt><trkpt lat="44.517155" lon="33.98415"><ele>417.6</ele><time>2011-10-11T10:29:58.0000000+00:00</time></trkpt><trkpt lat="44.517178" lon="33.984158"><ele>417.3</ele><time>2011-10-11T10:30:03.0000000+00:00</time></trkpt><trkpt lat="44.517212" lon="33.984169"><ele>416.6</ele><time>2011-10-11T10:30:08.0000000+00:00</time></trkpt><trkpt lat="44.517212" lon="33.984173"><ele>416.6</ele><time>2011-10-11T10:30:13.0000000+00:00</time></trkpt><trkpt lat="44.517212" lon="33.984173"><ele>416.7</ele><time>2011-10-11T10:30:18.0000000+00:00</time></trkpt><trkpt lat="44.517212" lon="33.984146"><ele>416.2</ele><time>2011-10-11T10:30:23.0000000+00:00</time></trkpt><trkpt lat="44.517216" lon="33.984146"><ele>415.6</ele><time>2011-10-11T10:30:28.0000000+00:00</time></trkpt><trkpt lat="44.517216" lon="33.984142"><ele>415.6</ele><time>2011-10-11T10:30:33.0000000+00:00</time></trkpt><trkpt lat="44.517216" lon="33.984146"><ele>415.6</ele><time>2011-10-11T10:30:38.0000000+00:00</time></trkpt><trkpt lat="44.517204" lon="33.984154"><ele>415.7</ele><time>2011-10-11T10:30:43.0000000+00:00</time></trkpt><trkpt lat="44.517162" lon="33.98418"><ele>416.3</ele><time>2011-10-11T10:30:48.0000000+00:00</time></trkpt><trkpt lat="44.517159" lon="33.98415"><ele>417.2</ele><time>2011-10-11T10:30:53.0000000+00:00</time></trkpt><trkpt lat="44.517166" lon="33.984085"><ele>419.7</ele><time>2011-10-11T10:30:58.0000000+00:00</time></trkpt><trkpt lat="44.517128" lon="33.984047"><ele>420.5</ele><time>2011-10-11T10:31:03.0000000+00:00</time></trkpt><trkpt lat="44.517117" lon="33.98399"><ele>421.1</ele><time>2011-10-11T10:31:08.0000000+00:00</time></trkpt><trkpt lat="44.517124" lon="33.98394"><ele>421.7</ele><time>2011-10-11T10:31:13.0000000+00:00</time></trkpt><trkpt lat="44.51709" lon="33.983883"><ele>422.4</ele><time>2011-10-11T10:31:18.0000000+00:00</time></trkpt><trkpt lat="44.517036" lon="33.983849"><ele>422.6</ele><time>2011-10-11T10:31:23.0000000+00:00</time></trkpt><trkpt lat="44.516991" lon="33.983799"><ele>421.9</ele><time>2011-10-11T10:31:28.0000000+00:00</time></trkpt><trkpt lat="44.51701" lon="33.983818"><ele>421.0</ele><time>2011-10-11T10:31:33.0000000+00:00</time></trkpt><trkpt lat="44.517052" lon="33.983841"><ele>420.0</ele><time>2011-10-11T10:31:38.0000000+00:00</time></trkpt><trkpt lat="44.51709" lon="33.983868"><ele>419.6</ele><time>2011-10-11T10:31:43.0000000+00:00</time></trkpt><trkpt lat="44.51709" lon="33.983898"><ele>419.6</ele><time>2011-10-11T10:31:48.0000000+00:00</time></trkpt><trkpt lat="44.517086" lon="33.983936"><ele>420.9</ele><time>2011-10-11T10:31:53.0000000+00:00</time></trkpt><trkpt lat="44.517101" lon="33.983967"><ele>421.0</ele><time>2011-10-11T10:31:58.0000000+00:00</time></trkpt><trkpt lat="44.517082" lon="33.984013"><ele>421.2</ele><time>2011-10-11T10:32:03.0000000+00:00</time></trkpt><trkpt lat="44.517067" lon="33.984013"><ele>421.3</ele><time>2011-10-11T10:32:08.0000000+00:00</time></trkpt><trkpt lat="44.517063" lon="33.984013"><ele>421.5</ele><time>2011-10-11T10:32:13.0000000+00:00</time></trkpt><trkpt lat="44.517063" lon="33.984016"><ele>421.6</ele><time>2011-10-11T10:32:18.0000000+00:00</time></trkpt><trkpt lat="44.517067" lon="33.984016"><ele>421.6</ele><time>2011-10-11T10:32:23.0000000+00:00</time></trkpt><trkpt lat="44.517078" lon="33.984024"><ele>422.1</ele><time>2011-10-11T10:32:28.0000000+00:00</time></trkpt><trkpt lat="44.517086" lon="33.98402"><ele>421.7</ele><time>2011-10-11T10:32:33.0000000+00:00</time></trkpt><trkpt lat="44.517086" lon="33.98402"><ele>421.7</ele><time>2011-10-11T10:32:38.0000000+00:00</time></trkpt><trkpt lat="44.517109" lon="33.984016"><ele>421.0</ele><time>2011-10-11T10:32:43.0000000+00:00</time></trkpt><trkpt lat="44.517155" lon="33.984035"><ele>419.7</ele><time>2011-10-11T10:32:48.0000000+00:00</time></trkpt><trkpt lat="44.517147" lon="33.984081"><ele>418.3</ele><time>2011-10-11T10:32:53.0000000+00:00</time></trkpt><trkpt lat="44.517132" lon="33.984142"><ele>417.5</ele><time>2011-10-11T10:32:58.0000000+00:00</time></trkpt><trkpt lat="44.517101" lon="33.984196"><ele>418.7</ele><time>2011-10-11T10:33:03.0000000+00:00</time></trkpt><trkpt lat="44.517101" lon="33.984219"><ele>419.0</ele><time>2011-10-11T10:33:08.0000000+00:00</time></trkpt><trkpt lat="44.517132" lon="33.984234"><ele>420.2</ele><time>2011-10-11T10:33:13.0000000+00:00</time></trkpt><trkpt lat="44.517136" lon="33.984234"><ele>420.3</ele><time>2011-10-11T10:33:18.0000000+00:00</time></trkpt><trkpt lat="44.517124" lon="33.984226"><ele>420.6</ele><time>2011-10-11T10:33:23.0000000+00:00</time></trkpt><trkpt lat="44.517124" lon="33.984226"><ele>420.6</ele><time>2011-10-11T10:33:28.0000000+00:00</time></trkpt><trkpt lat="44.517124" lon="33.984226"><ele>420.7</ele><time>2011-10-11T10:33:33.0000000+00:00</time></trkpt><trkpt lat="44.517124" lon="33.984226"><ele>420.7</ele><time>2011-10-11T10:33:38.0000000+00:00</time></trkpt><trkpt lat="44.517124" lon="33.984226"><ele>420.7</ele><time>2011-10-11T10:33:43.0000000+00:00</time></trkpt><trkpt lat="44.517124" lon="33.984226"><ele>420.7</ele><time>2011-10-11T10:33:48.0000000+00:00</time></trkpt><trkpt lat="44.517124" lon="33.984226"><ele>420.8</ele><time>2011-10-11T10:33:53.0000000+00:00</time></trkpt><trkpt lat="44.517124" lon="33.984226"><ele>420.8</ele><time>2011-10-11T10:33:58.0000000+00:00</time></trkpt><trkpt lat="44.517124" lon="33.984226"><ele>420.8</ele><time>2011-10-11T10:34:03.0000000+00:00</time></trkpt><trkpt lat="44.517124" lon="33.984226"><ele>420.8</ele><time>2011-10-11T10:34:08.0000000+00:00</time></trkpt><trkpt lat="44.517124" lon="33.984226"><ele>420.8</ele><time>2011-10-11T10:34:13.0000000+00:00</time></trkpt><trkpt lat="44.517124" lon="33.984222"><ele>420.9</ele><time>2011-10-11T10:34:18.0000000+00:00</time></trkpt><trkpt lat="44.517124" lon="33.984222"><ele>420.9</ele><time>2011-10-11T10:34:23.0000000+00:00</time></trkpt><trkpt lat="44.517124" lon="33.984222"><ele>420.9</ele><time>2011-10-11T10:34:28.0000000+00:00</time></trkpt><trkpt lat="44.51712" lon="33.984222"><ele>420.9</ele><time>2011-10-11T10:34:33.0000000+00:00</time></trkpt><trkpt lat="44.51712" lon="33.984222"><ele>420.9</ele><time>2011-10-11T10:34:38.0000000+00:00</time></trkpt><trkpt lat="44.51712" lon="33.984222"><ele>420.9</ele><time>2011-10-11T10:34:43.0000000+00:00</time></trkpt><trkpt lat="44.517124" lon="33.984222"><ele>421.0</ele><time>2011-10-11T10:34:48.0000000+00:00</time></trkpt><trkpt lat="44.517124" lon="33.984226"><ele>420.8</ele><time>2011-10-11T10:34:53.0000000+00:00</time></trkpt><trkpt lat="44.517124" lon="33.984226"><ele>420.8</ele><time>2011-10-11T10:34:58.0000000+00:00</time></trkpt><trkpt lat="44.51712" lon="33.984219"><ele>420.0</ele><time>2011-10-11T10:35:03.0000000+00:00</time></trkpt><trkpt lat="44.517113" lon="33.984219"><ele>420.1</ele><time>2011-10-11T10:35:08.0000000+00:00</time></trkpt><trkpt lat="44.517113" lon="33.984219"><ele>420.1</ele><time>2011-10-11T10:35:13.0000000+00:00</time></trkpt><trkpt lat="44.517113" lon="33.984219"><ele>420.1</ele><time>2011-10-11T10:35:18.0000000+00:00</time></trkpt><trkpt lat="44.517113" lon="33.984219"><ele>420.1</ele><time>2011-10-11T10:35:23.0000000+00:00</time></trkpt><trkpt lat="44.517113" lon="33.984207"><ele>420.0</ele><time>2011-10-11T10:35:28.0000000+00:00</time></trkpt><trkpt lat="44.517113" lon="33.984177"><ele>419.6</ele><time>2011-10-11T10:35:33.0000000+00:00</time></trkpt><trkpt lat="44.517113" lon="33.984165"><ele>419.8</ele><time>2011-10-11T10:35:38.0000000+00:00</time></trkpt><trkpt lat="44.517113" lon="33.984161"><ele>419.7</ele><time>2011-10-11T10:35:43.0000000+00:00</time></trkpt><trkpt lat="44.517113" lon="33.984146"><ele>419.3</ele><time>2011-10-11T10:35:48.0000000+00:00</time></trkpt><trkpt lat="44.517113" lon="33.984146"><ele>419.5</ele><time>2011-10-11T10:35:53.0000000+00:00</time></trkpt><trkpt lat="44.517113" lon="33.984146"><ele>419.5</ele><time>2011-10-11T10:35:58.0000000+00:00</time></trkpt><trkpt lat="44.517113" lon="33.984146"><ele>419.6</ele><time>2011-10-11T10:36:03.0000000+00:00</time></trkpt><trkpt lat="44.517113" lon="33.984146"><ele>419.6</ele><time>2011-10-11T10:36:08.0000000+00:00</time></trkpt><trkpt lat="44.517105" lon="33.984146"><ele>419.6</ele><time>2011-10-11T10:36:13.0000000+00:00</time></trkpt><trkpt lat="44.517094" lon="33.984146"><ele>419.4</ele><time>2011-10-11T10:36:18.0000000+00:00</time></trkpt><trkpt lat="44.517086" lon="33.984154"><ele>416.9</ele><time>2011-10-11T10:36:23.0000000+00:00</time></trkpt><trkpt lat="44.51709" lon="33.984154"><ele>416.3</ele><time>2011-10-11T10:36:28.0000000+00:00</time></trkpt><trkpt lat="44.517094" lon="33.984158"><ele>415.8</ele><time>2011-10-11T10:36:33.0000000+00:00</time></trkpt><trkpt lat="44.51709" lon="33.984158"><ele>415.6</ele><time>2011-10-11T10:36:38.0000000+00:00</time></trkpt><trkpt lat="44.51709" lon="33.984158"><ele>415.6</ele><time>2011-10-11T10:36:43.0000000+00:00</time></trkpt><trkpt lat="44.51709" lon="33.984158"><ele>415.6</ele><time>2011-10-11T10:36:48.0000000+00:00</time></trkpt><trkpt lat="44.51709" lon="33.984158"><ele>415.7</ele><time>2011-10-11T10:36:53.0000000+00:00</time></trkpt><trkpt lat="44.51709" lon="33.984158"><ele>415.7</ele><time>2011-10-11T10:36:58.0000000+00:00</time></trkpt><trkpt lat="44.517082" lon="33.984161"><ele>415.9</ele><time>2011-10-11T10:37:03.0000000+00:00</time></trkpt><trkpt lat="44.517101" lon="33.984161"><ele>416.8</ele><time>2011-10-11T10:37:08.0000000+00:00</time></trkpt><trkpt lat="44.517162" lon="33.984173"><ele>417.4</ele><time>2011-10-11T10:37:13.0000000+00:00</time></trkpt><trkpt lat="44.517216" lon="33.984203"><ele>417.8</ele><time>2011-10-11T10:37:18.0000000+00:00</time></trkpt><trkpt lat="44.517235" lon="33.984238"><ele>417.9</ele><time>2011-10-11T10:37:23.0000000+00:00</time></trkpt><trkpt lat="44.51725" lon="33.984283"><ele>416.9</ele><time>2011-10-11T10:37:28.0000000+00:00</time></trkpt><trkpt lat="44.517269" lon="33.984333"><ele>413.9</ele><time>2011-10-11T10:37:33.0000000+00:00</time></trkpt><trkpt lat="44.517323" lon="33.984402"><ele>412.4</ele><time>2011-10-11T10:37:38.0000000+00:00</time></trkpt><trkpt lat="44.517361" lon="33.984463"><ele>413.5</ele><time>2011-10-11T10:37:43.0000000+00:00</time></trkpt><trkpt lat="44.517403" lon="33.984566"><ele>414.9</ele><time>2011-10-11T10:37:48.0000000+00:00</time></trkpt><trkpt lat="44.517437" lon="33.984642"><ele>416.6</ele><time>2011-10-11T10:37:53.0000000+00:00</time></trkpt><trkpt lat="44.517456" lon="33.984707"><ele>416.7</ele><time>2011-10-11T10:37:58.0000000+00:00</time></trkpt><trkpt lat="44.51746" lon="33.98481"><ele>419.5</ele><time>2011-10-11T10:38:03.0000000+00:00</time></trkpt><trkpt lat="44.51749" lon="33.984921"><ele>420.4</ele><time>2011-10-11T10:38:08.0000000+00:00</time></trkpt><trkpt lat="44.51749" lon="33.985031"><ele>421.6</ele><time>2011-10-11T10:38:13.0000000+00:00</time></trkpt><trkpt lat="44.517498" lon="33.985123"><ele>421.9</ele><time>2011-10-11T10:38:18.0000000+00:00</time></trkpt><trkpt lat="44.517532" lon="33.985218"><ele>423.2</ele><time>2011-10-11T10:38:23.0000000+00:00</time></trkpt><trkpt lat="44.51757" lon="33.985302"><ele>424.0</ele><time>2011-10-11T10:38:28.0000000+00:00</time></trkpt><trkpt lat="44.517635" lon="33.985359"><ele>422.5</ele><time>2011-10-11T10:38:33.0000000+00:00</time></trkpt><trkpt lat="44.517693" lon="33.985424"><ele>420.3</ele><time>2011-10-11T10:38:38.0000000+00:00</time></trkpt><trkpt lat="44.51775" lon="33.985489"><ele>419.6</ele><time>2011-10-11T10:38:43.0000000+00:00</time></trkpt><trkpt lat="44.517807" lon="33.985531"><ele>419.0</ele><time>2011-10-11T10:38:48.0000000+00:00</time></trkpt><trkpt lat="44.517853" lon="33.985577"><ele>418.7</ele><time>2011-10-11T10:38:53.0000000+00:00</time></trkpt><trkpt lat="44.517899" lon="33.985607"><ele>419.0</ele><time>2011-10-11T10:38:58.0000000+00:00</time></trkpt><trkpt lat="44.517948" lon="33.985645"><ele>419.5</ele><time>2011-10-11T10:39:03.0000000+00:00</time></trkpt><trkpt lat="44.517994" lon="33.985668"><ele>418.9</ele><time>2011-10-11T10:39:08.0000000+00:00</time></trkpt><trkpt lat="44.51804" lon="33.985699"><ele>418.3</ele><time>2011-10-11T10:39:13.0000000+00:00</time></trkpt><trkpt lat="44.518097" lon="33.985737"><ele>415.5</ele><time>2011-10-11T10:39:18.0000000+00:00</time></trkpt><trkpt lat="44.518147" lon="33.98579"><ele>413.1</ele><time>2011-10-11T10:39:23.0000000+00:00</time></trkpt><trkpt lat="44.518208" lon="33.985828"><ele>409.0</ele><time>2011-10-11T10:39:28.0000000+00:00</time></trkpt><trkpt lat="44.518257" lon="33.985859"><ele>406.3</ele><time>2011-10-11T10:39:33.0000000+00:00</time></trkpt><trkpt lat="44.518322" lon="33.985855"><ele>402.6</ele><time>2011-10-11T10:39:38.0000000+00:00</time></trkpt><trkpt lat="44.518356" lon="33.985847"><ele>400.2</ele><time>2011-10-11T10:39:43.0000000+00:00</time></trkpt><trkpt lat="44.518391" lon="33.98579"><ele>401.2</ele><time>2011-10-11T10:39:48.0000000+00:00</time></trkpt><trkpt lat="44.518429" lon="33.985737"><ele>400.4</ele><time>2011-10-11T10:39:53.0000000+00:00</time></trkpt><trkpt lat="44.518471" lon="33.985676"><ele>400.2</ele><time>2011-10-11T10:39:58.0000000+00:00</time></trkpt><trkpt lat="44.518509" lon="33.985615"><ele>400.0</ele><time>2011-10-11T10:40:03.0000000+00:00</time></trkpt><trkpt lat="44.518539" lon="33.98558"><ele>400.7</ele><time>2011-10-11T10:40:08.0000000+00:00</time></trkpt><trkpt lat="44.5186" lon="33.985531"><ele>399.9</ele><time>2011-10-11T10:40:13.0000000+00:00</time></trkpt><trkpt lat="44.518639" lon="33.985489"><ele>400.4</ele><time>2011-10-11T10:40:18.0000000+00:00</time></trkpt><trkpt lat="44.518681" lon="33.985451"><ele>399.7</ele><time>2011-10-11T10:40:23.0000000+00:00</time></trkpt><trkpt lat="44.51873" lon="33.985416"><ele>401.4</ele><time>2011-10-11T10:40:28.0000000+00:00</time></trkpt><trkpt lat="44.518761" lon="33.985382"><ele>400.7</ele><time>2011-10-11T10:40:33.0000000+00:00</time></trkpt><trkpt lat="44.518799" lon="33.985352"><ele>399.6</ele><time>2011-10-11T10:40:38.0000000+00:00</time></trkpt><trkpt lat="44.518822" lon="33.985363"><ele>398.8</ele><time>2011-10-11T10:40:43.0000000+00:00</time></trkpt><trkpt lat="44.518845" lon="33.985413"><ele>397.2</ele><time>2011-10-11T10:40:48.0000000+00:00</time></trkpt><trkpt lat="44.518871" lon="33.985497"><ele>397.3</ele><time>2011-10-11T10:40:53.0000000+00:00</time></trkpt><trkpt lat="44.518875" lon="33.985519"><ele>396.2</ele><time>2011-10-11T10:40:58.0000000+00:00</time></trkpt><trkpt lat="44.51889" lon="33.985535"><ele>397.3</ele><time>2011-10-11T10:41:03.0000000+00:00</time></trkpt><trkpt lat="44.518898" lon="33.985527"><ele>397.9</ele><time>2011-10-11T10:41:08.0000000+00:00</time></trkpt><trkpt lat="44.518894" lon="33.985527"><ele>398.0</ele><time>2011-10-11T10:41:13.0000000+00:00</time></trkpt><trkpt lat="44.518898" lon="33.985531"><ele>398.2</ele><time>2011-10-11T10:41:18.0000000+00:00</time></trkpt><trkpt lat="44.51889" lon="33.985546"><ele>398.8</ele><time>2011-10-11T10:41:23.0000000+00:00</time></trkpt><trkpt lat="44.51889" lon="33.985546"><ele>399.0</ele><time>2011-10-11T10:41:28.0000000+00:00</time></trkpt><trkpt lat="44.51889" lon="33.985546"><ele>399.1</ele><time>2011-10-11T10:41:33.0000000+00:00</time></trkpt><trkpt lat="44.518909" lon="33.985516"><ele>399.3</ele><time>2011-10-11T10:41:38.0000000+00:00</time></trkpt><trkpt lat="44.518921" lon="33.985523"><ele>399.5</ele><time>2011-10-11T10:41:43.0000000+00:00</time></trkpt><trkpt lat="44.518917" lon="33.985523"><ele>399.5</ele><time>2011-10-11T10:41:48.0000000+00:00</time></trkpt><trkpt lat="44.518913" lon="33.985523"><ele>399.5</ele><time>2011-10-11T10:41:53.0000000+00:00</time></trkpt><trkpt lat="44.518913" lon="33.985523"><ele>399.5</ele><time>2011-10-11T10:41:58.0000000+00:00</time></trkpt><trkpt lat="44.518909" lon="33.985527"><ele>399.6</ele><time>2011-10-11T10:42:03.0000000+00:00</time></trkpt><trkpt lat="44.518909" lon="33.985527"><ele>399.9</ele><time>2011-10-11T10:42:08.0000000+00:00</time></trkpt><trkpt lat="44.518909" lon="33.985527"><ele>399.9</ele><time>2011-10-11T10:42:13.0000000+00:00</time></trkpt><trkpt lat="44.518906" lon="33.985531"><ele>399.3</ele><time>2011-10-11T10:42:18.0000000+00:00</time></trkpt><trkpt lat="44.518902" lon="33.985538"><ele>398.0</ele><time>2011-10-11T10:42:23.0000000+00:00</time></trkpt><trkpt lat="44.518898" lon="33.985535"><ele>397.5</ele><time>2011-10-11T10:42:28.0000000+00:00</time></trkpt><trkpt lat="44.518906" lon="33.985558"><ele>396.4</ele><time>2011-10-11T10:42:33.0000000+00:00</time></trkpt><trkpt lat="44.518906" lon="33.985558"><ele>396.3</ele><time>2011-10-11T10:42:38.0000000+00:00</time></trkpt><trkpt lat="44.518906" lon="33.985558"><ele>396.2</ele><time>2011-10-11T10:42:43.0000000+00:00</time></trkpt><trkpt lat="44.518906" lon="33.985558"><ele>396.2</ele><time>2011-10-11T10:42:48.0000000+00:00</time></trkpt><trkpt lat="44.518906" lon="33.985561"><ele>396.2</ele><time>2011-10-11T10:42:53.0000000+00:00</time></trkpt><trkpt lat="44.518906" lon="33.985558"><ele>396.2</ele><time>2011-10-11T10:42:58.0000000+00:00</time></trkpt><trkpt lat="44.518906" lon="33.985558"><ele>396.2</ele><time>2011-10-11T10:43:03.0000000+00:00</time></trkpt><trkpt lat="44.518906" lon="33.985558"><ele>396.2</ele><time>2011-10-11T10:43:08.0000000+00:00</time></trkpt><trkpt lat="44.518909" lon="33.98555"><ele>396.0</ele><time>2011-10-11T10:43:13.0000000+00:00</time></trkpt><trkpt lat="44.518909" lon="33.985542"><ele>395.7</ele><time>2011-10-11T10:43:18.0000000+00:00</time></trkpt><trkpt lat="44.518909" lon="33.985538"><ele>395.7</ele><time>2011-10-11T10:43:23.0000000+00:00</time></trkpt><trkpt lat="44.518906" lon="33.985538"><ele>395.7</ele><time>2011-10-11T10:43:28.0000000+00:00</time></trkpt><trkpt lat="44.518894" lon="33.98558"><ele>396.0</ele><time>2011-10-11T10:43:33.0000000+00:00</time></trkpt><trkpt lat="44.518871" lon="33.985638"><ele>396.1</ele><time>2011-10-11T10:43:38.0000000+00:00</time></trkpt><trkpt lat="44.518875" lon="33.98571"><ele>396.8</ele><time>2011-10-11T10:43:43.0000000+00:00</time></trkpt><trkpt lat="44.518894" lon="33.985779"><ele>398.2</ele><time>2011-10-11T10:43:48.0000000+00:00</time></trkpt><trkpt lat="44.518913" lon="33.985878"><ele>398.2</ele><time>2011-10-11T10:43:53.0000000+00:00</time></trkpt><trkpt lat="44.518921" lon="33.985935"><ele>398.6</ele><time>2011-10-11T10:43:58.0000000+00:00</time></trkpt><trkpt lat="44.518898" lon="33.985996"><ele>398.9</ele><time>2011-10-11T10:44:03.0000000+00:00</time></trkpt><trkpt lat="44.518871" lon="33.986076"><ele>399.3</ele><time>2011-10-11T10:44:08.0000000+00:00</time></trkpt><trkpt lat="44.518864" lon="33.986137"><ele>399.7</ele><time>2011-10-11T10:44:13.0000000+00:00</time></trkpt><trkpt lat="44.518875" lon="33.986164"><ele>399.9</ele><time>2011-10-11T10:44:18.0000000+00:00</time></trkpt><trkpt lat="44.518917" lon="33.986229"><ele>400.0</ele><time>2011-10-11T10:44:23.0000000+00:00</time></trkpt><trkpt lat="44.518921" lon="33.986271"><ele>400.4</ele><time>2011-10-11T10:44:28.0000000+00:00</time></trkpt><trkpt lat="44.518913" lon="33.986374"><ele>399.8</ele><time>2011-10-11T10:44:33.0000000+00:00</time></trkpt><trkpt lat="44.51894" lon="33.986454"><ele>398.0</ele><time>2011-10-11T10:44:38.0000000+00:00</time></trkpt><trkpt lat="44.51897" lon="33.986538"><ele>397.7</ele><time>2011-10-11T10:44:43.0000000+00:00</time></trkpt><trkpt lat="44.51902" lon="33.986614"><ele>397.8</ele><time>2011-10-11T10:44:48.0000000+00:00</time></trkpt><trkpt lat="44.519047" lon="33.986694"><ele>399.2</ele><time>2011-10-11T10:44:53.0000000+00:00</time></trkpt><trkpt lat="44.5191" lon="33.986759"><ele>400.9</ele><time>2011-10-11T10:44:58.0000000+00:00</time></trkpt><trkpt lat="44.519115" lon="33.986843"><ele>405.3</ele><time>2011-10-11T10:45:03.0000000+00:00</time></trkpt><trkpt lat="44.519138" lon="33.986916"><ele>405.6</ele><time>2011-10-11T10:45:08.0000000+00:00</time></trkpt><trkpt lat="44.51918" lon="33.98698"><ele>407.3</ele><time>2011-10-11T10:45:13.0000000+00:00</time></trkpt><trkpt lat="44.519211" lon="33.987057"><ele>407.9</ele><time>2011-10-11T10:45:18.0000000+00:00</time></trkpt><trkpt lat="44.519264" lon="33.987122"><ele>408.1</ele><time>2011-10-11T10:45:23.0000000+00:00</time></trkpt><trkpt lat="44.519321" lon="33.987179"><ele>407.6</ele><time>2011-10-11T10:45:28.0000000+00:00</time></trkpt><trkpt lat="44.519352" lon="33.987251"><ele>407.5</ele><time>2011-10-11T10:45:33.0000000+00:00</time></trkpt><trkpt lat="44.519386" lon="33.987339"><ele>407.6</ele><time>2011-10-11T10:45:38.0000000+00:00</time></trkpt><trkpt lat="44.519447" lon="33.987389"><ele>407.0</ele><time>2011-10-11T10:45:43.0000000+00:00</time></trkpt><trkpt lat="44.519505" lon="33.987465"><ele>406.4</ele><time>2011-10-11T10:45:48.0000000+00:00</time></trkpt><trkpt lat="44.519554" lon="33.987579"><ele>405.2</ele><time>2011-10-11T10:45:53.0000000+00:00</time></trkpt><trkpt lat="44.519566" lon="33.987656"><ele>405.5</ele><time>2011-10-11T10:45:58.0000000+00:00</time></trkpt><trkpt lat="44.519562" lon="33.987751"><ele>406.2</ele><time>2011-10-11T10:46:03.0000000+00:00</time></trkpt><trkpt lat="44.519554" lon="33.987862"><ele>406.0</ele><time>2011-10-11T10:46:08.0000000+00:00</time></trkpt><trkpt lat="44.519566" lon="33.987949"><ele>406.4</ele><time>2011-10-11T10:46:13.0000000+00:00</time></trkpt><trkpt lat="44.519585" lon="33.988026"><ele>407.2</ele><time>2011-10-11T10:46:18.0000000+00:00</time></trkpt><trkpt lat="44.5196" lon="33.988083"><ele>408.3</ele><time>2011-10-11T10:46:23.0000000+00:00</time></trkpt><trkpt lat="44.519604" lon="33.988129"><ele>408.0</ele><time>2011-10-11T10:46:28.0000000+00:00</time></trkpt><trkpt lat="44.519596" lon="33.98814"><ele>406.0</ele><time>2011-10-11T10:46:33.0000000+00:00</time></trkpt><trkpt lat="44.519566" lon="33.988182"><ele>406.0</ele><time>2011-10-11T10:46:38.0000000+00:00</time></trkpt><trkpt lat="44.519562" lon="33.988174"><ele>405.3</ele><time>2011-10-11T10:46:43.0000000+00:00</time></trkpt><trkpt lat="44.519592" lon="33.988197"><ele>406.9</ele><time>2011-10-11T10:46:48.0000000+00:00</time></trkpt><trkpt lat="44.519642" lon="33.988232"><ele>408.3</ele><time>2011-10-11T10:46:53.0000000+00:00</time></trkpt><trkpt lat="44.51968" lon="33.988289"><ele>408.5</ele><time>2011-10-11T10:46:58.0000000+00:00</time></trkpt><trkpt lat="44.519711" lon="33.988335"><ele>408.9</ele><time>2011-10-11T10:47:03.0000000+00:00</time></trkpt><trkpt lat="44.519741" lon="33.988392"><ele>409.0</ele><time>2011-10-11T10:47:08.0000000+00:00</time></trkpt><trkpt lat="44.519787" lon="33.98843"><ele>409.3</ele><time>2011-10-11T10:47:13.0000000+00:00</time></trkpt><trkpt lat="44.519833" lon="33.98848"><ele>408.4</ele><time>2011-10-11T10:47:18.0000000+00:00</time></trkpt><trkpt lat="44.519867" lon="33.988525"><ele>407.4</ele><time>2011-10-11T10:47:23.0000000+00:00</time></trkpt><trkpt lat="44.519894" lon="33.988564"><ele>407.5</ele><time>2011-10-11T10:47:28.0000000+00:00</time></trkpt><trkpt lat="44.519909" lon="33.988617"><ele>407.9</ele><time>2011-10-11T10:47:33.0000000+00:00</time></trkpt><trkpt lat="44.519901" lon="33.988632"><ele>409.1</ele><time>2011-10-11T10:47:38.0000000+00:00</time></trkpt><trkpt lat="44.519897" lon="33.98867"><ele>409.6</ele><time>2011-10-11T10:47:43.0000000+00:00</time></trkpt><trkpt lat="44.519909" lon="33.988735"><ele>409.7</ele><time>2011-10-11T10:47:48.0000000+00:00</time></trkpt><trkpt lat="44.51992" lon="33.9888"><ele>409.5</ele><time>2011-10-11T10:47:53.0000000+00:00</time></trkpt><trkpt lat="44.519913" lon="33.988834"><ele>412.6</ele><time>2011-10-11T10:47:58.0000000+00:00</time></trkpt><trkpt lat="44.519939" lon="33.988865"><ele>415.1</ele><time>2011-10-11T10:48:03.0000000+00:00</time></trkpt><trkpt lat="44.519974" lon="33.988922"><ele>417.0</ele><time>2011-10-11T10:48:08.0000000+00:00</time></trkpt><trkpt lat="44.520004" lon="33.988968"><ele>419.6</ele><time>2011-10-11T10:48:13.0000000+00:00</time></trkpt><trkpt lat="44.520031" lon="33.989052"><ele>422.2</ele><time>2011-10-11T10:48:18.0000000+00:00</time></trkpt><trkpt lat="44.520046" lon="33.989101"><ele>423.8</ele><time>2011-10-11T10:48:23.0000000+00:00</time></trkpt><trkpt lat="44.520084" lon="33.989151"><ele>425.1</ele><time>2011-10-11T10:48:28.0000000+00:00</time></trkpt><trkpt lat="44.520126" lon="33.989178"><ele>427.9</ele><time>2011-10-11T10:48:33.0000000+00:00</time></trkpt><trkpt lat="44.520157" lon="33.989197"><ele>428.2</ele><time>2011-10-11T10:48:38.0000000+00:00</time></trkpt><trkpt lat="44.520168" lon="33.989193"><ele>428.6</ele><time>2011-10-11T10:48:43.0000000+00:00</time></trkpt><trkpt lat="44.520168" lon="33.989197"><ele>430.0</ele><time>2011-10-11T10:48:48.0000000+00:00</time></trkpt><trkpt lat="44.520168" lon="33.989197"><ele>430.1</ele><time>2011-10-11T10:48:53.0000000+00:00</time></trkpt><trkpt lat="44.520168" lon="33.989197"><ele>430.1</ele><time>2011-10-11T10:48:58.0000000+00:00</time></trkpt><trkpt lat="44.520168" lon="33.989197"><ele>430.1</ele><time>2011-10-11T10:49:03.0000000+00:00</time></trkpt><trkpt lat="44.520191" lon="33.989204"><ele>430.1</ele><time>2011-10-11T10:49:08.0000000+00:00</time></trkpt><trkpt lat="44.520218" lon="33.989265"><ele>430.5</ele><time>2011-10-11T10:49:13.0000000+00:00</time></trkpt><trkpt lat="44.520222" lon="33.989273"><ele>431.4</ele><time>2011-10-11T10:49:18.0000000+00:00</time></trkpt><trkpt lat="44.520229" lon="33.989269"><ele>432.1</ele><time>2011-10-11T10:49:23.0000000+00:00</time></trkpt><trkpt lat="44.520226" lon="33.989269"><ele>432.3</ele><time>2011-10-11T10:49:28.0000000+00:00</time></trkpt><trkpt lat="44.520229" lon="33.989269"><ele>432.3</ele><time>2011-10-11T10:49:33.0000000+00:00</time></trkpt><trkpt lat="44.520226" lon="33.989269"><ele>432.4</ele><time>2011-10-11T10:49:38.0000000+00:00</time></trkpt><trkpt lat="44.520226" lon="33.989269"><ele>433.3</ele><time>2011-10-11T10:49:43.0000000+00:00</time></trkpt><trkpt lat="44.520229" lon="33.989277"><ele>434.1</ele><time>2011-10-11T10:49:48.0000000+00:00</time></trkpt><trkpt lat="44.520271" lon="33.989311"><ele>434.8</ele><time>2011-10-11T10:49:53.0000000+00:00</time></trkpt><trkpt lat="44.520302" lon="33.989338"><ele>435.2</ele><time>2011-10-11T10:49:58.0000000+00:00</time></trkpt><trkpt lat="44.52034" lon="33.989395"><ele>435.4</ele><time>2011-10-11T10:50:03.0000000+00:00</time></trkpt><trkpt lat="44.520386" lon="33.989449"><ele>435.3</ele><time>2011-10-11T10:50:08.0000000+00:00</time></trkpt><trkpt lat="44.520416" lon="33.989456"><ele>435.2</ele><time>2011-10-11T10:50:13.0000000+00:00</time></trkpt><trkpt lat="44.520443" lon="33.989491"><ele>439.4</ele><time>2011-10-11T10:50:18.0000000+00:00</time></trkpt><trkpt lat="44.520454" lon="33.989548"><ele>441.9</ele><time>2011-10-11T10:50:23.0000000+00:00</time></trkpt><trkpt lat="44.520447" lon="33.989632"><ele>442.8</ele><time>2011-10-11T10:50:28.0000000+00:00</time></trkpt><trkpt lat="44.520447" lon="33.989697"><ele>444.9</ele><time>2011-10-11T10:50:33.0000000+00:00</time></trkpt><trkpt lat="44.520447" lon="33.989761"><ele>445.5</ele><time>2011-10-11T10:50:38.0000000+00:00</time></trkpt><trkpt lat="44.520458" lon="33.989796"><ele>447.1</ele><time>2011-10-11T10:50:43.0000000+00:00</time></trkpt><trkpt lat="44.520477" lon="33.989857"><ele>449.2</ele><time>2011-10-11T10:50:48.0000000+00:00</time></trkpt><trkpt lat="44.520493" lon="33.989902"><ele>448.6</ele><time>2011-10-11T10:50:53.0000000+00:00</time></trkpt><trkpt lat="44.520504" lon="33.989948"><ele>449.0</ele><time>2011-10-11T10:50:58.0000000+00:00</time></trkpt><trkpt lat="44.520481" lon="33.989986"><ele>450.9</ele><time>2011-10-11T10:51:03.0000000+00:00</time></trkpt><trkpt lat="44.520477" lon="33.990044"><ele>452.0</ele><time>2011-10-11T10:51:08.0000000+00:00</time></trkpt><trkpt lat="44.5205" lon="33.990089"><ele>452.6</ele><time>2011-10-11T10:51:13.0000000+00:00</time></trkpt><trkpt lat="44.520546" lon="33.990158"><ele>452.3</ele><time>2011-10-11T10:51:18.0000000+00:00</time></trkpt><trkpt lat="44.520588" lon="33.990208"><ele>452.0</ele><time>2011-10-11T10:51:23.0000000+00:00</time></trkpt><trkpt lat="44.520611" lon="33.990276"><ele>452.2</ele><time>2011-10-11T10:51:28.0000000+00:00</time></trkpt><trkpt lat="44.520607" lon="33.990341"><ele>452.4</ele><time>2011-10-11T10:51:33.0000000+00:00</time></trkpt><trkpt lat="44.520588" lon="33.990406"><ele>452.3</ele><time>2011-10-11T10:51:38.0000000+00:00</time></trkpt><trkpt lat="44.520584" lon="33.990402"><ele>452.7</ele><time>2011-10-11T10:51:43.0000000+00:00</time></trkpt><trkpt lat="44.520592" lon="33.990452"><ele>453.4</ele><time>2011-10-11T10:51:48.0000000+00:00</time></trkpt><trkpt lat="44.520596" lon="33.990509"><ele>454.3</ele><time>2011-10-11T10:51:53.0000000+00:00</time></trkpt><trkpt lat="44.520603" lon="33.99057"><ele>456.7</ele><time>2011-10-11T10:51:58.0000000+00:00</time></trkpt><trkpt lat="44.520596" lon="33.990635"><ele>457.9</ele><time>2011-10-11T10:52:03.0000000+00:00</time></trkpt><trkpt lat="44.520557" lon="33.990669"><ele>459.8</ele><time>2011-10-11T10:52:08.0000000+00:00</time></trkpt><trkpt lat="44.520512" lon="33.9907"><ele>462.1</ele><time>2011-10-11T10:52:13.0000000+00:00</time></trkpt><trkpt lat="44.520504" lon="33.990765"><ele>462.5</ele><time>2011-10-11T10:52:18.0000000+00:00</time></trkpt><trkpt lat="44.520508" lon="33.990837"><ele>462.8</ele><time>2011-10-11T10:52:23.0000000+00:00</time></trkpt><trkpt lat="44.520527" lon="33.990898"><ele>463.4</ele><time>2011-10-11T10:52:28.0000000+00:00</time></trkpt><trkpt lat="44.520557" lon="33.990952"><ele>464.3</ele><time>2011-10-11T10:52:33.0000000+00:00</time></trkpt><trkpt lat="44.520576" lon="33.991005"><ele>465.3</ele><time>2011-10-11T10:52:38.0000000+00:00</time></trkpt><trkpt lat="44.520573" lon="33.991062"><ele>466.2</ele><time>2011-10-11T10:52:43.0000000+00:00</time></trkpt><trkpt lat="44.520576" lon="33.991104"><ele>467.2</ele><time>2011-10-11T10:52:48.0000000+00:00</time></trkpt><trkpt lat="44.520584" lon="33.991142"><ele>468.4</ele><time>2011-10-11T10:52:53.0000000+00:00</time></trkpt><trkpt lat="44.520584" lon="33.99115"><ele>469.6</ele><time>2011-10-11T10:52:58.0000000+00:00</time></trkpt><trkpt lat="44.520592" lon="33.991161"><ele>470.0</ele><time>2011-10-11T10:53:03.0000000+00:00</time></trkpt><trkpt lat="44.520588" lon="33.991177"><ele>470.4</ele><time>2011-10-11T10:53:08.0000000+00:00</time></trkpt><trkpt lat="44.520592" lon="33.99118"><ele>470.2</ele><time>2011-10-11T10:53:13.0000000+00:00</time></trkpt><trkpt lat="44.520592" lon="33.99118"><ele>470.2</ele><time>2011-10-11T10:53:18.0000000+00:00</time></trkpt><trkpt lat="44.520592" lon="33.99118"><ele>470.2</ele><time>2011-10-11T10:53:23.0000000+00:00</time></trkpt><trkpt lat="44.520592" lon="33.99118"><ele>470.2</ele><time>2011-10-11T10:53:28.0000000+00:00</time></trkpt><trkpt lat="44.520596" lon="33.99118"><ele>470.4</ele><time>2011-10-11T10:53:33.0000000+00:00</time></trkpt><trkpt lat="44.520588" lon="33.991169"><ele>471.2</ele><time>2011-10-11T10:53:38.0000000+00:00</time></trkpt><trkpt lat="44.520584" lon="33.99115"><ele>471.8</ele><time>2011-10-11T10:53:43.0000000+00:00</time></trkpt><trkpt lat="44.520573" lon="33.991131"><ele>472.3</ele><time>2011-10-11T10:53:48.0000000+00:00</time></trkpt><trkpt lat="44.520573" lon="33.991135"><ele>472.6</ele><time>2011-10-11T10:53:53.0000000+00:00</time></trkpt><trkpt lat="44.520569" lon="33.991123"><ele>472.5</ele><time>2011-10-11T10:53:58.0000000+00:00</time></trkpt><trkpt lat="44.520569" lon="33.991146"><ele>472.2</ele><time>2011-10-11T10:54:03.0000000+00:00</time></trkpt><trkpt lat="44.520569" lon="33.991146"><ele>472.1</ele><time>2011-10-11T10:54:08.0000000+00:00</time></trkpt><trkpt lat="44.520573" lon="33.99118"><ele>472.7</ele><time>2011-10-11T10:54:13.0000000+00:00</time></trkpt><trkpt lat="44.520584" lon="33.99123"><ele>473.8</ele><time>2011-10-11T10:54:18.0000000+00:00</time></trkpt><trkpt lat="44.520573" lon="33.991287"><ele>475.3</ele><time>2011-10-11T10:54:23.0000000+00:00</time></trkpt><trkpt lat="44.520557" lon="33.991337"><ele>476.8</ele><time>2011-10-11T10:54:28.0000000+00:00</time></trkpt><trkpt lat="44.520569" lon="33.991379"><ele>477.4</ele><time>2011-10-11T10:54:33.0000000+00:00</time></trkpt><trkpt lat="44.520576" lon="33.991421"><ele>478.4</ele><time>2011-10-11T10:54:38.0000000+00:00</time></trkpt><trkpt lat="44.520584" lon="33.991459"><ele>480.2</ele><time>2011-10-11T10:54:43.0000000+00:00</time></trkpt><trkpt lat="44.520599" lon="33.991474"><ele>481.8</ele><time>2011-10-11T10:54:48.0000000+00:00</time></trkpt><trkpt lat="44.520618" lon="33.991486"><ele>483.5</ele><time>2011-10-11T10:54:53.0000000+00:00</time></trkpt><trkpt lat="44.520638" lon="33.991508"><ele>483.6</ele><time>2011-10-11T10:54:58.0000000+00:00</time></trkpt><trkpt lat="44.520672" lon="33.991535"><ele>484.7</ele><time>2011-10-11T10:55:03.0000000+00:00</time></trkpt><trkpt lat="44.520683" lon="33.991573"><ele>485.7</ele><time>2011-10-11T10:55:08.0000000+00:00</time></trkpt><trkpt lat="44.520706" lon="33.991604"><ele>487.2</ele><time>2011-10-11T10:55:13.0000000+00:00</time></trkpt><trkpt lat="44.520741" lon="33.991638"><ele>487.1</ele><time>2011-10-11T10:55:18.0000000+00:00</time></trkpt><trkpt lat="44.520763" lon="33.991669"><ele>486.3</ele><time>2011-10-11T10:55:23.0000000+00:00</time></trkpt><trkpt lat="44.520771" lon="33.991734"><ele>487.0</ele><time>2011-10-11T10:55:28.0000000+00:00</time></trkpt><trkpt lat="44.520782" lon="33.991787"><ele>486.9</ele><time>2011-10-11T10:55:33.0000000+00:00</time></trkpt><trkpt lat="44.520786" lon="33.991848"><ele>487.5</ele><time>2011-10-11T10:55:38.0000000+00:00</time></trkpt><trkpt lat="44.520794" lon="33.99189"><ele>489.5</ele><time>2011-10-11T10:55:43.0000000+00:00</time></trkpt><trkpt lat="44.520809" lon="33.991951"><ele>490.5</ele><time>2011-10-11T10:55:48.0000000+00:00</time></trkpt><trkpt lat="44.520824" lon="33.991993"><ele>489.4</ele><time>2011-10-11T10:55:53.0000000+00:00</time></trkpt><trkpt lat="44.520832" lon="33.992039"><ele>489.2</ele><time>2011-10-11T10:55:58.0000000+00:00</time></trkpt><trkpt lat="44.520844" lon="33.9921"><ele>489.2</ele><time>2011-10-11T10:56:03.0000000+00:00</time></trkpt><trkpt lat="44.520851" lon="33.992165"><ele>489.6</ele><time>2011-10-11T10:56:08.0000000+00:00</time></trkpt><trkpt lat="44.520847" lon="33.992199"><ele>490.9</ele><time>2011-10-11T10:56:13.0000000+00:00</time></trkpt><trkpt lat="44.520836" lon="33.992237"><ele>491.6</ele><time>2011-10-11T10:56:18.0000000+00:00</time></trkpt><trkpt lat="44.520836" lon="33.992245"><ele>491.2</ele><time>2011-10-11T10:56:23.0000000+00:00</time></trkpt><trkpt lat="44.520836" lon="33.992249"><ele>491.6</ele><time>2011-10-11T10:56:28.0000000+00:00</time></trkpt><trkpt lat="44.520836" lon="33.992252"><ele>491.0</ele><time>2011-10-11T10:56:33.0000000+00:00</time></trkpt><trkpt lat="44.52084" lon="33.992249"><ele>490.9</ele><time>2011-10-11T10:56:38.0000000+00:00</time></trkpt><trkpt lat="44.520836" lon="33.992249"><ele>491.0</ele><time>2011-10-11T10:56:43.0000000+00:00</time></trkpt><trkpt lat="44.520805" lon="33.992237"><ele>490.3</ele><time>2011-10-11T10:56:48.0000000+00:00</time></trkpt><trkpt lat="44.520809" lon="33.992245"><ele>490.9</ele><time>2011-10-11T10:56:53.0000000+00:00</time></trkpt><trkpt lat="44.520813" lon="33.992245"><ele>491.1</ele><time>2011-10-11T10:56:58.0000000+00:00</time></trkpt><trkpt lat="44.520813" lon="33.992245"><ele>491.2</ele><time>2011-10-11T10:57:03.0000000+00:00</time></trkpt><trkpt lat="44.520813" lon="33.992245"><ele>491.2</ele><time>2011-10-11T10:57:08.0000000+00:00</time></trkpt><trkpt lat="44.520813" lon="33.992241"><ele>491.3</ele><time>2011-10-11T10:57:13.0000000+00:00</time></trkpt><trkpt lat="44.52076" lon="33.992256"><ele>492.6</ele><time>2011-10-11T10:57:18.0000000+00:00</time></trkpt><trkpt lat="44.520702" lon="33.992275"><ele>492.4</ele><time>2011-10-11T10:57:23.0000000+00:00</time></trkpt><trkpt lat="44.520653" lon="33.99231"><ele>494.0</ele><time>2011-10-11T10:57:28.0000000+00:00</time></trkpt><trkpt lat="44.520611" lon="33.992352"><ele>494.5</ele><time>2011-10-11T10:57:33.0000000+00:00</time></trkpt><trkpt lat="44.520573" lon="33.992371"><ele>494.8</ele><time>2011-10-11T10:57:38.0000000+00:00</time></trkpt><trkpt lat="44.52055" lon="33.992378"><ele>495.7</ele><time>2011-10-11T10:57:43.0000000+00:00</time></trkpt><trkpt lat="44.520496" lon="33.992401"><ele>496.0</ele><time>2011-10-11T10:57:48.0000000+00:00</time></trkpt><trkpt lat="44.520443" lon="33.992447"><ele>496.0</ele><time>2011-10-11T10:57:53.0000000+00:00</time></trkpt><trkpt lat="44.520393" lon="33.992493"><ele>495.5</ele><time>2011-10-11T10:57:58.0000000+00:00</time></trkpt><trkpt lat="44.520344" lon="33.992538"><ele>495.8</ele><time>2011-10-11T10:58:03.0000000+00:00</time></trkpt><trkpt lat="44.520302" lon="33.992592"><ele>496.5</ele><time>2011-10-11T10:58:08.0000000+00:00</time></trkpt><trkpt lat="44.520267" lon="33.992649"><ele>496.5</ele><time>2011-10-11T10:58:13.0000000+00:00</time></trkpt><trkpt lat="44.520233" lon="33.992699"><ele>497.3</ele><time>2011-10-11T10:58:18.0000000+00:00</time></trkpt><trkpt lat="44.520199" lon="33.992756"><ele>498.1</ele><time>2011-10-11T10:58:23.0000000+00:00</time></trkpt><trkpt lat="44.52018" lon="33.992821"><ele>498.2</ele><time>2011-10-11T10:58:28.0000000+00:00</time></trkpt><trkpt lat="44.520157" lon="33.992886"><ele>498.5</ele><time>2011-10-11T10:58:33.0000000+00:00</time></trkpt><trkpt lat="44.520149" lon="33.992966"><ele>499.2</ele><time>2011-10-11T10:58:38.0000000+00:00</time></trkpt><trkpt lat="44.520134" lon="33.993034"><ele>499.4</ele><time>2011-10-11T10:58:43.0000000+00:00</time></trkpt><trkpt lat="44.520134" lon="33.993111"><ele>499.4</ele><time>2011-10-11T10:58:48.0000000+00:00</time></trkpt><trkpt lat="44.520138" lon="33.993179"><ele>499.4</ele><time>2011-10-11T10:58:53.0000000+00:00</time></trkpt><trkpt lat="44.520142" lon="33.993237"><ele>499.0</ele><time>2011-10-11T10:58:58.0000000+00:00</time></trkpt><trkpt lat="44.520149" lon="33.993309"><ele>498.4</ele><time>2011-10-11T10:59:03.0000000+00:00</time></trkpt><trkpt lat="44.520153" lon="33.993374"><ele>498.6</ele><time>2011-10-11T10:59:08.0000000+00:00</time></trkpt><trkpt lat="44.520157" lon="33.993446"><ele>498.7</ele><time>2011-10-11T10:59:13.0000000+00:00</time></trkpt><trkpt lat="44.520164" lon="33.99353"><ele>499.5</ele><time>2011-10-11T10:59:18.0000000+00:00</time></trkpt><trkpt lat="44.520168" lon="33.993614"><ele>499.4</ele><time>2011-10-11T10:59:23.0000000+00:00</time></trkpt><trkpt lat="44.520172" lon="33.99369"><ele>499.3</ele><time>2011-10-11T10:59:28.0000000+00:00</time></trkpt><trkpt lat="44.520172" lon="33.993771"><ele>499.5</ele><time>2011-10-11T10:59:33.0000000+00:00</time></trkpt><trkpt lat="44.52018" lon="33.993851"><ele>499.9</ele><time>2011-10-11T10:59:38.0000000+00:00</time></trkpt><trkpt lat="44.52018" lon="33.993938"><ele>500.0</ele><time>2011-10-11T10:59:43.0000000+00:00</time></trkpt><trkpt lat="44.520172" lon="33.994022"><ele>498.3</ele><time>2011-10-11T10:59:48.0000000+00:00</time></trkpt><trkpt lat="44.520164" lon="33.994114"><ele>496.8</ele><time>2011-10-11T10:59:53.0000000+00:00</time></trkpt><trkpt lat="44.520149" lon="33.994202"><ele>496.7</ele><time>2011-10-11T10:59:58.0000000+00:00</time></trkpt><trkpt lat="44.520134" lon="33.994278"><ele>497.8</ele><time>2011-10-11T11:00:03.0000000+00:00</time></trkpt><trkpt lat="44.520103" lon="33.994358"><ele>497.9</ele><time>2011-10-11T11:00:08.0000000+00:00</time></trkpt><trkpt lat="44.520065" lon="33.994434"><ele>498.9</ele><time>2011-10-11T11:00:13.0000000+00:00</time></trkpt><trkpt lat="44.520031" lon="33.994503"><ele>499.2</ele><time>2011-10-11T11:00:18.0000000+00:00</time></trkpt><trkpt lat="44.519993" lon="33.994564"><ele>498.6</ele><time>2011-10-11T11:00:23.0000000+00:00</time></trkpt><trkpt lat="44.519966" lon="33.994644"><ele>498.1</ele><time>2011-10-11T11:00:28.0000000+00:00</time></trkpt><trkpt lat="44.519943" lon="33.994728"><ele>498.2</ele><time>2011-10-11T11:00:33.0000000+00:00</time></trkpt><trkpt lat="44.519943" lon="33.994801"><ele>498.6</ele><time>2011-10-11T11:00:38.0000000+00:00</time></trkpt><trkpt lat="44.519958" lon="33.994896"><ele>500.4</ele><time>2011-10-11T11:00:43.0000000+00:00</time></trkpt><trkpt lat="44.519955" lon="33.994968"><ele>501.6</ele><time>2011-10-11T11:00:48.0000000+00:00</time></trkpt><trkpt lat="44.519943" lon="33.995052"><ele>502.7</ele><time>2011-10-11T11:00:53.0000000+00:00</time></trkpt><trkpt lat="44.519924" lon="33.995113"><ele>503.0</ele><time>2011-10-11T11:00:58.0000000+00:00</time></trkpt><trkpt lat="44.51989" lon="33.99519"><ele>503.6</ele><time>2011-10-11T11:01:03.0000000+00:00</time></trkpt><trkpt lat="44.519875" lon="33.99527"><ele>503.4</ele><time>2011-10-11T11:01:08.0000000+00:00</time></trkpt><trkpt lat="44.519867" lon="33.99535"><ele>502.8</ele><time>2011-10-11T11:01:13.0000000+00:00</time></trkpt><trkpt lat="44.519863" lon="33.995434"><ele>502.6</ele><time>2011-10-11T11:01:18.0000000+00:00</time></trkpt><trkpt lat="44.519871" lon="33.995518"><ele>502.4</ele><time>2011-10-11T11:01:23.0000000+00:00</time></trkpt><trkpt lat="44.519894" lon="33.995586"><ele>503.7</ele><time>2011-10-11T11:01:28.0000000+00:00</time></trkpt><trkpt lat="44.519897" lon="33.995655"><ele>504.2</ele><time>2011-10-11T11:01:33.0000000+00:00</time></trkpt><trkpt lat="44.51989" lon="33.995701"><ele>504.5</ele><time>2011-10-11T11:01:38.0000000+00:00</time></trkpt><trkpt lat="44.51989" lon="33.995708"><ele>503.5</ele><time>2011-10-11T11:01:43.0000000+00:00</time></trkpt><trkpt lat="44.51989" lon="33.995708"><ele>503.5</ele><time>2011-10-11T11:01:48.0000000+00:00</time></trkpt><trkpt lat="44.519894" lon="33.99572"><ele>503.5</ele><time>2011-10-11T11:01:53.0000000+00:00</time></trkpt><trkpt lat="44.519894" lon="33.995796"><ele>503.3</ele><time>2011-10-11T11:01:58.0000000+00:00</time></trkpt><trkpt lat="44.519894" lon="33.995876"><ele>503.4</ele><time>2011-10-11T11:02:03.0000000+00:00</time></trkpt><trkpt lat="44.519909" lon="33.995953"><ele>505.2</ele><time>2011-10-11T11:02:08.0000000+00:00</time></trkpt><trkpt lat="44.519897" lon="33.996025"><ele>505.8</ele><time>2011-10-11T11:02:13.0000000+00:00</time></trkpt><trkpt lat="44.519897" lon="33.996109"><ele>505.6</ele><time>2011-10-11T11:02:18.0000000+00:00</time></trkpt><trkpt lat="44.519894" lon="33.996201"><ele>505.0</ele><time>2011-10-11T11:02:23.0000000+00:00</time></trkpt><trkpt lat="44.519886" lon="33.996292"><ele>503.6</ele><time>2011-10-11T11:02:28.0000000+00:00</time></trkpt><trkpt lat="44.519894" lon="33.996361"><ele>503.5</ele><time>2011-10-11T11:02:33.0000000+00:00</time></trkpt><trkpt lat="44.519913" lon="33.996433"><ele>502.2</ele><time>2011-10-11T11:02:38.0000000+00:00</time></trkpt><trkpt lat="44.519939" lon="33.996506"><ele>501.1</ele><time>2011-10-11T11:02:43.0000000+00:00</time></trkpt><trkpt lat="44.51997" lon="33.996559"><ele>500.9</ele><time>2011-10-11T11:02:48.0000000+00:00</time></trkpt><trkpt lat="44.52" lon="33.996609"><ele>501.1</ele><time>2011-10-11T11:02:53.0000000+00:00</time></trkpt><trkpt lat="44.520027" lon="33.996613"><ele>501.0</ele><time>2011-10-11T11:02:58.0000000+00:00</time></trkpt><trkpt lat="44.520061" lon="33.996651"><ele>500.3</ele><time>2011-10-11T11:03:03.0000000+00:00</time></trkpt><trkpt lat="44.520103" lon="33.99667"><ele>500.4</ele><time>2011-10-11T11:03:08.0000000+00:00</time></trkpt><trkpt lat="44.520107" lon="33.996666"><ele>501.1</ele><time>2011-10-11T11:03:13.0000000+00:00</time></trkpt><trkpt lat="44.520107" lon="33.996685"><ele>500.4</ele><time>2011-10-11T11:03:18.0000000+00:00</time></trkpt><trkpt lat="44.520123" lon="33.996704"><ele>499.8</ele><time>2011-10-11T11:03:23.0000000+00:00</time></trkpt><trkpt lat="44.520134" lon="33.996731"><ele>499.0</ele><time>2011-10-11T11:03:28.0000000+00:00</time></trkpt><trkpt lat="44.520145" lon="33.996746"><ele>498.5</ele><time>2011-10-11T11:03:33.0000000+00:00</time></trkpt><trkpt lat="44.52018" lon="33.996773"><ele>498.1</ele><time>2011-10-11T11:03:38.0000000+00:00</time></trkpt><trkpt lat="44.52021" lon="33.996815"><ele>497.0</ele><time>2011-10-11T11:03:43.0000000+00:00</time></trkpt><trkpt lat="44.520241" lon="33.996853"><ele>496.6</ele><time>2011-10-11T11:03:48.0000000+00:00</time></trkpt><trkpt lat="44.520264" lon="33.996895"><ele>496.3</ele><time>2011-10-11T11:03:53.0000000+00:00</time></trkpt><trkpt lat="44.520283" lon="33.996937"><ele>496.6</ele><time>2011-10-11T11:03:58.0000000+00:00</time></trkpt><trkpt lat="44.520321" lon="33.996975"><ele>495.7</ele><time>2011-10-11T11:04:03.0000000+00:00</time></trkpt><trkpt lat="44.520363" lon="33.997009"><ele>495.5</ele><time>2011-10-11T11:04:08.0000000+00:00</time></trkpt><trkpt lat="44.520416" lon="33.997028"><ele>494.9</ele><time>2011-10-11T11:04:13.0000000+00:00</time></trkpt><trkpt lat="44.52047" lon="33.997044"><ele>493.3</ele><time>2011-10-11T11:04:18.0000000+00:00</time></trkpt><trkpt lat="44.520515" lon="33.997066"><ele>493.6</ele><time>2011-10-11T11:04:23.0000000+00:00</time></trkpt><trkpt lat="44.520565" lon="33.997105"><ele>493.5</ele><time>2011-10-11T11:04:28.0000000+00:00</time></trkpt><trkpt lat="44.520618" lon="33.99712"><ele>493.8</ele><time>2011-10-11T11:04:33.0000000+00:00</time></trkpt><trkpt lat="44.520679" lon="33.99715"><ele>493.5</ele><time>2011-10-11T11:04:38.0000000+00:00</time></trkpt><trkpt lat="44.520737" lon="33.997177"><ele>493.1</ele><time>2011-10-11T11:04:43.0000000+00:00</time></trkpt><trkpt lat="44.520779" lon="33.997215"><ele>491.8</ele><time>2011-10-11T11:04:48.0000000+00:00</time></trkpt><trkpt lat="44.520817" lon="33.997265"><ele>490.4</ele><time>2011-10-11T11:04:53.0000000+00:00</time></trkpt><trkpt lat="44.520844" lon="33.997311"><ele>488.8</ele><time>2011-10-11T11:04:58.0000000+00:00</time></trkpt><trkpt lat="44.520859" lon="33.997368"><ele>488.6</ele><time>2011-10-11T11:05:03.0000000+00:00</time></trkpt><trkpt lat="44.520859" lon="33.997375"><ele>488.9</ele><time>2011-10-11T11:05:08.0000000+00:00</time></trkpt><trkpt lat="44.520863" lon="33.997372"><ele>488.9</ele><time>2011-10-11T11:05:13.0000000+00:00</time></trkpt><trkpt lat="44.520859" lon="33.997379"><ele>489.1</ele><time>2011-10-11T11:05:18.0000000+00:00</time></trkpt><trkpt lat="44.520859" lon="33.997414"><ele>489.3</ele><time>2011-10-11T11:05:23.0000000+00:00</time></trkpt><trkpt lat="44.520855" lon="33.997429"><ele>489.5</ele><time>2011-10-11T11:05:28.0000000+00:00</time></trkpt><trkpt lat="44.520836" lon="33.997448"><ele>488.9</ele><time>2011-10-11T11:05:33.0000000+00:00</time></trkpt><trkpt lat="44.520832" lon="33.997478"><ele>489.1</ele><time>2011-10-11T11:05:38.0000000+00:00</time></trkpt><trkpt lat="44.520809" lon="33.997513"><ele>489.1</ele><time>2011-10-11T11:05:43.0000000+00:00</time></trkpt><trkpt lat="44.520763" lon="33.997528"><ele>488.4</ele><time>2011-10-11T11:05:48.0000000+00:00</time></trkpt><trkpt lat="44.520752" lon="33.997608"><ele>487.4</ele><time>2011-10-11T11:05:53.0000000+00:00</time></trkpt><trkpt lat="44.520741" lon="33.997684"><ele>486.4</ele><time>2011-10-11T11:05:58.0000000+00:00</time></trkpt><trkpt lat="44.520737" lon="33.997711"><ele>487.1</ele><time>2011-10-11T11:06:03.0000000+00:00</time></trkpt><trkpt lat="44.520733" lon="33.997734"><ele>486.6</ele><time>2011-10-11T11:06:08.0000000+00:00</time></trkpt><trkpt lat="44.520737" lon="33.997761"><ele>487.3</ele><time>2011-10-11T11:06:13.0000000+00:00</time></trkpt><trkpt lat="44.520737" lon="33.997761"><ele>487.5</ele><time>2011-10-11T11:06:18.0000000+00:00</time></trkpt><trkpt lat="44.520721" lon="33.997784"><ele>486.3</ele><time>2011-10-11T11:06:23.0000000+00:00</time></trkpt><trkpt lat="44.52071" lon="33.997772"><ele>485.5</ele><time>2011-10-11T11:06:28.0000000+00:00</time></trkpt><trkpt lat="44.520668" lon="33.997768"><ele>485.2</ele><time>2011-10-11T11:06:33.0000000+00:00</time></trkpt><trkpt lat="44.520626" lon="33.997746"><ele>486.1</ele><time>2011-10-11T11:06:38.0000000+00:00</time></trkpt><trkpt lat="44.520607" lon="33.997696"><ele>485.6</ele><time>2011-10-11T11:06:43.0000000+00:00</time></trkpt><trkpt lat="44.520596" lon="33.997669"><ele>485.2</ele><time>2011-10-11T11:06:48.0000000+00:00</time></trkpt><trkpt lat="44.520584" lon="33.997665"><ele>484.0</ele><time>2011-10-11T11:06:53.0000000+00:00</time></trkpt><trkpt lat="44.520607" lon="33.9977"><ele>483.5</ele><time>2011-10-11T11:06:58.0000000+00:00</time></trkpt><trkpt lat="44.520634" lon="33.997742"><ele>482.9</ele><time>2011-10-11T11:07:03.0000000+00:00</time></trkpt><trkpt lat="44.520638" lon="33.997784"><ele>481.5</ele><time>2011-10-11T11:07:08.0000000+00:00</time></trkpt><trkpt lat="44.520634" lon="33.997784"><ele>480.6</ele><time>2011-10-11T11:07:13.0000000+00:00</time></trkpt><trkpt lat="44.520641" lon="33.997784"><ele>480.0</ele><time>2011-10-11T11:07:18.0000000+00:00</time></trkpt><trkpt lat="44.520672" lon="33.997803"><ele>480.4</ele><time>2011-10-11T11:07:23.0000000+00:00</time></trkpt><trkpt lat="44.520687" lon="33.997841"><ele>480.6</ele><time>2011-10-11T11:07:28.0000000+00:00</time></trkpt><trkpt lat="44.520699" lon="33.997883"><ele>481.8</ele><time>2011-10-11T11:07:33.0000000+00:00</time></trkpt><trkpt lat="44.520729" lon="33.997952"><ele>482.3</ele><time>2011-10-11T11:07:38.0000000+00:00</time></trkpt><trkpt lat="44.520737" lon="33.998028"><ele>482.4</ele><time>2011-10-11T11:07:43.0000000+00:00</time></trkpt><trkpt lat="44.520744" lon="33.998066"><ele>482.4</ele><time>2011-10-11T11:07:48.0000000+00:00</time></trkpt><trkpt lat="44.520748" lon="33.998093"><ele>480.6</ele><time>2011-10-11T11:07:53.0000000+00:00</time></trkpt><trkpt lat="44.520767" lon="33.998131"><ele>479.8</ele><time>2011-10-11T11:07:58.0000000+00:00</time></trkpt><trkpt lat="44.520779" lon="33.998192"><ele>479.8</ele><time>2011-10-11T11:08:03.0000000+00:00</time></trkpt><trkpt lat="44.520782" lon="33.998196"><ele>480.2</ele><time>2011-10-11T11:08:08.0000000+00:00</time></trkpt><trkpt lat="44.520782" lon="33.998196"><ele>479.8</ele><time>2011-10-11T11:08:13.0000000+00:00</time></trkpt><trkpt lat="44.520786" lon="33.998215"><ele>479.1</ele><time>2011-10-11T11:08:18.0000000+00:00</time></trkpt><trkpt lat="44.520809" lon="33.998272"><ele>479.5</ele><time>2011-10-11T11:08:23.0000000+00:00</time></trkpt><trkpt lat="44.52084" lon="33.998295"><ele>481.1</ele><time>2011-10-11T11:08:28.0000000+00:00</time></trkpt><trkpt lat="44.520851" lon="33.998356"><ele>483.4</ele><time>2011-10-11T11:08:33.0000000+00:00</time></trkpt><trkpt lat="44.520882" lon="33.998409"><ele>485.5</ele><time>2011-10-11T11:08:38.0000000+00:00</time></trkpt><trkpt lat="44.520905" lon="33.998466"><ele>485.5</ele><time>2011-10-11T11:08:43.0000000+00:00</time></trkpt><trkpt lat="44.520927" lon="33.998528"><ele>487.1</ele><time>2011-10-11T11:08:48.0000000+00:00</time></trkpt><trkpt lat="44.520947" lon="33.998558"><ele>488.7</ele><time>2011-10-11T11:08:53.0000000+00:00</time></trkpt><trkpt lat="44.520962" lon="33.998589"><ele>489.6</ele><time>2011-10-11T11:08:58.0000000+00:00</time></trkpt><trkpt lat="44.520992" lon="33.998657"><ele>491.1</ele><time>2011-10-11T11:09:03.0000000+00:00</time></trkpt><trkpt lat="44.521027" lon="33.998737"><ele>492.6</ele><time>2011-10-11T11:09:08.0000000+00:00</time></trkpt><trkpt lat="44.521072" lon="33.998814"><ele>493.7</ele><time>2011-10-11T11:09:13.0000000+00:00</time></trkpt><trkpt lat="44.521107" lon="33.99889"><ele>493.9</ele><time>2011-10-11T11:09:18.0000000+00:00</time></trkpt><trkpt lat="44.521114" lon="33.998943"><ele>494.4</ele><time>2011-10-11T11:09:23.0000000+00:00</time></trkpt><trkpt lat="44.521141" lon="33.999027"><ele>494.4</ele><time>2011-10-11T11:09:28.0000000+00:00</time></trkpt><trkpt lat="44.521172" lon="33.9991"><ele>495.0</ele><time>2011-10-11T11:09:33.0000000+00:00</time></trkpt><trkpt lat="44.521206" lon="33.999187"><ele>495.0</ele><time>2011-10-11T11:09:38.0000000+00:00</time></trkpt><trkpt lat="44.521221" lon="33.999283"><ele>495.3</ele><time>2011-10-11T11:09:43.0000000+00:00</time></trkpt><trkpt lat="44.521236" lon="33.999363"><ele>493.5</ele><time>2011-10-11T11:09:48.0000000+00:00</time></trkpt><trkpt lat="44.521248" lon="33.999435"><ele>494.5</ele><time>2011-10-11T11:09:53.0000000+00:00</time></trkpt><trkpt lat="44.521275" lon="33.9995"><ele>494.0</ele><time>2011-10-11T11:09:58.0000000+00:00</time></trkpt><trkpt lat="44.521294" lon="33.999531"><ele>493.5</ele><time>2011-10-11T11:10:03.0000000+00:00</time></trkpt><trkpt lat="44.521282" lon="33.999588"><ele>493.6</ele><time>2011-10-11T11:10:08.0000000+00:00</time></trkpt><trkpt lat="44.521301" lon="33.999672"><ele>493.1</ele><time>2011-10-11T11:10:13.0000000+00:00</time></trkpt><trkpt lat="44.521324" lon="33.999752"><ele>493.3</ele><time>2011-10-11T11:10:18.0000000+00:00</time></trkpt><trkpt lat="44.521343" lon="33.999836"><ele>494.2</ele><time>2011-10-11T11:10:23.0000000+00:00</time></trkpt><trkpt lat="44.521378" lon="33.999897"><ele>494.2</ele><time>2011-10-11T11:10:28.0000000+00:00</time></trkpt><trkpt lat="44.521408" lon="33.999973"><ele>493.1</ele><time>2011-10-11T11:10:33.0000000+00:00</time></trkpt><trkpt lat="44.521423" lon="34.000046"><ele>492.0</ele><time>2011-10-11T11:10:38.0000000+00:00</time></trkpt><trkpt lat="44.521431" lon="34.000095"><ele>490.7</ele><time>2011-10-11T11:10:43.0000000+00:00</time></trkpt><trkpt lat="44.521442" lon="34.000164"><ele>489.1</ele><time>2011-10-11T11:10:48.0000000+00:00</time></trkpt><trkpt lat="44.521427" lon="34.000214"><ele>488.7</ele><time>2011-10-11T11:10:53.0000000+00:00</time></trkpt><trkpt lat="44.521442" lon="34.000237"><ele>490.0</ele><time>2011-10-11T11:10:58.0000000+00:00</time></trkpt><trkpt lat="44.521454" lon="34.000278"><ele>491.3</ele><time>2011-10-11T11:11:03.0000000+00:00</time></trkpt><trkpt lat="44.521469" lon="34.000294"><ele>492.1</ele><time>2011-10-11T11:11:08.0000000+00:00</time></trkpt><trkpt lat="44.521465" lon="34.000298"><ele>493.4</ele><time>2011-10-11T11:11:13.0000000+00:00</time></trkpt><trkpt lat="44.521469" lon="34.000305"><ele>494.2</ele><time>2011-10-11T11:11:18.0000000+00:00</time></trkpt><trkpt lat="44.521469" lon="34.000305"><ele>494.1</ele><time>2011-10-11T11:11:23.0000000+00:00</time></trkpt><trkpt lat="44.521469" lon="34.000305"><ele>494.1</ele><time>2011-10-11T11:11:28.0000000+00:00</time></trkpt><trkpt lat="44.521469" lon="34.000301"><ele>494.1</ele><time>2011-10-11T11:11:33.0000000+00:00</time></trkpt><trkpt lat="44.521469" lon="34.000298"><ele>494.1</ele><time>2011-10-11T11:11:38.0000000+00:00</time></trkpt><trkpt lat="44.521469" lon="34.000301"><ele>494.2</ele><time>2011-10-11T11:11:43.0000000+00:00</time></trkpt><trkpt lat="44.521469" lon="34.000301"><ele>494.3</ele><time>2011-10-11T11:11:48.0000000+00:00</time></trkpt><trkpt lat="44.521469" lon="34.000301"><ele>494.3</ele><time>2011-10-11T11:11:53.0000000+00:00</time></trkpt><trkpt lat="44.521473" lon="34.000298"><ele>494.4</ele><time>2011-10-11T11:11:58.0000000+00:00</time></trkpt><trkpt lat="44.521469" lon="34.00032"><ele>494.2</ele><time>2011-10-11T11:12:03.0000000+00:00</time></trkpt><trkpt lat="44.521503" lon="34.00037"><ele>496.0</ele><time>2011-10-11T11:12:08.0000000+00:00</time></trkpt><trkpt lat="44.521534" lon="34.00042"><ele>497.6</ele><time>2011-10-11T11:12:13.0000000+00:00</time></trkpt><trkpt lat="44.521561" lon="34.000454"><ele>498.1</ele><time>2011-10-11T11:12:18.0000000+00:00</time></trkpt><trkpt lat="44.521591" lon="34.000538"><ele>497.4</ele><time>2011-10-11T11:12:23.0000000+00:00</time></trkpt><trkpt lat="44.521641" lon="34.000587"><ele>498.3</ele><time>2011-10-11T11:12:28.0000000+00:00</time></trkpt><trkpt lat="44.521694" lon="34.000599"><ele>498.6</ele><time>2011-10-11T11:12:33.0000000+00:00</time></trkpt><trkpt lat="44.521732" lon="34.000603"><ele>498.4</ele><time>2011-10-11T11:12:38.0000000+00:00</time></trkpt><trkpt lat="44.521767" lon="34.000614"><ele>496.7</ele><time>2011-10-11T11:12:43.0000000+00:00</time></trkpt><trkpt lat="44.521809" lon="34.000633"><ele>495.6</ele><time>2011-10-11T11:12:48.0000000+00:00</time></trkpt><trkpt lat="44.521851" lon="34.000637"><ele>494.6</ele><time>2011-10-11T11:12:53.0000000+00:00</time></trkpt><trkpt lat="44.521893" lon="34.000626"><ele>493.0</ele><time>2011-10-11T11:12:58.0000000+00:00</time></trkpt><trkpt lat="44.521923" lon="34.000614"><ele>492.4</ele><time>2011-10-11T11:13:03.0000000+00:00</time></trkpt><trkpt lat="44.521942" lon="34.000622"><ele>493.5</ele><time>2011-10-11T11:13:08.0000000+00:00</time></trkpt><trkpt lat="44.521984" lon="34.000633"><ele>494.9</ele><time>2011-10-11T11:13:13.0000000+00:00</time></trkpt><trkpt lat="44.52203" lon="34.000622"><ele>497.4</ele><time>2011-10-11T11:13:18.0000000+00:00</time></trkpt><trkpt lat="44.522072" lon="34.00061"><ele>500.3</ele><time>2011-10-11T11:13:23.0000000+00:00</time></trkpt><trkpt lat="44.522118" lon="34.000622"><ele>503.1</ele><time>2011-10-11T11:13:28.0000000+00:00</time></trkpt><trkpt lat="44.522133" lon="34.000626"><ele>506.2</ele><time>2011-10-11T11:13:33.0000000+00:00</time></trkpt><trkpt lat="44.522175" lon="34.000664"><ele>508.9</ele><time>2011-10-11T11:13:38.0000000+00:00</time></trkpt><trkpt lat="44.522221" lon="34.000694"><ele>511.2</ele><time>2011-10-11T11:13:43.0000000+00:00</time></trkpt><trkpt lat="44.522255" lon="34.000683"><ele>513.5</ele><time>2011-10-11T11:13:48.0000000+00:00</time></trkpt><trkpt lat="44.522316" lon="34.000751"><ele>513.5</ele><time>2011-10-11T11:13:53.0000000+00:00</time></trkpt><trkpt lat="44.522366" lon="34.000824"><ele>514.4</ele><time>2011-10-11T11:13:58.0000000+00:00</time></trkpt><trkpt lat="44.522392" lon="34.000889"><ele>514.8</ele><time>2011-10-11T11:14:03.0000000+00:00</time></trkpt><trkpt lat="44.522461" lon="34.000919"><ele>513.0</ele><time>2011-10-11T11:14:08.0000000+00:00</time></trkpt><trkpt lat="44.522499" lon="34.000942"><ele>512.3</ele><time>2011-10-11T11:14:13.0000000+00:00</time></trkpt><trkpt lat="44.522545" lon="34.001015"><ele>510.4</ele><time>2011-10-11T11:14:18.0000000+00:00</time></trkpt><trkpt lat="44.522568" lon="34.001068"><ele>511.6</ele><time>2011-10-11T11:14:23.0000000+00:00</time></trkpt><trkpt lat="44.522583" lon="34.001125"><ele>511.5</ele><time>2011-10-11T11:14:28.0000000+00:00</time></trkpt><trkpt lat="44.522606" lon="34.00116"><ele>510.3</ele><time>2011-10-11T11:14:33.0000000+00:00</time></trkpt><trkpt lat="44.522598" lon="34.001205"><ele>513.1</ele><time>2011-10-11T11:14:38.0000000+00:00</time></trkpt><trkpt lat="44.522629" lon="34.001244"><ele>512.7</ele><time>2011-10-11T11:14:43.0000000+00:00</time></trkpt><trkpt lat="44.522655" lon="34.001282"><ele>511.3</ele><time>2011-10-11T11:14:48.0000000+00:00</time></trkpt><trkpt lat="44.52269" lon="34.001335"><ele>511.9</ele><time>2011-10-11T11:14:53.0000000+00:00</time></trkpt><trkpt lat="44.522697" lon="34.0014"><ele>511.7</ele><time>2011-10-11T11:14:58.0000000+00:00</time></trkpt><trkpt lat="44.522713" lon="34.001431"><ele>512.0</ele><time>2011-10-11T11:15:03.0000000+00:00</time></trkpt><trkpt lat="44.522705" lon="34.001526"><ele>512.2</ele><time>2011-10-11T11:15:08.0000000+00:00</time></trkpt><trkpt lat="44.522701" lon="34.001621"><ele>513.4</ele><time>2011-10-11T11:15:13.0000000+00:00</time></trkpt><trkpt lat="44.52269" lon="34.00172"><ele>514.3</ele><time>2011-10-11T11:15:18.0000000+00:00</time></trkpt><trkpt lat="44.522701" lon="34.001751"><ele>512.4</ele><time>2011-10-11T11:15:23.0000000+00:00</time></trkpt><trkpt lat="44.522671" lon="34.001804"><ele>511.0</ele><time>2011-10-11T11:15:28.0000000+00:00</time></trkpt><trkpt lat="44.522667" lon="34.001862"><ele>508.1</ele><time>2011-10-11T11:15:33.0000000+00:00</time></trkpt><trkpt lat="44.522655" lon="34.001919"><ele>507.0</ele><time>2011-10-11T11:15:38.0000000+00:00</time></trkpt><trkpt lat="44.522636" lon="34.00198"><ele>505.6</ele><time>2011-10-11T11:15:43.0000000+00:00</time></trkpt><trkpt lat="44.522614" lon="34.002041"><ele>504.8</ele><time>2011-10-11T11:15:48.0000000+00:00</time></trkpt><trkpt lat="44.522575" lon="34.002113"><ele>503.1</ele><time>2011-10-11T11:15:53.0000000+00:00</time></trkpt><trkpt lat="44.522564" lon="34.002178"><ele>502.1</ele><time>2011-10-11T11:15:58.0000000+00:00</time></trkpt><trkpt lat="44.522533" lon="34.002228"><ele>500.2</ele><time>2011-10-11T11:16:03.0000000+00:00</time></trkpt><trkpt lat="44.522522" lon="34.002304"><ele>498.8</ele><time>2011-10-11T11:16:08.0000000+00:00</time></trkpt><trkpt lat="44.522491" lon="34.002373"><ele>498.0</ele><time>2011-10-11T11:16:13.0000000+00:00</time></trkpt><trkpt lat="44.522461" lon="34.002411"><ele>496.3</ele><time>2011-10-11T11:16:18.0000000+00:00</time></trkpt><trkpt lat="44.522442" lon="34.002411"><ele>496.0</ele><time>2011-10-11T11:16:23.0000000+00:00</time></trkpt><trkpt lat="44.522404" lon="34.002415"><ele>496.6</ele><time>2011-10-11T11:16:28.0000000+00:00</time></trkpt><trkpt lat="44.522362" lon="34.002441"><ele>497.1</ele><time>2011-10-11T11:16:33.0000000+00:00</time></trkpt><trkpt lat="44.52232" lon="34.002476"><ele>497.6</ele><time>2011-10-11T11:16:38.0000000+00:00</time></trkpt><trkpt lat="44.522308" lon="34.002472"><ele>496.6</ele><time>2011-10-11T11:16:43.0000000+00:00</time></trkpt><trkpt lat="44.522255" lon="34.002499"><ele>496.0</ele><time>2011-10-11T11:16:48.0000000+00:00</time></trkpt><trkpt lat="44.522205" lon="34.002514"><ele>495.4</ele><time>2011-10-11T11:16:53.0000000+00:00</time></trkpt><trkpt lat="44.522148" lon="34.002525"><ele>495.4</ele><time>2011-10-11T11:16:58.0000000+00:00</time></trkpt><trkpt lat="44.52211" lon="34.002533"><ele>495.5</ele><time>2011-10-11T11:17:03.0000000+00:00</time></trkpt><trkpt lat="44.522099" lon="34.00256"><ele>496.3</ele><time>2011-10-11T11:17:08.0000000+00:00</time></trkpt><trkpt lat="44.522106" lon="34.002632"><ele>497.2</ele><time>2011-10-11T11:17:13.0000000+00:00</time></trkpt><trkpt lat="44.522102" lon="34.002701"><ele>497.5</ele><time>2011-10-11T11:17:18.0000000+00:00</time></trkpt><trkpt lat="44.522095" lon="34.002735"><ele>497.4</ele><time>2011-10-11T11:17:23.0000000+00:00</time></trkpt><trkpt lat="44.522079" lon="34.002823"><ele>497.4</ele><time>2011-10-11T11:17:28.0000000+00:00</time></trkpt><trkpt lat="44.522068" lon="34.002865"><ele>498.4</ele><time>2011-10-11T11:17:33.0000000+00:00</time></trkpt><trkpt lat="44.522083" lon="34.002926"><ele>498.9</ele><time>2011-10-11T11:17:38.0000000+00:00</time></trkpt><trkpt lat="44.522053" lon="34.003029"><ele>500.2</ele><time>2011-10-11T11:17:43.0000000+00:00</time></trkpt><trkpt lat="44.522076" lon="34.003075"><ele>499.8</ele><time>2011-10-11T11:17:48.0000000+00:00</time></trkpt><trkpt lat="44.522083" lon="34.003094"><ele>499.4</ele><time>2011-10-11T11:17:53.0000000+00:00</time></trkpt><trkpt lat="44.522114" lon="34.003124"><ele>499.3</ele><time>2011-10-11T11:17:58.0000000+00:00</time></trkpt><trkpt lat="44.522118" lon="34.003159"><ele>500.2</ele><time>2011-10-11T11:18:03.0000000+00:00</time></trkpt><trkpt lat="44.522148" lon="34.00317"><ele>501.2</ele><time>2011-10-11T11:18:08.0000000+00:00</time></trkpt><trkpt lat="44.522179" lon="34.003201"><ele>502.5</ele><time>2011-10-11T11:18:13.0000000+00:00</time></trkpt><trkpt lat="44.522213" lon="34.003227"><ele>503.6</ele><time>2011-10-11T11:18:18.0000000+00:00</time></trkpt><trkpt lat="44.522194" lon="34.003265"><ele>503.7</ele><time>2011-10-11T11:18:23.0000000+00:00</time></trkpt><trkpt lat="44.522202" lon="34.003265"><ele>504.1</ele><time>2011-10-11T11:18:28.0000000+00:00</time></trkpt><trkpt lat="44.522179" lon="34.003269"><ele>504.3</ele><time>2011-10-11T11:18:33.0000000+00:00</time></trkpt><trkpt lat="44.522125" lon="34.003273"><ele>504.5</ele><time>2011-10-11T11:18:38.0000000+00:00</time></trkpt><trkpt lat="44.522087" lon="34.003311"><ele>504.6</ele><time>2011-10-11T11:18:43.0000000+00:00</time></trkpt><trkpt lat="44.52206" lon="34.003361"><ele>504.6</ele><time>2011-10-11T11:18:48.0000000+00:00</time></trkpt><trkpt lat="44.522148" lon="34.003304"><ele>504.6</ele><time>2011-10-11T11:18:53.0000000+00:00</time></trkpt><trkpt lat="44.522202" lon="34.0033"><ele>504.8</ele><time>2011-10-11T11:18:58.0000000+00:00</time></trkpt><trkpt lat="44.52219" lon="34.003342"><ele>505.2</ele><time>2011-10-11T11:19:03.0000000+00:00</time></trkpt><trkpt lat="44.522209" lon="34.00333"><ele>505.4</ele><time>2011-10-11T11:19:08.0000000+00:00</time></trkpt><trkpt lat="44.522266" lon="34.003315"><ele>505.8</ele><time>2011-10-11T11:19:13.0000000+00:00</time></trkpt><trkpt lat="44.522312" lon="34.003254"><ele>506.0</ele><time>2011-10-11T11:19:18.0000000+00:00</time></trkpt><trkpt lat="44.522369" lon="34.003181"><ele>506.1</ele><time>2011-10-11T11:19:23.0000000+00:00</time></trkpt><trkpt lat="44.522472" lon="34.003109"><ele>506.3</ele><time>2011-10-11T11:19:28.0000000+00:00</time></trkpt><trkpt lat="44.522541" lon="34.003075"><ele>506.7</ele><time>2011-10-11T11:19:33.0000000+00:00</time></trkpt><trkpt lat="44.522564" lon="34.003059"><ele>506.8</ele><time>2011-10-11T11:19:38.0000000+00:00</time></trkpt><trkpt lat="44.522579" lon="34.003067"><ele>506.9</ele><time>2011-10-11T11:19:43.0000000+00:00</time></trkpt><trkpt lat="44.522591" lon="34.003059"><ele>507.1</ele><time>2011-10-11T11:19:48.0000000+00:00</time></trkpt><trkpt lat="44.522598" lon="34.003052"><ele>507.1</ele><time>2011-10-11T11:19:53.0000000+00:00</time></trkpt><trkpt lat="44.522621" lon="34.003056"><ele>507.3</ele><time>2011-10-11T11:19:58.0000000+00:00</time></trkpt><trkpt lat="44.522633" lon="34.003048"><ele>507.3</ele><time>2011-10-11T11:20:03.0000000+00:00</time></trkpt><trkpt lat="44.522678" lon="34.003002"><ele>507.5</ele><time>2011-10-11T11:20:08.0000000+00:00</time></trkpt><trkpt lat="44.522739" lon="34.002945"><ele>507.5</ele><time>2011-10-11T11:20:13.0000000+00:00</time></trkpt><trkpt lat="44.522812" lon="34.002861"><ele>507.6</ele><time>2011-10-11T11:20:18.0000000+00:00</time></trkpt><trkpt lat="44.522884" lon="34.002773"><ele>507.8</ele><time>2011-10-11T11:20:23.0000000+00:00</time></trkpt><trkpt lat="44.522938" lon="34.002739"><ele>508.1</ele><time>2011-10-11T11:20:28.0000000+00:00</time></trkpt><trkpt lat="44.522949" lon="34.002724"><ele>507.9</ele><time>2011-10-11T11:20:33.0000000+00:00</time></trkpt><trkpt lat="44.522896" lon="34.002781"><ele>507.2</ele><time>2011-10-11T11:20:38.0000000+00:00</time></trkpt><trkpt lat="44.522781" lon="34.00288"><ele>506.6</ele><time>2011-10-11T11:20:43.0000000+00:00</time></trkpt><trkpt lat="44.52264" lon="34.003029"><ele>506.1</ele><time>2011-10-11T11:20:48.0000000+00:00</time></trkpt><trkpt lat="44.522583" lon="34.003094"><ele>506.3</ele><time>2011-10-11T11:20:53.0000000+00:00</time></trkpt><trkpt lat="44.522533" lon="34.003174"><ele>506.9</ele><time>2011-10-11T11:20:58.0000000+00:00</time></trkpt><trkpt lat="44.522491" lon="34.003208"><ele>507.4</ele><time>2011-10-11T11:21:03.0000000+00:00</time></trkpt><trkpt lat="44.522476" lon="34.003189"><ele>508.2</ele><time>2011-10-11T11:21:08.0000000+00:00</time></trkpt><trkpt lat="44.522465" lon="34.003193"><ele>508.2</ele><time>2011-10-11T11:21:13.0000000+00:00</time></trkpt><trkpt lat="44.522457" lon="34.003197"><ele>508.2</ele><time>2011-10-11T11:21:18.0000000+00:00</time></trkpt><trkpt lat="44.52243" lon="34.003208"><ele>508.3</ele><time>2011-10-11T11:21:23.0000000+00:00</time></trkpt><trkpt lat="44.522377" lon="34.003185"><ele>509.8</ele><time>2011-10-11T11:21:28.0000000+00:00</time></trkpt><trkpt lat="44.522392" lon="34.003162"><ele>512.0</ele><time>2011-10-11T11:21:33.0000000+00:00</time></trkpt><trkpt lat="44.522396" lon="34.003162"><ele>512.1</ele><time>2011-10-11T11:21:38.0000000+00:00</time></trkpt><trkpt lat="44.522343" lon="34.003185"><ele>512.7</ele><time>2011-10-11T11:21:43.0000000+00:00</time></trkpt><trkpt lat="44.522327" lon="34.003239"><ele>515.0</ele><time>2011-10-11T11:21:48.0000000+00:00</time></trkpt><trkpt lat="44.522331" lon="34.00325"><ele>515.0</ele><time>2011-10-11T11:21:53.0000000+00:00</time></trkpt><trkpt lat="44.522366" lon="34.003216"><ele>515.6</ele><time>2011-10-11T11:21:58.0000000+00:00</time></trkpt><trkpt lat="44.522411" lon="34.003139"><ele>516.1</ele><time>2011-10-11T11:22:03.0000000+00:00</time></trkpt><trkpt lat="44.522449" lon="34.003071"><ele>516.6</ele><time>2011-10-11T11:22:08.0000000+00:00</time></trkpt><trkpt lat="44.522461" lon="34.003036"><ele>517.2</ele><time>2011-10-11T11:22:13.0000000+00:00</time></trkpt><trkpt lat="44.522465" lon="34.003033"><ele>517.2</ele><time>2011-10-11T11:22:18.0000000+00:00</time></trkpt><trkpt lat="44.522465" lon="34.003033"><ele>517.2</ele><time>2011-10-11T11:22:23.0000000+00:00</time></trkpt><trkpt lat="44.522453" lon="34.003044"><ele>517.3</ele><time>2011-10-11T11:22:28.0000000+00:00</time></trkpt><trkpt lat="44.522411" lon="34.003078"><ele>517.8</ele><time>2011-10-11T11:22:33.0000000+00:00</time></trkpt><trkpt lat="44.522388" lon="34.003105"><ele>518.3</ele><time>2011-10-11T11:22:38.0000000+00:00</time></trkpt><trkpt lat="44.522358" lon="34.003132"><ele>518.9</ele><time>2011-10-11T11:22:43.0000000+00:00</time></trkpt><trkpt lat="44.522312" lon="34.003155"><ele>519.7</ele><time>2011-10-11T11:22:48.0000000+00:00</time></trkpt><trkpt lat="44.522266" lon="34.003174"><ele>520.2</ele><time>2011-10-11T11:22:53.0000000+00:00</time></trkpt><trkpt lat="44.522251" lon="34.003204"><ele>520.8</ele><time>2011-10-11T11:22:58.0000000+00:00</time></trkpt><trkpt lat="44.52224" lon="34.003181"><ele>521.3</ele><time>2011-10-11T11:23:03.0000000+00:00</time></trkpt><trkpt lat="44.522232" lon="34.003181"><ele>521.5</ele><time>2011-10-11T11:23:08.0000000+00:00</time></trkpt><trkpt lat="44.522236" lon="34.003174"><ele>521.5</ele><time>2011-10-11T11:23:13.0000000+00:00</time></trkpt><trkpt lat="44.522324" lon="34.003128"><ele>521.5</ele><time>2011-10-11T11:23:18.0000000+00:00</time></trkpt><trkpt lat="44.522316" lon="34.003105"><ele>521.2</ele><time>2011-10-11T11:23:23.0000000+00:00</time></trkpt><trkpt lat="44.522293" lon="34.003143"><ele>520.6</ele><time>2011-10-11T11:23:28.0000000+00:00</time></trkpt><trkpt lat="44.522251" lon="34.003155"><ele>519.3</ele><time>2011-10-11T11:23:33.0000000+00:00</time></trkpt><trkpt lat="44.52227" lon="34.003136"><ele>517.9</ele><time>2011-10-11T11:23:38.0000000+00:00</time></trkpt><trkpt lat="44.522282" lon="34.003189"><ele>516.2</ele><time>2011-10-11T11:23:43.0000000+00:00</time></trkpt><trkpt lat="44.522324" lon="34.003212"><ele>515.8</ele><time>2011-10-11T11:23:48.0000000+00:00</time></trkpt><trkpt lat="44.522327" lon="34.003265"><ele>515.2</ele><time>2011-10-11T11:23:53.0000000+00:00</time></trkpt><trkpt lat="44.522354" lon="34.003284"><ele>514.1</ele><time>2011-10-11T11:23:58.0000000+00:00</time></trkpt><trkpt lat="44.522385" lon="34.003334"><ele>514.6</ele><time>2011-10-11T11:24:03.0000000+00:00</time></trkpt><trkpt lat="44.522419" lon="34.003361"><ele>515.1</ele><time>2011-10-11T11:24:08.0000000+00:00</time></trkpt><trkpt lat="44.522446" lon="34.003403"><ele>514.6</ele><time>2011-10-11T11:24:13.0000000+00:00</time></trkpt><trkpt lat="44.522465" lon="34.003471"><ele>514.3</ele><time>2011-10-11T11:24:18.0000000+00:00</time></trkpt><trkpt lat="44.522507" lon="34.003529"><ele>514.2</ele><time>2011-10-11T11:24:23.0000000+00:00</time></trkpt><trkpt lat="44.522518" lon="34.003571"><ele>514.2</ele><time>2011-10-11T11:24:28.0000000+00:00</time></trkpt><trkpt lat="44.522499" lon="34.003616"><ele>515.2</ele><time>2011-10-11T11:24:33.0000000+00:00</time></trkpt><trkpt lat="44.522465" lon="34.003643"><ele>515.2</ele><time>2011-10-11T11:24:38.0000000+00:00</time></trkpt><trkpt lat="44.522453" lon="34.003674"><ele>514.9</ele><time>2011-10-11T11:24:43.0000000+00:00</time></trkpt><trkpt lat="44.522484" lon="34.003696"><ele>515.5</ele><time>2011-10-11T11:24:48.0000000+00:00</time></trkpt><trkpt lat="44.522469" lon="34.003738"><ele>517.5</ele><time>2011-10-11T11:24:53.0000000+00:00</time></trkpt><trkpt lat="44.522472" lon="34.00378"><ele>519.0</ele><time>2011-10-11T11:24:58.0000000+00:00</time></trkpt><trkpt lat="44.522465" lon="34.003799"><ele>519.7</ele><time>2011-10-11T11:25:03.0000000+00:00</time></trkpt><trkpt lat="44.522469" lon="34.003822"><ele>519.9</ele><time>2011-10-11T11:25:08.0000000+00:00</time></trkpt><trkpt lat="44.522461" lon="34.00388"><ele>519.2</ele><time>2011-10-11T11:25:13.0000000+00:00</time></trkpt><trkpt lat="44.522461" lon="34.003948"><ele>520.5</ele><time>2011-10-11T11:25:18.0000000+00:00</time></trkpt><trkpt lat="44.522446" lon="34.004009"><ele>523.0</ele><time>2011-10-11T11:25:23.0000000+00:00</time></trkpt><trkpt lat="44.522419" lon="34.004082"><ele>523.8</ele><time>2011-10-11T11:25:28.0000000+00:00</time></trkpt><trkpt lat="44.522438" lon="34.00407"><ele>522.4</ele><time>2011-10-11T11:25:33.0000000+00:00</time></trkpt><trkpt lat="44.522423" lon="34.004097"><ele>523.1</ele><time>2011-10-11T11:25:38.0000000+00:00</time></trkpt><trkpt lat="44.52235" lon="34.004154"><ele>523.6</ele><time>2011-10-11T11:25:43.0000000+00:00</time></trkpt><trkpt lat="44.522312" lon="34.004177"><ele>525.4</ele><time>2011-10-11T11:25:48.0000000+00:00</time></trkpt><trkpt lat="44.522278" lon="34.004169"><ele>526.4</ele><time>2011-10-11T11:25:53.0000000+00:00</time></trkpt><trkpt lat="44.522293" lon="34.004143"><ele>526.8</ele><time>2011-10-11T11:25:58.0000000+00:00</time></trkpt><trkpt lat="44.522297" lon="34.004139"><ele>527.2</ele><time>2011-10-11T11:26:03.0000000+00:00</time></trkpt><trkpt lat="44.522297" lon="34.004135"><ele>527.3</ele><time>2011-10-11T11:26:08.0000000+00:00</time></trkpt><trkpt lat="44.522293" lon="34.004143"><ele>527.4</ele><time>2011-10-11T11:26:13.0000000+00:00</time></trkpt><trkpt lat="44.522293" lon="34.004143"><ele>528.5</ele><time>2011-10-11T11:26:18.0000000+00:00</time></trkpt><trkpt lat="44.522297" lon="34.004143"><ele>529.1</ele><time>2011-10-11T11:26:23.0000000+00:00</time></trkpt><trkpt lat="44.522301" lon="34.004135"><ele>529.3</ele><time>2011-10-11T11:26:28.0000000+00:00</time></trkpt><trkpt lat="44.522285" lon="34.004124"><ele>530.8</ele><time>2011-10-11T11:26:33.0000000+00:00</time></trkpt><trkpt lat="44.522247" lon="34.004158"><ele>531.2</ele><time>2011-10-11T11:26:38.0000000+00:00</time></trkpt><trkpt lat="44.522232" lon="34.004173"><ele>531.6</ele><time>2011-10-11T11:26:43.0000000+00:00</time></trkpt><trkpt lat="44.522224" lon="34.004154"><ele>531.7</ele><time>2011-10-11T11:26:48.0000000+00:00</time></trkpt><trkpt lat="44.522243" lon="34.004143"><ele>532.1</ele><time>2011-10-11T11:26:53.0000000+00:00</time></trkpt><trkpt lat="44.522243" lon="34.004143"><ele>532.4</ele><time>2011-10-11T11:26:58.0000000+00:00</time></trkpt><trkpt lat="44.522251" lon="34.004139"><ele>532.6</ele><time>2011-10-11T11:27:03.0000000+00:00</time></trkpt><trkpt lat="44.522251" lon="34.004135"><ele>532.8</ele><time>2011-10-11T11:27:08.0000000+00:00</time></trkpt><trkpt lat="44.522251" lon="34.004139"><ele>533.0</ele><time>2011-10-11T11:27:13.0000000+00:00</time></trkpt><trkpt lat="44.522247" lon="34.00415"><ele>533.3</ele><time>2011-10-11T11:27:18.0000000+00:00</time></trkpt><trkpt lat="44.522243" lon="34.00415"><ele>533.5</ele><time>2011-10-11T11:27:23.0000000+00:00</time></trkpt><trkpt lat="44.52224" lon="34.00415"><ele>533.8</ele><time>2011-10-11T11:27:28.0000000+00:00</time></trkpt><trkpt lat="44.522236" lon="34.004147"><ele>534.1</ele><time>2011-10-11T11:27:33.0000000+00:00</time></trkpt><trkpt lat="44.522232" lon="34.004143"><ele>534.4</ele><time>2011-10-11T11:27:38.0000000+00:00</time></trkpt><trkpt lat="44.522232" lon="34.004131"><ele>534.6</ele><time>2011-10-11T11:27:43.0000000+00:00</time></trkpt><trkpt lat="44.522232" lon="34.004124"><ele>534.9</ele><time>2011-10-11T11:27:48.0000000+00:00</time></trkpt><trkpt lat="44.522236" lon="34.004124"><ele>535.2</ele><time>2011-10-11T11:27:53.0000000+00:00</time></trkpt><trkpt lat="44.52224" lon="34.00412"><ele>535.5</ele><time>2011-10-11T11:27:58.0000000+00:00</time></trkpt><trkpt lat="44.522247" lon="34.004112"><ele>535.8</ele><time>2011-10-11T11:28:03.0000000+00:00</time></trkpt><trkpt lat="44.522259" lon="34.004101"><ele>536.0</ele><time>2011-10-11T11:28:08.0000000+00:00</time></trkpt><trkpt lat="44.522251" lon="34.004101"><ele>536.4</ele><time>2011-10-11T11:28:13.0000000+00:00</time></trkpt><trkpt lat="44.522255" lon="34.004097"><ele>536.7</ele><time>2011-10-11T11:28:18.0000000+00:00</time></trkpt><trkpt lat="44.522263" lon="34.004097"><ele>537.0</ele><time>2011-10-11T11:28:23.0000000+00:00</time></trkpt><trkpt lat="44.522266" lon="34.004101"><ele>537.2</ele><time>2011-10-11T11:28:28.0000000+00:00</time></trkpt><trkpt lat="44.522274" lon="34.004108"><ele>537.5</ele><time>2011-10-11T11:28:33.0000000+00:00</time></trkpt><trkpt lat="44.522282" lon="34.004116"><ele>537.8</ele><time>2011-10-11T11:28:38.0000000+00:00</time></trkpt><trkpt lat="44.522285" lon="34.00412"><ele>538.1</ele><time>2011-10-11T11:28:43.0000000+00:00</time></trkpt><trkpt lat="44.522293" lon="34.004116"><ele>538.3</ele><time>2011-10-11T11:28:48.0000000+00:00</time></trkpt><trkpt lat="44.522301" lon="34.004108"><ele>538.6</ele><time>2011-10-11T11:28:53.0000000+00:00</time></trkpt><trkpt lat="44.522312" lon="34.004101"><ele>538.9</ele><time>2011-10-11T11:28:58.0000000+00:00</time></trkpt><trkpt lat="44.522316" lon="34.004093"><ele>539.2</ele><time>2011-10-11T11:29:03.0000000+00:00</time></trkpt><trkpt lat="44.52232" lon="34.004086"><ele>539.4</ele><time>2011-10-11T11:29:08.0000000+00:00</time></trkpt><trkpt lat="44.52232" lon="34.004082"><ele>539.7</ele><time>2011-10-11T11:29:13.0000000+00:00</time></trkpt><trkpt lat="44.522316" lon="34.004082"><ele>540.0</ele><time>2011-10-11T11:29:18.0000000+00:00</time></trkpt><trkpt lat="44.522305" lon="34.004089"><ele>540.3</ele><time>2011-10-11T11:29:23.0000000+00:00</time></trkpt><trkpt lat="44.522266" lon="34.004177"><ele>540.7</ele><time>2011-10-11T11:29:28.0000000+00:00</time></trkpt><trkpt lat="44.522224" lon="34.004196"><ele>541.0</ele><time>2011-10-11T11:29:33.0000000+00:00</time></trkpt><trkpt lat="44.522186" lon="34.004219"><ele>541.3</ele><time>2011-10-11T11:29:38.0000000+00:00</time></trkpt><trkpt lat="44.522175" lon="34.004196"><ele>541.4</ele><time>2011-10-11T11:29:43.0000000+00:00</time></trkpt><trkpt lat="44.522182" lon="34.004147"><ele>541.7</ele><time>2011-10-11T11:29:48.0000000+00:00</time></trkpt><trkpt lat="44.522205" lon="34.004078"><ele>542.0</ele><time>2011-10-11T11:29:53.0000000+00:00</time></trkpt><trkpt lat="44.522224" lon="34.004055"><ele>542.1</ele><time>2011-10-11T11:29:58.0000000+00:00</time></trkpt><trkpt lat="44.522266" lon="34.004032"><ele>542.3</ele><time>2011-10-11T11:30:03.0000000+00:00</time></trkpt><trkpt lat="44.522278" lon="34.004002"><ele>542.6</ele><time>2011-10-11T11:30:08.0000000+00:00</time></trkpt><trkpt lat="44.52227" lon="34.004028"><ele>542.9</ele><time>2011-10-11T11:30:13.0000000+00:00</time></trkpt><trkpt lat="44.522274" lon="34.004028"><ele>543.2</ele><time>2011-10-11T11:30:18.0000000+00:00</time></trkpt><trkpt lat="44.522266" lon="34.004028"><ele>543.4</ele><time>2011-10-11T11:30:23.0000000+00:00</time></trkpt><trkpt lat="44.522259" lon="34.004025"><ele>543.7</ele><time>2011-10-11T11:30:28.0000000+00:00</time></trkpt><trkpt lat="44.522247" lon="34.004028"><ele>543.9</ele><time>2011-10-11T11:30:33.0000000+00:00</time></trkpt><trkpt lat="44.52224" lon="34.004036"><ele>544.2</ele><time>2011-10-11T11:30:38.0000000+00:00</time></trkpt><trkpt lat="44.522232" lon="34.004044"><ele>544.4</ele><time>2011-10-11T11:30:43.0000000+00:00</time></trkpt><trkpt lat="44.522228" lon="34.004047"><ele>544.6</ele><time>2011-10-11T11:30:48.0000000+00:00</time></trkpt><trkpt lat="44.522221" lon="34.004051"><ele>544.7</ele><time>2011-10-11T11:30:53.0000000+00:00</time></trkpt><trkpt lat="44.522213" lon="34.004055"><ele>544.9</ele><time>2011-10-11T11:30:58.0000000+00:00</time></trkpt><trkpt lat="44.522205" lon="34.004059"><ele>545.0</ele><time>2011-10-11T11:31:03.0000000+00:00</time></trkpt><trkpt lat="44.522202" lon="34.004059"><ele>545.1</ele><time>2011-10-11T11:31:08.0000000+00:00</time></trkpt><trkpt lat="44.522205" lon="34.004063"><ele>545.2</ele><time>2011-10-11T11:31:13.0000000+00:00</time></trkpt><trkpt lat="44.522209" lon="34.004055"><ele>545.3</ele><time>2011-10-11T11:31:18.0000000+00:00</time></trkpt><trkpt lat="44.522209" lon="34.004051"><ele>545.4</ele><time>2011-10-11T11:31:23.0000000+00:00</time></trkpt><trkpt lat="44.522209" lon="34.004051"><ele>545.6</ele><time>2011-10-11T11:31:28.0000000+00:00</time></trkpt><trkpt lat="44.522209" lon="34.004051"><ele>545.9</ele><time>2011-10-11T11:31:33.0000000+00:00</time></trkpt><trkpt lat="44.522209" lon="34.004047"><ele>546.2</ele><time>2011-10-11T11:31:38.0000000+00:00</time></trkpt><trkpt lat="44.522343" lon="34.003975"><ele>548.1</ele><time>2011-10-11T11:31:43.0000000+00:00</time></trkpt><trkpt lat="44.522446" lon="34.003948"><ele>545.9</ele><time>2011-10-11T11:31:48.0000000+00:00</time></trkpt><trkpt lat="44.522469" lon="34.003944"><ele>545.9</ele><time>2011-10-11T11:31:53.0000000+00:00</time></trkpt><trkpt lat="44.522461" lon="34.003941"><ele>546.9</ele><time>2011-10-11T11:31:58.0000000+00:00</time></trkpt><trkpt lat="44.522465" lon="34.003937"><ele>547.3</ele><time>2011-10-11T11:32:03.0000000+00:00</time></trkpt><trkpt lat="44.522469" lon="34.003937"><ele>547.6</ele><time>2011-10-11T11:32:08.0000000+00:00</time></trkpt><trkpt lat="44.522476" lon="34.003933"><ele>547.9</ele><time>2011-10-11T11:32:13.0000000+00:00</time></trkpt><trkpt lat="44.522476" lon="34.003929"><ele>548.4</ele><time>2011-10-11T11:32:18.0000000+00:00</time></trkpt><trkpt lat="44.522472" lon="34.003929"><ele>548.9</ele><time>2011-10-11T11:32:23.0000000+00:00</time></trkpt><trkpt lat="44.522472" lon="34.003925"><ele>549.4</ele><time>2011-10-11T11:32:28.0000000+00:00</time></trkpt><trkpt lat="44.522472" lon="34.003925"><ele>549.9</ele><time>2011-10-11T11:32:33.0000000+00:00</time></trkpt><trkpt lat="44.522476" lon="34.003922"><ele>550.4</ele><time>2011-10-11T11:32:38.0000000+00:00</time></trkpt><trkpt lat="44.522484" lon="34.003914"><ele>550.9</ele><time>2011-10-11T11:32:43.0000000+00:00</time></trkpt><trkpt lat="44.522484" lon="34.003918"><ele>551.6</ele><time>2011-10-11T11:32:48.0000000+00:00</time></trkpt><trkpt lat="44.522476" lon="34.003937"><ele>552.2</ele><time>2011-10-11T11:32:53.0000000+00:00</time></trkpt><trkpt lat="44.522427" lon="34.003983"><ele>552.2</ele><time>2011-10-11T11:32:58.0000000+00:00</time></trkpt><trkpt lat="44.522274" lon="34.004131"><ele>550.1</ele><time>2011-10-11T11:33:03.0000000+00:00</time></trkpt><trkpt lat="44.522221" lon="34.004143"><ele>550.3</ele><time>2011-10-11T11:33:08.0000000+00:00</time></trkpt><trkpt lat="44.522217" lon="34.004135"><ele>550.8</ele><time>2011-10-11T11:33:13.0000000+00:00</time></trkpt><trkpt lat="44.522213" lon="34.004131"><ele>551.4</ele><time>2011-10-11T11:33:18.0000000+00:00</time></trkpt><trkpt lat="44.522209" lon="34.004128"><ele>551.9</ele><time>2011-10-11T11:33:23.0000000+00:00</time></trkpt><trkpt lat="44.522209" lon="34.004128"><ele>552.4</ele><time>2011-10-11T11:33:28.0000000+00:00</time></trkpt><trkpt lat="44.522213" lon="34.004124"><ele>552.9</ele><time>2011-10-11T11:33:33.0000000+00:00</time></trkpt><trkpt lat="44.522217" lon="34.00412"><ele>553.3</ele><time>2011-10-11T11:33:38.0000000+00:00</time></trkpt><trkpt lat="44.522224" lon="34.004108"><ele>553.6</ele><time>2011-10-11T11:33:43.0000000+00:00</time></trkpt><trkpt lat="44.522247" lon="34.004074"><ele>553.4</ele><time>2011-10-11T11:33:48.0000000+00:00</time></trkpt><trkpt lat="44.522266" lon="34.004059"><ele>554.5</ele><time>2011-10-11T11:33:53.0000000+00:00</time></trkpt><trkpt lat="44.522305" lon="34.004028"><ele>556.1</ele><time>2011-10-11T11:33:58.0000000+00:00</time></trkpt><trkpt lat="44.522335" lon="34.004044"><ele>557.1</ele><time>2011-10-11T11:34:03.0000000+00:00</time></trkpt><trkpt lat="44.52232" lon="34.004055"><ele>557.8</ele><time>2011-10-11T11:34:08.0000000+00:00</time></trkpt><trkpt lat="44.522327" lon="34.004059"><ele>558.6</ele><time>2011-10-11T11:34:13.0000000+00:00</time></trkpt><trkpt lat="44.522327" lon="34.004059"><ele>559.4</ele><time>2011-10-11T11:34:18.0000000+00:00</time></trkpt><trkpt lat="44.522331" lon="34.004055"><ele>560.1</ele><time>2011-10-11T11:34:23.0000000+00:00</time></trkpt><trkpt lat="44.522335" lon="34.004044"><ele>561.0</ele><time>2011-10-11T11:34:28.0000000+00:00</time></trkpt><trkpt lat="44.522339" lon="34.004032"><ele>561.9</ele><time>2011-10-11T11:34:33.0000000+00:00</time></trkpt><trkpt lat="44.522346" lon="34.004025"><ele>562.8</ele><time>2011-10-11T11:34:38.0000000+00:00</time></trkpt><trkpt lat="44.522354" lon="34.004025"><ele>563.7</ele><time>2011-10-11T11:34:43.0000000+00:00</time></trkpt><trkpt lat="44.522366" lon="34.004021"><ele>564.4</ele><time>2011-10-11T11:34:48.0000000+00:00</time></trkpt><trkpt lat="44.522392" lon="34.004009"><ele>563.6</ele><time>2011-10-11T11:34:53.0000000+00:00</time></trkpt><trkpt lat="44.522396" lon="34.003998"><ele>563.0</ele><time>2011-10-11T11:34:58.0000000+00:00</time></trkpt><trkpt lat="44.522453" lon="34.003986"><ele>562.2</ele><time>2011-10-11T11:35:03.0000000+00:00</time></trkpt><trkpt lat="44.522457" lon="34.003983"><ele>562.5</ele><time>2011-10-11T11:35:08.0000000+00:00</time></trkpt><trkpt lat="44.5224" lon="34.004005"><ele>563.5</ele><time>2011-10-11T11:35:13.0000000+00:00</time></trkpt><trkpt lat="44.522396" lon="34.004013"><ele>564.0</ele><time>2011-10-11T11:35:18.0000000+00:00</time></trkpt><trkpt lat="44.522358" lon="34.004063"><ele>564.5</ele><time>2011-10-11T11:35:23.0000000+00:00</time></trkpt><trkpt lat="44.522354" lon="34.004089"><ele>564.4</ele><time>2011-10-11T11:35:28.0000000+00:00</time></trkpt><trkpt lat="44.522346" lon="34.004097"><ele>564.2</ele><time>2011-10-11T11:35:33.0000000+00:00</time></trkpt><trkpt lat="44.522343" lon="34.004097"><ele>564.4</ele><time>2011-10-11T11:35:38.0000000+00:00</time></trkpt><trkpt lat="44.522354" lon="34.004093"><ele>562.9</ele><time>2011-10-11T11:35:43.0000000+00:00</time></trkpt><trkpt lat="44.522354" lon="34.004108"><ele>561.9</ele><time>2011-10-11T11:35:48.0000000+00:00</time></trkpt><trkpt lat="44.522354" lon="34.004116"><ele>561.0</ele><time>2011-10-11T11:35:53.0000000+00:00</time></trkpt><trkpt lat="44.522335" lon="34.004128"><ele>560.9</ele><time>2011-10-11T11:35:58.0000000+00:00</time></trkpt><trkpt lat="44.522339" lon="34.004128"><ele>560.5</ele><time>2011-10-11T11:36:03.0000000+00:00</time></trkpt><trkpt lat="44.522385" lon="34.00407"><ele>558.2</ele><time>2011-10-11T11:36:08.0000000+00:00</time></trkpt><trkpt lat="44.522449" lon="34.004032"><ele>556.0</ele><time>2011-10-11T11:36:13.0000000+00:00</time></trkpt><trkpt lat="44.522434" lon="34.004051"><ele>553.1</ele><time>2011-10-11T11:36:18.0000000+00:00</time></trkpt><trkpt lat="44.522472" lon="34.004032"><ele>551.1</ele><time>2011-10-11T11:36:23.0000000+00:00</time></trkpt><trkpt lat="44.522511" lon="34.004036"><ele>547.2</ele><time>2011-10-11T11:36:28.0000000+00:00</time></trkpt><trkpt lat="44.522533" lon="34.004028"><ele>545.6</ele><time>2011-10-11T11:36:33.0000000+00:00</time></trkpt><trkpt lat="44.522579" lon="34.004017"><ele>544.3</ele><time>2011-10-11T11:36:38.0000000+00:00</time></trkpt><trkpt lat="44.522591" lon="34.004028"><ele>543.1</ele><time>2011-10-11T11:36:43.0000000+00:00</time></trkpt><trkpt lat="44.522633" lon="34.004044"><ele>542.3</ele><time>2011-10-11T11:36:48.0000000+00:00</time></trkpt><trkpt lat="44.522621" lon="34.004078"><ele>542.9</ele><time>2011-10-11T11:36:53.0000000+00:00</time></trkpt><trkpt lat="44.522621" lon="34.004074"><ele>543.0</ele><time>2011-10-11T11:36:58.0000000+00:00</time></trkpt><trkpt lat="44.522617" lon="34.004074"><ele>542.9</ele><time>2011-10-11T11:37:03.0000000+00:00</time></trkpt><trkpt lat="44.522587" lon="34.004105"><ele>541.8</ele><time>2011-10-11T11:37:08.0000000+00:00</time></trkpt><trkpt lat="44.522591" lon="34.004101"><ele>541.6</ele><time>2011-10-11T11:37:13.0000000+00:00</time></trkpt><trkpt lat="44.522617" lon="34.004078"><ele>540.5</ele><time>2011-10-11T11:37:18.0000000+00:00</time></trkpt><trkpt lat="44.522648" lon="34.004044"><ele>539.1</ele><time>2011-10-11T11:37:23.0000000+00:00</time></trkpt><trkpt lat="44.52264" lon="34.00399"><ele>537.7</ele><time>2011-10-11T11:37:28.0000000+00:00</time></trkpt><trkpt lat="44.522644" lon="34.003952"><ele>536.3</ele><time>2011-10-11T11:37:33.0000000+00:00</time></trkpt><trkpt lat="44.522728" lon="34.003841"><ele>535.3</ele><time>2011-10-11T11:37:38.0000000+00:00</time></trkpt><trkpt lat="44.522751" lon="34.003757"><ele>534.4</ele><time>2011-10-11T11:37:43.0000000+00:00</time></trkpt><trkpt lat="44.522755" lon="34.003654"><ele>532.8</ele><time>2011-10-11T11:37:48.0000000+00:00</time></trkpt><trkpt lat="44.522778" lon="34.003578"><ele>531.4</ele><time>2011-10-11T11:37:53.0000000+00:00</time></trkpt><trkpt lat="44.522808" lon="34.003567"><ele>527.1</ele><time>2011-10-11T11:37:58.0000000+00:00</time></trkpt><trkpt lat="44.522854" lon="34.003559"><ele>524.9</ele><time>2011-10-11T11:38:03.0000000+00:00</time></trkpt><trkpt lat="44.522877" lon="34.003601"><ele>523.4</ele><time>2011-10-11T11:38:08.0000000+00:00</time></trkpt><trkpt lat="44.522892" lon="34.003658"><ele>519.3</ele><time>2011-10-11T11:38:13.0000000+00:00</time></trkpt><trkpt lat="44.522907" lon="34.003735"><ele>516.7</ele><time>2011-10-11T11:38:18.0000000+00:00</time></trkpt><trkpt lat="44.522934" lon="34.003799"><ele>515.8</ele><time>2011-10-11T11:38:23.0000000+00:00</time></trkpt><trkpt lat="44.522945" lon="34.003849"><ele>516.8</ele><time>2011-10-11T11:38:28.0000000+00:00</time></trkpt><trkpt lat="44.522964" lon="34.003876"><ele>519.1</ele><time>2011-10-11T11:38:33.0000000+00:00</time></trkpt><trkpt lat="44.523029" lon="34.003868"><ele>521.9</ele><time>2011-10-11T11:38:38.0000000+00:00</time></trkpt><trkpt lat="44.523067" lon="34.003876"><ele>524.4</ele><time>2011-10-11T11:38:43.0000000+00:00</time></trkpt><trkpt lat="44.523045" lon="34.003937"><ele>525.0</ele><time>2011-10-11T11:38:48.0000000+00:00</time></trkpt><trkpt lat="44.523037" lon="34.004017"><ele>526.3</ele><time>2011-10-11T11:38:53.0000000+00:00</time></trkpt><trkpt lat="44.523045" lon="34.004066"><ele>528.9</ele><time>2011-10-11T11:38:58.0000000+00:00</time></trkpt><trkpt lat="44.523106" lon="34.004089"><ele>529.4</ele><time>2011-10-11T11:39:03.0000000+00:00</time></trkpt><trkpt lat="44.523144" lon="34.004162"><ele>531.4</ele><time>2011-10-11T11:39:08.0000000+00:00</time></trkpt><trkpt lat="44.523201" lon="34.004196"><ele>533.4</ele><time>2011-10-11T11:39:13.0000000+00:00</time></trkpt><trkpt lat="44.523224" lon="34.00423"><ele>532.7</ele><time>2011-10-11T11:39:18.0000000+00:00</time></trkpt><trkpt lat="44.523247" lon="34.004257"><ele>531.9</ele><time>2011-10-11T11:39:23.0000000+00:00</time></trkpt><trkpt lat="44.523266" lon="34.004295"><ele>532.2</ele><time>2011-10-11T11:39:28.0000000+00:00</time></trkpt><trkpt lat="44.523285" lon="34.004345"><ele>532.7</ele><time>2011-10-11T11:39:33.0000000+00:00</time></trkpt><trkpt lat="44.523308" lon="34.004398"><ele>531.5</ele><time>2011-10-11T11:39:38.0000000+00:00</time></trkpt><trkpt lat="44.523357" lon="34.004425"><ele>529.9</ele><time>2011-10-11T11:39:43.0000000+00:00</time></trkpt><trkpt lat="44.523396" lon="34.004463"><ele>527.8</ele><time>2011-10-11T11:39:48.0000000+00:00</time></trkpt><trkpt lat="44.523422" lon="34.004494"><ele>526.0</ele><time>2011-10-11T11:39:53.0000000+00:00</time></trkpt><trkpt lat="44.523464" lon="34.004555"><ele>525.3</ele><time>2011-10-11T11:39:58.0000000+00:00</time></trkpt><trkpt lat="44.523483" lon="34.004604"><ele>524.2</ele><time>2011-10-11T11:40:03.0000000+00:00</time></trkpt><trkpt lat="44.523487" lon="34.004658"><ele>523.4</ele><time>2011-10-11T11:40:08.0000000+00:00</time></trkpt><trkpt lat="44.523579" lon="34.004681"><ele>523.3</ele><time>2011-10-11T11:40:13.0000000+00:00</time></trkpt><trkpt lat="44.523632" lon="34.004738"><ele>523.0</ele><time>2011-10-11T11:40:18.0000000+00:00</time></trkpt><trkpt lat="44.52367" lon="34.004795"><ele>524.1</ele><time>2011-10-11T11:40:23.0000000+00:00</time></trkpt><trkpt lat="44.52372" lon="34.004818"><ele>523.8</ele><time>2011-10-11T11:40:28.0000000+00:00</time></trkpt><trkpt lat="44.523739" lon="34.004875"><ele>523.0</ele><time>2011-10-11T11:40:33.0000000+00:00</time></trkpt><trkpt lat="44.523762" lon="34.004921"><ele>522.5</ele><time>2011-10-11T11:40:38.0000000+00:00</time></trkpt><trkpt lat="44.523861" lon="34.004932"><ele>525.6</ele><time>2011-10-11T11:40:43.0000000+00:00</time></trkpt><trkpt lat="44.523918" lon="34.004974"><ele>523.6</ele><time>2011-10-11T11:40:48.0000000+00:00</time></trkpt><trkpt lat="44.523964" lon="34.005028"><ele>523.1</ele><time>2011-10-11T11:40:53.0000000+00:00</time></trkpt><trkpt lat="44.524006" lon="34.005062"><ele>523.6</ele><time>2011-10-11T11:40:58.0000000+00:00</time></trkpt><trkpt lat="44.524014" lon="34.00507"><ele>523.5</ele><time>2011-10-11T11:41:03.0000000+00:00</time></trkpt><trkpt lat="44.524014" lon="34.005062"><ele>523.6</ele><time>2011-10-11T11:41:08.0000000+00:00</time></trkpt><trkpt lat="44.524044" lon="34.005077"><ele>524.2</ele><time>2011-10-11T11:41:13.0000000+00:00</time></trkpt><trkpt lat="44.524052" lon="34.005074"><ele>525.1</ele><time>2011-10-11T11:41:18.0000000+00:00</time></trkpt><trkpt lat="44.524063" lon="34.005116"><ele>524.6</ele><time>2011-10-11T11:41:23.0000000+00:00</time></trkpt><trkpt lat="44.524071" lon="34.005127"><ele>524.5</ele><time>2011-10-11T11:41:28.0000000+00:00</time></trkpt><trkpt lat="44.524067" lon="34.005127"><ele>524.1</ele><time>2011-10-11T11:41:33.0000000+00:00</time></trkpt><trkpt lat="44.524075" lon="34.005119"><ele>524.4</ele><time>2011-10-11T11:41:38.0000000+00:00</time></trkpt><trkpt lat="44.524075" lon="34.005119"><ele>524.3</ele><time>2011-10-11T11:41:43.0000000+00:00</time></trkpt><trkpt lat="44.524094" lon="34.005127"><ele>523.8</ele><time>2011-10-11T11:41:48.0000000+00:00</time></trkpt><trkpt lat="44.524139" lon="34.005146"><ele>523.4</ele><time>2011-10-11T11:41:53.0000000+00:00</time></trkpt><trkpt lat="44.524178" lon="34.005146"><ele>522.0</ele><time>2011-10-11T11:41:58.0000000+00:00</time></trkpt><trkpt lat="44.524212" lon="34.005188"><ele>523.6</ele><time>2011-10-11T11:42:03.0000000+00:00</time></trkpt><trkpt lat="44.524223" lon="34.005219"><ele>524.4</ele><time>2011-10-11T11:42:08.0000000+00:00</time></trkpt><trkpt lat="44.524269" lon="34.005238"><ele>525.1</ele><time>2011-10-11T11:42:13.0000000+00:00</time></trkpt><trkpt lat="44.524273" lon="34.00526"><ele>525.8</ele><time>2011-10-11T11:42:18.0000000+00:00</time></trkpt><trkpt lat="44.524273" lon="34.00526"><ele>525.7</ele><time>2011-10-11T11:42:23.0000000+00:00</time></trkpt><trkpt lat="44.524261" lon="34.00526"><ele>524.3</ele><time>2011-10-11T11:42:28.0000000+00:00</time></trkpt><trkpt lat="44.524242" lon="34.005249"><ele>523.6</ele><time>2011-10-11T11:42:33.0000000+00:00</time></trkpt><trkpt lat="44.524231" lon="34.005241"><ele>523.1</ele><time>2011-10-11T11:42:38.0000000+00:00</time></trkpt><trkpt lat="44.524216" lon="34.005234"><ele>522.9</ele><time>2011-10-11T11:42:43.0000000+00:00</time></trkpt><trkpt lat="44.524208" lon="34.00523"><ele>522.6</ele><time>2011-10-11T11:42:48.0000000+00:00</time></trkpt><trkpt lat="44.5242" lon="34.005222"><ele>522.5</ele><time>2011-10-11T11:42:53.0000000+00:00</time></trkpt><trkpt lat="44.524193" lon="34.005219"><ele>522.5</ele><time>2011-10-11T11:42:58.0000000+00:00</time></trkpt><trkpt lat="44.524193" lon="34.005219"><ele>522.5</ele><time>2011-10-11T11:43:03.0000000+00:00</time></trkpt><trkpt lat="44.524239" lon="34.005283"><ele>523.0</ele><time>2011-10-11T11:43:08.0000000+00:00</time></trkpt><trkpt lat="44.524254" lon="34.005363"><ele>520.5</ele><time>2011-10-11T11:43:13.0000000+00:00</time></trkpt><trkpt lat="44.524284" lon="34.005421"><ele>520.0</ele><time>2011-10-11T11:43:18.0000000+00:00</time></trkpt><trkpt lat="44.524307" lon="34.005478"><ele>519.6</ele><time>2011-10-11T11:43:23.0000000+00:00</time></trkpt><trkpt lat="44.52433" lon="34.005512"><ele>519.3</ele><time>2011-10-11T11:43:28.0000000+00:00</time></trkpt><trkpt lat="44.524303" lon="34.005562"><ele>517.8</ele><time>2011-10-11T11:43:33.0000000+00:00</time></trkpt><trkpt lat="44.524342" lon="34.005604"><ele>521.0</ele><time>2011-10-11T11:43:38.0000000+00:00</time></trkpt><trkpt lat="44.524376" lon="34.00565"><ele>521.8</ele><time>2011-10-11T11:43:43.0000000+00:00</time></trkpt><trkpt lat="44.524403" lon="34.005699"><ele>522.6</ele><time>2011-10-11T11:43:48.0000000+00:00</time></trkpt><trkpt lat="44.524429" lon="34.005703"><ele>523.4</ele><time>2011-10-11T11:43:53.0000000+00:00</time></trkpt><trkpt lat="44.524464" lon="34.005711"><ele>524.3</ele><time>2011-10-11T11:43:58.0000000+00:00</time></trkpt><trkpt lat="44.524521" lon="34.005749"><ele>525.1</ele><time>2011-10-11T11:44:03.0000000+00:00</time></trkpt><trkpt lat="44.524586" lon="34.005756"><ele>525.2</ele><time>2011-10-11T11:44:08.0000000+00:00</time></trkpt><trkpt lat="44.524628" lon="34.005798"><ele>523.7</ele><time>2011-10-11T11:44:13.0000000+00:00</time></trkpt><trkpt lat="44.524673" lon="34.005848"><ele>526.1</ele><time>2011-10-11T11:44:18.0000000+00:00</time></trkpt><trkpt lat="44.524693" lon="34.005878"><ele>528.2</ele><time>2011-10-11T11:44:23.0000000+00:00</time></trkpt><trkpt lat="44.524719" lon="34.005932"><ele>528.1</ele><time>2011-10-11T11:44:28.0000000+00:00</time></trkpt><trkpt lat="44.52475" lon="34.005962"><ele>528.6</ele><time>2011-10-11T11:44:33.0000000+00:00</time></trkpt><trkpt lat="44.524727" lon="34.005962"><ele>528.8</ele><time>2011-10-11T11:44:38.0000000+00:00</time></trkpt><trkpt lat="44.524727" lon="34.005962"><ele>528.7</ele><time>2011-10-11T11:44:43.0000000+00:00</time></trkpt><trkpt lat="44.524723" lon="34.005966"><ele>528.7</ele><time>2011-10-11T11:44:48.0000000+00:00</time></trkpt><trkpt lat="44.524719" lon="34.00597"><ele>528.1</ele><time>2011-10-11T11:44:53.0000000+00:00</time></trkpt><trkpt lat="44.524719" lon="34.00597"><ele>528.1</ele><time>2011-10-11T11:44:58.0000000+00:00</time></trkpt><trkpt lat="44.524765" lon="34.005985"><ele>528.2</ele><time>2011-10-11T11:45:03.0000000+00:00</time></trkpt><trkpt lat="44.524788" lon="34.006012"><ele>529.5</ele><time>2011-10-11T11:45:08.0000000+00:00</time></trkpt><trkpt lat="44.524799" lon="34.006081"><ele>530.4</ele><time>2011-10-11T11:45:13.0000000+00:00</time></trkpt><trkpt lat="44.524845" lon="34.006126"><ele>530.0</ele><time>2011-10-11T11:45:18.0000000+00:00</time></trkpt><trkpt lat="44.524883" lon="34.006165"><ele>530.5</ele><time>2011-10-11T11:45:23.0000000+00:00</time></trkpt><trkpt lat="44.524918" lon="34.006222"><ele>530.4</ele><time>2011-10-11T11:45:28.0000000+00:00</time></trkpt><trkpt lat="44.524921" lon="34.006264"><ele>531.2</ele><time>2011-10-11T11:45:33.0000000+00:00</time></trkpt><trkpt lat="44.524971" lon="34.006306"><ele>531.3</ele><time>2011-10-11T11:45:38.0000000+00:00</time></trkpt><trkpt lat="44.524994" lon="34.006329"><ele>532.0</ele><time>2011-10-11T11:45:43.0000000+00:00</time></trkpt><trkpt lat="44.525002" lon="34.006371"><ele>532.5</ele><time>2011-10-11T11:45:48.0000000+00:00</time></trkpt><trkpt lat="44.525047" lon="34.006405"><ele>531.8</ele><time>2011-10-11T11:45:53.0000000+00:00</time></trkpt><trkpt lat="44.525085" lon="34.006439"><ele>532.6</ele><time>2011-10-11T11:45:58.0000000+00:00</time></trkpt><trkpt lat="44.525074" lon="34.006477"><ele>533.5</ele><time>2011-10-11T11:46:03.0000000+00:00</time></trkpt><trkpt lat="44.525097" lon="34.006546"><ele>533.5</ele><time>2011-10-11T11:46:08.0000000+00:00</time></trkpt><trkpt lat="44.525112" lon="34.006607"><ele>533.0</ele><time>2011-10-11T11:46:13.0000000+00:00</time></trkpt><trkpt lat="44.525146" lon="34.006668"><ele>532.9</ele><time>2011-10-11T11:46:18.0000000+00:00</time></trkpt><trkpt lat="44.525154" lon="34.006676"><ele>532.5</ele><time>2011-10-11T11:46:23.0000000+00:00</time></trkpt><trkpt lat="44.525162" lon="34.006695"><ele>532.7</ele><time>2011-10-11T11:46:28.0000000+00:00</time></trkpt><trkpt lat="44.525177" lon="34.006752"><ele>533.0</ele><time>2011-10-11T11:46:33.0000000+00:00</time></trkpt><trkpt lat="44.525154" lon="34.006813"><ele>533.6</ele><time>2011-10-11T11:46:38.0000000+00:00</time></trkpt><trkpt lat="44.525196" lon="34.006863"><ele>534.6</ele><time>2011-10-11T11:46:43.0000000+00:00</time></trkpt><trkpt lat="44.525234" lon="34.006886"><ele>537.3</ele><time>2011-10-11T11:46:48.0000000+00:00</time></trkpt><trkpt lat="44.525311" lon="34.006931"><ele>537.7</ele><time>2011-10-11T11:46:53.0000000+00:00</time></trkpt><trkpt lat="44.525341" lon="34.006981"><ele>538.0</ele><time>2011-10-11T11:46:58.0000000+00:00</time></trkpt><trkpt lat="44.525326" lon="34.007072"><ele>536.2</ele><time>2011-10-11T11:47:03.0000000+00:00</time></trkpt><trkpt lat="44.525364" lon="34.007122"><ele>535.8</ele><time>2011-10-11T11:47:08.0000000+00:00</time></trkpt><trkpt lat="44.525402" lon="34.007172"><ele>537.2</ele><time>2011-10-11T11:47:13.0000000+00:00</time></trkpt><trkpt lat="44.525417" lon="34.007179"><ele>537.7</ele><time>2011-10-11T11:47:18.0000000+00:00</time></trkpt><trkpt lat="44.525421" lon="34.007183"><ele>538.2</ele><time>2011-10-11T11:47:23.0000000+00:00</time></trkpt><trkpt lat="44.525417" lon="34.007187"><ele>538.0</ele><time>2011-10-11T11:47:28.0000000+00:00</time></trkpt><trkpt lat="44.525417" lon="34.007187"><ele>537.3</ele><time>2011-10-11T11:47:33.0000000+00:00</time></trkpt><trkpt lat="44.525467" lon="34.00721"><ele>538.2</ele><time>2011-10-11T11:47:38.0000000+00:00</time></trkpt><trkpt lat="44.525494" lon="34.007225"><ele>538.8</ele><time>2011-10-11T11:47:43.0000000+00:00</time></trkpt><trkpt lat="44.525509" lon="34.007252"><ele>537.9</ele><time>2011-10-11T11:47:48.0000000+00:00</time></trkpt><trkpt lat="44.525528" lon="34.007282"><ele>537.5</ele><time>2011-10-11T11:47:53.0000000+00:00</time></trkpt><trkpt lat="44.525528" lon="34.007332"><ele>537.7</ele><time>2011-10-11T11:47:58.0000000+00:00</time></trkpt><trkpt lat="44.525558" lon="34.007343"><ele>539.8</ele><time>2011-10-11T11:48:03.0000000+00:00</time></trkpt><trkpt lat="44.525558" lon="34.007351"><ele>540.4</ele><time>2011-10-11T11:48:08.0000000+00:00</time></trkpt><trkpt lat="44.52557" lon="34.007408"><ele>542.8</ele><time>2011-10-11T11:48:13.0000000+00:00</time></trkpt><trkpt lat="44.525608" lon="34.007458"><ele>545.3</ele><time>2011-10-11T11:48:18.0000000+00:00</time></trkpt><trkpt lat="44.525639" lon="34.007504"><ele>547.8</ele><time>2011-10-11T11:48:23.0000000+00:00</time></trkpt><trkpt lat="44.525658" lon="34.007553"><ele>550.9</ele><time>2011-10-11T11:48:28.0000000+00:00</time></trkpt><trkpt lat="44.525681" lon="34.00761"><ele>553.4</ele><time>2011-10-11T11:48:33.0000000+00:00</time></trkpt><trkpt lat="44.525723" lon="34.007664"><ele>554.4</ele><time>2011-10-11T11:48:38.0000000+00:00</time></trkpt><trkpt lat="44.525761" lon="34.007721"><ele>551.7</ele><time>2011-10-11T11:48:43.0000000+00:00</time></trkpt><trkpt lat="44.525776" lon="34.007774"><ele>550.5</ele><time>2011-10-11T11:48:48.0000000+00:00</time></trkpt><trkpt lat="44.525818" lon="34.007816"><ele>548.8</ele><time>2011-10-11T11:48:53.0000000+00:00</time></trkpt><trkpt lat="44.525852" lon="34.007862"><ele>545.4</ele><time>2011-10-11T11:48:58.0000000+00:00</time></trkpt><trkpt lat="44.525852" lon="34.007938"><ele>542.6</ele><time>2011-10-11T11:49:03.0000000+00:00</time></trkpt><trkpt lat="44.525864" lon="34.007965"><ele>542.9</ele><time>2011-10-11T11:49:08.0000000+00:00</time></trkpt><trkpt lat="44.525864" lon="34.007977"><ele>543.4</ele><time>2011-10-11T11:49:13.0000000+00:00</time></trkpt><trkpt lat="44.525864" lon="34.007973"><ele>543.1</ele><time>2011-10-11T11:49:18.0000000+00:00</time></trkpt><trkpt lat="44.52586" lon="34.007977"><ele>542.7</ele><time>2011-10-11T11:49:23.0000000+00:00</time></trkpt><trkpt lat="44.525856" lon="34.007977"><ele>542.8</ele><time>2011-10-11T11:49:28.0000000+00:00</time></trkpt><trkpt lat="44.525875" lon="34.007988"><ele>542.5</ele><time>2011-10-11T11:49:33.0000000+00:00</time></trkpt><trkpt lat="44.525879" lon="34.00798"><ele>542.5</ele><time>2011-10-11T11:49:38.0000000+00:00</time></trkpt><trkpt lat="44.525875" lon="34.00798"><ele>542.4</ele><time>2011-10-11T11:49:43.0000000+00:00</time></trkpt><trkpt lat="44.525856" lon="34.007961"><ele>541.2</ele><time>2011-10-11T11:49:48.0000000+00:00</time></trkpt><trkpt lat="44.525852" lon="34.007961"><ele>540.7</ele><time>2011-10-11T11:49:53.0000000+00:00</time></trkpt><trkpt lat="44.525852" lon="34.007965"><ele>540.5</ele><time>2011-10-11T11:49:58.0000000+00:00</time></trkpt><trkpt lat="44.525852" lon="34.007969"><ele>540.3</ele><time>2011-10-11T11:50:03.0000000+00:00</time></trkpt><trkpt lat="44.525852" lon="34.007961"><ele>540.7</ele><time>2011-10-11T11:50:08.0000000+00:00</time></trkpt><trkpt lat="44.525856" lon="34.007961"><ele>540.7</ele><time>2011-10-11T11:50:13.0000000+00:00</time></trkpt><trkpt lat="44.525856" lon="34.007961"><ele>540.7</ele><time>2011-10-11T11:50:18.0000000+00:00</time></trkpt><trkpt lat="44.525856" lon="34.007965"><ele>540.7</ele><time>2011-10-11T11:50:23.0000000+00:00</time></trkpt><trkpt lat="44.525837" lon="34.007969"><ele>540.4</ele><time>2011-10-11T11:50:28.0000000+00:00</time></trkpt><trkpt lat="44.525837" lon="34.007965"><ele>540.0</ele><time>2011-10-11T11:50:33.0000000+00:00</time></trkpt><trkpt lat="44.525841" lon="34.00798"><ele>539.8</ele><time>2011-10-11T11:50:38.0000000+00:00</time></trkpt><trkpt lat="44.525848" lon="34.007988"><ele>539.0</ele><time>2011-10-11T11:50:43.0000000+00:00</time></trkpt><trkpt lat="44.525848" lon="34.007988"><ele>538.2</ele><time>2011-10-11T11:50:48.0000000+00:00</time></trkpt><trkpt lat="44.525867" lon="34.007988"><ele>537.5</ele><time>2011-10-11T11:50:53.0000000+00:00</time></trkpt><trkpt lat="44.525852" lon="34.007961"><ele>536.7</ele><time>2011-10-11T11:50:58.0000000+00:00</time></trkpt><trkpt lat="44.525852" lon="34.007965"><ele>536.7</ele><time>2011-10-11T11:51:03.0000000+00:00</time></trkpt><trkpt lat="44.525852" lon="34.007965"><ele>536.7</ele><time>2011-10-11T11:51:08.0000000+00:00</time></trkpt><trkpt lat="44.525852" lon="34.007965"><ele>536.6</ele><time>2011-10-11T11:51:13.0000000+00:00</time></trkpt><trkpt lat="44.525848" lon="34.007969"><ele>536.6</ele><time>2011-10-11T11:51:18.0000000+00:00</time></trkpt><trkpt lat="44.525848" lon="34.007969"><ele>536.4</ele><time>2011-10-11T11:51:23.0000000+00:00</time></trkpt><trkpt lat="44.525848" lon="34.007969"><ele>536.3</ele><time>2011-10-11T11:51:28.0000000+00:00</time></trkpt><trkpt lat="44.525848" lon="34.007969"><ele>536.1</ele><time>2011-10-11T11:51:33.0000000+00:00</time></trkpt><trkpt lat="44.525848" lon="34.007973"><ele>536.0</ele><time>2011-10-11T11:51:38.0000000+00:00</time></trkpt><trkpt lat="44.525848" lon="34.007973"><ele>535.9</ele><time>2011-10-11T11:51:43.0000000+00:00</time></trkpt><trkpt lat="44.525848" lon="34.007973"><ele>535.7</ele><time>2011-10-11T11:51:48.0000000+00:00</time></trkpt><trkpt lat="44.525845" lon="34.007973"><ele>535.5</ele><time>2011-10-11T11:51:53.0000000+00:00</time></trkpt><trkpt lat="44.525845" lon="34.007973"><ele>535.4</ele><time>2011-10-11T11:51:58.0000000+00:00</time></trkpt><trkpt lat="44.525845" lon="34.007977"><ele>535.3</ele><time>2011-10-11T11:52:03.0000000+00:00</time></trkpt><trkpt lat="44.525845" lon="34.007977"><ele>535.2</ele><time>2011-10-11T11:52:08.0000000+00:00</time></trkpt><trkpt lat="44.525845" lon="34.007977"><ele>535.1</ele><time>2011-10-11T11:52:13.0000000+00:00</time></trkpt><trkpt lat="44.525845" lon="34.007977"><ele>535.0</ele><time>2011-10-11T11:52:18.0000000+00:00</time></trkpt><trkpt lat="44.525841" lon="34.007977"><ele>534.9</ele><time>2011-10-11T11:52:23.0000000+00:00</time></trkpt><trkpt lat="44.525841" lon="34.00798"><ele>534.9</ele><time>2011-10-11T11:52:28.0000000+00:00</time></trkpt><trkpt lat="44.525841" lon="34.00798"><ele>534.9</ele><time>2011-10-11T11:52:33.0000000+00:00</time></trkpt><trkpt lat="44.525841" lon="34.00798"><ele>534.8</ele><time>2011-10-11T11:52:38.0000000+00:00</time></trkpt><trkpt lat="44.525841" lon="34.007984"><ele>534.7</ele><time>2011-10-11T11:52:43.0000000+00:00</time></trkpt><trkpt lat="44.525841" lon="34.007984"><ele>534.5</ele><time>2011-10-11T11:52:48.0000000+00:00</time></trkpt><trkpt lat="44.525837" lon="34.007984"><ele>534.4</ele><time>2011-10-11T11:52:53.0000000+00:00</time></trkpt><trkpt lat="44.525837" lon="34.007984"><ele>534.3</ele><time>2011-10-11T11:52:58.0000000+00:00</time></trkpt><trkpt lat="44.525837" lon="34.007988"><ele>534.1</ele><time>2011-10-11T11:53:03.0000000+00:00</time></trkpt><trkpt lat="44.525837" lon="34.007988"><ele>534.0</ele><time>2011-10-11T11:53:08.0000000+00:00</time></trkpt><trkpt lat="44.525837" lon="34.007988"><ele>533.8</ele><time>2011-10-11T11:53:13.0000000+00:00</time></trkpt><trkpt lat="44.525837" lon="34.007988"><ele>533.7</ele><time>2011-10-11T11:53:18.0000000+00:00</time></trkpt><trkpt lat="44.525837" lon="34.007988"><ele>533.6</ele><time>2011-10-11T11:53:23.0000000+00:00</time></trkpt><trkpt lat="44.525833" lon="34.007992"><ele>533.6</ele><time>2011-10-11T11:53:28.0000000+00:00</time></trkpt><trkpt lat="44.525837" lon="34.007992"><ele>533.5</ele><time>2011-10-11T11:53:33.0000000+00:00</time></trkpt><trkpt lat="44.525833" lon="34.007988"><ele>533.5</ele><time>2011-10-11T11:53:38.0000000+00:00</time></trkpt><trkpt lat="44.525833" lon="34.007984"><ele>533.5</ele><time>2011-10-11T11:53:43.0000000+00:00</time></trkpt><trkpt lat="44.525833" lon="34.007984"><ele>533.4</ele><time>2011-10-11T11:53:48.0000000+00:00</time></trkpt><trkpt lat="44.525837" lon="34.00798"><ele>533.5</ele><time>2011-10-11T11:53:53.0000000+00:00</time></trkpt><trkpt lat="44.525829" lon="34.007942"><ele>533.9</ele><time>2011-10-11T11:53:58.0000000+00:00</time></trkpt><trkpt lat="44.525818" lon="34.00795"><ele>532.4</ele><time>2011-10-11T11:54:03.0000000+00:00</time></trkpt><trkpt lat="44.525818" lon="34.007954"><ele>532.3</ele><time>2011-10-11T11:54:08.0000000+00:00</time></trkpt><trkpt lat="44.525818" lon="34.007973"><ele>530.1</ele><time>2011-10-11T11:54:13.0000000+00:00</time></trkpt><trkpt lat="44.525818" lon="34.007973"><ele>530.1</ele><time>2011-10-11T11:54:18.0000000+00:00</time></trkpt><trkpt lat="44.525814" lon="34.007977"><ele>530.2</ele><time>2011-10-11T11:54:23.0000000+00:00</time></trkpt><trkpt lat="44.525814" lon="34.007977"><ele>530.3</ele><time>2011-10-11T11:54:28.0000000+00:00</time></trkpt><trkpt lat="44.525822" lon="34.00798"><ele>530.2</ele><time>2011-10-11T11:54:33.0000000+00:00</time></trkpt><trkpt lat="44.525829" lon="34.00798"><ele>530.1</ele><time>2011-10-11T11:54:38.0000000+00:00</time></trkpt><trkpt lat="44.525829" lon="34.00798"><ele>530.1</ele><time>2011-10-11T11:54:43.0000000+00:00</time></trkpt><trkpt lat="44.525826" lon="34.007984"><ele>530.0</ele><time>2011-10-11T11:54:48.0000000+00:00</time></trkpt><trkpt lat="44.525829" lon="34.00798"><ele>530.0</ele><time>2011-10-11T11:54:53.0000000+00:00</time></trkpt><trkpt lat="44.525837" lon="34.00798"><ele>529.9</ele><time>2011-10-11T11:54:58.0000000+00:00</time></trkpt><trkpt lat="44.525856" lon="34.007984"><ele>529.2</ele><time>2011-10-11T11:55:03.0000000+00:00</time></trkpt><trkpt lat="44.52589" lon="34.007977"><ele>529.2</ele><time>2011-10-11T11:55:08.0000000+00:00</time></trkpt><trkpt lat="44.525898" lon="34.008007"><ele>529.2</ele><time>2011-10-11T11:55:13.0000000+00:00</time></trkpt><trkpt lat="44.525898" lon="34.008018"><ele>529.3</ele><time>2011-10-11T11:55:18.0000000+00:00</time></trkpt><trkpt lat="44.525898" lon="34.008068"><ele>530.5</ele><time>2011-10-11T11:55:23.0000000+00:00</time></trkpt><trkpt lat="44.525902" lon="34.008099"><ele>530.3</ele><time>2011-10-11T11:55:28.0000000+00:00</time></trkpt><trkpt lat="44.525921" lon="34.008125"><ele>530.9</ele><time>2011-10-11T11:55:33.0000000+00:00</time></trkpt><trkpt lat="44.525928" lon="34.008137"><ele>531.3</ele><time>2011-10-11T11:55:38.0000000+00:00</time></trkpt><trkpt lat="44.525932" lon="34.008137"><ele>530.6</ele><time>2011-10-11T11:55:43.0000000+00:00</time></trkpt><trkpt lat="44.525917" lon="34.00816"><ele>532.4</ele><time>2011-10-11T11:55:48.0000000+00:00</time></trkpt><trkpt lat="44.525925" lon="34.008194"><ele>533.3</ele><time>2011-10-11T11:55:53.0000000+00:00</time></trkpt><trkpt lat="44.525913" lon="34.008209"><ele>533.1</ele><time>2011-10-11T11:55:58.0000000+00:00</time></trkpt><trkpt lat="44.525913" lon="34.008209"><ele>532.9</ele><time>2011-10-11T11:56:03.0000000+00:00</time></trkpt><trkpt lat="44.525902" lon="34.008221"><ele>533.8</ele><time>2011-10-11T11:56:08.0000000+00:00</time></trkpt><trkpt lat="44.525909" lon="34.00824"><ele>532.5</ele><time>2011-10-11T11:56:13.0000000+00:00</time></trkpt><trkpt lat="44.525913" lon="34.008259"><ele>531.7</ele><time>2011-10-11T11:56:18.0000000+00:00</time></trkpt><trkpt lat="44.525909" lon="34.008266"><ele>532.5</ele><time>2011-10-11T11:56:23.0000000+00:00</time></trkpt><trkpt lat="44.525913" lon="34.008282"><ele>531.8</ele><time>2011-10-11T11:56:28.0000000+00:00</time></trkpt><trkpt lat="44.525928" lon="34.008282"><ele>531.0</ele><time>2011-10-11T11:56:33.0000000+00:00</time></trkpt><trkpt lat="44.52594" lon="34.008278"><ele>531.4</ele><time>2011-10-11T11:56:38.0000000+00:00</time></trkpt><trkpt lat="44.525951" lon="34.008266"><ele>531.3</ele><time>2011-10-11T11:56:43.0000000+00:00</time></trkpt><trkpt lat="44.525955" lon="34.00827"><ele>530.7</ele><time>2011-10-11T11:56:48.0000000+00:00</time></trkpt><trkpt lat="44.525967" lon="34.008274"><ele>530.4</ele><time>2011-10-11T11:56:53.0000000+00:00</time></trkpt><trkpt lat="44.525974" lon="34.008278"><ele>530.9</ele><time>2011-10-11T11:56:58.0000000+00:00</time></trkpt><trkpt lat="44.52597" lon="34.008289"><ele>531.0</ele><time>2011-10-11T11:57:03.0000000+00:00</time></trkpt><trkpt lat="44.525982" lon="34.008301"><ele>531.0</ele><time>2011-10-11T11:57:08.0000000+00:00</time></trkpt><trkpt lat="44.52599" lon="34.008301"><ele>530.9</ele><time>2011-10-11T11:57:13.0000000+00:00</time></trkpt><trkpt lat="44.525997" lon="34.008305"><ele>531.1</ele><time>2011-10-11T11:57:18.0000000+00:00</time></trkpt><trkpt lat="44.525982" lon="34.008327"><ele>530.9</ele><time>2011-10-11T11:57:23.0000000+00:00</time></trkpt><trkpt lat="44.525982" lon="34.008373"><ele>531.6</ele><time>2011-10-11T11:57:28.0000000+00:00</time></trkpt><trkpt lat="44.52594" lon="34.008377"><ele>532.5</ele><time>2011-10-11T11:57:33.0000000+00:00</time></trkpt><trkpt lat="44.525936" lon="34.008389"><ele>532.9</ele><time>2011-10-11T11:57:38.0000000+00:00</time></trkpt><trkpt lat="44.52594" lon="34.008385"><ele>532.8</ele><time>2011-10-11T11:57:43.0000000+00:00</time></trkpt><trkpt lat="44.52594" lon="34.008385"><ele>532.7</ele><time>2011-10-11T11:57:48.0000000+00:00</time></trkpt><trkpt lat="44.52594" lon="34.008381"><ele>532.6</ele><time>2011-10-11T11:57:53.0000000+00:00</time></trkpt><trkpt lat="44.525944" lon="34.008381"><ele>532.5</ele><time>2011-10-11T11:57:58.0000000+00:00</time></trkpt><trkpt lat="44.525944" lon="34.008381"><ele>532.4</ele><time>2011-10-11T11:58:03.0000000+00:00</time></trkpt><trkpt lat="44.525944" lon="34.008381"><ele>532.3</ele><time>2011-10-11T11:58:08.0000000+00:00</time></trkpt><trkpt lat="44.525944" lon="34.008381"><ele>532.3</ele><time>2011-10-11T11:58:13.0000000+00:00</time></trkpt><trkpt lat="44.525944" lon="34.008381"><ele>532.2</ele><time>2011-10-11T11:58:18.0000000+00:00</time></trkpt><trkpt lat="44.52594" lon="34.008381"><ele>532.2</ele><time>2011-10-11T11:58:23.0000000+00:00</time></trkpt><trkpt lat="44.525951" lon="34.008415"><ele>531.5</ele><time>2011-10-11T11:58:28.0000000+00:00</time></trkpt><trkpt lat="44.52597" lon="34.008476"><ele>530.7</ele><time>2011-10-11T11:58:33.0000000+00:00</time></trkpt><trkpt lat="44.526001" lon="34.00853"><ele>531.4</ele><time>2011-10-11T11:58:38.0000000+00:00</time></trkpt><trkpt lat="44.525986" lon="34.008575"><ele>531.6</ele><time>2011-10-11T11:58:43.0000000+00:00</time></trkpt><trkpt lat="44.526001" lon="34.00861"><ele>530.8</ele><time>2011-10-11T11:58:48.0000000+00:00</time></trkpt><trkpt lat="44.526016" lon="34.008648"><ele>530.9</ele><time>2011-10-11T11:58:53.0000000+00:00</time></trkpt><trkpt lat="44.526012" lon="34.008656"><ele>530.6</ele><time>2011-10-11T11:58:58.0000000+00:00</time></trkpt><trkpt lat="44.52602" lon="34.008709"><ele>530.5</ele><time>2011-10-11T11:59:03.0000000+00:00</time></trkpt><trkpt lat="44.526051" lon="34.008766"><ele>530.1</ele><time>2011-10-11T11:59:08.0000000+00:00</time></trkpt><trkpt lat="44.526051" lon="34.008827"><ele>530.8</ele><time>2011-10-11T11:59:13.0000000+00:00</time></trkpt><trkpt lat="44.526062" lon="34.008881"><ele>530.5</ele><time>2011-10-11T11:59:18.0000000+00:00</time></trkpt><trkpt lat="44.526096" lon="34.008923"><ele>530.2</ele><time>2011-10-11T11:59:23.0000000+00:00</time></trkpt><trkpt lat="44.526089" lon="34.008972"><ele>530.6</ele><time>2011-10-11T11:59:28.0000000+00:00</time></trkpt><trkpt lat="44.526115" lon="34.009022"><ele>530.0</ele><time>2011-10-11T11:59:33.0000000+00:00</time></trkpt><trkpt lat="44.526131" lon="34.009064"><ele>531.3</ele><time>2011-10-11T11:59:38.0000000+00:00</time></trkpt><trkpt lat="44.52615" lon="34.009125"><ele>532.5</ele><time>2011-10-11T11:59:43.0000000+00:00</time></trkpt><trkpt lat="44.526188" lon="34.009171"><ele>532.2</ele><time>2011-10-11T11:59:48.0000000+00:00</time></trkpt><trkpt lat="44.526237" lon="34.009209"><ele>531.9</ele><time>2011-10-11T11:59:53.0000000+00:00</time></trkpt><trkpt lat="44.52626" lon="34.009262"><ele>532.0</ele><time>2011-10-11T11:59:58.0000000+00:00</time></trkpt><trkpt lat="44.526299" lon="34.009312"><ele>531.2</ele><time>2011-10-11T12:00:03.0000000+00:00</time></trkpt><trkpt lat="44.526329" lon="34.009335"><ele>531.2</ele><time>2011-10-11T12:00:08.0000000+00:00</time></trkpt><trkpt lat="44.52634" lon="34.009354"><ele>531.0</ele><time>2011-10-11T12:00:13.0000000+00:00</time></trkpt><trkpt lat="44.526356" lon="34.00938"><ele>530.5</ele><time>2011-10-11T12:00:18.0000000+00:00</time></trkpt><trkpt lat="44.52639" lon="34.009396"><ele>530.4</ele><time>2011-10-11T12:00:23.0000000+00:00</time></trkpt><trkpt lat="44.526409" lon="34.009441"><ele>530.2</ele><time>2011-10-11T12:00:28.0000000+00:00</time></trkpt><trkpt lat="44.526447" lon="34.009468"><ele>529.5</ele><time>2011-10-11T12:00:33.0000000+00:00</time></trkpt><trkpt lat="44.526474" lon="34.009491"><ele>529.6</ele><time>2011-10-11T12:00:38.0000000+00:00</time></trkpt><trkpt lat="44.526505" lon="34.009525"><ele>530.0</ele><time>2011-10-11T12:00:43.0000000+00:00</time></trkpt><trkpt lat="44.52652" lon="34.009575"><ele>529.9</ele><time>2011-10-11T12:00:48.0000000+00:00</time></trkpt><trkpt lat="44.526558" lon="34.009605"><ele>529.9</ele><time>2011-10-11T12:00:53.0000000+00:00</time></trkpt><trkpt lat="44.526585" lon="34.009659"><ele>530.6</ele><time>2011-10-11T12:00:58.0000000+00:00</time></trkpt><trkpt lat="44.526592" lon="34.009712"><ele>531.4</ele><time>2011-10-11T12:01:03.0000000+00:00</time></trkpt><trkpt lat="44.526611" lon="34.009731"><ele>532.6</ele><time>2011-10-11T12:01:08.0000000+00:00</time></trkpt><trkpt lat="44.526604" lon="34.009724"><ele>532.3</ele><time>2011-10-11T12:01:13.0000000+00:00</time></trkpt><trkpt lat="44.526608" lon="34.00972"><ele>532.4</ele><time>2011-10-11T12:01:18.0000000+00:00</time></trkpt><trkpt lat="44.526604" lon="34.009743"><ele>532.4</ele><time>2011-10-11T12:01:23.0000000+00:00</time></trkpt><trkpt lat="44.526608" lon="34.009769"><ele>532.1</ele><time>2011-10-11T12:01:28.0000000+00:00</time></trkpt><trkpt lat="44.526615" lon="34.009769"><ele>532.2</ele><time>2011-10-11T12:01:33.0000000+00:00</time></trkpt><trkpt lat="44.526608" lon="34.009785"><ele>532.5</ele><time>2011-10-11T12:01:38.0000000+00:00</time></trkpt><trkpt lat="44.526611" lon="34.009838"><ele>532.8</ele><time>2011-10-11T12:01:43.0000000+00:00</time></trkpt><trkpt lat="44.526634" lon="34.009903"><ele>532.6</ele><time>2011-10-11T12:01:48.0000000+00:00</time></trkpt><trkpt lat="44.526661" lon="34.009964"><ele>532.1</ele><time>2011-10-11T12:01:53.0000000+00:00</time></trkpt><trkpt lat="44.526661" lon="34.009968"><ele>532.1</ele><time>2011-10-11T12:01:58.0000000+00:00</time></trkpt><trkpt lat="44.526638" lon="34.009983"><ele>532.2</ele><time>2011-10-11T12:02:03.0000000+00:00</time></trkpt><trkpt lat="44.526623" lon="34.010017"><ele>532.2</ele><time>2011-10-11T12:02:08.0000000+00:00</time></trkpt><trkpt lat="44.526623" lon="34.010063"><ele>532.6</ele><time>2011-10-11T12:02:13.0000000+00:00</time></trkpt><trkpt lat="44.52663" lon="34.010113"><ele>531.9</ele><time>2011-10-11T12:02:18.0000000+00:00</time></trkpt><trkpt lat="44.526634" lon="34.010155"><ele>532.8</ele><time>2011-10-11T12:02:23.0000000+00:00</time></trkpt><trkpt lat="44.526649" lon="34.010197"><ele>533.4</ele><time>2011-10-11T12:02:28.0000000+00:00</time></trkpt><trkpt lat="44.526665" lon="34.010216"><ele>534.5</ele><time>2011-10-11T12:02:33.0000000+00:00</time></trkpt><trkpt lat="44.526699" lon="34.010239"><ele>535.1</ele><time>2011-10-11T12:02:38.0000000+00:00</time></trkpt><trkpt lat="44.526726" lon="34.010246"><ele>536.0</ele><time>2011-10-11T12:02:43.0000000+00:00</time></trkpt><trkpt lat="44.526718" lon="34.010323"><ele>536.8</ele><time>2011-10-11T12:02:48.0000000+00:00</time></trkpt><trkpt lat="44.526718" lon="34.010349"><ele>537.9</ele><time>2011-10-11T12:02:53.0000000+00:00</time></trkpt><trkpt lat="44.526711" lon="34.01038"><ele>539.1</ele><time>2011-10-11T12:02:58.0000000+00:00</time></trkpt><trkpt lat="44.526695" lon="34.010372"><ele>540.0</ele><time>2011-10-11T12:03:03.0000000+00:00</time></trkpt><trkpt lat="44.526695" lon="34.010376"><ele>540.7</ele><time>2011-10-11T12:03:08.0000000+00:00</time></trkpt><trkpt lat="44.526676" lon="34.010441"><ele>541.3</ele><time>2011-10-11T12:03:13.0000000+00:00</time></trkpt><trkpt lat="44.526649" lon="34.010464"><ele>541.8</ele><time>2011-10-11T12:03:18.0000000+00:00</time></trkpt><trkpt lat="44.526646" lon="34.010529"><ele>541.7</ele><time>2011-10-11T12:03:23.0000000+00:00</time></trkpt><trkpt lat="44.526661" lon="34.010574"><ele>541.7</ele><time>2011-10-11T12:03:28.0000000+00:00</time></trkpt><trkpt lat="44.526653" lon="34.010574"><ele>541.4</ele><time>2011-10-11T12:03:33.0000000+00:00</time></trkpt><trkpt lat="44.526661" lon="34.010582"><ele>541.5</ele><time>2011-10-11T12:03:38.0000000+00:00</time></trkpt><trkpt lat="44.526661" lon="34.010616"><ele>541.5</ele><time>2011-10-11T12:03:43.0000000+00:00</time></trkpt><trkpt lat="44.526646" lon="34.010651"><ele>541.8</ele><time>2011-10-11T12:03:48.0000000+00:00</time></trkpt><trkpt lat="44.52663" lon="34.010666"><ele>542.5</ele><time>2011-10-11T12:03:53.0000000+00:00</time></trkpt><trkpt lat="44.526611" lon="34.0107"><ele>543.2</ele><time>2011-10-11T12:03:58.0000000+00:00</time></trkpt><trkpt lat="44.526608" lon="34.010735"><ele>543.9</ele><time>2011-10-11T12:04:03.0000000+00:00</time></trkpt><trkpt lat="44.526608" lon="34.01075"><ele>544.4</ele><time>2011-10-11T12:04:08.0000000+00:00</time></trkpt><trkpt lat="44.526604" lon="34.01075"><ele>545.1</ele><time>2011-10-11T12:04:13.0000000+00:00</time></trkpt><trkpt lat="44.526588" lon="34.01075"><ele>545.0</ele><time>2011-10-11T12:04:18.0000000+00:00</time></trkpt><trkpt lat="44.526585" lon="34.010757"><ele>545.2</ele><time>2011-10-11T12:04:23.0000000+00:00</time></trkpt><trkpt lat="44.526585" lon="34.010754"><ele>545.2</ele><time>2011-10-11T12:04:28.0000000+00:00</time></trkpt><trkpt lat="44.526585" lon="34.010754"><ele>545.2</ele><time>2011-10-11T12:04:33.0000000+00:00</time></trkpt><trkpt lat="44.526585" lon="34.010754"><ele>545.2</ele><time>2011-10-11T12:04:38.0000000+00:00</time></trkpt><trkpt lat="44.526585" lon="34.010754"><ele>545.3</ele><time>2011-10-11T12:04:43.0000000+00:00</time></trkpt><trkpt lat="44.526585" lon="34.010757"><ele>545.3</ele><time>2011-10-11T12:04:48.0000000+00:00</time></trkpt><trkpt lat="44.526569" lon="34.010807"><ele>545.8</ele><time>2011-10-11T12:04:53.0000000+00:00</time></trkpt><trkpt lat="44.526573" lon="34.01083"><ele>546.4</ele><time>2011-10-11T12:04:58.0000000+00:00</time></trkpt><trkpt lat="44.526573" lon="34.010826"><ele>546.6</ele><time>2011-10-11T12:05:03.0000000+00:00</time></trkpt><trkpt lat="44.526573" lon="34.010826"><ele>546.7</ele><time>2011-10-11T12:05:08.0000000+00:00</time></trkpt><trkpt lat="44.526573" lon="34.010826"><ele>546.7</ele><time>2011-10-11T12:05:13.0000000+00:00</time></trkpt><trkpt lat="44.526573" lon="34.01083"><ele>546.8</ele><time>2011-10-11T12:05:18.0000000+00:00</time></trkpt><trkpt lat="44.526573" lon="34.01083"><ele>547.3</ele><time>2011-10-11T12:05:23.0000000+00:00</time></trkpt><trkpt lat="44.526573" lon="34.01083"><ele>547.7</ele><time>2011-10-11T12:05:28.0000000+00:00</time></trkpt><trkpt lat="44.526562" lon="34.010895"><ele>548.6</ele><time>2011-10-11T12:05:33.0000000+00:00</time></trkpt><trkpt lat="44.526546" lon="34.010906"><ele>549.0</ele><time>2011-10-11T12:05:38.0000000+00:00</time></trkpt><trkpt lat="44.526539" lon="34.010914"><ele>550.1</ele><time>2011-10-11T12:05:43.0000000+00:00</time></trkpt><trkpt lat="44.526531" lon="34.010929"><ele>550.7</ele><time>2011-10-11T12:05:48.0000000+00:00</time></trkpt><trkpt lat="44.526527" lon="34.010937"><ele>550.9</ele><time>2011-10-11T12:05:53.0000000+00:00</time></trkpt><trkpt lat="44.526508" lon="34.010937"><ele>551.2</ele><time>2011-10-11T12:05:58.0000000+00:00</time></trkpt><trkpt lat="44.526485" lon="34.010967"><ele>551.6</ele><time>2011-10-11T12:06:03.0000000+00:00</time></trkpt><trkpt lat="44.526485" lon="34.011017"><ele>551.9</ele><time>2011-10-11T12:06:08.0000000+00:00</time></trkpt><trkpt lat="44.526493" lon="34.011021"><ele>552.2</ele><time>2011-10-11T12:06:13.0000000+00:00</time></trkpt><trkpt lat="44.526524" lon="34.011044"><ele>552.2</ele><time>2011-10-11T12:06:18.0000000+00:00</time></trkpt><trkpt lat="44.526546" lon="34.01112"><ele>552.2</ele><time>2011-10-11T12:06:23.0000000+00:00</time></trkpt><trkpt lat="44.526566" lon="34.011196"><ele>552.1</ele><time>2011-10-11T12:06:28.0000000+00:00</time></trkpt><trkpt lat="44.526573" lon="34.011253"><ele>552.0</ele><time>2011-10-11T12:06:33.0000000+00:00</time></trkpt><trkpt lat="44.526569" lon="34.011303"><ele>551.5</ele><time>2011-10-11T12:06:38.0000000+00:00</time></trkpt><trkpt lat="44.526577" lon="34.011349"><ele>551.4</ele><time>2011-10-11T12:06:43.0000000+00:00</time></trkpt><trkpt lat="44.526627" lon="34.011368"><ele>551.8</ele><time>2011-10-11T12:06:48.0000000+00:00</time></trkpt><trkpt lat="44.526661" lon="34.011345"><ele>552.1</ele><time>2011-10-11T12:06:53.0000000+00:00</time></trkpt><trkpt lat="44.526535" lon="34.011379"><ele>552.9</ele><time>2011-10-11T12:06:58.0000000+00:00</time></trkpt><trkpt lat="44.526546" lon="34.011391"><ele>553.3</ele><time>2011-10-11T12:07:03.0000000+00:00</time></trkpt><trkpt lat="44.526585" lon="34.011372"><ele>553.7</ele><time>2011-10-11T12:07:08.0000000+00:00</time></trkpt><trkpt lat="44.526615" lon="34.011341"><ele>554.3</ele><time>2011-10-11T12:07:13.0000000+00:00</time></trkpt><trkpt lat="44.526642" lon="34.011269"><ele>554.8</ele><time>2011-10-11T12:07:18.0000000+00:00</time></trkpt><trkpt lat="44.526672" lon="34.011215"><ele>555.3</ele><time>2011-10-11T12:07:23.0000000+00:00</time></trkpt><trkpt lat="44.526676" lon="34.011196"><ele>555.4</ele><time>2011-10-11T12:07:28.0000000+00:00</time></trkpt><trkpt lat="44.526676" lon="34.011173"><ele>555.7</ele><time>2011-10-11T12:07:33.0000000+00:00</time></trkpt><trkpt lat="44.526695" lon="34.011154"><ele>555.9</ele><time>2011-10-11T12:07:38.0000000+00:00</time></trkpt><trkpt lat="44.526703" lon="34.011154"><ele>556.1</ele><time>2011-10-11T12:07:43.0000000+00:00</time></trkpt><trkpt lat="44.526741" lon="34.011127"><ele>556.4</ele><time>2011-10-11T12:07:48.0000000+00:00</time></trkpt><trkpt lat="44.526768" lon="34.011192"><ele>556.3</ele><time>2011-10-11T12:07:53.0000000+00:00</time></trkpt><trkpt lat="44.526802" lon="34.011257"><ele>556.6</ele><time>2011-10-11T12:07:58.0000000+00:00</time></trkpt><trkpt lat="44.526848" lon="34.011372"><ele>556.5</ele><time>2011-10-11T12:08:03.0000000+00:00</time></trkpt><trkpt lat="44.526848" lon="34.011436"><ele>556.5</ele><time>2011-10-11T12:08:08.0000000+00:00</time></trkpt><trkpt lat="44.526844" lon="34.01144"><ele>556.6</ele><time>2011-10-11T12:08:13.0000000+00:00</time></trkpt><trkpt lat="44.526852" lon="34.011536"><ele>556.8</ele><time>2011-10-11T12:08:18.0000000+00:00</time></trkpt><trkpt lat="44.52684" lon="34.011539"><ele>557.1</ele><time>2011-10-11T12:08:23.0000000+00:00</time></trkpt><trkpt lat="44.526855" lon="34.011623"><ele>558.9</ele><time>2011-10-11T12:08:28.0000000+00:00</time></trkpt><trkpt lat="44.526882" lon="34.011703"><ele>561.3</ele><time>2011-10-11T12:08:33.0000000+00:00</time></trkpt><trkpt lat="44.52692" lon="34.011742"><ele>561.2</ele><time>2011-10-11T12:08:38.0000000+00:00</time></trkpt><trkpt lat="44.526932" lon="34.011787"><ele>562.6</ele><time>2011-10-11T12:08:43.0000000+00:00</time></trkpt><trkpt lat="44.526928" lon="34.011806"><ele>563.8</ele><time>2011-10-11T12:08:48.0000000+00:00</time></trkpt><trkpt lat="44.526928" lon="34.011818"><ele>564.0</ele><time>2011-10-11T12:08:53.0000000+00:00</time></trkpt><trkpt lat="44.526936" lon="34.011841"><ele>564.6</ele><time>2011-10-11T12:08:58.0000000+00:00</time></trkpt><trkpt lat="44.526962" lon="34.011982"><ele>564.9</ele><time>2011-10-11T12:09:03.0000000+00:00</time></trkpt><trkpt lat="44.526985" lon="34.012054"><ele>566.3</ele><time>2011-10-11T12:09:08.0000000+00:00</time></trkpt><trkpt lat="44.527012" lon="34.012104"><ele>567.0</ele><time>2011-10-11T12:09:13.0000000+00:00</time></trkpt><trkpt lat="44.527004" lon="34.012108"><ele>568.2</ele><time>2011-10-11T12:09:18.0000000+00:00</time></trkpt><trkpt lat="44.527" lon="34.012169"><ele>569.0</ele><time>2011-10-11T12:09:23.0000000+00:00</time></trkpt><trkpt lat="44.527016" lon="34.012222"><ele>569.3</ele><time>2011-10-11T12:09:28.0000000+00:00</time></trkpt><trkpt lat="44.527031" lon="34.012253"><ele>569.7</ele><time>2011-10-11T12:09:33.0000000+00:00</time></trkpt><trkpt lat="44.527046" lon="34.012264"><ele>569.7</ele><time>2011-10-11T12:09:38.0000000+00:00</time></trkpt><trkpt lat="44.527081" lon="34.012283"><ele>569.8</ele><time>2011-10-11T12:09:43.0000000+00:00</time></trkpt><trkpt lat="44.5271" lon="34.012287"><ele>569.7</ele><time>2011-10-11T12:09:48.0000000+00:00</time></trkpt><trkpt lat="44.527103" lon="34.012276"><ele>569.5</ele><time>2011-10-11T12:09:53.0000000+00:00</time></trkpt><trkpt lat="44.527122" lon="34.012295"><ele>569.1</ele><time>2011-10-11T12:09:58.0000000+00:00</time></trkpt><trkpt lat="44.527157" lon="34.012318"><ele>569.3</ele><time>2011-10-11T12:10:03.0000000+00:00</time></trkpt><trkpt lat="44.527172" lon="34.012333"><ele>570.4</ele><time>2011-10-11T12:10:08.0000000+00:00</time></trkpt><trkpt lat="44.527203" lon="34.01236"><ele>570.7</ele><time>2011-10-11T12:10:13.0000000+00:00</time></trkpt><trkpt lat="44.527214" lon="34.012402"><ele>570.9</ele><time>2011-10-11T12:10:18.0000000+00:00</time></trkpt><trkpt lat="44.527248" lon="34.012379"><ele>571.0</ele><time>2011-10-11T12:10:23.0000000+00:00</time></trkpt><trkpt lat="44.527279" lon="34.012379"><ele>571.4</ele><time>2011-10-11T12:10:28.0000000+00:00</time></trkpt><trkpt lat="44.527283" lon="34.012375"><ele>571.7</ele><time>2011-10-11T12:10:33.0000000+00:00</time></trkpt><trkpt lat="44.527287" lon="34.012379"><ele>571.9</ele><time>2011-10-11T12:10:38.0000000+00:00</time></trkpt><trkpt lat="44.527287" lon="34.012402"><ele>572.8</ele><time>2011-10-11T12:10:43.0000000+00:00</time></trkpt><trkpt lat="44.527298" lon="34.012402"><ele>573.5</ele><time>2011-10-11T12:10:48.0000000+00:00</time></trkpt><trkpt lat="44.527317" lon="34.012428"><ele>574.3</ele><time>2011-10-11T12:10:53.0000000+00:00</time></trkpt><trkpt lat="44.527321" lon="34.012482"><ele>574.9</ele><time>2011-10-11T12:10:58.0000000+00:00</time></trkpt><trkpt lat="44.527344" lon="34.012512"><ele>575.3</ele><time>2011-10-11T12:11:03.0000000+00:00</time></trkpt><trkpt lat="44.527344" lon="34.012585"><ele>575.1</ele><time>2011-10-11T12:11:08.0000000+00:00</time></trkpt><trkpt lat="44.527359" lon="34.01265"><ele>574.6</ele><time>2011-10-11T12:11:13.0000000+00:00</time></trkpt><trkpt lat="44.527351" lon="34.012688"><ele>574.1</ele><time>2011-10-11T12:11:18.0000000+00:00</time></trkpt><trkpt lat="44.527363" lon="34.012737"><ele>574.0</ele><time>2011-10-11T12:11:23.0000000+00:00</time></trkpt><trkpt lat="44.527412" lon="34.012772"><ele>573.5</ele><time>2011-10-11T12:11:28.0000000+00:00</time></trkpt><trkpt lat="44.527439" lon="34.012814"><ele>573.3</ele><time>2011-10-11T12:11:33.0000000+00:00</time></trkpt><trkpt lat="44.527458" lon="34.012852"><ele>572.6</ele><time>2011-10-11T12:11:38.0000000+00:00</time></trkpt><trkpt lat="44.527466" lon="34.012882"><ele>572.4</ele><time>2011-10-11T12:11:43.0000000+00:00</time></trkpt><trkpt lat="44.527458" lon="34.012905"><ele>572.0</ele><time>2011-10-11T12:11:48.0000000+00:00</time></trkpt><trkpt lat="44.527462" lon="34.012932"><ele>571.3</ele><time>2011-10-11T12:11:53.0000000+00:00</time></trkpt><trkpt lat="44.527515" lon="34.012962"><ele>570.2</ele><time>2011-10-11T12:11:58.0000000+00:00</time></trkpt><trkpt lat="44.527485" lon="34.012985"><ele>569.8</ele><time>2011-10-11T12:12:03.0000000+00:00</time></trkpt><trkpt lat="44.527477" lon="34.013027"><ele>568.6</ele><time>2011-10-11T12:12:08.0000000+00:00</time></trkpt><trkpt lat="44.527508" lon="34.013065"><ele>567.7</ele><time>2011-10-11T12:12:13.0000000+00:00</time></trkpt><trkpt lat="44.527576" lon="34.013031"><ele>567.0</ele><time>2011-10-11T12:12:18.0000000+00:00</time></trkpt><trkpt lat="44.527634" lon="34.01302"><ele>566.1</ele><time>2011-10-11T12:12:23.0000000+00:00</time></trkpt><trkpt lat="44.527794" lon="34.012978"><ele>564.5</ele><time>2011-10-11T12:12:28.0000000+00:00</time></trkpt><trkpt lat="44.527805" lon="34.012993"><ele>563.2</ele><time>2011-10-11T12:12:33.0000000+00:00</time></trkpt><trkpt lat="44.527798" lon="34.013016"><ele>562.7</ele><time>2011-10-11T12:12:38.0000000+00:00</time></trkpt><trkpt lat="44.527798" lon="34.013031"><ele>562.3</ele><time>2011-10-11T12:12:43.0000000+00:00</time></trkpt><trkpt lat="44.527908" lon="34.013039"><ele>561.0</ele><time>2011-10-11T12:12:48.0000000+00:00</time></trkpt><trkpt lat="44.528023" lon="34.013035"><ele>559.7</ele><time>2011-10-11T12:12:53.0000000+00:00</time></trkpt><trkpt lat="44.528137" lon="34.013016"><ele>558.0</ele><time>2011-10-11T12:12:58.0000000+00:00</time></trkpt><trkpt lat="44.528179" lon="34.013008"><ele>556.7</ele><time>2011-10-11T12:13:03.0000000+00:00</time></trkpt><trkpt lat="44.528332" lon="34.01292"><ele>555.6</ele><time>2011-10-11T12:13:08.0000000+00:00</time></trkpt><trkpt lat="44.528393" lon="34.012917"><ele>554.5</ele><time>2011-10-11T12:13:13.0000000+00:00</time></trkpt><trkpt lat="44.528465" lon="34.012928"><ele>553.3</ele><time>2011-10-11T12:13:18.0000000+00:00</time></trkpt><trkpt lat="44.528488" lon="34.012966"><ele>552.7</ele><time>2011-10-11T12:13:23.0000000+00:00</time></trkpt><trkpt lat="44.528446" lon="34.012993"><ele>552.9</ele><time>2011-10-11T12:13:28.0000000+00:00</time></trkpt><trkpt lat="44.528473" lon="34.01302"><ele>553.0</ele><time>2011-10-11T12:13:33.0000000+00:00</time></trkpt><trkpt lat="44.528465" lon="34.013027"><ele>552.4</ele><time>2011-10-11T12:13:38.0000000+00:00</time></trkpt><trkpt lat="44.528477" lon="34.013039"><ele>552.5</ele><time>2011-10-11T12:13:43.0000000+00:00</time></trkpt><trkpt lat="44.528515" lon="34.013016"><ele>552.4</ele><time>2011-10-11T12:13:48.0000000+00:00</time></trkpt><trkpt lat="44.52853" lon="34.013016"><ele>552.8</ele><time>2011-10-11T12:13:53.0000000+00:00</time></trkpt><trkpt lat="44.528545" lon="34.013"><ele>553.6</ele><time>2011-10-11T12:13:58.0000000+00:00</time></trkpt><trkpt lat="44.528519" lon="34.013027"><ele>553.8</ele><time>2011-10-11T12:14:03.0000000+00:00</time></trkpt><trkpt lat="44.528473" lon="34.013088"><ele>554.1</ele><time>2011-10-11T12:14:08.0000000+00:00</time></trkpt><trkpt lat="44.528458" lon="34.013149"><ele>553.1</ele><time>2011-10-11T12:14:13.0000000+00:00</time></trkpt><trkpt lat="44.528511" lon="34.013214"><ele>552.7</ele><time>2011-10-11T12:14:18.0000000+00:00</time></trkpt><trkpt lat="44.528542" lon="34.013271"><ele>552.0</ele><time>2011-10-11T12:14:23.0000000+00:00</time></trkpt><trkpt lat="44.528549" lon="34.013332"><ele>550.5</ele><time>2011-10-11T12:14:28.0000000+00:00</time></trkpt><trkpt lat="44.528591" lon="34.013382"><ele>549.5</ele><time>2011-10-11T12:14:33.0000000+00:00</time></trkpt><trkpt lat="44.528622" lon="34.013409"><ele>549.1</ele><time>2011-10-11T12:14:38.0000000+00:00</time></trkpt><trkpt lat="44.528591" lon="34.013416"><ele>549.0</ele><time>2011-10-11T12:14:43.0000000+00:00</time></trkpt><trkpt lat="44.528568" lon="34.013462"><ele>548.0</ele><time>2011-10-11T12:14:48.0000000+00:00</time></trkpt><trkpt lat="44.528526" lon="34.013538"><ele>548.0</ele><time>2011-10-11T12:14:53.0000000+00:00</time></trkpt><trkpt lat="44.528515" lon="34.013584"><ele>548.0</ele><time>2011-10-11T12:14:58.0000000+00:00</time></trkpt><trkpt lat="44.528568" lon="34.01363"><ele>547.8</ele><time>2011-10-11T12:15:03.0000000+00:00</time></trkpt><trkpt lat="44.528606" lon="34.013638"><ele>547.7</ele><time>2011-10-11T12:15:08.0000000+00:00</time></trkpt><trkpt lat="44.528652" lon="34.013645"><ele>548.4</ele><time>2011-10-11T12:15:13.0000000+00:00</time></trkpt><trkpt lat="44.528679" lon="34.013641"><ele>549.3</ele><time>2011-10-11T12:15:18.0000000+00:00</time></trkpt><trkpt lat="44.528709" lon="34.013653"><ele>550.7</ele><time>2011-10-11T12:15:23.0000000+00:00</time></trkpt><trkpt lat="44.528687" lon="34.013664"><ele>551.5</ele><time>2011-10-11T12:15:28.0000000+00:00</time></trkpt><trkpt lat="44.528732" lon="34.013664"><ele>551.1</ele><time>2011-10-11T12:15:33.0000000+00:00</time></trkpt><trkpt lat="44.528736" lon="34.013664"><ele>551.4</ele><time>2011-10-11T12:15:38.0000000+00:00</time></trkpt><trkpt lat="44.528759" lon="34.013683"><ele>551.7</ele><time>2011-10-11T12:15:43.0000000+00:00</time></trkpt><trkpt lat="44.528835" lon="34.013672"><ele>551.5</ele><time>2011-10-11T12:15:48.0000000+00:00</time></trkpt><trkpt lat="44.528881" lon="34.013657"><ele>551.4</ele><time>2011-10-11T12:15:53.0000000+00:00</time></trkpt><trkpt lat="44.528961" lon="34.013672"><ele>551.1</ele><time>2011-10-11T12:15:58.0000000+00:00</time></trkpt><trkpt lat="44.528984" lon="34.013714"><ele>551.2</ele><time>2011-10-11T12:16:03.0000000+00:00</time></trkpt><trkpt lat="44.529015" lon="34.013741"><ele>551.1</ele><time>2011-10-11T12:16:08.0000000+00:00</time></trkpt><trkpt lat="44.529026" lon="34.013737"><ele>551.2</ele><time>2011-10-11T12:16:13.0000000+00:00</time></trkpt><trkpt lat="44.528961" lon="34.013737"><ele>551.5</ele><time>2011-10-11T12:16:18.0000000+00:00</time></trkpt><trkpt lat="44.528893" lon="34.013786"><ele>552.5</ele><time>2011-10-11T12:16:23.0000000+00:00</time></trkpt><trkpt lat="44.528931" lon="34.013798"><ele>552.8</ele><time>2011-10-11T12:16:28.0000000+00:00</time></trkpt><trkpt lat="44.529034" lon="34.013821"><ele>554.1</ele><time>2011-10-11T12:16:33.0000000+00:00</time></trkpt><trkpt lat="44.529087" lon="34.013802"><ele>555.5</ele><time>2011-10-11T12:16:38.0000000+00:00</time></trkpt><trkpt lat="44.529129" lon="34.013802"><ele>556.9</ele><time>2011-10-11T12:16:43.0000000+00:00</time></trkpt><trkpt lat="44.529114" lon="34.013802"><ele>557.5</ele><time>2011-10-11T12:16:48.0000000+00:00</time></trkpt><trkpt lat="44.529144" lon="34.013817"><ele>557.7</ele><time>2011-10-11T12:16:53.0000000+00:00</time></trkpt><trkpt lat="44.52914" lon="34.013836"><ele>557.9</ele><time>2011-10-11T12:16:58.0000000+00:00</time></trkpt><trkpt lat="44.529129" lon="34.013874"><ele>557.6</ele><time>2011-10-11T12:17:03.0000000+00:00</time></trkpt><trkpt lat="44.529099" lon="34.013897"><ele>556.2</ele><time>2011-10-11T12:17:08.0000000+00:00</time></trkpt><trkpt lat="44.52911" lon="34.013943"><ele>555.1</ele><time>2011-10-11T12:17:13.0000000+00:00</time></trkpt><trkpt lat="44.52914" lon="34.013962"><ele>554.6</ele><time>2011-10-11T12:17:18.0000000+00:00</time></trkpt><trkpt lat="44.529148" lon="34.013985"><ele>554.4</ele><time>2011-10-11T12:17:23.0000000+00:00</time></trkpt><trkpt lat="44.529175" lon="34.013988"><ele>554.7</ele><time>2011-10-11T12:17:28.0000000+00:00</time></trkpt><trkpt lat="44.529167" lon="34.013958"><ele>555.1</ele><time>2011-10-11T12:17:33.0000000+00:00</time></trkpt><trkpt lat="44.529171" lon="34.013935"><ele>555.5</ele><time>2011-10-11T12:17:38.0000000+00:00</time></trkpt><trkpt lat="44.529202" lon="34.013931"><ele>556.1</ele><time>2011-10-11T12:17:43.0000000+00:00</time></trkpt><trkpt lat="44.52919" lon="34.013939"><ele>556.3</ele><time>2011-10-11T12:17:48.0000000+00:00</time></trkpt><trkpt lat="44.529175" lon="34.013988"><ele>556.4</ele><time>2011-10-11T12:17:53.0000000+00:00</time></trkpt><trkpt lat="44.52914" lon="34.014019"><ele>557.0</ele><time>2011-10-11T12:17:58.0000000+00:00</time></trkpt><trkpt lat="44.529083" lon="34.014103"><ele>557.5</ele><time>2011-10-11T12:18:03.0000000+00:00</time></trkpt><trkpt lat="44.52898" lon="34.014233"><ele>558.1</ele><time>2011-10-11T12:18:08.0000000+00:00</time></trkpt><trkpt lat="44.528755" lon="34.014324"><ele>559.5</ele><time>2011-10-11T12:18:13.0000000+00:00</time></trkpt><trkpt lat="44.528591" lon="34.014355"><ele>561.1</ele><time>2011-10-11T12:18:18.0000000+00:00</time></trkpt><trkpt lat="44.528458" lon="34.014393"><ele>562.1</ele><time>2011-10-11T12:18:23.0000000+00:00</time></trkpt><trkpt lat="44.5284" lon="34.014408"><ele>562.7</ele><time>2011-10-11T12:18:28.0000000+00:00</time></trkpt><trkpt lat="44.528294" lon="34.014412"><ele>562.7</ele><time>2011-10-11T12:18:33.0000000+00:00</time></trkpt><trkpt lat="44.528141" lon="34.014439"><ele>563.2</ele><time>2011-10-11T12:18:38.0000000+00:00</time></trkpt><trkpt lat="44.52795" lon="34.01445"><ele>563.5</ele><time>2011-10-11T12:18:43.0000000+00:00</time></trkpt><trkpt lat="44.527988" lon="34.014473"><ele>564.2</ele><time>2011-10-11T12:18:48.0000000+00:00</time></trkpt><trkpt lat="44.528057" lon="34.01474"><ele>564.9</ele><time>2011-10-11T12:18:53.0000000+00:00</time></trkpt><trkpt lat="44.528065" lon="34.01487"><ele>565.7</ele><time>2011-10-11T12:18:58.0000000+00:00</time></trkpt><trkpt lat="44.52808" lon="34.014973"><ele>566.5</ele><time>2011-10-11T12:19:03.0000000+00:00</time></trkpt><trkpt lat="44.528111" lon="34.015152"><ele>567.4</ele><time>2011-10-11T12:19:08.0000000+00:00</time></trkpt><trkpt lat="44.528156" lon="34.015251"><ele>568.4</ele><time>2011-10-11T12:19:13.0000000+00:00</time></trkpt><trkpt lat="44.528206" lon="34.015308"><ele>569.1</ele><time>2011-10-11T12:19:18.0000000+00:00</time></trkpt><trkpt lat="44.528294" lon="34.015331"><ele>569.7</ele><time>2011-10-11T12:19:23.0000000+00:00</time></trkpt><trkpt lat="44.528328" lon="34.015392"><ele>570.0</ele><time>2011-10-11T12:19:28.0000000+00:00</time></trkpt><trkpt lat="44.528378" lon="34.0154"><ele>569.7</ele><time>2011-10-11T12:19:33.0000000+00:00</time></trkpt><trkpt lat="44.528416" lon="34.015453"><ele>569.2</ele><time>2011-10-11T12:19:38.0000000+00:00</time></trkpt><trkpt lat="44.528484" lon="34.015518"><ele>569.1</ele><time>2011-10-11T12:19:43.0000000+00:00</time></trkpt><trkpt lat="44.528606" lon="34.015575"><ele>568.8</ele><time>2011-10-11T12:19:48.0000000+00:00</time></trkpt><trkpt lat="44.528637" lon="34.015614"><ele>568.7</ele><time>2011-10-11T12:19:53.0000000+00:00</time></trkpt><trkpt lat="44.528687" lon="34.015617"><ele>568.4</ele><time>2011-10-11T12:19:58.0000000+00:00</time></trkpt><trkpt lat="44.528721" lon="34.015675"><ele>568.3</ele><time>2011-10-11T12:20:03.0000000+00:00</time></trkpt><trkpt lat="44.528755" lon="34.01569"><ele>568.3</ele><time>2011-10-11T12:20:08.0000000+00:00</time></trkpt><trkpt lat="44.528763" lon="34.015678"><ele>568.1</ele><time>2011-10-11T12:20:13.0000000+00:00</time></trkpt><trkpt lat="44.528774" lon="34.015705"><ele>568.0</ele><time>2011-10-11T12:20:18.0000000+00:00</time></trkpt><trkpt lat="44.52882" lon="34.015713"><ele>567.6</ele><time>2011-10-11T12:20:23.0000000+00:00</time></trkpt><trkpt lat="44.528851" lon="34.015739"><ele>567.6</ele><time>2011-10-11T12:20:28.0000000+00:00</time></trkpt><trkpt lat="44.528908" lon="34.015728"><ele>567.7</ele><time>2011-10-11T12:20:33.0000000+00:00</time></trkpt><trkpt lat="44.529015" lon="34.015785"><ele>567.5</ele><time>2011-10-11T12:20:38.0000000+00:00</time></trkpt><trkpt lat="44.52906" lon="34.015862"><ele>567.2</ele><time>2011-10-11T12:20:43.0000000+00:00</time></trkpt><trkpt lat="44.529129" lon="34.015896"><ele>566.7</ele><time>2011-10-11T12:20:53.0000000+00:00</time></trkpt><trkpt lat="44.529263" lon="34.015911"><ele>567.0</ele><time>2011-10-11T12:20:58.0000000+00:00</time></trkpt><trkpt lat="44.52924" lon="34.015926"><ele>566.2</ele><time>2011-10-11T12:21:03.0000000+00:00</time></trkpt><trkpt lat="44.529247" lon="34.015968"><ele>565.2</ele><time>2011-10-11T12:21:08.0000000+00:00</time></trkpt><trkpt lat="44.529289" lon="34.016006"><ele>564.3</ele><time>2011-10-11T12:21:13.0000000+00:00</time></trkpt><trkpt lat="44.529388" lon="34.016075"><ele>563.9</ele><time>2011-10-11T12:21:18.0000000+00:00</time></trkpt><trkpt lat="44.529488" lon="34.01614"><ele>564.0</ele><time>2011-10-11T12:21:24.0000000+00:00</time></trkpt><trkpt lat="44.529606" lon="34.016193"><ele>563.9</ele><time>2011-10-11T12:21:29.0000000+00:00</time></trkpt><trkpt lat="44.529572" lon="34.016205"><ele>564.1</ele><time>2011-10-11T12:21:34.0000000+00:00</time></trkpt><trkpt lat="44.529602" lon="34.016205"><ele>564.3</ele><time>2011-10-11T12:21:39.0000000+00:00</time></trkpt><trkpt lat="44.529808" lon="34.016247"><ele>563.7</ele><time>2011-10-11T12:21:59.0000000+00:00</time></trkpt><trkpt lat="44.529762" lon="34.016266"><ele>563.9</ele><time>2011-10-11T12:22:04.0000000+00:00</time></trkpt><trkpt lat="44.529858" lon="34.016296"><ele>563.9</ele><time>2011-10-11T12:22:13.0000000+00:00</time></trkpt><trkpt lat="44.5298" lon="34.016315"><ele>563.9</ele><time>2011-10-11T12:22:18.0000000+00:00</time></trkpt><trkpt lat="44.529728" lon="34.016354"><ele>563.9</ele><time>2011-10-11T12:22:23.0000000+00:00</time></trkpt><trkpt lat="44.52969" lon="34.016418"><ele>564.1</ele><time>2011-10-11T12:22:28.0000000+00:00</time></trkpt><trkpt lat="44.529758" lon="34.016441"><ele>564.2</ele><time>2011-10-11T12:22:33.0000000+00:00</time></trkpt><trkpt lat="44.529758" lon="34.01656"><ele>564.2</ele><time>2011-10-11T12:22:38.0000000+00:00</time></trkpt><trkpt lat="44.529797" lon="34.01656"><ele>564.3</ele><time>2011-10-11T12:22:43.0000000+00:00</time></trkpt><trkpt lat="44.529854" lon="34.016537"><ele>564.3</ele><time>2011-10-11T12:22:48.0000000+00:00</time></trkpt><trkpt lat="44.529819" lon="34.016399"><ele>563.4</ele><time>2011-10-11T12:22:53.0000000+00:00</time></trkpt><trkpt lat="44.529816" lon="34.016373"><ele>563.3</ele><time>2011-10-11T12:22:58.0000000+00:00</time></trkpt><trkpt lat="44.529758" lon="34.016434"><ele>563.4</ele><time>2011-10-11T12:23:03.0000000+00:00</time></trkpt><trkpt lat="44.529697" lon="34.016449"><ele>563.5</ele><time>2011-10-11T12:23:08.0000000+00:00</time></trkpt><trkpt lat="44.529686" lon="34.01643"><ele>563.7</ele><time>2011-10-11T12:23:13.0000000+00:00</time></trkpt><trkpt lat="44.529724" lon="34.016399"><ele>563.6</ele><time>2011-10-11T12:23:18.0000000+00:00</time></trkpt><trkpt lat="44.529915" lon="34.016415"><ele>563.9</ele><time>2011-10-11T12:23:23.0000000+00:00</time></trkpt><trkpt lat="44.52993" lon="34.016457"><ele>564.0</ele><time>2011-10-11T12:23:28.0000000+00:00</time></trkpt><trkpt lat="44.529926" lon="34.016445"><ele>564.0</ele><time>2011-10-11T12:23:33.0000000+00:00</time></trkpt><trkpt lat="44.529972" lon="34.016445"><ele>563.7</ele><time>2011-10-11T12:23:38.0000000+00:00</time></trkpt><trkpt lat="44.530151" lon="34.01643"><ele>563.7</ele><time>2011-10-11T12:23:43.0000000+00:00</time></trkpt><trkpt lat="44.530266" lon="34.016346"><ele>563.9</ele><time>2011-10-11T12:23:48.0000000+00:00</time></trkpt><trkpt lat="44.530125" lon="34.016373"><ele>563.6</ele><time>2011-10-11T12:23:53.0000000+00:00</time></trkpt><trkpt lat="44.526264" lon="34.019756"><ele>1291.5</ele><time>2011-10-11T12:31:55.0000000+00:00</time></trkpt><trkpt lat="44.526192" lon="34.019836"><ele>1316.3</ele><time>2011-10-11T12:32:00.0000000+00:00</time></trkpt><trkpt lat="44.526054" lon="34.019955"><ele>1337.2</ele><time>2011-10-11T12:32:05.0000000+00:00</time></trkpt><trkpt lat="44.525932" lon="34.019939"><ele>1348.1</ele><time>2011-10-11T12:32:10.0000000+00:00</time></trkpt><trkpt lat="44.525951" lon="34.019825"><ele>1352.2</ele><time>2011-10-11T12:32:15.0000000+00:00</time></trkpt><trkpt lat="44.525986" lon="34.019802"><ele>1352.4</ele><time>2011-10-11T12:32:20.0000000+00:00</time></trkpt><trkpt lat="44.525982" lon="34.019814"><ele>1352.5</ele><time>2011-10-11T12:32:25.0000000+00:00</time></trkpt><trkpt lat="44.526005" lon="34.019821"><ele>1353.5</ele><time>2011-10-11T12:32:30.0000000+00:00</time></trkpt><trkpt lat="44.525993" lon="34.019844"><ele>1353.8</ele><time>2011-10-11T12:32:35.0000000+00:00</time></trkpt><trkpt lat="44.526047" lon="34.019825"><ele>1354.7</ele><time>2011-10-11T12:32:40.0000000+00:00</time></trkpt><trkpt lat="44.526047" lon="34.019875"><ele>1354.8</ele><time>2011-10-11T12:32:45.0000000+00:00</time></trkpt><trkpt lat="44.526016" lon="34.019924"><ele>1355.0</ele><time>2011-10-11T12:32:50.0000000+00:00</time></trkpt><trkpt lat="44.526001" lon="34.019936"><ele>1355.4</ele><time>2011-10-11T12:32:55.0000000+00:00</time></trkpt><trkpt lat="44.52607" lon="34.019985"><ele>1355.5</ele><time>2011-10-11T12:33:00.0000000+00:00</time></trkpt><trkpt lat="44.526104" lon="34.020123"><ele>1355.5</ele><time>2011-10-11T12:33:05.0000000+00:00</time></trkpt><trkpt lat="44.526207" lon="34.020119"><ele>1356.1</ele><time>2011-10-11T12:33:10.0000000+00:00</time></trkpt><trkpt lat="44.526211" lon="34.020134"><ele>1356.4</ele><time>2011-10-11T12:33:15.0000000+00:00</time></trkpt><trkpt lat="44.526188" lon="34.020069"><ele>1356.4</ele><time>2011-10-11T12:33:20.0000000+00:00</time></trkpt><trkpt lat="44.526215" lon="34.020035"><ele>1356.9</ele><time>2011-10-11T12:33:25.0000000+00:00</time></trkpt><trkpt lat="44.526203" lon="34.019989"><ele>1356.9</ele><time>2011-10-11T12:33:30.0000000+00:00</time></trkpt><trkpt lat="44.526184" lon="34.019974"><ele>1356.5</ele><time>2011-10-11T12:33:35.0000000+00:00</time></trkpt><trkpt lat="44.526211" lon="34.019993"><ele>1356.4</ele><time>2011-10-11T12:33:40.0000000+00:00</time></trkpt><trkpt lat="44.526237" lon="34.02002"><ele>1356.5</ele><time>2011-10-11T12:33:45.0000000+00:00</time></trkpt><trkpt lat="44.526276" lon="34.020081"><ele>1356.4</ele><time>2011-10-11T12:33:50.0000000+00:00</time></trkpt><trkpt lat="44.526348" lon="34.020123"><ele>1356.1</ele><time>2011-10-11T12:33:55.0000000+00:00</time></trkpt><trkpt lat="44.526379" lon="34.020119"><ele>1356.2</ele><time>2011-10-11T12:34:00.0000000+00:00</time></trkpt><trkpt lat="44.526375" lon="34.020092"><ele>1356.8</ele><time>2011-10-11T12:34:05.0000000+00:00</time></trkpt><trkpt lat="44.526413" lon="34.020081"><ele>1357.0</ele><time>2011-10-11T12:34:10.0000000+00:00</time></trkpt><trkpt lat="44.526516" lon="34.020123"><ele>1355.6</ele><time>2011-10-11T12:34:15.0000000+00:00</time></trkpt><trkpt lat="44.526562" lon="34.020145"><ele>1354.8</ele><time>2011-10-11T12:34:20.0000000+00:00</time></trkpt><trkpt lat="44.526508" lon="34.020107"><ele>1354.2</ele><time>2011-10-11T12:34:25.0000000+00:00</time></trkpt><trkpt lat="44.526459" lon="34.020035"><ele>1352.4</ele><time>2011-10-11T12:34:30.0000000+00:00</time></trkpt><trkpt lat="44.526379" lon="34.019978"><ele>1351.9</ele><time>2011-10-11T12:34:35.0000000+00:00</time></trkpt><trkpt lat="44.526337" lon="34.019932"><ele>1351.8</ele><time>2011-10-11T12:34:40.0000000+00:00</time></trkpt><trkpt lat="44.526302" lon="34.019867"><ele>1351.6</ele><time>2011-10-11T12:34:45.0000000+00:00</time></trkpt><trkpt lat="44.526268" lon="34.019855"><ele>1351.5</ele><time>2011-10-11T12:34:50.0000000+00:00</time></trkpt><trkpt lat="44.52626" lon="34.020065"><ele>1351.5</ele><time>2011-10-11T12:34:55.0000000+00:00</time></trkpt><trkpt lat="44.526264" lon="34.020149"><ele>1351.5</ele><time>2011-10-11T12:35:00.0000000+00:00</time></trkpt><trkpt lat="44.526295" lon="34.020267"><ele>1350.5</ele><time>2011-10-11T12:35:05.0000000+00:00</time></trkpt><trkpt lat="44.526299" lon="34.020336"><ele>1349.5</ele><time>2011-10-11T12:35:10.0000000+00:00</time></trkpt><trkpt lat="44.526295" lon="34.02034"><ele>1348.9</ele><time>2011-10-11T12:35:15.0000000+00:00</time></trkpt><trkpt lat="44.526226" lon="34.020325"><ele>1348.1</ele><time>2011-10-11T12:35:20.0000000+00:00</time></trkpt><trkpt lat="44.52623" lon="34.020218"><ele>1347.8</ele><time>2011-10-11T12:35:25.0000000+00:00</time></trkpt><trkpt lat="44.526279" lon="34.020134"><ele>1347.7</ele><time>2011-10-11T12:35:30.0000000+00:00</time></trkpt><trkpt lat="44.52631" lon="34.020111"><ele>1347.7</ele><time>2011-10-11T12:35:35.0000000+00:00</time></trkpt><trkpt lat="44.52623" lon="34.020103"><ele>1342.3</ele><time>2011-10-11T12:35:40.0000000+00:00</time></trkpt><trkpt lat="44.526154" lon="34.020111"><ele>1339.6</ele><time>2011-10-11T12:35:45.0000000+00:00</time></trkpt><trkpt lat="44.52615" lon="34.020096"><ele>1339.8</ele><time>2011-10-11T12:35:50.0000000+00:00</time></trkpt><trkpt lat="44.526173" lon="34.020126"><ele>1339.5</ele><time>2011-10-11T12:35:55.0000000+00:00</time></trkpt><trkpt lat="44.526215" lon="34.020157"><ele>1339.9</ele><time>2011-10-11T12:36:00.0000000+00:00</time></trkpt><trkpt lat="44.526211" lon="34.020298"><ele>1338.5</ele><time>2011-10-11T12:36:05.0000000+00:00</time></trkpt><trkpt lat="44.526253" lon="34.020264"><ele>1339.2</ele><time>2011-10-11T12:36:10.0000000+00:00</time></trkpt><trkpt lat="44.526196" lon="34.020252"><ele>1339.2</ele><time>2011-10-11T12:36:15.0000000+00:00</time></trkpt><trkpt lat="44.526146" lon="34.020267"><ele>1338.8</ele><time>2011-10-11T12:36:20.0000000+00:00</time></trkpt><trkpt lat="44.526127" lon="34.020271"><ele>1338.7</ele><time>2011-10-11T12:36:25.0000000+00:00</time></trkpt><trkpt lat="44.526146" lon="34.020363"><ele>1338.8</ele><time>2011-10-11T12:36:30.0000000+00:00</time></trkpt><trkpt lat="44.52618" lon="34.020527"><ele>1338.9</ele><time>2011-10-11T12:36:35.0000000+00:00</time></trkpt><trkpt lat="44.526211" lon="34.020592"><ele>1338.5</ele><time>2011-10-11T12:36:40.0000000+00:00</time></trkpt><trkpt lat="44.526344" lon="34.02058"><ele>1338.2</ele><time>2011-10-11T12:36:45.0000000+00:00</time></trkpt><trkpt lat="44.526375" lon="34.020496"><ele>1338.6</ele><time>2011-10-11T12:37:01.0000000+00:00</time></trkpt><trkpt lat="44.526485" lon="34.020451"><ele>1338.3</ele><time>2011-10-11T12:37:06.0000000+00:00</time></trkpt><trkpt lat="44.526466" lon="34.020508"><ele>1337.9</ele><time>2011-10-11T12:37:11.0000000+00:00</time></trkpt><trkpt lat="44.526428" lon="34.020432"><ele>1337.5</ele><time>2011-10-11T12:37:16.0000000+00:00</time></trkpt><trkpt lat="44.526379" lon="34.020325"><ele>1337.1</ele><time>2011-10-11T12:37:21.0000000+00:00</time></trkpt><trkpt lat="44.526268" lon="34.020317"><ele>1337.0</ele><time>2011-10-11T12:37:26.0000000+00:00</time></trkpt><trkpt lat="44.526138" lon="34.020447"><ele>1336.4</ele><time>2011-10-11T12:37:31.0000000+00:00</time></trkpt><trkpt lat="44.526138" lon="34.020439"><ele>1336.7</ele><time>2011-10-11T12:37:36.0000000+00:00</time></trkpt><trkpt lat="44.526218" lon="34.020458"><ele>1336.7</ele><time>2011-10-11T12:37:41.0000000+00:00</time></trkpt><trkpt lat="44.526257" lon="34.020527"><ele>1336.6</ele><time>2011-10-11T12:37:46.0000000+00:00</time></trkpt><trkpt lat="44.526241" lon="34.020512"><ele>1336.1</ele><time>2011-10-11T12:37:51.0000000+00:00</time></trkpt><trkpt lat="44.526192" lon="34.020508"><ele>1335.4</ele><time>2011-10-11T12:37:56.0000000+00:00</time></trkpt><trkpt lat="44.526146" lon="34.020359"><ele>1334.8</ele><time>2011-10-11T12:38:01.0000000+00:00</time></trkpt><trkpt lat="44.526104" lon="34.020397"><ele>1334.8</ele><time>2011-10-11T12:38:06.0000000+00:00</time></trkpt><trkpt lat="44.526085" lon="34.020439"><ele>1334.6</ele><time>2011-10-11T12:38:11.0000000+00:00</time></trkpt><trkpt lat="44.526054" lon="34.020428"><ele>1334.6</ele><time>2011-10-11T12:38:16.0000000+00:00</time></trkpt><trkpt lat="44.52615" lon="34.020432"><ele>1334.5</ele><time>2011-10-11T12:38:21.0000000+00:00</time></trkpt><trkpt lat="44.52634" lon="34.020489"><ele>1334.2</ele><time>2011-10-11T12:38:26.0000000+00:00</time></trkpt><trkpt lat="44.538033" lon="34.021427"><ele>559.6</ele><time>2011-10-11T12:38:49.0000000+00:00</time></trkpt><trkpt lat="44.537849" lon="34.021481"><ele>562.6</ele><time>2011-10-11T12:38:54.0000000+00:00</time></trkpt><trkpt lat="44.530266" lon="34.018909"><ele>561.2</ele><time>2011-10-11T12:41:00.0000000+00:00</time></trkpt><trkpt lat="44.529877" lon="34.018921"><ele>560.8</ele><time>2011-10-11T12:41:05.0000000+00:00</time></trkpt><trkpt lat="44.529839" lon="34.019001"><ele>561.3</ele><time>2011-10-11T12:41:10.0000000+00:00</time></trkpt><trkpt lat="44.529938" lon="34.019188"><ele>561.7</ele><time>2011-10-11T12:41:15.0000000+00:00</time></trkpt><trkpt lat="44.529945" lon="34.019234"><ele>562.2</ele><time>2011-10-11T12:41:20.0000000+00:00</time></trkpt><trkpt lat="44.529949" lon="34.019302"><ele>561.1</ele><time>2011-10-11T12:41:25.0000000+00:00</time></trkpt><trkpt lat="44.529976" lon="34.019249"><ele>563.7</ele><time>2011-10-11T12:41:30.0000000+00:00</time></trkpt><trkpt lat="44.529953" lon="34.019249"><ele>564.1</ele><time>2011-10-11T12:41:35.0000000+00:00</time></trkpt><trkpt lat="44.529972" lon="34.019337"><ele>564.1</ele><time>2011-10-11T12:41:40.0000000+00:00</time></trkpt><trkpt lat="44.529999" lon="34.019302"><ele>564.2</ele><time>2011-10-11T12:41:45.0000000+00:00</time></trkpt><trkpt lat="44.530006" lon="34.01931"><ele>564.3</ele><time>2011-10-11T12:41:50.0000000+00:00</time></trkpt><trkpt lat="44.530029" lon="34.019241"><ele>564.4</ele><time>2011-10-11T12:41:55.0000000+00:00</time></trkpt><trkpt lat="44.530022" lon="34.019333"><ele>564.1</ele><time>2011-10-11T12:42:00.0000000+00:00</time></trkpt><trkpt lat="44.529976" lon="34.019493"><ele>563.7</ele><time>2011-10-11T12:42:05.0000000+00:00</time></trkpt><trkpt lat="44.529972" lon="34.019463"><ele>563.7</ele><time>2011-10-11T12:42:10.0000000+00:00</time></trkpt><trkpt lat="44.529903" lon="34.019444"><ele>563.8</ele><time>2011-10-11T12:42:15.0000000+00:00</time></trkpt><trkpt lat="44.529865" lon="34.019451"><ele>563.8</ele><time>2011-10-11T12:42:20.0000000+00:00</time></trkpt><trkpt lat="44.529823" lon="34.019539"><ele>563.8</ele><time>2011-10-11T12:42:25.0000000+00:00</time></trkpt><trkpt lat="44.529881" lon="34.019436"><ele>564.1</ele><time>2011-10-11T12:42:30.0000000+00:00</time></trkpt><trkpt lat="44.529884" lon="34.019505"><ele>564.0</ele><time>2011-10-11T12:42:35.0000000+00:00</time></trkpt><trkpt lat="44.529911" lon="34.019566"><ele>564.0</ele><time>2011-10-11T12:42:40.0000000+00:00</time></trkpt><trkpt lat="44.529987" lon="34.019627"><ele>564.1</ele><time>2011-10-11T12:42:45.0000000+00:00</time></trkpt><trkpt lat="44.529961" lon="34.019653"><ele>564.1</ele><time>2011-10-11T12:42:50.0000000+00:00</time></trkpt><trkpt lat="44.529953" lon="34.019722"><ele>563.9</ele><time>2011-10-11T12:42:55.0000000+00:00</time></trkpt><trkpt lat="44.529961" lon="34.019791"><ele>563.9</ele><time>2011-10-11T12:43:00.0000000+00:00</time></trkpt><trkpt lat="44.529995" lon="34.019871"><ele>564.0</ele><time>2011-10-11T12:43:05.0000000+00:00</time></trkpt><trkpt lat="44.530056" lon="34.019966"><ele>564.0</ele><time>2011-10-11T12:43:10.0000000+00:00</time></trkpt><trkpt lat="44.530041" lon="34.019993"><ele>563.9</ele><time>2011-10-11T12:43:15.0000000+00:00</time></trkpt><trkpt lat="44.530075" lon="34.02"><ele>564.0</ele><time>2011-10-11T12:43:20.0000000+00:00</time></trkpt><trkpt lat="44.530125" lon="34.02005"><ele>564.0</ele><time>2011-10-11T12:43:25.0000000+00:00</time></trkpt><trkpt lat="44.530098" lon="34.020126"><ele>564.0</ele><time>2011-10-11T12:43:30.0000000+00:00</time></trkpt><trkpt lat="44.530098" lon="34.020218"><ele>564.0</ele><time>2011-10-11T12:43:35.0000000+00:00</time></trkpt><trkpt lat="44.530087" lon="34.020245"><ele>563.8</ele><time>2011-10-11T12:43:40.0000000+00:00</time></trkpt><trkpt lat="44.530071" lon="34.020248"><ele>563.6</ele><time>2011-10-11T12:43:45.0000000+00:00</time></trkpt><trkpt lat="44.530029" lon="34.020252"><ele>563.4</ele><time>2011-10-11T12:43:50.0000000+00:00</time></trkpt><trkpt lat="44.530075" lon="34.020271"><ele>563.3</ele><time>2011-10-11T12:43:55.0000000+00:00</time></trkpt><trkpt lat="44.530113" lon="34.020329"><ele>563.2</ele><time>2011-10-11T12:44:00.0000000+00:00</time></trkpt><trkpt lat="44.530048" lon="34.020348"><ele>563.0</ele><time>2011-10-11T12:44:05.0000000+00:00</time></trkpt><trkpt lat="44.530033" lon="34.020332"><ele>562.9</ele><time>2011-10-11T12:44:10.0000000+00:00</time></trkpt><trkpt lat="44.530079" lon="34.020439"><ele>563.0</ele><time>2011-10-11T12:44:15.0000000+00:00</time></trkpt><trkpt lat="44.530113" lon="34.020531"><ele>562.9</ele><time>2011-10-11T12:44:20.0000000+00:00</time></trkpt><trkpt lat="44.530151" lon="34.020584"><ele>562.9</ele><time>2011-10-11T12:44:25.0000000+00:00</time></trkpt><trkpt lat="44.529949" lon="34.027695"><ele>801.5</ele><time>2011-10-11T13:25:32.0000000+00:00</time></trkpt><trkpt lat="44.5299" lon="34.027977"><ele>732.5</ele><time>2011-10-11T13:25:37.0000000+00:00</time></trkpt><trkpt lat="44.5299" lon="34.028038"><ele>732.3</ele><time>2011-10-11T13:25:42.0000000+00:00</time></trkpt><trkpt lat="44.529884" lon="34.028069"><ele>731.7</ele><time>2011-10-11T13:25:47.0000000+00:00</time></trkpt><trkpt lat="44.529903" lon="34.028107"><ele>726.8</ele><time>2011-10-11T13:25:52.0000000+00:00</time></trkpt><trkpt lat="44.529839" lon="34.028156"><ele>724.9</ele><time>2011-10-11T13:25:57.0000000+00:00</time></trkpt><trkpt lat="44.529846" lon="34.028225"><ele>725.7</ele><time>2011-10-11T13:26:02.0000000+00:00</time></trkpt><trkpt lat="44.529877" lon="34.028248"><ele>725.1</ele><time>2011-10-11T13:26:07.0000000+00:00</time></trkpt><trkpt lat="44.529884" lon="34.028275"><ele>724.9</ele><time>2011-10-11T13:26:12.0000000+00:00</time></trkpt><trkpt lat="44.529915" lon="34.028324"><ele>726.0</ele><time>2011-10-11T13:26:17.0000000+00:00</time></trkpt><trkpt lat="44.529922" lon="34.028351"><ele>726.9</ele><time>2011-10-11T13:26:22.0000000+00:00</time></trkpt><trkpt lat="44.529922" lon="34.028378"><ele>726.9</ele><time>2011-10-11T13:26:27.0000000+00:00</time></trkpt><trkpt lat="44.529922" lon="34.028419"><ele>726.2</ele><time>2011-10-11T13:26:32.0000000+00:00</time></trkpt><trkpt lat="44.52993" lon="34.028442"><ele>725.6</ele><time>2011-10-11T13:26:37.0000000+00:00</time></trkpt><trkpt lat="44.529934" lon="34.028507"><ele>724.5</ele><time>2011-10-11T13:26:42.0000000+00:00</time></trkpt><trkpt lat="44.529938" lon="34.02858"><ele>724.8</ele><time>2011-10-11T13:26:47.0000000+00:00</time></trkpt><trkpt lat="44.529915" lon="34.028641"><ele>726.0</ele><time>2011-10-11T13:26:52.0000000+00:00</time></trkpt><trkpt lat="44.529942" lon="34.028736"><ele>726.9</ele><time>2011-10-11T13:26:57.0000000+00:00</time></trkpt><trkpt lat="44.529926" lon="34.028774"><ele>726.9</ele><time>2011-10-11T13:27:02.0000000+00:00</time></trkpt><trkpt lat="44.529919" lon="34.028809"><ele>726.9</ele><time>2011-10-11T13:27:07.0000000+00:00</time></trkpt><trkpt lat="44.529865" lon="34.028782"><ele>727.8</ele><time>2011-10-11T13:27:12.0000000+00:00</time></trkpt><trkpt lat="44.529869" lon="34.028797"><ele>728.0</ele><time>2011-10-11T13:27:17.0000000+00:00</time></trkpt><trkpt lat="44.529865" lon="34.028851"><ele>728.6</ele><time>2011-10-11T13:27:22.0000000+00:00</time></trkpt><trkpt lat="44.52993" lon="34.028976"><ele>729.0</ele><time>2011-10-11T13:27:27.0000000+00:00</time></trkpt><trkpt lat="44.529957" lon="34.029068"><ele>729.1</ele><time>2011-10-11T13:27:32.0000000+00:00</time></trkpt><trkpt lat="44.529957" lon="34.029152"><ele>729.2</ele><time>2011-10-11T13:27:37.0000000+00:00</time></trkpt><trkpt lat="44.529957" lon="34.029236"><ele>728.9</ele><time>2011-10-11T13:27:42.0000000+00:00</time></trkpt><trkpt lat="44.529964" lon="34.02932"><ele>726.9</ele><time>2011-10-11T13:27:47.0000000+00:00</time></trkpt><trkpt lat="44.529972" lon="34.029408"><ele>725.2</ele><time>2011-10-11T13:27:52.0000000+00:00</time></trkpt><trkpt lat="44.529991" lon="34.029488"><ele>723.1</ele><time>2011-10-11T13:27:57.0000000+00:00</time></trkpt><trkpt lat="44.529938" lon="34.029522"><ele>722.9</ele><time>2011-10-11T13:28:02.0000000+00:00</time></trkpt><trkpt lat="44.529869" lon="34.029545"><ele>721.8</ele><time>2011-10-11T13:28:07.0000000+00:00</time></trkpt><trkpt lat="44.529888" lon="34.029594"><ele>721.6</ele><time>2011-10-11T13:28:12.0000000+00:00</time></trkpt><trkpt lat="44.5299" lon="34.029671"><ele>721.3</ele><time>2011-10-11T13:28:17.0000000+00:00</time></trkpt><trkpt lat="44.529861" lon="34.029713"><ele>721.7</ele><time>2011-10-11T13:28:22.0000000+00:00</time></trkpt><trkpt lat="44.529835" lon="34.029785"><ele>721.2</ele><time>2011-10-11T13:28:27.0000000+00:00</time></trkpt><trkpt lat="44.529888" lon="34.029896"><ele>718.4</ele><time>2011-10-11T13:28:32.0000000+00:00</time></trkpt><trkpt lat="44.5299" lon="34.030041"><ele>713.7</ele><time>2011-10-11T13:28:37.0000000+00:00</time></trkpt><trkpt lat="44.529846" lon="34.030067"><ele>708.9</ele><time>2011-10-11T13:28:42.0000000+00:00</time></trkpt><trkpt lat="44.529812" lon="34.030102"><ele>705.2</ele><time>2011-10-11T13:28:47.0000000+00:00</time></trkpt><trkpt lat="44.529747" lon="34.030102"><ele>704.6</ele><time>2011-10-11T13:28:52.0000000+00:00</time></trkpt><trkpt lat="44.529736" lon="34.030159"><ele>704.9</ele><time>2011-10-11T13:28:57.0000000+00:00</time></trkpt><trkpt lat="44.529686" lon="34.030155"><ele>704.4</ele><time>2011-10-11T13:29:02.0000000+00:00</time></trkpt><trkpt lat="44.529636" lon="34.030159"><ele>704.5</ele><time>2011-10-11T13:29:07.0000000+00:00</time></trkpt><trkpt lat="44.529606" lon="34.030201"><ele>704.7</ele><time>2011-10-11T13:29:12.0000000+00:00</time></trkpt><trkpt lat="44.529598" lon="34.030247"><ele>704.6</ele><time>2011-10-11T13:29:17.0000000+00:00</time></trkpt><trkpt lat="44.529591" lon="34.030281"><ele>704.7</ele><time>2011-10-11T13:29:22.0000000+00:00</time></trkpt><trkpt lat="44.529579" lon="34.030334"><ele>704.7</ele><time>2011-10-11T13:29:27.0000000+00:00</time></trkpt><trkpt lat="44.529549" lon="34.030354"><ele>705.0</ele><time>2011-10-11T13:29:32.0000000+00:00</time></trkpt><trkpt lat="44.529514" lon="34.030376"><ele>705.0</ele><time>2011-10-11T13:29:37.0000000+00:00</time></trkpt><trkpt lat="44.529545" lon="34.030464"><ele>705.1</ele><time>2011-10-11T13:29:42.0000000+00:00</time></trkpt><trkpt lat="44.529545" lon="34.030499"><ele>703.9</ele><time>2011-10-11T13:29:47.0000000+00:00</time></trkpt><trkpt lat="44.52953" lon="34.030571"><ele>703.5</ele><time>2011-10-11T13:29:52.0000000+00:00</time></trkpt><trkpt lat="44.529488" lon="34.030613"><ele>702.5</ele><time>2011-10-11T13:29:57.0000000+00:00</time></trkpt><trkpt lat="44.52943" lon="34.030621"><ele>701.7</ele><time>2011-10-11T13:30:02.0000000+00:00</time></trkpt><trkpt lat="44.529362" lon="34.030655"><ele>698.7</ele><time>2011-10-11T13:30:07.0000000+00:00</time></trkpt><trkpt lat="44.529354" lon="34.030701"><ele>697.3</ele><time>2011-10-11T13:30:12.0000000+00:00</time></trkpt><trkpt lat="44.529308" lon="34.030704"><ele>697.6</ele><time>2011-10-11T13:30:17.0000000+00:00</time></trkpt><trkpt lat="44.529289" lon="34.030735"><ele>697.2</ele><time>2011-10-11T13:30:22.0000000+00:00</time></trkpt><trkpt lat="44.529251" lon="34.030746"><ele>697.3</ele><time>2011-10-11T13:30:27.0000000+00:00</time></trkpt><trkpt lat="44.529221" lon="34.030815"><ele>698.0</ele><time>2011-10-11T13:30:32.0000000+00:00</time></trkpt><trkpt lat="44.529144" lon="34.030823"><ele>698.0</ele><time>2011-10-11T13:30:37.0000000+00:00</time></trkpt><trkpt lat="44.529144" lon="34.030899"><ele>698.9</ele><time>2011-10-11T13:30:42.0000000+00:00</time></trkpt><trkpt lat="44.529125" lon="34.030933"><ele>699.7</ele><time>2011-10-11T13:30:47.0000000+00:00</time></trkpt><trkpt lat="44.529099" lon="34.03096"><ele>698.8</ele><time>2011-10-11T13:30:52.0000000+00:00</time></trkpt><trkpt lat="44.529083" lon="34.030983"><ele>699.1</ele><time>2011-10-11T13:30:57.0000000+00:00</time></trkpt><trkpt lat="44.529106" lon="34.031002"><ele>699.7</ele><time>2011-10-11T13:31:02.0000000+00:00</time></trkpt><trkpt lat="44.52911" lon="34.031006"><ele>700.3</ele><time>2011-10-11T13:31:07.0000000+00:00</time></trkpt><trkpt lat="44.529114" lon="34.031006"><ele>700.9</ele><time>2011-10-11T13:31:12.0000000+00:00</time></trkpt><trkpt lat="44.529118" lon="34.03101"><ele>701.5</ele><time>2011-10-11T13:31:17.0000000+00:00</time></trkpt><trkpt lat="44.529121" lon="34.031021"><ele>702.1</ele><time>2011-10-11T13:31:22.0000000+00:00</time></trkpt><trkpt lat="44.529072" lon="34.031013"><ele>702.3</ele><time>2011-10-11T13:31:27.0000000+00:00</time></trkpt><trkpt lat="44.529034" lon="34.031025"><ele>702.7</ele><time>2011-10-11T13:31:32.0000000+00:00</time></trkpt><trkpt lat="44.529003" lon="34.031075"><ele>703.3</ele><time>2011-10-11T13:31:37.0000000+00:00</time></trkpt><trkpt lat="44.529007" lon="34.031139"><ele>703.9</ele><time>2011-10-11T13:31:42.0000000+00:00</time></trkpt><trkpt lat="44.528984" lon="34.031197"><ele>704.3</ele><time>2011-10-11T13:31:47.0000000+00:00</time></trkpt><trkpt lat="44.52895" lon="34.031246"><ele>704.8</ele><time>2011-10-11T13:31:52.0000000+00:00</time></trkpt><trkpt lat="44.528881" lon="34.031269"><ele>705.2</ele><time>2011-10-11T13:31:57.0000000+00:00</time></trkpt><trkpt lat="44.528862" lon="34.0313"><ele>706.0</ele><time>2011-10-11T13:32:02.0000000+00:00</time></trkpt><trkpt lat="44.528805" lon="34.031326"><ele>706.8</ele><time>2011-10-11T13:32:07.0000000+00:00</time></trkpt><trkpt lat="44.528809" lon="34.031387"><ele>707.5</ele><time>2011-10-11T13:32:12.0000000+00:00</time></trkpt><trkpt lat="44.528797" lon="34.031433"><ele>708.0</ele><time>2011-10-11T13:32:17.0000000+00:00</time></trkpt><trkpt lat="44.528828" lon="34.031509"><ele>708.8</ele><time>2011-10-11T13:32:22.0000000+00:00</time></trkpt><trkpt lat="44.528824" lon="34.031551"><ele>709.1</ele><time>2011-10-11T13:32:27.0000000+00:00</time></trkpt><trkpt lat="44.528851" lon="34.031635"><ele>709.4</ele><time>2011-10-11T13:32:32.0000000+00:00</time></trkpt><trkpt lat="44.528866" lon="34.031689"><ele>709.9</ele><time>2011-10-11T13:32:37.0000000+00:00</time></trkpt><trkpt lat="44.528889" lon="34.031715"><ele>710.5</ele><time>2011-10-11T13:32:42.0000000+00:00</time></trkpt><trkpt lat="44.528942" lon="34.031818"><ele>711.1</ele><time>2011-10-11T13:32:47.0000000+00:00</time></trkpt><trkpt lat="44.528881" lon="34.031845"><ele>711.4</ele><time>2011-10-11T13:32:52.0000000+00:00</time></trkpt><trkpt lat="44.528881" lon="34.031902"><ele>711.5</ele><time>2011-10-11T13:32:57.0000000+00:00</time></trkpt><trkpt lat="44.528843" lon="34.031933"><ele>711.8</ele><time>2011-10-11T13:33:02.0000000+00:00</time></trkpt><trkpt lat="44.528812" lon="34.031933"><ele>712.1</ele><time>2011-10-11T13:33:07.0000000+00:00</time></trkpt><trkpt lat="44.52879" lon="34.031952"><ele>712.6</ele><time>2011-10-11T13:33:12.0000000+00:00</time></trkpt><trkpt lat="44.528728" lon="34.031952"><ele>713.0</ele><time>2011-10-11T13:33:17.0000000+00:00</time></trkpt><trkpt lat="44.528641" lon="34.031952"><ele>713.0</ele><time>2011-10-11T13:33:22.0000000+00:00</time></trkpt><trkpt lat="44.528511" lon="34.03191"><ele>713.3</ele><time>2011-10-11T13:33:27.0000000+00:00</time></trkpt><trkpt lat="44.528439" lon="34.031933"><ele>713.3</ele><time>2011-10-11T13:33:32.0000000+00:00</time></trkpt><trkpt lat="44.528439" lon="34.031975"><ele>713.7</ele><time>2011-10-11T13:33:37.0000000+00:00</time></trkpt><trkpt lat="44.528446" lon="34.032032"><ele>714.3</ele><time>2011-10-11T13:33:42.0000000+00:00</time></trkpt><trkpt lat="44.528423" lon="34.032009"><ele>714.6</ele><time>2011-10-11T13:33:47.0000000+00:00</time></trkpt><trkpt lat="44.528427" lon="34.032024"><ele>714.7</ele><time>2011-10-11T13:33:52.0000000+00:00</time></trkpt><trkpt lat="44.528397" lon="34.032032"><ele>714.7</ele><time>2011-10-11T13:33:57.0000000+00:00</time></trkpt><trkpt lat="44.5284" lon="34.032097"><ele>715.2</ele><time>2011-10-11T13:34:02.0000000+00:00</time></trkpt><trkpt lat="44.528416" lon="34.032139"><ele>714.4</ele><time>2011-10-11T13:34:07.0000000+00:00</time></trkpt><trkpt lat="44.528397" lon="34.032162"><ele>713.1</ele><time>2011-10-11T13:34:12.0000000+00:00</time></trkpt><trkpt lat="44.528412" lon="34.032227"><ele>712.7</ele><time>2011-10-11T13:34:17.0000000+00:00</time></trkpt><trkpt lat="44.528419" lon="34.032219"><ele>712.2</ele><time>2011-10-11T13:34:22.0000000+00:00</time></trkpt><trkpt lat="44.528416" lon="34.032215"><ele>712.2</ele><time>2011-10-11T13:34:27.0000000+00:00</time></trkpt><trkpt lat="44.528412" lon="34.032211"><ele>712.2</ele><time>2011-10-11T13:34:32.0000000+00:00</time></trkpt><trkpt lat="44.528408" lon="34.032215"><ele>712.2</ele><time>2011-10-11T13:34:37.0000000+00:00</time></trkpt><trkpt lat="44.528404" lon="34.032211"><ele>712.2</ele><time>2011-10-11T13:34:42.0000000+00:00</time></trkpt><trkpt lat="44.5284" lon="34.032211"><ele>712.1</ele><time>2011-10-11T13:34:47.0000000+00:00</time></trkpt><trkpt lat="44.5284" lon="34.032219"><ele>712.1</ele><time>2011-10-11T13:34:52.0000000+00:00</time></trkpt><trkpt lat="44.528408" lon="34.032223"><ele>712.1</ele><time>2011-10-11T13:34:57.0000000+00:00</time></trkpt><trkpt lat="44.528408" lon="34.03223"><ele>712.0</ele><time>2011-10-11T13:35:02.0000000+00:00</time></trkpt><trkpt lat="44.528412" lon="34.032238"><ele>711.9</ele><time>2011-10-11T13:35:07.0000000+00:00</time></trkpt><trkpt lat="44.528416" lon="34.032246"><ele>711.8</ele><time>2011-10-11T13:35:12.0000000+00:00</time></trkpt><trkpt lat="44.528412" lon="34.032246"><ele>711.7</ele><time>2011-10-11T13:35:17.0000000+00:00</time></trkpt><trkpt lat="44.528404" lon="34.032238"><ele>711.7</ele><time>2011-10-11T13:35:22.0000000+00:00</time></trkpt><trkpt lat="44.528404" lon="34.032238"><ele>711.6</ele><time>2011-10-11T13:35:27.0000000+00:00</time></trkpt><trkpt lat="44.528419" lon="34.032261"><ele>710.9</ele><time>2011-10-11T13:35:32.0000000+00:00</time></trkpt><trkpt lat="44.528423" lon="34.032242"><ele>709.1</ele><time>2011-10-11T13:35:37.0000000+00:00</time></trkpt><trkpt lat="44.528439" lon="34.032257"><ele>708.7</ele><time>2011-10-11T13:35:42.0000000+00:00</time></trkpt><trkpt lat="44.528442" lon="34.032261"><ele>707.9</ele><time>2011-10-11T13:35:47.0000000+00:00</time></trkpt><trkpt lat="44.528442" lon="34.032272"><ele>707.7</ele><time>2011-10-11T13:35:52.0000000+00:00</time></trkpt><trkpt lat="44.528435" lon="34.032299"><ele>707.3</ele><time>2011-10-11T13:35:57.0000000+00:00</time></trkpt><trkpt lat="44.528381" lon="34.032303"><ele>707.2</ele><time>2011-10-11T13:36:02.0000000+00:00</time></trkpt><trkpt lat="44.528358" lon="34.032314"><ele>707.6</ele><time>2011-10-11T13:36:07.0000000+00:00</time></trkpt><trkpt lat="44.528358" lon="34.032326"><ele>707.5</ele><time>2011-10-11T13:36:12.0000000+00:00</time></trkpt><trkpt lat="44.528362" lon="34.032341"><ele>707.5</ele><time>2011-10-11T13:36:17.0000000+00:00</time></trkpt><trkpt lat="44.528362" lon="34.032352"><ele>707.4</ele><time>2011-10-11T13:36:22.0000000+00:00</time></trkpt><trkpt lat="44.528366" lon="34.032368"><ele>707.4</ele><time>2011-10-11T13:36:27.0000000+00:00</time></trkpt><trkpt lat="44.528366" lon="34.032375"><ele>707.3</ele><time>2011-10-11T13:36:32.0000000+00:00</time></trkpt><trkpt lat="44.528358" lon="34.032406"><ele>707.3</ele><time>2011-10-11T13:36:37.0000000+00:00</time></trkpt><trkpt lat="44.528313" lon="34.032455"><ele>707.2</ele><time>2011-10-11T13:36:42.0000000+00:00</time></trkpt><trkpt lat="44.528355" lon="34.032509"><ele>707.3</ele><time>2011-10-11T13:36:47.0000000+00:00</time></trkpt><trkpt lat="44.528347" lon="34.032528"><ele>707.2</ele><time>2011-10-11T13:36:52.0000000+00:00</time></trkpt><trkpt lat="44.528332" lon="34.032566"><ele>707.2</ele><time>2011-10-11T13:36:57.0000000+00:00</time></trkpt><trkpt lat="44.528324" lon="34.032627"><ele>706.8</ele><time>2011-10-11T13:37:02.0000000+00:00</time></trkpt><trkpt lat="44.528275" lon="34.032654"><ele>706.8</ele><time>2011-10-11T13:37:07.0000000+00:00</time></trkpt><trkpt lat="44.52821" lon="34.032639"><ele>706.7</ele><time>2011-10-11T13:37:12.0000000+00:00</time></trkpt><trkpt lat="44.52813" lon="34.032616"><ele>706.6</ele><time>2011-10-11T13:37:17.0000000+00:00</time></trkpt><trkpt lat="44.528122" lon="34.032623"><ele>706.6</ele><time>2011-10-11T13:37:22.0000000+00:00</time></trkpt><trkpt lat="44.528069" lon="34.032623"><ele>705.6</ele><time>2011-10-11T13:37:27.0000000+00:00</time></trkpt><trkpt lat="44.528042" lon="34.032631"><ele>705.6</ele><time>2011-10-11T13:37:32.0000000+00:00</time></trkpt><trkpt lat="44.528019" lon="34.032661"><ele>705.5</ele><time>2011-10-11T13:37:37.0000000+00:00</time></trkpt><trkpt lat="44.528004" lon="34.032688"><ele>705.4</ele><time>2011-10-11T13:37:42.0000000+00:00</time></trkpt><trkpt lat="44.527988" lon="34.032734"><ele>705.4</ele><time>2011-10-11T13:37:47.0000000+00:00</time></trkpt><trkpt lat="44.527988" lon="34.032799"><ele>705.6</ele><time>2011-10-11T13:37:52.0000000+00:00</time></trkpt><trkpt lat="44.528015" lon="34.032871"><ele>705.7</ele><time>2011-10-11T13:37:57.0000000+00:00</time></trkpt><trkpt lat="44.527988" lon="34.032928"><ele>705.7</ele><time>2011-10-11T13:38:02.0000000+00:00</time></trkpt><trkpt lat="44.527977" lon="34.032959"><ele>705.3</ele><time>2011-10-11T13:38:07.0000000+00:00</time></trkpt><trkpt lat="44.527969" lon="34.033039"><ele>705.4</ele><time>2011-10-11T13:38:12.0000000+00:00</time></trkpt><trkpt lat="44.527969" lon="34.033073"><ele>705.5</ele><time>2011-10-11T13:38:17.0000000+00:00</time></trkpt><trkpt lat="44.527973" lon="34.033104"><ele>705.4</ele><time>2011-10-11T13:38:22.0000000+00:00</time></trkpt><trkpt lat="44.527946" lon="34.033157"><ele>705.3</ele><time>2011-10-11T13:38:27.0000000+00:00</time></trkpt><trkpt lat="44.527946" lon="34.033234"><ele>705.0</ele><time>2011-10-11T13:38:32.0000000+00:00</time></trkpt><trkpt lat="44.527992" lon="34.033306"><ele>704.4</ele><time>2011-10-11T13:38:37.0000000+00:00</time></trkpt><trkpt lat="44.527996" lon="34.033356"><ele>704.6</ele><time>2011-10-11T13:38:42.0000000+00:00</time></trkpt><trkpt lat="44.528" lon="34.033375"><ele>704.7</ele><time>2011-10-11T13:38:47.0000000+00:00</time></trkpt><trkpt lat="44.528015" lon="34.033417"><ele>705.0</ele><time>2011-10-11T13:38:52.0000000+00:00</time></trkpt><trkpt lat="44.528076" lon="34.033497"><ele>705.3</ele><time>2011-10-11T13:38:57.0000000+00:00</time></trkpt><trkpt lat="44.528049" lon="34.033527"><ele>705.4</ele><time>2011-10-11T13:39:02.0000000+00:00</time></trkpt><trkpt lat="44.528061" lon="34.033592"><ele>705.4</ele><time>2011-10-11T13:39:07.0000000+00:00</time></trkpt><trkpt lat="44.528084" lon="34.033646"><ele>705.3</ele><time>2011-10-11T13:39:12.0000000+00:00</time></trkpt><trkpt lat="44.528103" lon="34.033722"><ele>705.2</ele><time>2011-10-11T13:39:17.0000000+00:00</time></trkpt><trkpt lat="44.528072" lon="34.033768"><ele>705.0</ele><time>2011-10-11T13:39:22.0000000+00:00</time></trkpt><trkpt lat="44.528065" lon="34.033806"><ele>705.0</ele><time>2011-10-11T13:39:27.0000000+00:00</time></trkpt><trkpt lat="44.528061" lon="34.033833"><ele>704.9</ele><time>2011-10-11T13:39:32.0000000+00:00</time></trkpt><trkpt lat="44.528103" lon="34.033875"><ele>704.7</ele><time>2011-10-11T13:39:37.0000000+00:00</time></trkpt><trkpt lat="44.528107" lon="34.033901"><ele>704.5</ele><time>2011-10-11T13:39:42.0000000+00:00</time></trkpt><trkpt lat="44.528107" lon="34.033928"><ele>704.7</ele><time>2011-10-11T13:39:47.0000000+00:00</time></trkpt><trkpt lat="44.528095" lon="34.033993"><ele>704.9</ele><time>2011-10-11T13:39:52.0000000+00:00</time></trkpt><trkpt lat="44.528091" lon="34.034035"><ele>705.4</ele><time>2011-10-11T13:39:57.0000000+00:00</time></trkpt><trkpt lat="44.528091" lon="34.034088"><ele>705.6</ele><time>2011-10-11T13:40:02.0000000+00:00</time></trkpt><trkpt lat="44.528091" lon="34.034153"><ele>706.1</ele><time>2011-10-11T13:40:07.0000000+00:00</time></trkpt><trkpt lat="44.528114" lon="34.034203"><ele>706.4</ele><time>2011-10-11T13:40:12.0000000+00:00</time></trkpt><trkpt lat="44.528103" lon="34.034248"><ele>706.7</ele><time>2011-10-11T13:40:17.0000000+00:00</time></trkpt><trkpt lat="44.528156" lon="34.034286"><ele>706.5</ele><time>2011-10-11T13:40:22.0000000+00:00</time></trkpt><trkpt lat="44.528168" lon="34.034336"><ele>707.1</ele><time>2011-10-11T13:40:27.0000000+00:00</time></trkpt><trkpt lat="44.528175" lon="34.034412"><ele>707.1</ele><time>2011-10-11T13:40:32.0000000+00:00</time></trkpt><trkpt lat="44.528183" lon="34.034473"><ele>707.0</ele><time>2011-10-11T13:40:37.0000000+00:00</time></trkpt><trkpt lat="44.528194" lon="34.034573"><ele>707.4</ele><time>2011-10-11T13:40:42.0000000+00:00</time></trkpt><trkpt lat="44.528198" lon="34.034645"><ele>707.2</ele><time>2011-10-11T13:40:47.0000000+00:00</time></trkpt><trkpt lat="44.528214" lon="34.034718"><ele>707.4</ele><time>2011-10-11T13:40:52.0000000+00:00</time></trkpt><trkpt lat="44.528198" lon="34.034786"><ele>707.3</ele><time>2011-10-11T13:40:57.0000000+00:00</time></trkpt><trkpt lat="44.528149" lon="34.034836"><ele>707.6</ele><time>2011-10-11T13:41:02.0000000+00:00</time></trkpt><trkpt lat="44.528137" lon="34.034889"><ele>707.4</ele><time>2011-10-11T13:41:07.0000000+00:00</time></trkpt><trkpt lat="44.528122" lon="34.034943"><ele>706.9</ele><time>2011-10-11T13:41:12.0000000+00:00</time></trkpt><trkpt lat="44.528118" lon="34.034973"><ele>706.8</ele><time>2011-10-11T13:41:17.0000000+00:00</time></trkpt><trkpt lat="44.528114" lon="34.03503"><ele>706.0</ele><time>2011-10-11T13:41:22.0000000+00:00</time></trkpt><trkpt lat="44.528088" lon="34.035065"><ele>705.8</ele><time>2011-10-11T13:41:27.0000000+00:00</time></trkpt><trkpt lat="44.528057" lon="34.035114"><ele>704.7</ele><time>2011-10-11T13:41:32.0000000+00:00</time></trkpt><trkpt lat="44.528057" lon="34.035172"><ele>703.4</ele><time>2011-10-11T13:41:37.0000000+00:00</time></trkpt><trkpt lat="44.528008" lon="34.035194"><ele>702.9</ele><time>2011-10-11T13:41:42.0000000+00:00</time></trkpt><trkpt lat="44.527988" lon="34.035221"><ele>702.7</ele><time>2011-10-11T13:41:47.0000000+00:00</time></trkpt><trkpt lat="44.527977" lon="34.035271"><ele>702.9</ele><time>2011-10-11T13:41:52.0000000+00:00</time></trkpt><trkpt lat="44.527958" lon="34.035305"><ele>702.6</ele><time>2011-10-11T13:41:57.0000000+00:00</time></trkpt><trkpt lat="44.527924" lon="34.035378"><ele>700.6</ele><time>2011-10-11T13:42:02.0000000+00:00</time></trkpt><trkpt lat="44.527874" lon="34.035461"><ele>699.5</ele><time>2011-10-11T13:42:07.0000000+00:00</time></trkpt><trkpt lat="44.527882" lon="34.035561"><ele>698.3</ele><time>2011-10-11T13:42:12.0000000+00:00</time></trkpt><trkpt lat="44.527878" lon="34.035625"><ele>697.8</ele><time>2011-10-11T13:42:17.0000000+00:00</time></trkpt><trkpt lat="44.527855" lon="34.035667"><ele>697.6</ele><time>2011-10-11T13:42:22.0000000+00:00</time></trkpt><trkpt lat="44.527843" lon="34.035713"><ele>696.9</ele><time>2011-10-11T13:42:27.0000000+00:00</time></trkpt><trkpt lat="44.527843" lon="34.035786"><ele>696.5</ele><time>2011-10-11T13:42:32.0000000+00:00</time></trkpt><trkpt lat="44.527798" lon="34.035824"><ele>696.2</ele><time>2011-10-11T13:42:37.0000000+00:00</time></trkpt><trkpt lat="44.527756" lon="34.035862"><ele>696.1</ele><time>2011-10-11T13:42:42.0000000+00:00</time></trkpt><trkpt lat="44.527775" lon="34.035942"><ele>696.5</ele><time>2011-10-11T13:42:47.0000000+00:00</time></trkpt><trkpt lat="44.527744" lon="34.035961"><ele>696.6</ele><time>2011-10-11T13:42:52.0000000+00:00</time></trkpt><trkpt lat="44.527714" lon="34.035992"><ele>696.7</ele><time>2011-10-11T13:42:57.0000000+00:00</time></trkpt><trkpt lat="44.527691" lon="34.036022"><ele>697.2</ele><time>2011-10-11T13:43:02.0000000+00:00</time></trkpt><trkpt lat="44.527691" lon="34.036087"><ele>697.4</ele><time>2011-10-11T13:43:07.0000000+00:00</time></trkpt><trkpt lat="44.52766" lon="34.036148"><ele>697.6</ele><time>2011-10-11T13:43:12.0000000+00:00</time></trkpt><trkpt lat="44.527637" lon="34.036198"><ele>698.1</ele><time>2011-10-11T13:43:17.0000000+00:00</time></trkpt><trkpt lat="44.527615" lon="34.036263"><ele>698.6</ele><time>2011-10-11T13:43:22.0000000+00:00</time></trkpt><trkpt lat="44.527622" lon="34.036335"><ele>698.9</ele><time>2011-10-11T13:43:27.0000000+00:00</time></trkpt><trkpt lat="44.527607" lon="34.036358"><ele>699.5</ele><time>2011-10-11T13:43:32.0000000+00:00</time></trkpt><trkpt lat="44.527576" lon="34.036362"><ele>700.3</ele><time>2011-10-11T13:43:37.0000000+00:00</time></trkpt><trkpt lat="44.527546" lon="34.036335"><ele>701.2</ele><time>2011-10-11T13:43:42.0000000+00:00</time></trkpt><trkpt lat="44.527496" lon="34.03632"><ele>701.9</ele><time>2011-10-11T13:43:47.0000000+00:00</time></trkpt><trkpt lat="44.527477" lon="34.036339"><ele>702.6</ele><time>2011-10-11T13:43:52.0000000+00:00</time></trkpt><trkpt lat="44.527454" lon="34.036388"><ele>703.3</ele><time>2011-10-11T13:43:57.0000000+00:00</time></trkpt><trkpt lat="44.527382" lon="34.036388"><ele>703.7</ele><time>2011-10-11T13:44:02.0000000+00:00</time></trkpt><trkpt lat="44.527355" lon="34.036369"><ele>704.1</ele><time>2011-10-11T13:44:07.0000000+00:00</time></trkpt><trkpt lat="44.527332" lon="34.036423"><ele>704.3</ele><time>2011-10-11T13:44:12.0000000+00:00</time></trkpt><trkpt lat="44.527328" lon="34.036461"><ele>704.1</ele><time>2011-10-11T13:44:17.0000000+00:00</time></trkpt><trkpt lat="44.527325" lon="34.036472"><ele>704.4</ele><time>2011-10-11T13:44:22.0000000+00:00</time></trkpt><trkpt lat="44.527317" lon="34.036484"><ele>704.8</ele><time>2011-10-11T13:44:27.0000000+00:00</time></trkpt><trkpt lat="44.527313" lon="34.036499"><ele>705.1</ele><time>2011-10-11T13:44:32.0000000+00:00</time></trkpt><trkpt lat="44.527313" lon="34.036514"><ele>705.4</ele><time>2011-10-11T13:44:37.0000000+00:00</time></trkpt><trkpt lat="44.527309" lon="34.036522"><ele>705.7</ele><time>2011-10-11T13:44:42.0000000+00:00</time></trkpt><trkpt lat="44.527302" lon="34.03653"><ele>706.1</ele><time>2011-10-11T13:44:47.0000000+00:00</time></trkpt><trkpt lat="44.527298" lon="34.036533"><ele>706.4</ele><time>2011-10-11T13:44:52.0000000+00:00</time></trkpt><trkpt lat="44.527298" lon="34.036533"><ele>706.7</ele><time>2011-10-11T13:44:57.0000000+00:00</time></trkpt><trkpt lat="44.527298" lon="34.036526"><ele>707.0</ele><time>2011-10-11T13:45:02.0000000+00:00</time></trkpt><trkpt lat="44.527294" lon="34.036522"><ele>707.3</ele><time>2011-10-11T13:45:07.0000000+00:00</time></trkpt><trkpt lat="44.527283" lon="34.036522"><ele>707.5</ele><time>2011-10-11T13:45:12.0000000+00:00</time></trkpt><trkpt lat="44.527275" lon="34.036522"><ele>707.8</ele><time>2011-10-11T13:45:17.0000000+00:00</time></trkpt><trkpt lat="44.527287" lon="34.036491"><ele>707.2</ele><time>2011-10-11T13:45:22.0000000+00:00</time></trkpt><trkpt lat="44.527294" lon="34.036461"><ele>707.9</ele><time>2011-10-11T13:45:27.0000000+00:00</time></trkpt><trkpt lat="44.527294" lon="34.036453"><ele>708.1</ele><time>2011-10-11T13:45:32.0000000+00:00</time></trkpt><trkpt lat="44.527298" lon="34.036453"><ele>708.3</ele><time>2011-10-11T13:45:37.0000000+00:00</time></trkpt><trkpt lat="44.527302" lon="34.036453"><ele>708.4</ele><time>2011-10-11T13:45:42.0000000+00:00</time></trkpt><trkpt lat="44.527306" lon="34.036465"><ele>708.5</ele><time>2011-10-11T13:45:47.0000000+00:00</time></trkpt><trkpt lat="44.527294" lon="34.036495"><ele>708.4</ele><time>2011-10-11T13:45:52.0000000+00:00</time></trkpt><trkpt lat="44.527283" lon="34.036507"><ele>708.6</ele><time>2011-10-11T13:45:57.0000000+00:00</time></trkpt><trkpt lat="44.527275" lon="34.036514"><ele>708.5</ele><time>2011-10-11T13:46:02.0000000+00:00</time></trkpt><trkpt lat="44.527271" lon="34.036526"><ele>708.6</ele><time>2011-10-11T13:46:07.0000000+00:00</time></trkpt><trkpt lat="44.527267" lon="34.036537"><ele>708.7</ele><time>2011-10-11T13:46:12.0000000+00:00</time></trkpt><trkpt lat="44.527271" lon="34.036549"><ele>708.8</ele><time>2011-10-11T13:46:17.0000000+00:00</time></trkpt><trkpt lat="44.52729" lon="34.036594"><ele>708.7</ele><time>2011-10-11T13:46:22.0000000+00:00</time></trkpt><trkpt lat="44.527332" lon="34.03664"><ele>708.9</ele><time>2011-10-11T13:46:27.0000000+00:00</time></trkpt><trkpt lat="44.527355" lon="34.03664"><ele>708.9</ele><time>2011-10-11T13:46:32.0000000+00:00</time></trkpt><trkpt lat="44.527363" lon="34.036633"><ele>708.6</ele><time>2011-10-11T13:46:37.0000000+00:00</time></trkpt><trkpt lat="44.527336" lon="34.036621"><ele>709.1</ele><time>2011-10-11T13:46:42.0000000+00:00</time></trkpt><trkpt lat="44.52734" lon="34.036617"><ele>709.2</ele><time>2011-10-11T13:46:47.0000000+00:00</time></trkpt><trkpt lat="44.527428" lon="34.036591"><ele>708.9</ele><time>2011-10-11T13:46:52.0000000+00:00</time></trkpt><trkpt lat="44.527512" lon="34.03661"><ele>708.9</ele><time>2011-10-11T13:46:57.0000000+00:00</time></trkpt><trkpt lat="44.52758" lon="34.03661"><ele>708.8</ele><time>2011-10-11T13:47:02.0000000+00:00</time></trkpt><trkpt lat="44.527599" lon="34.036556"><ele>709.3</ele><time>2011-10-11T13:47:07.0000000+00:00</time></trkpt><trkpt lat="44.527637" lon="34.036556"><ele>709.6</ele><time>2011-10-11T13:47:12.0000000+00:00</time></trkpt><trkpt lat="44.527687" lon="34.036526"><ele>710.0</ele><time>2011-10-11T13:47:17.0000000+00:00</time></trkpt><trkpt lat="44.527744" lon="34.036564"><ele>710.5</ele><time>2011-10-11T13:47:22.0000000+00:00</time></trkpt><trkpt lat="44.527763" lon="34.036575"><ele>710.7</ele><time>2011-10-11T13:47:27.0000000+00:00</time></trkpt><trkpt lat="44.527786" lon="34.036526"><ele>711.0</ele><time>2011-10-11T13:47:32.0000000+00:00</time></trkpt><trkpt lat="44.527889" lon="34.036427"><ele>710.6</ele><time>2011-10-11T13:47:37.0000000+00:00</time></trkpt><trkpt lat="44.527927" lon="34.0364"><ele>710.7</ele><time>2011-10-11T13:47:42.0000000+00:00</time></trkpt><trkpt lat="44.52792" lon="34.03635"><ele>711.3</ele><time>2011-10-11T13:47:47.0000000+00:00</time></trkpt><trkpt lat="44.527935" lon="34.036293"><ele>711.7</ele><time>2011-10-11T13:47:52.0000000+00:00</time></trkpt><trkpt lat="44.527943" lon="34.036228"><ele>712.0</ele><time>2011-10-11T13:47:57.0000000+00:00</time></trkpt><trkpt lat="44.52795" lon="34.03619"><ele>712.2</ele><time>2011-10-11T13:48:02.0000000+00:00</time></trkpt><trkpt lat="44.527958" lon="34.036133"><ele>712.1</ele><time>2011-10-11T13:48:07.0000000+00:00</time></trkpt><trkpt lat="44.527966" lon="34.036087"><ele>713.0</ele><time>2011-10-11T13:48:12.0000000+00:00</time></trkpt><trkpt lat="44.527988" lon="34.036049"><ele>713.2</ele><time>2011-10-11T13:48:17.0000000+00:00</time></trkpt><trkpt lat="44.528019" lon="34.035976"><ele>713.0</ele><time>2011-10-11T13:48:22.0000000+00:00</time></trkpt><trkpt lat="44.528057" lon="34.035881"><ele>712.4</ele><time>2011-10-11T13:48:27.0000000+00:00</time></trkpt><trkpt lat="44.528095" lon="34.035828"><ele>712.5</ele><time>2011-10-11T13:48:32.0000000+00:00</time></trkpt><trkpt lat="44.528156" lon="34.035786"><ele>712.8</ele><time>2011-10-11T13:48:37.0000000+00:00</time></trkpt><trkpt lat="44.528217" lon="34.035721"><ele>714.5</ele><time>2011-10-11T13:48:42.0000000+00:00</time></trkpt><trkpt lat="44.528259" lon="34.035645"><ele>716.5</ele><time>2011-10-11T13:48:47.0000000+00:00</time></trkpt><trkpt lat="44.528278" lon="34.035599"><ele>718.9</ele><time>2011-10-11T13:48:52.0000000+00:00</time></trkpt><trkpt lat="44.528328" lon="34.035545"><ele>720.9</ele><time>2011-10-11T13:48:57.0000000+00:00</time></trkpt><trkpt lat="44.528351" lon="34.035469"><ele>722.3</ele><time>2011-10-11T13:49:02.0000000+00:00</time></trkpt><trkpt lat="44.528408" lon="34.035339"><ele>721.9</ele><time>2011-10-11T13:49:07.0000000+00:00</time></trkpt><trkpt lat="44.528419" lon="34.035263"><ele>721.7</ele><time>2011-10-11T13:49:12.0000000+00:00</time></trkpt><trkpt lat="44.528427" lon="34.035133"><ele>721.6</ele><time>2011-10-11T13:49:17.0000000+00:00</time></trkpt><trkpt lat="44.528465" lon="34.035088"><ele>719.7</ele><time>2011-10-11T13:49:22.0000000+00:00</time></trkpt><trkpt lat="44.528484" lon="34.034996"><ele>720.4</ele><time>2011-10-11T13:49:27.0000000+00:00</time></trkpt><trkpt lat="44.528515" lon="34.034924"><ele>720.8</ele><time>2011-10-11T13:49:32.0000000+00:00</time></trkpt><trkpt lat="44.528549" lon="34.03484"><ele>721.1</ele><time>2011-10-11T13:49:37.0000000+00:00</time></trkpt><trkpt lat="44.528606" lon="34.034779"><ele>720.2</ele><time>2011-10-11T13:49:42.0000000+00:00</time></trkpt><trkpt lat="44.528652" lon="34.03471"><ele>719.5</ele><time>2011-10-11T13:49:47.0000000+00:00</time></trkpt><trkpt lat="44.52869" lon="34.034634"><ele>720.0</ele><time>2011-10-11T13:49:52.0000000+00:00</time></trkpt><trkpt lat="44.528687" lon="34.034607"><ele>720.6</ele><time>2011-10-11T13:49:57.0000000+00:00</time></trkpt><trkpt lat="44.528732" lon="34.034515"><ele>721.3</ele><time>2011-10-11T13:50:02.0000000+00:00</time></trkpt><trkpt lat="44.528725" lon="34.034412"><ele>722.3</ele><time>2011-10-11T13:50:07.0000000+00:00</time></trkpt><trkpt lat="44.528702" lon="34.034359"><ele>723.2</ele><time>2011-10-11T13:50:12.0000000+00:00</time></trkpt><trkpt lat="44.528709" lon="34.034298"><ele>723.8</ele><time>2011-10-11T13:50:17.0000000+00:00</time></trkpt><trkpt lat="44.528748" lon="34.03421"><ele>724.3</ele><time>2011-10-11T13:50:22.0000000+00:00</time></trkpt><trkpt lat="44.528793" lon="34.034138"><ele>724.2</ele><time>2011-10-11T13:50:27.0000000+00:00</time></trkpt><trkpt lat="44.528839" lon="34.034073"><ele>724.4</ele><time>2011-10-11T13:50:32.0000000+00:00</time></trkpt><trkpt lat="44.528877" lon="34.034065"><ele>724.9</ele><time>2011-10-11T13:50:37.0000000+00:00</time></trkpt><trkpt lat="44.528919" lon="34.034031"><ele>725.1</ele><time>2011-10-11T13:50:42.0000000+00:00</time></trkpt><trkpt lat="44.52898" lon="34.034016"><ele>725.1</ele><time>2011-10-11T13:50:47.0000000+00:00</time></trkpt><trkpt lat="44.529007" lon="34.033985"><ele>725.2</ele><time>2011-10-11T13:50:52.0000000+00:00</time></trkpt><trkpt lat="44.529049" lon="34.033951"><ele>725.2</ele><time>2011-10-11T13:50:57.0000000+00:00</time></trkpt><trkpt lat="44.529079" lon="34.033936"><ele>725.3</ele><time>2011-10-11T13:51:02.0000000+00:00</time></trkpt><trkpt lat="44.529102" lon="34.03392"><ele>725.8</ele><time>2011-10-11T13:51:07.0000000+00:00</time></trkpt><trkpt lat="44.52914" lon="34.033901"><ele>725.9</ele><time>2011-10-11T13:51:12.0000000+00:00</time></trkpt><trkpt lat="44.529182" lon="34.033901"><ele>726.3</ele><time>2011-10-11T13:51:17.0000000+00:00</time></trkpt><trkpt lat="44.529263" lon="34.033901"><ele>726.7</ele><time>2011-10-11T13:51:22.0000000+00:00</time></trkpt><trkpt lat="44.529308" lon="34.033878"><ele>727.1</ele><time>2011-10-11T13:51:27.0000000+00:00</time></trkpt><trkpt lat="44.529346" lon="34.033886"><ele>727.6</ele><time>2011-10-11T13:51:32.0000000+00:00</time></trkpt><trkpt lat="44.529408" lon="34.033901"><ele>728.4</ele><time>2011-10-11T13:51:37.0000000+00:00</time></trkpt><trkpt lat="44.529461" lon="34.033894"><ele>728.9</ele><time>2011-10-11T13:51:42.0000000+00:00</time></trkpt><trkpt lat="44.529503" lon="34.033878"><ele>730.1</ele><time>2011-10-11T13:51:47.0000000+00:00</time></trkpt><trkpt lat="44.529541" lon="34.033882"><ele>730.6</ele><time>2011-10-11T13:51:52.0000000+00:00</time></trkpt><trkpt lat="44.529587" lon="34.033863"><ele>732.3</ele><time>2011-10-11T13:51:57.0000000+00:00</time></trkpt><trkpt lat="44.529606" lon="34.03384"><ele>732.4</ele><time>2011-10-11T13:52:02.0000000+00:00</time></trkpt><trkpt lat="44.529621" lon="34.033806"><ele>733.6</ele><time>2011-10-11T13:52:07.0000000+00:00</time></trkpt><trkpt lat="44.529655" lon="34.033772"><ele>734.0</ele><time>2011-10-11T13:52:12.0000000+00:00</time></trkpt><trkpt lat="44.529686" lon="34.033714"><ele>735.3</ele><time>2011-10-11T13:52:17.0000000+00:00</time></trkpt><trkpt lat="44.529751" lon="34.033718"><ele>735.9</ele><time>2011-10-11T13:52:22.0000000+00:00</time></trkpt><trkpt lat="44.529823" lon="34.033695"><ele>736.1</ele><time>2011-10-11T13:52:27.0000000+00:00</time></trkpt><trkpt lat="44.529873" lon="34.033623"><ele>737.4</ele><time>2011-10-11T13:52:32.0000000+00:00</time></trkpt><trkpt lat="44.529903" lon="34.033611"><ele>737.7</ele><time>2011-10-11T13:52:37.0000000+00:00</time></trkpt><trkpt lat="44.529938" lon="34.033619"><ele>738.7</ele><time>2011-10-11T13:52:42.0000000+00:00</time></trkpt><trkpt lat="44.529995" lon="34.033588"><ele>739.8</ele><time>2011-10-11T13:52:47.0000000+00:00</time></trkpt><trkpt lat="44.530064" lon="34.033577"><ele>740.6</ele><time>2011-10-11T13:52:52.0000000+00:00</time></trkpt><trkpt lat="44.530148" lon="34.033569"><ele>741.1</ele><time>2011-10-11T13:52:57.0000000+00:00</time></trkpt><trkpt lat="44.53022" lon="34.0336"><ele>741.9</ele><time>2011-10-11T13:53:02.0000000+00:00</time></trkpt><trkpt lat="44.530235" lon="34.033585"><ele>744.2</ele><time>2011-10-11T13:53:07.0000000+00:00</time></trkpt><trkpt lat="44.53022" lon="34.033543"><ele>743.9</ele><time>2011-10-11T13:53:12.0000000+00:00</time></trkpt><trkpt lat="44.530251" lon="34.033512"><ele>743.8</ele><time>2011-10-11T13:53:17.0000000+00:00</time></trkpt><trkpt lat="44.530258" lon="34.033455"><ele>745.1</ele><time>2011-10-11T13:53:22.0000000+00:00</time></trkpt><trkpt lat="44.530235" lon="34.033405"><ele>745.6</ele><time>2011-10-11T13:53:27.0000000+00:00</time></trkpt><trkpt lat="44.530247" lon="34.033379"><ele>746.3</ele><time>2011-10-11T13:53:32.0000000+00:00</time></trkpt><trkpt lat="44.530258" lon="34.03334"><ele>746.6</ele><time>2011-10-11T13:53:37.0000000+00:00</time></trkpt><trkpt lat="44.530258" lon="34.033318"><ele>746.2</ele><time>2011-10-11T13:53:42.0000000+00:00</time></trkpt><trkpt lat="44.530243" lon="34.033291"><ele>745.9</ele><time>2011-10-11T13:53:47.0000000+00:00</time></trkpt><trkpt lat="44.530193" lon="34.033237"><ele>746.5</ele><time>2011-10-11T13:53:52.0000000+00:00</time></trkpt><trkpt lat="44.53019" lon="34.033165"><ele>746.7</ele><time>2011-10-11T13:53:57.0000000+00:00</time></trkpt><trkpt lat="44.530167" lon="34.033127"><ele>747.2</ele><time>2011-10-11T13:54:02.0000000+00:00</time></trkpt><trkpt lat="44.530155" lon="34.033089"><ele>747.5</ele><time>2011-10-11T13:54:07.0000000+00:00</time></trkpt><trkpt lat="44.530132" lon="34.033051"><ele>747.7</ele><time>2011-10-11T13:54:12.0000000+00:00</time></trkpt><trkpt lat="44.530128" lon="34.033012"><ele>747.9</ele><time>2011-10-11T13:54:17.0000000+00:00</time></trkpt><trkpt lat="44.530128" lon="34.032955"><ele>748.1</ele><time>2011-10-11T13:54:22.0000000+00:00</time></trkpt><trkpt lat="44.530148" lon="34.032906"><ele>747.9</ele><time>2011-10-11T13:54:27.0000000+00:00</time></trkpt><trkpt lat="44.530201" lon="34.032845"><ele>747.8</ele><time>2011-10-11T13:54:32.0000000+00:00</time></trkpt><trkpt lat="44.530201" lon="34.03278"><ele>747.9</ele><time>2011-10-11T13:54:37.0000000+00:00</time></trkpt><trkpt lat="44.530243" lon="34.032742"><ele>747.7</ele><time>2011-10-11T13:54:42.0000000+00:00</time></trkpt><trkpt lat="44.530262" lon="34.032715"><ele>747.6</ele><time>2011-10-11T13:54:47.0000000+00:00</time></trkpt><trkpt lat="44.530285" lon="34.032696"><ele>747.5</ele><time>2011-10-11T13:54:52.0000000+00:00</time></trkpt><trkpt lat="44.530323" lon="34.032681"><ele>747.5</ele><time>2011-10-11T13:54:57.0000000+00:00</time></trkpt><trkpt lat="44.530319" lon="34.032673"><ele>747.7</ele><time>2011-10-11T13:55:02.0000000+00:00</time></trkpt><trkpt lat="44.530327" lon="34.032669"><ele>747.8</ele><time>2011-10-11T13:55:07.0000000+00:00</time></trkpt><trkpt lat="44.53035" lon="34.032631"><ele>748.6</ele><time>2011-10-11T13:55:12.0000000+00:00</time></trkpt><trkpt lat="44.53038" lon="34.032642"><ele>748.9</ele><time>2011-10-11T13:55:17.0000000+00:00</time></trkpt><trkpt lat="44.530411" lon="34.032646"><ele>749.6</ele><time>2011-10-11T13:55:22.0000000+00:00</time></trkpt><trkpt lat="44.530453" lon="34.03265"><ele>749.7</ele><time>2011-10-11T13:55:27.0000000+00:00</time></trkpt><trkpt lat="44.530495" lon="34.032623"><ele>750.0</ele><time>2011-10-11T13:55:32.0000000+00:00</time></trkpt><trkpt lat="44.530502" lon="34.03257"><ele>750.4</ele><time>2011-10-11T13:55:37.0000000+00:00</time></trkpt><trkpt lat="44.530533" lon="34.032589"><ele>750.9</ele><time>2011-10-11T13:55:42.0000000+00:00</time></trkpt><trkpt lat="44.53054" lon="34.032619"><ele>751.4</ele><time>2011-10-11T13:55:47.0000000+00:00</time></trkpt><trkpt lat="44.530571" lon="34.032669"><ele>752.3</ele><time>2011-10-11T13:55:52.0000000+00:00</time></trkpt><trkpt lat="44.530605" lon="34.032696"><ele>753.6</ele><time>2011-10-11T13:55:57.0000000+00:00</time></trkpt><trkpt lat="44.530632" lon="34.032684"><ele>755.2</ele><time>2011-10-11T13:56:02.0000000+00:00</time></trkpt><trkpt lat="44.530666" lon="34.032688"><ele>757.1</ele><time>2011-10-11T13:56:07.0000000+00:00</time></trkpt><trkpt lat="44.530674" lon="34.032681"><ele>759.0</ele><time>2011-10-11T13:56:12.0000000+00:00</time></trkpt><trkpt lat="44.530674" lon="34.032688"><ele>760.1</ele><time>2011-10-11T13:56:17.0000000+00:00</time></trkpt><trkpt lat="44.530689" lon="34.032745"><ele>762.1</ele><time>2011-10-11T13:56:22.0000000+00:00</time></trkpt><trkpt lat="44.530682" lon="34.032799"><ele>763.5</ele><time>2011-10-11T13:56:27.0000000+00:00</time></trkpt><trkpt lat="44.530685" lon="34.032803"><ele>763.6</ele><time>2011-10-11T13:56:32.0000000+00:00</time></trkpt><trkpt lat="44.530685" lon="34.032803"><ele>763.9</ele><time>2011-10-11T13:56:37.0000000+00:00</time></trkpt><trkpt lat="44.53067" lon="34.032791"><ele>764.9</ele><time>2011-10-11T13:56:42.0000000+00:00</time></trkpt><trkpt lat="44.530666" lon="34.032791"><ele>764.9</ele><time>2011-10-11T13:56:47.0000000+00:00</time></trkpt><trkpt lat="44.530666" lon="34.032795"><ele>765.0</ele><time>2011-10-11T13:56:52.0000000+00:00</time></trkpt><trkpt lat="44.530666" lon="34.032795"><ele>765.0</ele><time>2011-10-11T13:56:57.0000000+00:00</time></trkpt><trkpt lat="44.530666" lon="34.032795"><ele>765.1</ele><time>2011-10-11T13:57:02.0000000+00:00</time></trkpt><trkpt lat="44.530666" lon="34.032795"><ele>765.0</ele><time>2011-10-11T13:57:07.0000000+00:00</time></trkpt><trkpt lat="44.530666" lon="34.032795"><ele>765.0</ele><time>2011-10-11T13:57:12.0000000+00:00</time></trkpt><trkpt lat="44.53067" lon="34.032795"><ele>765.0</ele><time>2011-10-11T13:57:17.0000000+00:00</time></trkpt><trkpt lat="44.53067" lon="34.032795"><ele>765.0</ele><time>2011-10-11T13:57:22.0000000+00:00</time></trkpt><trkpt lat="44.530674" lon="34.032791"><ele>764.6</ele><time>2011-10-11T13:57:27.0000000+00:00</time></trkpt><trkpt lat="44.530685" lon="34.032814"><ele>764.9</ele><time>2011-10-11T13:57:32.0000000+00:00</time></trkpt><trkpt lat="44.530685" lon="34.032814"><ele>764.6</ele><time>2011-10-11T13:57:37.0000000+00:00</time></trkpt><trkpt lat="44.530678" lon="34.032818"><ele>764.3</ele><time>2011-10-11T13:57:42.0000000+00:00</time></trkpt><trkpt lat="44.530678" lon="34.032818"><ele>764.2</ele><time>2011-10-11T13:57:47.0000000+00:00</time></trkpt><trkpt lat="44.530674" lon="34.032818"><ele>764.2</ele><time>2011-10-11T13:57:52.0000000+00:00</time></trkpt><trkpt lat="44.530674" lon="34.032822"><ele>764.2</ele><time>2011-10-11T13:57:57.0000000+00:00</time></trkpt><trkpt lat="44.53067" lon="34.032818"><ele>764.2</ele><time>2011-10-11T13:58:02.0000000+00:00</time></trkpt><trkpt lat="44.53067" lon="34.03281"><ele>764.2</ele><time>2011-10-11T13:58:07.0000000+00:00</time></trkpt><trkpt lat="44.530666" lon="34.032818"><ele>764.1</ele><time>2011-10-11T13:58:12.0000000+00:00</time></trkpt><trkpt lat="44.530663" lon="34.032818"><ele>764.1</ele><time>2011-10-11T13:58:17.0000000+00:00</time></trkpt><trkpt lat="44.530674" lon="34.032822"><ele>764.1</ele><time>2011-10-11T13:58:22.0000000+00:00</time></trkpt><trkpt lat="44.53067" lon="34.032825"><ele>764.3</ele><time>2011-10-11T13:58:27.0000000+00:00</time></trkpt><trkpt lat="44.530674" lon="34.032825"><ele>764.3</ele><time>2011-10-11T13:58:32.0000000+00:00</time></trkpt><trkpt lat="44.530685" lon="34.032814"><ele>764.1</ele><time>2011-10-11T13:58:37.0000000+00:00</time></trkpt><trkpt lat="44.530689" lon="34.03281"><ele>763.6</ele><time>2011-10-11T13:58:42.0000000+00:00</time></trkpt><trkpt lat="44.530685" lon="34.03281"><ele>763.5</ele><time>2011-10-11T13:58:47.0000000+00:00</time></trkpt><trkpt lat="44.530685" lon="34.03281"><ele>763.4</ele><time>2011-10-11T13:58:52.0000000+00:00</time></trkpt><trkpt lat="44.530685" lon="34.03281"><ele>763.4</ele><time>2011-10-11T13:58:57.0000000+00:00</time></trkpt><trkpt lat="44.530685" lon="34.03281"><ele>763.3</ele><time>2011-10-11T13:59:02.0000000+00:00</time></trkpt><trkpt lat="44.530685" lon="34.03281"><ele>763.3</ele><time>2011-10-11T13:59:07.0000000+00:00</time></trkpt><trkpt lat="44.530685" lon="34.03281"><ele>763.3</ele><time>2011-10-11T13:59:12.0000000+00:00</time></trkpt><trkpt lat="44.530689" lon="34.032806"><ele>763.3</ele><time>2011-10-11T13:59:17.0000000+00:00</time></trkpt><trkpt lat="44.530685" lon="34.032806"><ele>763.3</ele><time>2011-10-11T13:59:22.0000000+00:00</time></trkpt><trkpt lat="44.530685" lon="34.032806"><ele>763.3</ele><time>2011-10-11T13:59:27.0000000+00:00</time></trkpt><trkpt lat="44.530685" lon="34.03281"><ele>763.3</ele><time>2011-10-11T13:59:32.0000000+00:00</time></trkpt><trkpt lat="44.530685" lon="34.03281"><ele>763.3</ele><time>2011-10-11T13:59:37.0000000+00:00</time></trkpt><trkpt lat="44.530685" lon="34.03281"><ele>763.3</ele><time>2011-10-11T13:59:42.0000000+00:00</time></trkpt><trkpt lat="44.530685" lon="34.03281"><ele>763.3</ele><time>2011-10-11T13:59:47.0000000+00:00</time></trkpt><trkpt lat="44.530685" lon="34.03281"><ele>763.3</ele><time>2011-10-11T13:59:52.0000000+00:00</time></trkpt><trkpt lat="44.530685" lon="34.03281"><ele>763.3</ele><time>2011-10-11T13:59:57.0000000+00:00</time></trkpt><trkpt lat="44.530685" lon="34.032806"><ele>763.2</ele><time>2011-10-11T14:00:02.0000000+00:00</time></trkpt><trkpt lat="44.530689" lon="34.032803"><ele>763.1</ele><time>2011-10-11T14:00:07.0000000+00:00</time></trkpt><trkpt lat="44.530682" lon="34.032806"><ele>763.3</ele><time>2011-10-11T14:00:12.0000000+00:00</time></trkpt><trkpt lat="44.530685" lon="34.03281"><ele>763.3</ele><time>2011-10-11T14:00:17.0000000+00:00</time></trkpt><trkpt lat="44.530685" lon="34.03281"><ele>763.2</ele><time>2011-10-11T14:00:22.0000000+00:00</time></trkpt><trkpt lat="44.530693" lon="34.032795"><ele>762.7</ele><time>2011-10-11T14:00:27.0000000+00:00</time></trkpt><trkpt lat="44.530746" lon="34.03273"><ele>761.4</ele><time>2011-10-11T14:00:32.0000000+00:00</time></trkpt><trkpt lat="44.530785" lon="34.0327"><ele>761.7</ele><time>2011-10-11T14:00:37.0000000+00:00</time></trkpt><trkpt lat="44.530827" lon="34.032681"><ele>761.6</ele><time>2011-10-11T14:00:42.0000000+00:00</time></trkpt><trkpt lat="44.530834" lon="34.032684"><ele>761.5</ele><time>2011-10-11T14:00:47.0000000+00:00</time></trkpt><trkpt lat="44.530865" lon="34.032692"><ele>762.0</ele><time>2011-10-11T14:00:52.0000000+00:00</time></trkpt><trkpt lat="44.530899" lon="34.032688"><ele>762.6</ele><time>2011-10-11T14:00:57.0000000+00:00</time></trkpt><trkpt lat="44.530952" lon="34.03265"><ele>763.3</ele><time>2011-10-11T14:01:02.0000000+00:00</time></trkpt><trkpt lat="44.530987" lon="34.032623"><ele>764.1</ele><time>2011-10-11T14:01:07.0000000+00:00</time></trkpt><trkpt lat="44.531029" lon="34.032585"><ele>764.9</ele><time>2011-10-11T14:01:12.0000000+00:00</time></trkpt><trkpt lat="44.531086" lon="34.032539"><ele>766.4</ele><time>2011-10-11T14:01:17.0000000+00:00</time></trkpt><trkpt lat="44.531109" lon="34.032539"><ele>767.3</ele><time>2011-10-11T14:01:22.0000000+00:00</time></trkpt><trkpt lat="44.531139" lon="34.03252"><ele>768.6</ele><time>2011-10-11T14:01:27.0000000+00:00</time></trkpt><trkpt lat="44.531151" lon="34.032516"><ele>769.4</ele><time>2011-10-11T14:01:32.0000000+00:00</time></trkpt><trkpt lat="44.531174" lon="34.032471"><ele>770.1</ele><time>2011-10-11T14:01:37.0000000+00:00</time></trkpt><trkpt lat="44.531197" lon="34.032436"><ele>770.8</ele><time>2011-10-11T14:01:42.0000000+00:00</time></trkpt><trkpt lat="44.531242" lon="34.03236"><ele>771.7</ele><time>2011-10-11T14:01:47.0000000+00:00</time></trkpt><trkpt lat="44.531261" lon="34.032314"><ele>772.2</ele><time>2011-10-11T14:01:52.0000000+00:00</time></trkpt><trkpt lat="44.531303" lon="34.032249"><ele>773.0</ele><time>2011-10-11T14:01:57.0000000+00:00</time></trkpt><trkpt lat="44.531338" lon="34.032185"><ele>773.6</ele><time>2011-10-11T14:02:02.0000000+00:00</time></trkpt><trkpt lat="44.531372" lon="34.032146"><ele>775.0</ele><time>2011-10-11T14:02:07.0000000+00:00</time></trkpt><trkpt lat="44.531391" lon="34.03212"><ele>776.1</ele><time>2011-10-11T14:02:12.0000000+00:00</time></trkpt><trkpt lat="44.531399" lon="34.032078"><ele>777.5</ele><time>2011-10-11T14:02:17.0000000+00:00</time></trkpt><trkpt lat="44.531437" lon="34.032074"><ele>778.1</ele><time>2011-10-11T14:02:22.0000000+00:00</time></trkpt><trkpt lat="44.531467" lon="34.03207"><ele>779.3</ele><time>2011-10-11T14:02:27.0000000+00:00</time></trkpt><trkpt lat="44.53149" lon="34.032066"><ele>780.7</ele><time>2011-10-11T14:02:32.0000000+00:00</time></trkpt><trkpt lat="44.531487" lon="34.032066"><ele>782.2</ele><time>2011-10-11T14:02:37.0000000+00:00</time></trkpt><trkpt lat="44.531502" lon="34.032085"><ele>783.7</ele><time>2011-10-11T14:02:42.0000000+00:00</time></trkpt><trkpt lat="44.531521" lon="34.03212"><ele>785.6</ele><time>2011-10-11T14:02:47.0000000+00:00</time></trkpt><trkpt lat="44.531555" lon="34.032108"><ele>786.8</ele><time>2011-10-11T14:02:52.0000000+00:00</time></trkpt><trkpt lat="44.531555" lon="34.032078"><ele>788.3</ele><time>2011-10-11T14:02:57.0000000+00:00</time></trkpt><trkpt lat="44.531532" lon="34.032005"><ele>789.3</ele><time>2011-10-11T14:03:02.0000000+00:00</time></trkpt><trkpt lat="44.53154" lon="34.031952"><ele>790.9</ele><time>2011-10-11T14:03:07.0000000+00:00</time></trkpt><trkpt lat="44.531563" lon="34.031929"><ele>792.7</ele><time>2011-10-11T14:03:12.0000000+00:00</time></trkpt><trkpt lat="44.531597" lon="34.031895"><ele>794.7</ele><time>2011-10-11T14:03:17.0000000+00:00</time></trkpt><trkpt lat="44.531605" lon="34.031857"><ele>796.6</ele><time>2011-10-11T14:03:22.0000000+00:00</time></trkpt><trkpt lat="44.53162" lon="34.031792"><ele>797.8</ele><time>2011-10-11T14:03:27.0000000+00:00</time></trkpt><trkpt lat="44.531666" lon="34.031754"><ele>798.7</ele><time>2011-10-11T14:03:32.0000000+00:00</time></trkpt><trkpt lat="44.531693" lon="34.031708"><ele>799.1</ele><time>2011-10-11T14:03:37.0000000+00:00</time></trkpt><trkpt lat="44.531727" lon="34.03167"><ele>800.0</ele><time>2011-10-11T14:03:42.0000000+00:00</time></trkpt><trkpt lat="44.531773" lon="34.031593"><ele>801.6</ele><time>2011-10-11T14:03:47.0000000+00:00</time></trkpt><trkpt lat="44.531818" lon="34.031582"><ele>802.9</ele><time>2011-10-11T14:03:52.0000000+00:00</time></trkpt><trkpt lat="44.53186" lon="34.031536"><ele>804.4</ele><time>2011-10-11T14:03:57.0000000+00:00</time></trkpt><trkpt lat="44.531921" lon="34.031521"><ele>804.9</ele><time>2011-10-11T14:04:02.0000000+00:00</time></trkpt><trkpt lat="44.531956" lon="34.031563"><ele>806.6</ele><time>2011-10-11T14:04:07.0000000+00:00</time></trkpt><trkpt lat="44.531994" lon="34.031536"><ele>808.0</ele><time>2011-10-11T14:04:12.0000000+00:00</time></trkpt><trkpt lat="44.532013" lon="34.031502"><ele>809.2</ele><time>2011-10-11T14:04:17.0000000+00:00</time></trkpt><trkpt lat="44.532028" lon="34.031498"><ele>809.6</ele><time>2011-10-11T14:04:22.0000000+00:00</time></trkpt><trkpt lat="44.532104" lon="34.031513"><ele>810.7</ele><time>2011-10-11T14:04:27.0000000+00:00</time></trkpt><trkpt lat="44.532139" lon="34.031506"><ele>811.5</ele><time>2011-10-11T14:04:32.0000000+00:00</time></trkpt><trkpt lat="44.532158" lon="34.031483"><ele>812.1</ele><time>2011-10-11T14:04:37.0000000+00:00</time></trkpt><trkpt lat="44.532181" lon="34.031479"><ele>812.5</ele><time>2011-10-11T14:04:42.0000000+00:00</time></trkpt><trkpt lat="44.532207" lon="34.031433"><ele>812.8</ele><time>2011-10-11T14:04:47.0000000+00:00</time></trkpt><trkpt lat="44.532265" lon="34.031384"><ele>813.1</ele><time>2011-10-11T14:04:52.0000000+00:00</time></trkpt><trkpt lat="44.532318" lon="34.031338"><ele>813.8</ele><time>2011-10-11T14:04:57.0000000+00:00</time></trkpt><trkpt lat="44.532356" lon="34.031254"><ele>814.5</ele><time>2011-10-11T14:05:02.0000000+00:00</time></trkpt><trkpt lat="44.532406" lon="34.0312"><ele>815.5</ele><time>2011-10-11T14:05:07.0000000+00:00</time></trkpt><trkpt lat="44.532448" lon="34.03117"><ele>816.5</ele><time>2011-10-11T14:05:12.0000000+00:00</time></trkpt><trkpt lat="44.532482" lon="34.031151"><ele>817.5</ele><time>2011-10-11T14:05:17.0000000+00:00</time></trkpt><trkpt lat="44.532497" lon="34.031105"><ele>818.6</ele><time>2011-10-11T14:05:22.0000000+00:00</time></trkpt><trkpt lat="44.532547" lon="34.031055"><ele>819.6</ele><time>2011-10-11T14:05:27.0000000+00:00</time></trkpt><trkpt lat="44.5326" lon="34.031013"><ele>819.9</ele><time>2011-10-11T14:05:32.0000000+00:00</time></trkpt><trkpt lat="44.532623" lon="34.030949"><ele>820.0</ele><time>2011-10-11T14:05:37.0000000+00:00</time></trkpt><trkpt lat="44.532665" lon="34.030949"><ele>820.7</ele><time>2011-10-11T14:05:42.0000000+00:00</time></trkpt><trkpt lat="44.532715" lon="34.030899"><ele>821.6</ele><time>2011-10-11T14:05:47.0000000+00:00</time></trkpt><trkpt lat="44.532745" lon="34.03091"><ele>822.9</ele><time>2011-10-11T14:05:52.0000000+00:00</time></trkpt><trkpt lat="44.532787" lon="34.03093"><ele>824.3</ele><time>2011-10-11T14:05:57.0000000+00:00</time></trkpt><trkpt lat="44.532837" lon="34.030937"><ele>825.9</ele><time>2011-10-11T14:06:02.0000000+00:00</time></trkpt><trkpt lat="44.532867" lon="34.030972"><ele>826.9</ele><time>2011-10-11T14:06:07.0000000+00:00</time></trkpt><trkpt lat="44.53294" lon="34.030983"><ele>828.1</ele><time>2011-10-11T14:06:12.0000000+00:00</time></trkpt><trkpt lat="44.53299" lon="34.030968"><ele>829.1</ele><time>2011-10-11T14:06:17.0000000+00:00</time></trkpt><trkpt lat="44.533039" lon="34.030956"><ele>830.2</ele><time>2011-10-11T14:06:22.0000000+00:00</time></trkpt><trkpt lat="44.53307" lon="34.030968"><ele>831.5</ele><time>2011-10-11T14:06:27.0000000+00:00</time></trkpt><trkpt lat="44.533104" lon="34.030987"><ele>833.4</ele><time>2011-10-11T14:06:32.0000000+00:00</time></trkpt><trkpt lat="44.533134" lon="34.030994"><ele>835.0</ele><time>2011-10-11T14:06:37.0000000+00:00</time></trkpt><trkpt lat="44.533134" lon="34.030975"><ele>835.2</ele><time>2011-10-11T14:06:42.0000000+00:00</time></trkpt><trkpt lat="44.533131" lon="34.030937"><ele>835.5</ele><time>2011-10-11T14:06:47.0000000+00:00</time></trkpt><trkpt lat="44.533161" lon="34.030945"><ele>835.8</ele><time>2011-10-11T14:06:52.0000000+00:00</time></trkpt><trkpt lat="44.533222" lon="34.030895"><ele>837.2</ele><time>2011-10-11T14:06:57.0000000+00:00</time></trkpt><trkpt lat="44.533272" lon="34.030899"><ele>837.8</ele><time>2011-10-11T14:07:02.0000000+00:00</time></trkpt><trkpt lat="44.533291" lon="34.030876"><ele>838.3</ele><time>2011-10-11T14:07:07.0000000+00:00</time></trkpt><trkpt lat="44.533283" lon="34.03083"><ele>839.1</ele><time>2011-10-11T14:07:12.0000000+00:00</time></trkpt><trkpt lat="44.533283" lon="34.030823"><ele>838.7</ele><time>2011-10-11T14:07:17.0000000+00:00</time></trkpt><trkpt lat="44.53331" lon="34.030788"><ele>838.3</ele><time>2011-10-11T14:07:22.0000000+00:00</time></trkpt><trkpt lat="44.533371" lon="34.030796"><ele>839.9</ele><time>2011-10-11T14:07:27.0000000+00:00</time></trkpt><trkpt lat="44.533421" lon="34.030788"><ele>840.7</ele><time>2011-10-11T14:07:32.0000000+00:00</time></trkpt><trkpt lat="44.533463" lon="34.030766"><ele>841.7</ele><time>2011-10-11T14:07:37.0000000+00:00</time></trkpt><trkpt lat="44.533478" lon="34.030766"><ele>840.6</ele><time>2011-10-11T14:07:42.0000000+00:00</time></trkpt><trkpt lat="44.533512" lon="34.030735"><ele>841.1</ele><time>2011-10-11T14:07:47.0000000+00:00</time></trkpt><trkpt lat="44.533566" lon="34.030682"><ele>842.6</ele><time>2011-10-11T14:07:52.0000000+00:00</time></trkpt><trkpt lat="44.533615" lon="34.030663"><ele>843.9</ele><time>2011-10-11T14:07:57.0000000+00:00</time></trkpt><trkpt lat="44.533649" lon="34.030647"><ele>844.6</ele><time>2011-10-11T14:08:02.0000000+00:00</time></trkpt><trkpt lat="44.533691" lon="34.030609"><ele>845.8</ele><time>2011-10-11T14:08:07.0000000+00:00</time></trkpt><trkpt lat="44.533703" lon="34.030571"><ele>846.3</ele><time>2011-10-11T14:08:12.0000000+00:00</time></trkpt><trkpt lat="44.533726" lon="34.030537"><ele>847.0</ele><time>2011-10-11T14:08:17.0000000+00:00</time></trkpt><trkpt lat="44.533775" lon="34.030506"><ele>848.3</ele><time>2011-10-11T14:08:22.0000000+00:00</time></trkpt><trkpt lat="44.53384" lon="34.030479"><ele>849.5</ele><time>2011-10-11T14:08:27.0000000+00:00</time></trkpt><trkpt lat="44.533886" lon="34.030476"><ele>851.1</ele><time>2011-10-11T14:08:32.0000000+00:00</time></trkpt><trkpt lat="44.533924" lon="34.030468"><ele>851.5</ele><time>2011-10-11T14:08:37.0000000+00:00</time></trkpt><trkpt lat="44.533939" lon="34.03051"><ele>852.3</ele><time>2011-10-11T14:08:42.0000000+00:00</time></trkpt><trkpt lat="44.533955" lon="34.030567"><ele>853.1</ele><time>2011-10-11T14:08:47.0000000+00:00</time></trkpt><trkpt lat="44.533981" lon="34.030624"><ele>853.8</ele><time>2011-10-11T14:08:52.0000000+00:00</time></trkpt><trkpt lat="44.534012" lon="34.030674"><ele>854.1</ele><time>2011-10-11T14:08:57.0000000+00:00</time></trkpt><trkpt lat="44.534016" lon="34.030724"><ele>855.1</ele><time>2011-10-11T14:09:02.0000000+00:00</time></trkpt><trkpt lat="44.534054" lon="34.030746"><ele>856.6</ele><time>2011-10-11T14:09:07.0000000+00:00</time></trkpt><trkpt lat="44.534088" lon="34.030785"><ele>857.3</ele><time>2011-10-11T14:09:12.0000000+00:00</time></trkpt><trkpt lat="44.534138" lon="34.030823"><ele>858.2</ele><time>2011-10-11T14:09:17.0000000+00:00</time></trkpt><trkpt lat="44.534191" lon="34.030853"><ele>859.1</ele><time>2011-10-11T14:09:22.0000000+00:00</time></trkpt><trkpt lat="44.534206" lon="34.03091"><ele>860.4</ele><time>2011-10-11T14:09:27.0000000+00:00</time></trkpt><trkpt lat="44.534245" lon="34.030972"><ele>861.2</ele><time>2011-10-11T14:09:32.0000000+00:00</time></trkpt><trkpt lat="44.534286" lon="34.031036"><ele>861.8</ele><time>2011-10-11T14:09:37.0000000+00:00</time></trkpt><trkpt lat="44.53434" lon="34.031105"><ele>862.8</ele><time>2011-10-11T14:09:42.0000000+00:00</time></trkpt><trkpt lat="44.534389" lon="34.031155"><ele>863.6</ele><time>2011-10-11T14:09:47.0000000+00:00</time></trkpt><trkpt lat="44.534439" lon="34.031216"><ele>864.9</ele><time>2011-10-11T14:09:52.0000000+00:00</time></trkpt><trkpt lat="44.534473" lon="34.031261"><ele>866.2</ele><time>2011-10-11T14:09:57.0000000+00:00</time></trkpt><trkpt lat="44.534504" lon="34.031322"><ele>868.0</ele><time>2011-10-11T14:10:02.0000000+00:00</time></trkpt><trkpt lat="44.53455" lon="34.031406"><ele>869.8</ele><time>2011-10-11T14:10:07.0000000+00:00</time></trkpt><trkpt lat="44.53458" lon="34.031479"><ele>871.3</ele><time>2011-10-11T14:10:12.0000000+00:00</time></trkpt><trkpt lat="44.534645" lon="34.031551"><ele>873.3</ele><time>2011-10-11T14:10:17.0000000+00:00</time></trkpt><trkpt lat="44.534714" lon="34.03162"><ele>874.9</ele><time>2011-10-11T14:10:22.0000000+00:00</time></trkpt><trkpt lat="44.534782" lon="34.031673"><ele>875.8</ele><time>2011-10-11T14:10:27.0000000+00:00</time></trkpt><trkpt lat="44.53484" lon="34.031696"><ele>876.9</ele><time>2011-10-11T14:10:32.0000000+00:00</time></trkpt><trkpt lat="44.534912" lon="34.031738"><ele>877.7</ele><time>2011-10-11T14:10:37.0000000+00:00</time></trkpt><trkpt lat="44.534946" lon="34.031761"><ele>878.6</ele><time>2011-10-11T14:10:42.0000000+00:00</time></trkpt><trkpt lat="44.534988" lon="34.031788"><ele>879.2</ele><time>2011-10-11T14:10:47.0000000+00:00</time></trkpt><trkpt lat="44.535061" lon="34.03183"><ele>879.4</ele><time>2011-10-11T14:10:52.0000000+00:00</time></trkpt><trkpt lat="44.535107" lon="34.031887"><ele>880.9</ele><time>2011-10-11T14:10:57.0000000+00:00</time></trkpt><trkpt lat="44.535141" lon="34.031933"><ele>879.5</ele><time>2011-10-11T14:11:02.0000000+00:00</time></trkpt><trkpt lat="44.535172" lon="34.031918"><ele>878.0</ele><time>2011-10-11T14:11:07.0000000+00:00</time></trkpt><trkpt lat="44.535213" lon="34.031918"><ele>877.1</ele><time>2011-10-11T14:11:12.0000000+00:00</time></trkpt><trkpt lat="44.535259" lon="34.031918"><ele>875.9</ele><time>2011-10-11T14:11:17.0000000+00:00</time></trkpt><trkpt lat="44.535324" lon="34.031921"><ele>875.8</ele><time>2011-10-11T14:11:22.0000000+00:00</time></trkpt><trkpt lat="44.535374" lon="34.031933"><ele>875.9</ele><time>2011-10-11T14:11:27.0000000+00:00</time></trkpt><trkpt lat="44.535431" lon="34.031906"><ele>875.1</ele><time>2011-10-11T14:11:32.0000000+00:00</time></trkpt><trkpt lat="44.535484" lon="34.031918"><ele>873.1</ele><time>2011-10-11T14:11:37.0000000+00:00</time></trkpt><trkpt lat="44.535534" lon="34.031925"><ele>870.9</ele><time>2011-10-11T14:11:42.0000000+00:00</time></trkpt><trkpt lat="44.535557" lon="34.031918"><ele>869.2</ele><time>2011-10-11T14:11:47.0000000+00:00</time></trkpt><trkpt lat="44.535576" lon="34.031898"><ele>868.7</ele><time>2011-10-11T14:11:52.0000000+00:00</time></trkpt><trkpt lat="44.535622" lon="34.03186"><ele>869.0</ele><time>2011-10-11T14:11:57.0000000+00:00</time></trkpt><trkpt lat="44.535641" lon="34.031837"><ele>867.1</ele><time>2011-10-11T14:12:02.0000000+00:00</time></trkpt><trkpt lat="44.535664" lon="34.031803"><ele>865.2</ele><time>2011-10-11T14:12:07.0000000+00:00</time></trkpt><trkpt lat="44.535698" lon="34.031731"><ele>863.6</ele><time>2011-10-11T14:12:12.0000000+00:00</time></trkpt><trkpt lat="44.535736" lon="34.031677"><ele>862.6</ele><time>2011-10-11T14:12:17.0000000+00:00</time></trkpt><trkpt lat="44.535767" lon="34.031647"><ele>862.6</ele><time>2011-10-11T14:12:22.0000000+00:00</time></trkpt><trkpt lat="44.53582" lon="34.031601"><ele>861.1</ele><time>2011-10-11T14:12:27.0000000+00:00</time></trkpt><trkpt lat="44.535877" lon="34.03154"><ele>859.6</ele><time>2011-10-11T14:12:32.0000000+00:00</time></trkpt><trkpt lat="44.535908" lon="34.031521"><ele>858.0</ele><time>2011-10-11T14:12:37.0000000+00:00</time></trkpt><trkpt lat="44.535912" lon="34.031483"><ele>857.4</ele><time>2011-10-11T14:12:42.0000000+00:00</time></trkpt><trkpt lat="44.535919" lon="34.03146"><ele>856.9</ele><time>2011-10-11T14:12:47.0000000+00:00</time></trkpt><trkpt lat="44.535915" lon="34.031391"><ele>855.9</ele><time>2011-10-11T14:12:52.0000000+00:00</time></trkpt><trkpt lat="44.535915" lon="34.031361"><ele>853.1</ele><time>2011-10-11T14:12:57.0000000+00:00</time></trkpt><trkpt lat="44.535927" lon="34.031303"><ele>851.0</ele><time>2011-10-11T14:13:02.0000000+00:00</time></trkpt><trkpt lat="44.535931" lon="34.031254"><ele>850.2</ele><time>2011-10-11T14:13:07.0000000+00:00</time></trkpt><trkpt lat="44.535934" lon="34.031204"><ele>849.1</ele><time>2011-10-11T14:13:12.0000000+00:00</time></trkpt><trkpt lat="44.535961" lon="34.031151"><ele>847.8</ele><time>2011-10-11T14:13:17.0000000+00:00</time></trkpt><trkpt lat="44.535957" lon="34.031105"><ele>846.8</ele><time>2011-10-11T14:13:22.0000000+00:00</time></trkpt><trkpt lat="44.535954" lon="34.031044"><ele>844.8</ele><time>2011-10-11T14:13:27.0000000+00:00</time></trkpt><trkpt lat="44.535969" lon="34.031036"><ele>843.6</ele><time>2011-10-11T14:13:32.0000000+00:00</time></trkpt><trkpt lat="44.535965" lon="34.030972"><ele>841.8</ele><time>2011-10-11T14:13:37.0000000+00:00</time></trkpt><trkpt lat="44.535954" lon="34.031006"><ele>840.5</ele><time>2011-10-11T14:13:42.0000000+00:00</time></trkpt><trkpt lat="44.535969" lon="34.030979"><ele>839.7</ele><time>2011-10-11T14:13:47.0000000+00:00</time></trkpt><trkpt lat="44.535976" lon="34.030941"><ele>838.2</ele><time>2011-10-11T14:13:52.0000000+00:00</time></trkpt><trkpt lat="44.535973" lon="34.030952"><ele>836.7</ele><time>2011-10-11T14:13:57.0000000+00:00</time></trkpt><trkpt lat="44.535973" lon="34.030922"><ele>836.2</ele><time>2011-10-11T14:14:02.0000000+00:00</time></trkpt><trkpt lat="44.536007" lon="34.03091"><ele>836.0</ele><time>2011-10-11T14:14:07.0000000+00:00</time></trkpt><trkpt lat="44.536011" lon="34.030907"><ele>835.9</ele><time>2011-10-11T14:14:12.0000000+00:00</time></trkpt><trkpt lat="44.536037" lon="34.03093"><ele>834.9</ele><time>2011-10-11T14:14:17.0000000+00:00</time></trkpt><trkpt lat="44.536053" lon="34.030941"><ele>833.3</ele><time>2011-10-11T14:14:22.0000000+00:00</time></trkpt><trkpt lat="44.536083" lon="34.03091"><ele>831.4</ele><time>2011-10-11T14:14:27.0000000+00:00</time></trkpt><trkpt lat="44.536102" lon="34.030895"><ele>831.3</ele><time>2011-10-11T14:14:32.0000000+00:00</time></trkpt><trkpt lat="44.536102" lon="34.030869"><ele>830.2</ele><time>2011-10-11T14:14:37.0000000+00:00</time></trkpt><trkpt lat="44.536106" lon="34.030857"><ele>830.1</ele><time>2011-10-11T14:14:42.0000000+00:00</time></trkpt><trkpt lat="44.536118" lon="34.030807"><ele>829.5</ele><time>2011-10-11T14:14:47.0000000+00:00</time></trkpt><trkpt lat="44.53614" lon="34.030762"><ele>829.1</ele><time>2011-10-11T14:14:52.0000000+00:00</time></trkpt><trkpt lat="44.536125" lon="34.030724"><ele>829.0</ele><time>2011-10-11T14:14:57.0000000+00:00</time></trkpt><trkpt lat="44.53611" lon="34.030689"><ele>828.5</ele><time>2011-10-11T14:15:02.0000000+00:00</time></trkpt><trkpt lat="44.536125" lon="34.030666"><ele>828.1</ele><time>2011-10-11T14:15:07.0000000+00:00</time></trkpt><trkpt lat="44.536179" lon="34.030617"><ele>827.6</ele><time>2011-10-11T14:15:12.0000000+00:00</time></trkpt><trkpt lat="44.536217" lon="34.030575"><ele>827.2</ele><time>2011-10-11T14:15:17.0000000+00:00</time></trkpt><trkpt lat="44.53624" lon="34.030552"><ele>826.6</ele><time>2011-10-11T14:15:22.0000000+00:00</time></trkpt><trkpt lat="44.536274" lon="34.030537"><ele>825.6</ele><time>2011-10-11T14:15:27.0000000+00:00</time></trkpt><trkpt lat="44.536346" lon="34.030476"><ele>824.7</ele><time>2011-10-11T14:15:32.0000000+00:00</time></trkpt><trkpt lat="44.5364" lon="34.030476"><ele>824.3</ele><time>2011-10-11T14:15:37.0000000+00:00</time></trkpt><trkpt lat="44.536427" lon="34.030476"><ele>823.9</ele><time>2011-10-11T14:15:42.0000000+00:00</time></trkpt><trkpt lat="44.536446" lon="34.03046"><ele>823.4</ele><time>2011-10-11T14:15:47.0000000+00:00</time></trkpt><trkpt lat="44.53648" lon="34.030434"><ele>823.4</ele><time>2011-10-11T14:15:52.0000000+00:00</time></trkpt><trkpt lat="44.536499" lon="34.030403"><ele>823.3</ele><time>2011-10-11T14:15:57.0000000+00:00</time></trkpt><trkpt lat="44.536526" lon="34.030396"><ele>822.6</ele><time>2011-10-11T14:16:02.0000000+00:00</time></trkpt><trkpt lat="44.536564" lon="34.030369"><ele>821.9</ele><time>2011-10-11T14:16:07.0000000+00:00</time></trkpt><trkpt lat="44.536621" lon="34.030327"><ele>820.9</ele><time>2011-10-11T14:16:12.0000000+00:00</time></trkpt><trkpt lat="44.536686" lon="34.030308"><ele>819.2</ele><time>2011-10-11T14:16:17.0000000+00:00</time></trkpt><trkpt lat="44.536732" lon="34.030231"><ele>818.0</ele><time>2011-10-11T14:16:22.0000000+00:00</time></trkpt><trkpt lat="44.536777" lon="34.030182"><ele>817.7</ele><time>2011-10-11T14:16:27.0000000+00:00</time></trkpt><trkpt lat="44.536819" lon="34.030148"><ele>817.4</ele><time>2011-10-11T14:16:32.0000000+00:00</time></trkpt><trkpt lat="44.536858" lon="34.030136"><ele>817.0</ele><time>2011-10-11T14:16:37.0000000+00:00</time></trkpt><trkpt lat="44.536945" lon="34.030087"><ele>816.3</ele><time>2011-10-11T14:16:42.0000000+00:00</time></trkpt><trkpt lat="44.537006" lon="34.030079"><ele>815.7</ele><time>2011-10-11T14:16:47.0000000+00:00</time></trkpt><trkpt lat="44.53706" lon="34.030071"><ele>815.3</ele><time>2011-10-11T14:16:52.0000000+00:00</time></trkpt><trkpt lat="44.537106" lon="34.030079"><ele>814.6</ele><time>2011-10-11T14:16:57.0000000+00:00</time></trkpt><trkpt lat="44.537151" lon="34.030071"><ele>813.6</ele><time>2011-10-11T14:17:02.0000000+00:00</time></trkpt><trkpt lat="44.537197" lon="34.030041"><ele>812.2</ele><time>2011-10-11T14:17:07.0000000+00:00</time></trkpt><trkpt lat="44.537235" lon="34.030048"><ele>810.1</ele><time>2011-10-11T14:17:12.0000000+00:00</time></trkpt><trkpt lat="44.537258" lon="34.030022"><ele>808.1</ele><time>2011-10-11T14:17:17.0000000+00:00</time></trkpt><trkpt lat="44.537323" lon="34.029934"><ele>805.4</ele><time>2011-10-11T14:17:22.0000000+00:00</time></trkpt><trkpt lat="44.537357" lon="34.029915"><ele>803.9</ele><time>2011-10-11T14:17:27.0000000+00:00</time></trkpt><trkpt lat="44.537365" lon="34.029877"><ele>803.2</ele><time>2011-10-11T14:17:32.0000000+00:00</time></trkpt><trkpt lat="44.537407" lon="34.029865"><ele>802.3</ele><time>2011-10-11T14:17:37.0000000+00:00</time></trkpt><trkpt lat="44.537449" lon="34.029804"><ele>801.0</ele><time>2011-10-11T14:17:42.0000000+00:00</time></trkpt><trkpt lat="44.537502" lon="34.029797"><ele>799.8</ele><time>2011-10-11T14:17:47.0000000+00:00</time></trkpt><trkpt lat="44.537544" lon="34.029854"><ele>798.3</ele><time>2011-10-11T14:17:52.0000000+00:00</time></trkpt><trkpt lat="44.537617" lon="34.029896"><ele>795.3</ele><time>2011-10-11T14:17:57.0000000+00:00</time></trkpt><trkpt lat="44.537685" lon="34.029835"><ele>793.5</ele><time>2011-10-11T14:18:02.0000000+00:00</time></trkpt><trkpt lat="44.537685" lon="34.029751"><ele>790.8</ele><time>2011-10-11T14:18:07.0000000+00:00</time></trkpt><trkpt lat="44.537693" lon="34.029675"><ele>787.8</ele><time>2011-10-11T14:18:12.0000000+00:00</time></trkpt><trkpt lat="44.537689" lon="34.029579"><ele>785.2</ele><time>2011-10-11T14:18:17.0000000+00:00</time></trkpt><trkpt lat="44.537682" lon="34.029457"><ele>784.7</ele><time>2011-10-11T14:18:22.0000000+00:00</time></trkpt><trkpt lat="44.537685" lon="34.029392"><ele>780.4</ele><time>2011-10-11T14:18:27.0000000+00:00</time></trkpt><trkpt lat="44.537727" lon="34.029358"><ele>775.2</ele><time>2011-10-11T14:18:32.0000000+00:00</time></trkpt><trkpt lat="44.537727" lon="34.029316"><ele>773.3</ele><time>2011-10-11T14:18:37.0000000+00:00</time></trkpt><trkpt lat="44.537724" lon="34.029316"><ele>773.0</ele><time>2011-10-11T14:18:42.0000000+00:00</time></trkpt><trkpt lat="44.537716" lon="34.029289"><ele>772.9</ele><time>2011-10-11T14:18:47.0000000+00:00</time></trkpt><trkpt lat="44.537708" lon="34.029251"><ele>771.9</ele><time>2011-10-11T14:18:52.0000000+00:00</time></trkpt><trkpt lat="44.537731" lon="34.029224"><ele>771.7</ele><time>2011-10-11T14:18:57.0000000+00:00</time></trkpt><trkpt lat="44.537701" lon="34.029064"><ele>770.4</ele><time>2011-10-11T14:19:02.0000000+00:00</time></trkpt><trkpt lat="44.537727" lon="34.028915"><ele>768.6</ele><time>2011-10-11T14:19:07.0000000+00:00</time></trkpt><trkpt lat="44.537746" lon="34.028824"><ele>767.0</ele><time>2011-10-11T14:19:12.0000000+00:00</time></trkpt><trkpt lat="44.537758" lon="34.02874"><ele>764.6</ele><time>2011-10-11T14:19:17.0000000+00:00</time></trkpt><trkpt lat="44.537754" lon="34.028648"><ele>760.5</ele><time>2011-10-11T14:19:22.0000000+00:00</time></trkpt><trkpt lat="44.537739" lon="34.028572"><ele>758.4</ele><time>2011-10-11T14:19:27.0000000+00:00</time></trkpt><trkpt lat="44.537689" lon="34.028519"><ele>756.8</ele><time>2011-10-11T14:19:32.0000000+00:00</time></trkpt><trkpt lat="44.537701" lon="34.028477"><ele>755.3</ele><time>2011-10-11T14:19:37.0000000+00:00</time></trkpt><trkpt lat="44.537716" lon="34.028431"><ele>755.5</ele><time>2011-10-11T14:19:42.0000000+00:00</time></trkpt><trkpt lat="44.537712" lon="34.028435"><ele>755.4</ele><time>2011-10-11T14:19:47.0000000+00:00</time></trkpt><trkpt lat="44.537704" lon="34.028435"><ele>755.4</ele><time>2011-10-11T14:19:52.0000000+00:00</time></trkpt><trkpt lat="44.537697" lon="34.028435"><ele>755.4</ele><time>2011-10-11T14:19:57.0000000+00:00</time></trkpt><trkpt lat="44.537689" lon="34.028435"><ele>755.4</ele><time>2011-10-11T14:20:02.0000000+00:00</time></trkpt><trkpt lat="44.537685" lon="34.028435"><ele>755.4</ele><time>2011-10-11T14:20:07.0000000+00:00</time></trkpt><trkpt lat="44.537685" lon="34.028431"><ele>755.4</ele><time>2011-10-11T14:20:12.0000000+00:00</time></trkpt><trkpt lat="44.537693" lon="34.028431"><ele>755.4</ele><time>2011-10-11T14:20:17.0000000+00:00</time></trkpt><trkpt lat="44.537693" lon="34.028427"><ele>755.4</ele><time>2011-10-11T14:20:22.0000000+00:00</time></trkpt><trkpt lat="44.537697" lon="34.028423"><ele>755.3</ele><time>2011-10-11T14:20:27.0000000+00:00</time></trkpt><trkpt lat="44.537693" lon="34.028419"><ele>755.3</ele><time>2011-10-11T14:20:32.0000000+00:00</time></trkpt><trkpt lat="44.537689" lon="34.028412"><ele>755.4</ele><time>2011-10-11T14:20:37.0000000+00:00</time></trkpt><trkpt lat="44.537689" lon="34.028408"><ele>755.3</ele><time>2011-10-11T14:20:42.0000000+00:00</time></trkpt><trkpt lat="44.537685" lon="34.028412"><ele>755.6</ele><time>2011-10-11T14:20:47.0000000+00:00</time></trkpt><trkpt lat="44.537697" lon="34.028423"><ele>755.2</ele><time>2011-10-11T14:20:52.0000000+00:00</time></trkpt><trkpt lat="44.537697" lon="34.028423"><ele>755.3</ele><time>2011-10-11T14:20:57.0000000+00:00</time></trkpt><trkpt lat="44.537693" lon="34.028423"><ele>755.3</ele><time>2011-10-11T14:21:02.0000000+00:00</time></trkpt><trkpt lat="44.537693" lon="34.028423"><ele>755.3</ele><time>2011-10-11T14:21:07.0000000+00:00</time></trkpt><trkpt lat="44.537693" lon="34.028423"><ele>755.3</ele><time>2011-10-11T14:21:12.0000000+00:00</time></trkpt><trkpt lat="44.537689" lon="34.028416"><ele>755.3</ele><time>2011-10-11T14:21:17.0000000+00:00</time></trkpt><trkpt lat="44.537708" lon="34.028366"><ele>756.0</ele><time>2011-10-11T14:21:22.0000000+00:00</time></trkpt><trkpt lat="44.537689" lon="34.028278"><ele>755.9</ele><time>2011-10-11T14:21:27.0000000+00:00</time></trkpt><trkpt lat="44.537632" lon="34.028198"><ele>756.3</ele><time>2011-10-11T14:21:32.0000000+00:00</time></trkpt><trkpt lat="44.537571" lon="34.028152"><ele>756.4</ele><time>2011-10-11T14:21:37.0000000+00:00</time></trkpt><trkpt lat="44.537518" lon="34.02808"><ele>756.7</ele><time>2011-10-11T14:21:42.0000000+00:00</time></trkpt><trkpt lat="44.537514" lon="34.028027"><ele>757.1</ele><time>2011-10-11T14:21:47.0000000+00:00</time></trkpt><trkpt lat="44.537476" lon="34.027969"><ele>758.3</ele><time>2011-10-11T14:21:52.0000000+00:00</time></trkpt><trkpt lat="44.537552" lon="34.02784"><ele>759.6</ele><time>2011-10-11T14:21:57.0000000+00:00</time></trkpt><trkpt lat="44.537487" lon="34.027802"><ele>760.6</ele><time>2011-10-11T14:22:02.0000000+00:00</time></trkpt><trkpt lat="44.537479" lon="34.027737"><ele>761.4</ele><time>2011-10-11T14:22:07.0000000+00:00</time></trkpt><trkpt lat="44.53743" lon="34.027699"><ele>761.7</ele><time>2011-10-11T14:22:12.0000000+00:00</time></trkpt><trkpt lat="44.537411" lon="34.02763"><ele>761.9</ele><time>2011-10-11T14:22:17.0000000+00:00</time></trkpt><trkpt lat="44.537407" lon="34.027554"><ele>762.2</ele><time>2011-10-11T14:22:22.0000000+00:00</time></trkpt><trkpt lat="44.537334" lon="34.027462"><ele>764.4</ele><time>2011-10-11T14:22:27.0000000+00:00</time></trkpt><trkpt lat="44.537266" lon="34.027405"><ele>765.3</ele><time>2011-10-11T14:22:32.0000000+00:00</time></trkpt><trkpt lat="44.537235" lon="34.027355"><ele>765.9</ele><time>2011-10-11T14:22:37.0000000+00:00</time></trkpt><trkpt lat="44.537228" lon="34.027287"><ele>766.9</ele><time>2011-10-11T14:22:42.0000000+00:00</time></trkpt><trkpt lat="44.537167" lon="34.027225"><ele>767.7</ele><time>2011-10-11T14:22:47.0000000+00:00</time></trkpt><trkpt lat="44.537189" lon="34.027149"><ele>769.6</ele><time>2011-10-11T14:22:52.0000000+00:00</time></trkpt><trkpt lat="44.537193" lon="34.027061"><ele>770.4</ele><time>2011-10-11T14:22:57.0000000+00:00</time></trkpt><trkpt lat="44.537186" lon="34.026981"><ele>771.0</ele><time>2011-10-11T14:23:02.0000000+00:00</time></trkpt><trkpt lat="44.537193" lon="34.026897"><ele>773.1</ele><time>2011-10-11T14:23:07.0000000+00:00</time></trkpt><trkpt lat="44.537167" lon="34.026817"><ele>773.8</ele><time>2011-10-11T14:23:12.0000000+00:00</time></trkpt><trkpt lat="44.537193" lon="34.026726"><ele>774.7</ele><time>2011-10-11T14:23:17.0000000+00:00</time></trkpt><trkpt lat="44.537128" lon="34.026691"><ele>775.0</ele><time>2011-10-11T14:23:22.0000000+00:00</time></trkpt><trkpt lat="44.537067" lon="34.026653"><ele>775.7</ele><time>2011-10-11T14:23:27.0000000+00:00</time></trkpt><trkpt lat="44.537029" lon="34.026531"><ele>776.8</ele><time>2011-10-11T14:23:32.0000000+00:00</time></trkpt><trkpt lat="44.536991" lon="34.026432"><ele>777.2</ele><time>2011-10-11T14:23:37.0000000+00:00</time></trkpt><trkpt lat="44.536938" lon="34.026344"><ele>778.0</ele><time>2011-10-11T14:23:42.0000000+00:00</time></trkpt><trkpt lat="44.536922" lon="34.026218"><ele>778.3</ele><time>2011-10-11T14:23:47.0000000+00:00</time></trkpt><trkpt lat="44.536873" lon="34.026108"><ele>777.8</ele><time>2011-10-11T14:23:52.0000000+00:00</time></trkpt><trkpt lat="44.536839" lon="34.025993"><ele>775.3</ele><time>2011-10-11T14:23:57.0000000+00:00</time></trkpt><trkpt lat="44.536774" lon="34.025902"><ele>774.9</ele><time>2011-10-11T14:24:02.0000000+00:00</time></trkpt><trkpt lat="44.536785" lon="34.025799"><ele>775.6</ele><time>2011-10-11T14:24:07.0000000+00:00</time></trkpt><trkpt lat="44.536739" lon="34.025715"><ele>774.8</ele><time>2011-10-11T14:24:12.0000000+00:00</time></trkpt><trkpt lat="44.536709" lon="34.025654"><ele>774.8</ele><time>2011-10-11T14:24:17.0000000+00:00</time></trkpt><trkpt lat="44.536682" lon="34.025574"><ele>774.3</ele><time>2011-10-11T14:24:22.0000000+00:00</time></trkpt><trkpt lat="44.536663" lon="34.025543"><ele>773.9</ele><time>2011-10-11T14:24:27.0000000+00:00</time></trkpt><trkpt lat="44.536629" lon="34.025501"><ele>772.4</ele><time>2011-10-11T14:24:32.0000000+00:00</time></trkpt><trkpt lat="44.53661" lon="34.025436"><ele>772.1</ele><time>2011-10-11T14:24:37.0000000+00:00</time></trkpt><trkpt lat="44.536613" lon="34.025341"><ele>769.9</ele><time>2011-10-11T14:24:42.0000000+00:00</time></trkpt><trkpt lat="44.536575" lon="34.02528"><ele>771.2</ele><time>2011-10-11T14:24:47.0000000+00:00</time></trkpt><trkpt lat="44.53653" lon="34.0252"><ele>770.7</ele><time>2011-10-11T14:24:52.0000000+00:00</time></trkpt><trkpt lat="44.536449" lon="34.025177"><ele>771.5</ele><time>2011-10-11T14:24:57.0000000+00:00</time></trkpt><trkpt lat="44.536419" lon="34.025131"><ele>773.7</ele><time>2011-10-11T14:25:02.0000000+00:00</time></trkpt><trkpt lat="44.536419" lon="34.025108"><ele>772.4</ele><time>2011-10-11T14:25:07.0000000+00:00</time></trkpt><trkpt lat="44.536423" lon="34.025105"><ele>772.7</ele><time>2011-10-11T14:25:12.0000000+00:00</time></trkpt><trkpt lat="44.536423" lon="34.025105"><ele>773.1</ele><time>2011-10-11T14:25:17.0000000+00:00</time></trkpt><trkpt lat="44.536381" lon="34.025066"><ele>773.8</ele><time>2011-10-11T14:25:22.0000000+00:00</time></trkpt><trkpt lat="44.536312" lon="34.025036"><ele>775.2</ele><time>2011-10-11T14:25:27.0000000+00:00</time></trkpt><trkpt lat="44.536282" lon="34.024929"><ele>775.6</ele><time>2011-10-11T14:25:32.0000000+00:00</time></trkpt><trkpt lat="44.536251" lon="34.02483"><ele>775.9</ele><time>2011-10-11T14:25:37.0000000+00:00</time></trkpt><trkpt lat="44.536221" lon="34.024734"><ele>775.6</ele><time>2011-10-11T14:25:42.0000000+00:00</time></trkpt><trkpt lat="44.536232" lon="34.024632"><ele>775.2</ele><time>2011-10-11T14:25:47.0000000+00:00</time></trkpt><trkpt lat="44.536201" lon="34.024536"><ele>774.2</ele><time>2011-10-11T14:25:52.0000000+00:00</time></trkpt><trkpt lat="44.53606" lon="34.024471"><ele>774.0</ele><time>2011-10-11T14:25:57.0000000+00:00</time></trkpt><trkpt lat="44.535965" lon="34.024441"><ele>774.2</ele><time>2011-10-11T14:26:02.0000000+00:00</time></trkpt><trkpt lat="44.535938" lon="34.024422"><ele>776.0</ele><time>2011-10-11T14:26:07.0000000+00:00</time></trkpt><trkpt lat="44.535892" lon="34.024414"><ele>775.1</ele><time>2011-10-11T14:26:12.0000000+00:00</time></trkpt><trkpt lat="44.535904" lon="34.024452"><ele>775.5</ele><time>2011-10-11T14:26:17.0000000+00:00</time></trkpt><trkpt lat="44.535904" lon="34.024418"><ele>776.1</ele><time>2011-10-11T14:26:22.0000000+00:00</time></trkpt><trkpt lat="44.535931" lon="34.024399"><ele>776.4</ele><time>2011-10-11T14:26:27.0000000+00:00</time></trkpt><trkpt lat="44.535942" lon="34.024342"><ele>777.1</ele><time>2011-10-11T14:26:32.0000000+00:00</time></trkpt><trkpt lat="44.535954" lon="34.024288"><ele>777.8</ele><time>2011-10-11T14:26:37.0000000+00:00</time></trkpt><trkpt lat="44.535957" lon="34.024189"><ele>777.6</ele><time>2011-10-11T14:26:42.0000000+00:00</time></trkpt><trkpt lat="44.535919" lon="34.024136"><ele>778.3</ele><time>2011-10-11T14:26:47.0000000+00:00</time></trkpt><trkpt lat="44.535889" lon="34.024067"><ele>779.9</ele><time>2011-10-11T14:26:52.0000000+00:00</time></trkpt><trkpt lat="44.535862" lon="34.024002"><ele>780.5</ele><time>2011-10-11T14:26:57.0000000+00:00</time></trkpt><trkpt lat="44.53582" lon="34.02393"><ele>782.2</ele><time>2011-10-11T14:27:02.0000000+00:00</time></trkpt><trkpt lat="44.535812" lon="34.023865"><ele>782.2</ele><time>2011-10-11T14:27:07.0000000+00:00</time></trkpt><trkpt lat="44.535805" lon="34.023773"><ele>783.0</ele><time>2011-10-11T14:27:12.0000000+00:00</time></trkpt><trkpt lat="44.535816" lon="34.023716"><ele>783.3</ele><time>2011-10-11T14:27:17.0000000+00:00</time></trkpt><trkpt lat="44.535801" lon="34.023655"><ele>783.7</ele><time>2011-10-11T14:27:22.0000000+00:00</time></trkpt><trkpt lat="44.535782" lon="34.023609"><ele>784.5</ele><time>2011-10-11T14:27:27.0000000+00:00</time></trkpt><trkpt lat="44.535744" lon="34.023483"><ele>784.6</ele><time>2011-10-11T14:27:32.0000000+00:00</time></trkpt><trkpt lat="44.535702" lon="34.023376"><ele>784.3</ele><time>2011-10-11T14:27:37.0000000+00:00</time></trkpt><trkpt lat="44.535706" lon="34.023247"><ele>784.3</ele><time>2011-10-11T14:27:42.0000000+00:00</time></trkpt><trkpt lat="44.535725" lon="34.023159"><ele>784.7</ele><time>2011-10-11T14:27:47.0000000+00:00</time></trkpt><trkpt lat="44.535694" lon="34.023109"><ele>785.4</ele><time>2011-10-11T14:27:52.0000000+00:00</time></trkpt><trkpt lat="44.535641" lon="34.023033"><ele>785.8</ele><time>2011-10-11T14:27:57.0000000+00:00</time></trkpt><trkpt lat="44.53566" lon="34.022934"><ele>787.8</ele><time>2011-10-11T14:28:02.0000000+00:00</time></trkpt><trkpt lat="44.535686" lon="34.022842"><ele>788.4</ele><time>2011-10-11T14:28:07.0000000+00:00</time></trkpt><trkpt lat="44.535656" lon="34.022808"><ele>789.3</ele><time>2011-10-11T14:28:12.0000000+00:00</time></trkpt><trkpt lat="44.535629" lon="34.022781"><ele>789.8</ele><time>2011-10-11T14:28:17.0000000+00:00</time></trkpt><trkpt lat="44.535603" lon="34.022766"><ele>789.7</ele><time>2011-10-11T14:28:22.0000000+00:00</time></trkpt><trkpt lat="44.535515" lon="34.022747"><ele>790.3</ele><time>2011-10-11T14:28:27.0000000+00:00</time></trkpt><trkpt lat="44.535442" lon="34.022762"><ele>791.0</ele><time>2011-10-11T14:28:32.0000000+00:00</time></trkpt><trkpt lat="44.535385" lon="34.022804"><ele>790.8</ele><time>2011-10-11T14:28:37.0000000+00:00</time></trkpt><trkpt lat="44.535339" lon="34.022842"><ele>790.8</ele><time>2011-10-11T14:28:42.0000000+00:00</time></trkpt><trkpt lat="44.535301" lon="34.022793"><ele>785.4</ele><time>2011-10-11T14:28:47.0000000+00:00</time></trkpt><trkpt lat="44.535236" lon="34.022755"><ele>782.8</ele><time>2011-10-11T14:28:52.0000000+00:00</time></trkpt><trkpt lat="44.535145" lon="34.022739"><ele>781.2</ele><time>2011-10-11T14:28:57.0000000+00:00</time></trkpt><trkpt lat="44.535049" lon="34.022736"><ele>780.5</ele><time>2011-10-11T14:29:02.0000000+00:00</time></trkpt><trkpt lat="44.534969" lon="34.022736"><ele>778.6</ele><time>2011-10-11T14:29:07.0000000+00:00</time></trkpt><trkpt lat="44.53492" lon="34.022705"><ele>776.4</ele><time>2011-10-11T14:29:12.0000000+00:00</time></trkpt><trkpt lat="44.534878" lon="34.022713"><ele>775.1</ele><time>2011-10-11T14:29:17.0000000+00:00</time></trkpt><trkpt lat="44.534798" lon="34.022743"><ele>774.9</ele><time>2011-10-11T14:29:22.0000000+00:00</time></trkpt><trkpt lat="44.534748" lon="34.022778"><ele>775.0</ele><time>2011-10-11T14:29:27.0000000+00:00</time></trkpt><trkpt lat="44.534714" lon="34.022785"><ele>775.0</ele><time>2011-10-11T14:29:32.0000000+00:00</time></trkpt><trkpt lat="44.534698" lon="34.022755"><ele>774.5</ele><time>2011-10-11T14:29:37.0000000+00:00</time></trkpt><trkpt lat="44.534649" lon="34.022728"><ele>774.4</ele><time>2011-10-11T14:29:42.0000000+00:00</time></trkpt><trkpt lat="44.534584" lon="34.022694"><ele>774.4</ele><time>2011-10-11T14:29:47.0000000+00:00</time></trkpt><trkpt lat="44.534546" lon="34.022652"><ele>773.7</ele><time>2011-10-11T14:29:52.0000000+00:00</time></trkpt><trkpt lat="44.534515" lon="34.022602"><ele>773.9</ele><time>2011-10-11T14:29:57.0000000+00:00</time></trkpt><trkpt lat="44.534492" lon="34.022583"><ele>774.6</ele><time>2011-10-11T14:30:02.0000000+00:00</time></trkpt><trkpt lat="44.534458" lon="34.022594"><ele>776.6</ele><time>2011-10-11T14:30:07.0000000+00:00</time></trkpt><trkpt lat="44.534424" lon="34.022572"><ele>777.5</ele><time>2011-10-11T14:30:12.0000000+00:00</time></trkpt><trkpt lat="44.534386" lon="34.022549"><ele>778.8</ele><time>2011-10-11T14:30:17.0000000+00:00</time></trkpt><trkpt lat="44.53434" lon="34.022511"><ele>780.0</ele><time>2011-10-11T14:30:22.0000000+00:00</time></trkpt><trkpt lat="44.534302" lon="34.022469"><ele>781.2</ele><time>2011-10-11T14:30:27.0000000+00:00</time></trkpt><trkpt lat="44.53429" lon="34.022427"><ele>782.9</ele><time>2011-10-11T14:30:32.0000000+00:00</time></trkpt><trkpt lat="44.53426" lon="34.022411"><ele>782.8</ele><time>2011-10-11T14:30:37.0000000+00:00</time></trkpt><trkpt lat="44.534222" lon="34.022404"><ele>783.9</ele><time>2011-10-11T14:30:42.0000000+00:00</time></trkpt><trkpt lat="44.534184" lon="34.022381"><ele>784.7</ele><time>2011-10-11T14:30:47.0000000+00:00</time></trkpt><trkpt lat="44.534172" lon="34.022343"><ele>784.6</ele><time>2011-10-11T14:30:52.0000000+00:00</time></trkpt><trkpt lat="44.534122" lon="34.022293"><ele>785.3</ele><time>2011-10-11T14:30:57.0000000+00:00</time></trkpt><trkpt lat="44.534115" lon="34.022247"><ele>786.1</ele><time>2011-10-11T14:31:02.0000000+00:00</time></trkpt><trkpt lat="44.534073" lon="34.022205"><ele>787.2</ele><time>2011-10-11T14:31:07.0000000+00:00</time></trkpt><trkpt lat="44.534" lon="34.022182"><ele>786.6</ele><time>2011-10-11T14:31:12.0000000+00:00</time></trkpt><trkpt lat="44.533943" lon="34.022175"><ele>787.6</ele><time>2011-10-11T14:31:17.0000000+00:00</time></trkpt><trkpt lat="44.53392" lon="34.02216"><ele>788.4</ele><time>2011-10-11T14:31:22.0000000+00:00</time></trkpt><trkpt lat="44.533878" lon="34.022163"><ele>788.6</ele><time>2011-10-11T14:31:27.0000000+00:00</time></trkpt><trkpt lat="44.533829" lon="34.022182"><ele>789.4</ele><time>2011-10-11T14:31:32.0000000+00:00</time></trkpt><trkpt lat="44.533775" lon="34.022163"><ele>790.5</ele><time>2011-10-11T14:31:37.0000000+00:00</time></trkpt><trkpt lat="44.533749" lon="34.022118"><ele>791.1</ele><time>2011-10-11T14:31:42.0000000+00:00</time></trkpt><trkpt lat="44.533741" lon="34.022064"><ele>792.1</ele><time>2011-10-11T14:31:47.0000000+00:00</time></trkpt><trkpt lat="44.53373" lon="34.022026"><ele>793.1</ele><time>2011-10-11T14:31:52.0000000+00:00</time></trkpt><trkpt lat="44.533726" lon="34.021999"><ele>793.9</ele><time>2011-10-11T14:31:57.0000000+00:00</time></trkpt><trkpt lat="44.533714" lon="34.021969"><ele>794.7</ele><time>2011-10-11T14:32:02.0000000+00:00</time></trkpt><trkpt lat="44.53368" lon="34.021923"><ele>796.1</ele><time>2011-10-11T14:32:07.0000000+00:00</time></trkpt><trkpt lat="44.533627" lon="34.021893"><ele>797.6</ele><time>2011-10-11T14:32:12.0000000+00:00</time></trkpt><trkpt lat="44.533607" lon="34.021862"><ele>798.9</ele><time>2011-10-11T14:32:17.0000000+00:00</time></trkpt><trkpt lat="44.533543" lon="34.021828"><ele>800.3</ele><time>2011-10-11T14:32:22.0000000+00:00</time></trkpt><trkpt lat="44.533512" lon="34.02179"><ele>801.3</ele><time>2011-10-11T14:32:27.0000000+00:00</time></trkpt><trkpt lat="44.533489" lon="34.021759"><ele>802.0</ele><time>2011-10-11T14:32:32.0000000+00:00</time></trkpt><trkpt lat="44.533405" lon="34.021736"><ele>802.4</ele><time>2011-10-11T14:32:37.0000000+00:00</time></trkpt><trkpt lat="44.533318" lon="34.021713"><ele>803.0</ele><time>2011-10-11T14:32:42.0000000+00:00</time></trkpt><trkpt lat="44.533268" lon="34.021694"><ele>803.5</ele><time>2011-10-11T14:32:47.0000000+00:00</time></trkpt><trkpt lat="44.533226" lon="34.021683"><ele>803.6</ele><time>2011-10-11T14:32:52.0000000+00:00</time></trkpt><trkpt lat="44.533211" lon="34.021664"><ele>803.4</ele><time>2011-10-11T14:32:57.0000000+00:00</time></trkpt><trkpt lat="44.533165" lon="34.021618"><ele>803.4</ele><time>2011-10-11T14:33:02.0000000+00:00</time></trkpt><trkpt lat="44.5331" lon="34.021587"><ele>803.2</ele><time>2011-10-11T14:33:07.0000000+00:00</time></trkpt><trkpt lat="44.53302" lon="34.021576"><ele>803.5</ele><time>2011-10-11T14:33:12.0000000+00:00</time></trkpt><trkpt lat="44.53297" lon="34.021572"><ele>804.7</ele><time>2011-10-11T14:33:17.0000000+00:00</time></trkpt><trkpt lat="44.532925" lon="34.021564"><ele>805.5</ele><time>2011-10-11T14:33:22.0000000+00:00</time></trkpt><trkpt lat="44.53289" lon="34.021534"><ele>806.0</ele><time>2011-10-11T14:33:27.0000000+00:00</time></trkpt><trkpt lat="44.532875" lon="34.021488"><ele>808.0</ele><time>2011-10-11T14:33:32.0000000+00:00</time></trkpt><trkpt lat="44.532845" lon="34.021442"><ele>809.0</ele><time>2011-10-11T14:33:37.0000000+00:00</time></trkpt><trkpt lat="44.532814" lon="34.021385"><ele>810.3</ele><time>2011-10-11T14:33:42.0000000+00:00</time></trkpt><trkpt lat="44.532784" lon="34.021332"><ele>810.9</ele><time>2011-10-11T14:33:47.0000000+00:00</time></trkpt><trkpt lat="44.532784" lon="34.021252"><ele>811.3</ele><time>2011-10-11T14:33:52.0000000+00:00</time></trkpt><trkpt lat="44.532742" lon="34.021206"><ele>811.6</ele><time>2011-10-11T14:33:57.0000000+00:00</time></trkpt><trkpt lat="44.532726" lon="34.02113"><ele>811.2</ele><time>2011-10-11T14:34:02.0000000+00:00</time></trkpt><trkpt lat="44.532738" lon="34.021034"><ele>812.1</ele><time>2011-10-11T14:34:07.0000000+00:00</time></trkpt><trkpt lat="44.532696" lon="34.020969"><ele>812.7</ele><time>2011-10-11T14:34:12.0000000+00:00</time></trkpt><trkpt lat="44.532665" lon="34.020912"><ele>813.1</ele><time>2011-10-11T14:34:17.0000000+00:00</time></trkpt><trkpt lat="44.5326" lon="34.020855"><ele>813.9</ele><time>2011-10-11T14:34:22.0000000+00:00</time></trkpt><trkpt lat="44.532524" lon="34.020805"><ele>814.9</ele><time>2011-10-11T14:34:27.0000000+00:00</time></trkpt><trkpt lat="44.532448" lon="34.020767"><ele>815.0</ele><time>2011-10-11T14:34:32.0000000+00:00</time></trkpt><trkpt lat="44.53241" lon="34.020733"><ele>814.9</ele><time>2011-10-11T14:34:37.0000000+00:00</time></trkpt><trkpt lat="44.532387" lon="34.020687"><ele>813.8</ele><time>2011-10-11T14:34:42.0000000+00:00</time></trkpt><trkpt lat="44.53236" lon="34.02066"><ele>813.9</ele><time>2011-10-11T14:34:47.0000000+00:00</time></trkpt><trkpt lat="44.532314" lon="34.020599"><ele>814.3</ele><time>2011-10-11T14:34:52.0000000+00:00</time></trkpt><trkpt lat="44.532284" lon="34.020527"><ele>814.1</ele><time>2011-10-11T14:34:57.0000000+00:00</time></trkpt><trkpt lat="44.532265" lon="34.020435"><ele>814.3</ele><time>2011-10-11T14:35:02.0000000+00:00</time></trkpt><trkpt lat="44.532253" lon="34.020348"><ele>814.8</ele><time>2011-10-11T14:35:07.0000000+00:00</time></trkpt><trkpt lat="44.532242" lon="34.020256"><ele>815.3</ele><time>2011-10-11T14:35:12.0000000+00:00</time></trkpt><trkpt lat="44.532223" lon="34.02018"><ele>814.8</ele><time>2011-10-11T14:35:17.0000000+00:00</time></trkpt><trkpt lat="44.532196" lon="34.0201"><ele>813.9</ele><time>2011-10-11T14:35:22.0000000+00:00</time></trkpt><trkpt lat="44.532166" lon="34.020016"><ele>814.2</ele><time>2011-10-11T14:35:27.0000000+00:00</time></trkpt><trkpt lat="44.53215" lon="34.019951"><ele>814.1</ele><time>2011-10-11T14:35:32.0000000+00:00</time></trkpt><trkpt lat="44.532146" lon="34.019897"><ele>813.8</ele><time>2011-10-11T14:35:37.0000000+00:00</time></trkpt><trkpt lat="44.532078" lon="34.019844"><ele>814.8</ele><time>2011-10-11T14:35:42.0000000+00:00</time></trkpt><trkpt lat="44.532066" lon="34.019798"><ele>815.4</ele><time>2011-10-11T14:35:47.0000000+00:00</time></trkpt><trkpt lat="44.532032" lon="34.019756"><ele>816.2</ele><time>2011-10-11T14:35:52.0000000+00:00</time></trkpt><trkpt lat="44.531998" lon="34.019714"><ele>817.2</ele><time>2011-10-11T14:35:57.0000000+00:00</time></trkpt><trkpt lat="44.53196" lon="34.019653"><ele>818.3</ele><time>2011-10-11T14:36:02.0000000+00:00</time></trkpt><trkpt lat="44.531914" lon="34.019608"><ele>819.4</ele><time>2011-10-11T14:36:07.0000000+00:00</time></trkpt><trkpt lat="44.531895" lon="34.01955"><ele>820.2</ele><time>2011-10-11T14:36:12.0000000+00:00</time></trkpt><trkpt lat="44.531845" lon="34.019505"><ele>820.9</ele><time>2011-10-11T14:36:17.0000000+00:00</time></trkpt><trkpt lat="44.531796" lon="34.019485"><ele>821.7</ele><time>2011-10-11T14:36:22.0000000+00:00</time></trkpt><trkpt lat="44.531761" lon="34.019451"><ele>822.0</ele><time>2011-10-11T14:36:27.0000000+00:00</time></trkpt><trkpt lat="44.531662" lon="34.019379"><ele>822.2</ele><time>2011-10-11T14:36:32.0000000+00:00</time></trkpt><trkpt lat="44.53159" lon="34.019356"><ele>822.5</ele><time>2011-10-11T14:36:37.0000000+00:00</time></trkpt><trkpt lat="44.53149" lon="34.019344"><ele>822.4</ele><time>2011-10-11T14:36:42.0000000+00:00</time></trkpt><trkpt lat="44.531395" lon="34.019302"><ele>820.9</ele><time>2011-10-11T14:36:47.0000000+00:00</time></trkpt><trkpt lat="44.531322" lon="34.019337"><ele>820.4</ele><time>2011-10-11T14:36:52.0000000+00:00</time></trkpt><trkpt lat="44.531242" lon="34.01939"><ele>819.7</ele><time>2011-10-11T14:36:57.0000000+00:00</time></trkpt><trkpt lat="44.531185" lon="34.019394"><ele>819.0</ele><time>2011-10-11T14:37:02.0000000+00:00</time></trkpt><trkpt lat="44.53112" lon="34.019398"><ele>816.9</ele><time>2011-10-11T14:37:07.0000000+00:00</time></trkpt><trkpt lat="44.531052" lon="34.019405"><ele>814.9</ele><time>2011-10-11T14:37:12.0000000+00:00</time></trkpt><trkpt lat="44.530987" lon="34.019455"><ele>811.0</ele><time>2011-10-11T14:37:17.0000000+00:00</time></trkpt><trkpt lat="44.530926" lon="34.019459"><ele>809.2</ele><time>2011-10-11T14:37:22.0000000+00:00</time></trkpt><trkpt lat="44.530891" lon="34.019424"><ele>808.4</ele><time>2011-10-11T14:37:27.0000000+00:00</time></trkpt><trkpt lat="44.530872" lon="34.019424"><ele>808.0</ele><time>2011-10-11T14:37:32.0000000+00:00</time></trkpt><trkpt lat="44.530842" lon="34.019379"><ele>808.3</ele><time>2011-10-11T14:37:37.0000000+00:00</time></trkpt><trkpt lat="44.530811" lon="34.019329"><ele>807.4</ele><time>2011-10-11T14:37:42.0000000+00:00</time></trkpt><trkpt lat="44.530781" lon="34.01931"><ele>805.8</ele><time>2011-10-11T14:37:47.0000000+00:00</time></trkpt><trkpt lat="44.530739" lon="34.019279"><ele>804.9</ele><time>2011-10-11T14:37:52.0000000+00:00</time></trkpt><trkpt lat="44.530731" lon="34.019249"><ele>803.6</ele><time>2011-10-11T14:37:57.0000000+00:00</time></trkpt><trkpt lat="44.530708" lon="34.019238"><ele>803.1</ele><time>2011-10-11T14:38:02.0000000+00:00</time></trkpt><trkpt lat="44.530708" lon="34.01926"><ele>802.7</ele><time>2011-10-11T14:38:07.0000000+00:00</time></trkpt><trkpt lat="44.530727" lon="34.019264"><ele>803.1</ele><time>2011-10-11T14:38:12.0000000+00:00</time></trkpt><trkpt lat="44.530727" lon="34.019264"><ele>803.1</ele><time>2011-10-11T14:38:17.0000000+00:00</time></trkpt><trkpt lat="44.530762" lon="34.019218"><ele>803.6</ele><time>2011-10-11T14:38:22.0000000+00:00</time></trkpt><trkpt lat="44.530796" lon="34.019157"><ele>805.4</ele><time>2011-10-11T14:38:27.0000000+00:00</time></trkpt><trkpt lat="44.53083" lon="34.019119"><ele>807.1</ele><time>2011-10-11T14:38:32.0000000+00:00</time></trkpt><trkpt lat="44.530842" lon="34.019054"><ele>807.6</ele><time>2011-10-11T14:38:37.0000000+00:00</time></trkpt><trkpt lat="44.530842" lon="34.018982"><ele>807.9</ele><time>2011-10-11T14:38:42.0000000+00:00</time></trkpt><trkpt lat="44.530849" lon="34.018932"><ele>808.1</ele><time>2011-10-11T14:38:47.0000000+00:00</time></trkpt><trkpt lat="44.530869" lon="34.018867"><ele>808.7</ele><time>2011-10-11T14:38:52.0000000+00:00</time></trkpt><trkpt lat="44.530853" lon="34.018818"><ele>809.8</ele><time>2011-10-11T14:38:57.0000000+00:00</time></trkpt><trkpt lat="44.530872" lon="34.018761"><ele>808.5</ele><time>2011-10-11T14:39:02.0000000+00:00</time></trkpt><trkpt lat="44.530872" lon="34.018703"><ele>809.0</ele><time>2011-10-11T14:39:07.0000000+00:00</time></trkpt><trkpt lat="44.530869" lon="34.018677"><ele>809.5</ele><time>2011-10-11T14:39:12.0000000+00:00</time></trkpt><trkpt lat="44.530853" lon="34.018669"><ele>810.0</ele><time>2011-10-11T14:39:17.0000000+00:00</time></trkpt><trkpt lat="44.530865" lon="34.018581"><ele>810.3</ele><time>2011-10-11T14:39:22.0000000+00:00</time></trkpt><trkpt lat="44.530869" lon="34.018536"><ele>810.8</ele><time>2011-10-11T14:39:27.0000000+00:00</time></trkpt><trkpt lat="44.530872" lon="34.018494"><ele>811.4</ele><time>2011-10-11T14:39:32.0000000+00:00</time></trkpt><trkpt lat="44.530869" lon="34.018436"><ele>811.9</ele><time>2011-10-11T14:39:37.0000000+00:00</time></trkpt><trkpt lat="44.530857" lon="34.018383"><ele>812.2</ele><time>2011-10-11T14:39:42.0000000+00:00</time></trkpt><trkpt lat="44.530876" lon="34.018318"><ele>812.5</ele><time>2011-10-11T14:39:47.0000000+00:00</time></trkpt><trkpt lat="44.530888" lon="34.018288"><ele>812.9</ele><time>2011-10-11T14:39:52.0000000+00:00</time></trkpt><trkpt lat="44.530949" lon="34.018246"><ele>814.0</ele><time>2011-10-11T14:39:57.0000000+00:00</time></trkpt><trkpt lat="44.53096" lon="34.018188"><ele>815.0</ele><time>2011-10-11T14:40:02.0000000+00:00</time></trkpt><trkpt lat="44.530972" lon="34.018112"><ele>815.4</ele><time>2011-10-11T14:40:07.0000000+00:00</time></trkpt><trkpt lat="44.530956" lon="34.018017"><ele>815.8</ele><time>2011-10-11T14:40:12.0000000+00:00</time></trkpt><trkpt lat="44.530952" lon="34.017948"><ele>816.2</ele><time>2011-10-11T14:40:17.0000000+00:00</time></trkpt><trkpt lat="44.530964" lon="34.017895"><ele>816.7</ele><time>2011-10-11T14:40:22.0000000+00:00</time></trkpt><trkpt lat="44.530972" lon="34.017799"><ele>816.9</ele><time>2011-10-11T14:40:27.0000000+00:00</time></trkpt><trkpt lat="44.530987" lon="34.017754"><ele>817.3</ele><time>2011-10-11T14:40:32.0000000+00:00</time></trkpt><trkpt lat="44.530991" lon="34.017719"><ele>817.6</ele><time>2011-10-11T14:40:37.0000000+00:00</time></trkpt><trkpt lat="44.530994" lon="34.017685"><ele>817.9</ele><time>2011-10-11T14:40:42.0000000+00:00</time></trkpt><trkpt lat="44.531002" lon="34.017601"><ele>818.4</ele><time>2011-10-11T14:40:47.0000000+00:00</time></trkpt><trkpt lat="44.531002" lon="34.017578"><ele>819.2</ele><time>2011-10-11T14:40:52.0000000+00:00</time></trkpt><trkpt lat="44.531017" lon="34.017529"><ele>819.8</ele><time>2011-10-11T14:40:57.0000000+00:00</time></trkpt><trkpt lat="44.531013" lon="34.017471"><ele>820.2</ele><time>2011-10-11T14:41:02.0000000+00:00</time></trkpt><trkpt lat="44.531025" lon="34.017437"><ele>820.8</ele><time>2011-10-11T14:41:07.0000000+00:00</time></trkpt><trkpt lat="44.531013" lon="34.017441"><ele>820.8</ele><time>2011-10-11T14:41:12.0000000+00:00</time></trkpt><trkpt lat="44.530983" lon="34.017429"><ele>820.7</ele><time>2011-10-11T14:41:17.0000000+00:00</time></trkpt><trkpt lat="44.530994" lon="34.017433"><ele>820.5</ele><time>2011-10-11T14:41:22.0000000+00:00</time></trkpt><trkpt lat="44.530991" lon="34.017433"><ele>820.4</ele><time>2011-10-11T14:41:27.0000000+00:00</time></trkpt><trkpt lat="44.530987" lon="34.017433"><ele>820.4</ele><time>2011-10-11T14:41:32.0000000+00:00</time></trkpt><trkpt lat="44.530975" lon="34.017418"><ele>820.4</ele><time>2011-10-11T14:41:37.0000000+00:00</time></trkpt><trkpt lat="44.530975" lon="34.017365"><ele>820.5</ele><time>2011-10-11T14:41:42.0000000+00:00</time></trkpt><trkpt lat="44.530975" lon="34.017277"><ele>821.0</ele><time>2011-10-11T14:41:47.0000000+00:00</time></trkpt><trkpt lat="44.530964" lon="34.0172"><ele>821.3</ele><time>2011-10-11T14:41:52.0000000+00:00</time></trkpt><trkpt lat="44.530918" lon="34.017155"><ele>821.4</ele><time>2011-10-11T14:41:57.0000000+00:00</time></trkpt><trkpt lat="44.530872" lon="34.017109"><ele>821.4</ele><time>2011-10-11T14:42:02.0000000+00:00</time></trkpt><trkpt lat="44.530807" lon="34.017059"><ele>821.1</ele><time>2011-10-11T14:42:07.0000000+00:00</time></trkpt><trkpt lat="44.5308" lon="34.017025"><ele>821.1</ele><time>2011-10-11T14:42:12.0000000+00:00</time></trkpt><trkpt lat="44.530758" lon="34.01696"><ele>820.8</ele><time>2011-10-11T14:42:17.0000000+00:00</time></trkpt><trkpt lat="44.530735" lon="34.016899"><ele>821.5</ele><time>2011-10-11T14:42:22.0000000+00:00</time></trkpt><trkpt lat="44.530697" lon="34.016827"><ele>822.1</ele><time>2011-10-11T14:42:27.0000000+00:00</time></trkpt><trkpt lat="44.530689" lon="34.016747"><ele>822.4</ele><time>2011-10-11T14:42:32.0000000+00:00</time></trkpt><trkpt lat="44.530651" lon="34.016663"><ele>823.1</ele><time>2011-10-11T14:42:37.0000000+00:00</time></trkpt><trkpt lat="44.530579" lon="34.016663"><ele>822.1</ele><time>2011-10-11T14:42:42.0000000+00:00</time></trkpt><trkpt lat="44.53051" lon="34.016644"><ele>821.0</ele><time>2011-10-11T14:42:47.0000000+00:00</time></trkpt><trkpt lat="44.530468" lon="34.016617"><ele>820.5</ele><time>2011-10-11T14:42:52.0000000+00:00</time></trkpt><trkpt lat="44.530449" lon="34.01659"><ele>819.8</ele><time>2011-10-11T14:42:57.0000000+00:00</time></trkpt><trkpt lat="44.530426" lon="34.01656"><ele>820.1</ele><time>2011-10-11T14:43:02.0000000+00:00</time></trkpt><trkpt lat="44.530369" lon="34.016541"><ele>820.6</ele><time>2011-10-11T14:43:07.0000000+00:00</time></trkpt><trkpt lat="44.530334" lon="34.016518"><ele>820.7</ele><time>2011-10-11T14:43:12.0000000+00:00</time></trkpt><trkpt lat="44.530308" lon="34.016499"><ele>820.7</ele><time>2011-10-11T14:43:17.0000000+00:00</time></trkpt><trkpt lat="44.530289" lon="34.016514"><ele>820.9</ele><time>2011-10-11T14:43:22.0000000+00:00</time></trkpt><trkpt lat="44.530277" lon="34.01651"><ele>820.7</ele><time>2011-10-11T14:43:27.0000000+00:00</time></trkpt><trkpt lat="44.530277" lon="34.01651"><ele>820.6</ele><time>2011-10-11T14:43:32.0000000+00:00</time></trkpt><trkpt lat="44.530281" lon="34.016464"><ele>821.2</ele><time>2011-10-11T14:43:37.0000000+00:00</time></trkpt><trkpt lat="44.530289" lon="34.016403"><ele>821.7</ele><time>2011-10-11T14:43:42.0000000+00:00</time></trkpt><trkpt lat="44.530319" lon="34.016338"><ele>822.5</ele><time>2011-10-11T14:43:47.0000000+00:00</time></trkpt><trkpt lat="44.530357" lon="34.016296"><ele>821.9</ele><time>2011-10-11T14:43:52.0000000+00:00</time></trkpt><trkpt lat="44.530388" lon="34.016281"><ele>821.9</ele><time>2011-10-11T14:43:57.0000000+00:00</time></trkpt><trkpt lat="44.530399" lon="34.016232"><ele>821.4</ele><time>2011-10-11T14:44:02.0000000+00:00</time></trkpt><trkpt lat="44.530407" lon="34.016167"><ele>821.2</ele><time>2011-10-11T14:44:07.0000000+00:00</time></trkpt><trkpt lat="44.530415" lon="34.016109"><ele>820.6</ele><time>2011-10-11T14:44:12.0000000+00:00</time></trkpt><trkpt lat="44.53043" lon="34.016048"><ele>819.3</ele><time>2011-10-11T14:44:17.0000000+00:00</time></trkpt><trkpt lat="44.530449" lon="34.01601"><ele>819.0</ele><time>2011-10-11T14:44:22.0000000+00:00</time></trkpt><trkpt lat="44.53043" lon="34.015965"><ele>819.1</ele><time>2011-10-11T14:44:27.0000000+00:00</time></trkpt><trkpt lat="44.530426" lon="34.01593"><ele>819.2</ele><time>2011-10-11T14:44:32.0000000+00:00</time></trkpt><trkpt lat="44.530434" lon="34.015911"><ele>819.1</ele><time>2011-10-11T14:44:37.0000000+00:00</time></trkpt><trkpt lat="44.530445" lon="34.015873"><ele>819.0</ele><time>2011-10-11T14:44:42.0000000+00:00</time></trkpt><trkpt lat="44.530441" lon="34.015831"><ele>818.9</ele><time>2011-10-11T14:44:47.0000000+00:00</time></trkpt><trkpt lat="44.530449" lon="34.015785"><ele>818.9</ele><time>2011-10-11T14:44:52.0000000+00:00</time></trkpt><trkpt lat="44.530449" lon="34.015717"><ele>818.9</ele><time>2011-10-11T14:44:57.0000000+00:00</time></trkpt><trkpt lat="44.530491" lon="34.015629"><ele>818.8</ele><time>2011-10-11T14:45:02.0000000+00:00</time></trkpt><trkpt lat="44.530502" lon="34.015602"><ele>818.7</ele><time>2011-10-11T14:45:07.0000000+00:00</time></trkpt><trkpt lat="44.530491" lon="34.01556"><ele>818.4</ele><time>2011-10-11T14:45:12.0000000+00:00</time></trkpt><trkpt lat="44.530479" lon="34.015484"><ele>818.4</ele><time>2011-10-11T14:45:17.0000000+00:00</time></trkpt><trkpt lat="44.530514" lon="34.0154"><ele>818.4</ele><time>2011-10-11T14:45:22.0000000+00:00</time></trkpt><trkpt lat="44.530514" lon="34.015335"><ele>818.0</ele><time>2011-10-11T14:45:27.0000000+00:00</time></trkpt><trkpt lat="44.530499" lon="34.015289"><ele>817.9</ele><time>2011-10-11T14:45:32.0000000+00:00</time></trkpt><trkpt lat="44.530483" lon="34.015224"><ele>818.1</ele><time>2011-10-11T14:45:37.0000000+00:00</time></trkpt><trkpt lat="44.530491" lon="34.015171"><ele>818.3</ele><time>2011-10-11T14:45:42.0000000+00:00</time></trkpt><trkpt lat="44.530453" lon="34.015091"><ele>818.3</ele><time>2011-10-11T14:45:47.0000000+00:00</time></trkpt><trkpt lat="44.530396" lon="34.014988"><ele>818.1</ele><time>2011-10-11T14:45:52.0000000+00:00</time></trkpt><trkpt lat="44.530354" lon="34.01495"><ele>818.2</ele><time>2011-10-11T14:45:57.0000000+00:00</time></trkpt><trkpt lat="44.530293" lon="34.014847"><ele>817.7</ele><time>2011-10-11T14:46:02.0000000+00:00</time></trkpt><trkpt lat="44.530254" lon="34.014782"><ele>817.5</ele><time>2011-10-11T14:46:07.0000000+00:00</time></trkpt><trkpt lat="44.530235" lon="34.014721"><ele>817.1</ele><time>2011-10-11T14:46:12.0000000+00:00</time></trkpt><trkpt lat="44.530231" lon="34.014679"><ele>817.3</ele><time>2011-10-11T14:46:17.0000000+00:00</time></trkpt><trkpt lat="44.530247" lon="34.014595"><ele>817.4</ele><time>2011-10-11T14:46:22.0000000+00:00</time></trkpt><trkpt lat="44.530239" lon="34.01453"><ele>817.5</ele><time>2011-10-11T14:46:27.0000000+00:00</time></trkpt><trkpt lat="44.530193" lon="34.014454"><ele>817.1</ele><time>2011-10-11T14:46:32.0000000+00:00</time></trkpt><trkpt lat="44.53019" lon="34.014393"><ele>817.1</ele><time>2011-10-11T14:46:37.0000000+00:00</time></trkpt><trkpt lat="44.530186" lon="34.014328"><ele>817.4</ele><time>2011-10-11T14:46:42.0000000+00:00</time></trkpt><trkpt lat="44.530178" lon="34.014263"><ele>817.6</ele><time>2011-10-11T14:46:47.0000000+00:00</time></trkpt><trkpt lat="44.530117" lon="34.014206"><ele>817.4</ele><time>2011-10-11T14:46:52.0000000+00:00</time></trkpt><trkpt lat="44.530033" lon="34.014111"><ele>816.4</ele><time>2011-10-11T14:46:57.0000000+00:00</time></trkpt><trkpt lat="44.530022" lon="34.014072"><ele>816.2</ele><time>2011-10-11T14:47:02.0000000+00:00</time></trkpt><trkpt lat="44.530006" lon="34.01403"><ele>815.9</ele><time>2011-10-11T14:47:07.0000000+00:00</time></trkpt><trkpt lat="44.529961" lon="34.013943"><ele>815.1</ele><time>2011-10-11T14:47:12.0000000+00:00</time></trkpt><trkpt lat="44.52993" lon="34.013905"><ele>814.7</ele><time>2011-10-11T14:47:17.0000000+00:00</time></trkpt><trkpt lat="44.529922" lon="34.013863"><ele>814.1</ele><time>2011-10-11T14:47:22.0000000+00:00</time></trkpt><trkpt lat="44.529896" lon="34.013802"><ele>813.4</ele><time>2011-10-11T14:47:27.0000000+00:00</time></trkpt><trkpt lat="44.529877" lon="34.013718"><ele>812.4</ele><time>2011-10-11T14:47:32.0000000+00:00</time></trkpt><trkpt lat="44.529861" lon="34.013649"><ele>811.7</ele><time>2011-10-11T14:47:37.0000000+00:00</time></trkpt><trkpt lat="44.529812" lon="34.013634"><ele>811.4</ele><time>2011-10-11T14:47:42.0000000+00:00</time></trkpt><trkpt lat="44.529789" lon="34.013561"><ele>811.4</ele><time>2011-10-11T14:47:47.0000000+00:00</time></trkpt><trkpt lat="44.529774" lon="34.013485"><ele>810.5</ele><time>2011-10-11T14:47:52.0000000+00:00</time></trkpt><trkpt lat="44.529705" lon="34.013397"><ele>808.9</ele><time>2011-10-11T14:47:57.0000000+00:00</time></trkpt><trkpt lat="44.529659" lon="34.013325"><ele>807.3</ele><time>2011-10-11T14:48:02.0000000+00:00</time></trkpt><trkpt lat="44.529633" lon="34.013268"><ele>806.0</ele><time>2011-10-11T14:48:07.0000000+00:00</time></trkpt><trkpt lat="44.529583" lon="34.013203"><ele>804.9</ele><time>2011-10-11T14:48:12.0000000+00:00</time></trkpt><trkpt lat="44.529545" lon="34.013172"><ele>804.3</ele><time>2011-10-11T14:48:17.0000000+00:00</time></trkpt><trkpt lat="44.529522" lon="34.013145"><ele>803.7</ele><time>2011-10-11T14:48:22.0000000+00:00</time></trkpt><trkpt lat="44.529476" lon="34.013111"><ele>803.3</ele><time>2011-10-11T14:48:27.0000000+00:00</time></trkpt><trkpt lat="44.529442" lon="34.013016"><ele>802.3</ele><time>2011-10-11T14:48:32.0000000+00:00</time></trkpt><trkpt lat="44.529438" lon="34.012939"><ele>801.2</ele><time>2011-10-11T14:48:37.0000000+00:00</time></trkpt><trkpt lat="44.529377" lon="34.012863"><ele>800.2</ele><time>2011-10-11T14:48:42.0000000+00:00</time></trkpt><trkpt lat="44.529385" lon="34.012768"><ele>799.5</ele><time>2011-10-11T14:48:47.0000000+00:00</time></trkpt><trkpt lat="44.529408" lon="34.012703"><ele>799.1</ele><time>2011-10-11T14:48:52.0000000+00:00</time></trkpt><trkpt lat="44.529392" lon="34.012642"><ele>798.3</ele><time>2011-10-11T14:48:57.0000000+00:00</time></trkpt><trkpt lat="44.529358" lon="34.012516"><ele>796.9</ele><time>2011-10-11T14:49:02.0000000+00:00</time></trkpt><trkpt lat="44.529354" lon="34.01244"><ele>795.6</ele><time>2011-10-11T14:49:07.0000000+00:00</time></trkpt><trkpt lat="44.529354" lon="34.012375"><ele>794.7</ele><time>2011-10-11T14:49:12.0000000+00:00</time></trkpt><trkpt lat="44.529366" lon="34.012299"><ele>793.5</ele><time>2011-10-11T14:49:17.0000000+00:00</time></trkpt><trkpt lat="44.529369" lon="34.012241"><ele>792.2</ele><time>2011-10-11T14:49:22.0000000+00:00</time></trkpt><trkpt lat="44.529408" lon="34.012146"><ele>790.0</ele><time>2011-10-11T14:49:27.0000000+00:00</time></trkpt><trkpt lat="44.529396" lon="34.012081"><ele>787.9</ele><time>2011-10-11T14:49:32.0000000+00:00</time></trkpt><trkpt lat="44.529396" lon="34.012016"><ele>785.9</ele><time>2011-10-11T14:49:37.0000000+00:00</time></trkpt><trkpt lat="44.529392" lon="34.011951"><ele>783.8</ele><time>2011-10-11T14:49:42.0000000+00:00</time></trkpt><trkpt lat="44.5294" lon="34.011875"><ele>782.5</ele><time>2011-10-11T14:49:47.0000000+00:00</time></trkpt><trkpt lat="44.529408" lon="34.011829"><ele>781.1</ele><time>2011-10-11T14:49:52.0000000+00:00</time></trkpt><trkpt lat="44.529415" lon="34.011757"><ele>779.1</ele><time>2011-10-11T14:49:57.0000000+00:00</time></trkpt><trkpt lat="44.529392" lon="34.011677"><ele>777.1</ele><time>2011-10-11T14:50:02.0000000+00:00</time></trkpt><trkpt lat="44.529423" lon="34.011581"><ele>775.8</ele><time>2011-10-11T14:50:07.0000000+00:00</time></trkpt><trkpt lat="44.529427" lon="34.011528"><ele>775.5</ele><time>2011-10-11T14:50:12.0000000+00:00</time></trkpt><trkpt lat="44.529415" lon="34.011482"><ele>775.1</ele><time>2011-10-11T14:50:17.0000000+00:00</time></trkpt><trkpt lat="44.529411" lon="34.011375"><ele>774.1</ele><time>2011-10-11T14:50:22.0000000+00:00</time></trkpt><trkpt lat="44.529411" lon="34.011288"><ele>773.5</ele><time>2011-10-11T14:50:27.0000000+00:00</time></trkpt><trkpt lat="44.529396" lon="34.011234"><ele>772.8</ele><time>2011-10-11T14:50:32.0000000+00:00</time></trkpt><trkpt lat="44.529392" lon="34.011185"><ele>772.0</ele><time>2011-10-11T14:50:37.0000000+00:00</time></trkpt><trkpt lat="44.529381" lon="34.01107"><ele>771.1</ele><time>2011-10-11T14:50:42.0000000+00:00</time></trkpt><trkpt lat="44.529362" lon="34.011017"><ele>770.4</ele><time>2011-10-11T14:50:47.0000000+00:00</time></trkpt><trkpt lat="44.529369" lon="34.010941"><ele>769.3</ele><time>2011-10-11T14:50:52.0000000+00:00</time></trkpt><trkpt lat="44.529381" lon="34.010891"><ele>768.7</ele><time>2011-10-11T14:50:57.0000000+00:00</time></trkpt><trkpt lat="44.529369" lon="34.010822"><ele>767.9</ele><time>2011-10-11T14:51:02.0000000+00:00</time></trkpt><trkpt lat="44.529358" lon="34.010746"><ele>767.3</ele><time>2011-10-11T14:51:07.0000000+00:00</time></trkpt><trkpt lat="44.52935" lon="34.0107"><ele>766.8</ele><time>2011-10-11T14:51:12.0000000+00:00</time></trkpt><trkpt lat="44.52932" lon="34.010635"><ele>766.5</ele><time>2011-10-11T14:51:17.0000000+00:00</time></trkpt><trkpt lat="44.529278" lon="34.010567"><ele>767.2</ele><time>2011-10-11T14:51:22.0000000+00:00</time></trkpt><trkpt lat="44.529224" lon="34.010517"><ele>766.9</ele><time>2011-10-11T14:51:27.0000000+00:00</time></trkpt><trkpt lat="44.529202" lon="34.010452"><ele>766.5</ele><time>2011-10-11T14:51:32.0000000+00:00</time></trkpt><trkpt lat="44.529171" lon="34.010414"><ele>765.9</ele><time>2011-10-11T14:51:37.0000000+00:00</time></trkpt><trkpt lat="44.529137" lon="34.01033"><ele>765.5</ele><time>2011-10-11T14:51:42.0000000+00:00</time></trkpt><trkpt lat="44.529083" lon="34.010223"><ele>765.5</ele><time>2011-10-11T14:51:47.0000000+00:00</time></trkpt><trkpt lat="44.529041" lon="34.010181"><ele>766.8</ele><time>2011-10-11T14:51:52.0000000+00:00</time></trkpt><trkpt lat="44.529003" lon="34.010178"><ele>767.5</ele><time>2011-10-11T14:51:57.0000000+00:00</time></trkpt><trkpt lat="44.528976" lon="34.010113"><ele>767.4</ele><time>2011-10-11T14:52:02.0000000+00:00</time></trkpt><trkpt lat="44.528923" lon="34.010078"><ele>766.5</ele><time>2011-10-11T14:52:07.0000000+00:00</time></trkpt><trkpt lat="44.528896" lon="34.010017"><ele>766.6</ele><time>2011-10-11T14:52:12.0000000+00:00</time></trkpt><trkpt lat="44.528881" lon="34.009914"><ele>767.0</ele><time>2011-10-11T14:52:17.0000000+00:00</time></trkpt><trkpt lat="44.528843" lon="34.00985"><ele>766.9</ele><time>2011-10-11T14:52:22.0000000+00:00</time></trkpt><trkpt lat="44.528835" lon="34.009777"><ele>766.7</ele><time>2011-10-11T14:52:27.0000000+00:00</time></trkpt><trkpt lat="44.528805" lon="34.009689"><ele>765.1</ele><time>2011-10-11T14:52:32.0000000+00:00</time></trkpt><trkpt lat="44.528812" lon="34.009636"><ele>765.3</ele><time>2011-10-11T14:52:37.0000000+00:00</time></trkpt><trkpt lat="44.528816" lon="34.009556"><ele>765.1</ele><time>2011-10-11T14:52:42.0000000+00:00</time></trkpt><trkpt lat="44.528782" lon="34.009483"><ele>765.3</ele><time>2011-10-11T14:52:47.0000000+00:00</time></trkpt><trkpt lat="44.528778" lon="34.009399"><ele>765.5</ele><time>2011-10-11T14:52:52.0000000+00:00</time></trkpt><trkpt lat="44.528793" lon="34.009315"><ele>765.4</ele><time>2011-10-11T14:52:57.0000000+00:00</time></trkpt><trkpt lat="44.528801" lon="34.009209"><ele>765.1</ele><time>2011-10-11T14:53:02.0000000+00:00</time></trkpt><trkpt lat="44.528736" lon="34.009148"><ele>764.4</ele><time>2011-10-11T14:53:07.0000000+00:00</time></trkpt><trkpt lat="44.528679" lon="34.009083"><ele>763.7</ele><time>2011-10-11T14:53:12.0000000+00:00</time></trkpt><trkpt lat="44.528606" lon="34.008999"><ele>763.6</ele><time>2011-10-11T14:53:17.0000000+00:00</time></trkpt><trkpt lat="44.528584" lon="34.008919"><ele>763.2</ele><time>2011-10-11T14:53:22.0000000+00:00</time></trkpt><trkpt lat="44.528576" lon="34.008839"><ele>762.2</ele><time>2011-10-11T14:53:27.0000000+00:00</time></trkpt><trkpt lat="44.528557" lon="34.00877"><ele>761.5</ele><time>2011-10-11T14:53:32.0000000+00:00</time></trkpt><trkpt lat="44.528576" lon="34.008667"><ele>761.4</ele><time>2011-10-11T14:53:37.0000000+00:00</time></trkpt><trkpt lat="44.528538" lon="34.00861"><ele>761.6</ele><time>2011-10-11T14:53:42.0000000+00:00</time></trkpt><trkpt lat="44.528461" lon="34.008553"><ele>761.8</ele><time>2011-10-11T14:53:47.0000000+00:00</time></trkpt><trkpt lat="44.528439" lon="34.008472"><ele>761.4</ele><time>2011-10-11T14:53:52.0000000+00:00</time></trkpt><trkpt lat="44.528393" lon="34.0084"><ele>761.0</ele><time>2011-10-11T14:53:57.0000000+00:00</time></trkpt><trkpt lat="44.528355" lon="34.00832"><ele>760.5</ele><time>2011-10-11T14:54:02.0000000+00:00</time></trkpt><trkpt lat="44.528343" lon="34.00824"><ele>761.2</ele><time>2011-10-11T14:54:07.0000000+00:00</time></trkpt><trkpt lat="44.528305" lon="34.008183"><ele>760.7</ele><time>2011-10-11T14:54:12.0000000+00:00</time></trkpt><trkpt lat="44.528259" lon="34.008137"><ele>760.3</ele><time>2011-10-11T14:54:17.0000000+00:00</time></trkpt><trkpt lat="44.528202" lon="34.008095"><ele>760.0</ele><time>2011-10-11T14:54:22.0000000+00:00</time></trkpt><trkpt lat="44.528133" lon="34.008011"><ele>759.6</ele><time>2011-10-11T14:54:27.0000000+00:00</time></trkpt><trkpt lat="44.528091" lon="34.007923"><ele>759.3</ele><time>2011-10-11T14:54:32.0000000+00:00</time></trkpt><trkpt lat="44.528057" lon="34.007835"><ele>758.8</ele><time>2011-10-11T14:54:37.0000000+00:00</time></trkpt><trkpt lat="44.528019" lon="34.007755"><ele>758.9</ele><time>2011-10-11T14:54:42.0000000+00:00</time></trkpt><trkpt lat="44.527946" lon="34.007679"><ele>759.1</ele><time>2011-10-11T14:54:47.0000000+00:00</time></trkpt><trkpt lat="44.527851" lon="34.007607"><ele>758.3</ele><time>2011-10-11T14:54:52.0000000+00:00</time></trkpt><trkpt lat="44.527802" lon="34.007538"><ele>758.2</ele><time>2011-10-11T14:54:57.0000000+00:00</time></trkpt><trkpt lat="44.527786" lon="34.007469"><ele>757.7</ele><time>2011-10-11T14:55:02.0000000+00:00</time></trkpt><trkpt lat="44.527775" lon="34.007408"><ele>757.2</ele><time>2011-10-11T14:55:07.0000000+00:00</time></trkpt><trkpt lat="44.527756" lon="34.007336"><ele>756.4</ele><time>2011-10-11T14:55:12.0000000+00:00</time></trkpt><trkpt lat="44.527702" lon="34.007233"><ele>756.4</ele><time>2011-10-11T14:55:17.0000000+00:00</time></trkpt><trkpt lat="44.527668" lon="34.007153"><ele>755.6</ele><time>2011-10-11T14:55:22.0000000+00:00</time></trkpt><trkpt lat="44.527634" lon="34.007088"><ele>754.6</ele><time>2011-10-11T14:55:27.0000000+00:00</time></trkpt><trkpt lat="44.527565" lon="34.007"><ele>753.1</ele><time>2011-10-11T14:55:32.0000000+00:00</time></trkpt><trkpt lat="44.527523" lon="34.006901"><ele>752.3</ele><time>2011-10-11T14:55:37.0000000+00:00</time></trkpt><trkpt lat="44.527473" lon="34.006802"><ele>750.8</ele><time>2011-10-11T14:55:42.0000000+00:00</time></trkpt><trkpt lat="44.527443" lon="34.006783"><ele>751.9</ele><time>2011-10-11T14:55:47.0000000+00:00</time></trkpt><trkpt lat="44.527397" lon="34.00676"><ele>751.9</ele><time>2011-10-11T14:55:52.0000000+00:00</time></trkpt><trkpt lat="44.52737" lon="34.006752"><ele>750.9</ele><time>2011-10-11T14:55:57.0000000+00:00</time></trkpt><trkpt lat="44.527367" lon="34.006748"><ele>750.9</ele><time>2011-10-11T14:56:02.0000000+00:00</time></trkpt><trkpt lat="44.527363" lon="34.006744"><ele>750.9</ele><time>2011-10-11T14:56:07.0000000+00:00</time></trkpt><trkpt lat="44.527355" lon="34.006741"><ele>751.3</ele><time>2011-10-11T14:56:12.0000000+00:00</time></trkpt><trkpt lat="44.527348" lon="34.006741"><ele>751.4</ele><time>2011-10-11T14:56:17.0000000+00:00</time></trkpt><trkpt lat="44.527348" lon="34.006741"><ele>751.3</ele><time>2011-10-11T14:56:22.0000000+00:00</time></trkpt><trkpt lat="44.527348" lon="34.006741"><ele>751.2</ele><time>2011-10-11T14:56:27.0000000+00:00</time></trkpt><trkpt lat="44.527344" lon="34.006752"><ele>751.3</ele><time>2011-10-11T14:56:32.0000000+00:00</time></trkpt><trkpt lat="44.527328" lon="34.006756"><ele>751.4</ele><time>2011-10-11T14:56:37.0000000+00:00</time></trkpt><trkpt lat="44.527321" lon="34.006752"><ele>751.4</ele><time>2011-10-11T14:56:42.0000000+00:00</time></trkpt><trkpt lat="44.527321" lon="34.006748"><ele>751.4</ele><time>2011-10-11T14:56:47.0000000+00:00</time></trkpt><trkpt lat="44.527317" lon="34.006744"><ele>751.5</ele><time>2011-10-11T14:56:52.0000000+00:00</time></trkpt><trkpt lat="44.527309" lon="34.006729"><ele>751.5</ele><time>2011-10-11T14:56:57.0000000+00:00</time></trkpt><trkpt lat="44.527309" lon="34.006702"><ele>751.5</ele><time>2011-10-11T14:57:02.0000000+00:00</time></trkpt><trkpt lat="44.527302" lon="34.006691"><ele>751.6</ele><time>2011-10-11T14:57:07.0000000+00:00</time></trkpt><trkpt lat="44.527294" lon="34.006664"><ele>751.8</ele><time>2011-10-11T14:57:12.0000000+00:00</time></trkpt><trkpt lat="44.527275" lon="34.00663"><ele>751.9</ele><time>2011-10-11T14:57:17.0000000+00:00</time></trkpt><trkpt lat="44.527256" lon="34.006599"><ele>751.9</ele><time>2011-10-11T14:57:22.0000000+00:00</time></trkpt><trkpt lat="44.527237" lon="34.006546"><ele>752.1</ele><time>2011-10-11T14:57:27.0000000+00:00</time></trkpt><trkpt lat="44.527206" lon="34.0065"><ele>752.4</ele><time>2011-10-11T14:57:32.0000000+00:00</time></trkpt><trkpt lat="44.527164" lon="34.006443"><ele>752.7</ele><time>2011-10-11T14:57:37.0000000+00:00</time></trkpt><trkpt lat="44.527142" lon="34.006378"><ele>753.2</ele><time>2011-10-11T14:57:42.0000000+00:00</time></trkpt><trkpt lat="44.527103" lon="34.006283"><ele>753.4</ele><time>2011-10-11T14:57:47.0000000+00:00</time></trkpt><trkpt lat="44.527084" lon="34.006187"><ele>753.5</ele><time>2011-10-11T14:57:52.0000000+00:00</time></trkpt><trkpt lat="44.527069" lon="34.006077"><ele>753.6</ele><time>2011-10-11T14:57:57.0000000+00:00</time></trkpt><trkpt lat="44.527031" lon="34.005985"><ele>753.7</ele><time>2011-10-11T14:58:02.0000000+00:00</time></trkpt><trkpt lat="44.527008" lon="34.005909"><ele>754.0</ele><time>2011-10-11T14:58:07.0000000+00:00</time></trkpt><trkpt lat="44.526981" lon="34.005833"><ele>754.2</ele><time>2011-10-11T14:58:12.0000000+00:00</time></trkpt><trkpt lat="44.526951" lon="34.005753"><ele>754.3</ele><time>2011-10-11T14:58:17.0000000+00:00</time></trkpt><trkpt lat="44.526939" lon="34.005688"><ele>754.4</ele><time>2011-10-11T14:58:22.0000000+00:00</time></trkpt><trkpt lat="44.526932" lon="34.005573"><ele>754.4</ele><time>2011-10-11T14:58:27.0000000+00:00</time></trkpt><trkpt lat="44.526882" lon="34.005489"><ele>754.1</ele><time>2011-10-11T14:58:32.0000000+00:00</time></trkpt><trkpt lat="44.526859" lon="34.005421"><ele>753.9</ele><time>2011-10-11T14:58:37.0000000+00:00</time></trkpt><trkpt lat="44.526852" lon="34.005333"><ele>753.9</ele><time>2011-10-11T14:58:42.0000000+00:00</time></trkpt><trkpt lat="44.526825" lon="34.005272"><ele>753.9</ele><time>2011-10-11T14:58:47.0000000+00:00</time></trkpt><trkpt lat="44.526798" lon="34.005222"><ele>753.7</ele><time>2011-10-11T14:58:52.0000000+00:00</time></trkpt><trkpt lat="44.526741" lon="34.00515"><ele>752.9</ele><time>2011-10-11T14:58:57.0000000+00:00</time></trkpt><trkpt lat="44.52668" lon="34.00507"><ele>752.5</ele><time>2011-10-11T14:59:02.0000000+00:00</time></trkpt><trkpt lat="44.526627" lon="34.00499"><ele>752.2</ele><time>2011-10-11T14:59:07.0000000+00:00</time></trkpt><trkpt lat="44.526638" lon="34.004951"><ele>752.3</ele><time>2011-10-11T14:59:12.0000000+00:00</time></trkpt><trkpt lat="44.526642" lon="34.004932"><ele>752.2</ele><time>2011-10-11T14:59:17.0000000+00:00</time></trkpt><trkpt lat="44.526638" lon="34.004906"><ele>752.0</ele><time>2011-10-11T14:59:22.0000000+00:00</time></trkpt><trkpt lat="44.526657" lon="34.004818"><ele>751.7</ele><time>2011-10-11T14:59:27.0000000+00:00</time></trkpt><trkpt lat="44.526661" lon="34.004719"><ele>751.3</ele><time>2011-10-11T14:59:32.0000000+00:00</time></trkpt><trkpt lat="44.526646" lon="34.004639"><ele>750.9</ele><time>2011-10-11T14:59:37.0000000+00:00</time></trkpt><trkpt lat="44.526646" lon="34.004566"><ele>750.6</ele><time>2011-10-11T14:59:42.0000000+00:00</time></trkpt><trkpt lat="44.526691" lon="34.004444"><ele>750.2</ele><time>2011-10-11T14:59:47.0000000+00:00</time></trkpt><trkpt lat="44.526676" lon="34.004398"><ele>750.0</ele><time>2011-10-11T14:59:52.0000000+00:00</time></trkpt><trkpt lat="44.526684" lon="34.004353"><ele>749.7</ele><time>2011-10-11T14:59:57.0000000+00:00</time></trkpt><trkpt lat="44.526669" lon="34.004272"><ele>749.3</ele><time>2011-10-11T15:00:02.0000000+00:00</time></trkpt><trkpt lat="44.526688" lon="34.00415"><ele>748.4</ele><time>2011-10-11T15:00:07.0000000+00:00</time></trkpt><trkpt lat="44.526646" lon="34.004059"><ele>747.1</ele><time>2011-10-11T15:00:12.0000000+00:00</time></trkpt><trkpt lat="44.526627" lon="34.003994"><ele>746.4</ele><time>2011-10-11T15:00:17.0000000+00:00</time></trkpt><trkpt lat="44.526615" lon="34.003906"><ele>745.5</ele><time>2011-10-11T15:00:22.0000000+00:00</time></trkpt><trkpt lat="44.526649" lon="34.003799"><ele>744.0</ele><time>2011-10-11T15:00:27.0000000+00:00</time></trkpt><trkpt lat="44.526672" lon="34.003735"><ele>743.6</ele><time>2011-10-11T15:00:32.0000000+00:00</time></trkpt><trkpt lat="44.526695" lon="34.003635"><ele>742.6</ele><time>2011-10-11T15:00:37.0000000+00:00</time></trkpt><trkpt lat="44.526661" lon="34.003571"><ele>741.8</ele><time>2011-10-11T15:00:42.0000000+00:00</time></trkpt><trkpt lat="44.526661" lon="34.003487"><ele>740.9</ele><time>2011-10-11T15:00:47.0000000+00:00</time></trkpt><trkpt lat="44.526653" lon="34.003365"><ele>738.9</ele><time>2011-10-11T15:00:52.0000000+00:00</time></trkpt><trkpt lat="44.526611" lon="34.003262"><ele>737.3</ele><time>2011-10-11T15:00:57.0000000+00:00</time></trkpt><trkpt lat="44.526619" lon="34.003185"><ele>735.1</ele><time>2011-10-11T15:01:02.0000000+00:00</time></trkpt><trkpt lat="44.526688" lon="34.003113"><ele>732.6</ele><time>2011-10-11T15:01:07.0000000+00:00</time></trkpt><trkpt lat="44.526726" lon="34.003048"><ele>730.8</ele><time>2011-10-11T15:01:12.0000000+00:00</time></trkpt><trkpt lat="44.526691" lon="34.003017"><ele>728.6</ele><time>2011-10-11T15:01:17.0000000+00:00</time></trkpt><trkpt lat="44.526669" lon="34.002937"><ele>727.0</ele><time>2011-10-11T15:01:22.0000000+00:00</time></trkpt><trkpt lat="44.526661" lon="34.002861"><ele>724.5</ele><time>2011-10-11T15:01:27.0000000+00:00</time></trkpt><trkpt lat="44.526661" lon="34.002789"><ele>723.2</ele><time>2011-10-11T15:01:32.0000000+00:00</time></trkpt><trkpt lat="44.526695" lon="34.002701"><ele>721.5</ele><time>2011-10-11T15:01:37.0000000+00:00</time></trkpt><trkpt lat="44.526714" lon="34.002647"><ele>719.0</ele><time>2011-10-11T15:01:42.0000000+00:00</time></trkpt><trkpt lat="44.526737" lon="34.002602"><ele>718.0</ele><time>2011-10-11T15:01:47.0000000+00:00</time></trkpt><trkpt lat="44.526745" lon="34.002583"><ele>717.5</ele><time>2011-10-11T15:01:52.0000000+00:00</time></trkpt><trkpt lat="44.526768" lon="34.002563"><ele>716.5</ele><time>2011-10-11T15:01:57.0000000+00:00</time></trkpt><trkpt lat="44.526844" lon="34.00251"><ele>712.9</ele><time>2011-10-11T15:02:02.0000000+00:00</time></trkpt><trkpt lat="44.526836" lon="34.00243"><ele>709.1</ele><time>2011-10-11T15:02:07.0000000+00:00</time></trkpt><trkpt lat="44.526859" lon="34.002346"><ele>705.1</ele><time>2011-10-11T15:02:12.0000000+00:00</time></trkpt><trkpt lat="44.52684" lon="34.002327"><ele>702.9</ele><time>2011-10-11T15:02:17.0000000+00:00</time></trkpt><trkpt lat="44.526791" lon="34.002304"><ele>700.9</ele><time>2011-10-11T15:02:22.0000000+00:00</time></trkpt><trkpt lat="44.526783" lon="34.002213"><ele>697.9</ele><time>2011-10-11T15:02:27.0000000+00:00</time></trkpt><trkpt lat="44.526752" lon="34.002171"><ele>695.9</ele><time>2011-10-11T15:02:32.0000000+00:00</time></trkpt><trkpt lat="44.526718" lon="34.002144"><ele>693.9</ele><time>2011-10-11T15:02:37.0000000+00:00</time></trkpt><trkpt lat="44.526699" lon="34.002125"><ele>693.3</ele><time>2011-10-11T15:02:42.0000000+00:00</time></trkpt><trkpt lat="44.526672" lon="34.002094"><ele>692.2</ele><time>2011-10-11T15:02:47.0000000+00:00</time></trkpt><trkpt lat="44.526657" lon="34.002045"><ele>691.0</ele><time>2011-10-11T15:02:52.0000000+00:00</time></trkpt><trkpt lat="44.526627" lon="34.002014"><ele>689.4</ele><time>2011-10-11T15:02:57.0000000+00:00</time></trkpt><trkpt lat="44.526611" lon="34.002003"><ele>688.7</ele><time>2011-10-11T15:03:02.0000000+00:00</time></trkpt><trkpt lat="44.526615" lon="34.001972"><ele>688.1</ele><time>2011-10-11T15:03:07.0000000+00:00</time></trkpt><trkpt lat="44.526577" lon="34.001926"><ele>686.5</ele><time>2011-10-11T15:03:12.0000000+00:00</time></trkpt><trkpt lat="44.526543" lon="34.001869"><ele>685.6</ele><time>2011-10-11T15:03:17.0000000+00:00</time></trkpt><trkpt lat="44.526516" lon="34.001846"><ele>684.8</ele><time>2011-10-11T15:03:22.0000000+00:00</time></trkpt><trkpt lat="44.526466" lon="34.001842"><ele>682.7</ele><time>2011-10-11T15:03:27.0000000+00:00</time></trkpt><trkpt lat="44.526447" lon="34.001801"><ele>680.7</ele><time>2011-10-11T15:03:32.0000000+00:00</time></trkpt><trkpt lat="44.526428" lon="34.001759"><ele>679.7</ele><time>2011-10-11T15:03:37.0000000+00:00</time></trkpt><trkpt lat="44.526421" lon="34.001717"><ele>678.5</ele><time>2011-10-11T15:03:42.0000000+00:00</time></trkpt><trkpt lat="44.526386" lon="34.001648"><ele>676.7</ele><time>2011-10-11T15:03:47.0000000+00:00</time></trkpt><trkpt lat="44.526321" lon="34.001606"><ele>674.1</ele><time>2011-10-11T15:03:52.0000000+00:00</time></trkpt><trkpt lat="44.526295" lon="34.001526"><ele>670.5</ele><time>2011-10-11T15:03:57.0000000+00:00</time></trkpt><trkpt lat="44.526299" lon="34.00153"><ele>668.2</ele><time>2011-10-11T15:04:02.0000000+00:00</time></trkpt><trkpt lat="44.526306" lon="34.00153"><ele>666.1</ele><time>2011-10-11T15:04:07.0000000+00:00</time></trkpt><trkpt lat="44.526276" lon="34.001503"><ele>664.3</ele><time>2011-10-11T15:04:12.0000000+00:00</time></trkpt><trkpt lat="44.526295" lon="34.001488"><ele>663.8</ele><time>2011-10-11T15:04:17.0000000+00:00</time></trkpt><trkpt lat="44.526302" lon="34.001465"><ele>663.0</ele><time>2011-10-11T15:04:22.0000000+00:00</time></trkpt><trkpt lat="44.526299" lon="34.001427"><ele>662.0</ele><time>2011-10-11T15:04:27.0000000+00:00</time></trkpt><trkpt lat="44.52626" lon="34.001392"><ele>661.0</ele><time>2011-10-11T15:04:32.0000000+00:00</time></trkpt><trkpt lat="44.52623" lon="34.001354"><ele>659.3</ele><time>2011-10-11T15:04:37.0000000+00:00</time></trkpt><trkpt lat="44.526211" lon="34.001339"><ele>658.4</ele><time>2011-10-11T15:04:42.0000000+00:00</time></trkpt><trkpt lat="44.526218" lon="34.001301"><ele>656.3</ele><time>2011-10-11T15:04:47.0000000+00:00</time></trkpt><trkpt lat="44.526207" lon="34.001266"><ele>655.2</ele><time>2011-10-11T15:04:52.0000000+00:00</time></trkpt><trkpt lat="44.526192" lon="34.001251"><ele>654.0</ele><time>2011-10-11T15:04:57.0000000+00:00</time></trkpt><trkpt lat="44.526184" lon="34.001232"><ele>652.8</ele><time>2011-10-11T15:05:02.0000000+00:00</time></trkpt><trkpt lat="44.526157" lon="34.001217"><ele>651.5</ele><time>2011-10-11T15:05:07.0000000+00:00</time></trkpt><trkpt lat="44.526134" lon="34.001217"><ele>649.8</ele><time>2011-10-11T15:05:12.0000000+00:00</time></trkpt><trkpt lat="44.526104" lon="34.001209"><ele>648.4</ele><time>2011-10-11T15:05:17.0000000+00:00</time></trkpt><trkpt lat="44.526093" lon="34.001186"><ele>647.2</ele><time>2011-10-11T15:05:22.0000000+00:00</time></trkpt><trkpt lat="44.526039" lon="34.001186"><ele>646.5</ele><time>2011-10-11T15:05:27.0000000+00:00</time></trkpt><trkpt lat="44.526009" lon="34.001129"><ele>645.0</ele><time>2011-10-11T15:05:32.0000000+00:00</time></trkpt><trkpt lat="44.525959" lon="34.001076"><ele>642.6</ele><time>2011-10-11T15:05:37.0000000+00:00</time></trkpt><trkpt lat="44.525951" lon="34.001015"><ele>641.1</ele><time>2011-10-11T15:05:42.0000000+00:00</time></trkpt><trkpt lat="44.525948" lon="34.000942"><ele>640.1</ele><time>2011-10-11T15:05:47.0000000+00:00</time></trkpt><trkpt lat="44.525955" lon="34.000866"><ele>639.0</ele><time>2011-10-11T15:05:52.0000000+00:00</time></trkpt><trkpt lat="44.52597" lon="34.000797"><ele>638.1</ele><time>2011-10-11T15:05:57.0000000+00:00</time></trkpt><trkpt lat="44.526009" lon="34.000744"><ele>636.7</ele><time>2011-10-11T15:06:02.0000000+00:00</time></trkpt><trkpt lat="44.526005" lon="34.00066"><ele>636.6</ele><time>2011-10-11T15:06:07.0000000+00:00</time></trkpt><trkpt lat="44.526001" lon="34.00061"><ele>636.0</ele><time>2011-10-11T15:06:12.0000000+00:00</time></trkpt><trkpt lat="44.526024" lon="34.000568"><ele>635.0</ele><time>2011-10-11T15:06:17.0000000+00:00</time></trkpt><trkpt lat="44.526066" lon="34.000526"><ele>634.6</ele><time>2011-10-11T15:06:22.0000000+00:00</time></trkpt><trkpt lat="44.526085" lon="34.0005"><ele>634.3</ele><time>2011-10-11T15:06:27.0000000+00:00</time></trkpt><trkpt lat="44.526096" lon="34.000454"><ele>634.2</ele><time>2011-10-11T15:06:32.0000000+00:00</time></trkpt><trkpt lat="44.52607" lon="34.000431"><ele>634.7</ele><time>2011-10-11T15:06:37.0000000+00:00</time></trkpt><trkpt lat="44.526024" lon="34.000408"><ele>634.9</ele><time>2011-10-11T15:06:42.0000000+00:00</time></trkpt><trkpt lat="44.525978" lon="34.000381"><ele>634.9</ele><time>2011-10-11T15:06:47.0000000+00:00</time></trkpt><trkpt lat="44.525932" lon="34.000336"><ele>635.4</ele><time>2011-10-11T15:06:52.0000000+00:00</time></trkpt><trkpt lat="44.525829" lon="34.000324"><ele>635.5</ele><time>2011-10-11T15:06:57.0000000+00:00</time></trkpt><trkpt lat="44.525787" lon="34.000263"><ele>635.7</ele><time>2011-10-11T15:07:02.0000000+00:00</time></trkpt><trkpt lat="44.52573" lon="34.000214"><ele>636.8</ele><time>2011-10-11T15:07:07.0000000+00:00</time></trkpt><trkpt lat="44.525677" lon="34.000187"><ele>637.8</ele><time>2011-10-11T15:07:12.0000000+00:00</time></trkpt><trkpt lat="44.525658" lon="34.000153"><ele>639.0</ele><time>2011-10-11T15:07:17.0000000+00:00</time></trkpt><trkpt lat="44.525612" lon="34.000126"><ele>639.9</ele><time>2011-10-11T15:07:22.0000000+00:00</time></trkpt><trkpt lat="44.525562" lon="34.000118"><ele>640.8</ele><time>2011-10-11T15:07:27.0000000+00:00</time></trkpt><trkpt lat="44.52552" lon="34.000103"><ele>642.1</ele><time>2011-10-11T15:07:32.0000000+00:00</time></trkpt><trkpt lat="44.525433" lon="34.000114"><ele>643.2</ele><time>2011-10-11T15:07:37.0000000+00:00</time></trkpt><trkpt lat="44.525379" lon="34.000076"><ele>644.7</ele><time>2011-10-11T15:07:42.0000000+00:00</time></trkpt><trkpt lat="44.525333" lon="34.00008"><ele>645.3</ele><time>2011-10-11T15:07:47.0000000+00:00</time></trkpt><trkpt lat="44.525272" lon="34.000061"><ele>645.7</ele><time>2011-10-11T15:07:52.0000000+00:00</time></trkpt><trkpt lat="44.525211" lon="34.000027"><ele>644.7</ele><time>2011-10-11T15:07:57.0000000+00:00</time></trkpt><trkpt lat="44.525169" lon="34.000004"><ele>645.5</ele><time>2011-10-11T15:08:02.0000000+00:00</time></trkpt><trkpt lat="44.525166" lon="33.99992"><ele>645.7</ele><time>2011-10-11T15:08:07.0000000+00:00</time></trkpt><trkpt lat="44.525124" lon="33.999905"><ele>645.6</ele><time>2011-10-11T15:08:12.0000000+00:00</time></trkpt><trkpt lat="44.52507" lon="33.99987"><ele>646.5</ele><time>2011-10-11T15:08:17.0000000+00:00</time></trkpt><trkpt lat="44.525017" lon="33.999863"><ele>647.1</ele><time>2011-10-11T15:08:22.0000000+00:00</time></trkpt><trkpt lat="44.52496" lon="33.999825"><ele>647.9</ele><time>2011-10-11T15:08:27.0000000+00:00</time></trkpt><trkpt lat="44.524921" lon="33.999733"><ele>648.2</ele><time>2011-10-11T15:08:32.0000000+00:00</time></trkpt><trkpt lat="44.524872" lon="33.99971"><ele>648.4</ele><time>2011-10-11T15:08:37.0000000+00:00</time></trkpt><trkpt lat="44.52483" lon="33.999676"><ele>648.9</ele><time>2011-10-11T15:08:42.0000000+00:00</time></trkpt><trkpt lat="44.524807" lon="33.999638"><ele>649.6</ele><time>2011-10-11T15:08:47.0000000+00:00</time></trkpt><trkpt lat="44.524792" lon="33.999626"><ele>650.1</ele><time>2011-10-11T15:08:52.0000000+00:00</time></trkpt><trkpt lat="44.524738" lon="33.999615"><ele>650.9</ele><time>2011-10-11T15:08:57.0000000+00:00</time></trkpt><trkpt lat="44.524662" lon="33.999607"><ele>651.5</ele><time>2011-10-11T15:09:02.0000000+00:00</time></trkpt><trkpt lat="44.524582" lon="33.999584"><ele>652.1</ele><time>2011-10-11T15:09:07.0000000+00:00</time></trkpt><trkpt lat="44.524513" lon="33.999577"><ele>652.3</ele><time>2011-10-11T15:09:12.0000000+00:00</time></trkpt><trkpt lat="44.524441" lon="33.999554"><ele>652.7</ele><time>2011-10-11T15:09:17.0000000+00:00</time></trkpt><trkpt lat="44.524403" lon="33.999481"><ele>653.1</ele><time>2011-10-11T15:09:22.0000000+00:00</time></trkpt><trkpt lat="44.524345" lon="33.999477"><ele>653.0</ele><time>2011-10-11T15:09:27.0000000+00:00</time></trkpt><trkpt lat="44.524223" lon="33.999493"><ele>653.5</ele><time>2011-10-11T15:09:32.0000000+00:00</time></trkpt><trkpt lat="44.524155" lon="33.999474"><ele>653.5</ele><time>2011-10-11T15:09:37.0000000+00:00</time></trkpt><trkpt lat="44.524097" lon="33.999451"><ele>652.1</ele><time>2011-10-11T15:09:42.0000000+00:00</time></trkpt><trkpt lat="44.524059" lon="33.99939"><ele>652.9</ele><time>2011-10-11T15:09:47.0000000+00:00</time></trkpt><trkpt lat="44.524021" lon="33.999344"><ele>653.6</ele><time>2011-10-11T15:09:52.0000000+00:00</time></trkpt><trkpt lat="44.523983" lon="33.999302"><ele>654.1</ele><time>2011-10-11T15:09:57.0000000+00:00</time></trkpt><trkpt lat="44.523922" lon="33.999256"><ele>654.2</ele><time>2011-10-11T15:10:02.0000000+00:00</time></trkpt><trkpt lat="44.523872" lon="33.999214"><ele>653.0</ele><time>2011-10-11T15:10:07.0000000+00:00</time></trkpt><trkpt lat="44.523815" lon="33.999161"><ele>651.9</ele><time>2011-10-11T15:10:12.0000000+00:00</time></trkpt><trkpt lat="44.523773" lon="33.9991"><ele>650.7</ele><time>2011-10-11T15:10:17.0000000+00:00</time></trkpt><trkpt lat="44.523724" lon="33.99902"><ele>649.2</ele><time>2011-10-11T15:10:22.0000000+00:00</time></trkpt><trkpt lat="44.523682" lon="33.998997"><ele>648.4</ele><time>2011-10-11T15:10:27.0000000+00:00</time></trkpt><trkpt lat="44.52364" lon="33.998966"><ele>647.4</ele><time>2011-10-11T15:10:32.0000000+00:00</time></trkpt><trkpt lat="44.523594" lon="33.998936"><ele>646.2</ele><time>2011-10-11T15:10:37.0000000+00:00</time></trkpt><trkpt lat="44.52351" lon="33.998878"><ele>644.5</ele><time>2011-10-11T15:10:42.0000000+00:00</time></trkpt><trkpt lat="44.523438" lon="33.998821"><ele>643.4</ele><time>2011-10-11T15:10:47.0000000+00:00</time></trkpt><trkpt lat="44.523396" lon="33.998764"><ele>642.0</ele><time>2011-10-11T15:10:52.0000000+00:00</time></trkpt><trkpt lat="44.523315" lon="33.99873"><ele>640.6</ele><time>2011-10-11T15:10:57.0000000+00:00</time></trkpt><trkpt lat="44.523262" lon="33.99868"><ele>639.2</ele><time>2011-10-11T15:11:02.0000000+00:00</time></trkpt><trkpt lat="44.523205" lon="33.998631"><ele>638.0</ele><time>2011-10-11T15:11:07.0000000+00:00</time></trkpt><trkpt lat="44.523163" lon="33.998592"><ele>636.8</ele><time>2011-10-11T15:11:12.0000000+00:00</time></trkpt><trkpt lat="44.523106" lon="33.99855"><ele>635.9</ele><time>2011-10-11T15:11:17.0000000+00:00</time></trkpt><trkpt lat="44.523056" lon="33.998505"><ele>635.0</ele><time>2011-10-11T15:11:22.0000000+00:00</time></trkpt><trkpt lat="44.523006" lon="33.998459"><ele>633.7</ele><time>2011-10-11T15:11:27.0000000+00:00</time></trkpt><trkpt lat="44.522934" lon="33.998432"><ele>631.9</ele><time>2011-10-11T15:11:32.0000000+00:00</time></trkpt><trkpt lat="44.5229" lon="33.998386"><ele>630.6</ele><time>2011-10-11T15:11:37.0000000+00:00</time></trkpt><trkpt lat="44.522858" lon="33.99831"><ele>629.2</ele><time>2011-10-11T15:11:42.0000000+00:00</time></trkpt><trkpt lat="44.52285" lon="33.99826"><ele>628.1</ele><time>2011-10-11T15:11:47.0000000+00:00</time></trkpt><trkpt lat="44.52285" lon="33.998238"><ele>627.4</ele><time>2011-10-11T15:11:52.0000000+00:00</time></trkpt><trkpt lat="44.522846" lon="33.998207"><ele>626.9</ele><time>2011-10-11T15:11:57.0000000+00:00</time></trkpt><trkpt lat="44.522831" lon="33.998158"><ele>625.9</ele><time>2011-10-11T15:12:02.0000000+00:00</time></trkpt><trkpt lat="44.522831" lon="33.9981"><ele>625.3</ele><time>2011-10-11T15:12:07.0000000+00:00</time></trkpt><trkpt lat="44.522816" lon="33.998051"><ele>624.5</ele><time>2011-10-11T15:12:12.0000000+00:00</time></trkpt><trkpt lat="44.522766" lon="33.998016"><ele>623.0</ele><time>2011-10-11T15:12:17.0000000+00:00</time></trkpt><trkpt lat="44.522724" lon="33.997982"><ele>621.8</ele><time>2011-10-11T15:12:22.0000000+00:00</time></trkpt><trkpt lat="44.522717" lon="33.997936"><ele>620.6</ele><time>2011-10-11T15:12:27.0000000+00:00</time></trkpt><trkpt lat="44.522709" lon="33.997932"><ele>620.4</ele><time>2011-10-11T15:12:32.0000000+00:00</time></trkpt><trkpt lat="44.522682" lon="33.997864"><ele>619.4</ele><time>2011-10-11T15:12:37.0000000+00:00</time></trkpt><trkpt lat="44.522644" lon="33.997822"><ele>618.2</ele><time>2011-10-11T15:12:42.0000000+00:00</time></trkpt><trkpt lat="44.522621" lon="33.997757"><ele>617.2</ele><time>2011-10-11T15:12:47.0000000+00:00</time></trkpt><trkpt lat="44.522587" lon="33.997723"><ele>616.0</ele><time>2011-10-11T15:12:52.0000000+00:00</time></trkpt><trkpt lat="44.522549" lon="33.997662"><ele>615.2</ele><time>2011-10-11T15:12:57.0000000+00:00</time></trkpt><trkpt lat="44.522499" lon="33.997601"><ele>614.3</ele><time>2011-10-11T15:13:02.0000000+00:00</time></trkpt><trkpt lat="44.522434" lon="33.997578"><ele>613.3</ele><time>2011-10-11T15:13:07.0000000+00:00</time></trkpt><trkpt lat="44.522442" lon="33.997509"><ele>612.2</ele><time>2011-10-11T15:13:12.0000000+00:00</time></trkpt><trkpt lat="44.522419" lon="33.99749"><ele>610.9</ele><time>2011-10-11T15:13:17.0000000+00:00</time></trkpt><trkpt lat="44.522408" lon="33.99744"><ele>609.5</ele><time>2011-10-11T15:13:22.0000000+00:00</time></trkpt><trkpt lat="44.522388" lon="33.997395"><ele>608.4</ele><time>2011-10-11T15:13:27.0000000+00:00</time></trkpt><trkpt lat="44.52232" lon="33.99733"><ele>607.0</ele><time>2011-10-11T15:13:32.0000000+00:00</time></trkpt><trkpt lat="44.52227" lon="33.997292"><ele>605.8</ele><time>2011-10-11T15:13:37.0000000+00:00</time></trkpt><trkpt lat="44.522221" lon="33.997257"><ele>604.3</ele><time>2011-10-11T15:13:42.0000000+00:00</time></trkpt><trkpt lat="44.522194" lon="33.997223"><ele>603.4</ele><time>2011-10-11T15:13:47.0000000+00:00</time></trkpt><trkpt lat="44.522179" lon="33.997215"><ele>602.7</ele><time>2011-10-11T15:13:52.0000000+00:00</time></trkpt><trkpt lat="44.52216" lon="33.997204"><ele>601.1</ele><time>2011-10-11T15:13:57.0000000+00:00</time></trkpt><trkpt lat="44.522148" lon="33.997173"><ele>599.5</ele><time>2011-10-11T15:14:02.0000000+00:00</time></trkpt><trkpt lat="44.522125" lon="33.997185"><ele>598.4</ele><time>2011-10-11T15:14:07.0000000+00:00</time></trkpt><trkpt lat="44.522083" lon="33.997192"><ele>597.8</ele><time>2011-10-11T15:14:12.0000000+00:00</time></trkpt><trkpt lat="44.522076" lon="33.997135"><ele>597.1</ele><time>2011-10-11T15:14:17.0000000+00:00</time></trkpt><trkpt lat="44.522011" lon="33.997139"><ele>595.8</ele><time>2011-10-11T15:14:22.0000000+00:00</time></trkpt><trkpt lat="44.52203" lon="33.997124"><ele>595.2</ele><time>2011-10-11T15:14:27.0000000+00:00</time></trkpt><trkpt lat="44.522026" lon="33.997124"><ele>595.1</ele><time>2011-10-11T15:14:32.0000000+00:00</time></trkpt><trkpt lat="44.522022" lon="33.997128"><ele>595.0</ele><time>2011-10-11T15:14:37.0000000+00:00</time></trkpt><trkpt lat="44.522011" lon="33.997139"><ele>594.4</ele><time>2011-10-11T15:14:42.0000000+00:00</time></trkpt><trkpt lat="44.522015" lon="33.997139"><ele>594.2</ele><time>2011-10-11T15:14:47.0000000+00:00</time></trkpt><trkpt lat="44.522011" lon="33.997143"><ele>594.2</ele><time>2011-10-11T15:14:52.0000000+00:00</time></trkpt><trkpt lat="44.522015" lon="33.997147"><ele>594.0</ele><time>2011-10-11T15:14:57.0000000+00:00</time></trkpt><trkpt lat="44.521996" lon="33.997242"><ele>592.6</ele><time>2011-10-11T15:15:02.0000000+00:00</time></trkpt><trkpt lat="44.521923" lon="33.997288"><ele>591.3</ele><time>2011-10-11T15:15:07.0000000+00:00</time></trkpt><trkpt lat="44.521835" lon="33.997311"><ele>590.1</ele><time>2011-10-11T15:15:12.0000000+00:00</time></trkpt><trkpt lat="44.521782" lon="33.997345"><ele>588.9</ele><time>2011-10-11T15:15:17.0000000+00:00</time></trkpt><trkpt lat="44.521702" lon="33.997383"><ele>587.8</ele><time>2011-10-11T15:15:22.0000000+00:00</time></trkpt><trkpt lat="44.521706" lon="33.997406"><ele>586.3</ele><time>2011-10-11T15:15:27.0000000+00:00</time></trkpt><trkpt lat="44.52179" lon="33.997345"><ele>583.9</ele><time>2011-10-11T15:15:32.0000000+00:00</time></trkpt><trkpt lat="44.521774" lon="33.997383"><ele>582.5</ele><time>2011-10-11T15:15:37.0000000+00:00</time></trkpt><trkpt lat="44.521729" lon="33.997387"><ele>580.9</ele><time>2011-10-11T15:15:42.0000000+00:00</time></trkpt><trkpt lat="44.521732" lon="33.997391"><ele>577.5</ele><time>2011-10-11T15:15:47.0000000+00:00</time></trkpt><trkpt lat="44.521736" lon="33.997444"><ele>576.0</ele><time>2011-10-11T15:15:52.0000000+00:00</time></trkpt><trkpt lat="44.521767" lon="33.997467"><ele>575.0</ele><time>2011-10-11T15:15:57.0000000+00:00</time></trkpt><trkpt lat="44.521786" lon="33.997478"><ele>574.4</ele><time>2011-10-11T15:16:02.0000000+00:00</time></trkpt><trkpt lat="44.521782" lon="33.997486"><ele>574.4</ele><time>2011-10-11T15:16:07.0000000+00:00</time></trkpt><trkpt lat="44.521786" lon="33.99749"><ele>574.3</ele><time>2011-10-11T15:16:12.0000000+00:00</time></trkpt><trkpt lat="44.521786" lon="33.997494"><ele>574.2</ele><time>2011-10-11T15:16:17.0000000+00:00</time></trkpt><trkpt lat="44.521755" lon="33.997482"><ele>573.1</ele><time>2011-10-11T15:16:22.0000000+00:00</time></trkpt><trkpt lat="44.521751" lon="33.997524"><ele>572.0</ele><time>2011-10-11T15:16:27.0000000+00:00</time></trkpt><trkpt lat="44.521717" lon="33.997543"><ele>570.3</ele><time>2011-10-11T15:16:32.0000000+00:00</time></trkpt><trkpt lat="44.521725" lon="33.997604"><ele>569.2</ele><time>2011-10-11T15:16:37.0000000+00:00</time></trkpt><trkpt lat="44.521706" lon="33.997612"><ele>568.6</ele><time>2011-10-11T15:16:42.0000000+00:00</time></trkpt><trkpt lat="44.521687" lon="33.997616"><ele>567.7</ele><time>2011-10-11T15:16:47.0000000+00:00</time></trkpt><trkpt lat="44.521683" lon="33.997658"><ele>567.2</ele><time>2011-10-11T15:16:52.0000000+00:00</time></trkpt><trkpt lat="44.52169" lon="33.997704"><ele>566.4</ele><time>2011-10-11T15:16:57.0000000+00:00</time></trkpt><trkpt lat="44.52169" lon="33.997738"><ele>565.8</ele><time>2011-10-11T15:17:02.0000000+00:00</time></trkpt><trkpt lat="44.521717" lon="33.997787"><ele>564.9</ele><time>2011-10-11T15:17:07.0000000+00:00</time></trkpt><trkpt lat="44.521721" lon="33.997833"><ele>563.4</ele><time>2011-10-11T15:17:12.0000000+00:00</time></trkpt><trkpt lat="44.521709" lon="33.997845"><ele>562.4</ele><time>2011-10-11T15:17:17.0000000+00:00</time></trkpt><trkpt lat="44.521713" lon="33.997841"><ele>560.9</ele><time>2011-10-11T15:17:22.0000000+00:00</time></trkpt><trkpt lat="44.521713" lon="33.997868"><ele>559.7</ele><time>2011-10-11T15:17:27.0000000+00:00</time></trkpt><trkpt lat="44.521709" lon="33.997898"><ele>559.2</ele><time>2011-10-11T15:17:32.0000000+00:00</time></trkpt><trkpt lat="44.521725" lon="33.997936"><ele>558.5</ele><time>2011-10-11T15:17:37.0000000+00:00</time></trkpt><trkpt lat="44.521706" lon="33.99799"><ele>557.4</ele><time>2011-10-11T15:17:42.0000000+00:00</time></trkpt><trkpt lat="44.521675" lon="33.998016"><ele>556.0</ele><time>2011-10-11T15:17:47.0000000+00:00</time></trkpt><trkpt lat="44.521645" lon="33.998016"><ele>555.3</ele><time>2011-10-11T15:17:52.0000000+00:00</time></trkpt><trkpt lat="44.521599" lon="33.998055"><ele>554.2</ele><time>2011-10-11T15:17:57.0000000+00:00</time></trkpt><trkpt lat="44.521564" lon="33.998077"><ele>552.9</ele><time>2011-10-11T15:18:02.0000000+00:00</time></trkpt><trkpt lat="44.521503" lon="33.998047"><ele>551.1</ele><time>2011-10-11T15:18:07.0000000+00:00</time></trkpt><trkpt lat="44.521503" lon="33.998039"><ele>550.7</ele><time>2011-10-11T15:18:12.0000000+00:00</time></trkpt><trkpt lat="44.521461" lon="33.998085"><ele>549.9</ele><time>2011-10-11T15:18:17.0000000+00:00</time></trkpt><trkpt lat="44.52137" lon="33.998081"><ele>547.8</ele><time>2011-10-11T15:18:22.0000000+00:00</time></trkpt><trkpt lat="44.521358" lon="33.9981"><ele>546.8</ele><time>2011-10-11T15:18:27.0000000+00:00</time></trkpt><trkpt lat="44.521374" lon="33.998108"><ele>546.2</ele><time>2011-10-11T15:18:32.0000000+00:00</time></trkpt><trkpt lat="44.521351" lon="33.998108"><ele>544.8</ele><time>2011-10-11T15:18:37.0000000+00:00</time></trkpt><trkpt lat="44.521324" lon="33.998104"><ele>542.9</ele><time>2011-10-11T15:18:42.0000000+00:00</time></trkpt><trkpt lat="44.521343" lon="33.998119"><ele>541.7</ele><time>2011-10-11T15:18:47.0000000+00:00</time></trkpt><trkpt lat="44.521305" lon="33.998203"><ele>540.3</ele><time>2011-10-11T15:18:52.0000000+00:00</time></trkpt><trkpt lat="44.521275" lon="33.998215"><ele>539.1</ele><time>2011-10-11T15:18:57.0000000+00:00</time></trkpt><trkpt lat="44.52124" lon="33.998211"><ele>537.8</ele><time>2011-10-11T15:19:02.0000000+00:00</time></trkpt><trkpt lat="44.521271" lon="33.998135"><ele>535.6</ele><time>2011-10-11T15:19:07.0000000+00:00</time></trkpt><trkpt lat="44.521263" lon="33.998177"><ele>534.3</ele><time>2011-10-11T15:19:12.0000000+00:00</time></trkpt><trkpt lat="44.521217" lon="33.998192"><ele>532.5</ele><time>2011-10-11T15:19:17.0000000+00:00</time></trkpt><trkpt lat="44.521168" lon="33.998226"><ele>531.1</ele><time>2011-10-11T15:19:22.0000000+00:00</time></trkpt><trkpt lat="44.521122" lon="33.998199"><ele>529.3</ele><time>2011-10-11T15:19:27.0000000+00:00</time></trkpt><trkpt lat="44.521107" lon="33.998184"><ele>528.3</ele><time>2011-10-11T15:19:32.0000000+00:00</time></trkpt><trkpt lat="44.521057" lon="33.998169"><ele>527.3</ele><time>2011-10-11T15:19:37.0000000+00:00</time></trkpt><trkpt lat="44.520981" lon="33.998177"><ele>526.2</ele><time>2011-10-11T15:19:42.0000000+00:00</time></trkpt><trkpt lat="44.520943" lon="33.998119"><ele>525.3</ele><time>2011-10-11T15:19:47.0000000+00:00</time></trkpt><trkpt lat="44.520924" lon="33.998028"><ele>524.6</ele><time>2011-10-11T15:19:52.0000000+00:00</time></trkpt><trkpt lat="44.520897" lon="33.997974"><ele>523.7</ele><time>2011-10-11T15:19:57.0000000+00:00</time></trkpt><trkpt lat="44.520863" lon="33.997887"><ele>522.2</ele><time>2011-10-11T15:20:02.0000000+00:00</time></trkpt><trkpt lat="44.520866" lon="33.997837"><ele>520.3</ele><time>2011-10-11T15:20:07.0000000+00:00</time></trkpt><trkpt lat="44.520863" lon="33.997841"><ele>520.0</ele><time>2011-10-11T15:20:12.0000000+00:00</time></trkpt><trkpt lat="44.520866" lon="33.997837"><ele>520.0</ele><time>2011-10-11T15:20:17.0000000+00:00</time></trkpt><trkpt lat="44.520866" lon="33.997845"><ele>519.8</ele><time>2011-10-11T15:20:22.0000000+00:00</time></trkpt><trkpt lat="44.520863" lon="33.997829"><ele>517.6</ele><time>2011-10-11T15:20:27.0000000+00:00</time></trkpt><trkpt lat="44.520889" lon="33.997791"><ele>514.4</ele><time>2011-10-11T15:20:32.0000000+00:00</time></trkpt><trkpt lat="44.520893" lon="33.99786"><ele>512.3</ele><time>2011-10-11T15:20:37.0000000+00:00</time></trkpt><trkpt lat="44.520847" lon="33.997871"><ele>511.0</ele><time>2011-10-11T15:20:42.0000000+00:00</time></trkpt><trkpt lat="44.520832" lon="33.997845"><ele>510.3</ele><time>2011-10-11T15:20:47.0000000+00:00</time></trkpt><trkpt lat="44.520802" lon="33.997791"><ele>509.8</ele><time>2011-10-11T15:20:52.0000000+00:00</time></trkpt><trkpt lat="44.520813" lon="33.997707"><ele>510.1</ele><time>2011-10-11T15:20:57.0000000+00:00</time></trkpt><trkpt lat="44.52084" lon="33.997631"><ele>510.6</ele><time>2011-10-11T15:21:02.0000000+00:00</time></trkpt><trkpt lat="44.520821" lon="33.997585"><ele>511.4</ele><time>2011-10-11T15:21:07.0000000+00:00</time></trkpt><trkpt lat="44.520794" lon="33.997509"><ele>512.9</ele><time>2011-10-11T15:21:12.0000000+00:00</time></trkpt><trkpt lat="44.520744" lon="33.997433"><ele>513.7</ele><time>2011-10-11T15:21:17.0000000+00:00</time></trkpt><trkpt lat="44.520721" lon="33.997341"><ele>514.3</ele><time>2011-10-11T15:21:22.0000000+00:00</time></trkpt><trkpt lat="44.520683" lon="33.997288"><ele>515.0</ele><time>2011-10-11T15:21:27.0000000+00:00</time></trkpt><trkpt lat="44.520622" lon="33.997238"><ele>515.8</ele><time>2011-10-11T15:21:32.0000000+00:00</time></trkpt><trkpt lat="44.520561" lon="33.9972"><ele>516.2</ele><time>2011-10-11T15:21:37.0000000+00:00</time></trkpt><trkpt lat="44.520519" lon="33.997147"><ele>517.0</ele><time>2011-10-11T15:21:42.0000000+00:00</time></trkpt><trkpt lat="44.520466" lon="33.997124"><ele>517.7</ele><time>2011-10-11T15:21:47.0000000+00:00</time></trkpt><trkpt lat="44.520405" lon="33.997089"><ele>518.6</ele><time>2011-10-11T15:21:52.0000000+00:00</time></trkpt><trkpt lat="44.52034" lon="33.997059"><ele>519.4</ele><time>2011-10-11T15:21:57.0000000+00:00</time></trkpt><trkpt lat="44.520325" lon="33.997005"><ele>520.2</ele><time>2011-10-11T15:22:02.0000000+00:00</time></trkpt><trkpt lat="44.52029" lon="33.996975"><ele>520.3</ele><time>2011-10-11T15:22:07.0000000+00:00</time></trkpt><trkpt lat="44.520252" lon="33.996906"><ele>520.3</ele><time>2011-10-11T15:22:12.0000000+00:00</time></trkpt><trkpt lat="44.520187" lon="33.99688"><ele>520.7</ele><time>2011-10-11T15:22:17.0000000+00:00</time></trkpt><trkpt lat="44.520126" lon="33.996838"><ele>521.1</ele><time>2011-10-11T15:22:22.0000000+00:00</time></trkpt><trkpt lat="44.5201" lon="33.996807"><ele>521.4</ele><time>2011-10-11T15:22:27.0000000+00:00</time></trkpt><trkpt lat="44.520042" lon="33.996777"><ele>521.9</ele><time>2011-10-11T15:22:32.0000000+00:00</time></trkpt><trkpt lat="44.519978" lon="33.996738"><ele>523.0</ele><time>2011-10-11T15:22:37.0000000+00:00</time></trkpt><trkpt lat="44.519939" lon="33.996655"><ele>523.2</ele><time>2011-10-11T15:22:42.0000000+00:00</time></trkpt><trkpt lat="44.519928" lon="33.996571"><ele>524.3</ele><time>2011-10-11T15:22:47.0000000+00:00</time></trkpt><trkpt lat="44.519917" lon="33.996487"><ele>526.0</ele><time>2011-10-11T15:22:52.0000000+00:00</time></trkpt><trkpt lat="44.519882" lon="33.996407"><ele>526.7</ele><time>2011-10-11T15:22:57.0000000+00:00</time></trkpt><trkpt lat="44.519844" lon="33.996277"><ele>524.2</ele><time>2011-10-11T15:23:02.0000000+00:00</time></trkpt><trkpt lat="44.519871" lon="33.996166"><ele>523.7</ele><time>2011-10-11T15:23:07.0000000+00:00</time></trkpt><trkpt lat="44.519859" lon="33.99609"><ele>522.7</ele><time>2011-10-11T15:23:12.0000000+00:00</time></trkpt><trkpt lat="44.51984" lon="33.996029"><ele>520.9</ele><time>2011-10-11T15:23:17.0000000+00:00</time></trkpt><trkpt lat="44.51981" lon="33.995979"><ele>519.1</ele><time>2011-10-11T15:23:22.0000000+00:00</time></trkpt><trkpt lat="44.519794" lon="33.995949"><ele>517.7</ele><time>2011-10-11T15:23:27.0000000+00:00</time></trkpt><trkpt lat="44.519791" lon="33.995846"><ele>516.1</ele><time>2011-10-11T15:23:32.0000000+00:00</time></trkpt><trkpt lat="44.519772" lon="33.995773"><ele>514.3</ele><time>2011-10-11T15:23:37.0000000+00:00</time></trkpt><trkpt lat="44.519794" lon="33.995716"><ele>513.1</ele><time>2011-10-11T15:23:42.0000000+00:00</time></trkpt><trkpt lat="44.519833" lon="33.995598"><ele>512.2</ele><time>2011-10-11T15:23:47.0000000+00:00</time></trkpt><trkpt lat="44.519844" lon="33.995457"><ele>511.1</ele><time>2011-10-11T15:23:52.0000000+00:00</time></trkpt><trkpt lat="44.519852" lon="33.995373"><ele>510.1</ele><time>2011-10-11T15:23:57.0000000+00:00</time></trkpt><trkpt lat="44.519859" lon="33.995281"><ele>509.2</ele><time>2011-10-11T15:24:02.0000000+00:00</time></trkpt><trkpt lat="44.519901" lon="33.995232"><ele>507.7</ele><time>2011-10-11T15:24:07.0000000+00:00</time></trkpt><trkpt lat="44.519901" lon="33.995171"><ele>507.9</ele><time>2011-10-11T15:24:12.0000000+00:00</time></trkpt><trkpt lat="44.519905" lon="33.995117"><ele>507.6</ele><time>2011-10-11T15:24:17.0000000+00:00</time></trkpt><trkpt lat="44.519917" lon="33.995064"><ele>507.5</ele><time>2011-10-11T15:24:22.0000000+00:00</time></trkpt><trkpt lat="44.519943" lon="33.994953"><ele>508.0</ele><time>2011-10-11T15:24:27.0000000+00:00</time></trkpt><trkpt lat="44.519928" lon="33.994843"><ele>508.2</ele><time>2011-10-11T15:24:32.0000000+00:00</time></trkpt><trkpt lat="44.519913" lon="33.99474"><ele>508.6</ele><time>2011-10-11T15:24:37.0000000+00:00</time></trkpt><trkpt lat="44.519943" lon="33.994667"><ele>509.6</ele><time>2011-10-11T15:24:42.0000000+00:00</time></trkpt><trkpt lat="44.520008" lon="33.994583"><ele>510.0</ele><time>2011-10-11T15:24:47.0000000+00:00</time></trkpt><trkpt lat="44.520031" lon="33.994499"><ele>509.7</ele><time>2011-10-11T15:24:52.0000000+00:00</time></trkpt><trkpt lat="44.52005" lon="33.99445"><ele>509.2</ele><time>2011-10-11T15:24:57.0000000+00:00</time></trkpt><trkpt lat="44.520061" lon="33.994385"><ele>509.0</ele><time>2011-10-11T15:25:02.0000000+00:00</time></trkpt><trkpt lat="44.520088" lon="33.994305"><ele>508.8</ele><time>2011-10-11T15:25:07.0000000+00:00</time></trkpt><trkpt lat="44.520134" lon="33.994183"><ele>509.4</ele><time>2011-10-11T15:25:12.0000000+00:00</time></trkpt><trkpt lat="44.520153" lon="33.994118"><ele>509.5</ele><time>2011-10-11T15:25:17.0000000+00:00</time></trkpt><trkpt lat="44.520203" lon="33.993912"><ele>511.2</ele><time>2011-10-11T15:25:22.0000000+00:00</time></trkpt><trkpt lat="44.520206" lon="33.993805"><ele>511.8</ele><time>2011-10-11T15:25:27.0000000+00:00</time></trkpt><trkpt lat="44.520237" lon="33.993679"><ele>512.6</ele><time>2011-10-11T15:25:32.0000000+00:00</time></trkpt><trkpt lat="44.520256" lon="33.993576"><ele>514.1</ele><time>2011-10-11T15:25:37.0000000+00:00</time></trkpt><trkpt lat="44.520226" lon="33.993484"><ele>516.1</ele><time>2011-10-11T15:25:42.0000000+00:00</time></trkpt><trkpt lat="44.52021" lon="33.99342"><ele>517.9</ele><time>2011-10-11T15:25:47.0000000+00:00</time></trkpt><trkpt lat="44.520195" lon="33.993324"><ele>519.6</ele><time>2011-10-11T15:25:52.0000000+00:00</time></trkpt><trkpt lat="44.520176" lon="33.993233"><ele>521.5</ele><time>2011-10-11T15:25:57.0000000+00:00</time></trkpt><trkpt lat="44.520176" lon="33.993149"><ele>523.9</ele><time>2011-10-11T15:26:02.0000000+00:00</time></trkpt><trkpt lat="44.520187" lon="33.993076"><ele>524.8</ele><time>2011-10-11T15:26:07.0000000+00:00</time></trkpt><trkpt lat="44.520149" lon="33.993023"><ele>526.9</ele><time>2011-10-11T15:26:12.0000000+00:00</time></trkpt><trkpt lat="44.520134" lon="33.992935"><ele>526.2</ele><time>2011-10-11T15:26:17.0000000+00:00</time></trkpt><trkpt lat="44.520077" lon="33.992825"><ele>524.1</ele><time>2011-10-11T15:26:22.0000000+00:00</time></trkpt><trkpt lat="44.520088" lon="33.992752"><ele>523.6</ele><time>2011-10-11T15:26:27.0000000+00:00</time></trkpt><trkpt lat="44.520111" lon="33.992687"><ele>523.8</ele><time>2011-10-11T15:26:32.0000000+00:00</time></trkpt><trkpt lat="44.520149" lon="33.992611"><ele>523.9</ele><time>2011-10-11T15:26:37.0000000+00:00</time></trkpt><trkpt lat="44.520214" lon="33.992546"><ele>523.8</ele><time>2011-10-11T15:26:42.0000000+00:00</time></trkpt><trkpt lat="44.520271" lon="33.99247"><ele>523.7</ele><time>2011-10-11T15:26:47.0000000+00:00</time></trkpt><trkpt lat="44.520355" lon="33.992443"><ele>524.3</ele><time>2011-10-11T15:26:52.0000000+00:00</time></trkpt><trkpt lat="44.520416" lon="33.992401"><ele>524.3</ele><time>2011-10-11T15:26:57.0000000+00:00</time></trkpt><trkpt lat="44.520477" lon="33.992352"><ele>524.0</ele><time>2011-10-11T15:27:02.0000000+00:00</time></trkpt><trkpt lat="44.520515" lon="33.992325"><ele>524.2</ele><time>2011-10-11T15:27:07.0000000+00:00</time></trkpt><trkpt lat="44.520527" lon="33.992287"><ele>524.1</ele><time>2011-10-11T15:27:12.0000000+00:00</time></trkpt><trkpt lat="44.520599" lon="33.992226"><ele>523.6</ele><time>2011-10-11T15:27:17.0000000+00:00</time></trkpt><trkpt lat="44.520649" lon="33.992222"><ele>523.4</ele><time>2011-10-11T15:27:22.0000000+00:00</time></trkpt><trkpt lat="44.520657" lon="33.992218"><ele>523.6</ele><time>2011-10-11T15:27:27.0000000+00:00</time></trkpt><trkpt lat="44.520664" lon="33.992214"><ele>523.2</ele><time>2011-10-11T15:27:32.0000000+00:00</time></trkpt><trkpt lat="44.520649" lon="33.992191"><ele>523.0</ele><time>2011-10-11T15:27:37.0000000+00:00</time></trkpt><trkpt lat="44.520733" lon="33.99213"><ele>522.4</ele><time>2011-10-11T15:27:42.0000000+00:00</time></trkpt><trkpt lat="44.520763" lon="33.992035"><ele>521.7</ele><time>2011-10-11T15:27:47.0000000+00:00</time></trkpt><trkpt lat="44.520775" lon="33.992043"><ele>521.0</ele><time>2011-10-11T15:27:52.0000000+00:00</time></trkpt><trkpt lat="44.520744" lon="33.992008"><ele>520.2</ele><time>2011-10-11T15:27:57.0000000+00:00</time></trkpt><trkpt lat="44.520718" lon="33.991943"><ele>519.8</ele><time>2011-10-11T15:28:02.0000000+00:00</time></trkpt><trkpt lat="44.520683" lon="33.991901"><ele>518.7</ele><time>2011-10-11T15:28:07.0000000+00:00</time></trkpt><trkpt lat="44.520668" lon="33.991875"><ele>517.6</ele><time>2011-10-11T15:28:12.0000000+00:00</time></trkpt><trkpt lat="44.520649" lon="33.991844"><ele>517.0</ele><time>2011-10-11T15:28:17.0000000+00:00</time></trkpt><trkpt lat="44.520653" lon="33.99181"><ele>516.6</ele><time>2011-10-11T15:28:22.0000000+00:00</time></trkpt><trkpt lat="44.520645" lon="33.991764"><ele>516.0</ele><time>2011-10-11T15:28:27.0000000+00:00</time></trkpt><trkpt lat="44.520607" lon="33.991726"><ele>514.4</ele><time>2011-10-11T15:28:32.0000000+00:00</time></trkpt><trkpt lat="44.520607" lon="33.991653"><ele>512.5</ele><time>2011-10-11T15:28:37.0000000+00:00</time></trkpt><trkpt lat="44.52058" lon="33.991627"><ele>511.0</ele><time>2011-10-11T15:28:42.0000000+00:00</time></trkpt><trkpt lat="44.520611" lon="33.991554"><ele>510.7</ele><time>2011-10-11T15:28:47.0000000+00:00</time></trkpt><trkpt lat="44.520592" lon="33.991547"><ele>510.7</ele><time>2011-10-11T15:28:52.0000000+00:00</time></trkpt><trkpt lat="44.520573" lon="33.991524"><ele>509.5</ele><time>2011-10-11T15:28:57.0000000+00:00</time></trkpt><trkpt lat="44.520546" lon="33.991474"><ele>508.5</ele><time>2011-10-11T15:29:02.0000000+00:00</time></trkpt><trkpt lat="44.520535" lon="33.991444"><ele>507.9</ele><time>2011-10-11T15:29:07.0000000+00:00</time></trkpt><trkpt lat="44.520523" lon="33.991421"><ele>507.7</ele><time>2011-10-11T15:29:12.0000000+00:00</time></trkpt><trkpt lat="44.520515" lon="33.991394"><ele>507.5</ele><time>2011-10-11T15:29:17.0000000+00:00</time></trkpt><trkpt lat="44.520512" lon="33.991402"><ele>505.7</ele><time>2011-10-11T15:29:22.0000000+00:00</time></trkpt><trkpt lat="44.520519" lon="33.991367"><ele>504.7</ele><time>2011-10-11T15:29:27.0000000+00:00</time></trkpt><trkpt lat="44.520515" lon="33.99131"><ele>502.7</ele><time>2011-10-11T15:29:32.0000000+00:00</time></trkpt><trkpt lat="44.520519" lon="33.99128"><ele>501.9</ele><time>2011-10-11T15:29:37.0000000+00:00</time></trkpt><trkpt lat="44.520519" lon="33.991261"><ele>501.3</ele><time>2011-10-11T15:29:42.0000000+00:00</time></trkpt><trkpt lat="44.520512" lon="33.991253"><ele>501.2</ele><time>2011-10-11T15:29:47.0000000+00:00</time></trkpt><trkpt lat="44.520512" lon="33.991241"><ele>501.1</ele><time>2011-10-11T15:29:52.0000000+00:00</time></trkpt><trkpt lat="44.520493" lon="33.991199"><ele>500.4</ele><time>2011-10-11T15:29:57.0000000+00:00</time></trkpt><trkpt lat="44.5205" lon="33.991184"><ele>500.3</ele><time>2011-10-11T15:30:02.0000000+00:00</time></trkpt><trkpt lat="44.5205" lon="33.991142"><ele>500.3</ele><time>2011-10-11T15:30:07.0000000+00:00</time></trkpt><trkpt lat="44.520447" lon="33.991104"><ele>499.0</ele><time>2011-10-11T15:30:12.0000000+00:00</time></trkpt><trkpt lat="44.520412" lon="33.991043"><ele>498.2</ele><time>2011-10-11T15:30:17.0000000+00:00</time></trkpt><trkpt lat="44.520409" lon="33.990925"><ele>496.2</ele><time>2011-10-11T15:30:22.0000000+00:00</time></trkpt><trkpt lat="44.520432" lon="33.990841"><ele>494.9</ele><time>2011-10-11T15:30:27.0000000+00:00</time></trkpt><trkpt lat="44.520481" lon="33.990818"><ele>494.8</ele><time>2011-10-11T15:30:32.0000000+00:00</time></trkpt><trkpt lat="44.520561" lon="33.990704"><ele>492.3</ele><time>2011-10-11T15:30:37.0000000+00:00</time></trkpt><trkpt lat="44.520557" lon="33.990662"><ele>490.9</ele><time>2011-10-11T15:30:42.0000000+00:00</time></trkpt><trkpt lat="44.520565" lon="33.990673"><ele>490.1</ele><time>2011-10-11T15:30:47.0000000+00:00</time></trkpt><trkpt lat="44.52055" lon="33.990654"><ele>489.8</ele><time>2011-10-11T15:30:52.0000000+00:00</time></trkpt><trkpt lat="44.520523" lon="33.990639"><ele>488.5</ele><time>2011-10-11T15:30:57.0000000+00:00</time></trkpt><trkpt lat="44.520504" lon="33.990612"><ele>487.9</ele><time>2011-10-11T15:31:02.0000000+00:00</time></trkpt><trkpt lat="44.520489" lon="33.990593"><ele>487.4</ele><time>2011-10-11T15:31:07.0000000+00:00</time></trkpt><trkpt lat="44.520523" lon="33.990559"><ele>487.8</ele><time>2011-10-11T15:31:12.0000000+00:00</time></trkpt><trkpt lat="44.520519" lon="33.990528"><ele>487.9</ele><time>2011-10-11T15:31:17.0000000+00:00</time></trkpt><trkpt lat="44.520512" lon="33.990524"><ele>487.9</ele><time>2011-10-11T15:31:22.0000000+00:00</time></trkpt><trkpt lat="44.520515" lon="33.990482"><ele>487.9</ele><time>2011-10-11T15:31:27.0000000+00:00</time></trkpt><trkpt lat="44.520508" lon="33.990437"><ele>487.8</ele><time>2011-10-11T15:31:32.0000000+00:00</time></trkpt><trkpt lat="44.520485" lon="33.990376"><ele>487.4</ele><time>2011-10-11T15:31:37.0000000+00:00</time></trkpt><trkpt lat="44.52047" lon="33.990326"><ele>487.0</ele><time>2011-10-11T15:31:42.0000000+00:00</time></trkpt><trkpt lat="44.520473" lon="33.990299"><ele>486.5</ele><time>2011-10-11T15:31:47.0000000+00:00</time></trkpt><trkpt lat="44.520435" lon="33.990192"><ele>485.8</ele><time>2011-10-11T15:31:52.0000000+00:00</time></trkpt><trkpt lat="44.520397" lon="33.990124"><ele>484.7</ele><time>2011-10-11T15:31:57.0000000+00:00</time></trkpt><trkpt lat="44.520397" lon="33.990082"><ele>484.1</ele><time>2011-10-11T15:32:02.0000000+00:00</time></trkpt><trkpt lat="44.520401" lon="33.990067"><ele>483.7</ele><time>2011-10-11T15:32:07.0000000+00:00</time></trkpt><trkpt lat="44.520374" lon="33.990036"><ele>483.2</ele><time>2011-10-11T15:32:12.0000000+00:00</time></trkpt><trkpt lat="44.520382" lon="33.98999"><ele>482.5</ele><time>2011-10-11T15:32:17.0000000+00:00</time></trkpt><trkpt lat="44.52037" lon="33.989944"><ele>482.0</ele><time>2011-10-11T15:32:22.0000000+00:00</time></trkpt><trkpt lat="44.520363" lon="33.989933"><ele>481.9</ele><time>2011-10-11T15:32:27.0000000+00:00</time></trkpt><trkpt lat="44.520359" lon="33.989887"><ele>481.7</ele><time>2011-10-11T15:32:32.0000000+00:00</time></trkpt><trkpt lat="44.520344" lon="33.989822"><ele>481.1</ele><time>2011-10-11T15:32:37.0000000+00:00</time></trkpt><trkpt lat="44.520382" lon="33.989765"><ele>480.6</ele><time>2011-10-11T15:32:42.0000000+00:00</time></trkpt><trkpt lat="44.52042" lon="33.989746"><ele>479.9</ele><time>2011-10-11T15:32:47.0000000+00:00</time></trkpt><trkpt lat="44.52042" lon="33.989704"><ele>479.7</ele><time>2011-10-11T15:32:52.0000000+00:00</time></trkpt><trkpt lat="44.52042" lon="33.989666"><ele>479.9</ele><time>2011-10-11T15:32:57.0000000+00:00</time></trkpt><trkpt lat="44.520393" lon="33.989632"><ele>479.8</ele><time>2011-10-11T15:33:02.0000000+00:00</time></trkpt><trkpt lat="44.52037" lon="33.989601"><ele>479.1</ele><time>2011-10-11T15:33:07.0000000+00:00</time></trkpt><trkpt lat="44.520336" lon="33.989574"><ele>478.6</ele><time>2011-10-11T15:33:12.0000000+00:00</time></trkpt><trkpt lat="44.520321" lon="33.989548"><ele>478.3</ele><time>2011-10-11T15:33:17.0000000+00:00</time></trkpt><trkpt lat="44.520302" lon="33.989502"><ele>477.6</ele><time>2011-10-11T15:33:22.0000000+00:00</time></trkpt><trkpt lat="44.52026" lon="33.989437"><ele>477.0</ele><time>2011-10-11T15:33:27.0000000+00:00</time></trkpt><trkpt lat="44.520222" lon="33.989372"><ele>476.2</ele><time>2011-10-11T15:33:32.0000000+00:00</time></trkpt><trkpt lat="44.520161" lon="33.989311"><ele>475.0</ele><time>2011-10-11T15:33:37.0000000+00:00</time></trkpt><trkpt lat="44.520115" lon="33.989254"><ele>473.6</ele><time>2011-10-11T15:33:42.0000000+00:00</time></trkpt><trkpt lat="44.520081" lon="33.989208"><ele>473.0</ele><time>2011-10-11T15:33:47.0000000+00:00</time></trkpt><trkpt lat="44.520058" lon="33.98917"><ele>472.4</ele><time>2011-10-11T15:33:52.0000000+00:00</time></trkpt><trkpt lat="44.520027" lon="33.989117"><ele>471.9</ele><time>2011-10-11T15:33:57.0000000+00:00</time></trkpt><trkpt lat="44.519997" lon="33.989098"><ele>471.3</ele><time>2011-10-11T15:34:02.0000000+00:00</time></trkpt><trkpt lat="44.519989" lon="33.989063"><ele>470.5</ele><time>2011-10-11T15:34:07.0000000+00:00</time></trkpt><trkpt lat="44.519966" lon="33.989025"><ele>470.5</ele><time>2011-10-11T15:34:12.0000000+00:00</time></trkpt><trkpt lat="44.519958" lon="33.98901"><ele>469.9</ele><time>2011-10-11T15:34:17.0000000+00:00</time></trkpt><trkpt lat="44.519955" lon="33.988995"><ele>469.9</ele><time>2011-10-11T15:34:22.0000000+00:00</time></trkpt><trkpt lat="44.519909" lon="33.988937"><ele>469.2</ele><time>2011-10-11T15:34:27.0000000+00:00</time></trkpt><trkpt lat="44.519871" lon="33.988884"><ele>468.0</ele><time>2011-10-11T15:34:32.0000000+00:00</time></trkpt><trkpt lat="44.519821" lon="33.988808"><ele>466.2</ele><time>2011-10-11T15:34:37.0000000+00:00</time></trkpt><trkpt lat="44.519806" lon="33.988743"><ele>464.8</ele><time>2011-10-11T15:34:42.0000000+00:00</time></trkpt><trkpt lat="44.519772" lon="33.988678"><ele>463.6</ele><time>2011-10-11T15:34:47.0000000+00:00</time></trkpt><trkpt lat="44.519745" lon="33.988613"><ele>462.6</ele><time>2011-10-11T15:34:52.0000000+00:00</time></trkpt><trkpt lat="44.519703" lon="33.988522"><ele>461.3</ele><time>2011-10-11T15:34:57.0000000+00:00</time></trkpt><trkpt lat="44.519707" lon="33.988476"><ele>460.7</ele><time>2011-10-11T15:35:02.0000000+00:00</time></trkpt><trkpt lat="44.519657" lon="33.988392"><ele>459.9</ele><time>2011-10-11T15:35:07.0000000+00:00</time></trkpt><trkpt lat="44.519627" lon="33.988316"><ele>458.5</ele><time>2011-10-11T15:35:12.0000000+00:00</time></trkpt><trkpt lat="44.519611" lon="33.98822"><ele>456.7</ele><time>2011-10-11T15:35:17.0000000+00:00</time></trkpt><trkpt lat="44.519585" lon="33.988136"><ele>455.3</ele><time>2011-10-11T15:35:22.0000000+00:00</time></trkpt><trkpt lat="44.519588" lon="33.988045"><ele>454.2</ele><time>2011-10-11T15:35:27.0000000+00:00</time></trkpt><trkpt lat="44.51955" lon="33.987984"><ele>453.5</ele><time>2011-10-11T15:35:32.0000000+00:00</time></trkpt><trkpt lat="44.519554" lon="33.987907"><ele>453.4</ele><time>2011-10-11T15:35:37.0000000+00:00</time></trkpt><trkpt lat="44.519516" lon="33.987812"><ele>452.9</ele><time>2011-10-11T15:35:42.0000000+00:00</time></trkpt><trkpt lat="44.519497" lon="33.987755"><ele>451.7</ele><time>2011-10-11T15:35:47.0000000+00:00</time></trkpt><trkpt lat="44.519482" lon="33.987701"><ele>450.2</ele><time>2011-10-11T15:35:52.0000000+00:00</time></trkpt><trkpt lat="44.519478" lon="33.987648"><ele>449.9</ele><time>2011-10-11T15:35:57.0000000+00:00</time></trkpt><trkpt lat="44.519451" lon="33.987564"><ele>449.3</ele><time>2011-10-11T15:36:02.0000000+00:00</time></trkpt><trkpt lat="44.519451" lon="33.987492"><ele>448.2</ele><time>2011-10-11T15:36:07.0000000+00:00</time></trkpt><trkpt lat="44.519432" lon="33.987396"><ele>447.4</ele><time>2011-10-11T15:36:12.0000000+00:00</time></trkpt><trkpt lat="44.519421" lon="33.987301"><ele>447.2</ele><time>2011-10-11T15:36:17.0000000+00:00</time></trkpt><trkpt lat="44.519424" lon="33.987202"><ele>446.7</ele><time>2011-10-11T15:36:22.0000000+00:00</time></trkpt><trkpt lat="44.519394" lon="33.987114"><ele>445.8</ele><time>2011-10-11T15:36:27.0000000+00:00</time></trkpt><trkpt lat="44.519375" lon="33.98703"><ele>445.5</ele><time>2011-10-11T15:36:32.0000000+00:00</time></trkpt><trkpt lat="44.519344" lon="33.986935"><ele>444.6</ele><time>2011-10-11T15:36:37.0000000+00:00</time></trkpt><trkpt lat="44.519356" lon="33.986843"><ele>444.7</ele><time>2011-10-11T15:36:42.0000000+00:00</time></trkpt><trkpt lat="44.519386" lon="33.986755"><ele>444.7</ele><time>2011-10-11T15:36:47.0000000+00:00</time></trkpt><trkpt lat="44.519375" lon="33.986664"><ele>444.1</ele><time>2011-10-11T15:36:52.0000000+00:00</time></trkpt><trkpt lat="44.519371" lon="33.986561"><ele>443.6</ele><time>2011-10-11T15:36:57.0000000+00:00</time></trkpt><trkpt lat="44.519367" lon="33.986485"><ele>443.3</ele><time>2011-10-11T15:37:02.0000000+00:00</time></trkpt><trkpt lat="44.519371" lon="33.986397"><ele>442.3</ele><time>2011-10-11T15:37:07.0000000+00:00</time></trkpt><trkpt lat="44.519314" lon="33.986309"><ele>442.7</ele><time>2011-10-11T15:37:12.0000000+00:00</time></trkpt><trkpt lat="44.519295" lon="33.986263"><ele>442.4</ele><time>2011-10-11T15:37:17.0000000+00:00</time></trkpt><trkpt lat="44.519287" lon="33.986195"><ele>442.9</ele><time>2011-10-11T15:37:22.0000000+00:00</time></trkpt><trkpt lat="44.519295" lon="33.986145"><ele>442.8</ele><time>2011-10-11T15:37:27.0000000+00:00</time></trkpt><trkpt lat="44.519295" lon="33.986111"><ele>442.7</ele><time>2011-10-11T15:37:32.0000000+00:00</time></trkpt><trkpt lat="44.519295" lon="33.986107"><ele>442.8</ele><time>2011-10-11T15:37:37.0000000+00:00</time></trkpt><trkpt lat="44.519321" lon="33.986042"><ele>442.1</ele><time>2011-10-11T15:37:42.0000000+00:00</time></trkpt><trkpt lat="44.519329" lon="33.986065"><ele>442.1</ele><time>2011-10-11T15:37:47.0000000+00:00</time></trkpt><trkpt lat="44.519306" lon="33.98608"><ele>441.8</ele><time>2011-10-11T15:37:52.0000000+00:00</time></trkpt><trkpt lat="44.519268" lon="33.986122"><ele>441.4</ele><time>2011-10-11T15:37:57.0000000+00:00</time></trkpt><trkpt lat="44.51923" lon="33.986156"><ele>440.4</ele><time>2011-10-11T15:38:02.0000000+00:00</time></trkpt><trkpt lat="44.519161" lon="33.986176"><ele>438.6</ele><time>2011-10-11T15:38:07.0000000+00:00</time></trkpt><trkpt lat="44.519073" lon="33.986217"><ele>436.5</ele><time>2011-10-11T15:38:12.0000000+00:00</time></trkpt><trkpt lat="44.519009" lon="33.986244"><ele>434.5</ele><time>2011-10-11T15:38:17.0000000+00:00</time></trkpt><trkpt lat="44.519001" lon="33.986317"><ele>432.0</ele><time>2011-10-11T15:38:22.0000000+00:00</time></trkpt><trkpt lat="44.518997" lon="33.98637"><ele>430.9</ele><time>2011-10-11T15:38:27.0000000+00:00</time></trkpt><trkpt lat="44.518963" lon="33.986401"><ele>428.3</ele><time>2011-10-11T15:38:32.0000000+00:00</time></trkpt><trkpt lat="44.518936" lon="33.986397"><ele>426.9</ele><time>2011-10-11T15:38:37.0000000+00:00</time></trkpt><trkpt lat="44.518909" lon="33.986378"><ele>425.9</ele><time>2011-10-11T15:38:42.0000000+00:00</time></trkpt><trkpt lat="44.518917" lon="33.986366"><ele>425.0</ele><time>2011-10-11T15:38:47.0000000+00:00</time></trkpt><trkpt lat="44.518898" lon="33.986351"><ele>425.3</ele><time>2011-10-11T15:38:52.0000000+00:00</time></trkpt><trkpt lat="44.518883" lon="33.986301"><ele>425.5</ele><time>2011-10-11T15:38:57.0000000+00:00</time></trkpt><trkpt lat="44.51886" lon="33.986248"><ele>425.6</ele><time>2011-10-11T15:39:02.0000000+00:00</time></trkpt><trkpt lat="44.518864" lon="33.986195"><ele>425.6</ele><time>2011-10-11T15:39:07.0000000+00:00</time></trkpt><trkpt lat="44.518856" lon="33.986141"><ele>426.2</ele><time>2011-10-11T15:39:12.0000000+00:00</time></trkpt><trkpt lat="44.518875" lon="33.98605"><ele>427.4</ele><time>2011-10-11T15:39:17.0000000+00:00</time></trkpt><trkpt lat="44.518852" lon="33.985973"><ele>428.4</ele><time>2011-10-11T15:39:22.0000000+00:00</time></trkpt><trkpt lat="44.518841" lon="33.985886"><ele>428.4</ele><time>2011-10-11T15:39:27.0000000+00:00</time></trkpt><trkpt lat="44.518867" lon="33.985794"><ele>428.7</ele><time>2011-10-11T15:39:32.0000000+00:00</time></trkpt><trkpt lat="44.518871" lon="33.985767"><ele>428.3</ele><time>2011-10-11T15:39:37.0000000+00:00</time></trkpt><trkpt lat="44.51886" lon="33.985767"><ele>428.3</ele><time>2011-10-11T15:39:42.0000000+00:00</time></trkpt><trkpt lat="44.518852" lon="33.985699"><ele>427.6</ele><time>2011-10-11T15:39:47.0000000+00:00</time></trkpt><trkpt lat="44.518848" lon="33.985622"><ele>427.4</ele><time>2011-10-11T15:39:52.0000000+00:00</time></trkpt><trkpt lat="44.518833" lon="33.985584"><ele>427.2</ele><time>2011-10-11T15:39:57.0000000+00:00</time></trkpt><trkpt lat="44.518784" lon="33.985519"><ele>427.2</ele><time>2011-10-11T15:40:02.0000000+00:00</time></trkpt><trkpt lat="44.518749" lon="33.985497"><ele>427.8</ele><time>2011-10-11T15:40:07.0000000+00:00</time></trkpt><trkpt lat="44.518757" lon="33.985477"><ele>427.7</ele><time>2011-10-11T15:40:12.0000000+00:00</time></trkpt><trkpt lat="44.518795" lon="33.985435"><ele>426.4</ele><time>2011-10-11T15:40:17.0000000+00:00</time></trkpt><trkpt lat="44.518787" lon="33.985447"><ele>426.2</ele><time>2011-10-11T15:40:22.0000000+00:00</time></trkpt><trkpt lat="44.518745" lon="33.985481"><ele>425.8</ele><time>2011-10-11T15:40:27.0000000+00:00</time></trkpt><trkpt lat="44.518723" lon="33.985504"><ele>425.3</ele><time>2011-10-11T15:40:32.0000000+00:00</time></trkpt><trkpt lat="44.518707" lon="33.985519"><ele>424.9</ele><time>2011-10-11T15:40:37.0000000+00:00</time></trkpt><trkpt lat="44.518639" lon="33.985596"><ele>423.8</ele><time>2011-10-11T15:40:42.0000000+00:00</time></trkpt><trkpt lat="44.518578" lon="33.985588"><ele>423.1</ele><time>2011-10-11T15:40:47.0000000+00:00</time></trkpt><trkpt lat="44.518536" lon="33.985622"><ele>422.5</ele><time>2011-10-11T15:40:52.0000000+00:00</time></trkpt><trkpt lat="44.518505" lon="33.985645"><ele>422.3</ele><time>2011-10-11T15:40:57.0000000+00:00</time></trkpt><trkpt lat="44.518501" lon="33.985657"><ele>422.4</ele><time>2011-10-11T15:41:02.0000000+00:00</time></trkpt><trkpt lat="44.518501" lon="33.98568"><ele>422.3</ele><time>2011-10-11T15:41:07.0000000+00:00</time></trkpt><trkpt lat="44.518482" lon="33.985714"><ele>422.7</ele><time>2011-10-11T15:41:12.0000000+00:00</time></trkpt><trkpt lat="44.518383" lon="33.985737"><ele>422.3</ele><time>2011-10-11T15:41:17.0000000+00:00</time></trkpt><trkpt lat="44.518303" lon="33.985737"><ele>422.4</ele><time>2011-10-11T15:41:22.0000000+00:00</time></trkpt><trkpt lat="44.518276" lon="33.985722"><ele>422.7</ele><time>2011-10-11T15:41:27.0000000+00:00</time></trkpt><trkpt lat="44.518223" lon="33.985706"><ele>422.7</ele><time>2011-10-11T15:41:32.0000000+00:00</time></trkpt><trkpt lat="44.518166" lon="33.985703"><ele>422.3</ele><time>2011-10-11T15:41:37.0000000+00:00</time></trkpt><trkpt lat="44.518112" lon="33.985718"><ele>422.2</ele><time>2011-10-11T15:41:42.0000000+00:00</time></trkpt><trkpt lat="44.518074" lon="33.98571"><ele>422.2</ele><time>2011-10-11T15:41:47.0000000+00:00</time></trkpt><trkpt lat="44.51804" lon="33.985676"><ele>422.0</ele><time>2011-10-11T15:41:52.0000000+00:00</time></trkpt><trkpt lat="44.518013" lon="33.985615"><ele>422.6</ele><time>2011-10-11T15:41:57.0000000+00:00</time></trkpt><trkpt lat="44.517986" lon="33.985558"><ele>423.2</ele><time>2011-10-11T15:42:02.0000000+00:00</time></trkpt><trkpt lat="44.517952" lon="33.985516"><ele>423.6</ele><time>2011-10-11T15:42:07.0000000+00:00</time></trkpt><trkpt lat="44.517918" lon="33.985493"><ele>424.2</ele><time>2011-10-11T15:42:12.0000000+00:00</time></trkpt><trkpt lat="44.517879" lon="33.985462"><ele>424.4</ele><time>2011-10-11T15:42:17.0000000+00:00</time></trkpt><trkpt lat="44.517845" lon="33.985462"><ele>424.7</ele><time>2011-10-11T15:42:22.0000000+00:00</time></trkpt><trkpt lat="44.517818" lon="33.985424"><ele>425.2</ele><time>2011-10-11T15:42:27.0000000+00:00</time></trkpt><trkpt lat="44.517784" lon="33.985378"><ele>425.8</ele><time>2011-10-11T15:42:32.0000000+00:00</time></trkpt><trkpt lat="44.517704" lon="33.985294"><ele>426.5</ele><time>2011-10-11T15:42:37.0000000+00:00</time></trkpt><trkpt lat="44.517612" lon="33.985214"><ele>427.4</ele><time>2011-10-11T15:42:42.0000000+00:00</time></trkpt><trkpt lat="44.517593" lon="33.98513"><ele>428.3</ele><time>2011-10-11T15:42:47.0000000+00:00</time></trkpt><trkpt lat="44.517567" lon="33.985039"><ele>428.6</ele><time>2011-10-11T15:42:52.0000000+00:00</time></trkpt><trkpt lat="44.517544" lon="33.984955"><ele>429.2</ele><time>2011-10-11T15:42:57.0000000+00:00</time></trkpt><trkpt lat="44.517532" lon="33.984901"><ele>430.1</ele><time>2011-10-11T15:43:02.0000000+00:00</time></trkpt><trkpt lat="44.517532" lon="33.98481"><ele>431.5</ele><time>2011-10-11T15:43:07.0000000+00:00</time></trkpt><trkpt lat="44.517483" lon="33.984745"><ele>432.4</ele><time>2011-10-11T15:43:12.0000000+00:00</time></trkpt><trkpt lat="44.517464" lon="33.984692"><ele>433.1</ele><time>2011-10-11T15:43:17.0000000+00:00</time></trkpt><trkpt lat="44.517464" lon="33.9846"><ele>433.9</ele><time>2011-10-11T15:43:22.0000000+00:00</time></trkpt><trkpt lat="44.517437" lon="33.984539"><ele>435.1</ele><time>2011-10-11T15:43:27.0000000+00:00</time></trkpt><trkpt lat="44.517403" lon="33.984489"><ele>436.1</ele><time>2011-10-11T15:43:32.0000000+00:00</time></trkpt><trkpt lat="44.517273" lon="33.984421"><ele>437.6</ele><time>2011-10-11T15:43:37.0000000+00:00</time></trkpt><trkpt lat="44.517223" lon="33.984371"><ele>439.0</ele><time>2011-10-11T15:43:42.0000000+00:00</time></trkpt><trkpt lat="44.517208" lon="33.984329"><ele>440.1</ele><time>2011-10-11T15:43:47.0000000+00:00</time></trkpt><trkpt lat="44.517178" lon="33.984344"><ele>440.6</ele><time>2011-10-11T15:43:52.0000000+00:00</time></trkpt><trkpt lat="44.517166" lon="33.984322"><ele>441.1</ele><time>2011-10-11T15:43:57.0000000+00:00</time></trkpt><trkpt lat="44.517208" lon="33.984207"><ele>440.6</ele><time>2011-10-11T15:44:02.0000000+00:00</time></trkpt><trkpt lat="44.517231" lon="33.984188"><ele>440.7</ele><time>2011-10-11T15:44:07.0000000+00:00</time></trkpt><trkpt lat="44.517235" lon="33.984184"><ele>440.8</ele><time>2011-10-11T15:44:12.0000000+00:00</time></trkpt><trkpt lat="44.517231" lon="33.984177"><ele>440.8</ele><time>2011-10-11T15:44:17.0000000+00:00</time></trkpt><trkpt lat="44.51722" lon="33.98415"><ele>440.7</ele><time>2011-10-11T15:44:22.0000000+00:00</time></trkpt><trkpt lat="44.517197" lon="33.98418"><ele>440.8</ele><time>2011-10-11T15:44:27.0000000+00:00</time></trkpt><trkpt lat="44.517189" lon="33.984177"><ele>440.8</ele><time>2011-10-11T15:44:32.0000000+00:00</time></trkpt><trkpt lat="44.517185" lon="33.98418"><ele>440.7</ele><time>2011-10-11T15:44:37.0000000+00:00</time></trkpt><trkpt lat="44.517159" lon="33.984165"><ele>441.4</ele><time>2011-10-11T15:44:42.0000000+00:00</time></trkpt><trkpt lat="44.517139" lon="33.984161"><ele>441.5</ele><time>2011-10-11T15:44:47.0000000+00:00</time></trkpt><trkpt lat="44.517136" lon="33.984154"><ele>441.7</ele><time>2011-10-11T15:44:52.0000000+00:00</time></trkpt><trkpt lat="44.517124" lon="33.984158"><ele>441.5</ele><time>2011-10-11T15:44:57.0000000+00:00</time></trkpt><trkpt lat="44.517117" lon="33.984161"><ele>441.4</ele><time>2011-10-11T15:45:02.0000000+00:00</time></trkpt><trkpt lat="44.517117" lon="33.984165"><ele>441.4</ele><time>2011-10-11T15:45:07.0000000+00:00</time></trkpt><trkpt lat="44.517117" lon="33.984177"><ele>441.4</ele><time>2011-10-11T15:45:12.0000000+00:00</time></trkpt><trkpt lat="44.51712" lon="33.984177"><ele>441.4</ele><time>2011-10-11T15:45:17.0000000+00:00</time></trkpt><trkpt lat="44.51712" lon="33.984177"><ele>441.4</ele><time>2011-10-11T15:45:22.0000000+00:00</time></trkpt><trkpt lat="44.51712" lon="33.984177"><ele>441.3</ele><time>2011-10-11T15:45:27.0000000+00:00</time></trkpt><trkpt lat="44.517113" lon="33.984177"><ele>441.3</ele><time>2011-10-11T15:45:32.0000000+00:00</time></trkpt><trkpt lat="44.517113" lon="33.984165"><ele>441.2</ele><time>2011-10-11T15:45:37.0000000+00:00</time></trkpt><trkpt lat="44.517113" lon="33.984169"><ele>441.2</ele><time>2011-10-11T15:45:42.0000000+00:00</time></trkpt><trkpt lat="44.517117" lon="33.984173"><ele>440.7</ele><time>2011-10-11T15:45:47.0000000+00:00</time></trkpt><trkpt lat="44.517124" lon="33.984169"><ele>440.2</ele><time>2011-10-11T15:45:52.0000000+00:00</time></trkpt><trkpt lat="44.517128" lon="33.984169"><ele>440.1</ele><time>2011-10-11T15:45:57.0000000+00:00</time></trkpt><trkpt lat="44.517132" lon="33.984169"><ele>440.0</ele><time>2011-10-11T15:46:02.0000000+00:00</time></trkpt><trkpt lat="44.517128" lon="33.984165"><ele>439.9</ele><time>2011-10-11T15:46:07.0000000+00:00</time></trkpt><trkpt lat="44.517128" lon="33.984154"><ele>439.7</ele><time>2011-10-11T15:46:12.0000000+00:00</time></trkpt><trkpt lat="44.517132" lon="33.98415"><ele>439.7</ele><time>2011-10-11T15:46:17.0000000+00:00</time></trkpt><trkpt lat="44.51709" lon="33.984158"><ele>439.6</ele><time>2011-10-11T15:46:22.0000000+00:00</time></trkpt><trkpt lat="44.517082" lon="33.984154"><ele>439.5</ele><time>2011-10-11T15:46:27.0000000+00:00</time></trkpt><trkpt lat="44.517078" lon="33.984146"><ele>439.5</ele><time>2011-10-11T15:46:32.0000000+00:00</time></trkpt><trkpt lat="44.517078" lon="33.984138"><ele>439.5</ele><time>2011-10-11T15:46:37.0000000+00:00</time></trkpt><trkpt lat="44.517075" lon="33.984142"><ele>439.5</ele><time>2011-10-11T15:46:42.0000000+00:00</time></trkpt><trkpt lat="44.517075" lon="33.984154"><ele>439.5</ele><time>2011-10-11T15:46:47.0000000+00:00</time></trkpt><trkpt lat="44.517086" lon="33.984161"><ele>439.5</ele><time>2011-10-11T15:46:52.0000000+00:00</time></trkpt><trkpt lat="44.517071" lon="33.984131"><ele>438.9</ele><time>2011-10-11T15:46:57.0000000+00:00</time></trkpt><trkpt lat="44.517132" lon="33.984138"><ele>439.0</ele><time>2011-10-11T15:47:02.0000000+00:00</time></trkpt><trkpt lat="44.517105" lon="33.984146"><ele>438.8</ele><time>2011-10-11T15:47:07.0000000+00:00</time></trkpt><trkpt lat="44.517101" lon="33.984142"><ele>438.8</ele><time>2011-10-11T15:47:12.0000000+00:00</time></trkpt><trkpt lat="44.517094" lon="33.984135"><ele>438.8</ele><time>2011-10-11T15:47:17.0000000+00:00</time></trkpt><trkpt lat="44.517105" lon="33.984119"><ele>438.5</ele><time>2011-10-11T15:47:22.0000000+00:00</time></trkpt><trkpt lat="44.517109" lon="33.984112"><ele>438.5</ele><time>2011-10-11T15:47:27.0000000+00:00</time></trkpt><trkpt lat="44.517101" lon="33.984089"><ele>438.4</ele><time>2011-10-11T15:47:32.0000000+00:00</time></trkpt><trkpt lat="44.517059" lon="33.984116"><ele>438.0</ele><time>2011-10-11T15:47:37.0000000+00:00</time></trkpt><trkpt lat="44.517052" lon="33.984089"><ele>437.9</ele><time>2011-10-11T15:47:42.0000000+00:00</time></trkpt><trkpt lat="44.517033" lon="33.98407"><ele>437.9</ele><time>2011-10-11T15:47:47.0000000+00:00</time></trkpt><trkpt lat="44.517029" lon="33.984043"><ele>438.0</ele><time>2011-10-11T15:47:52.0000000+00:00</time></trkpt><trkpt lat="44.517021" lon="33.984035"><ele>438.1</ele><time>2011-10-11T15:47:57.0000000+00:00</time></trkpt><trkpt lat="44.517036" lon="33.984001"><ele>438.1</ele><time>2011-10-11T15:48:02.0000000+00:00</time></trkpt><trkpt lat="44.517082" lon="33.983978"><ele>438.0</ele><time>2011-10-11T15:48:07.0000000+00:00</time></trkpt><trkpt lat="44.517086" lon="33.983959"><ele>438.0</ele><time>2011-10-11T15:48:12.0000000+00:00</time></trkpt><trkpt lat="44.517113" lon="33.984024"><ele>437.9</ele><time>2011-10-11T15:48:17.0000000+00:00</time></trkpt><trkpt lat="44.517109" lon="33.98402"><ele>438.0</ele><time>2011-10-11T15:48:22.0000000+00:00</time></trkpt><trkpt lat="44.517109" lon="33.984009"><ele>438.0</ele><time>2011-10-11T15:48:27.0000000+00:00</time></trkpt><trkpt lat="44.517105" lon="33.983997"><ele>438.0</ele><time>2011-10-11T15:48:32.0000000+00:00</time></trkpt><trkpt lat="44.517109" lon="33.983997"><ele>438.1</ele><time>2011-10-11T15:48:37.0000000+00:00</time></trkpt><trkpt lat="44.517109" lon="33.98399"><ele>438.1</ele><time>2011-10-11T15:48:42.0000000+00:00</time></trkpt><trkpt lat="44.517101" lon="33.983974"><ele>438.1</ele><time>2011-10-11T15:48:47.0000000+00:00</time></trkpt><trkpt lat="44.517082" lon="33.983944"><ele>438.3</ele><time>2011-10-11T15:48:52.0000000+00:00</time></trkpt><trkpt lat="44.517067" lon="33.983936"><ele>438.7</ele><time>2011-10-11T15:48:57.0000000+00:00</time></trkpt><trkpt lat="44.517059" lon="33.983929"><ele>438.8</ele><time>2011-10-11T15:49:02.0000000+00:00</time></trkpt><trkpt lat="44.517036" lon="33.983921"><ele>439.0</ele><time>2011-10-11T15:49:07.0000000+00:00</time></trkpt><trkpt lat="44.51704" lon="33.983921"><ele>439.0</ele><time>2011-10-11T15:49:12.0000000+00:00</time></trkpt><trkpt lat="44.517059" lon="33.983955"><ele>439.2</ele><time>2011-10-11T15:49:17.0000000+00:00</time></trkpt><trkpt lat="44.517078" lon="33.983978"><ele>439.3</ele><time>2011-10-11T15:49:22.0000000+00:00</time></trkpt><trkpt lat="44.517101" lon="33.984005"><ele>439.5</ele><time>2011-10-11T15:49:27.0000000+00:00</time></trkpt><trkpt lat="44.517132" lon="33.984051"><ele>439.7</ele><time>2011-10-11T15:49:32.0000000+00:00</time></trkpt><trkpt lat="44.517174" lon="33.984077"><ele>439.5</ele><time>2011-10-11T15:49:37.0000000+00:00</time></trkpt><trkpt lat="44.517193" lon="33.984097"><ele>439.5</ele><time>2011-10-11T15:49:42.0000000+00:00</time></trkpt><trkpt lat="44.517197" lon="33.984104"><ele>439.4</ele><time>2011-10-11T15:49:47.0000000+00:00</time></trkpt><trkpt lat="44.5172" lon="33.984108"><ele>439.4</ele><time>2011-10-11T15:49:52.0000000+00:00</time></trkpt><trkpt lat="44.5172" lon="33.984108"><ele>439.5</ele><time>2011-10-11T15:49:57.0000000+00:00</time></trkpt><trkpt lat="44.517208" lon="33.984104"><ele>439.6</ele><time>2011-10-11T15:50:02.0000000+00:00</time></trkpt><trkpt lat="44.517212" lon="33.9841"><ele>439.6</ele><time>2011-10-11T15:50:07.0000000+00:00</time></trkpt><trkpt lat="44.517231" lon="33.984093"><ele>439.8</ele><time>2011-10-11T15:50:12.0000000+00:00</time></trkpt><trkpt lat="44.517242" lon="33.984085"><ele>439.8</ele><time>2011-10-11T15:50:17.0000000+00:00</time></trkpt><trkpt lat="44.51725" lon="33.984089"><ele>439.8</ele><time>2011-10-11T15:50:22.0000000+00:00</time></trkpt><trkpt lat="44.517273" lon="33.984093"><ele>440.1</ele><time>2011-10-11T15:50:27.0000000+00:00</time></trkpt><trkpt lat="44.517281" lon="33.9841"><ele>440.3</ele><time>2011-10-11T15:50:32.0000000+00:00</time></trkpt><trkpt lat="44.517284" lon="33.984108"><ele>440.3</ele><time>2011-10-11T15:50:37.0000000+00:00</time></trkpt><trkpt lat="44.517281" lon="33.984116"><ele>440.3</ele><time>2011-10-11T15:50:42.0000000+00:00</time></trkpt><trkpt lat="44.517269" lon="33.984119"><ele>440.3</ele><time>2011-10-11T15:50:47.0000000+00:00</time></trkpt><trkpt lat="44.517254" lon="33.984112"><ele>440.7</ele><time>2011-10-11T15:50:52.0000000+00:00</time></trkpt><trkpt lat="44.517239" lon="33.984127"><ele>440.8</ele><time>2011-10-11T15:50:57.0000000+00:00</time></trkpt><trkpt lat="44.517208" lon="33.984131"><ele>441.2</ele><time>2011-10-11T15:51:02.0000000+00:00</time></trkpt><trkpt lat="44.517178" lon="33.984127"><ele>441.6</ele><time>2011-10-11T15:51:07.0000000+00:00</time></trkpt><trkpt lat="44.517166" lon="33.984127"><ele>441.7</ele><time>2011-10-11T15:51:12.0000000+00:00</time></trkpt><trkpt lat="44.517162" lon="33.984131"><ele>441.7</ele><time>2011-10-11T15:51:17.0000000+00:00</time></trkpt><trkpt lat="44.517155" lon="33.984127"><ele>441.6</ele><time>2011-10-11T15:51:22.0000000+00:00</time></trkpt><trkpt lat="44.517147" lon="33.984116"><ele>441.6</ele><time>2011-10-11T15:51:27.0000000+00:00</time></trkpt><trkpt lat="44.517139" lon="33.984112"><ele>441.6</ele><time>2011-10-11T15:51:32.0000000+00:00</time></trkpt><trkpt lat="44.517139" lon="33.984104"><ele>441.7</ele><time>2011-10-11T15:51:37.0000000+00:00</time></trkpt><trkpt lat="44.517143" lon="33.984108"><ele>441.7</ele><time>2011-10-11T15:51:42.0000000+00:00</time></trkpt><trkpt lat="44.517143" lon="33.984112"><ele>441.7</ele><time>2011-10-11T15:51:47.0000000+00:00</time></trkpt><trkpt lat="44.517147" lon="33.984112"><ele>441.6</ele><time>2011-10-11T15:51:52.0000000+00:00</time></trkpt><trkpt lat="44.517151" lon="33.984108"><ele>441.6</ele><time>2011-10-11T15:51:57.0000000+00:00</time></trkpt><trkpt lat="44.517147" lon="33.984085"><ele>442.0</ele><time>2011-10-11T15:52:02.0000000+00:00</time></trkpt><trkpt lat="44.517143" lon="33.984085"><ele>442.2</ele><time>2011-10-11T15:52:07.0000000+00:00</time></trkpt><trkpt lat="44.51712" lon="33.984066"><ele>442.2</ele><time>2011-10-11T15:52:12.0000000+00:00</time></trkpt><trkpt lat="44.517097" lon="33.984055"><ele>442.3</ele><time>2011-10-11T15:52:17.0000000+00:00</time></trkpt><trkpt lat="44.51709" lon="33.984055"><ele>442.3</ele><time>2011-10-11T15:52:22.0000000+00:00</time></trkpt><trkpt lat="44.517078" lon="33.984055"><ele>442.3</ele><time>2011-10-11T15:52:27.0000000+00:00</time></trkpt><trkpt lat="44.517094" lon="33.984085"><ele>442.3</ele><time>2011-10-11T15:52:32.0000000+00:00</time></trkpt><trkpt lat="44.517128" lon="33.984127"><ele>442.1</ele><time>2011-10-11T15:52:37.0000000+00:00</time></trkpt><trkpt lat="44.517128" lon="33.984146"><ele>441.8</ele><time>2011-10-11T15:52:42.0000000+00:00</time></trkpt><trkpt lat="44.517132" lon="33.984161"><ele>441.7</ele><time>2011-10-11T15:52:47.0000000+00:00</time></trkpt><trkpt lat="44.517132" lon="33.984165"><ele>441.6</ele><time>2011-10-11T15:52:52.0000000+00:00</time></trkpt><trkpt lat="44.517136" lon="33.984169"><ele>441.6</ele><time>2011-10-11T15:52:57.0000000+00:00</time></trkpt><trkpt lat="44.517139" lon="33.984173"><ele>441.6</ele><time>2011-10-11T15:53:02.0000000+00:00</time></trkpt><trkpt lat="44.517139" lon="33.98418"><ele>441.6</ele><time>2011-10-11T15:53:07.0000000+00:00</time></trkpt><trkpt lat="44.517124" lon="33.984215"><ele>441.2</ele><time>2011-10-11T15:53:12.0000000+00:00</time></trkpt><trkpt lat="44.517105" lon="33.984222"><ele>441.1</ele><time>2011-10-11T15:53:17.0000000+00:00</time></trkpt><trkpt lat="44.517086" lon="33.984219"><ele>441.0</ele><time>2011-10-11T15:53:22.0000000+00:00</time></trkpt><trkpt lat="44.517075" lon="33.9842"><ele>441.0</ele><time>2011-10-11T15:53:27.0000000+00:00</time></trkpt></trkseg><trkseg><trkpt lat="44.538822" lon="34.271732"><ele>119.2</ele><time>2011-10-12T14:18:07.0000000+00:00</time></trkpt><trkpt lat="44.538853" lon="34.271702"><ele>119.2</ele><time>2011-10-12T14:18:12.0000000+00:00</time></trkpt><trkpt lat="44.538841" lon="34.271809"><ele>119.1</ele><time>2011-10-12T14:18:17.0000000+00:00</time></trkpt><trkpt lat="44.538898" lon="34.271877"><ele>118.9</ele><time>2011-10-12T14:18:22.0000000+00:00</time></trkpt><trkpt lat="44.538975" lon="34.272018"><ele>118.6</ele><time>2011-10-12T14:18:27.0000000+00:00</time></trkpt><trkpt lat="44.539036" lon="34.272038"><ele>118.4</ele><time>2011-10-12T14:18:32.0000000+00:00</time></trkpt><trkpt lat="44.539074" lon="34.272106"><ele>118.8</ele><time>2011-10-12T14:18:37.0000000+00:00</time></trkpt><trkpt lat="44.539238" lon="34.272232"><ele>118.6</ele><time>2011-10-12T14:18:42.0000000+00:00</time></trkpt><trkpt lat="44.539257" lon="34.272411"><ele>118.4</ele><time>2011-10-12T14:18:47.0000000+00:00</time></trkpt><trkpt lat="44.539364" lon="34.272511"><ele>118.2</ele><time>2011-10-12T14:18:52.0000000+00:00</time></trkpt><trkpt lat="44.539646" lon="34.272526"><ele>118.1</ele><time>2011-10-12T14:18:57.0000000+00:00</time></trkpt><trkpt lat="44.539833" lon="34.272461"><ele>118.0</ele><time>2011-10-12T14:19:02.0000000+00:00</time></trkpt><trkpt lat="44.540138" lon="34.272274"><ele>117.8</ele><time>2011-10-12T14:19:07.0000000+00:00</time></trkpt><trkpt lat="44.540401" lon="34.272072"><ele>117.6</ele><time>2011-10-12T14:19:12.0000000+00:00</time></trkpt><trkpt lat="44.540474" lon="34.271896"><ele>117.3</ele><time>2011-10-12T14:19:17.0000000+00:00</time></trkpt><trkpt lat="44.540607" lon="34.271675"><ele>117.1</ele><time>2011-10-12T14:19:22.0000000+00:00</time></trkpt><trkpt lat="44.540771" lon="34.271397"><ele>116.8</ele><time>2011-10-12T14:19:27.0000000+00:00</time></trkpt><trkpt lat="44.540783" lon="34.271286"><ele>116.5</ele><time>2011-10-12T14:19:32.0000000+00:00</time></trkpt><trkpt lat="44.54081" lon="34.271267"><ele>116.3</ele><time>2011-10-12T14:19:37.0000000+00:00</time></trkpt><trkpt lat="44.540955" lon="34.271198"><ele>116.0</ele><time>2011-10-12T14:19:42.0000000+00:00</time></trkpt><trkpt lat="44.540905" lon="34.271278"><ele>115.7</ele><time>2011-10-12T14:19:47.0000000+00:00</time></trkpt><trkpt lat="44.540607" lon="34.27145"><ele>113.7</ele><time>2011-10-12T14:19:52.0000000+00:00</time></trkpt><trkpt lat="44.540558" lon="34.27145"><ele>114.4</ele><time>2011-10-12T14:19:57.0000000+00:00</time></trkpt><trkpt lat="44.540543" lon="34.271454"><ele>114.4</ele><time>2011-10-12T14:20:02.0000000+00:00</time></trkpt><trkpt lat="44.539448" lon="34.272327"><ele>52.5</ele><time>2011-10-12T14:20:07.0000000+00:00</time></trkpt><trkpt lat="44.539478" lon="34.272499"><ele>52.8</ele><time>2011-10-12T14:20:12.0000000+00:00</time></trkpt><trkpt lat="44.539654" lon="34.272873"><ele>53.1</ele><time>2011-10-12T14:20:17.0000000+00:00</time></trkpt><trkpt lat="44.539776" lon="34.273113"><ele>52.7</ele><time>2011-10-12T14:20:22.0000000+00:00</time></trkpt><trkpt lat="44.539742" lon="34.273205"><ele>52.9</ele><time>2011-10-12T14:20:27.0000000+00:00</time></trkpt><trkpt lat="44.539631" lon="34.273102"><ele>51.8</ele><time>2011-10-12T14:20:32.0000000+00:00</time></trkpt><trkpt lat="44.539494" lon="34.272991"><ele>50.1</ele><time>2011-10-12T14:20:37.0000000+00:00</time></trkpt><trkpt lat="44.539268" lon="34.272972"><ele>49.4</ele><time>2011-10-12T14:20:42.0000000+00:00</time></trkpt><trkpt lat="44.539181" lon="34.273045"><ele>49.8</ele><time>2011-10-12T14:20:47.0000000+00:00</time></trkpt><trkpt lat="44.539139" lon="34.273247"><ele>50.0</ele><time>2011-10-12T14:20:52.0000000+00:00</time></trkpt><trkpt lat="44.538982" lon="34.27351"><ele>48.9</ele><time>2011-10-12T14:20:57.0000000+00:00</time></trkpt><trkpt lat="44.538815" lon="34.273769"><ele>48.2</ele><time>2011-10-12T14:21:02.0000000+00:00</time></trkpt><trkpt lat="44.538616" lon="34.274025"><ele>47.3</ele><time>2011-10-12T14:21:07.0000000+00:00</time></trkpt><trkpt lat="44.538399" lon="34.274212"><ele>46.8</ele><time>2011-10-12T14:21:12.0000000+00:00</time></trkpt><trkpt lat="44.538147" lon="34.2742"><ele>45.1</ele><time>2011-10-12T14:21:17.0000000+00:00</time></trkpt><trkpt lat="44.537842" lon="34.274067"><ele>42.7</ele><time>2011-10-12T14:21:22.0000000+00:00</time></trkpt><trkpt lat="44.537563" lon="34.273922"><ele>40.9</ele><time>2011-10-12T14:21:27.0000000+00:00</time></trkpt><trkpt lat="44.537289" lon="34.273994"><ele>40.1</ele><time>2011-10-12T14:21:32.0000000+00:00</time></trkpt><trkpt lat="44.537247" lon="34.274158"><ele>39.2</ele><time>2011-10-12T14:21:37.0000000+00:00</time></trkpt><trkpt lat="44.537342" lon="34.274315"><ele>37.8</ele><time>2011-10-12T14:21:42.0000000+00:00</time></trkpt><trkpt lat="44.537533" lon="34.274414"><ele>38.9</ele><time>2011-10-12T14:21:47.0000000+00:00</time></trkpt><trkpt lat="44.537693" lon="34.274502"><ele>38.3</ele><time>2011-10-12T14:21:52.0000000+00:00</time></trkpt><trkpt lat="44.537712" lon="34.274597"><ele>38.0</ele><time>2011-10-12T14:21:57.0000000+00:00</time></trkpt><trkpt lat="44.537552" lon="34.274612"><ele>32.0</ele><time>2011-10-12T14:22:02.0000000+00:00</time></trkpt><trkpt lat="44.537426" lon="34.274525"><ele>28.1</ele><time>2011-10-12T14:22:07.0000000+00:00</time></trkpt><trkpt lat="44.537395" lon="34.274559"><ele>26.5</ele><time>2011-10-12T14:22:12.0000000+00:00</time></trkpt><trkpt lat="44.53735" lon="34.274563"><ele>26.3</ele><time>2011-10-12T14:22:17.0000000+00:00</time></trkpt><trkpt lat="44.537346" lon="34.274578"><ele>25.5</ele><time>2011-10-12T14:22:22.0000000+00:00</time></trkpt><trkpt lat="44.537334" lon="34.27459"><ele>25.2</ele><time>2011-10-12T14:22:27.0000000+00:00</time></trkpt><trkpt lat="44.537327" lon="34.274582"><ele>24.9</ele><time>2011-10-12T14:22:32.0000000+00:00</time></trkpt><trkpt lat="44.537319" lon="34.274586"><ele>24.8</ele><time>2011-10-12T14:22:37.0000000+00:00</time></trkpt><trkpt lat="44.537312" lon="34.274593"><ele>24.8</ele><time>2011-10-12T14:22:42.0000000+00:00</time></trkpt><trkpt lat="44.537312" lon="34.274593"><ele>24.8</ele><time>2011-10-12T14:22:47.0000000+00:00</time></trkpt><trkpt lat="44.537312" lon="34.274593"><ele>24.8</ele><time>2011-10-12T14:22:52.0000000+00:00</time></trkpt><trkpt lat="44.537308" lon="34.274593"><ele>24.7</ele><time>2011-10-12T14:22:57.0000000+00:00</time></trkpt><trkpt lat="44.537308" lon="34.274582"><ele>24.7</ele><time>2011-10-12T14:23:02.0000000+00:00</time></trkpt><trkpt lat="44.537308" lon="34.274574"><ele>24.7</ele><time>2011-10-12T14:23:07.0000000+00:00</time></trkpt><trkpt lat="44.537308" lon="34.27457"><ele>24.6</ele><time>2011-10-12T14:23:12.0000000+00:00</time></trkpt><trkpt lat="44.537308" lon="34.27457"><ele>24.5</ele><time>2011-10-12T14:23:17.0000000+00:00</time></trkpt><trkpt lat="44.537304" lon="34.274578"><ele>24.5</ele><time>2011-10-12T14:23:22.0000000+00:00</time></trkpt><trkpt lat="44.537304" lon="34.274582"><ele>24.4</ele><time>2011-10-12T14:23:27.0000000+00:00</time></trkpt><trkpt lat="44.537308" lon="34.274582"><ele>24.3</ele><time>2011-10-12T14:23:32.0000000+00:00</time></trkpt><trkpt lat="44.5373" lon="34.274574"><ele>23.9</ele><time>2011-10-12T14:23:37.0000000+00:00</time></trkpt><trkpt lat="44.537304" lon="34.274574"><ele>23.8</ele><time>2011-10-12T14:23:42.0000000+00:00</time></trkpt><trkpt lat="44.537296" lon="34.27457"><ele>21.9</ele><time>2011-10-12T14:23:47.0000000+00:00</time></trkpt><trkpt lat="44.537296" lon="34.27457"><ele>22.0</ele><time>2011-10-12T14:23:52.0000000+00:00</time></trkpt><trkpt lat="44.5373" lon="34.274574"><ele>21.9</ele><time>2011-10-12T14:23:57.0000000+00:00</time></trkpt><trkpt lat="44.537296" lon="34.274578"><ele>21.9</ele><time>2011-10-12T14:24:02.0000000+00:00</time></trkpt><trkpt lat="44.537296" lon="34.274582"><ele>21.9</ele><time>2011-10-12T14:24:07.0000000+00:00</time></trkpt><trkpt lat="44.5373" lon="34.27459"><ele>21.9</ele><time>2011-10-12T14:24:12.0000000+00:00</time></trkpt><trkpt lat="44.5373" lon="34.274593"><ele>21.9</ele><time>2011-10-12T14:24:17.0000000+00:00</time></trkpt><trkpt lat="44.537296" lon="34.274597"><ele>21.8</ele><time>2011-10-12T14:24:22.0000000+00:00</time></trkpt><trkpt lat="44.537292" lon="34.274593"><ele>21.7</ele><time>2011-10-12T14:24:27.0000000+00:00</time></trkpt><trkpt lat="44.537258" lon="34.274601"><ele>21.1</ele><time>2011-10-12T14:24:32.0000000+00:00</time></trkpt><trkpt lat="44.53727" lon="34.274593"><ele>20.7</ele><time>2011-10-12T14:24:37.0000000+00:00</time></trkpt><trkpt lat="44.537266" lon="34.274586"><ele>20.6</ele><time>2011-10-12T14:24:42.0000000+00:00</time></trkpt><trkpt lat="44.537254" lon="34.274609"><ele>19.6</ele><time>2011-10-12T14:24:47.0000000+00:00</time></trkpt><trkpt lat="44.537243" lon="34.274624"><ele>18.9</ele><time>2011-10-12T14:24:52.0000000+00:00</time></trkpt><trkpt lat="44.537247" lon="34.274628"><ele>18.8</ele><time>2011-10-12T14:24:57.0000000+00:00</time></trkpt><trkpt lat="44.537254" lon="34.274632"><ele>18.7</ele><time>2011-10-12T14:25:02.0000000+00:00</time></trkpt><trkpt lat="44.537254" lon="34.274632"><ele>18.4</ele><time>2011-10-12T14:25:07.0000000+00:00</time></trkpt><trkpt lat="44.537258" lon="34.274628"><ele>18.3</ele><time>2011-10-12T14:25:12.0000000+00:00</time></trkpt><trkpt lat="44.537262" lon="34.274624"><ele>18.2</ele><time>2011-10-12T14:25:17.0000000+00:00</time></trkpt><trkpt lat="44.537262" lon="34.274628"><ele>18.1</ele><time>2011-10-12T14:25:22.0000000+00:00</time></trkpt><trkpt lat="44.537262" lon="34.274632"><ele>18.0</ele><time>2011-10-12T14:25:27.0000000+00:00</time></trkpt><trkpt lat="44.537266" lon="34.274632"><ele>18.0</ele><time>2011-10-12T14:25:32.0000000+00:00</time></trkpt><trkpt lat="44.537277" lon="34.274639"><ele>17.9</ele><time>2011-10-12T14:25:37.0000000+00:00</time></trkpt><trkpt lat="44.537308" lon="34.274597"><ele>17.6</ele><time>2011-10-12T14:25:42.0000000+00:00</time></trkpt><trkpt lat="44.537205" lon="34.274616"><ele>16.6</ele><time>2011-10-12T14:25:47.0000000+00:00</time></trkpt><trkpt lat="44.537201" lon="34.274605"><ele>16.3</ele><time>2011-10-12T14:25:52.0000000+00:00</time></trkpt><trkpt lat="44.537193" lon="34.274563"><ele>16.2</ele><time>2011-10-12T14:25:57.0000000+00:00</time></trkpt><trkpt lat="44.537178" lon="34.274567"><ele>15.8</ele><time>2011-10-12T14:26:02.0000000+00:00</time></trkpt><trkpt lat="44.537182" lon="34.274567"><ele>15.6</ele><time>2011-10-12T14:26:07.0000000+00:00</time></trkpt><trkpt lat="44.537186" lon="34.274574"><ele>15.2</ele><time>2011-10-12T14:26:12.0000000+00:00</time></trkpt><trkpt lat="44.537216" lon="34.27459"><ele>14.1</ele><time>2011-10-12T14:26:17.0000000+00:00</time></trkpt><trkpt lat="44.537224" lon="34.274582"><ele>13.5</ele><time>2011-10-12T14:26:22.0000000+00:00</time></trkpt><trkpt lat="44.53722" lon="34.274582"><ele>13.4</ele><time>2011-10-12T14:26:27.0000000+00:00</time></trkpt><trkpt lat="44.537224" lon="34.27459"><ele>13.2</ele><time>2011-10-12T14:26:32.0000000+00:00</time></trkpt><trkpt lat="44.537228" lon="34.274593"><ele>13.1</ele><time>2011-10-12T14:26:37.0000000+00:00</time></trkpt><trkpt lat="44.537231" lon="34.274601"><ele>12.9</ele><time>2011-10-12T14:26:42.0000000+00:00</time></trkpt><trkpt lat="44.537224" lon="34.274597"><ele>12.8</ele><time>2011-10-12T14:26:47.0000000+00:00</time></trkpt><trkpt lat="44.537216" lon="34.274586"><ele>12.8</ele><time>2011-10-12T14:26:52.0000000+00:00</time></trkpt><trkpt lat="44.537209" lon="34.27459"><ele>12.8</ele><time>2011-10-12T14:26:57.0000000+00:00</time></trkpt><trkpt lat="44.537197" lon="34.274601"><ele>12.7</ele><time>2011-10-12T14:27:02.0000000+00:00</time></trkpt><trkpt lat="44.537205" lon="34.274612"><ele>12.7</ele><time>2011-10-12T14:27:07.0000000+00:00</time></trkpt><trkpt lat="44.537205" lon="34.27462"><ele>12.5</ele><time>2011-10-12T14:27:12.0000000+00:00</time></trkpt><trkpt lat="44.537197" lon="34.274628"><ele>12.4</ele><time>2011-10-12T14:27:17.0000000+00:00</time></trkpt><trkpt lat="44.537193" lon="34.274632"><ele>12.3</ele><time>2011-10-12T14:27:22.0000000+00:00</time></trkpt><trkpt lat="44.537193" lon="34.274647"><ele>12.1</ele><time>2011-10-12T14:27:27.0000000+00:00</time></trkpt><trkpt lat="44.537258" lon="34.274723"><ele>9.7</ele><time>2011-10-12T14:27:32.0000000+00:00</time></trkpt><trkpt lat="44.537373" lon="34.274765"><ele>6.8</ele><time>2011-10-12T14:27:37.0000000+00:00</time></trkpt><trkpt lat="44.537491" lon="34.274807"><ele>5.0</ele><time>2011-10-12T14:27:42.0000000+00:00</time></trkpt><trkpt lat="44.537582" lon="34.274834"><ele>2.9</ele><time>2011-10-12T14:27:47.0000000+00:00</time></trkpt><trkpt lat="44.537609" lon="34.27486"><ele>2.1</ele><time>2011-10-12T14:27:52.0000000+00:00</time></trkpt><trkpt lat="44.537685" lon="34.274906"><ele>0.1</ele><time>2011-10-12T14:27:57.0000000+00:00</time></trkpt><trkpt lat="44.537785" lon="34.27496"><ele>-2.6</ele><time>2011-10-12T14:28:02.0000000+00:00</time></trkpt><trkpt lat="44.537914" lon="34.275009"><ele>-5.7</ele><time>2011-10-12T14:28:07.0000000+00:00</time></trkpt><trkpt lat="44.537994" lon="34.275066"><ele>-9.1</ele><time>2011-10-12T14:28:12.0000000+00:00</time></trkpt><trkpt lat="44.538094" lon="34.275101"><ele>-12.3</ele><time>2011-10-12T14:28:17.0000000+00:00</time></trkpt><trkpt lat="44.538204" lon="34.275181"><ele>-14.2</ele><time>2011-10-12T14:28:22.0000000+00:00</time></trkpt><trkpt lat="44.538322" lon="34.275261"><ele>-16.5</ele><time>2011-10-12T14:28:27.0000000+00:00</time></trkpt><trkpt lat="44.538452" lon="34.27533"><ele>-18.8</ele><time>2011-10-12T14:28:32.0000000+00:00</time></trkpt><trkpt lat="44.538589" lon="34.275402"><ele>-21.9</ele><time>2011-10-12T14:28:37.0000000+00:00</time></trkpt><trkpt lat="44.538715" lon="34.275471"><ele>-24.2</ele><time>2011-10-12T14:28:42.0000000+00:00</time></trkpt><trkpt lat="44.538849" lon="34.275555"><ele>-26.1</ele><time>2011-10-12T14:28:47.0000000+00:00</time></trkpt><trkpt lat="44.539001" lon="34.275616"><ele>-25.8</ele><time>2011-10-12T14:28:52.0000000+00:00</time></trkpt><trkpt lat="44.53912" lon="34.275681"><ele>-27.6</ele><time>2011-10-12T14:28:57.0000000+00:00</time></trkpt><trkpt lat="44.539177" lon="34.275715"><ele>-29.1</ele><time>2011-10-12T14:29:02.0000000+00:00</time></trkpt><trkpt lat="44.539284" lon="34.275784"><ele>-30.5</ele><time>2011-10-12T14:29:07.0000000+00:00</time></trkpt><trkpt lat="44.539375" lon="34.275864"><ele>-31.2</ele><time>2011-10-12T14:29:12.0000000+00:00</time></trkpt><trkpt lat="44.539467" lon="34.275921"><ele>-30.9</ele><time>2011-10-12T14:29:17.0000000+00:00</time></trkpt><trkpt lat="44.539562" lon="34.275963"><ele>-29.9</ele><time>2011-10-12T14:29:22.0000000+00:00</time></trkpt><trkpt lat="44.539642" lon="34.276031"><ele>-29.7</ele><time>2011-10-12T14:29:27.0000000+00:00</time></trkpt><trkpt lat="44.539742" lon="34.276142"><ele>-29.0</ele><time>2011-10-12T14:29:32.0000000+00:00</time></trkpt><trkpt lat="44.539845" lon="34.276222"><ele>-27.7</ele><time>2011-10-12T14:29:37.0000000+00:00</time></trkpt><trkpt lat="44.539944" lon="34.276299"><ele>-26.5</ele><time>2011-10-12T14:29:42.0000000+00:00</time></trkpt><trkpt lat="44.540028" lon="34.276367"><ele>-25.9</ele><time>2011-10-12T14:29:47.0000000+00:00</time></trkpt><trkpt lat="44.540123" lon="34.276463"><ele>-24.8</ele><time>2011-10-12T14:29:52.0000000+00:00</time></trkpt><trkpt lat="44.540207" lon="34.276573"><ele>-24.3</ele><time>2011-10-12T14:29:57.0000000+00:00</time></trkpt><trkpt lat="44.540298" lon="34.276676"><ele>-23.8</ele><time>2011-10-12T14:30:02.0000000+00:00</time></trkpt><trkpt lat="44.540379" lon="34.276779"><ele>-23.5</ele><time>2011-10-12T14:30:07.0000000+00:00</time></trkpt><trkpt lat="44.540459" lon="34.276859"><ele>-23.0</ele><time>2011-10-12T14:30:12.0000000+00:00</time></trkpt><trkpt lat="44.540527" lon="34.276947"><ele>-22.2</ele><time>2011-10-12T14:30:17.0000000+00:00</time></trkpt><trkpt lat="44.540607" lon="34.277069"><ele>-21.0</ele><time>2011-10-12T14:30:22.0000000+00:00</time></trkpt><trkpt lat="44.540691" lon="34.277172"><ele>-20.2</ele><time>2011-10-12T14:30:27.0000000+00:00</time></trkpt><trkpt lat="44.540779" lon="34.277287"><ele>-19.3</ele><time>2011-10-12T14:30:32.0000000+00:00</time></trkpt><trkpt lat="44.540848" lon="34.277378"><ele>-18.7</ele><time>2011-10-12T14:30:37.0000000+00:00</time></trkpt><trkpt lat="44.540905" lon="34.277355"><ele>-17.6</ele><time>2011-10-12T14:30:42.0000000+00:00</time></trkpt><trkpt lat="44.540932" lon="34.277336"><ele>-17.1</ele><time>2011-10-12T14:30:47.0000000+00:00</time></trkpt><trkpt lat="44.540936" lon="34.277336"><ele>-16.8</ele><time>2011-10-12T14:30:52.0000000+00:00</time></trkpt><trkpt lat="44.540936" lon="34.277332"><ele>-16.8</ele><time>2011-10-12T14:30:57.0000000+00:00</time></trkpt><trkpt lat="44.540943" lon="34.277332"><ele>-16.6</ele><time>2011-10-12T14:31:02.0000000+00:00</time></trkpt><trkpt lat="44.540939" lon="34.277294"><ele>-16.4</ele><time>2011-10-12T14:31:07.0000000+00:00</time></trkpt><trkpt lat="44.540943" lon="34.277267"><ele>-16.3</ele><time>2011-10-12T14:31:12.0000000+00:00</time></trkpt><trkpt lat="44.540932" lon="34.277225"><ele>-16.1</ele><time>2011-10-12T14:31:17.0000000+00:00</time></trkpt><trkpt lat="44.540993" lon="34.27721"><ele>-14.0</ele><time>2011-10-12T14:31:22.0000000+00:00</time></trkpt><trkpt lat="44.541073" lon="34.277363"><ele>-11.7</ele><time>2011-10-12T14:31:27.0000000+00:00</time></trkpt><trkpt lat="44.541187" lon="34.277527"><ele>-11.1</ele><time>2011-10-12T14:31:32.0000000+00:00</time></trkpt><trkpt lat="44.541306" lon="34.277691"><ele>-10.6</ele><time>2011-10-12T14:31:37.0000000+00:00</time></trkpt><trkpt lat="44.541393" lon="34.277817"><ele>-10.0</ele><time>2011-10-12T14:31:42.0000000+00:00</time></trkpt><trkpt lat="44.541462" lon="34.277939"><ele>-9.7</ele><time>2011-10-12T14:31:47.0000000+00:00</time></trkpt><trkpt lat="44.541569" lon="34.278111"><ele>-9.2</ele><time>2011-10-12T14:31:52.0000000+00:00</time></trkpt><trkpt lat="44.541622" lon="34.278229"><ele>-9.1</ele><time>2011-10-12T14:31:57.0000000+00:00</time></trkpt><trkpt lat="44.541668" lon="34.278328"><ele>-8.5</ele><time>2011-10-12T14:32:02.0000000+00:00</time></trkpt><trkpt lat="44.541763" lon="34.278454"><ele>-8.2</ele><time>2011-10-12T14:32:07.0000000+00:00</time></trkpt><trkpt lat="44.541862" lon="34.278561"><ele>-5.6</ele><time>2011-10-12T14:32:12.0000000+00:00</time></trkpt><trkpt lat="44.541924" lon="34.278664"><ele>-5.5</ele><time>2011-10-12T14:32:17.0000000+00:00</time></trkpt><trkpt lat="44.541996" lon="34.278751"><ele>-4.6</ele><time>2011-10-12T14:32:22.0000000+00:00</time></trkpt><trkpt lat="44.542088" lon="34.278877"><ele>-3.3</ele><time>2011-10-12T14:32:27.0000000+00:00</time></trkpt><trkpt lat="44.542175" lon="34.279003"><ele>-2.3</ele><time>2011-10-12T14:32:32.0000000+00:00</time></trkpt><trkpt lat="44.542244" lon="34.279106"><ele>-1.3</ele><time>2011-10-12T14:32:37.0000000+00:00</time></trkpt><trkpt lat="44.542332" lon="34.279228"><ele>0.6</ele><time>2011-10-12T14:32:42.0000000+00:00</time></trkpt><trkpt lat="44.542389" lon="34.279438"><ele>2.8</ele><time>2011-10-12T14:32:47.0000000+00:00</time></trkpt><trkpt lat="44.5425" lon="34.279552"><ele>5.1</ele><time>2011-10-12T14:32:52.0000000+00:00</time></trkpt><trkpt lat="44.542564" lon="34.279499"><ele>6.8</ele><time>2011-10-12T14:32:57.0000000+00:00</time></trkpt><trkpt lat="44.542576" lon="34.279362"><ele>8.8</ele><time>2011-10-12T14:33:02.0000000+00:00</time></trkpt><trkpt lat="44.542625" lon="34.279205"><ele>11.1</ele><time>2011-10-12T14:33:07.0000000+00:00</time></trkpt><trkpt lat="44.542686" lon="34.27911"><ele>13.4</ele><time>2011-10-12T14:33:12.0000000+00:00</time></trkpt><trkpt lat="44.542709" lon="34.279079"><ele>15.8</ele><time>2011-10-12T14:33:17.0000000+00:00</time></trkpt><trkpt lat="44.542774" lon="34.279167"><ele>16.6</ele><time>2011-10-12T14:33:22.0000000+00:00</time></trkpt><trkpt lat="44.542824" lon="34.27924"><ele>17.5</ele><time>2011-10-12T14:33:27.0000000+00:00</time></trkpt><trkpt lat="44.542885" lon="34.27935"><ele>18.9</ele><time>2011-10-12T14:33:32.0000000+00:00</time></trkpt><trkpt lat="44.542927" lon="34.279415"><ele>21.1</ele><time>2011-10-12T14:33:37.0000000+00:00</time></trkpt><trkpt lat="44.54295" lon="34.279461"><ele>23.9</ele><time>2011-10-12T14:33:42.0000000+00:00</time></trkpt><trkpt lat="44.542976" lon="34.279572"><ele>26.3</ele><time>2011-10-12T14:33:47.0000000+00:00</time></trkpt><trkpt lat="44.543056" lon="34.279671"><ele>28.8</ele><time>2011-10-12T14:33:52.0000000+00:00</time></trkpt><trkpt lat="44.543068" lon="34.27972"><ele>30.6</ele><time>2011-10-12T14:33:57.0000000+00:00</time></trkpt><trkpt lat="44.543076" lon="34.279667"><ele>32.4</ele><time>2011-10-12T14:34:02.0000000+00:00</time></trkpt><trkpt lat="44.543068" lon="34.279556"><ele>33.5</ele><time>2011-10-12T14:34:07.0000000+00:00</time></trkpt><trkpt lat="44.543064" lon="34.279453"><ele>34.6</ele><time>2011-10-12T14:34:12.0000000+00:00</time></trkpt><trkpt lat="44.543041" lon="34.279362"><ele>35.8</ele><time>2011-10-12T14:34:17.0000000+00:00</time></trkpt><trkpt lat="44.543007" lon="34.279305"><ele>36.3</ele><time>2011-10-12T14:34:22.0000000+00:00</time></trkpt><trkpt lat="44.543045" lon="34.279255"><ele>32.8</ele><time>2011-10-12T14:34:27.0000000+00:00</time></trkpt><trkpt lat="44.543076" lon="34.279266"><ele>32.9</ele><time>2011-10-12T14:34:32.0000000+00:00</time></trkpt><trkpt lat="44.543079" lon="34.279297"><ele>33.6</ele><time>2011-10-12T14:34:37.0000000+00:00</time></trkpt><trkpt lat="44.543068" lon="34.279263"><ele>33.3</ele><time>2011-10-12T14:34:42.0000000+00:00</time></trkpt><trkpt lat="44.543095" lon="34.27919"><ele>32.1</ele><time>2011-10-12T14:34:47.0000000+00:00</time></trkpt><trkpt lat="44.543148" lon="34.279202"><ele>32.4</ele><time>2011-10-12T14:34:52.0000000+00:00</time></trkpt><trkpt lat="44.543133" lon="34.279255"><ele>33.3</ele><time>2011-10-12T14:34:57.0000000+00:00</time></trkpt><trkpt lat="44.54311" lon="34.279247"><ele>29.6</ele><time>2011-10-12T14:35:02.0000000+00:00</time></trkpt><trkpt lat="44.543102" lon="34.279236"><ele>28.9</ele><time>2011-10-12T14:35:07.0000000+00:00</time></trkpt><trkpt lat="44.543102" lon="34.279236"><ele>29.1</ele><time>2011-10-12T14:35:12.0000000+00:00</time></trkpt><trkpt lat="44.543102" lon="34.279232"><ele>29.3</ele><time>2011-10-12T14:35:17.0000000+00:00</time></trkpt><trkpt lat="44.543102" lon="34.279232"><ele>29.3</ele><time>2011-10-12T14:35:22.0000000+00:00</time></trkpt><trkpt lat="44.543129" lon="34.27919"><ele>29.1</ele><time>2011-10-12T14:35:27.0000000+00:00</time></trkpt><trkpt lat="44.543148" lon="34.279179"><ele>28.9</ele><time>2011-10-12T14:35:32.0000000+00:00</time></trkpt><trkpt lat="44.54314" lon="34.279217"><ele>28.5</ele><time>2011-10-12T14:35:37.0000000+00:00</time></trkpt><trkpt lat="44.543137" lon="34.279217"><ele>28.5</ele><time>2011-10-12T14:35:42.0000000+00:00</time></trkpt><trkpt lat="44.543129" lon="34.279243"><ele>28.5</ele><time>2011-10-12T14:35:47.0000000+00:00</time></trkpt><trkpt lat="44.54314" lon="34.279327"><ele>28.7</ele><time>2011-10-12T14:35:52.0000000+00:00</time></trkpt><trkpt lat="44.543144" lon="34.279438"><ele>28.3</ele><time>2011-10-12T14:35:57.0000000+00:00</time></trkpt><trkpt lat="44.54314" lon="34.279572"><ele>28.2</ele><time>2011-10-12T14:36:02.0000000+00:00</time></trkpt><trkpt lat="44.54311" lon="34.279728"><ele>28.3</ele><time>2011-10-12T14:36:07.0000000+00:00</time></trkpt><trkpt lat="44.543129" lon="34.279877"><ele>28.8</ele><time>2011-10-12T14:36:12.0000000+00:00</time></trkpt><trkpt lat="44.543129" lon="34.280064"><ele>28.9</ele><time>2011-10-12T14:36:17.0000000+00:00</time></trkpt><trkpt lat="44.543129" lon="34.280216"><ele>28.9</ele><time>2011-10-12T14:36:22.0000000+00:00</time></trkpt><trkpt lat="44.543118" lon="34.280376"><ele>29.1</ele><time>2011-10-12T14:36:27.0000000+00:00</time></trkpt><trkpt lat="44.543118" lon="34.280502"><ele>27.9</ele><time>2011-10-12T14:36:32.0000000+00:00</time></trkpt><trkpt lat="44.543137" lon="34.280643"><ele>28.1</ele><time>2011-10-12T14:36:37.0000000+00:00</time></trkpt><trkpt lat="44.543137" lon="34.280807"><ele>27.7</ele><time>2011-10-12T14:36:42.0000000+00:00</time></trkpt><trkpt lat="44.543118" lon="34.280945"><ele>28.3</ele><time>2011-10-12T14:36:47.0000000+00:00</time></trkpt><trkpt lat="44.543125" lon="34.281094"><ele>28.7</ele><time>2011-10-12T14:36:52.0000000+00:00</time></trkpt><trkpt lat="44.543121" lon="34.281265"><ele>30.2</ele><time>2011-10-12T14:36:57.0000000+00:00</time></trkpt><trkpt lat="44.543091" lon="34.281445"><ele>33.5</ele><time>2011-10-12T14:37:02.0000000+00:00</time></trkpt><trkpt lat="44.543079" lon="34.281601"><ele>35.0</ele><time>2011-10-12T14:37:07.0000000+00:00</time></trkpt><trkpt lat="44.543064" lon="34.281746"><ele>36.3</ele><time>2011-10-12T14:37:12.0000000+00:00</time></trkpt><trkpt lat="44.543045" lon="34.281872"><ele>38.2</ele><time>2011-10-12T14:37:17.0000000+00:00</time></trkpt><trkpt lat="44.543072" lon="34.282024"><ele>40.5</ele><time>2011-10-12T14:37:22.0000000+00:00</time></trkpt><trkpt lat="44.543121" lon="34.282139"><ele>43.1</ele><time>2011-10-12T14:37:27.0000000+00:00</time></trkpt><trkpt lat="44.543186" lon="34.28228"><ele>44.6</ele><time>2011-10-12T14:37:32.0000000+00:00</time></trkpt><trkpt lat="44.543259" lon="34.282448"><ele>44.8</ele><time>2011-10-12T14:37:37.0000000+00:00</time></trkpt><trkpt lat="44.543362" lon="34.282543"><ele>44.8</ele><time>2011-10-12T14:37:42.0000000+00:00</time></trkpt><trkpt lat="44.543438" lon="34.282715"><ele>43.5</ele><time>2011-10-12T14:37:47.0000000+00:00</time></trkpt><trkpt lat="44.543571" lon="34.282829"><ele>43.3</ele><time>2011-10-12T14:37:52.0000000+00:00</time></trkpt><trkpt lat="44.543682" lon="34.282936"><ele>39.7</ele><time>2011-10-12T14:37:57.0000000+00:00</time></trkpt><trkpt lat="44.543713" lon="34.282986"><ele>37.9</ele><time>2011-10-12T14:38:02.0000000+00:00</time></trkpt><trkpt lat="44.54372" lon="34.283009"><ele>38.0</ele><time>2011-10-12T14:38:07.0000000+00:00</time></trkpt><trkpt lat="44.54372" lon="34.283012"><ele>38.0</ele><time>2011-10-12T14:38:12.0000000+00:00</time></trkpt><trkpt lat="44.543716" lon="34.283016"><ele>38.0</ele><time>2011-10-12T14:38:17.0000000+00:00</time></trkpt><trkpt lat="44.543716" lon="34.283016"><ele>38.0</ele><time>2011-10-12T14:38:22.0000000+00:00</time></trkpt><trkpt lat="44.543716" lon="34.283012"><ele>38.0</ele><time>2011-10-12T14:38:27.0000000+00:00</time></trkpt><trkpt lat="44.543716" lon="34.283012"><ele>38.0</ele><time>2011-10-12T14:38:32.0000000+00:00</time></trkpt><trkpt lat="44.543716" lon="34.283016"><ele>38.1</ele><time>2011-10-12T14:38:37.0000000+00:00</time></trkpt><trkpt lat="44.543716" lon="34.283012"><ele>38.2</ele><time>2011-10-12T14:38:42.0000000+00:00</time></trkpt><trkpt lat="44.543716" lon="34.283012"><ele>38.1</ele><time>2011-10-12T14:38:47.0000000+00:00</time></trkpt><trkpt lat="44.543728" lon="34.283031"><ele>37.8</ele><time>2011-10-12T14:38:52.0000000+00:00</time></trkpt><trkpt lat="44.543869" lon="34.283165"><ele>37.7</ele><time>2011-10-12T14:38:57.0000000+00:00</time></trkpt><trkpt lat="44.543957" lon="34.283333"><ele>38.0</ele><time>2011-10-12T14:39:02.0000000+00:00</time></trkpt><trkpt lat="44.544086" lon="34.28355"><ele>37.2</ele><time>2011-10-12T14:39:07.0000000+00:00</time></trkpt><trkpt lat="44.544235" lon="34.283775"><ele>37.9</ele><time>2011-10-12T14:39:12.0000000+00:00</time></trkpt><trkpt lat="44.544384" lon="34.283989"><ele>37.8</ele><time>2011-10-12T14:39:17.0000000+00:00</time></trkpt><trkpt lat="44.544495" lon="34.284176"><ele>38.0</ele><time>2011-10-12T14:39:22.0000000+00:00</time></trkpt><trkpt lat="44.544582" lon="34.284348"><ele>37.4</ele><time>2011-10-12T14:39:27.0000000+00:00</time></trkpt><trkpt lat="44.544624" lon="34.284473"><ele>39.7</ele><time>2011-10-12T14:39:32.0000000+00:00</time></trkpt><trkpt lat="44.544685" lon="34.284534"><ele>38.6</ele><time>2011-10-12T14:39:37.0000000+00:00</time></trkpt><trkpt lat="44.544746" lon="34.284634"><ele>37.9</ele><time>2011-10-12T14:39:42.0000000+00:00</time></trkpt><trkpt lat="44.544868" lon="34.28474"><ele>37.0</ele><time>2011-10-12T14:39:47.0000000+00:00</time></trkpt><trkpt lat="44.545036" lon="34.284863"><ele>35.2</ele><time>2011-10-12T14:39:52.0000000+00:00</time></trkpt><trkpt lat="44.545246" lon="34.284966"><ele>33.3</ele><time>2011-10-12T14:39:57.0000000+00:00</time></trkpt><trkpt lat="44.545506" lon="34.285084"><ele>30.7</ele><time>2011-10-12T14:40:02.0000000+00:00</time></trkpt><trkpt lat="44.545753" lon="34.285206"><ele>28.4</ele><time>2011-10-12T14:40:07.0000000+00:00</time></trkpt><trkpt lat="44.546055" lon="34.285355"><ele>25.6</ele><time>2011-10-12T14:40:12.0000000+00:00</time></trkpt><trkpt lat="44.546337" lon="34.285358"><ele>24.3</ele><time>2011-10-12T14:40:17.0000000+00:00</time></trkpt><trkpt lat="44.546497" lon="34.285561"><ele>24.7</ele><time>2011-10-12T14:40:22.0000000+00:00</time></trkpt><trkpt lat="44.54652" lon="34.285717"><ele>26.0</ele><time>2011-10-12T14:40:27.0000000+00:00</time></trkpt><trkpt lat="44.546524" lon="34.285862"><ele>27.9</ele><time>2011-10-12T14:40:32.0000000+00:00</time></trkpt><trkpt lat="44.546509" lon="34.286098"><ele>30.9</ele><time>2011-10-12T14:40:37.0000000+00:00</time></trkpt><trkpt lat="44.546551" lon="34.286343"><ele>30.6</ele><time>2011-10-12T14:40:42.0000000+00:00</time></trkpt><trkpt lat="44.546612" lon="34.286594"><ele>31.7</ele><time>2011-10-12T14:40:47.0000000+00:00</time></trkpt><trkpt lat="44.546658" lon="34.286808"><ele>33.0</ele><time>2011-10-12T14:40:52.0000000+00:00</time></trkpt><trkpt lat="44.546711" lon="34.28701"><ele>34.2</ele><time>2011-10-12T14:40:57.0000000+00:00</time></trkpt><trkpt lat="44.546761" lon="34.287174"><ele>36.6</ele><time>2011-10-12T14:41:02.0000000+00:00</time></trkpt><trkpt lat="44.546803" lon="34.28735"><ele>37.8</ele><time>2011-10-12T14:41:07.0000000+00:00</time></trkpt><trkpt lat="44.546867" lon="34.287502"><ele>39.6</ele><time>2011-10-12T14:41:12.0000000+00:00</time></trkpt><trkpt lat="44.546932" lon="34.287655"><ele>42.5</ele><time>2011-10-12T14:41:17.0000000+00:00</time></trkpt><trkpt lat="44.547028" lon="34.2878"><ele>41.7</ele><time>2011-10-12T14:41:22.0000000+00:00</time></trkpt><trkpt lat="44.547104" lon="34.287933"><ele>44.2</ele><time>2011-10-12T14:41:27.0000000+00:00</time></trkpt><trkpt lat="44.547157" lon="34.288071"><ele>45.6</ele><time>2011-10-12T14:41:32.0000000+00:00</time></trkpt><trkpt lat="44.54723" lon="34.288212"><ele>47.8</ele><time>2011-10-12T14:41:37.0000000+00:00</time></trkpt><trkpt lat="44.547295" lon="34.288349"><ele>49.7</ele><time>2011-10-12T14:41:42.0000000+00:00</time></trkpt><trkpt lat="44.547363" lon="34.288479"><ele>51.5</ele><time>2011-10-12T14:41:47.0000000+00:00</time></trkpt><trkpt lat="44.54744" lon="34.288578"><ele>51.2</ele><time>2011-10-12T14:41:52.0000000+00:00</time></trkpt><trkpt lat="44.547504" lon="34.288689"><ele>50.0</ele><time>2011-10-12T14:41:57.0000000+00:00</time></trkpt><trkpt lat="44.54755" lon="34.288834"><ele>50.5</ele><time>2011-10-12T14:42:02.0000000+00:00</time></trkpt><trkpt lat="44.547626" lon="34.288937"><ele>51.4</ele><time>2011-10-12T14:42:07.0000000+00:00</time></trkpt><trkpt lat="44.547714" lon="34.289028"><ele>53.7</ele><time>2011-10-12T14:42:12.0000000+00:00</time></trkpt><trkpt lat="44.547775" lon="34.28912"><ele>55.3</ele><time>2011-10-12T14:42:17.0000000+00:00</time></trkpt><trkpt lat="44.547806" lon="34.289246"><ele>57.7</ele><time>2011-10-12T14:42:22.0000000+00:00</time></trkpt><trkpt lat="44.54784" lon="34.289379"><ele>60.6</ele><time>2011-10-12T14:42:27.0000000+00:00</time></trkpt><trkpt lat="44.547886" lon="34.289486"><ele>63.1</ele><time>2011-10-12T14:42:32.0000000+00:00</time></trkpt><trkpt lat="44.547878" lon="34.289574"><ele>66.9</ele><time>2011-10-12T14:42:37.0000000+00:00</time></trkpt><trkpt lat="44.54792" lon="34.289661"><ele>69.9</ele><time>2011-10-12T14:42:42.0000000+00:00</time></trkpt><trkpt lat="44.547993" lon="34.28978"><ele>70.4</ele><time>2011-10-12T14:42:47.0000000+00:00</time></trkpt><trkpt lat="44.548019" lon="34.289875"><ele>72.6</ele><time>2011-10-12T14:42:52.0000000+00:00</time></trkpt><trkpt lat="44.548088" lon="34.289982"><ele>73.6</ele><time>2011-10-12T14:42:57.0000000+00:00</time></trkpt><trkpt lat="44.548149" lon="34.290127"><ele>73.1</ele><time>2011-10-12T14:43:02.0000000+00:00</time></trkpt><trkpt lat="44.548214" lon="34.290249"><ele>72.9</ele><time>2011-10-12T14:43:07.0000000+00:00</time></trkpt><trkpt lat="44.548267" lon="34.29034"><ele>73.5</ele><time>2011-10-12T14:43:12.0000000+00:00</time></trkpt><trkpt lat="44.548321" lon="34.290424"><ele>74.0</ele><time>2011-10-12T14:43:17.0000000+00:00</time></trkpt><trkpt lat="44.548424" lon="34.290497"><ele>73.5</ele><time>2011-10-12T14:43:22.0000000+00:00</time></trkpt><trkpt lat="44.548542" lon="34.290482"><ele>72.4</ele><time>2011-10-12T14:43:27.0000000+00:00</time></trkpt><trkpt lat="44.548653" lon="34.290493"><ele>69.3</ele><time>2011-10-12T14:43:32.0000000+00:00</time></trkpt><trkpt lat="44.548771" lon="34.290539"><ele>68.5</ele><time>2011-10-12T14:43:37.0000000+00:00</time></trkpt><trkpt lat="44.548893" lon="34.290627"><ele>66.3</ele><time>2011-10-12T14:43:42.0000000+00:00</time></trkpt><trkpt lat="44.548958" lon="34.290779"><ele>67.0</ele><time>2011-10-12T14:43:47.0000000+00:00</time></trkpt><trkpt lat="44.549026" lon="34.290951"><ele>67.7</ele><time>2011-10-12T14:43:52.0000000+00:00</time></trkpt><trkpt lat="44.549137" lon="34.291187"><ele>67.9</ele><time>2011-10-12T14:43:57.0000000+00:00</time></trkpt><trkpt lat="44.549213" lon="34.291565"><ele>67.6</ele><time>2011-10-12T14:44:02.0000000+00:00</time></trkpt><trkpt lat="44.549248" lon="34.292"><ele>68.3</ele><time>2011-10-12T14:44:07.0000000+00:00</time></trkpt><trkpt lat="44.549301" lon="34.292465"><ele>67.3</ele><time>2011-10-12T14:44:12.0000000+00:00</time></trkpt><trkpt lat="44.549427" lon="34.292995"><ele>60.1</ele><time>2011-10-12T14:44:17.0000000+00:00</time></trkpt><trkpt lat="44.549595" lon="34.293541"><ele>57.5</ele><time>2011-10-12T14:44:22.0000000+00:00</time></trkpt><trkpt lat="44.549858" lon="34.294052"><ele>52.6</ele><time>2011-10-12T14:44:27.0000000+00:00</time></trkpt><trkpt lat="44.550163" lon="34.294609"><ele>44.4</ele><time>2011-10-12T14:44:32.0000000+00:00</time></trkpt><trkpt lat="44.550434" lon="34.295238"><ele>39.4</ele><time>2011-10-12T14:44:37.0000000+00:00</time></trkpt><trkpt lat="44.550686" lon="34.295795"><ele>36.5</ele><time>2011-10-12T14:44:42.0000000+00:00</time></trkpt><trkpt lat="44.550739" lon="34.296192"><ele>33.5</ele><time>2011-10-12T14:44:47.0000000+00:00</time></trkpt><trkpt lat="44.550648" lon="34.296566"><ele>33.2</ele><time>2011-10-12T14:44:52.0000000+00:00</time></trkpt><trkpt lat="44.550602" lon="34.296974"><ele>33.2</ele><time>2011-10-12T14:44:57.0000000+00:00</time></trkpt><trkpt lat="44.55069" lon="34.29718"><ele>40.1</ele><time>2011-10-12T14:45:02.0000000+00:00</time></trkpt><trkpt lat="44.550739" lon="34.297234"><ele>43.1</ele><time>2011-10-12T14:45:07.0000000+00:00</time></trkpt><trkpt lat="44.550777" lon="34.297401"><ele>40.6</ele><time>2011-10-12T14:45:12.0000000+00:00</time></trkpt><trkpt lat="44.550865" lon="34.297573"><ele>43.1</ele><time>2011-10-12T14:45:17.0000000+00:00</time></trkpt><trkpt lat="44.551025" lon="34.297688"><ele>42.3</ele><time>2011-10-12T14:45:22.0000000+00:00</time></trkpt><trkpt lat="44.551182" lon="34.297813"><ele>43.2</ele><time>2011-10-12T14:45:27.0000000+00:00</time></trkpt><trkpt lat="44.551346" lon="34.297947"><ele>44.4</ele><time>2011-10-12T14:45:32.0000000+00:00</time></trkpt><trkpt lat="44.551449" lon="34.298157"><ele>46.9</ele><time>2011-10-12T14:45:37.0000000+00:00</time></trkpt><trkpt lat="44.551502" lon="34.298409"><ele>49.4</ele><time>2011-10-12T14:45:42.0000000+00:00</time></trkpt><trkpt lat="44.551529" lon="34.298679"><ele>51.6</ele><time>2011-10-12T14:45:47.0000000+00:00</time></trkpt><trkpt lat="44.55164" lon="34.298916"><ele>50.1</ele><time>2011-10-12T14:45:52.0000000+00:00</time></trkpt><trkpt lat="44.551754" lon="34.29903"><ele>50.2</ele><time>2011-10-12T14:45:57.0000000+00:00</time></trkpt><trkpt lat="44.551903" lon="34.299088"><ele>51.0</ele><time>2011-10-12T14:46:02.0000000+00:00</time></trkpt><trkpt lat="44.552055" lon="34.299091"><ele>50.9</ele><time>2011-10-12T14:46:07.0000000+00:00</time></trkpt><trkpt lat="44.552212" lon="34.299065"><ele>52.8</ele><time>2011-10-12T14:46:12.0000000+00:00</time></trkpt><trkpt lat="44.552319" lon="34.298992"><ele>51.4</ele><time>2011-10-12T14:46:17.0000000+00:00</time></trkpt><trkpt lat="44.552383" lon="34.298943"><ele>53.6</ele><time>2011-10-12T14:46:22.0000000+00:00</time></trkpt><trkpt lat="44.552467" lon="34.298908"><ele>52.5</ele><time>2011-10-12T14:46:27.0000000+00:00</time></trkpt><trkpt lat="44.552582" lon="34.298893"><ele>54.6</ele><time>2011-10-12T14:46:32.0000000+00:00</time></trkpt><trkpt lat="44.552692" lon="34.298908"><ele>55.1</ele><time>2011-10-12T14:46:37.0000000+00:00</time></trkpt><trkpt lat="44.552769" lon="34.298931"><ele>56.3</ele><time>2011-10-12T14:46:42.0000000+00:00</time></trkpt><trkpt lat="44.552849" lon="34.298962"><ele>59.3</ele><time>2011-10-12T14:46:47.0000000+00:00</time></trkpt><trkpt lat="44.55294" lon="34.298996"><ele>61.0</ele><time>2011-10-12T14:46:52.0000000+00:00</time></trkpt><trkpt lat="44.553051" lon="34.299015"><ele>62.6</ele><time>2011-10-12T14:46:57.0000000+00:00</time></trkpt><trkpt lat="44.553165" lon="34.299076"><ele>63.7</ele><time>2011-10-12T14:47:02.0000000+00:00</time></trkpt><trkpt lat="44.553288" lon="34.299149"><ele>66.1</ele><time>2011-10-12T14:47:07.0000000+00:00</time></trkpt><trkpt lat="44.553413" lon="34.299183"><ele>63.7</ele><time>2011-10-12T14:47:12.0000000+00:00</time></trkpt><trkpt lat="44.553486" lon="34.299164"><ele>64.5</ele><time>2011-10-12T14:47:17.0000000+00:00</time></trkpt><trkpt lat="44.553673" lon="34.299084"><ele>64.3</ele><time>2011-10-12T14:47:22.0000000+00:00</time></trkpt><trkpt lat="44.553848" lon="34.298962"><ele>63.7</ele><time>2011-10-12T14:47:27.0000000+00:00</time></trkpt><trkpt lat="44.553913" lon="34.298908"><ele>62.6</ele><time>2011-10-12T14:47:32.0000000+00:00</time></trkpt><trkpt lat="44.553978" lon="34.298862"><ele>60.7</ele><time>2011-10-12T14:47:37.0000000+00:00</time></trkpt><trkpt lat="44.55394" lon="34.298801"><ele>59.5</ele><time>2011-10-12T14:47:42.0000000+00:00</time></trkpt><trkpt lat="44.553856" lon="34.298698"><ele>59.4</ele><time>2011-10-12T14:47:47.0000000+00:00</time></trkpt><trkpt lat="44.553768" lon="34.298534"><ele>58.8</ele><time>2011-10-12T14:47:52.0000000+00:00</time></trkpt><trkpt lat="44.553673" lon="34.298367"><ele>59.5</ele><time>2011-10-12T14:47:57.0000000+00:00</time></trkpt><trkpt lat="44.553638" lon="34.298286"><ele>60.7</ele><time>2011-10-12T14:48:02.0000000+00:00</time></trkpt><trkpt lat="44.553631" lon="34.298252"><ele>60.8</ele><time>2011-10-12T14:48:07.0000000+00:00</time></trkpt><trkpt lat="44.553642" lon="34.298222"><ele>60.7</ele><time>2011-10-12T14:48:12.0000000+00:00</time></trkpt><trkpt lat="44.55365" lon="34.29821"><ele>60.7</ele><time>2011-10-12T14:48:17.0000000+00:00</time></trkpt><trkpt lat="44.55365" lon="34.298206"><ele>60.7</ele><time>2011-10-12T14:48:22.0000000+00:00</time></trkpt><trkpt lat="44.55365" lon="34.298218"><ele>60.7</ele><time>2011-10-12T14:48:27.0000000+00:00</time></trkpt><trkpt lat="44.553646" lon="34.298244"><ele>60.6</ele><time>2011-10-12T14:48:32.0000000+00:00</time></trkpt><trkpt lat="44.553638" lon="34.298264"><ele>60.4</ele><time>2011-10-12T14:48:37.0000000+00:00</time></trkpt><trkpt lat="44.553638" lon="34.29826"><ele>59.9</ele><time>2011-10-12T14:48:42.0000000+00:00</time></trkpt><trkpt lat="44.553654" lon="34.298248"><ele>59.6</ele><time>2011-10-12T14:48:47.0000000+00:00</time></trkpt><trkpt lat="44.553669" lon="34.298229"><ele>59.2</ele><time>2011-10-12T14:48:52.0000000+00:00</time></trkpt><trkpt lat="44.553677" lon="34.298244"><ele>58.9</ele><time>2011-10-12T14:48:57.0000000+00:00</time></trkpt><trkpt lat="44.553677" lon="34.298248"><ele>58.5</ele><time>2011-10-12T14:49:02.0000000+00:00</time></trkpt><trkpt lat="44.553703" lon="34.298222"><ele>58.5</ele><time>2011-10-12T14:49:07.0000000+00:00</time></trkpt><trkpt lat="44.553764" lon="34.298218"><ele>58.9</ele><time>2011-10-12T14:49:12.0000000+00:00</time></trkpt><trkpt lat="44.55381" lon="34.298172"><ele>58.9</ele><time>2011-10-12T14:49:17.0000000+00:00</time></trkpt><trkpt lat="44.553841" lon="34.298141"><ele>58.9</ele><time>2011-10-12T14:49:22.0000000+00:00</time></trkpt><trkpt lat="44.553871" lon="34.29808"><ele>58.6</ele><time>2011-10-12T14:49:27.0000000+00:00</time></trkpt><trkpt lat="44.553852" lon="34.298012"><ele>58.1</ele><time>2011-10-12T14:49:32.0000000+00:00</time></trkpt><trkpt lat="44.553837" lon="34.297993"><ele>58.0</ele><time>2011-10-12T14:49:37.0000000+00:00</time></trkpt><trkpt lat="44.553829" lon="34.297916"><ele>58.5</ele><time>2011-10-12T14:49:42.0000000+00:00</time></trkpt><trkpt lat="44.553818" lon="34.297848"><ele>58.8</ele><time>2011-10-12T14:49:47.0000000+00:00</time></trkpt><trkpt lat="44.55381" lon="34.297821"><ele>59.2</ele><time>2011-10-12T14:49:52.0000000+00:00</time></trkpt><trkpt lat="44.553806" lon="34.297852"><ele>59.6</ele><time>2011-10-12T14:49:57.0000000+00:00</time></trkpt><trkpt lat="44.55381" lon="34.297859"><ele>59.5</ele><time>2011-10-12T14:50:02.0000000+00:00</time></trkpt><trkpt lat="44.553844" lon="34.297943"><ele>58.4</ele><time>2011-10-12T14:50:07.0000000+00:00</time></trkpt><trkpt lat="44.553852" lon="34.297962"><ele>58.1</ele><time>2011-10-12T14:50:12.0000000+00:00</time></trkpt><trkpt lat="44.553837" lon="34.297989"><ele>58.0</ele><time>2011-10-12T14:50:17.0000000+00:00</time></trkpt><trkpt lat="44.553799" lon="34.298019"><ele>58.0</ele><time>2011-10-12T14:50:22.0000000+00:00</time></trkpt><trkpt lat="44.553761" lon="34.298061"><ele>58.1</ele><time>2011-10-12T14:50:27.0000000+00:00</time></trkpt><trkpt lat="44.553707" lon="34.298122"><ele>58.6</ele><time>2011-10-12T14:50:32.0000000+00:00</time></trkpt><trkpt lat="44.55368" lon="34.298241"><ele>58.5</ele><time>2011-10-12T14:50:37.0000000+00:00</time></trkpt><trkpt lat="44.553654" lon="34.298248"><ele>58.5</ele><time>2011-10-12T14:50:42.0000000+00:00</time></trkpt><trkpt lat="44.553638" lon="34.298256"><ele>58.2</ele><time>2011-10-12T14:50:47.0000000+00:00</time></trkpt><trkpt lat="44.553635" lon="34.298252"><ele>57.8</ele><time>2011-10-12T14:50:52.0000000+00:00</time></trkpt><trkpt lat="44.553616" lon="34.298267"><ele>57.7</ele><time>2011-10-12T14:50:57.0000000+00:00</time></trkpt><trkpt lat="44.553638" lon="34.298229"><ele>57.5</ele><time>2011-10-12T14:51:02.0000000+00:00</time></trkpt><trkpt lat="44.553631" lon="34.298149"><ele>57.5</ele><time>2011-10-12T14:51:07.0000000+00:00</time></trkpt><trkpt lat="44.553604" lon="34.298096"><ele>57.9</ele><time>2011-10-12T14:51:12.0000000+00:00</time></trkpt><trkpt lat="44.55357" lon="34.298077"><ele>58.1</ele><time>2011-10-12T14:51:17.0000000+00:00</time></trkpt><trkpt lat="44.553593" lon="34.298199"><ele>58.2</ele><time>2011-10-12T14:51:22.0000000+00:00</time></trkpt><trkpt lat="44.553566" lon="34.298298"><ele>59.3</ele><time>2011-10-12T14:51:27.0000000+00:00</time></trkpt><trkpt lat="44.553577" lon="34.298328"><ele>59.0</ele><time>2011-10-12T14:51:32.0000000+00:00</time></trkpt><trkpt lat="44.553562" lon="34.298355"><ele>59.4</ele><time>2011-10-12T14:51:37.0000000+00:00</time></trkpt><trkpt lat="44.553551" lon="34.298378"><ele>59.5</ele><time>2011-10-12T14:51:42.0000000+00:00</time></trkpt><trkpt lat="44.553555" lon="34.298374"><ele>59.5</ele><time>2011-10-12T14:51:47.0000000+00:00</time></trkpt><trkpt lat="44.553558" lon="34.298374"><ele>59.5</ele><time>2011-10-12T14:51:52.0000000+00:00</time></trkpt><trkpt lat="44.553558" lon="34.298374"><ele>59.5</ele><time>2011-10-12T14:51:57.0000000+00:00</time></trkpt><trkpt lat="44.553555" lon="34.298378"><ele>59.5</ele><time>2011-10-12T14:52:02.0000000+00:00</time></trkpt><trkpt lat="44.553551" lon="34.298378"><ele>59.5</ele><time>2011-10-12T14:52:07.0000000+00:00</time></trkpt><trkpt lat="44.553558" lon="34.298367"><ele>59.8</ele><time>2011-10-12T14:52:12.0000000+00:00</time></trkpt><trkpt lat="44.553551" lon="34.298359"><ele>60.3</ele><time>2011-10-12T14:52:17.0000000+00:00</time></trkpt><trkpt lat="44.553558" lon="34.298332"><ele>60.6</ele><time>2011-10-12T14:52:22.0000000+00:00</time></trkpt><trkpt lat="44.553555" lon="34.298321"><ele>61.6</ele><time>2011-10-12T14:52:27.0000000+00:00</time></trkpt><trkpt lat="44.553555" lon="34.298313"><ele>61.7</ele><time>2011-10-12T14:52:32.0000000+00:00</time></trkpt><trkpt lat="44.553558" lon="34.298309"><ele>61.8</ele><time>2011-10-12T14:52:37.0000000+00:00</time></trkpt><trkpt lat="44.553585" lon="34.298298"><ele>61.6</ele><time>2011-10-12T14:52:42.0000000+00:00</time></trkpt><trkpt lat="44.553623" lon="34.298256"><ele>61.4</ele><time>2011-10-12T14:52:47.0000000+00:00</time></trkpt><trkpt lat="44.553669" lon="34.298271"><ele>61.3</ele><time>2011-10-12T14:52:52.0000000+00:00</time></trkpt><trkpt lat="44.553715" lon="34.298321"><ele>61.4</ele><time>2011-10-12T14:52:57.0000000+00:00</time></trkpt><trkpt lat="44.553745" lon="34.298336"><ele>61.1</ele><time>2011-10-12T14:53:02.0000000+00:00</time></trkpt><trkpt lat="44.55373" lon="34.29834"><ele>61.8</ele><time>2011-10-12T14:53:07.0000000+00:00</time></trkpt><trkpt lat="44.553715" lon="34.29834"><ele>61.9</ele><time>2011-10-12T14:53:12.0000000+00:00</time></trkpt><trkpt lat="44.553707" lon="34.298347"><ele>61.9</ele><time>2011-10-12T14:53:17.0000000+00:00</time></trkpt><trkpt lat="44.553692" lon="34.298351"><ele>63.1</ele><time>2011-10-12T14:53:22.0000000+00:00</time></trkpt><trkpt lat="44.55365" lon="34.29834"><ele>63.3</ele><time>2011-10-12T14:53:27.0000000+00:00</time></trkpt><trkpt lat="44.553589" lon="34.298298"><ele>64.8</ele><time>2011-10-12T14:53:32.0000000+00:00</time></trkpt><trkpt lat="44.553497" lon="34.298138"><ele>65.6</ele><time>2011-10-12T14:53:37.0000000+00:00</time></trkpt><trkpt lat="44.553326" lon="34.297955"><ele>66.7</ele><time>2011-10-12T14:53:42.0000000+00:00</time></trkpt><trkpt lat="44.553131" lon="34.297737"><ele>66.6</ele><time>2011-10-12T14:53:47.0000000+00:00</time></trkpt><trkpt lat="44.552944" lon="34.297527"><ele>66.6</ele><time>2011-10-12T14:53:52.0000000+00:00</time></trkpt><trkpt lat="44.552887" lon="34.29747"><ele>68.1</ele><time>2011-10-12T14:53:57.0000000+00:00</time></trkpt><trkpt lat="44.552887" lon="34.297466"><ele>68.1</ele><time>2011-10-12T14:54:02.0000000+00:00</time></trkpt><trkpt lat="44.552872" lon="34.297455"><ele>68.2</ele><time>2011-10-12T14:54:07.0000000+00:00</time></trkpt><trkpt lat="44.552757" lon="34.297421"><ele>67.3</ele><time>2011-10-12T14:54:12.0000000+00:00</time></trkpt><trkpt lat="44.552708" lon="34.297325"><ele>69.1</ele><time>2011-10-12T14:54:17.0000000+00:00</time></trkpt><trkpt lat="44.552673" lon="34.297195"><ele>70.5</ele><time>2011-10-12T14:54:22.0000000+00:00</time></trkpt><trkpt lat="44.552612" lon="34.297016"><ele>71.0</ele><time>2011-10-12T14:54:27.0000000+00:00</time></trkpt><trkpt lat="44.55257" lon="34.296902"><ele>72.5</ele><time>2011-10-12T14:54:32.0000000+00:00</time></trkpt><trkpt lat="44.552612" lon="34.296906"><ele>72.7</ele><time>2011-10-12T14:54:37.0000000+00:00</time></trkpt><trkpt lat="44.552589" lon="34.29702"><ele>73.3</ele><time>2011-10-12T14:54:42.0000000+00:00</time></trkpt><trkpt lat="44.552586" lon="34.297127"><ele>74.6</ele><time>2011-10-12T14:54:47.0000000+00:00</time></trkpt><trkpt lat="44.552589" lon="34.297215"><ele>73.2</ele><time>2011-10-12T14:54:52.0000000+00:00</time></trkpt><trkpt lat="44.552593" lon="34.297249"><ele>73.4</ele><time>2011-10-12T14:54:57.0000000+00:00</time></trkpt><trkpt lat="44.552616" lon="34.297295"><ele>73.0</ele><time>2011-10-12T14:55:02.0000000+00:00</time></trkpt><trkpt lat="44.552608" lon="34.297279"><ele>71.9</ele><time>2011-10-12T14:55:07.0000000+00:00</time></trkpt><trkpt lat="44.552612" lon="34.297279"><ele>71.2</ele><time>2011-10-12T14:55:12.0000000+00:00</time></trkpt><trkpt lat="44.552677" lon="34.297329"><ele>71.6</ele><time>2011-10-12T14:55:17.0000000+00:00</time></trkpt><trkpt lat="44.552689" lon="34.297249"><ele>70.9</ele><time>2011-10-12T14:55:22.0000000+00:00</time></trkpt><trkpt lat="44.552586" lon="34.297138"><ele>70.4</ele><time>2011-10-12T14:55:27.0000000+00:00</time></trkpt><trkpt lat="44.552551" lon="34.297073"><ele>70.7</ele><time>2011-10-12T14:55:32.0000000+00:00</time></trkpt><trkpt lat="44.552532" lon="34.297035"><ele>70.5</ele><time>2011-10-12T14:55:37.0000000+00:00</time></trkpt><trkpt lat="44.552559" lon="34.296982"><ele>71.2</ele><time>2011-10-12T14:55:42.0000000+00:00</time></trkpt><trkpt lat="44.552486" lon="34.296841"><ele>70.8</ele><time>2011-10-12T14:55:47.0000000+00:00</time></trkpt><trkpt lat="44.552372" lon="34.296696"><ele>70.1</ele><time>2011-10-12T14:55:52.0000000+00:00</time></trkpt><trkpt lat="44.552284" lon="34.296471"><ele>69.3</ele><time>2011-10-12T14:55:57.0000000+00:00</time></trkpt><trkpt lat="44.5522" lon="34.296299"><ele>68.9</ele><time>2011-10-12T14:56:02.0000000+00:00</time></trkpt><trkpt lat="44.552147" lon="34.296242"><ele>68.5</ele><time>2011-10-12T14:56:07.0000000+00:00</time></trkpt><trkpt lat="44.552094" lon="34.296139"><ele>68.5</ele><time>2011-10-12T14:56:12.0000000+00:00</time></trkpt><trkpt lat="44.552021" lon="34.29599"><ele>67.6</ele><time>2011-10-12T14:56:17.0000000+00:00</time></trkpt><trkpt lat="44.551922" lon="34.295811"><ele>66.9</ele><time>2011-10-12T14:56:22.0000000+00:00</time></trkpt><trkpt lat="44.551926" lon="34.295677"><ele>67.4</ele><time>2011-10-12T14:56:27.0000000+00:00</time></trkpt><trkpt lat="44.551994" lon="34.295582"><ele>67.3</ele><time>2011-10-12T14:56:32.0000000+00:00</time></trkpt><trkpt lat="44.552025" lon="34.295486"><ele>67.5</ele><time>2011-10-12T14:56:37.0000000+00:00</time></trkpt><trkpt lat="44.552044" lon="34.295361"><ele>67.9</ele><time>2011-10-12T14:56:42.0000000+00:00</time></trkpt><trkpt lat="44.552055" lon="34.295204"><ele>70.1</ele><time>2011-10-12T14:56:47.0000000+00:00</time></trkpt><trkpt lat="44.552105" lon="34.295105"><ele>69.9</ele><time>2011-10-12T14:56:52.0000000+00:00</time></trkpt><trkpt lat="44.552105" lon="34.295067"><ele>71.6</ele><time>2011-10-12T14:56:57.0000000+00:00</time></trkpt><trkpt lat="44.552132" lon="34.295071"><ele>69.6</ele><time>2011-10-12T14:57:02.0000000+00:00</time></trkpt><trkpt lat="44.552086" lon="34.29509"><ele>70.0</ele><time>2011-10-12T14:57:07.0000000+00:00</time></trkpt><trkpt lat="44.552082" lon="34.295082"><ele>70.2</ele><time>2011-10-12T14:57:12.0000000+00:00</time></trkpt><trkpt lat="44.552086" lon="34.295086"><ele>69.9</ele><time>2011-10-12T14:57:17.0000000+00:00</time></trkpt><trkpt lat="44.552086" lon="34.29509"><ele>69.8</ele><time>2011-10-12T14:57:22.0000000+00:00</time></trkpt><trkpt lat="44.552082" lon="34.295086"><ele>69.8</ele><time>2011-10-12T14:57:27.0000000+00:00</time></trkpt><trkpt lat="44.552078" lon="34.295086"><ele>69.8</ele><time>2011-10-12T14:57:32.0000000+00:00</time></trkpt><trkpt lat="44.552074" lon="34.295082"><ele>69.8</ele><time>2011-10-12T14:57:37.0000000+00:00</time></trkpt><trkpt lat="44.552074" lon="34.295078"><ele>69.8</ele><time>2011-10-12T14:57:42.0000000+00:00</time></trkpt><trkpt lat="44.552078" lon="34.295074"><ele>69.8</ele><time>2011-10-12T14:57:47.0000000+00:00</time></trkpt><trkpt lat="44.552078" lon="34.295067"><ele>69.9</ele><time>2011-10-12T14:57:52.0000000+00:00</time></trkpt><trkpt lat="44.552078" lon="34.295055"><ele>69.9</ele><time>2011-10-12T14:57:57.0000000+00:00</time></trkpt><trkpt lat="44.552074" lon="34.295044"><ele>69.9</ele><time>2011-10-12T14:58:02.0000000+00:00</time></trkpt><trkpt lat="44.552078" lon="34.295044"><ele>69.9</ele><time>2011-10-12T14:58:07.0000000+00:00</time></trkpt><trkpt lat="44.552082" lon="34.295036"><ele>69.9</ele><time>2011-10-12T14:58:12.0000000+00:00</time></trkpt><trkpt lat="44.55209" lon="34.29504"><ele>70.0</ele><time>2011-10-12T14:58:17.0000000+00:00</time></trkpt><trkpt lat="44.55209" lon="34.29504"><ele>70.0</ele><time>2011-10-12T14:58:22.0000000+00:00</time></trkpt><trkpt lat="44.552082" lon="34.29504"><ele>70.0</ele><time>2011-10-12T14:58:27.0000000+00:00</time></trkpt><trkpt lat="44.552071" lon="34.295082"><ele>70.2</ele><time>2011-10-12T14:58:32.0000000+00:00</time></trkpt><trkpt lat="44.551983" lon="34.295231"><ele>71.1</ele><time>2011-10-12T14:58:37.0000000+00:00</time></trkpt><trkpt lat="44.551899" lon="34.295464"><ele>71.4</ele><time>2011-10-12T14:58:42.0000000+00:00</time></trkpt><trkpt lat="44.551815" lon="34.29565"><ele>70.1</ele><time>2011-10-12T14:58:47.0000000+00:00</time></trkpt><trkpt lat="44.551811" lon="34.295681"><ele>69.8</ele><time>2011-10-12T14:58:52.0000000+00:00</time></trkpt><trkpt lat="44.551815" lon="34.295689"><ele>69.6</ele><time>2011-10-12T14:58:57.0000000+00:00</time></trkpt><trkpt lat="44.551815" lon="34.295692"><ele>69.6</ele><time>2011-10-12T14:59:02.0000000+00:00</time></trkpt><trkpt lat="44.551811" lon="34.295696"><ele>69.6</ele><time>2011-10-12T14:59:07.0000000+00:00</time></trkpt><trkpt lat="44.551807" lon="34.295734"><ele>69.4</ele><time>2011-10-12T14:59:12.0000000+00:00</time></trkpt><trkpt lat="44.551865" lon="34.295921"><ele>68.9</ele><time>2011-10-12T14:59:17.0000000+00:00</time></trkpt><trkpt lat="44.551964" lon="34.296066"><ele>69.5</ele><time>2011-10-12T14:59:22.0000000+00:00</time></trkpt><trkpt lat="44.552071" lon="34.296188"><ele>70.5</ele><time>2011-10-12T14:59:27.0000000+00:00</time></trkpt><trkpt lat="44.552193" lon="34.296249"><ele>75.9</ele><time>2011-10-12T14:59:32.0000000+00:00</time></trkpt><trkpt lat="44.552341" lon="34.296318"><ele>76.9</ele><time>2011-10-12T14:59:37.0000000+00:00</time></trkpt><trkpt lat="44.552437" lon="34.296574"><ele>80.1</ele><time>2011-10-12T14:59:42.0000000+00:00</time></trkpt><trkpt lat="44.552582" lon="34.297035"><ele>81.6</ele><time>2011-10-12T14:59:47.0000000+00:00</time></trkpt><trkpt lat="44.5527" lon="34.297398"><ele>80.4</ele><time>2011-10-12T14:59:52.0000000+00:00</time></trkpt><trkpt lat="44.552792" lon="34.297531"><ele>77.9</ele><time>2011-10-12T14:59:57.0000000+00:00</time></trkpt><trkpt lat="44.552799" lon="34.297535"><ele>77.8</ele><time>2011-10-12T15:00:02.0000000+00:00</time></trkpt><trkpt lat="44.552799" lon="34.297539"><ele>77.8</ele><time>2011-10-12T15:00:07.0000000+00:00</time></trkpt><trkpt lat="44.552799" lon="34.2976"><ele>77.6</ele><time>2011-10-12T15:00:12.0000000+00:00</time></trkpt><trkpt lat="44.552807" lon="34.297604"><ele>76.7</ele><time>2011-10-12T15:00:17.0000000+00:00</time></trkpt><trkpt lat="44.552807" lon="34.297604"><ele>76.5</ele><time>2011-10-12T15:00:22.0000000+00:00</time></trkpt><trkpt lat="44.552807" lon="34.297604"><ele>76.5</ele><time>2011-10-12T15:00:27.0000000+00:00</time></trkpt><trkpt lat="44.552807" lon="34.297604"><ele>76.5</ele><time>2011-10-12T15:00:32.0000000+00:00</time></trkpt><trkpt lat="44.552807" lon="34.297604"><ele>76.4</ele><time>2011-10-12T15:00:37.0000000+00:00</time></trkpt><trkpt lat="44.552807" lon="34.297604"><ele>76.3</ele><time>2011-10-12T15:00:42.0000000+00:00</time></trkpt><trkpt lat="44.552807" lon="34.297604"><ele>76.3</ele><time>2011-10-12T15:00:47.0000000+00:00</time></trkpt><trkpt lat="44.552807" lon="34.297604"><ele>76.3</ele><time>2011-10-12T15:00:52.0000000+00:00</time></trkpt><trkpt lat="44.552807" lon="34.297604"><ele>76.3</ele><time>2011-10-12T15:00:57.0000000+00:00</time></trkpt><trkpt lat="44.552807" lon="34.297604"><ele>76.2</ele><time>2011-10-12T15:01:02.0000000+00:00</time></trkpt><trkpt lat="44.552807" lon="34.297604"><ele>76.2</ele><time>2011-10-12T15:01:07.0000000+00:00</time></trkpt><trkpt lat="44.552807" lon="34.297604"><ele>76.1</ele><time>2011-10-12T15:01:12.0000000+00:00</time></trkpt><trkpt lat="44.552807" lon="34.297604"><ele>76.1</ele><time>2011-10-12T15:01:17.0000000+00:00</time></trkpt><trkpt lat="44.552807" lon="34.297604"><ele>76.1</ele><time>2011-10-12T15:01:22.0000000+00:00</time></trkpt><trkpt lat="44.552807" lon="34.297604"><ele>76.1</ele><time>2011-10-12T15:01:27.0000000+00:00</time></trkpt><trkpt lat="44.552807" lon="34.297604"><ele>76.1</ele><time>2011-10-12T15:01:32.0000000+00:00</time></trkpt><trkpt lat="44.552807" lon="34.297604"><ele>76.1</ele><time>2011-10-12T15:01:37.0000000+00:00</time></trkpt><trkpt lat="44.552807" lon="34.297604"><ele>76.1</ele><time>2011-10-12T15:01:42.0000000+00:00</time></trkpt><trkpt lat="44.552807" lon="34.297604"><ele>76.1</ele><time>2011-10-12T15:01:47.0000000+00:00</time></trkpt><trkpt lat="44.552811" lon="34.297604"><ele>76.1</ele><time>2011-10-12T15:01:52.0000000+00:00</time></trkpt><trkpt lat="44.55283" lon="34.297424"><ele>75.5</ele><time>2011-10-12T15:01:57.0000000+00:00</time></trkpt><trkpt lat="44.552952" lon="34.297245"><ele>75.6</ele><time>2011-10-12T15:02:02.0000000+00:00</time></trkpt><trkpt lat="44.553078" lon="34.297089"><ele>75.4</ele><time>2011-10-12T15:02:07.0000000+00:00</time></trkpt><trkpt lat="44.553162" lon="34.296925"><ele>75.5</ele><time>2011-10-12T15:02:12.0000000+00:00</time></trkpt><trkpt lat="44.55323" lon="34.296761"><ele>76.0</ele><time>2011-10-12T15:02:17.0000000+00:00</time></trkpt><trkpt lat="44.553303" lon="34.296616"><ele>76.8</ele><time>2011-10-12T15:02:22.0000000+00:00</time></trkpt><trkpt lat="44.553352" lon="34.296463"><ele>77.9</ele><time>2011-10-12T15:02:27.0000000+00:00</time></trkpt><trkpt lat="44.553394" lon="34.296307"><ele>79.8</ele><time>2011-10-12T15:02:32.0000000+00:00</time></trkpt><trkpt lat="44.553436" lon="34.296146"><ele>81.5</ele><time>2011-10-12T15:02:37.0000000+00:00</time></trkpt><trkpt lat="44.553482" lon="34.296005"><ele>82.6</ele><time>2011-10-12T15:02:42.0000000+00:00</time></trkpt><trkpt lat="44.553535" lon="34.295895"><ele>83.1</ele><time>2011-10-12T15:02:47.0000000+00:00</time></trkpt><trkpt lat="44.553589" lon="34.295807"><ele>83.3</ele><time>2011-10-12T15:02:52.0000000+00:00</time></trkpt><trkpt lat="44.553619" lon="34.295685"><ele>83.4</ele><time>2011-10-12T15:02:57.0000000+00:00</time></trkpt><trkpt lat="44.553635" lon="34.295521"><ele>83.3</ele><time>2011-10-12T15:03:02.0000000+00:00</time></trkpt><trkpt lat="44.553596" lon="34.295349"><ele>86.7</ele><time>2011-10-12T15:03:07.0000000+00:00</time></trkpt><trkpt lat="44.553562" lon="34.295231"><ele>88.2</ele><time>2011-10-12T15:03:12.0000000+00:00</time></trkpt><trkpt lat="44.553532" lon="34.295113"><ele>88.6</ele><time>2011-10-12T15:03:17.0000000+00:00</time></trkpt><trkpt lat="44.553505" lon="34.295006"><ele>88.5</ele><time>2011-10-12T15:03:22.0000000+00:00</time></trkpt><trkpt lat="44.553467" lon="34.294903"><ele>89.4</ele><time>2011-10-12T15:03:27.0000000+00:00</time></trkpt><trkpt lat="44.553391" lon="34.294796"><ele>91.2</ele><time>2011-10-12T15:03:32.0000000+00:00</time></trkpt><trkpt lat="44.553329" lon="34.294682"><ele>93.3</ele><time>2011-10-12T15:03:37.0000000+00:00</time></trkpt><trkpt lat="44.553268" lon="34.294575"><ele>95.4</ele><time>2011-10-12T15:03:42.0000000+00:00</time></trkpt><trkpt lat="44.553204" lon="34.294476"><ele>96.6</ele><time>2011-10-12T15:03:47.0000000+00:00</time></trkpt><trkpt lat="44.55315" lon="34.294369"><ele>98.0</ele><time>2011-10-12T15:03:52.0000000+00:00</time></trkpt><trkpt lat="44.55312" lon="34.294273"><ele>98.5</ele><time>2011-10-12T15:03:57.0000000+00:00</time></trkpt><trkpt lat="44.553108" lon="34.294209"><ele>98.7</ele><time>2011-10-12T15:04:02.0000000+00:00</time></trkpt><trkpt lat="44.553059" lon="34.294125"><ele>100.0</ele><time>2011-10-12T15:04:07.0000000+00:00</time></trkpt><trkpt lat="44.552994" lon="34.294029"><ele>101.7</ele><time>2011-10-12T15:04:12.0000000+00:00</time></trkpt><trkpt lat="44.552937" lon="34.293926"><ele>102.9</ele><time>2011-10-12T15:04:17.0000000+00:00</time></trkpt><trkpt lat="44.552872" lon="34.293831"><ele>103.3</ele><time>2011-10-12T15:04:22.0000000+00:00</time></trkpt><trkpt lat="44.552826" lon="34.293709"><ele>104.0</ele><time>2011-10-12T15:04:27.0000000+00:00</time></trkpt><trkpt lat="44.552795" lon="34.293598"><ele>105.2</ele><time>2011-10-12T15:04:32.0000000+00:00</time></trkpt><trkpt lat="44.552803" lon="34.293488"><ele>106.0</ele><time>2011-10-12T15:04:37.0000000+00:00</time></trkpt><trkpt lat="44.552795" lon="34.293365"><ele>105.9</ele><time>2011-10-12T15:04:42.0000000+00:00</time></trkpt><trkpt lat="44.552807" lon="34.293274"><ele>107.0</ele><time>2011-10-12T15:04:47.0000000+00:00</time></trkpt><trkpt lat="44.552841" lon="34.293194"><ele>109.6</ele><time>2011-10-12T15:04:52.0000000+00:00</time></trkpt><trkpt lat="44.552876" lon="34.293079"><ele>111.3</ele><time>2011-10-12T15:04:57.0000000+00:00</time></trkpt><trkpt lat="44.552944" lon="34.29298"><ele>112.7</ele><time>2011-10-12T15:05:02.0000000+00:00</time></trkpt><trkpt lat="44.553009" lon="34.29285"><ele>114.1</ele><time>2011-10-12T15:05:07.0000000+00:00</time></trkpt><trkpt lat="44.55307" lon="34.292763"><ele>113.0</ele><time>2011-10-12T15:05:12.0000000+00:00</time></trkpt><trkpt lat="44.553127" lon="34.292706"><ele>114.1</ele><time>2011-10-12T15:05:17.0000000+00:00</time></trkpt><trkpt lat="44.553181" lon="34.29261"><ele>115.7</ele><time>2011-10-12T15:05:22.0000000+00:00</time></trkpt><trkpt lat="44.553215" lon="34.292507"><ele>116.8</ele><time>2011-10-12T15:05:27.0000000+00:00</time></trkpt><trkpt lat="44.553257" lon="34.292393"><ele>118.4</ele><time>2011-10-12T15:05:32.0000000+00:00</time></trkpt><trkpt lat="44.553288" lon="34.292297"><ele>119.9</ele><time>2011-10-12T15:05:37.0000000+00:00</time></trkpt><trkpt lat="44.553326" lon="34.292194"><ele>121.1</ele><time>2011-10-12T15:05:42.0000000+00:00</time></trkpt><trkpt lat="44.553352" lon="34.292088"><ele>123.4</ele><time>2011-10-12T15:05:47.0000000+00:00</time></trkpt><trkpt lat="44.553375" lon="34.29195"><ele>125.9</ele><time>2011-10-12T15:05:52.0000000+00:00</time></trkpt><trkpt lat="44.55341" lon="34.291817"><ele>124.9</ele><time>2011-10-12T15:05:57.0000000+00:00</time></trkpt><trkpt lat="44.553436" lon="34.291687"><ele>124.8</ele><time>2011-10-12T15:06:02.0000000+00:00</time></trkpt><trkpt lat="44.553467" lon="34.291557"><ele>125.7</ele><time>2011-10-12T15:06:07.0000000+00:00</time></trkpt><trkpt lat="44.553501" lon="34.291431"><ele>125.0</ele><time>2011-10-12T15:06:12.0000000+00:00</time></trkpt><trkpt lat="44.553516" lon="34.29129"><ele>123.8</ele><time>2011-10-12T15:06:17.0000000+00:00</time></trkpt><trkpt lat="44.55352" lon="34.29121"><ele>122.2</ele><time>2011-10-12T15:06:22.0000000+00:00</time></trkpt><trkpt lat="44.553516" lon="34.291203"><ele>122.1</ele><time>2011-10-12T15:06:27.0000000+00:00</time></trkpt><trkpt lat="44.553463" lon="34.291164"><ele>122.5</ele><time>2011-10-12T15:06:32.0000000+00:00</time></trkpt><trkpt lat="44.553417" lon="34.291119"><ele>123.0</ele><time>2011-10-12T15:06:37.0000000+00:00</time></trkpt><trkpt lat="44.553402" lon="34.291088"><ele>123.1</ele><time>2011-10-12T15:06:42.0000000+00:00</time></trkpt><trkpt lat="44.553379" lon="34.291088"><ele>123.5</ele><time>2011-10-12T15:06:47.0000000+00:00</time></trkpt><trkpt lat="44.553383" lon="34.291088"><ele>123.5</ele><time>2011-10-12T15:06:52.0000000+00:00</time></trkpt><trkpt lat="44.553387" lon="34.291088"><ele>123.6</ele><time>2011-10-12T15:06:57.0000000+00:00</time></trkpt><trkpt lat="44.553383" lon="34.291084"><ele>123.7</ele><time>2011-10-12T15:07:02.0000000+00:00</time></trkpt><trkpt lat="44.553371" lon="34.291103"><ele>123.8</ele><time>2011-10-12T15:07:07.0000000+00:00</time></trkpt><trkpt lat="44.553352" lon="34.29113"><ele>123.9</ele><time>2011-10-12T15:07:12.0000000+00:00</time></trkpt><trkpt lat="44.553299" lon="34.291153"><ele>123.3</ele><time>2011-10-12T15:07:17.0000000+00:00</time></trkpt><trkpt lat="44.553288" lon="34.291153"><ele>123.2</ele><time>2011-10-12T15:07:22.0000000+00:00</time></trkpt><trkpt lat="44.553261" lon="34.291119"><ele>122.9</ele><time>2011-10-12T15:07:27.0000000+00:00</time></trkpt><trkpt lat="44.553127" lon="34.291023"><ele>122.1</ele><time>2011-10-12T15:07:32.0000000+00:00</time></trkpt><trkpt lat="44.552986" lon="34.29092"><ele>122.5</ele><time>2011-10-12T15:07:37.0000000+00:00</time></trkpt><trkpt lat="44.552834" lon="34.290886"><ele>123.5</ele><time>2011-10-12T15:07:42.0000000+00:00</time></trkpt><trkpt lat="44.552685" lon="34.290993"><ele>124.0</ele><time>2011-10-12T15:07:47.0000000+00:00</time></trkpt><trkpt lat="44.552589" lon="34.291134"><ele>125.1</ele><time>2011-10-12T15:07:52.0000000+00:00</time></trkpt><trkpt lat="44.552483" lon="34.291283"><ele>126.9</ele><time>2011-10-12T15:07:57.0000000+00:00</time></trkpt><trkpt lat="44.552315" lon="34.291485"><ele>126.2</ele><time>2011-10-12T15:08:02.0000000+00:00</time></trkpt><trkpt lat="44.552139" lon="34.291611"><ele>124.4</ele><time>2011-10-12T15:08:07.0000000+00:00</time></trkpt><trkpt lat="44.552032" lon="34.291626"><ele>124.3</ele><time>2011-10-12T15:08:12.0000000+00:00</time></trkpt><trkpt lat="44.551987" lon="34.291573"><ele>123.7</ele><time>2011-10-12T15:08:17.0000000+00:00</time></trkpt><trkpt lat="44.551929" lon="34.291431"><ele>121.5</ele><time>2011-10-12T15:08:22.0000000+00:00</time></trkpt><trkpt lat="44.551846" lon="34.291245"><ele>119.7</ele><time>2011-10-12T15:08:27.0000000+00:00</time></trkpt><trkpt lat="44.551777" lon="34.2911"><ele>119.1</ele><time>2011-10-12T15:08:32.0000000+00:00</time></trkpt><trkpt lat="44.551662" lon="34.290947"><ele>117.6</ele><time>2011-10-12T15:08:37.0000000+00:00</time></trkpt><trkpt lat="44.551521" lon="34.290867"><ele>115.8</ele><time>2011-10-12T15:08:42.0000000+00:00</time></trkpt><trkpt lat="44.551353" lon="34.290859"><ele>114.6</ele><time>2011-10-12T15:08:47.0000000+00:00</time></trkpt><trkpt lat="44.551239" lon="34.290886"><ele>113.1</ele><time>2011-10-12T15:08:52.0000000+00:00</time></trkpt><trkpt lat="44.551086" lon="34.290913"><ele>111.1</ele><time>2011-10-12T15:08:57.0000000+00:00</time></trkpt><trkpt lat="44.55093" lon="34.290894"><ele>109.8</ele><time>2011-10-12T15:09:02.0000000+00:00</time></trkpt><trkpt lat="44.55077" lon="34.290867"><ele>107.9</ele><time>2011-10-12T15:09:07.0000000+00:00</time></trkpt><trkpt lat="44.550575" lon="34.290897"><ele>106.6</ele><time>2011-10-12T15:09:12.0000000+00:00</time></trkpt><trkpt lat="44.550472" lon="34.290905"><ele>105.4</ele><time>2011-10-12T15:09:17.0000000+00:00</time></trkpt><trkpt lat="44.550423" lon="34.290813"><ele>105.4</ele><time>2011-10-12T15:09:22.0000000+00:00</time></trkpt><trkpt lat="44.550343" lon="34.290665"><ele>104.0</ele><time>2011-10-12T15:09:27.0000000+00:00</time></trkpt><trkpt lat="44.550247" lon="34.290516"><ele>102.4</ele><time>2011-10-12T15:09:32.0000000+00:00</time></trkpt><trkpt lat="44.550194" lon="34.290421"><ele>102.7</ele><time>2011-10-12T15:09:37.0000000+00:00</time></trkpt><trkpt lat="44.550148" lon="34.290352"><ele>102.8</ele><time>2011-10-12T15:09:42.0000000+00:00</time></trkpt><trkpt lat="44.550133" lon="34.290321"><ele>104.1</ele><time>2011-10-12T15:09:47.0000000+00:00</time></trkpt><trkpt lat="44.55011" lon="34.290154"><ele>104.6</ele><time>2011-10-12T15:09:52.0000000+00:00</time></trkpt><trkpt lat="44.550102" lon="34.290005"><ele>106.1</ele><time>2011-10-12T15:09:57.0000000+00:00</time></trkpt><trkpt lat="44.550117" lon="34.289833"><ele>107.2</ele><time>2011-10-12T15:10:02.0000000+00:00</time></trkpt><trkpt lat="44.550167" lon="34.289684"><ele>111.3</ele><time>2011-10-12T15:10:07.0000000+00:00</time></trkpt><trkpt lat="44.550228" lon="34.289528"><ele>113.9</ele><time>2011-10-12T15:10:12.0000000+00:00</time></trkpt><trkpt lat="44.550282" lon="34.289383"><ele>115.6</ele><time>2011-10-12T15:10:17.0000000+00:00</time></trkpt><trkpt lat="44.550304" lon="34.289291"><ele>115.4</ele><time>2011-10-12T15:10:22.0000000+00:00</time></trkpt><trkpt lat="44.550301" lon="34.289291"><ele>115.3</ele><time>2011-10-12T15:10:27.0000000+00:00</time></trkpt><trkpt lat="44.550274" lon="34.289303"><ele>114.5</ele><time>2011-10-12T15:10:32.0000000+00:00</time></trkpt><trkpt lat="44.550213" lon="34.289505"><ele>114.5</ele><time>2011-10-12T15:10:37.0000000+00:00</time></trkpt><trkpt lat="44.55011" lon="34.289726"><ele>112.1</ele><time>2011-10-12T15:10:42.0000000+00:00</time></trkpt><trkpt lat="44.550026" lon="34.289963"><ele>108.8</ele><time>2011-10-12T15:10:47.0000000+00:00</time></trkpt><trkpt lat="44.550026" lon="34.290211"><ele>109.5</ele><time>2011-10-12T15:10:52.0000000+00:00</time></trkpt><trkpt lat="44.550121" lon="34.290462"><ele>108.2</ele><time>2011-10-12T15:10:57.0000000+00:00</time></trkpt><trkpt lat="44.550274" lon="34.290699"><ele>104.5</ele><time>2011-10-12T15:11:02.0000000+00:00</time></trkpt><trkpt lat="44.550396" lon="34.290867"><ele>102.5</ele><time>2011-10-12T15:11:07.0000000+00:00</time></trkpt><trkpt lat="44.550404" lon="34.290985"><ele>100.9</ele><time>2011-10-12T15:11:12.0000000+00:00</time></trkpt><trkpt lat="44.550339" lon="34.291027"><ele>99.6</ele><time>2011-10-12T15:11:17.0000000+00:00</time></trkpt><trkpt lat="44.550339" lon="34.291019"><ele>99.4</ele><time>2011-10-12T15:11:22.0000000+00:00</time></trkpt><trkpt lat="44.550289" lon="34.290981"><ele>98.2</ele><time>2011-10-12T15:11:27.0000000+00:00</time></trkpt><trkpt lat="44.55024" lon="34.290936"><ele>96.5</ele><time>2011-10-12T15:11:32.0000000+00:00</time></trkpt><trkpt lat="44.55024" lon="34.290939"><ele>96.1</ele><time>2011-10-12T15:11:37.0000000+00:00</time></trkpt><trkpt lat="44.55024" lon="34.290936"><ele>95.6</ele><time>2011-10-12T15:11:42.0000000+00:00</time></trkpt><trkpt lat="44.550236" lon="34.290932"><ele>95.4</ele><time>2011-10-12T15:11:47.0000000+00:00</time></trkpt><trkpt lat="44.550228" lon="34.290932"><ele>95.4</ele><time>2011-10-12T15:11:52.0000000+00:00</time></trkpt><trkpt lat="44.550144" lon="34.290802"><ele>95.2</ele><time>2011-10-12T15:11:57.0000000+00:00</time></trkpt><trkpt lat="44.550072" lon="34.290718"><ele>94.2</ele><time>2011-10-12T15:12:02.0000000+00:00</time></trkpt><trkpt lat="44.550049" lon="34.290714"><ele>93.4</ele><time>2011-10-12T15:12:07.0000000+00:00</time></trkpt><trkpt lat="44.549953" lon="34.290627"><ele>93.5</ele><time>2011-10-12T15:12:12.0000000+00:00</time></trkpt><trkpt lat="44.54987" lon="34.290539"><ele>94.0</ele><time>2011-10-12T15:12:17.0000000+00:00</time></trkpt><trkpt lat="44.549755" lon="34.290436"><ele>93.4</ele><time>2011-10-12T15:12:22.0000000+00:00</time></trkpt><trkpt lat="44.549614" lon="34.290283"><ele>92.3</ele><time>2011-10-12T15:12:27.0000000+00:00</time></trkpt><trkpt lat="44.549442" lon="34.290123"><ele>90.7</ele><time>2011-10-12T15:12:32.0000000+00:00</time></trkpt><trkpt lat="44.549236" lon="34.289948"><ele>88.3</ele><time>2011-10-12T15:12:37.0000000+00:00</time></trkpt><trkpt lat="44.548965" lon="34.289715"><ele>87.4</ele><time>2011-10-12T15:12:42.0000000+00:00</time></trkpt><trkpt lat="44.548801" lon="34.289509"><ele>85.0</ele><time>2011-10-12T15:12:47.0000000+00:00</time></trkpt><trkpt lat="44.54874" lon="34.289349"><ele>81.8</ele><time>2011-10-12T15:12:52.0000000+00:00</time></trkpt><trkpt lat="44.54879" lon="34.289135"><ele>80.4</ele><time>2011-10-12T15:12:57.0000000+00:00</time></trkpt><trkpt lat="44.548889" lon="34.288853"><ele>78.6</ele><time>2011-10-12T15:13:02.0000000+00:00</time></trkpt><trkpt lat="44.548973" lon="34.288574"><ele>77.1</ele><time>2011-10-12T15:13:07.0000000+00:00</time></trkpt><trkpt lat="44.549026" lon="34.288345"><ele>76.4</ele><time>2011-10-12T15:13:12.0000000+00:00</time></trkpt><trkpt lat="44.549053" lon="34.288193"><ele>75.3</ele><time>2011-10-12T15:13:17.0000000+00:00</time></trkpt><trkpt lat="44.549049" lon="34.288025"><ele>75.2</ele><time>2011-10-12T15:13:22.0000000+00:00</time></trkpt><trkpt lat="44.549007" lon="34.287926"><ele>75.0</ele><time>2011-10-12T15:13:27.0000000+00:00</time></trkpt><trkpt lat="44.549007" lon="34.287907"><ele>75.3</ele><time>2011-10-12T15:13:32.0000000+00:00</time></trkpt><trkpt lat="44.549007" lon="34.287907"><ele>75.4</ele><time>2011-10-12T15:13:37.0000000+00:00</time></trkpt><trkpt lat="44.549004" lon="34.287907"><ele>75.4</ele><time>2011-10-12T15:13:42.0000000+00:00</time></trkpt><trkpt lat="44.549007" lon="34.287907"><ele>75.3</ele><time>2011-10-12T15:13:47.0000000+00:00</time></trkpt><trkpt lat="44.549007" lon="34.287907"><ele>75.4</ele><time>2011-10-12T15:13:52.0000000+00:00</time></trkpt><trkpt lat="44.549007" lon="34.287907"><ele>75.5</ele><time>2011-10-12T15:13:57.0000000+00:00</time></trkpt><trkpt lat="44.549011" lon="34.28791"><ele>75.4</ele><time>2011-10-12T15:14:02.0000000+00:00</time></trkpt><trkpt lat="44.548969" lon="34.287933"><ele>75.3</ele><time>2011-10-12T15:14:07.0000000+00:00</time></trkpt><trkpt lat="44.548874" lon="34.287964"><ele>74.6</ele><time>2011-10-12T15:14:12.0000000+00:00</time></trkpt><trkpt lat="44.548752" lon="34.288109"><ele>73.1</ele><time>2011-10-12T15:14:17.0000000+00:00</time></trkpt><trkpt lat="44.548733" lon="34.2883"><ele>70.7</ele><time>2011-10-12T15:14:22.0000000+00:00</time></trkpt><trkpt lat="44.548698" lon="34.288479"><ele>69.8</ele><time>2011-10-12T15:14:27.0000000+00:00</time></trkpt><trkpt lat="44.54863" lon="34.288544"><ele>68.6</ele><time>2011-10-12T15:14:32.0000000+00:00</time></trkpt><trkpt lat="44.548561" lon="34.288422"><ele>66.6</ele><time>2011-10-12T15:14:37.0000000+00:00</time></trkpt><trkpt lat="44.548542" lon="34.288288"><ele>65.2</ele><time>2011-10-12T15:14:42.0000000+00:00</time></trkpt><trkpt lat="44.548462" lon="34.288029"><ele>63.2</ele><time>2011-10-12T15:14:47.0000000+00:00</time></trkpt><trkpt lat="44.548317" lon="34.287903"><ele>60.5</ele><time>2011-10-12T15:14:52.0000000+00:00</time></trkpt><trkpt lat="44.548176" lon="34.287949"><ele>59.5</ele><time>2011-10-12T15:14:57.0000000+00:00</time></trkpt><trkpt lat="44.54805" lon="34.288029"><ele>58.7</ele><time>2011-10-12T15:15:02.0000000+00:00</time></trkpt><trkpt lat="44.547962" lon="34.288147"><ele>58.3</ele><time>2011-10-12T15:15:07.0000000+00:00</time></trkpt><trkpt lat="44.547947" lon="34.2883"><ele>56.7</ele><time>2011-10-12T15:15:12.0000000+00:00</time></trkpt><trkpt lat="44.547894" lon="34.28857"><ele>54.8</ele><time>2011-10-12T15:15:17.0000000+00:00</time></trkpt><trkpt lat="44.547798" lon="34.288757"><ele>53.9</ele><time>2011-10-12T15:15:22.0000000+00:00</time></trkpt><trkpt lat="44.54771" lon="34.288822"><ele>55.1</ele><time>2011-10-12T15:15:27.0000000+00:00</time></trkpt><trkpt lat="44.54771" lon="34.28883"><ele>55.7</ele><time>2011-10-12T15:15:32.0000000+00:00</time></trkpt><trkpt lat="44.54771" lon="34.288834"><ele>55.7</ele><time>2011-10-12T15:15:37.0000000+00:00</time></trkpt><trkpt lat="44.547714" lon="34.288834"><ele>55.7</ele><time>2011-10-12T15:15:42.0000000+00:00</time></trkpt><trkpt lat="44.547714" lon="34.288841"><ele>55.7</ele><time>2011-10-12T15:15:47.0000000+00:00</time></trkpt><trkpt lat="44.54771" lon="34.288845"><ele>55.8</ele><time>2011-10-12T15:15:52.0000000+00:00</time></trkpt><trkpt lat="44.54771" lon="34.288853"><ele>55.8</ele><time>2011-10-12T15:15:57.0000000+00:00</time></trkpt><trkpt lat="44.547707" lon="34.288868"><ele>55.9</ele><time>2011-10-12T15:16:02.0000000+00:00</time></trkpt><trkpt lat="44.547699" lon="34.288879"><ele>55.9</ele><time>2011-10-12T15:16:07.0000000+00:00</time></trkpt><trkpt lat="44.547592" lon="34.288788"><ele>56.4</ele><time>2011-10-12T15:16:12.0000000+00:00</time></trkpt><trkpt lat="44.547424" lon="34.288456"><ele>53.5</ele><time>2011-10-12T15:16:17.0000000+00:00</time></trkpt><trkpt lat="44.547226" lon="34.288052"><ele>49.5</ele><time>2011-10-12T15:16:22.0000000+00:00</time></trkpt><trkpt lat="44.547028" lon="34.287594"><ele>44.3</ele><time>2011-10-12T15:16:27.0000000+00:00</time></trkpt><trkpt lat="44.546856" lon="34.287109"><ele>38.4</ele><time>2011-10-12T15:16:32.0000000+00:00</time></trkpt><trkpt lat="44.546673" lon="34.28656"><ele>33.7</ele><time>2011-10-12T15:16:37.0000000+00:00</time></trkpt><trkpt lat="44.546585" lon="34.286133"><ele>30.5</ele><time>2011-10-12T15:16:42.0000000+00:00</time></trkpt><trkpt lat="44.546677" lon="34.285797"><ele>25.6</ele><time>2011-10-12T15:16:47.0000000+00:00</time></trkpt><trkpt lat="44.546619" lon="34.285366"><ele>22.1</ele><time>2011-10-12T15:16:52.0000000+00:00</time></trkpt><trkpt lat="44.546391" lon="34.285156"><ele>20.7</ele><time>2011-10-12T15:16:57.0000000+00:00</time></trkpt><trkpt lat="44.546146" lon="34.285126"><ele>19.4</ele><time>2011-10-12T15:17:02.0000000+00:00</time></trkpt><trkpt lat="44.545937" lon="34.285049"><ele>18.3</ele><time>2011-10-12T15:17:07.0000000+00:00</time></trkpt><trkpt lat="44.545738" lon="34.285"><ele>17.6</ele><time>2011-10-12T15:17:12.0000000+00:00</time></trkpt><trkpt lat="44.54549" lon="34.284901"><ele>15.9</ele><time>2011-10-12T15:17:17.0000000+00:00</time></trkpt><trkpt lat="44.545227" lon="34.284859"><ele>16.1</ele><time>2011-10-12T15:17:22.0000000+00:00</time></trkpt><trkpt lat="44.545021" lon="34.284744"><ele>17.2</ele><time>2011-10-12T15:17:27.0000000+00:00</time></trkpt><trkpt lat="44.544868" lon="34.284599"><ele>17.1</ele><time>2011-10-12T15:17:32.0000000+00:00</time></trkpt><trkpt lat="44.544727" lon="34.284386"><ele>23.2</ele><time>2011-10-12T15:17:37.0000000+00:00</time></trkpt><trkpt lat="44.544613" lon="34.284145"><ele>25.5</ele><time>2011-10-12T15:17:42.0000000+00:00</time></trkpt><trkpt lat="44.544453" lon="34.283909"><ele>23.7</ele><time>2011-10-12T15:17:47.0000000+00:00</time></trkpt><trkpt lat="44.544296" lon="34.283672"><ele>20.4</ele><time>2011-10-12T15:17:52.0000000+00:00</time></trkpt><trkpt lat="44.544144" lon="34.28339"><ele>17.3</ele><time>2011-10-12T15:17:57.0000000+00:00</time></trkpt><trkpt lat="44.543976" lon="34.283081"><ele>15.0</ele><time>2011-10-12T15:18:02.0000000+00:00</time></trkpt><trkpt lat="44.543861" lon="34.282944"><ele>13.0</ele><time>2011-10-12T15:18:07.0000000+00:00</time></trkpt><trkpt lat="44.543716" lon="34.28278"><ele>10.7</ele><time>2011-10-12T15:18:12.0000000+00:00</time></trkpt><trkpt lat="44.543587" lon="34.2826"><ele>8.9</ele><time>2011-10-12T15:18:17.0000000+00:00</time></trkpt><trkpt lat="44.543488" lon="34.28252"><ele>6.5</ele><time>2011-10-12T15:18:22.0000000+00:00</time></trkpt><trkpt lat="44.5434" lon="34.282475"><ele>5.9</ele><time>2011-10-12T15:18:27.0000000+00:00</time></trkpt><trkpt lat="44.543312" lon="34.282398"><ele>5.6</ele><time>2011-10-12T15:18:32.0000000+00:00</time></trkpt><trkpt lat="44.54324" lon="34.282272"><ele>6.7</ele><time>2011-10-12T15:18:37.0000000+00:00</time></trkpt><trkpt lat="44.543167" lon="34.282143"><ele>6.3</ele><time>2011-10-12T15:18:42.0000000+00:00</time></trkpt><trkpt lat="44.543182" lon="34.281994"><ele>5.9</ele><time>2011-10-12T15:18:47.0000000+00:00</time></trkpt><trkpt lat="44.543198" lon="34.281853"><ele>5.1</ele><time>2011-10-12T15:18:52.0000000+00:00</time></trkpt><trkpt lat="44.543179" lon="34.281677"><ele>4.2</ele><time>2011-10-12T15:18:57.0000000+00:00</time></trkpt><trkpt lat="44.543198" lon="34.281494"><ele>4.3</ele><time>2011-10-12T15:19:02.0000000+00:00</time></trkpt><trkpt lat="44.543186" lon="34.281254"><ele>4.5</ele><time>2011-10-12T15:19:07.0000000+00:00</time></trkpt><trkpt lat="44.543186" lon="34.281075"><ele>3.8</ele><time>2011-10-12T15:19:12.0000000+00:00</time></trkpt><trkpt lat="44.543259" lon="34.280849"><ele>3.7</ele><time>2011-10-12T15:19:17.0000000+00:00</time></trkpt><trkpt lat="44.543228" lon="34.280602"><ele>4.7</ele><time>2011-10-12T15:19:22.0000000+00:00</time></trkpt><trkpt lat="44.543175" lon="34.280323"><ele>4.9</ele><time>2011-10-12T15:19:27.0000000+00:00</time></trkpt><trkpt lat="44.543156" lon="34.280117"><ele>7.5</ele><time>2011-10-12T15:19:32.0000000+00:00</time></trkpt><trkpt lat="44.543163" lon="34.279903"><ele>9.4</ele><time>2011-10-12T15:19:37.0000000+00:00</time></trkpt><trkpt lat="44.543133" lon="34.279739"><ele>9.3</ele><time>2011-10-12T15:19:42.0000000+00:00</time></trkpt><trkpt lat="44.543114" lon="34.279655"><ele>9.0</ele><time>2011-10-12T15:19:47.0000000+00:00</time></trkpt><trkpt lat="44.543114" lon="34.279633"><ele>8.5</ele><time>2011-10-12T15:19:52.0000000+00:00</time></trkpt><trkpt lat="44.543079" lon="34.279537"><ele>8.7</ele><time>2011-10-12T15:19:57.0000000+00:00</time></trkpt><trkpt lat="44.542992" lon="34.279438"><ele>7.9</ele><time>2011-10-12T15:20:02.0000000+00:00</time></trkpt><trkpt lat="44.542915" lon="34.279354"><ele>10.8</ele><time>2011-10-12T15:20:07.0000000+00:00</time></trkpt><trkpt lat="44.542858" lon="34.279266"><ele>10.7</ele><time>2011-10-12T15:20:12.0000000+00:00</time></trkpt><trkpt lat="44.542809" lon="34.279198"><ele>10.0</ele><time>2011-10-12T15:20:17.0000000+00:00</time></trkpt><trkpt lat="44.542789" lon="34.279083"><ele>8.3</ele><time>2011-10-12T15:20:22.0000000+00:00</time></trkpt><trkpt lat="44.542679" lon="34.279087"><ele>8.4</ele><time>2011-10-12T15:20:27.0000000+00:00</time></trkpt><trkpt lat="44.54261" lon="34.279251"><ele>8.5</ele><time>2011-10-12T15:20:32.0000000+00:00</time></trkpt><trkpt lat="44.542572" lon="34.279411"><ele>6.6</ele><time>2011-10-12T15:20:37.0000000+00:00</time></trkpt><trkpt lat="44.542511" lon="34.279442"><ele>4.9</ele><time>2011-10-12T15:20:42.0000000+00:00</time></trkpt><trkpt lat="44.542431" lon="34.279339"><ele>2.9</ele><time>2011-10-12T15:20:47.0000000+00:00</time></trkpt><trkpt lat="44.542336" lon="34.279224"><ele>1.1</ele><time>2011-10-12T15:20:52.0000000+00:00</time></trkpt><trkpt lat="44.542301" lon="34.279167"><ele>-1.1</ele><time>2011-10-12T15:20:57.0000000+00:00</time></trkpt><trkpt lat="44.542233" lon="34.279057"><ele>-3.4</ele><time>2011-10-12T15:21:02.0000000+00:00</time></trkpt><trkpt lat="44.542149" lon="34.278908"><ele>-5.2</ele><time>2011-10-12T15:21:07.0000000+00:00</time></trkpt><trkpt lat="44.542038" lon="34.278721"><ele>-6.1</ele><time>2011-10-12T15:21:12.0000000+00:00</time></trkpt><trkpt lat="44.541912" lon="34.278576"><ele>-7.6</ele><time>2011-10-12T15:21:17.0000000+00:00</time></trkpt><trkpt lat="44.541759" lon="34.278358"><ele>-9.4</ele><time>2011-10-12T15:21:22.0000000+00:00</time></trkpt><trkpt lat="44.541611" lon="34.278149"><ele>-11.2</ele><time>2011-10-12T15:21:27.0000000+00:00</time></trkpt><trkpt lat="44.541492" lon="34.277931"><ele>-11.2</ele><time>2011-10-12T15:21:32.0000000+00:00</time></trkpt><trkpt lat="44.541435" lon="34.277832"><ele>-10.5</ele><time>2011-10-12T15:21:37.0000000+00:00</time></trkpt><trkpt lat="44.541389" lon="34.27771"><ele>-7.8</ele><time>2011-10-12T15:21:42.0000000+00:00</time></trkpt><trkpt lat="44.541302" lon="34.277527"><ele>-9.1</ele><time>2011-10-12T15:21:47.0000000+00:00</time></trkpt><trkpt lat="44.541183" lon="34.277382"><ele>-11.7</ele><time>2011-10-12T15:21:52.0000000+00:00</time></trkpt><trkpt lat="44.541065" lon="34.277172"><ele>-13.6</ele><time>2011-10-12T15:21:57.0000000+00:00</time></trkpt><trkpt lat="44.54097" lon="34.276974"><ele>-15.9</ele><time>2011-10-12T15:22:02.0000000+00:00</time></trkpt><trkpt lat="44.540897" lon="34.276817"><ele>-17.5</ele><time>2011-10-12T15:22:07.0000000+00:00</time></trkpt><trkpt lat="44.540791" lon="34.276695"><ele>-15.1</ele><time>2011-10-12T15:22:12.0000000+00:00</time></trkpt><trkpt lat="44.540642" lon="34.276535"><ele>-14.6</ele><time>2011-10-12T15:22:17.0000000+00:00</time></trkpt><trkpt lat="44.540504" lon="34.276386"><ele>-12.8</ele><time>2011-10-12T15:22:22.0000000+00:00</time></trkpt><trkpt lat="44.540386" lon="34.276249"><ele>-10.8</ele><time>2011-10-12T15:22:27.0000000+00:00</time></trkpt><trkpt lat="44.540264" lon="34.276081"><ele>-9.8</ele><time>2011-10-12T15:22:32.0000000+00:00</time></trkpt><trkpt lat="44.540134" lon="34.275928"><ele>-8.0</ele><time>2011-10-12T15:22:37.0000000+00:00</time></trkpt><trkpt lat="44.539982" lon="34.275795"><ele>-7.5</ele><time>2011-10-12T15:22:42.0000000+00:00</time></trkpt><trkpt lat="44.539845" lon="34.275688"><ele>-7.0</ele><time>2011-10-12T15:22:47.0000000+00:00</time></trkpt><trkpt lat="44.539692" lon="34.275574"><ele>-5.8</ele><time>2011-10-12T15:22:52.0000000+00:00</time></trkpt><trkpt lat="44.539536" lon="34.275494"><ele>-5.9</ele><time>2011-10-12T15:22:57.0000000+00:00</time></trkpt><trkpt lat="44.539356" lon="34.275387"><ele>-6.2</ele><time>2011-10-12T15:23:02.0000000+00:00</time></trkpt><trkpt lat="44.539165" lon="34.275311"><ele>-7.7</ele><time>2011-10-12T15:23:07.0000000+00:00</time></trkpt><trkpt lat="44.538975" lon="34.275211"><ele>-8.8</ele><time>2011-10-12T15:23:12.0000000+00:00</time></trkpt><trkpt lat="44.538795" lon="34.275127"><ele>-7.2</ele><time>2011-10-12T15:23:17.0000000+00:00</time></trkpt><trkpt lat="44.538612" lon="34.275021"><ele>-7.7</ele><time>2011-10-12T15:23:22.0000000+00:00</time></trkpt><trkpt lat="44.538437" lon="34.274937"><ele>-8.9</ele><time>2011-10-12T15:23:27.0000000+00:00</time></trkpt><trkpt lat="44.538254" lon="34.274845"><ele>-8.3</ele><time>2011-10-12T15:23:32.0000000+00:00</time></trkpt><trkpt lat="44.538086" lon="34.274784"><ele>-7.5</ele><time>2011-10-12T15:23:37.0000000+00:00</time></trkpt><trkpt lat="44.537926" lon="34.274734"><ele>-7.0</ele><time>2011-10-12T15:23:42.0000000+00:00</time></trkpt><trkpt lat="44.537754" lon="34.274673"><ele>-7.1</ele><time>2011-10-12T15:23:47.0000000+00:00</time></trkpt><trkpt lat="44.537609" lon="34.274616"><ele>-8.9</ele><time>2011-10-12T15:23:52.0000000+00:00</time></trkpt><trkpt lat="44.537449" lon="34.274521"><ele>-11.5</ele><time>2011-10-12T15:23:57.0000000+00:00</time></trkpt><trkpt lat="44.537296" lon="34.274452"><ele>-13.9</ele><time>2011-10-12T15:24:02.0000000+00:00</time></trkpt><trkpt lat="44.537155" lon="34.274376"><ele>-15.5</ele><time>2011-10-12T15:24:07.0000000+00:00</time></trkpt><trkpt lat="44.537006" lon="34.274334"><ele>-13.7</ele><time>2011-10-12T15:24:12.0000000+00:00</time></trkpt><trkpt lat="44.536926" lon="34.274223"><ele>-13.2</ele><time>2011-10-12T15:24:17.0000000+00:00</time></trkpt><trkpt lat="44.536907" lon="34.274139"><ele>-11.7</ele><time>2011-10-12T15:24:22.0000000+00:00</time></trkpt><trkpt lat="44.536915" lon="34.274059"><ele>-8.8</ele><time>2011-10-12T15:24:27.0000000+00:00</time></trkpt><trkpt lat="44.536919" lon="34.273933"><ele>-8.8</ele><time>2011-10-12T15:24:32.0000000+00:00</time></trkpt><trkpt lat="44.536922" lon="34.273827"><ele>-8.6</ele><time>2011-10-12T15:24:37.0000000+00:00</time></trkpt><trkpt lat="44.536949" lon="34.273823"><ele>-8.4</ele><time>2011-10-12T15:24:42.0000000+00:00</time></trkpt><trkpt lat="44.536964" lon="34.273811"><ele>-8.3</ele><time>2011-10-12T15:24:47.0000000+00:00</time></trkpt><trkpt lat="44.536976" lon="34.273804"><ele>-8.1</ele><time>2011-10-12T15:24:52.0000000+00:00</time></trkpt><trkpt lat="44.536991" lon="34.273796"><ele>-8.1</ele><time>2011-10-12T15:24:57.0000000+00:00</time></trkpt><trkpt lat="44.537018" lon="34.273788"><ele>-8.0</ele><time>2011-10-12T15:25:02.0000000+00:00</time></trkpt><trkpt lat="44.537037" lon="34.273781"><ele>-8.0</ele><time>2011-10-12T15:25:07.0000000+00:00</time></trkpt><trkpt lat="44.537052" lon="34.273792"><ele>-7.9</ele><time>2011-10-12T15:25:12.0000000+00:00</time></trkpt><trkpt lat="44.537071" lon="34.273781"><ele>-7.9</ele><time>2011-10-12T15:25:17.0000000+00:00</time></trkpt><trkpt lat="44.537086" lon="34.273743"><ele>-7.8</ele><time>2011-10-12T15:25:22.0000000+00:00</time></trkpt><trkpt lat="44.537098" lon="34.273712"><ele>-7.7</ele><time>2011-10-12T15:25:27.0000000+00:00</time></trkpt><trkpt lat="44.537102" lon="34.273685"><ele>-7.6</ele><time>2011-10-12T15:25:32.0000000+00:00</time></trkpt><trkpt lat="44.537098" lon="34.273663"><ele>-7.5</ele><time>2011-10-12T15:25:37.0000000+00:00</time></trkpt><trkpt lat="44.53709" lon="34.273628"><ele>-7.3</ele><time>2011-10-12T15:25:42.0000000+00:00</time></trkpt><trkpt lat="44.537083" lon="34.27359"><ele>-7.1</ele><time>2011-10-12T15:25:47.0000000+00:00</time></trkpt><trkpt lat="44.537086" lon="34.273571"><ele>-6.9</ele><time>2011-10-12T15:25:52.0000000+00:00</time></trkpt><trkpt lat="44.537086" lon="34.273533"><ele>-6.6</ele><time>2011-10-12T15:25:57.0000000+00:00</time></trkpt><trkpt lat="44.537083" lon="34.273502"><ele>-6.4</ele><time>2011-10-12T15:26:02.0000000+00:00</time></trkpt><trkpt lat="44.53709" lon="34.273453"><ele>-6.1</ele><time>2011-10-12T15:26:07.0000000+00:00</time></trkpt><trkpt lat="44.537102" lon="34.273407"><ele>-5.9</ele><time>2011-10-12T15:26:12.0000000+00:00</time></trkpt><trkpt lat="44.537113" lon="34.273365"><ele>-5.5</ele><time>2011-10-12T15:26:17.0000000+00:00</time></trkpt><trkpt lat="44.537125" lon="34.273335"><ele>-5.2</ele><time>2011-10-12T15:26:22.0000000+00:00</time></trkpt><trkpt lat="44.537136" lon="34.273308"><ele>-4.9</ele><time>2011-10-12T15:26:27.0000000+00:00</time></trkpt><trkpt lat="44.537155" lon="34.273285"><ele>-4.5</ele><time>2011-10-12T15:26:32.0000000+00:00</time></trkpt><trkpt lat="44.537174" lon="34.273285"><ele>-4.2</ele><time>2011-10-12T15:26:37.0000000+00:00</time></trkpt><trkpt lat="44.537193" lon="34.273281"><ele>-3.6</ele><time>2011-10-12T15:26:42.0000000+00:00</time></trkpt><trkpt lat="44.537189" lon="34.273293"><ele>-3.0</ele><time>2011-10-12T15:26:47.0000000+00:00</time></trkpt><trkpt lat="44.537163" lon="34.273281"><ele>-2.5</ele><time>2011-10-12T15:26:52.0000000+00:00</time></trkpt><trkpt lat="44.537159" lon="34.27327"><ele>-2.0</ele><time>2011-10-12T15:26:57.0000000+00:00</time></trkpt><trkpt lat="44.537163" lon="34.273247"><ele>-1.7</ele><time>2011-10-12T15:27:02.0000000+00:00</time></trkpt><trkpt lat="44.537155" lon="34.273224"><ele>-1.4</ele><time>2011-10-12T15:27:07.0000000+00:00</time></trkpt><trkpt lat="44.537148" lon="34.273228"><ele>-1.3</ele><time>2011-10-12T15:27:12.0000000+00:00</time></trkpt><trkpt lat="44.537155" lon="34.273232"><ele>-1.2</ele><time>2011-10-12T15:27:17.0000000+00:00</time></trkpt><trkpt lat="44.537155" lon="34.273232"><ele>-1.1</ele><time>2011-10-12T15:27:22.0000000+00:00</time></trkpt><trkpt lat="44.537155" lon="34.273224"><ele>-1.1</ele><time>2011-10-12T15:27:27.0000000+00:00</time></trkpt><trkpt lat="44.53717" lon="34.273228"><ele>-1.0</ele><time>2011-10-12T15:27:32.0000000+00:00</time></trkpt><trkpt lat="44.537167" lon="34.273243"><ele>-0.9</ele><time>2011-10-12T15:27:37.0000000+00:00</time></trkpt><trkpt lat="44.537163" lon="34.273262"><ele>-0.8</ele><time>2011-10-12T15:27:42.0000000+00:00</time></trkpt><trkpt lat="44.537159" lon="34.273277"><ele>-0.8</ele><time>2011-10-12T15:27:47.0000000+00:00</time></trkpt><trkpt lat="44.537167" lon="34.273289"><ele>-0.7</ele><time>2011-10-12T15:27:52.0000000+00:00</time></trkpt><trkpt lat="44.537167" lon="34.273289"><ele>-0.7</ele><time>2011-10-12T15:27:57.0000000+00:00</time></trkpt><trkpt lat="44.537178" lon="34.273285"><ele>-0.7</ele><time>2011-10-12T15:28:02.0000000+00:00</time></trkpt><trkpt lat="44.537186" lon="34.273277"><ele>-0.7</ele><time>2011-10-12T15:28:07.0000000+00:00</time></trkpt><trkpt lat="44.537193" lon="34.273285"><ele>-0.6</ele><time>2011-10-12T15:28:12.0000000+00:00</time></trkpt><trkpt lat="44.537209" lon="34.273277"><ele>-0.6</ele><time>2011-10-12T15:28:17.0000000+00:00</time></trkpt><trkpt lat="44.53722" lon="34.273277"><ele>-0.6</ele><time>2011-10-12T15:28:22.0000000+00:00</time></trkpt><trkpt lat="44.537224" lon="34.273277"><ele>-0.5</ele><time>2011-10-12T15:28:27.0000000+00:00</time></trkpt><trkpt lat="44.537228" lon="34.273277"><ele>-0.5</ele><time>2011-10-12T15:28:32.0000000+00:00</time></trkpt><trkpt lat="44.537205" lon="34.273277"><ele>0.2</ele><time>2011-10-12T15:28:37.0000000+00:00</time></trkpt><trkpt lat="44.537197" lon="34.273277"><ele>0.2</ele><time>2011-10-12T15:28:42.0000000+00:00</time></trkpt><trkpt lat="44.537205" lon="34.27327"><ele>0.3</ele><time>2011-10-12T15:28:47.0000000+00:00</time></trkpt><trkpt lat="44.537231" lon="34.273243"><ele>0.5</ele><time>2011-10-12T15:28:52.0000000+00:00</time></trkpt><trkpt lat="44.537266" lon="34.273178"><ele>1.4</ele><time>2011-10-12T15:28:57.0000000+00:00</time></trkpt><trkpt lat="44.537277" lon="34.273167"><ele>2.7</ele><time>2011-10-12T15:29:02.0000000+00:00</time></trkpt><trkpt lat="44.537285" lon="34.273148"><ele>3.0</ele><time>2011-10-12T15:29:07.0000000+00:00</time></trkpt><trkpt lat="44.537281" lon="34.273151"><ele>3.1</ele><time>2011-10-12T15:29:12.0000000+00:00</time></trkpt><trkpt lat="44.537292" lon="34.273151"><ele>3.1</ele><time>2011-10-12T15:29:17.0000000+00:00</time></trkpt><trkpt lat="44.537296" lon="34.273151"><ele>3.2</ele><time>2011-10-12T15:29:22.0000000+00:00</time></trkpt><trkpt lat="44.5373" lon="34.273151"><ele>3.3</ele><time>2011-10-12T15:29:27.0000000+00:00</time></trkpt><trkpt lat="44.537289" lon="34.273148"><ele>3.4</ele><time>2011-10-12T15:29:32.0000000+00:00</time></trkpt><trkpt lat="44.537285" lon="34.273136"><ele>3.8</ele><time>2011-10-12T15:29:37.0000000+00:00</time></trkpt><trkpt lat="44.537285" lon="34.273129"><ele>3.9</ele><time>2011-10-12T15:29:42.0000000+00:00</time></trkpt><trkpt lat="44.53727" lon="34.273094"><ele>4.0</ele><time>2011-10-12T15:29:47.0000000+00:00</time></trkpt><trkpt lat="44.537235" lon="34.273026"><ele>4.1</ele><time>2011-10-12T15:29:52.0000000+00:00</time></trkpt><trkpt lat="44.537201" lon="34.273045"><ele>4.2</ele><time>2011-10-12T15:29:57.0000000+00:00</time></trkpt><trkpt lat="44.537159" lon="34.273064"><ele>4.2</ele><time>2011-10-12T15:30:02.0000000+00:00</time></trkpt><trkpt lat="44.537186" lon="34.273113"><ele>4.3</ele><time>2011-10-12T15:30:07.0000000+00:00</time></trkpt><trkpt lat="44.537182" lon="34.273113"><ele>4.3</ele><time>2011-10-12T15:30:12.0000000+00:00</time></trkpt><trkpt lat="44.537189" lon="34.273163"><ele>4.5</ele><time>2011-10-12T15:30:17.0000000+00:00</time></trkpt><trkpt lat="44.537197" lon="34.273178"><ele>4.9</ele><time>2011-10-12T15:30:22.0000000+00:00</time></trkpt><trkpt lat="44.537201" lon="34.273178"><ele>5.0</ele><time>2011-10-12T15:30:27.0000000+00:00</time></trkpt><trkpt lat="44.537209" lon="34.27317"><ele>5.1</ele><time>2011-10-12T15:30:32.0000000+00:00</time></trkpt><trkpt lat="44.537216" lon="34.273212"><ele>5.2</ele><time>2011-10-12T15:30:37.0000000+00:00</time></trkpt><trkpt lat="44.537209" lon="34.273243"><ele>5.4</ele><time>2011-10-12T15:30:42.0000000+00:00</time></trkpt><trkpt lat="44.53717" lon="34.273277"><ele>5.6</ele><time>2011-10-12T15:30:47.0000000+00:00</time></trkpt><trkpt lat="44.537155" lon="34.273273"><ele>5.7</ele><time>2011-10-12T15:30:52.0000000+00:00</time></trkpt><trkpt lat="44.537163" lon="34.273232"><ele>5.9</ele><time>2011-10-12T15:30:57.0000000+00:00</time></trkpt><trkpt lat="44.53717" lon="34.273163"><ele>6.0</ele><time>2011-10-12T15:31:02.0000000+00:00</time></trkpt><trkpt lat="44.537174" lon="34.27314"><ele>6.0</ele><time>2011-10-12T15:31:07.0000000+00:00</time></trkpt><trkpt lat="44.537159" lon="34.273163"><ele>5.9</ele><time>2011-10-12T15:31:12.0000000+00:00</time></trkpt><trkpt lat="44.537163" lon="34.273197"><ele>6.3</ele><time>2011-10-12T15:31:17.0000000+00:00</time></trkpt><trkpt lat="44.537201" lon="34.273174"><ele>6.3</ele><time>2011-10-12T15:31:22.0000000+00:00</time></trkpt><trkpt lat="44.537239" lon="34.273167"><ele>6.5</ele><time>2011-10-12T15:31:27.0000000+00:00</time></trkpt><trkpt lat="44.537262" lon="34.273136"><ele>7.0</ele><time>2011-10-12T15:31:32.0000000+00:00</time></trkpt><trkpt lat="44.537266" lon="34.273136"><ele>7.2</ele><time>2011-10-12T15:31:37.0000000+00:00</time></trkpt><trkpt lat="44.537266" lon="34.273144"><ele>7.2</ele><time>2011-10-12T15:31:42.0000000+00:00</time></trkpt><trkpt lat="44.537273" lon="34.273151"><ele>7.2</ele><time>2011-10-12T15:31:47.0000000+00:00</time></trkpt><trkpt lat="44.537266" lon="34.273155"><ele>7.3</ele><time>2011-10-12T15:31:52.0000000+00:00</time></trkpt><trkpt lat="44.537254" lon="34.273155"><ele>7.3</ele><time>2011-10-12T15:31:57.0000000+00:00</time></trkpt><trkpt lat="44.537254" lon="34.273151"><ele>7.3</ele><time>2011-10-12T15:32:02.0000000+00:00</time></trkpt><trkpt lat="44.537247" lon="34.273148"><ele>7.3</ele><time>2011-10-12T15:32:07.0000000+00:00</time></trkpt><trkpt lat="44.537239" lon="34.273155"><ele>7.3</ele><time>2011-10-12T15:32:12.0000000+00:00</time></trkpt><trkpt lat="44.537235" lon="34.273155"><ele>7.2</ele><time>2011-10-12T15:32:17.0000000+00:00</time></trkpt><trkpt lat="44.537235" lon="34.273155"><ele>7.2</ele><time>2011-10-12T15:32:22.0000000+00:00</time></trkpt><trkpt lat="44.537235" lon="34.273159"><ele>7.3</ele><time>2011-10-12T15:32:27.0000000+00:00</time></trkpt><trkpt lat="44.537235" lon="34.273163"><ele>7.3</ele><time>2011-10-12T15:32:32.0000000+00:00</time></trkpt><trkpt lat="44.537235" lon="34.273163"><ele>7.3</ele><time>2011-10-12T15:32:37.0000000+00:00</time></trkpt><trkpt lat="44.537235" lon="34.273155"><ele>7.3</ele><time>2011-10-12T15:32:42.0000000+00:00</time></trkpt><trkpt lat="44.537235" lon="34.273151"><ele>7.3</ele><time>2011-10-12T15:32:47.0000000+00:00</time></trkpt><trkpt lat="44.537231" lon="34.273155"><ele>7.3</ele><time>2011-10-12T15:32:52.0000000+00:00</time></trkpt><trkpt lat="44.537212" lon="34.273151"><ele>7.4</ele><time>2011-10-12T15:32:57.0000000+00:00</time></trkpt><trkpt lat="44.537178" lon="34.273148"><ele>7.5</ele><time>2011-10-12T15:33:02.0000000+00:00</time></trkpt><trkpt lat="44.537159" lon="34.273132"><ele>7.8</ele><time>2011-10-12T15:33:07.0000000+00:00</time></trkpt><trkpt lat="44.537155" lon="34.273201"><ele>7.3</ele><time>2011-10-12T15:33:12.0000000+00:00</time></trkpt><trkpt lat="44.53714" lon="34.273205"><ele>7.8</ele><time>2011-10-12T15:33:17.0000000+00:00</time></trkpt><trkpt lat="44.537136" lon="34.273205"><ele>7.8</ele><time>2011-10-12T15:33:22.0000000+00:00</time></trkpt><trkpt lat="44.537128" lon="34.273205"><ele>7.8</ele><time>2011-10-12T15:33:27.0000000+00:00</time></trkpt><trkpt lat="44.537125" lon="34.273209"><ele>7.8</ele><time>2011-10-12T15:33:32.0000000+00:00</time></trkpt><trkpt lat="44.537125" lon="34.273216"><ele>7.8</ele><time>2011-10-12T15:33:37.0000000+00:00</time></trkpt><trkpt lat="44.537128" lon="34.273232"><ele>7.8</ele><time>2011-10-12T15:33:42.0000000+00:00</time></trkpt><trkpt lat="44.537167" lon="34.273239"><ele>8.5</ele><time>2011-10-12T15:33:47.0000000+00:00</time></trkpt><trkpt lat="44.537182" lon="34.273243"><ele>9.5</ele><time>2011-10-12T15:33:52.0000000+00:00</time></trkpt><trkpt lat="44.537193" lon="34.273239"><ele>9.5</ele><time>2011-10-12T15:33:57.0000000+00:00</time></trkpt><trkpt lat="44.537197" lon="34.273239"><ele>9.7</ele><time>2011-10-12T15:34:02.0000000+00:00</time></trkpt><trkpt lat="44.537201" lon="34.273239"><ele>9.9</ele><time>2011-10-12T15:34:07.0000000+00:00</time></trkpt><trkpt lat="44.537201" lon="34.273239"><ele>10.1</ele><time>2011-10-12T15:34:12.0000000+00:00</time></trkpt><trkpt lat="44.537201" lon="34.273239"><ele>10.3</ele><time>2011-10-12T15:34:17.0000000+00:00</time></trkpt><trkpt lat="44.537201" lon="34.273239"><ele>10.4</ele><time>2011-10-12T15:34:22.0000000+00:00</time></trkpt><trkpt lat="44.537201" lon="34.273239"><ele>10.4</ele><time>2011-10-12T15:34:27.0000000+00:00</time></trkpt><trkpt lat="44.537197" lon="34.273239"><ele>10.4</ele><time>2011-10-12T15:34:32.0000000+00:00</time></trkpt><trkpt lat="44.537197" lon="34.273243"><ele>10.4</ele><time>2011-10-12T15:34:37.0000000+00:00</time></trkpt><trkpt lat="44.537197" lon="34.273239"><ele>10.4</ele><time>2011-10-12T15:34:42.0000000+00:00</time></trkpt><trkpt lat="44.537201" lon="34.273235"><ele>10.4</ele><time>2011-10-12T15:34:47.0000000+00:00</time></trkpt><trkpt lat="44.537201" lon="34.273232"><ele>10.4</ele><time>2011-10-12T15:34:52.0000000+00:00</time></trkpt><trkpt lat="44.537212" lon="34.27322"><ele>10.4</ele><time>2011-10-12T15:34:57.0000000+00:00</time></trkpt><trkpt lat="44.53722" lon="34.273216"><ele>10.4</ele><time>2011-10-12T15:35:02.0000000+00:00</time></trkpt><trkpt lat="44.537228" lon="34.273216"><ele>10.4</ele><time>2011-10-12T15:35:07.0000000+00:00</time></trkpt><trkpt lat="44.537235" lon="34.273216"><ele>10.5</ele><time>2011-10-12T15:35:12.0000000+00:00</time></trkpt><trkpt lat="44.537247" lon="34.273216"><ele>10.5</ele><time>2011-10-12T15:35:17.0000000+00:00</time></trkpt><trkpt lat="44.537262" lon="34.27322"><ele>10.5</ele><time>2011-10-12T15:35:22.0000000+00:00</time></trkpt><trkpt lat="44.537273" lon="34.273254"><ele>10.7</ele><time>2011-10-12T15:35:27.0000000+00:00</time></trkpt><trkpt lat="44.537281" lon="34.273281"><ele>11.0</ele><time>2011-10-12T15:35:32.0000000+00:00</time></trkpt><trkpt lat="44.537285" lon="34.273308"><ele>11.0</ele><time>2011-10-12T15:35:37.0000000+00:00</time></trkpt><trkpt lat="44.537285" lon="34.273304"><ele>11.1</ele><time>2011-10-12T15:35:42.0000000+00:00</time></trkpt><trkpt lat="44.537289" lon="34.273312"><ele>11.1</ele><time>2011-10-12T15:35:47.0000000+00:00</time></trkpt><trkpt lat="44.537285" lon="34.273315"><ele>11.2</ele><time>2011-10-12T15:35:52.0000000+00:00</time></trkpt><trkpt lat="44.537277" lon="34.273315"><ele>11.2</ele><time>2011-10-12T15:35:57.0000000+00:00</time></trkpt><trkpt lat="44.53727" lon="34.273315"><ele>11.2</ele><time>2011-10-12T15:36:02.0000000+00:00</time></trkpt><trkpt lat="44.537262" lon="34.273315"><ele>11.3</ele><time>2011-10-12T15:36:07.0000000+00:00</time></trkpt><trkpt lat="44.537254" lon="34.273315"><ele>11.3</ele><time>2011-10-12T15:36:12.0000000+00:00</time></trkpt><trkpt lat="44.537251" lon="34.273308"><ele>11.3</ele><time>2011-10-12T15:36:17.0000000+00:00</time></trkpt><trkpt lat="44.537247" lon="34.273296"><ele>11.4</ele><time>2011-10-12T15:36:22.0000000+00:00</time></trkpt><trkpt lat="44.537243" lon="34.273289"><ele>11.4</ele><time>2011-10-12T15:36:27.0000000+00:00</time></trkpt><trkpt lat="44.537224" lon="34.273273"><ele>11.5</ele><time>2011-10-12T15:36:32.0000000+00:00</time></trkpt><trkpt lat="44.537216" lon="34.273254"><ele>11.6</ele><time>2011-10-12T15:36:37.0000000+00:00</time></trkpt><trkpt lat="44.537212" lon="34.273239"><ele>11.7</ele><time>2011-10-12T15:36:42.0000000+00:00</time></trkpt><trkpt lat="44.537209" lon="34.273232"><ele>11.8</ele><time>2011-10-12T15:36:47.0000000+00:00</time></trkpt><trkpt lat="44.537205" lon="34.273224"><ele>11.8</ele><time>2011-10-12T15:36:52.0000000+00:00</time></trkpt><trkpt lat="44.537205" lon="34.273224"><ele>11.8</ele><time>2011-10-12T15:36:57.0000000+00:00</time></trkpt><trkpt lat="44.537205" lon="34.273228"><ele>11.9</ele><time>2011-10-12T15:37:02.0000000+00:00</time></trkpt><trkpt lat="44.537197" lon="34.273239"><ele>11.9</ele><time>2011-10-12T15:37:07.0000000+00:00</time></trkpt><trkpt lat="44.537193" lon="34.273247"><ele>12.0</ele><time>2011-10-12T15:37:12.0000000+00:00</time></trkpt><trkpt lat="44.537189" lon="34.273251"><ele>12.0</ele><time>2011-10-12T15:37:17.0000000+00:00</time></trkpt><trkpt lat="44.537189" lon="34.273251"><ele>12.1</ele><time>2011-10-12T15:37:22.0000000+00:00</time></trkpt><trkpt lat="44.537193" lon="34.273247"><ele>12.1</ele><time>2011-10-12T15:37:27.0000000+00:00</time></trkpt><trkpt lat="44.537205" lon="34.273258"><ele>12.1</ele><time>2011-10-12T15:37:32.0000000+00:00</time></trkpt><trkpt lat="44.537212" lon="34.273266"><ele>12.2</ele><time>2011-10-12T15:37:37.0000000+00:00</time></trkpt><trkpt lat="44.537228" lon="34.273273"><ele>12.3</ele><time>2011-10-12T15:37:42.0000000+00:00</time></trkpt><trkpt lat="44.537212" lon="34.2733"><ele>12.4</ele><time>2011-10-12T15:37:47.0000000+00:00</time></trkpt><trkpt lat="44.537216" lon="34.273315"><ele>12.5</ele><time>2011-10-12T15:37:52.0000000+00:00</time></trkpt><trkpt lat="44.537216" lon="34.273327"><ele>12.5</ele><time>2011-10-12T15:37:57.0000000+00:00</time></trkpt><trkpt lat="44.537212" lon="34.273338"><ele>12.6</ele><time>2011-10-12T15:38:02.0000000+00:00</time></trkpt><trkpt lat="44.537209" lon="34.273338"><ele>12.6</ele><time>2011-10-12T15:38:07.0000000+00:00</time></trkpt><trkpt lat="44.537174" lon="34.273354"><ele>12.8</ele><time>2011-10-12T15:38:12.0000000+00:00</time></trkpt><trkpt lat="44.537148" lon="34.273361"><ele>13.1</ele><time>2011-10-12T15:38:17.0000000+00:00</time></trkpt><trkpt lat="44.537128" lon="34.273357"><ele>13.2</ele><time>2011-10-12T15:38:22.0000000+00:00</time></trkpt><trkpt lat="44.537125" lon="34.273373"><ele>13.3</ele><time>2011-10-12T15:38:27.0000000+00:00</time></trkpt><trkpt lat="44.537121" lon="34.273399"><ele>13.4</ele><time>2011-10-12T15:38:32.0000000+00:00</time></trkpt><trkpt lat="44.537125" lon="34.273415"><ele>13.6</ele><time>2011-10-12T15:38:37.0000000+00:00</time></trkpt><trkpt lat="44.537136" lon="34.273438"><ele>13.6</ele><time>2011-10-12T15:38:42.0000000+00:00</time></trkpt><trkpt lat="44.537151" lon="34.273422"><ele>13.6</ele><time>2011-10-12T15:38:47.0000000+00:00</time></trkpt><trkpt lat="44.537151" lon="34.273426"><ele>13.7</ele><time>2011-10-12T15:38:52.0000000+00:00</time></trkpt><trkpt lat="44.537155" lon="34.273426"><ele>13.8</ele><time>2011-10-12T15:38:57.0000000+00:00</time></trkpt><trkpt lat="44.537167" lon="34.273418"><ele>13.9</ele><time>2011-10-12T15:39:02.0000000+00:00</time></trkpt><trkpt lat="44.53717" lon="34.273434"><ele>13.9</ele><time>2011-10-12T15:39:07.0000000+00:00</time></trkpt><trkpt lat="44.537174" lon="34.273441"><ele>14.0</ele><time>2011-10-12T15:39:12.0000000+00:00</time></trkpt><trkpt lat="44.537174" lon="34.273453"><ele>14.1</ele><time>2011-10-12T15:39:17.0000000+00:00</time></trkpt><trkpt lat="44.537178" lon="34.273453"><ele>14.3</ele><time>2011-10-12T15:39:22.0000000+00:00</time></trkpt><trkpt lat="44.537174" lon="34.273441"><ele>14.4</ele><time>2011-10-12T15:39:27.0000000+00:00</time></trkpt><trkpt lat="44.537178" lon="34.273418"><ele>14.3</ele><time>2011-10-12T15:39:32.0000000+00:00</time></trkpt><trkpt lat="44.537174" lon="34.273399"><ele>14.4</ele><time>2011-10-12T15:39:37.0000000+00:00</time></trkpt><trkpt lat="44.537174" lon="34.273384"><ele>14.6</ele><time>2011-10-12T15:39:42.0000000+00:00</time></trkpt><trkpt lat="44.537178" lon="34.273376"><ele>14.7</ele><time>2011-10-12T15:39:47.0000000+00:00</time></trkpt><trkpt lat="44.537186" lon="34.273369"><ele>14.9</ele><time>2011-10-12T15:39:52.0000000+00:00</time></trkpt><trkpt lat="44.537193" lon="34.273361"><ele>15.1</ele><time>2011-10-12T15:39:57.0000000+00:00</time></trkpt><trkpt lat="44.537193" lon="34.273354"><ele>15.3</ele><time>2011-10-12T15:40:02.0000000+00:00</time></trkpt><trkpt lat="44.537193" lon="34.273342"><ele>15.5</ele><time>2011-10-12T15:40:07.0000000+00:00</time></trkpt><trkpt lat="44.537189" lon="34.273338"><ele>15.8</ele><time>2011-10-12T15:40:12.0000000+00:00</time></trkpt><trkpt lat="44.537205" lon="34.273327"><ele>16.2</ele><time>2011-10-12T15:40:17.0000000+00:00</time></trkpt><trkpt lat="44.537209" lon="34.273281"><ele>17.0</ele><time>2011-10-12T15:40:22.0000000+00:00</time></trkpt><trkpt lat="44.537212" lon="34.273243"><ele>17.6</ele><time>2011-10-12T15:40:27.0000000+00:00</time></trkpt><trkpt lat="44.537148" lon="34.27322"><ele>18.3</ele><time>2011-10-12T15:40:32.0000000+00:00</time></trkpt><trkpt lat="44.537128" lon="34.273285"><ele>18.4</ele><time>2011-10-12T15:40:37.0000000+00:00</time></trkpt><trkpt lat="44.537113" lon="34.273319"><ele>18.3</ele><time>2011-10-12T15:40:42.0000000+00:00</time></trkpt><trkpt lat="44.537121" lon="34.273315"><ele>18.6</ele><time>2011-10-12T15:40:47.0000000+00:00</time></trkpt><trkpt lat="44.537148" lon="34.273296"><ele>19.0</ele><time>2011-10-12T15:40:52.0000000+00:00</time></trkpt><trkpt lat="44.537128" lon="34.273293"><ele>19.6</ele><time>2011-10-12T15:40:57.0000000+00:00</time></trkpt><trkpt lat="44.537128" lon="34.273273"><ele>19.9</ele><time>2011-10-12T15:41:02.0000000+00:00</time></trkpt><trkpt lat="44.537125" lon="34.273262"><ele>20.0</ele><time>2011-10-12T15:41:07.0000000+00:00</time></trkpt><trkpt lat="44.537071" lon="34.273289"><ele>19.9</ele><time>2011-10-12T15:41:12.0000000+00:00</time></trkpt><trkpt lat="44.537041" lon="34.273304"><ele>19.8</ele><time>2011-10-12T15:41:17.0000000+00:00</time></trkpt><trkpt lat="44.537037" lon="34.273323"><ele>19.6</ele><time>2011-10-12T15:41:22.0000000+00:00</time></trkpt><trkpt lat="44.537045" lon="34.273319"><ele>19.6</ele><time>2011-10-12T15:41:27.0000000+00:00</time></trkpt><trkpt lat="44.537037" lon="34.273315"><ele>19.7</ele><time>2011-10-12T15:41:32.0000000+00:00</time></trkpt><trkpt lat="44.537025" lon="34.273312"><ele>19.7</ele><time>2011-10-12T15:41:37.0000000+00:00</time></trkpt><trkpt lat="44.537014" lon="34.273304"><ele>19.7</ele><time>2011-10-12T15:41:42.0000000+00:00</time></trkpt><trkpt lat="44.537006" lon="34.273312"><ele>19.7</ele><time>2011-10-12T15:41:47.0000000+00:00</time></trkpt><trkpt lat="44.537006" lon="34.273312"><ele>19.8</ele><time>2011-10-12T15:41:52.0000000+00:00</time></trkpt><trkpt lat="44.537067" lon="34.273266"><ele>19.8</ele><time>2011-10-12T15:41:57.0000000+00:00</time></trkpt><trkpt lat="44.537113" lon="34.273243"><ele>19.1</ele><time>2011-10-12T15:42:02.0000000+00:00</time></trkpt><trkpt lat="44.537128" lon="34.273258"><ele>18.9</ele><time>2011-10-12T15:42:07.0000000+00:00</time></trkpt><trkpt lat="44.537132" lon="34.27327"><ele>18.7</ele><time>2011-10-12T15:42:12.0000000+00:00</time></trkpt><trkpt lat="44.537132" lon="34.273273"><ele>18.7</ele><time>2011-10-12T15:42:17.0000000+00:00</time></trkpt><trkpt lat="44.537132" lon="34.273289"><ele>18.7</ele><time>2011-10-12T15:42:22.0000000+00:00</time></trkpt><trkpt lat="44.537132" lon="34.273289"><ele>18.9</ele><time>2011-10-12T15:42:27.0000000+00:00</time></trkpt><trkpt lat="44.537128" lon="34.273296"><ele>18.9</ele><time>2011-10-12T15:42:32.0000000+00:00</time></trkpt><trkpt lat="44.537109" lon="34.273304"><ele>18.9</ele><time>2011-10-12T15:42:37.0000000+00:00</time></trkpt><trkpt lat="44.537121" lon="34.27327"><ele>17.9</ele><time>2011-10-12T15:42:42.0000000+00:00</time></trkpt><trkpt lat="44.537113" lon="34.27327"><ele>17.9</ele><time>2011-10-12T15:42:47.0000000+00:00</time></trkpt><trkpt lat="44.537113" lon="34.273273"><ele>17.9</ele><time>2011-10-12T15:42:52.0000000+00:00</time></trkpt><trkpt lat="44.537125" lon="34.273293"><ele>19.1</ele><time>2011-10-12T15:42:57.0000000+00:00</time></trkpt><trkpt lat="44.537121" lon="34.2733"><ele>19.2</ele><time>2011-10-12T15:43:02.0000000+00:00</time></trkpt><trkpt lat="44.537128" lon="34.273296"><ele>19.1</ele><time>2011-10-12T15:43:07.0000000+00:00</time></trkpt><trkpt lat="44.537128" lon="34.273319"><ele>19.0</ele><time>2011-10-12T15:43:12.0000000+00:00</time></trkpt><trkpt lat="44.537125" lon="34.273354"><ele>19.7</ele><time>2011-10-12T15:43:17.0000000+00:00</time></trkpt><trkpt lat="44.537113" lon="34.273335"><ele>20.5</ele><time>2011-10-12T15:43:22.0000000+00:00</time></trkpt><trkpt lat="44.537109" lon="34.273342"><ele>20.5</ele><time>2011-10-12T15:43:27.0000000+00:00</time></trkpt><trkpt lat="44.537106" lon="34.27335"><ele>20.5</ele><time>2011-10-12T15:43:32.0000000+00:00</time></trkpt><trkpt lat="44.537102" lon="34.27335"><ele>20.2</ele><time>2011-10-12T15:43:37.0000000+00:00</time></trkpt><trkpt lat="44.53709" lon="34.273354"><ele>20.1</ele><time>2011-10-12T15:43:42.0000000+00:00</time></trkpt><trkpt lat="44.537079" lon="34.273354"><ele>20.2</ele><time>2011-10-12T15:43:47.0000000+00:00</time></trkpt><trkpt lat="44.537071" lon="34.273346"><ele>20.3</ele><time>2011-10-12T15:43:52.0000000+00:00</time></trkpt><trkpt lat="44.537067" lon="34.273335"><ele>20.4</ele><time>2011-10-12T15:43:57.0000000+00:00</time></trkpt><trkpt lat="44.537052" lon="34.273304"><ele>20.7</ele><time>2011-10-12T15:44:02.0000000+00:00</time></trkpt><trkpt lat="44.537025" lon="34.273262"><ele>21.2</ele><time>2011-10-12T15:44:07.0000000+00:00</time></trkpt><trkpt lat="44.537022" lon="34.273258"><ele>21.0</ele><time>2011-10-12T15:44:12.0000000+00:00</time></trkpt><trkpt lat="44.537018" lon="34.273281"><ele>20.7</ele><time>2011-10-12T15:44:17.0000000+00:00</time></trkpt><trkpt lat="44.53701" lon="34.273289"><ele>20.8</ele><time>2011-10-12T15:44:22.0000000+00:00</time></trkpt><trkpt lat="44.537014" lon="34.273293"><ele>20.8</ele><time>2011-10-12T15:44:27.0000000+00:00</time></trkpt><trkpt lat="44.537018" lon="34.273293"><ele>20.8</ele><time>2011-10-12T15:44:32.0000000+00:00</time></trkpt><trkpt lat="44.537025" lon="34.2733"><ele>20.7</ele><time>2011-10-12T15:44:37.0000000+00:00</time></trkpt><trkpt lat="44.537033" lon="34.273304"><ele>20.7</ele><time>2011-10-12T15:44:42.0000000+00:00</time></trkpt><trkpt lat="44.537041" lon="34.273304"><ele>20.6</ele><time>2011-10-12T15:44:47.0000000+00:00</time></trkpt><trkpt lat="44.537041" lon="34.273304"><ele>20.5</ele><time>2011-10-12T15:44:52.0000000+00:00</time></trkpt><trkpt lat="44.537041" lon="34.273308"><ele>20.4</ele><time>2011-10-12T15:44:57.0000000+00:00</time></trkpt><trkpt lat="44.537041" lon="34.273312"><ele>20.4</ele><time>2011-10-12T15:45:02.0000000+00:00</time></trkpt><trkpt lat="44.537045" lon="34.273312"><ele>20.5</ele><time>2011-10-12T15:45:07.0000000+00:00</time></trkpt><trkpt lat="44.537052" lon="34.273312"><ele>20.6</ele><time>2011-10-12T15:45:12.0000000+00:00</time></trkpt><trkpt lat="44.53706" lon="34.273315"><ele>20.7</ele><time>2011-10-12T15:45:17.0000000+00:00</time></trkpt><trkpt lat="44.537071" lon="34.273312"><ele>20.7</ele><time>2011-10-12T15:45:22.0000000+00:00</time></trkpt><trkpt lat="44.537079" lon="34.273304"><ele>20.7</ele><time>2011-10-12T15:45:27.0000000+00:00</time></trkpt><trkpt lat="44.537086" lon="34.273304"><ele>20.7</ele><time>2011-10-12T15:45:32.0000000+00:00</time></trkpt><trkpt lat="44.537094" lon="34.273296"><ele>20.7</ele><time>2011-10-12T15:45:37.0000000+00:00</time></trkpt><trkpt lat="44.537098" lon="34.273289"><ele>20.6</ele><time>2011-10-12T15:45:42.0000000+00:00</time></trkpt><trkpt lat="44.537121" lon="34.273262"><ele>19.9</ele><time>2011-10-12T15:45:47.0000000+00:00</time></trkpt><trkpt lat="44.537125" lon="34.273243"><ele>20.2</ele><time>2011-10-12T15:45:52.0000000+00:00</time></trkpt><trkpt lat="44.537178" lon="34.273262"><ele>19.7</ele><time>2011-10-12T15:45:57.0000000+00:00</time></trkpt><trkpt lat="44.537216" lon="34.273239"><ele>20.8</ele><time>2011-10-12T15:46:02.0000000+00:00</time></trkpt><trkpt lat="44.537277" lon="34.273262"><ele>21.1</ele><time>2011-10-12T15:46:07.0000000+00:00</time></trkpt><trkpt lat="44.537277" lon="34.273331"><ele>20.9</ele><time>2011-10-12T15:46:12.0000000+00:00</time></trkpt><trkpt lat="44.537323" lon="34.273361"><ele>21.6</ele><time>2011-10-12T15:46:17.0000000+00:00</time></trkpt><trkpt lat="44.537323" lon="34.273373"><ele>21.8</ele><time>2011-10-12T15:46:22.0000000+00:00</time></trkpt><trkpt lat="44.537319" lon="34.273365"><ele>21.8</ele><time>2011-10-12T15:46:27.0000000+00:00</time></trkpt><trkpt lat="44.537285" lon="34.273399"><ele>22.3</ele><time>2011-10-12T15:46:32.0000000+00:00</time></trkpt><trkpt lat="44.537235" lon="34.273441"><ele>23.1</ele><time>2011-10-12T15:46:37.0000000+00:00</time></trkpt><trkpt lat="44.537239" lon="34.273491"><ele>22.9</ele><time>2011-10-12T15:46:42.0000000+00:00</time></trkpt><trkpt lat="44.537209" lon="34.273491"><ele>22.6</ele><time>2011-10-12T15:46:47.0000000+00:00</time></trkpt><trkpt lat="44.537205" lon="34.273499"><ele>22.2</ele><time>2011-10-12T15:46:52.0000000+00:00</time></trkpt><trkpt lat="44.537205" lon="34.273491"><ele>22.2</ele><time>2011-10-12T15:46:57.0000000+00:00</time></trkpt><trkpt lat="44.537205" lon="34.273483"><ele>22.2</ele><time>2011-10-12T15:47:02.0000000+00:00</time></trkpt><trkpt lat="44.537197" lon="34.273476"><ele>22.2</ele><time>2011-10-12T15:47:07.0000000+00:00</time></trkpt><trkpt lat="44.537197" lon="34.273499"><ele>22.2</ele><time>2011-10-12T15:47:12.0000000+00:00</time></trkpt><trkpt lat="44.537228" lon="34.273556"><ele>21.6</ele><time>2011-10-12T15:47:17.0000000+00:00</time></trkpt><trkpt lat="44.537228" lon="34.273586"><ele>22.3</ele><time>2011-10-12T15:47:22.0000000+00:00</time></trkpt><trkpt lat="44.537216" lon="34.273605"><ele>22.2</ele><time>2011-10-12T15:47:27.0000000+00:00</time></trkpt><trkpt lat="44.537182" lon="34.273617"><ele>22.1</ele><time>2011-10-12T15:47:32.0000000+00:00</time></trkpt><trkpt lat="44.537189" lon="34.273621"><ele>22.0</ele><time>2011-10-12T15:47:37.0000000+00:00</time></trkpt><trkpt lat="44.537186" lon="34.273617"><ele>21.9</ele><time>2011-10-12T15:47:42.0000000+00:00</time></trkpt><trkpt lat="44.537182" lon="34.273609"><ele>21.9</ele><time>2011-10-12T15:47:47.0000000+00:00</time></trkpt><trkpt lat="44.537174" lon="34.273605"><ele>21.9</ele><time>2011-10-12T15:47:52.0000000+00:00</time></trkpt><trkpt lat="44.537174" lon="34.273602"><ele>21.9</ele><time>2011-10-12T15:47:57.0000000+00:00</time></trkpt><trkpt lat="44.537174" lon="34.273602"><ele>21.9</ele><time>2011-10-12T15:48:02.0000000+00:00</time></trkpt><trkpt lat="44.537178" lon="34.273598"><ele>21.9</ele><time>2011-10-12T15:48:07.0000000+00:00</time></trkpt><trkpt lat="44.537182" lon="34.273613"><ele>21.9</ele><time>2011-10-12T15:48:12.0000000+00:00</time></trkpt><trkpt lat="44.537178" lon="34.273617"><ele>21.9</ele><time>2011-10-12T15:48:17.0000000+00:00</time></trkpt><trkpt lat="44.537167" lon="34.273621"><ele>21.9</ele><time>2011-10-12T15:48:22.0000000+00:00</time></trkpt><trkpt lat="44.537159" lon="34.273621"><ele>21.9</ele><time>2011-10-12T15:48:27.0000000+00:00</time></trkpt><trkpt lat="44.537155" lon="34.273621"><ele>21.9</ele><time>2011-10-12T15:48:32.0000000+00:00</time></trkpt><trkpt lat="44.537148" lon="34.273613"><ele>21.8</ele><time>2011-10-12T15:48:37.0000000+00:00</time></trkpt><trkpt lat="44.537148" lon="34.273613"><ele>21.8</ele><time>2011-10-12T15:48:42.0000000+00:00</time></trkpt><trkpt lat="44.537155" lon="34.273628"><ele>21.8</ele><time>2011-10-12T15:48:47.0000000+00:00</time></trkpt><trkpt lat="44.537159" lon="34.273632"><ele>21.9</ele><time>2011-10-12T15:48:52.0000000+00:00</time></trkpt><trkpt lat="44.537155" lon="34.273643"><ele>21.9</ele><time>2011-10-12T15:48:57.0000000+00:00</time></trkpt><trkpt lat="44.537128" lon="34.273697"><ele>21.8</ele><time>2011-10-12T15:49:02.0000000+00:00</time></trkpt><trkpt lat="44.537125" lon="34.273727"><ele>21.8</ele><time>2011-10-12T15:49:07.0000000+00:00</time></trkpt><trkpt lat="44.537136" lon="34.273712"><ele>21.8</ele><time>2011-10-12T15:49:12.0000000+00:00</time></trkpt><trkpt lat="44.537155" lon="34.273708"><ele>21.8</ele><time>2011-10-12T15:49:17.0000000+00:00</time></trkpt><trkpt lat="44.537144" lon="34.27372"><ele>21.8</ele><time>2011-10-12T15:49:22.0000000+00:00</time></trkpt></trkseg><trkseg><trkpt lat="44.537769" lon="34.274376"><ele>119.5</ele><time>2011-10-13T07:19:07.0000000+00:00</time></trkpt><trkpt lat="44.537834" lon="34.274483"><ele>119.5</ele><time>2011-10-13T07:19:12.0000000+00:00</time></trkpt><trkpt lat="44.537838" lon="34.274479"><ele>119.5</ele><time>2011-10-13T07:19:17.0000000+00:00</time></trkpt><trkpt lat="44.537777" lon="34.274429"><ele>119.5</ele><time>2011-10-13T07:19:22.0000000+00:00</time></trkpt><trkpt lat="44.537754" lon="34.274406"><ele>119.5</ele><time>2011-10-13T07:19:27.0000000+00:00</time></trkpt><trkpt lat="44.537758" lon="34.274406"><ele>119.5</ele><time>2011-10-13T07:19:32.0000000+00:00</time></trkpt><trkpt lat="44.537758" lon="34.274403"><ele>119.4</ele><time>2011-10-13T07:19:37.0000000+00:00</time></trkpt><trkpt lat="44.537716" lon="34.274376"><ele>119.4</ele><time>2011-10-13T07:19:42.0000000+00:00</time></trkpt><trkpt lat="44.537727" lon="34.274364"><ele>119.2</ele><time>2011-10-13T07:19:47.0000000+00:00</time></trkpt><trkpt lat="44.537415" lon="34.27356"><ele>49.2</ele><time>2011-10-13T07:19:52.0000000+00:00</time></trkpt><trkpt lat="44.537415" lon="34.273563"><ele>48.6</ele><time>2011-10-13T07:19:57.0000000+00:00</time></trkpt><trkpt lat="44.537415" lon="34.27356"><ele>48.6</ele><time>2011-10-13T07:20:02.0000000+00:00</time></trkpt><trkpt lat="44.537415" lon="34.27356"><ele>48.6</ele><time>2011-10-13T07:20:07.0000000+00:00</time></trkpt><trkpt lat="44.537415" lon="34.27356"><ele>48.5</ele><time>2011-10-13T07:20:12.0000000+00:00</time></trkpt><trkpt lat="44.537415" lon="34.27356"><ele>48.4</ele><time>2011-10-13T07:20:17.0000000+00:00</time></trkpt><trkpt lat="44.537415" lon="34.27356"><ele>48.4</ele><time>2011-10-13T07:20:22.0000000+00:00</time></trkpt><trkpt lat="44.537415" lon="34.27356"><ele>48.4</ele><time>2011-10-13T07:20:27.0000000+00:00</time></trkpt><trkpt lat="44.537415" lon="34.27356"><ele>48.4</ele><time>2011-10-13T07:20:32.0000000+00:00</time></trkpt><trkpt lat="44.537415" lon="34.27356"><ele>48.4</ele><time>2011-10-13T07:20:37.0000000+00:00</time></trkpt><trkpt lat="44.537415" lon="34.273556"><ele>48.4</ele><time>2011-10-13T07:20:42.0000000+00:00</time></trkpt><trkpt lat="44.537415" lon="34.273556"><ele>48.4</ele><time>2011-10-13T07:20:47.0000000+00:00</time></trkpt><trkpt lat="44.537415" lon="34.273556"><ele>48.4</ele><time>2011-10-13T07:20:52.0000000+00:00</time></trkpt><trkpt lat="44.537415" lon="34.273556"><ele>48.4</ele><time>2011-10-13T07:20:57.0000000+00:00</time></trkpt><trkpt lat="44.537415" lon="34.273556"><ele>48.3</ele><time>2011-10-13T07:21:02.0000000+00:00</time></trkpt><trkpt lat="44.537415" lon="34.273556"><ele>48.3</ele><time>2011-10-13T07:21:07.0000000+00:00</time></trkpt><trkpt lat="44.537415" lon="34.273556"><ele>48.3</ele><time>2011-10-13T07:21:12.0000000+00:00</time></trkpt><trkpt lat="44.537415" lon="34.273556"><ele>48.2</ele><time>2011-10-13T07:21:17.0000000+00:00</time></trkpt><trkpt lat="44.537415" lon="34.273556"><ele>48.2</ele><time>2011-10-13T07:21:22.0000000+00:00</time></trkpt><trkpt lat="44.537415" lon="34.273552"><ele>48.2</ele><time>2011-10-13T07:21:27.0000000+00:00</time></trkpt><trkpt lat="44.537415" lon="34.273552"><ele>48.1</ele><time>2011-10-13T07:21:32.0000000+00:00</time></trkpt><trkpt lat="44.537415" lon="34.273552"><ele>48.1</ele><time>2011-10-13T07:21:37.0000000+00:00</time></trkpt><trkpt lat="44.537415" lon="34.273552"><ele>48.1</ele><time>2011-10-13T07:21:42.0000000+00:00</time></trkpt><trkpt lat="44.537415" lon="34.273552"><ele>48.1</ele><time>2011-10-13T07:21:47.0000000+00:00</time></trkpt><trkpt lat="44.537415" lon="34.273552"><ele>48.1</ele><time>2011-10-13T07:21:52.0000000+00:00</time></trkpt><trkpt lat="44.537418" lon="34.273552"><ele>47.8</ele><time>2011-10-13T07:21:57.0000000+00:00</time></trkpt><trkpt lat="44.537418" lon="34.273544"><ele>47.3</ele><time>2011-10-13T07:22:02.0000000+00:00</time></trkpt><trkpt lat="44.537415" lon="34.27354"><ele>47.0</ele><time>2011-10-13T07:22:07.0000000+00:00</time></trkpt><trkpt lat="44.537411" lon="34.27354"><ele>46.7</ele><time>2011-10-13T07:22:12.0000000+00:00</time></trkpt><trkpt lat="44.537411" lon="34.273537"><ele>46.6</ele><time>2011-10-13T07:22:17.0000000+00:00</time></trkpt><trkpt lat="44.537407" lon="34.273525"><ele>46.3</ele><time>2011-10-13T07:22:22.0000000+00:00</time></trkpt><trkpt lat="44.537403" lon="34.273521"><ele>46.0</ele><time>2011-10-13T07:22:27.0000000+00:00</time></trkpt><trkpt lat="44.537422" lon="34.273514"><ele>45.6</ele><time>2011-10-13T07:22:32.0000000+00:00</time></trkpt><trkpt lat="44.537426" lon="34.273525"><ele>45.5</ele><time>2011-10-13T07:22:37.0000000+00:00</time></trkpt><trkpt lat="44.537426" lon="34.273529"><ele>45.5</ele><time>2011-10-13T07:22:42.0000000+00:00</time></trkpt><trkpt lat="44.537422" lon="34.273529"><ele>45.6</ele><time>2011-10-13T07:22:47.0000000+00:00</time></trkpt><trkpt lat="44.537422" lon="34.273529"><ele>45.6</ele><time>2011-10-13T07:22:52.0000000+00:00</time></trkpt><trkpt lat="44.537422" lon="34.273529"><ele>45.7</ele><time>2011-10-13T07:22:57.0000000+00:00</time></trkpt><trkpt lat="44.537422" lon="34.273529"><ele>45.6</ele><time>2011-10-13T07:23:02.0000000+00:00</time></trkpt><trkpt lat="44.537422" lon="34.273529"><ele>45.6</ele><time>2011-10-13T07:23:07.0000000+00:00</time></trkpt><trkpt lat="44.537422" lon="34.273525"><ele>45.7</ele><time>2011-10-13T07:23:12.0000000+00:00</time></trkpt><trkpt lat="44.537422" lon="34.273529"><ele>45.7</ele><time>2011-10-13T07:23:17.0000000+00:00</time></trkpt><trkpt lat="44.537418" lon="34.273529"><ele>45.8</ele><time>2011-10-13T07:23:22.0000000+00:00</time></trkpt><trkpt lat="44.537418" lon="34.273529"><ele>45.8</ele><time>2011-10-13T07:23:27.0000000+00:00</time></trkpt><trkpt lat="44.537418" lon="34.273529"><ele>45.9</ele><time>2011-10-13T07:23:32.0000000+00:00</time></trkpt><trkpt lat="44.537418" lon="34.273529"><ele>46.0</ele><time>2011-10-13T07:23:37.0000000+00:00</time></trkpt><trkpt lat="44.537422" lon="34.273533"><ele>46.0</ele><time>2011-10-13T07:23:42.0000000+00:00</time></trkpt><trkpt lat="44.537418" lon="34.273533"><ele>46.0</ele><time>2011-10-13T07:23:47.0000000+00:00</time></trkpt><trkpt lat="44.537418" lon="34.273533"><ele>46.0</ele><time>2011-10-13T07:23:52.0000000+00:00</time></trkpt><trkpt lat="44.537418" lon="34.273533"><ele>46.0</ele><time>2011-10-13T07:23:57.0000000+00:00</time></trkpt><trkpt lat="44.537418" lon="34.273537"><ele>45.9</ele><time>2011-10-13T07:24:02.0000000+00:00</time></trkpt><trkpt lat="44.537418" lon="34.273537"><ele>45.9</ele><time>2011-10-13T07:24:07.0000000+00:00</time></trkpt><trkpt lat="44.537418" lon="34.273537"><ele>45.8</ele><time>2011-10-13T07:24:12.0000000+00:00</time></trkpt><trkpt lat="44.537418" lon="34.273537"><ele>45.8</ele><time>2011-10-13T07:24:17.0000000+00:00</time></trkpt><trkpt lat="44.537418" lon="34.273537"><ele>45.7</ele><time>2011-10-13T07:24:22.0000000+00:00</time></trkpt><trkpt lat="44.537418" lon="34.273537"><ele>45.7</ele><time>2011-10-13T07:24:27.0000000+00:00</time></trkpt><trkpt lat="44.537418" lon="34.273537"><ele>45.7</ele><time>2011-10-13T07:24:32.0000000+00:00</time></trkpt><trkpt lat="44.537418" lon="34.273537"><ele>45.7</ele><time>2011-10-13T07:24:37.0000000+00:00</time></trkpt><trkpt lat="44.537418" lon="34.273537"><ele>45.7</ele><time>2011-10-13T07:24:42.0000000+00:00</time></trkpt><trkpt lat="44.537418" lon="34.273537"><ele>45.6</ele><time>2011-10-13T07:24:47.0000000+00:00</time></trkpt><trkpt lat="44.537418" lon="34.273537"><ele>45.6</ele><time>2011-10-13T07:24:52.0000000+00:00</time></trkpt><trkpt lat="44.537418" lon="34.273533"><ele>45.6</ele><time>2011-10-13T07:24:57.0000000+00:00</time></trkpt><trkpt lat="44.537415" lon="34.273533"><ele>45.6</ele><time>2011-10-13T07:25:02.0000000+00:00</time></trkpt><trkpt lat="44.537415" lon="34.273533"><ele>45.6</ele><time>2011-10-13T07:25:07.0000000+00:00</time></trkpt><trkpt lat="44.537415" lon="34.273533"><ele>45.6</ele><time>2011-10-13T07:25:12.0000000+00:00</time></trkpt><trkpt lat="44.537415" lon="34.273533"><ele>45.5</ele><time>2011-10-13T07:25:17.0000000+00:00</time></trkpt><trkpt lat="44.537415" lon="34.273533"><ele>45.4</ele><time>2011-10-13T07:25:22.0000000+00:00</time></trkpt><trkpt lat="44.537415" lon="34.273533"><ele>45.4</ele><time>2011-10-13T07:25:27.0000000+00:00</time></trkpt><trkpt lat="44.537415" lon="34.273537"><ele>45.3</ele><time>2011-10-13T07:25:32.0000000+00:00</time></trkpt><trkpt lat="44.537415" lon="34.273537"><ele>45.3</ele><time>2011-10-13T07:25:37.0000000+00:00</time></trkpt><trkpt lat="44.537415" lon="34.273537"><ele>45.2</ele><time>2011-10-13T07:25:42.0000000+00:00</time></trkpt><trkpt lat="44.537407" lon="34.273537"><ele>45.2</ele><time>2011-10-13T07:25:47.0000000+00:00</time></trkpt><trkpt lat="44.537399" lon="34.273533"><ele>45.1</ele><time>2011-10-13T07:25:52.0000000+00:00</time></trkpt><trkpt lat="44.537399" lon="34.273529"><ele>45.0</ele><time>2011-10-13T07:25:57.0000000+00:00</time></trkpt><trkpt lat="44.537395" lon="34.273529"><ele>44.8</ele><time>2011-10-13T07:26:02.0000000+00:00</time></trkpt><trkpt lat="44.537395" lon="34.273525"><ele>44.5</ele><time>2011-10-13T07:26:07.0000000+00:00</time></trkpt><trkpt lat="44.537395" lon="34.273525"><ele>44.5</ele><time>2011-10-13T07:26:12.0000000+00:00</time></trkpt><trkpt lat="44.537395" lon="34.273525"><ele>44.5</ele><time>2011-10-13T07:26:17.0000000+00:00</time></trkpt><trkpt lat="44.537395" lon="34.273525"><ele>44.5</ele><time>2011-10-13T07:26:22.0000000+00:00</time></trkpt><trkpt lat="44.537395" lon="34.273525"><ele>44.5</ele><time>2011-10-13T07:26:27.0000000+00:00</time></trkpt><trkpt lat="44.537395" lon="34.273529"><ele>44.5</ele><time>2011-10-13T07:26:32.0000000+00:00</time></trkpt><trkpt lat="44.537395" lon="34.273529"><ele>44.5</ele><time>2011-10-13T07:26:37.0000000+00:00</time></trkpt><trkpt lat="44.537395" lon="34.273529"><ele>44.6</ele><time>2011-10-13T07:26:42.0000000+00:00</time></trkpt><trkpt lat="44.537395" lon="34.273529"><ele>44.6</ele><time>2011-10-13T07:26:47.0000000+00:00</time></trkpt><trkpt lat="44.537395" lon="34.273529"><ele>44.6</ele><time>2011-10-13T07:26:52.0000000+00:00</time></trkpt><trkpt lat="44.537395" lon="34.273529"><ele>44.6</ele><time>2011-10-13T07:26:57.0000000+00:00</time></trkpt><trkpt lat="44.537395" lon="34.273529"><ele>44.6</ele><time>2011-10-13T07:27:02.0000000+00:00</time></trkpt><trkpt lat="44.537395" lon="34.273529"><ele>44.7</ele><time>2011-10-13T07:27:07.0000000+00:00</time></trkpt><trkpt lat="44.537399" lon="34.273529"><ele>44.7</ele><time>2011-10-13T07:27:12.0000000+00:00</time></trkpt><trkpt lat="44.537399" lon="34.273525"><ele>44.7</ele><time>2011-10-13T07:27:17.0000000+00:00</time></trkpt><trkpt lat="44.537399" lon="34.273525"><ele>44.7</ele><time>2011-10-13T07:27:22.0000000+00:00</time></trkpt><trkpt lat="44.537399" lon="34.273525"><ele>44.7</ele><time>2011-10-13T07:27:27.0000000+00:00</time></trkpt><trkpt lat="44.537399" lon="34.273525"><ele>44.7</ele><time>2011-10-13T07:27:32.0000000+00:00</time></trkpt><trkpt lat="44.537399" lon="34.273525"><ele>44.7</ele><time>2011-10-13T07:27:37.0000000+00:00</time></trkpt><trkpt lat="44.537399" lon="34.273525"><ele>44.7</ele><time>2011-10-13T07:27:42.0000000+00:00</time></trkpt><trkpt lat="44.537399" lon="34.273525"><ele>44.7</ele><time>2011-10-13T07:27:47.0000000+00:00</time></trkpt><trkpt lat="44.537399" lon="34.273525"><ele>44.7</ele><time>2011-10-13T07:27:52.0000000+00:00</time></trkpt><trkpt lat="44.537399" lon="34.273525"><ele>44.7</ele><time>2011-10-13T07:27:57.0000000+00:00</time></trkpt><trkpt lat="44.537399" lon="34.273525"><ele>44.7</ele><time>2011-10-13T07:28:02.0000000+00:00</time></trkpt><trkpt lat="44.537399" lon="34.273525"><ele>44.7</ele><time>2011-10-13T07:28:07.0000000+00:00</time></trkpt><trkpt lat="44.537399" lon="34.273525"><ele>44.7</ele><time>2011-10-13T07:28:12.0000000+00:00</time></trkpt><trkpt lat="44.537399" lon="34.273525"><ele>44.7</ele><time>2011-10-13T07:28:17.0000000+00:00</time></trkpt><trkpt lat="44.537437" lon="34.273552"><ele>45.0</ele><time>2011-10-13T07:28:22.0000000+00:00</time></trkpt><trkpt lat="44.537495" lon="34.273548"><ele>43.5</ele><time>2011-10-13T07:28:27.0000000+00:00</time></trkpt><trkpt lat="44.537579" lon="34.273575"><ele>44.8</ele><time>2011-10-13T07:28:32.0000000+00:00</time></trkpt><trkpt lat="44.537678" lon="34.273548"><ele>44.4</ele><time>2011-10-13T07:28:37.0000000+00:00</time></trkpt><trkpt lat="44.537766" lon="34.273518"><ele>45.5</ele><time>2011-10-13T07:28:42.0000000+00:00</time></trkpt><trkpt lat="44.537861" lon="34.273499"><ele>48.1</ele><time>2011-10-13T07:28:47.0000000+00:00</time></trkpt><trkpt lat="44.537945" lon="34.273495"><ele>52.0</ele><time>2011-10-13T07:28:52.0000000+00:00</time></trkpt><trkpt lat="44.538036" lon="34.273533"><ele>52.7</ele><time>2011-10-13T07:28:57.0000000+00:00</time></trkpt><trkpt lat="44.538113" lon="34.273445"><ele>44.7</ele><time>2011-10-13T07:29:02.0000000+00:00</time></trkpt><trkpt lat="44.538143" lon="34.273422"><ele>45.2</ele><time>2011-10-13T07:29:07.0000000+00:00</time></trkpt><trkpt lat="44.538151" lon="34.273407"><ele>42.7</ele><time>2011-10-13T07:29:12.0000000+00:00</time></trkpt><trkpt lat="44.538151" lon="34.273407"><ele>42.6</ele><time>2011-10-13T07:29:17.0000000+00:00</time></trkpt><trkpt lat="44.538151" lon="34.273407"><ele>42.7</ele><time>2011-10-13T07:29:22.0000000+00:00</time></trkpt><trkpt lat="44.538151" lon="34.273407"><ele>42.6</ele><time>2011-10-13T07:29:27.0000000+00:00</time></trkpt><trkpt lat="44.538151" lon="34.273407"><ele>42.6</ele><time>2011-10-13T07:29:32.0000000+00:00</time></trkpt><trkpt lat="44.538151" lon="34.273411"><ele>42.6</ele><time>2011-10-13T07:29:37.0000000+00:00</time></trkpt><trkpt lat="44.538151" lon="34.273411"><ele>42.6</ele><time>2011-10-13T07:29:42.0000000+00:00</time></trkpt><trkpt lat="44.538162" lon="34.273426"><ele>42.7</ele><time>2011-10-13T07:29:47.0000000+00:00</time></trkpt><trkpt lat="44.538166" lon="34.273438"><ele>41.8</ele><time>2011-10-13T07:29:52.0000000+00:00</time></trkpt><trkpt lat="44.538166" lon="34.273438"><ele>41.7</ele><time>2011-10-13T07:29:57.0000000+00:00</time></trkpt><trkpt lat="44.538166" lon="34.273438"><ele>41.7</ele><time>2011-10-13T07:30:02.0000000+00:00</time></trkpt><trkpt lat="44.538166" lon="34.273438"><ele>41.6</ele><time>2011-10-13T07:30:07.0000000+00:00</time></trkpt><trkpt lat="44.538166" lon="34.273438"><ele>41.6</ele><time>2011-10-13T07:30:12.0000000+00:00</time></trkpt><trkpt lat="44.538185" lon="34.273434"><ele>41.4</ele><time>2011-10-13T07:30:17.0000000+00:00</time></trkpt><trkpt lat="44.538315" lon="34.273418"><ele>42.5</ele><time>2011-10-13T07:30:22.0000000+00:00</time></trkpt><trkpt lat="44.538441" lon="34.273365"><ele>44.6</ele><time>2011-10-13T07:30:27.0000000+00:00</time></trkpt><trkpt lat="44.538544" lon="34.2733"><ele>48.3</ele><time>2011-10-13T07:30:32.0000000+00:00</time></trkpt><trkpt lat="44.538654" lon="34.273254"><ele>51.8</ele><time>2011-10-13T07:30:37.0000000+00:00</time></trkpt><trkpt lat="44.53875" lon="34.273178"><ele>56.3</ele><time>2011-10-13T07:30:42.0000000+00:00</time></trkpt><trkpt lat="44.538883" lon="34.273083"><ele>59.7</ele><time>2011-10-13T07:30:47.0000000+00:00</time></trkpt><trkpt lat="44.539032" lon="34.272968"><ele>58.8</ele><time>2011-10-13T07:30:52.0000000+00:00</time></trkpt><trkpt lat="44.539104" lon="34.272835"><ele>60.3</ele><time>2011-10-13T07:30:57.0000000+00:00</time></trkpt><trkpt lat="44.539158" lon="34.272713"><ele>62.9</ele><time>2011-10-13T07:31:02.0000000+00:00</time></trkpt><trkpt lat="44.539211" lon="34.27256"><ele>65.2</ele><time>2011-10-13T07:31:07.0000000+00:00</time></trkpt><trkpt lat="44.539295" lon="34.272427"><ele>66.7</ele><time>2011-10-13T07:31:12.0000000+00:00</time></trkpt><trkpt lat="44.539375" lon="34.272362"><ele>67.0</ele><time>2011-10-13T07:31:17.0000000+00:00</time></trkpt><trkpt lat="44.539413" lon="34.272327"><ele>66.5</ele><time>2011-10-13T07:31:22.0000000+00:00</time></trkpt><trkpt lat="44.539429" lon="34.272324"><ele>67.8</ele><time>2011-10-13T07:31:27.0000000+00:00</time></trkpt><trkpt lat="44.539444" lon="34.272324"><ele>68.3</ele><time>2011-10-13T07:31:32.0000000+00:00</time></trkpt><trkpt lat="44.539459" lon="34.272308"><ele>68.8</ele><time>2011-10-13T07:31:37.0000000+00:00</time></trkpt><trkpt lat="44.539474" lon="34.272282"><ele>69.2</ele><time>2011-10-13T07:31:42.0000000+00:00</time></trkpt><trkpt lat="44.539486" lon="34.272312"><ele>68.1</ele><time>2011-10-13T07:31:47.0000000+00:00</time></trkpt><trkpt lat="44.539524" lon="34.27232"><ele>65.8</ele><time>2011-10-13T07:31:52.0000000+00:00</time></trkpt><trkpt lat="44.539528" lon="34.272289"><ele>64.1</ele><time>2011-10-13T07:31:57.0000000+00:00</time></trkpt><trkpt lat="44.539536" lon="34.272282"><ele>63.6</ele><time>2011-10-13T07:32:02.0000000+00:00</time></trkpt><trkpt lat="44.539562" lon="34.27224"><ele>61.9</ele><time>2011-10-13T07:32:07.0000000+00:00</time></trkpt><trkpt lat="44.539608" lon="34.272243"><ele>61.5</ele><time>2011-10-13T07:32:12.0000000+00:00</time></trkpt><trkpt lat="44.53968" lon="34.272266"><ele>62.8</ele><time>2011-10-13T07:32:17.0000000+00:00</time></trkpt><trkpt lat="44.539734" lon="34.272282"><ele>64.0</ele><time>2011-10-13T07:32:22.0000000+00:00</time></trkpt><trkpt lat="44.539822" lon="34.272377"><ele>64.8</ele><time>2011-10-13T07:32:27.0000000+00:00</time></trkpt><trkpt lat="44.539955" lon="34.272457"><ele>67.1</ele><time>2011-10-13T07:32:32.0000000+00:00</time></trkpt><trkpt lat="44.540054" lon="34.272491"><ele>69.7</ele><time>2011-10-13T07:32:37.0000000+00:00</time></trkpt><trkpt lat="44.54015" lon="34.272514"><ele>72.7</ele><time>2011-10-13T07:32:42.0000000+00:00</time></trkpt><trkpt lat="44.540241" lon="34.272472"><ele>75.5</ele><time>2011-10-13T07:32:47.0000000+00:00</time></trkpt><trkpt lat="44.540333" lon="34.272434"><ele>78.1</ele><time>2011-10-13T07:32:52.0000000+00:00</time></trkpt><trkpt lat="44.540432" lon="34.272392"><ele>80.4</ele><time>2011-10-13T07:32:57.0000000+00:00</time></trkpt><trkpt lat="44.540539" lon="34.27232"><ele>81.8</ele><time>2011-10-13T07:33:02.0000000+00:00</time></trkpt><trkpt lat="44.540634" lon="34.272259"><ele>81.3</ele><time>2011-10-13T07:33:07.0000000+00:00</time></trkpt><trkpt lat="44.540733" lon="34.272148"><ele>78.1</ele><time>2011-10-13T07:33:12.0000000+00:00</time></trkpt><trkpt lat="44.54084" lon="34.272049"><ele>75.7</ele><time>2011-10-13T07:33:17.0000000+00:00</time></trkpt><trkpt lat="44.540894" lon="34.271946"><ele>75.0</ele><time>2011-10-13T07:33:22.0000000+00:00</time></trkpt><trkpt lat="44.540878" lon="34.271824"><ele>75.0</ele><time>2011-10-13T07:33:27.0000000+00:00</time></trkpt><trkpt lat="44.540833" lon="34.271706"><ele>75.0</ele><time>2011-10-13T07:33:32.0000000+00:00</time></trkpt><trkpt lat="44.540794" lon="34.271622"><ele>76.3</ele><time>2011-10-13T07:33:37.0000000+00:00</time></trkpt><trkpt lat="44.54073" lon="34.271534"><ele>76.7</ele><time>2011-10-13T07:33:42.0000000+00:00</time></trkpt><trkpt lat="44.540646" lon="34.271461"><ele>77.7</ele><time>2011-10-13T07:33:47.0000000+00:00</time></trkpt><trkpt lat="44.540577" lon="34.271393"><ele>77.9</ele><time>2011-10-13T07:33:52.0000000+00:00</time></trkpt><trkpt lat="44.540485" lon="34.271328"><ele>78.7</ele><time>2011-10-13T07:33:57.0000000+00:00</time></trkpt><trkpt lat="44.540382" lon="34.271278"><ele>79.7</ele><time>2011-10-13T07:34:02.0000000+00:00</time></trkpt><trkpt lat="44.540314" lon="34.271172"><ele>81.6</ele><time>2011-10-13T07:34:07.0000000+00:00</time></trkpt><trkpt lat="44.540222" lon="34.271061"><ele>81.7</ele><time>2011-10-13T07:34:12.0000000+00:00</time></trkpt><trkpt lat="44.540146" lon="34.270966"><ele>82.1</ele><time>2011-10-13T07:34:17.0000000+00:00</time></trkpt><trkpt lat="44.54007" lon="34.270874"><ele>83.0</ele><time>2011-10-13T07:34:22.0000000+00:00</time></trkpt><trkpt lat="44.539997" lon="34.270798"><ele>84.4</ele><time>2011-10-13T07:34:27.0000000+00:00</time></trkpt><trkpt lat="44.539902" lon="34.270615"><ele>82.3</ele><time>2011-10-13T07:34:32.0000000+00:00</time></trkpt><trkpt lat="44.53981" lon="34.270523"><ele>80.0</ele><time>2011-10-13T07:34:37.0000000+00:00</time></trkpt><trkpt lat="44.539692" lon="34.270473"><ele>76.1</ele><time>2011-10-13T07:34:42.0000000+00:00</time></trkpt><trkpt lat="44.539581" lon="34.270485"><ele>75.1</ele><time>2011-10-13T07:34:47.0000000+00:00</time></trkpt><trkpt lat="44.539513" lon="34.270523"><ele>74.6</ele><time>2011-10-13T07:34:52.0000000+00:00</time></trkpt><trkpt lat="44.539455" lon="34.270546"><ele>74.7</ele><time>2011-10-13T07:34:57.0000000+00:00</time></trkpt><trkpt lat="44.539463" lon="34.270535"><ele>75.7</ele><time>2011-10-13T07:35:02.0000000+00:00</time></trkpt><trkpt lat="44.539459" lon="34.270531"><ele>75.6</ele><time>2011-10-13T07:35:07.0000000+00:00</time></trkpt><trkpt lat="44.539433" lon="34.270546"><ele>76.0</ele><time>2011-10-13T07:35:12.0000000+00:00</time></trkpt><trkpt lat="44.539429" lon="34.27058"><ele>76.2</ele><time>2011-10-13T07:35:17.0000000+00:00</time></trkpt><trkpt lat="44.539429" lon="34.270588"><ele>76.3</ele><time>2011-10-13T07:35:22.0000000+00:00</time></trkpt><trkpt lat="44.539429" lon="34.270596"><ele>76.3</ele><time>2011-10-13T07:35:27.0000000+00:00</time></trkpt><trkpt lat="44.539433" lon="34.270607"><ele>76.3</ele><time>2011-10-13T07:35:32.0000000+00:00</time></trkpt><trkpt lat="44.539433" lon="34.270618"><ele>76.2</ele><time>2011-10-13T07:35:37.0000000+00:00</time></trkpt><trkpt lat="44.539429" lon="34.270622"><ele>76.2</ele><time>2011-10-13T07:35:42.0000000+00:00</time></trkpt><trkpt lat="44.539425" lon="34.270634"><ele>76.2</ele><time>2011-10-13T07:35:47.0000000+00:00</time></trkpt><trkpt lat="44.539429" lon="34.270645"><ele>76.3</ele><time>2011-10-13T07:35:52.0000000+00:00</time></trkpt><trkpt lat="44.539402" lon="34.270626"><ele>77.1</ele><time>2011-10-13T07:35:57.0000000+00:00</time></trkpt><trkpt lat="44.539394" lon="34.270618"><ele>77.1</ele><time>2011-10-13T07:36:02.0000000+00:00</time></trkpt><trkpt lat="44.539394" lon="34.270622"><ele>77.2</ele><time>2011-10-13T07:36:07.0000000+00:00</time></trkpt><trkpt lat="44.539394" lon="34.270622"><ele>77.3</ele><time>2011-10-13T07:36:12.0000000+00:00</time></trkpt><trkpt lat="44.539368" lon="34.270702"><ele>79.9</ele><time>2011-10-13T07:36:17.0000000+00:00</time></trkpt><trkpt lat="44.539253" lon="34.270752"><ele>79.6</ele><time>2011-10-13T07:36:22.0000000+00:00</time></trkpt><trkpt lat="44.539143" lon="34.270798"><ele>79.8</ele><time>2011-10-13T07:36:27.0000000+00:00</time></trkpt><trkpt lat="44.539028" lon="34.270809"><ele>80.8</ele><time>2011-10-13T07:36:32.0000000+00:00</time></trkpt><trkpt lat="44.538887" lon="34.270741"><ele>81.5</ele><time>2011-10-13T07:36:37.0000000+00:00</time></trkpt><trkpt lat="44.538761" lon="34.270668"><ele>82.2</ele><time>2011-10-13T07:36:42.0000000+00:00</time></trkpt><trkpt lat="44.538723" lon="34.270546"><ele>82.7</ele><time>2011-10-13T07:36:47.0000000+00:00</time></trkpt><trkpt lat="44.538685" lon="34.270424"><ele>84.0</ele><time>2011-10-13T07:36:52.0000000+00:00</time></trkpt><trkpt lat="44.538658" lon="34.270317"><ele>85.5</ele><time>2011-10-13T07:36:57.0000000+00:00</time></trkpt><trkpt lat="44.538647" lon="34.270226"><ele>86.3</ele><time>2011-10-13T07:37:02.0000000+00:00</time></trkpt><trkpt lat="44.538666" lon="34.27013"><ele>88.5</ele><time>2011-10-13T07:37:07.0000000+00:00</time></trkpt><trkpt lat="44.53867" lon="34.270035"><ele>90.8</ele><time>2011-10-13T07:37:12.0000000+00:00</time></trkpt><trkpt lat="44.53867" lon="34.269905"><ele>94.2</ele><time>2011-10-13T07:37:17.0000000+00:00</time></trkpt><trkpt lat="44.538719" lon="34.269821"><ele>98.6</ele><time>2011-10-13T07:37:22.0000000+00:00</time></trkpt><trkpt lat="44.53878" lon="34.269684"><ele>101.7</ele><time>2011-10-13T07:37:27.0000000+00:00</time></trkpt><trkpt lat="44.53886" lon="34.2696"><ele>105.2</ele><time>2011-10-13T07:37:32.0000000+00:00</time></trkpt><trkpt lat="44.538952" lon="34.269512"><ele>109.3</ele><time>2011-10-13T07:37:37.0000000+00:00</time></trkpt><trkpt lat="44.539032" lon="34.269459"><ele>112.5</ele><time>2011-10-13T07:37:42.0000000+00:00</time></trkpt><trkpt lat="44.53915" lon="34.269398"><ele>114.5</ele><time>2011-10-13T07:37:47.0000000+00:00</time></trkpt><trkpt lat="44.539246" lon="34.269363"><ele>116.6</ele><time>2011-10-13T07:37:52.0000000+00:00</time></trkpt><trkpt lat="44.539371" lon="34.269314"><ele>116.2</ele><time>2011-10-13T07:37:57.0000000+00:00</time></trkpt><trkpt lat="44.539497" lon="34.269272"><ele>116.2</ele><time>2011-10-13T07:38:02.0000000+00:00</time></trkpt><trkpt lat="44.53957" lon="34.269173"><ele>115.0</ele><time>2011-10-13T07:38:07.0000000+00:00</time></trkpt><trkpt lat="44.539524" lon="34.269077"><ele>116.7</ele><time>2011-10-13T07:38:12.0000000+00:00</time></trkpt><trkpt lat="44.539471" lon="34.269028"><ele>115.9</ele><time>2011-10-13T07:38:17.0000000+00:00</time></trkpt><trkpt lat="44.539383" lon="34.268997"><ele>117.0</ele><time>2011-10-13T07:38:22.0000000+00:00</time></trkpt><trkpt lat="44.539291" lon="34.269005"><ele>116.8</ele><time>2011-10-13T07:38:27.0000000+00:00</time></trkpt><trkpt lat="44.539154" lon="34.269016"><ele>117.3</ele><time>2011-10-13T07:38:32.0000000+00:00</time></trkpt><trkpt lat="44.539036" lon="34.269012"><ele>118.2</ele><time>2011-10-13T07:38:37.0000000+00:00</time></trkpt><trkpt lat="44.538914" lon="34.269009"><ele>118.6</ele><time>2011-10-13T07:38:42.0000000+00:00</time></trkpt><trkpt lat="44.538795" lon="34.269016"><ele>119.3</ele><time>2011-10-13T07:38:47.0000000+00:00</time></trkpt><trkpt lat="44.538658" lon="34.269012"><ele>120.0</ele><time>2011-10-13T07:38:52.0000000+00:00</time></trkpt><trkpt lat="44.538528" lon="34.268963"><ele>119.8</ele><time>2011-10-13T07:38:57.0000000+00:00</time></trkpt><trkpt lat="44.538383" lon="34.268909"><ele>119.9</ele><time>2011-10-13T07:39:02.0000000+00:00</time></trkpt><trkpt lat="44.538246" lon="34.268852"><ele>119.8</ele><time>2011-10-13T07:39:07.0000000+00:00</time></trkpt><trkpt lat="44.53812" lon="34.268776"><ele>119.3</ele><time>2011-10-13T07:39:12.0000000+00:00</time></trkpt><trkpt lat="44.537991" lon="34.2687"><ele>119.6</ele><time>2011-10-13T07:39:17.0000000+00:00</time></trkpt><trkpt lat="44.53788" lon="34.268608"><ele>120.2</ele><time>2011-10-13T07:39:22.0000000+00:00</time></trkpt><trkpt lat="44.537792" lon="34.268513"><ele>121.8</ele><time>2011-10-13T07:39:27.0000000+00:00</time></trkpt><trkpt lat="44.537716" lon="34.268417"><ele>122.7</ele><time>2011-10-13T07:39:32.0000000+00:00</time></trkpt><trkpt lat="44.537647" lon="34.268314"><ele>123.0</ele><time>2011-10-13T07:39:37.0000000+00:00</time></trkpt><trkpt lat="44.537571" lon="34.268223"><ele>122.4</ele><time>2011-10-13T07:39:42.0000000+00:00</time></trkpt><trkpt lat="44.537491" lon="34.268135"><ele>122.1</ele><time>2011-10-13T07:39:47.0000000+00:00</time></trkpt><trkpt lat="44.537411" lon="34.268044"><ele>122.8</ele><time>2011-10-13T07:39:52.0000000+00:00</time></trkpt><trkpt lat="44.537357" lon="34.267948"><ele>124.7</ele><time>2011-10-13T07:39:57.0000000+00:00</time></trkpt><trkpt lat="44.537308" lon="34.267857"><ele>128.6</ele><time>2011-10-13T07:40:02.0000000+00:00</time></trkpt><trkpt lat="44.537247" lon="34.267773"><ele>130.6</ele><time>2011-10-13T07:40:07.0000000+00:00</time></trkpt><trkpt lat="44.537201" lon="34.267685"><ele>133.9</ele><time>2011-10-13T07:40:12.0000000+00:00</time></trkpt><trkpt lat="44.537178" lon="34.26757"><ele>134.6</ele><time>2011-10-13T07:40:17.0000000+00:00</time></trkpt><trkpt lat="44.537186" lon="34.267445"><ele>135.0</ele><time>2011-10-13T07:40:22.0000000+00:00</time></trkpt><trkpt lat="44.537228" lon="34.267323"><ele>136.4</ele><time>2011-10-13T07:40:27.0000000+00:00</time></trkpt><trkpt lat="44.537285" lon="34.267231"><ele>139.3</ele><time>2011-10-13T07:40:32.0000000+00:00</time></trkpt><trkpt lat="44.537384" lon="34.26717"><ele>142.7</ele><time>2011-10-13T07:40:37.0000000+00:00</time></trkpt><trkpt lat="44.537483" lon="34.267155"><ele>146.6</ele><time>2011-10-13T07:40:42.0000000+00:00</time></trkpt><trkpt lat="44.537567" lon="34.267159"><ele>150.6</ele><time>2011-10-13T07:40:47.0000000+00:00</time></trkpt><trkpt lat="44.537655" lon="34.267185"><ele>154.8</ele><time>2011-10-13T07:40:52.0000000+00:00</time></trkpt><trkpt lat="44.537746" lon="34.2672"><ele>156.4</ele><time>2011-10-13T07:40:57.0000000+00:00</time></trkpt><trkpt lat="44.537849" lon="34.267208"><ele>157.7</ele><time>2011-10-13T07:41:02.0000000+00:00</time></trkpt><trkpt lat="44.537945" lon="34.267208"><ele>157.6</ele><time>2011-10-13T07:41:07.0000000+00:00</time></trkpt><trkpt lat="44.538029" lon="34.267178"><ele>156.2</ele><time>2011-10-13T07:41:12.0000000+00:00</time></trkpt><trkpt lat="44.53809" lon="34.267181"><ele>156.9</ele><time>2011-10-13T07:41:17.0000000+00:00</time></trkpt><trkpt lat="44.538181" lon="34.267166"><ele>156.8</ele><time>2011-10-13T07:41:22.0000000+00:00</time></trkpt><trkpt lat="44.538273" lon="34.267189"><ele>160.3</ele><time>2011-10-13T07:41:27.0000000+00:00</time></trkpt><trkpt lat="44.538345" lon="34.267139"><ele>159.9</ele><time>2011-10-13T07:41:32.0000000+00:00</time></trkpt><trkpt lat="44.538425" lon="34.267128"><ele>160.2</ele><time>2011-10-13T07:41:37.0000000+00:00</time></trkpt><trkpt lat="44.538525" lon="34.267117"><ele>160.5</ele><time>2011-10-13T07:41:42.0000000+00:00</time></trkpt><trkpt lat="44.538612" lon="34.267113"><ele>161.4</ele><time>2011-10-13T07:41:47.0000000+00:00</time></trkpt><trkpt lat="44.538685" lon="34.267097"><ele>162.8</ele><time>2011-10-13T07:41:52.0000000+00:00</time></trkpt><trkpt lat="44.53878" lon="34.267105"><ele>162.4</ele><time>2011-10-13T07:41:57.0000000+00:00</time></trkpt><trkpt lat="44.538872" lon="34.26709"><ele>161.8</ele><time>2011-10-13T07:42:02.0000000+00:00</time></trkpt><trkpt lat="44.538952" lon="34.267063"><ele>162.3</ele><time>2011-10-13T07:42:07.0000000+00:00</time></trkpt><trkpt lat="44.539024" lon="34.267025"><ele>163.6</ele><time>2011-10-13T07:42:12.0000000+00:00</time></trkpt><trkpt lat="44.53912" lon="34.267036"><ele>164.7</ele><time>2011-10-13T07:42:17.0000000+00:00</time></trkpt><trkpt lat="44.539223" lon="34.267059"><ele>164.2</ele><time>2011-10-13T07:42:22.0000000+00:00</time></trkpt><trkpt lat="44.539288" lon="34.267067"><ele>163.2</ele><time>2011-10-13T07:42:27.0000000+00:00</time></trkpt><trkpt lat="44.539371" lon="34.267044"><ele>163.7</ele><time>2011-10-13T07:42:32.0000000+00:00</time></trkpt><trkpt lat="44.539452" lon="34.266994"><ele>161.4</ele><time>2011-10-13T07:42:37.0000000+00:00</time></trkpt><trkpt lat="44.53949" lon="34.266945"><ele>160.4</ele><time>2011-10-13T07:42:42.0000000+00:00</time></trkpt><trkpt lat="44.539509" lon="34.266876"><ele>161.4</ele><time>2011-10-13T07:42:47.0000000+00:00</time></trkpt><trkpt lat="44.539513" lon="34.266796"><ele>163.5</ele><time>2011-10-13T07:42:52.0000000+00:00</time></trkpt><trkpt lat="44.53949" lon="34.266693"><ele>165.4</ele><time>2011-10-13T07:42:57.0000000+00:00</time></trkpt><trkpt lat="44.539505" lon="34.266598"><ele>167.7</ele><time>2011-10-13T07:43:02.0000000+00:00</time></trkpt><trkpt lat="44.53952" lon="34.266514"><ele>168.6</ele><time>2011-10-13T07:43:07.0000000+00:00</time></trkpt><trkpt lat="44.539555" lon="34.266415"><ele>170.6</ele><time>2011-10-13T07:43:12.0000000+00:00</time></trkpt><trkpt lat="44.539627" lon="34.266338"><ele>172.1</ele><time>2011-10-13T07:43:17.0000000+00:00</time></trkpt><trkpt lat="44.539696" lon="34.2663"><ele>174.2</ele><time>2011-10-13T07:43:22.0000000+00:00</time></trkpt><trkpt lat="44.539757" lon="34.266247"><ele>176.4</ele><time>2011-10-13T07:43:27.0000000+00:00</time></trkpt><trkpt lat="44.539818" lon="34.26622"><ele>177.3</ele><time>2011-10-13T07:43:32.0000000+00:00</time></trkpt><trkpt lat="44.539906" lon="34.266201"><ele>178.2</ele><time>2011-10-13T07:43:37.0000000+00:00</time></trkpt><trkpt lat="44.53997" lon="34.266159"><ele>181.0</ele><time>2011-10-13T07:43:42.0000000+00:00</time></trkpt><trkpt lat="44.540054" lon="34.266129"><ele>183.0</ele><time>2011-10-13T07:43:47.0000000+00:00</time></trkpt><trkpt lat="44.540127" lon="34.266048"><ele>182.4</ele><time>2011-10-13T07:43:52.0000000+00:00</time></trkpt><trkpt lat="44.540207" lon="34.266014"><ele>182.6</ele><time>2011-10-13T07:43:57.0000000+00:00</time></trkpt><trkpt lat="44.540298" lon="34.266014"><ele>183.4</ele><time>2011-10-13T07:44:02.0000000+00:00</time></trkpt><trkpt lat="44.540386" lon="34.266033"><ele>182.6</ele><time>2011-10-13T07:44:07.0000000+00:00</time></trkpt><trkpt lat="44.540462" lon="34.266018"><ele>182.2</ele><time>2011-10-13T07:44:12.0000000+00:00</time></trkpt><trkpt lat="44.540539" lon="34.265999"><ele>182.5</ele><time>2011-10-13T07:44:17.0000000+00:00</time></trkpt><trkpt lat="44.540627" lon="34.266037"><ele>181.7</ele><time>2011-10-13T07:44:22.0000000+00:00</time></trkpt><trkpt lat="44.540714" lon="34.266109"><ele>179.7</ele><time>2011-10-13T07:44:27.0000000+00:00</time></trkpt><trkpt lat="44.540794" lon="34.266197"><ele>178.8</ele><time>2011-10-13T07:44:32.0000000+00:00</time></trkpt><trkpt lat="44.540867" lon="34.266277"><ele>179.8</ele><time>2011-10-13T07:44:37.0000000+00:00</time></trkpt><trkpt lat="44.540955" lon="34.266361"><ele>179.4</ele><time>2011-10-13T07:44:42.0000000+00:00</time></trkpt><trkpt lat="44.541031" lon="34.266438"><ele>178.8</ele><time>2011-10-13T07:44:47.0000000+00:00</time></trkpt><trkpt lat="44.541115" lon="34.26643"><ele>178.7</ele><time>2011-10-13T07:44:52.0000000+00:00</time></trkpt><trkpt lat="44.541119" lon="34.266438"><ele>178.8</ele><time>2011-10-13T07:44:57.0000000+00:00</time></trkpt><trkpt lat="44.541119" lon="34.266438"><ele>178.9</ele><time>2011-10-13T07:45:02.0000000+00:00</time></trkpt><trkpt lat="44.541119" lon="34.266438"><ele>178.9</ele><time>2011-10-13T07:45:07.0000000+00:00</time></trkpt><trkpt lat="44.541119" lon="34.266438"><ele>178.9</ele><time>2011-10-13T07:45:12.0000000+00:00</time></trkpt><trkpt lat="44.541119" lon="34.266438"><ele>178.9</ele><time>2011-10-13T07:45:17.0000000+00:00</time></trkpt><trkpt lat="44.541119" lon="34.266438"><ele>178.9</ele><time>2011-10-13T07:45:22.0000000+00:00</time></trkpt><trkpt lat="44.541119" lon="34.266438"><ele>178.8</ele><time>2011-10-13T07:45:27.0000000+00:00</time></trkpt><trkpt lat="44.541119" lon="34.266438"><ele>178.8</ele><time>2011-10-13T07:45:32.0000000+00:00</time></trkpt><trkpt lat="44.541119" lon="34.266438"><ele>178.8</ele><time>2011-10-13T07:45:37.0000000+00:00</time></trkpt><trkpt lat="44.541119" lon="34.266438"><ele>178.7</ele><time>2011-10-13T07:45:42.0000000+00:00</time></trkpt><trkpt lat="44.541122" lon="34.266438"><ele>178.7</ele><time>2011-10-13T07:45:47.0000000+00:00</time></trkpt><trkpt lat="44.541122" lon="34.266438"><ele>178.7</ele><time>2011-10-13T07:45:52.0000000+00:00</time></trkpt><trkpt lat="44.541122" lon="34.266438"><ele>178.6</ele><time>2011-10-13T07:45:57.0000000+00:00</time></trkpt><trkpt lat="44.541122" lon="34.266441"><ele>178.6</ele><time>2011-10-13T07:46:02.0000000+00:00</time></trkpt><trkpt lat="44.541122" lon="34.266441"><ele>178.5</ele><time>2011-10-13T07:46:07.0000000+00:00</time></trkpt><trkpt lat="44.541122" lon="34.266441"><ele>178.5</ele><time>2011-10-13T07:46:12.0000000+00:00</time></trkpt><trkpt lat="44.541122" lon="34.266441"><ele>178.5</ele><time>2011-10-13T07:46:17.0000000+00:00</time></trkpt><trkpt lat="44.541122" lon="34.266441"><ele>178.5</ele><time>2011-10-13T07:46:22.0000000+00:00</time></trkpt><trkpt lat="44.541122" lon="34.266441"><ele>178.4</ele><time>2011-10-13T07:46:27.0000000+00:00</time></trkpt><trkpt lat="44.541122" lon="34.266441"><ele>178.4</ele><time>2011-10-13T07:46:32.0000000+00:00</time></trkpt><trkpt lat="44.541122" lon="34.266441"><ele>178.4</ele><time>2011-10-13T07:46:37.0000000+00:00</time></trkpt><trkpt lat="44.541126" lon="34.266441"><ele>178.3</ele><time>2011-10-13T07:46:42.0000000+00:00</time></trkpt><trkpt lat="44.541126" lon="34.266441"><ele>178.3</ele><time>2011-10-13T07:46:47.0000000+00:00</time></trkpt><trkpt lat="44.541126" lon="34.266441"><ele>178.3</ele><time>2011-10-13T07:46:52.0000000+00:00</time></trkpt><trkpt lat="44.541126" lon="34.266441"><ele>178.3</ele><time>2011-10-13T07:46:57.0000000+00:00</time></trkpt><trkpt lat="44.541126" lon="34.266441"><ele>178.2</ele><time>2011-10-13T07:47:02.0000000+00:00</time></trkpt><trkpt lat="44.541126" lon="34.266441"><ele>178.2</ele><time>2011-10-13T07:47:07.0000000+00:00</time></trkpt><trkpt lat="44.541126" lon="34.266441"><ele>178.2</ele><time>2011-10-13T07:47:12.0000000+00:00</time></trkpt><trkpt lat="44.541126" lon="34.266441"><ele>178.2</ele><time>2011-10-13T07:47:17.0000000+00:00</time></trkpt><trkpt lat="44.541126" lon="34.266441"><ele>178.2</ele><time>2011-10-13T07:47:22.0000000+00:00</time></trkpt><trkpt lat="44.541126" lon="34.266441"><ele>178.2</ele><time>2011-10-13T07:47:27.0000000+00:00</time></trkpt><trkpt lat="44.541126" lon="34.266441"><ele>178.2</ele><time>2011-10-13T07:47:32.0000000+00:00</time></trkpt><trkpt lat="44.541126" lon="34.266441"><ele>178.1</ele><time>2011-10-13T07:47:37.0000000+00:00</time></trkpt><trkpt lat="44.541134" lon="34.266438"><ele>178.1</ele><time>2011-10-13T07:47:42.0000000+00:00</time></trkpt><trkpt lat="44.54121" lon="34.266407"><ele>178.2</ele><time>2011-10-13T07:47:47.0000000+00:00</time></trkpt><trkpt lat="44.541355" lon="34.266365"><ele>178.2</ele><time>2011-10-13T07:47:52.0000000+00:00</time></trkpt><trkpt lat="44.541542" lon="34.266373"><ele>177.8</ele><time>2011-10-13T07:47:57.0000000+00:00</time></trkpt><trkpt lat="44.541771" lon="34.266399"><ele>176.7</ele><time>2011-10-13T07:48:02.0000000+00:00</time></trkpt><trkpt lat="44.542011" lon="34.266422"><ele>176.1</ele><time>2011-10-13T07:48:07.0000000+00:00</time></trkpt><trkpt lat="44.54221" lon="34.266422"><ele>178.6</ele><time>2011-10-13T07:48:12.0000000+00:00</time></trkpt><trkpt lat="44.542419" lon="34.266426"><ele>179.0</ele><time>2011-10-13T07:48:17.0000000+00:00</time></trkpt><trkpt lat="44.542652" lon="34.26638"><ele>180.4</ele><time>2011-10-13T07:48:22.0000000+00:00</time></trkpt><trkpt lat="44.542889" lon="34.266285"><ele>177.1</ele><time>2011-10-13T07:48:27.0000000+00:00</time></trkpt><trkpt lat="44.543079" lon="34.266117"><ele>174.6</ele><time>2011-10-13T07:48:32.0000000+00:00</time></trkpt><trkpt lat="44.543156" lon="34.266056"><ele>172.1</ele><time>2011-10-13T07:48:37.0000000+00:00</time></trkpt><trkpt lat="44.543201" lon="34.266003"><ele>170.0</ele><time>2011-10-13T07:48:42.0000000+00:00</time></trkpt><trkpt lat="44.543259" lon="34.265911"><ele>168.3</ele><time>2011-10-13T07:48:47.0000000+00:00</time></trkpt><trkpt lat="44.543407" lon="34.26569"><ele>169.9</ele><time>2011-10-13T07:48:52.0000000+00:00</time></trkpt><trkpt lat="44.54356" lon="34.265442"><ele>169.6</ele><time>2011-10-13T07:48:57.0000000+00:00</time></trkpt><trkpt lat="44.543701" lon="34.265202"><ele>169.3</ele><time>2011-10-13T07:49:02.0000000+00:00</time></trkpt><trkpt lat="44.543812" lon="34.265007"><ele>169.5</ele><time>2011-10-13T07:49:07.0000000+00:00</time></trkpt><trkpt lat="44.543907" lon="34.264874"><ele>168.2</ele><time>2011-10-13T07:49:12.0000000+00:00</time></trkpt><trkpt lat="44.544071" lon="34.264805"><ele>167.3</ele><time>2011-10-13T07:49:17.0000000+00:00</time></trkpt><trkpt lat="44.54427" lon="34.264732"><ele>168.2</ele><time>2011-10-13T07:49:22.0000000+00:00</time></trkpt><trkpt lat="44.544483" lon="34.264656"><ele>169.0</ele><time>2011-10-13T07:49:27.0000000+00:00</time></trkpt><trkpt lat="44.544693" lon="34.264568"><ele>171.0</ele><time>2011-10-13T07:49:32.0000000+00:00</time></trkpt><trkpt lat="44.544914" lon="34.264511"><ele>170.3</ele><time>2011-10-13T07:49:37.0000000+00:00</time></trkpt><trkpt lat="44.54517" lon="34.264442"><ele>170.2</ele><time>2011-10-13T07:49:42.0000000+00:00</time></trkpt><trkpt lat="44.545444" lon="34.264381"><ele>170.0</ele><time>2011-10-13T07:49:47.0000000+00:00</time></trkpt><trkpt lat="44.545696" lon="34.264355"><ele>169.9</ele><time>2011-10-13T07:49:52.0000000+00:00</time></trkpt><trkpt lat="44.545944" lon="34.264359"><ele>169.9</ele><time>2011-10-13T07:49:57.0000000+00:00</time></trkpt><trkpt lat="44.546238" lon="34.264442"><ele>169.7</ele><time>2011-10-13T07:50:02.0000000+00:00</time></trkpt><trkpt lat="44.546524" lon="34.264542"><ele>168.8</ele><time>2011-10-13T07:50:07.0000000+00:00</time></trkpt><trkpt lat="44.546829" lon="34.264652"><ele>167.8</ele><time>2011-10-13T07:50:12.0000000+00:00</time></trkpt><trkpt lat="44.547157" lon="34.264763"><ele>166.3</ele><time>2011-10-13T07:50:17.0000000+00:00</time></trkpt><trkpt lat="44.547516" lon="34.264889"><ele>165.1</ele><time>2011-10-13T07:50:22.0000000+00:00</time></trkpt><trkpt lat="44.547802" lon="34.265011"><ele>164.4</ele><time>2011-10-13T07:50:27.0000000+00:00</time></trkpt><trkpt lat="44.548065" lon="34.26511"><ele>163.5</ele><time>2011-10-13T07:50:32.0000000+00:00</time></trkpt><trkpt lat="44.548355" lon="34.265221"><ele>162.8</ele><time>2011-10-13T07:50:37.0000000+00:00</time></trkpt><trkpt lat="44.548672" lon="34.265324"><ele>162.3</ele><time>2011-10-13T07:50:42.0000000+00:00</time></trkpt><trkpt lat="44.548985" lon="34.265434"><ele>162.4</ele><time>2011-10-13T07:50:47.0000000+00:00</time></trkpt><trkpt lat="44.549263" lon="34.265579"><ele>162.7</ele><time>2011-10-13T07:50:52.0000000+00:00</time></trkpt><trkpt lat="44.549469" lon="34.265755"><ele>163.3</ele><time>2011-10-13T07:50:57.0000000+00:00</time></trkpt><trkpt lat="44.549641" lon="34.265968"><ele>163.4</ele><time>2011-10-13T07:51:02.0000000+00:00</time></trkpt><trkpt lat="44.549789" lon="34.266216"><ele>163.7</ele><time>2011-10-13T07:51:07.0000000+00:00</time></trkpt><trkpt lat="44.54987" lon="34.266415"><ele>164.2</ele><time>2011-10-13T07:51:12.0000000+00:00</time></trkpt><trkpt lat="44.549953" lon="34.266613"><ele>165.0</ele><time>2011-10-13T07:51:17.0000000+00:00</time></trkpt><trkpt lat="44.550022" lon="34.266781"><ele>165.8</ele><time>2011-10-13T07:51:22.0000000+00:00</time></trkpt><trkpt lat="44.550098" lon="34.266975"><ele>166.4</ele><time>2011-10-13T07:51:27.0000000+00:00</time></trkpt><trkpt lat="44.550163" lon="34.267155"><ele>166.9</ele><time>2011-10-13T07:51:32.0000000+00:00</time></trkpt><trkpt lat="44.550194" lon="34.267262"><ele>168.0</ele><time>2011-10-13T07:51:37.0000000+00:00</time></trkpt><trkpt lat="44.550213" lon="34.267345"><ele>168.2</ele><time>2011-10-13T07:51:42.0000000+00:00</time></trkpt><trkpt lat="44.55022" lon="34.267464"><ele>168.3</ele><time>2011-10-13T07:51:47.0000000+00:00</time></trkpt><trkpt lat="44.550266" lon="34.267593"><ele>168.4</ele><time>2011-10-13T07:51:52.0000000+00:00</time></trkpt><trkpt lat="44.550304" lon="34.267696"><ele>168.5</ele><time>2011-10-13T07:51:57.0000000+00:00</time></trkpt><trkpt lat="44.550343" lon="34.267773"><ele>168.2</ele><time>2011-10-13T07:52:02.0000000+00:00</time></trkpt><trkpt lat="44.550385" lon="34.267853"><ele>168.2</ele><time>2011-10-13T07:52:07.0000000+00:00</time></trkpt><trkpt lat="44.550404" lon="34.267902"><ele>167.7</ele><time>2011-10-13T07:52:12.0000000+00:00</time></trkpt><trkpt lat="44.550423" lon="34.26796"><ele>167.6</ele><time>2011-10-13T07:52:17.0000000+00:00</time></trkpt><trkpt lat="44.550449" lon="34.268005"><ele>168.4</ele><time>2011-10-13T07:52:22.0000000+00:00</time></trkpt><trkpt lat="44.550461" lon="34.268063"><ele>167.6</ele><time>2011-10-13T07:52:27.0000000+00:00</time></trkpt><trkpt lat="44.550415" lon="34.267963"><ele>167.1</ele><time>2011-10-13T07:52:32.0000000+00:00</time></trkpt><trkpt lat="44.550354" lon="34.267742"><ele>165.7</ele><time>2011-10-13T07:52:37.0000000+00:00</time></trkpt><trkpt lat="44.550312" lon="34.267624"><ele>161.0</ele><time>2011-10-13T07:52:42.0000000+00:00</time></trkpt><trkpt lat="44.55032" lon="34.267632"><ele>159.9</ele><time>2011-10-13T07:52:47.0000000+00:00</time></trkpt><trkpt lat="44.55032" lon="34.267635"><ele>159.6</ele><time>2011-10-13T07:52:52.0000000+00:00</time></trkpt><trkpt lat="44.55032" lon="34.267635"><ele>159.6</ele><time>2011-10-13T07:52:57.0000000+00:00</time></trkpt><trkpt lat="44.55032" lon="34.267635"><ele>159.6</ele><time>2011-10-13T07:53:02.0000000+00:00</time></trkpt><trkpt lat="44.55032" lon="34.267635"><ele>159.6</ele><time>2011-10-13T07:53:07.0000000+00:00</time></trkpt><trkpt lat="44.55032" lon="34.267632"><ele>159.6</ele><time>2011-10-13T07:53:12.0000000+00:00</time></trkpt><trkpt lat="44.55032" lon="34.267632"><ele>159.7</ele><time>2011-10-13T07:53:17.0000000+00:00</time></trkpt><trkpt lat="44.55032" lon="34.267632"><ele>159.7</ele><time>2011-10-13T07:53:22.0000000+00:00</time></trkpt><trkpt lat="44.55032" lon="34.267632"><ele>159.7</ele><time>2011-10-13T07:53:27.0000000+00:00</time></trkpt><trkpt lat="44.55032" lon="34.267632"><ele>159.7</ele><time>2011-10-13T07:53:32.0000000+00:00</time></trkpt><trkpt lat="44.55032" lon="34.267632"><ele>159.6</ele><time>2011-10-13T07:53:37.0000000+00:00</time></trkpt><trkpt lat="44.550316" lon="34.267632"><ele>159.7</ele><time>2011-10-13T07:53:42.0000000+00:00</time></trkpt><trkpt lat="44.55032" lon="34.267632"><ele>159.7</ele><time>2011-10-13T07:53:47.0000000+00:00</time></trkpt><trkpt lat="44.550331" lon="34.267693"><ele>159.6</ele><time>2011-10-13T07:53:52.0000000+00:00</time></trkpt><trkpt lat="44.550377" lon="34.267788"><ele>160.8</ele><time>2011-10-13T07:53:57.0000000+00:00</time></trkpt><trkpt lat="44.550404" lon="34.267853"><ele>161.1</ele><time>2011-10-13T07:54:02.0000000+00:00</time></trkpt><trkpt lat="44.550411" lon="34.267872"><ele>161.4</ele><time>2011-10-13T07:54:07.0000000+00:00</time></trkpt><trkpt lat="44.550411" lon="34.267872"><ele>161.3</ele><time>2011-10-13T07:54:12.0000000+00:00</time></trkpt><trkpt lat="44.550411" lon="34.267872"><ele>161.3</ele><time>2011-10-13T07:54:17.0000000+00:00</time></trkpt><trkpt lat="44.550411" lon="34.267872"><ele>161.3</ele><time>2011-10-13T07:54:22.0000000+00:00</time></trkpt><trkpt lat="44.550411" lon="34.267872"><ele>161.3</ele><time>2011-10-13T07:54:27.0000000+00:00</time></trkpt><trkpt lat="44.550415" lon="34.267879"><ele>161.6</ele><time>2011-10-13T07:54:32.0000000+00:00</time></trkpt><trkpt lat="44.550419" lon="34.267921"><ele>163.3</ele><time>2011-10-13T07:54:37.0000000+00:00</time></trkpt><trkpt lat="44.550438" lon="34.267971"><ele>165.9</ele><time>2011-10-13T07:54:42.0000000+00:00</time></trkpt><trkpt lat="44.550476" lon="34.268051"><ele>166.6</ele><time>2011-10-13T07:54:47.0000000+00:00</time></trkpt><trkpt lat="44.550503" lon="34.268097"><ele>166.9</ele><time>2011-10-13T07:54:52.0000000+00:00</time></trkpt><trkpt lat="44.550503" lon="34.268097"><ele>166.8</ele><time>2011-10-13T07:54:57.0000000+00:00</time></trkpt><trkpt lat="44.55051" lon="34.268097"><ele>166.8</ele><time>2011-10-13T07:55:02.0000000+00:00</time></trkpt><trkpt lat="44.550514" lon="34.268105"><ele>166.7</ele><time>2011-10-13T07:55:07.0000000+00:00</time></trkpt><trkpt lat="44.550514" lon="34.268105"><ele>166.6</ele><time>2011-10-13T07:55:12.0000000+00:00</time></trkpt><trkpt lat="44.550491" lon="34.268066"><ele>166.3</ele><time>2011-10-13T07:55:17.0000000+00:00</time></trkpt><trkpt lat="44.550411" lon="34.267899"><ele>166.2</ele><time>2011-10-13T07:55:22.0000000+00:00</time></trkpt><trkpt lat="44.550343" lon="34.267719"><ele>165.4</ele><time>2011-10-13T07:55:27.0000000+00:00</time></trkpt><trkpt lat="44.550335" lon="34.267586"><ele>165.5</ele><time>2011-10-13T07:55:32.0000000+00:00</time></trkpt><trkpt lat="44.550358" lon="34.267307"><ele>165.6</ele><time>2011-10-13T07:55:37.0000000+00:00</time></trkpt><trkpt lat="44.550293" lon="34.266891"><ele>162.6</ele><time>2011-10-13T07:55:42.0000000+00:00</time></trkpt><trkpt lat="44.550339" lon="34.26638"><ele>161.4</ele><time>2011-10-13T07:55:47.0000000+00:00</time></trkpt><trkpt lat="44.550381" lon="34.265907"><ele>160.9</ele><time>2011-10-13T07:55:52.0000000+00:00</time></trkpt><trkpt lat="44.550377" lon="34.265507"><ele>160.3</ele><time>2011-10-13T07:55:57.0000000+00:00</time></trkpt><trkpt lat="44.550365" lon="34.265167"><ele>159.9</ele><time>2011-10-13T07:56:02.0000000+00:00</time></trkpt><trkpt lat="44.55043" lon="34.26479"><ele>159.6</ele><time>2011-10-13T07:56:07.0000000+00:00</time></trkpt><trkpt lat="44.550419" lon="34.264511"><ele>160.0</ele><time>2011-10-13T07:56:12.0000000+00:00</time></trkpt><trkpt lat="44.550278" lon="34.264511"><ele>159.1</ele><time>2011-10-13T07:56:17.0000000+00:00</time></trkpt><trkpt lat="44.550117" lon="34.264736"><ele>157.8</ele><time>2011-10-13T07:56:22.0000000+00:00</time></trkpt><trkpt lat="44.550018" lon="34.26503"><ele>156.0</ele><time>2011-10-13T07:56:27.0000000+00:00</time></trkpt><trkpt lat="44.549984" lon="34.26535"><ele>154.2</ele><time>2011-10-13T07:56:32.0000000+00:00</time></trkpt><trkpt lat="44.549942" lon="34.265816"><ele>149.3</ele><time>2011-10-13T07:56:37.0000000+00:00</time></trkpt><trkpt lat="44.549713" lon="34.266308"><ele>144.9</ele><time>2011-10-13T07:56:42.0000000+00:00</time></trkpt><trkpt lat="44.54961" lon="34.266827"><ele>141.2</ele><time>2011-10-13T07:56:47.0000000+00:00</time></trkpt><trkpt lat="44.549465" lon="34.267479"><ele>136.0</ele><time>2011-10-13T07:56:52.0000000+00:00</time></trkpt><trkpt lat="44.549393" lon="34.268028"><ele>130.9</ele><time>2011-10-13T07:56:57.0000000+00:00</time></trkpt><trkpt lat="44.54929" lon="34.268234"><ele>126.7</ele><time>2011-10-13T07:57:02.0000000+00:00</time></trkpt><trkpt lat="44.549076" lon="34.268063"><ele>125.6</ele><time>2011-10-13T07:57:07.0000000+00:00</time></trkpt><trkpt lat="44.548931" lon="34.267693"><ele>122.3</ele><time>2011-10-13T07:57:12.0000000+00:00</time></trkpt><trkpt lat="44.548721" lon="34.267551"><ele>118.1</ele><time>2011-10-13T07:57:17.0000000+00:00</time></trkpt><trkpt lat="44.548431" lon="34.267712"><ele>112.6</ele><time>2011-10-13T07:57:22.0000000+00:00</time></trkpt><trkpt lat="44.548294" lon="34.26807"><ele>110.6</ele><time>2011-10-13T07:57:27.0000000+00:00</time></trkpt><trkpt lat="44.548199" lon="34.268562"><ele>105.7</ele><time>2011-10-13T07:57:32.0000000+00:00</time></trkpt><trkpt lat="44.548042" lon="34.269028"><ele>102.4</ele><time>2011-10-13T07:57:37.0000000+00:00</time></trkpt><trkpt lat="44.547924" lon="34.269478"><ele>98.7</ele><time>2011-10-13T07:57:42.0000000+00:00</time></trkpt><trkpt lat="44.547844" lon="34.27"><ele>95.3</ele><time>2011-10-13T07:57:47.0000000+00:00</time></trkpt><trkpt lat="44.54792" lon="34.270409"><ele>93.7</ele><time>2011-10-13T07:57:52.0000000+00:00</time></trkpt><trkpt lat="44.547943" lon="34.270782"><ele>90.8</ele><time>2011-10-13T07:57:57.0000000+00:00</time></trkpt><trkpt lat="44.547848" lon="34.271072"><ele>88.0</ele><time>2011-10-13T07:58:02.0000000+00:00</time></trkpt><trkpt lat="44.547676" lon="34.270973"><ele>87.7</ele><time>2011-10-13T07:58:07.0000000+00:00</time></trkpt><trkpt lat="44.54755" lon="34.270531"><ele>85.1</ele><time>2011-10-13T07:58:12.0000000+00:00</time></trkpt><trkpt lat="44.547539" lon="34.270065"><ele>84.2</ele><time>2011-10-13T07:58:17.0000000+00:00</time></trkpt><trkpt lat="44.547504" lon="34.269695"><ele>81.6</ele><time>2011-10-13T07:58:22.0000000+00:00</time></trkpt><trkpt lat="44.547314" lon="34.2696"><ele>81.9</ele><time>2011-10-13T07:58:27.0000000+00:00</time></trkpt><trkpt lat="44.547115" lon="34.269901"><ele>79.1</ele><time>2011-10-13T07:58:32.0000000+00:00</time></trkpt><trkpt lat="44.546871" lon="34.270378"><ele>74.6</ele><time>2011-10-13T07:58:37.0000000+00:00</time></trkpt><trkpt lat="44.546631" lon="34.270782"><ele>70.6</ele><time>2011-10-13T07:58:42.0000000+00:00</time></trkpt><trkpt lat="44.546539" lon="34.271168"><ele>68.2</ele><time>2011-10-13T07:58:47.0000000+00:00</time></trkpt><trkpt lat="44.546505" lon="34.271465"><ele>64.0</ele><time>2011-10-13T07:58:52.0000000+00:00</time></trkpt><trkpt lat="44.546448" lon="34.271782"><ele>60.9</ele><time>2011-10-13T07:58:57.0000000+00:00</time></trkpt><trkpt lat="44.546406" lon="34.271996"><ele>57.5</ele><time>2011-10-13T07:59:02.0000000+00:00</time></trkpt><trkpt lat="44.546329" lon="34.27219"><ele>53.9</ele><time>2011-10-13T07:59:07.0000000+00:00</time></trkpt><trkpt lat="44.546295" lon="34.272278"><ele>49.6</ele><time>2011-10-13T07:59:12.0000000+00:00</time></trkpt><trkpt lat="44.546295" lon="34.272274"><ele>48.9</ele><time>2011-10-13T07:59:17.0000000+00:00</time></trkpt><trkpt lat="44.546295" lon="34.272274"><ele>48.6</ele><time>2011-10-13T07:59:22.0000000+00:00</time></trkpt><trkpt lat="44.546295" lon="34.272274"><ele>48.6</ele><time>2011-10-13T07:59:27.0000000+00:00</time></trkpt><trkpt lat="44.546295" lon="34.272274"><ele>48.6</ele><time>2011-10-13T07:59:32.0000000+00:00</time></trkpt><trkpt lat="44.546295" lon="34.272274"><ele>48.7</ele><time>2011-10-13T07:59:37.0000000+00:00</time></trkpt><trkpt lat="44.546295" lon="34.272278"><ele>49.0</ele><time>2011-10-13T07:59:42.0000000+00:00</time></trkpt><trkpt lat="44.546295" lon="34.272278"><ele>49.1</ele><time>2011-10-13T07:59:47.0000000+00:00</time></trkpt><trkpt lat="44.546295" lon="34.272282"><ele>49.2</ele><time>2011-10-13T07:59:52.0000000+00:00</time></trkpt><trkpt lat="44.546295" lon="34.272282"><ele>49.2</ele><time>2011-10-13T07:59:57.0000000+00:00</time></trkpt><trkpt lat="44.546295" lon="34.272282"><ele>49.2</ele><time>2011-10-13T08:00:02.0000000+00:00</time></trkpt><trkpt lat="44.546295" lon="34.272282"><ele>49.3</ele><time>2011-10-13T08:00:07.0000000+00:00</time></trkpt><trkpt lat="44.546295" lon="34.272282"><ele>49.3</ele><time>2011-10-13T08:00:12.0000000+00:00</time></trkpt><trkpt lat="44.546295" lon="34.272282"><ele>49.3</ele><time>2011-10-13T08:00:17.0000000+00:00</time></trkpt><trkpt lat="44.546295" lon="34.272282"><ele>49.3</ele><time>2011-10-13T08:00:22.0000000+00:00</time></trkpt><trkpt lat="44.546295" lon="34.272282"><ele>49.3</ele><time>2011-10-13T08:00:27.0000000+00:00</time></trkpt><trkpt lat="44.546295" lon="34.272282"><ele>49.4</ele><time>2011-10-13T08:00:32.0000000+00:00</time></trkpt><trkpt lat="44.546295" lon="34.272282"><ele>49.4</ele><time>2011-10-13T08:00:37.0000000+00:00</time></trkpt><trkpt lat="44.546295" lon="34.272282"><ele>49.4</ele><time>2011-10-13T08:00:42.0000000+00:00</time></trkpt><trkpt lat="44.546299" lon="34.272282"><ele>49.4</ele><time>2011-10-13T08:00:47.0000000+00:00</time></trkpt><trkpt lat="44.546295" lon="34.272282"><ele>49.4</ele><time>2011-10-13T08:00:52.0000000+00:00</time></trkpt><trkpt lat="44.546295" lon="34.272282"><ele>49.4</ele><time>2011-10-13T08:00:57.0000000+00:00</time></trkpt><trkpt lat="44.546295" lon="34.272282"><ele>49.4</ele><time>2011-10-13T08:01:02.0000000+00:00</time></trkpt><trkpt lat="44.546295" lon="34.272282"><ele>49.4</ele><time>2011-10-13T08:01:07.0000000+00:00</time></trkpt><trkpt lat="44.546295" lon="34.272282"><ele>49.4</ele><time>2011-10-13T08:01:12.0000000+00:00</time></trkpt><trkpt lat="44.546295" lon="34.272282"><ele>49.5</ele><time>2011-10-13T08:01:17.0000000+00:00</time></trkpt><trkpt lat="44.546249" lon="34.272415"><ele>49.4</ele><time>2011-10-13T08:01:22.0000000+00:00</time></trkpt><trkpt lat="44.545975" lon="34.272743"><ele>44.9</ele><time>2011-10-13T08:01:27.0000000+00:00</time></trkpt><trkpt lat="44.545589" lon="34.273186"><ele>39.7</ele><time>2011-10-13T08:01:32.0000000+00:00</time></trkpt><trkpt lat="44.545135" lon="34.273628"><ele>36.5</ele><time>2011-10-13T08:01:37.0000000+00:00</time></trkpt><trkpt lat="44.544758" lon="34.274033"><ele>34.0</ele><time>2011-10-13T08:01:42.0000000+00:00</time></trkpt><trkpt lat="44.544537" lon="34.27449"><ele>31.9</ele><time>2011-10-13T08:01:47.0000000+00:00</time></trkpt><trkpt lat="44.544415" lon="34.274963"><ele>30.0</ele><time>2011-10-13T08:01:52.0000000+00:00</time></trkpt><trkpt lat="44.544403" lon="34.275307"><ele>28.2</ele><time>2011-10-13T08:01:57.0000000+00:00</time></trkpt><trkpt lat="44.544399" lon="34.275646"><ele>26.9</ele><time>2011-10-13T08:02:02.0000000+00:00</time></trkpt><trkpt lat="44.544361" lon="34.275944"><ele>26.7</ele><time>2011-10-13T08:02:07.0000000+00:00</time></trkpt><trkpt lat="44.544285" lon="34.276222"><ele>24.4</ele><time>2011-10-13T08:02:12.0000000+00:00</time></trkpt><trkpt lat="44.544235" lon="34.276436"><ele>23.7</ele><time>2011-10-13T08:02:17.0000000+00:00</time></trkpt><trkpt lat="44.544193" lon="34.276745"><ele>23.5</ele><time>2011-10-13T08:02:22.0000000+00:00</time></trkpt><trkpt lat="44.54414" lon="34.277096"><ele>23.4</ele><time>2011-10-13T08:02:27.0000000+00:00</time></trkpt><trkpt lat="44.544052" lon="34.277431"><ele>23.5</ele><time>2011-10-13T08:02:32.0000000+00:00</time></trkpt><trkpt lat="44.543945" lon="34.277725"><ele>23.7</ele><time>2011-10-13T08:02:37.0000000+00:00</time></trkpt><trkpt lat="44.543865" lon="34.277988"><ele>24.2</ele><time>2011-10-13T08:02:42.0000000+00:00</time></trkpt><trkpt lat="44.543816" lon="34.278217"><ele>24.7</ele><time>2011-10-13T08:02:47.0000000+00:00</time></trkpt><trkpt lat="44.543678" lon="34.278423"><ele>25.3</ele><time>2011-10-13T08:02:52.0000000+00:00</time></trkpt><trkpt lat="44.543556" lon="34.278606"><ele>25.6</ele><time>2011-10-13T08:02:57.0000000+00:00</time></trkpt><trkpt lat="44.543423" lon="34.27879"><ele>26.4</ele><time>2011-10-13T08:03:02.0000000+00:00</time></trkpt><trkpt lat="44.543304" lon="34.278984"><ele>27.4</ele><time>2011-10-13T08:03:07.0000000+00:00</time></trkpt><trkpt lat="44.543209" lon="34.279076"><ele>27.9</ele><time>2011-10-13T08:03:12.0000000+00:00</time></trkpt><trkpt lat="44.543152" lon="34.279137"><ele>28.5</ele><time>2011-10-13T08:03:17.0000000+00:00</time></trkpt><trkpt lat="44.543087" lon="34.279202"><ele>27.8</ele><time>2011-10-13T08:03:22.0000000+00:00</time></trkpt><trkpt lat="44.543087" lon="34.279209"><ele>27.4</ele><time>2011-10-13T08:03:27.0000000+00:00</time></trkpt><trkpt lat="44.543087" lon="34.279209"><ele>27.4</ele><time>2011-10-13T08:03:32.0000000+00:00</time></trkpt><trkpt lat="44.543087" lon="34.279209"><ele>27.5</ele><time>2011-10-13T08:03:37.0000000+00:00</time></trkpt><trkpt lat="44.543087" lon="34.279213"><ele>27.5</ele><time>2011-10-13T08:03:42.0000000+00:00</time></trkpt><trkpt lat="44.543087" lon="34.279213"><ele>27.6</ele><time>2011-10-13T08:03:47.0000000+00:00</time></trkpt><trkpt lat="44.543087" lon="34.279213"><ele>27.6</ele><time>2011-10-13T08:03:52.0000000+00:00</time></trkpt><trkpt lat="44.543087" lon="34.279213"><ele>27.7</ele><time>2011-10-13T08:03:57.0000000+00:00</time></trkpt><trkpt lat="44.543087" lon="34.279213"><ele>27.6</ele><time>2011-10-13T08:04:02.0000000+00:00</time></trkpt><trkpt lat="44.543087" lon="34.279213"><ele>27.6</ele><time>2011-10-13T08:04:07.0000000+00:00</time></trkpt><trkpt lat="44.543087" lon="34.279217"><ele>27.6</ele><time>2011-10-13T08:04:12.0000000+00:00</time></trkpt><trkpt lat="44.543087" lon="34.279217"><ele>27.6</ele><time>2011-10-13T08:04:17.0000000+00:00</time></trkpt><trkpt lat="44.543091" lon="34.279217"><ele>27.6</ele><time>2011-10-13T08:04:22.0000000+00:00</time></trkpt><trkpt lat="44.543098" lon="34.279232"><ele>27.5</ele><time>2011-10-13T08:04:27.0000000+00:00</time></trkpt><trkpt lat="44.543098" lon="34.279247"><ele>27.1</ele><time>2011-10-13T08:04:32.0000000+00:00</time></trkpt><trkpt lat="44.543121" lon="34.279373"><ele>27.0</ele><time>2011-10-13T08:04:37.0000000+00:00</time></trkpt><trkpt lat="44.543114" lon="34.279514"><ele>26.8</ele><time>2011-10-13T08:04:42.0000000+00:00</time></trkpt><trkpt lat="44.543053" lon="34.279545"><ele>26.2</ele><time>2011-10-13T08:04:47.0000000+00:00</time></trkpt><trkpt lat="44.54295" lon="34.279446"><ele>24.4</ele><time>2011-10-13T08:04:52.0000000+00:00</time></trkpt><trkpt lat="44.542866" lon="34.279259"><ele>22.5</ele><time>2011-10-13T08:04:57.0000000+00:00</time></trkpt><trkpt lat="44.542782" lon="34.279125"><ele>20.5</ele><time>2011-10-13T08:05:02.0000000+00:00</time></trkpt><trkpt lat="44.542732" lon="34.279102"><ele>19.3</ele><time>2011-10-13T08:05:07.0000000+00:00</time></trkpt><trkpt lat="44.542648" lon="34.279247"><ele>17.4</ele><time>2011-10-13T08:05:12.0000000+00:00</time></trkpt><trkpt lat="44.542553" lon="34.279423"><ele>15.9</ele><time>2011-10-13T08:05:17.0000000+00:00</time></trkpt><trkpt lat="44.542435" lon="34.279308"><ele>13.9</ele><time>2011-10-13T08:05:22.0000000+00:00</time></trkpt><trkpt lat="44.542206" lon="34.279034"><ele>11.2</ele><time>2011-10-13T08:05:27.0000000+00:00</time></trkpt><trkpt lat="44.54187" lon="34.278801"><ele>9.0</ele><time>2011-10-13T08:05:32.0000000+00:00</time></trkpt><trkpt lat="44.541615" lon="34.278347"><ele>8.8</ele><time>2011-10-13T08:05:37.0000000+00:00</time></trkpt><trkpt lat="44.541397" lon="34.278111"><ele>6.9</ele><time>2011-10-13T08:05:42.0000000+00:00</time></trkpt><trkpt lat="44.54129" lon="34.277935"><ele>4.7</ele><time>2011-10-13T08:05:47.0000000+00:00</time></trkpt><trkpt lat="44.541107" lon="34.277542"><ele>2.8</ele><time>2011-10-13T08:05:52.0000000+00:00</time></trkpt><trkpt lat="44.540905" lon="34.277172"><ele>-0.9</ele><time>2011-10-13T08:05:57.0000000+00:00</time></trkpt><trkpt lat="44.540638" lon="34.27681"><ele>-1.8</ele><time>2011-10-13T08:06:02.0000000+00:00</time></trkpt><trkpt lat="44.540398" lon="34.276459"><ele>-3.1</ele><time>2011-10-13T08:06:07.0000000+00:00</time></trkpt><trkpt lat="44.54015" lon="34.276173"><ele>-1.3</ele><time>2011-10-13T08:06:12.0000000+00:00</time></trkpt><trkpt lat="44.539875" lon="34.275871"><ele>1.0</ele><time>2011-10-13T08:06:17.0000000+00:00</time></trkpt><trkpt lat="44.539539" lon="34.275631"><ele>4.5</ele><time>2011-10-13T08:06:22.0000000+00:00</time></trkpt><trkpt lat="44.539169" lon="34.275398"><ele>7.0</ele><time>2011-10-13T08:06:27.0000000+00:00</time></trkpt><trkpt lat="44.538864" lon="34.275223"><ele>7.2</ele><time>2011-10-13T08:06:32.0000000+00:00</time></trkpt><trkpt lat="44.538563" lon="34.275047"><ele>8.2</ele><time>2011-10-13T08:06:37.0000000+00:00</time></trkpt><trkpt lat="44.538204" lon="34.274891"><ele>8.9</ele><time>2011-10-13T08:06:42.0000000+00:00</time></trkpt><trkpt lat="44.53788" lon="34.274776"><ele>9.0</ele><time>2011-10-13T08:06:47.0000000+00:00</time></trkpt><trkpt lat="44.537548" lon="34.274677"><ele>8.5</ele><time>2011-10-13T08:06:52.0000000+00:00</time></trkpt><trkpt lat="44.537254" lon="34.274536"><ele>8.1</ele><time>2011-10-13T08:06:57.0000000+00:00</time></trkpt><trkpt lat="44.536991" lon="34.274426"><ele>8.3</ele><time>2011-10-13T08:07:02.0000000+00:00</time></trkpt><trkpt lat="44.536827" lon="34.274254"><ele>8.8</ele><time>2011-10-13T08:07:07.0000000+00:00</time></trkpt><trkpt lat="44.536854" lon="34.274017"><ele>11.1</ele><time>2011-10-13T08:07:12.0000000+00:00</time></trkpt><trkpt lat="44.536892" lon="34.273903"><ele>12.6</ele><time>2011-10-13T08:07:17.0000000+00:00</time></trkpt><trkpt lat="44.536907" lon="34.273895"><ele>14.2</ele><time>2011-10-13T08:07:22.0000000+00:00</time></trkpt><trkpt lat="44.536926" lon="34.273899"><ele>15.7</ele><time>2011-10-13T08:07:27.0000000+00:00</time></trkpt><trkpt lat="44.536942" lon="34.273891"><ele>16.4</ele><time>2011-10-13T08:07:32.0000000+00:00</time></trkpt><trkpt lat="44.536945" lon="34.273899"><ele>16.3</ele><time>2011-10-13T08:07:37.0000000+00:00</time></trkpt><trkpt lat="44.536945" lon="34.273899"><ele>16.5</ele><time>2011-10-13T08:07:42.0000000+00:00</time></trkpt><trkpt lat="44.536942" lon="34.273899"><ele>16.7</ele><time>2011-10-13T08:07:47.0000000+00:00</time></trkpt><trkpt lat="44.536938" lon="34.273899"><ele>16.8</ele><time>2011-10-13T08:07:52.0000000+00:00</time></trkpt><trkpt lat="44.53693" lon="34.273903"><ele>16.9</ele><time>2011-10-13T08:07:57.0000000+00:00</time></trkpt><trkpt lat="44.536922" lon="34.273903"><ele>16.9</ele><time>2011-10-13T08:08:02.0000000+00:00</time></trkpt><trkpt lat="44.536915" lon="34.273903"><ele>16.9</ele><time>2011-10-13T08:08:07.0000000+00:00</time></trkpt><trkpt lat="44.536911" lon="34.273903"><ele>17.0</ele><time>2011-10-13T08:08:12.0000000+00:00</time></trkpt><trkpt lat="44.536907" lon="34.273903"><ele>17.0</ele><time>2011-10-13T08:08:17.0000000+00:00</time></trkpt><trkpt lat="44.536907" lon="34.273903"><ele>17.1</ele><time>2011-10-13T08:08:22.0000000+00:00</time></trkpt><trkpt lat="44.536907" lon="34.273903"><ele>17.1</ele><time>2011-10-13T08:08:27.0000000+00:00</time></trkpt><trkpt lat="44.536907" lon="34.273903"><ele>17.1</ele><time>2011-10-13T08:08:32.0000000+00:00</time></trkpt><trkpt lat="44.536907" lon="34.273903"><ele>17.1</ele><time>2011-10-13T08:08:37.0000000+00:00</time></trkpt><trkpt lat="44.536907" lon="34.273903"><ele>17.1</ele><time>2011-10-13T08:08:42.0000000+00:00</time></trkpt><trkpt lat="44.536907" lon="34.273903"><ele>17.2</ele><time>2011-10-13T08:08:47.0000000+00:00</time></trkpt><trkpt lat="44.536907" lon="34.273903"><ele>17.2</ele><time>2011-10-13T08:08:52.0000000+00:00</time></trkpt><trkpt lat="44.536907" lon="34.273903"><ele>17.2</ele><time>2011-10-13T08:08:57.0000000+00:00</time></trkpt><trkpt lat="44.536907" lon="34.273903"><ele>17.2</ele><time>2011-10-13T08:09:02.0000000+00:00</time></trkpt><trkpt lat="44.536907" lon="34.273903"><ele>17.2</ele><time>2011-10-13T08:09:07.0000000+00:00</time></trkpt><trkpt lat="44.536907" lon="34.273903"><ele>17.2</ele><time>2011-10-13T08:09:12.0000000+00:00</time></trkpt><trkpt lat="44.536907" lon="34.273903"><ele>17.2</ele><time>2011-10-13T08:09:17.0000000+00:00</time></trkpt><trkpt lat="44.536907" lon="34.273903"><ele>17.2</ele><time>2011-10-13T08:09:22.0000000+00:00</time></trkpt><trkpt lat="44.536907" lon="34.273903"><ele>17.2</ele><time>2011-10-13T08:09:27.0000000+00:00</time></trkpt><trkpt lat="44.536907" lon="34.273903"><ele>17.2</ele><time>2011-10-13T08:09:32.0000000+00:00</time></trkpt><trkpt lat="44.536907" lon="34.273903"><ele>17.2</ele><time>2011-10-13T08:09:37.0000000+00:00</time></trkpt><trkpt lat="44.536907" lon="34.273903"><ele>17.2</ele><time>2011-10-13T08:09:42.0000000+00:00</time></trkpt><trkpt lat="44.536907" lon="34.273903"><ele>17.2</ele><time>2011-10-13T08:09:47.0000000+00:00</time></trkpt><trkpt lat="44.536907" lon="34.273903"><ele>17.2</ele><time>2011-10-13T08:09:52.0000000+00:00</time></trkpt><trkpt lat="44.536907" lon="34.273903"><ele>17.2</ele><time>2011-10-13T08:09:57.0000000+00:00</time></trkpt><trkpt lat="44.536907" lon="34.273903"><ele>17.2</ele><time>2011-10-13T08:10:02.0000000+00:00</time></trkpt><trkpt lat="44.536907" lon="34.273903"><ele>17.2</ele><time>2011-10-13T08:10:07.0000000+00:00</time></trkpt><trkpt lat="44.536907" lon="34.273903"><ele>17.2</ele><time>2011-10-13T08:10:12.0000000+00:00</time></trkpt><trkpt lat="44.536907" lon="34.273903"><ele>17.2</ele><time>2011-10-13T08:10:17.0000000+00:00</time></trkpt><trkpt lat="44.536907" lon="34.273903"><ele>17.2</ele><time>2011-10-13T08:10:22.0000000+00:00</time></trkpt><trkpt lat="44.536907" lon="34.273903"><ele>17.2</ele><time>2011-10-13T08:10:27.0000000+00:00</time></trkpt><trkpt lat="44.536907" lon="34.273907"><ele>17.2</ele><time>2011-10-13T08:10:32.0000000+00:00</time></trkpt><trkpt lat="44.536907" lon="34.273907"><ele>17.2</ele><time>2011-10-13T08:10:37.0000000+00:00</time></trkpt><trkpt lat="44.536911" lon="34.273907"><ele>17.2</ele><time>2011-10-13T08:10:42.0000000+00:00</time></trkpt><trkpt lat="44.536911" lon="34.273907"><ele>17.2</ele><time>2011-10-13T08:10:47.0000000+00:00</time></trkpt><trkpt lat="44.536911" lon="34.273907"><ele>17.3</ele><time>2011-10-13T08:10:52.0000000+00:00</time></trkpt><trkpt lat="44.536911" lon="34.273907"><ele>17.3</ele><time>2011-10-13T08:10:57.0000000+00:00</time></trkpt><trkpt lat="44.536911" lon="34.273907"><ele>17.4</ele><time>2011-10-13T08:11:02.0000000+00:00</time></trkpt><trkpt lat="44.536911" lon="34.273907"><ele>17.4</ele><time>2011-10-13T08:11:07.0000000+00:00</time></trkpt><trkpt lat="44.536911" lon="34.273907"><ele>17.4</ele><time>2011-10-13T08:11:12.0000000+00:00</time></trkpt><trkpt lat="44.536911" lon="34.273907"><ele>17.5</ele><time>2011-10-13T08:11:17.0000000+00:00</time></trkpt><trkpt lat="44.536911" lon="34.273907"><ele>17.5</ele><time>2011-10-13T08:11:22.0000000+00:00</time></trkpt><trkpt lat="44.536911" lon="34.273907"><ele>17.5</ele><time>2011-10-13T08:11:27.0000000+00:00</time></trkpt><trkpt lat="44.536907" lon="34.273907"><ele>17.6</ele><time>2011-10-13T08:11:32.0000000+00:00</time></trkpt><trkpt lat="44.536907" lon="34.273907"><ele>17.6</ele><time>2011-10-13T08:11:37.0000000+00:00</time></trkpt><trkpt lat="44.536907" lon="34.273907"><ele>17.7</ele><time>2011-10-13T08:11:42.0000000+00:00</time></trkpt><trkpt lat="44.536907" lon="34.273907"><ele>17.7</ele><time>2011-10-13T08:11:47.0000000+00:00</time></trkpt><trkpt lat="44.536907" lon="34.273907"><ele>17.7</ele><time>2011-10-13T08:11:52.0000000+00:00</time></trkpt><trkpt lat="44.536907" lon="34.273907"><ele>17.8</ele><time>2011-10-13T08:11:57.0000000+00:00</time></trkpt><trkpt lat="44.536907" lon="34.273907"><ele>17.9</ele><time>2011-10-13T08:12:02.0000000+00:00</time></trkpt><trkpt lat="44.536907" lon="34.273907"><ele>17.9</ele><time>2011-10-13T08:12:07.0000000+00:00</time></trkpt><trkpt lat="44.536907" lon="34.273907"><ele>17.8</ele><time>2011-10-13T08:12:12.0000000+00:00</time></trkpt><trkpt lat="44.536907" lon="34.273907"><ele>17.8</ele><time>2011-10-13T08:12:17.0000000+00:00</time></trkpt><trkpt lat="44.536907" lon="34.273907"><ele>17.8</ele><time>2011-10-13T08:12:22.0000000+00:00</time></trkpt><trkpt lat="44.536892" lon="34.273926"><ele>17.7</ele><time>2011-10-13T08:12:27.0000000+00:00</time></trkpt><trkpt lat="44.536907" lon="34.2742"><ele>14.4</ele><time>2011-10-13T08:12:32.0000000+00:00</time></trkpt><trkpt lat="44.536972" lon="34.27438"><ele>12.9</ele><time>2011-10-13T08:12:37.0000000+00:00</time></trkpt><trkpt lat="44.537136" lon="34.274467"><ele>13.6</ele><time>2011-10-13T08:12:42.0000000+00:00</time></trkpt><trkpt lat="44.537395" lon="34.27462"><ele>13.2</ele><time>2011-10-13T08:12:47.0000000+00:00</time></trkpt><trkpt lat="44.537682" lon="34.274734"><ele>12.0</ele><time>2011-10-13T08:12:52.0000000+00:00</time></trkpt><trkpt lat="44.538002" lon="34.274868"><ele>11.3</ele><time>2011-10-13T08:12:57.0000000+00:00</time></trkpt><trkpt lat="44.538334" lon="34.275013"><ele>10.9</ele><time>2011-10-13T08:13:02.0000000+00:00</time></trkpt><trkpt lat="44.538643" lon="34.275173"><ele>11.2</ele><time>2011-10-13T08:13:07.0000000+00:00</time></trkpt><trkpt lat="44.538948" lon="34.275345"><ele>11.8</ele><time>2011-10-13T08:13:12.0000000+00:00</time></trkpt><trkpt lat="44.539249" lon="34.275524"><ele>12.0</ele><time>2011-10-13T08:13:17.0000000+00:00</time></trkpt><trkpt lat="44.539574" lon="34.275707"><ele>12.7</ele><time>2011-10-13T08:13:22.0000000+00:00</time></trkpt><trkpt lat="44.539883" lon="34.275963"><ele>12.3</ele><time>2011-10-13T08:13:27.0000000+00:00</time></trkpt><trkpt lat="44.540146" lon="34.276211"><ele>11.1</ele><time>2011-10-13T08:13:32.0000000+00:00</time></trkpt><trkpt lat="44.540405" lon="34.276516"><ele>9.8</ele><time>2011-10-13T08:13:37.0000000+00:00</time></trkpt><trkpt lat="44.540642" lon="34.276802"><ele>9.4</ele><time>2011-10-13T08:13:42.0000000+00:00</time></trkpt><trkpt lat="44.540836" lon="34.27705"><ele>10.6</ele><time>2011-10-13T08:13:47.0000000+00:00</time></trkpt><trkpt lat="44.541012" lon="34.277378"><ele>12.6</ele><time>2011-10-13T08:13:52.0000000+00:00</time></trkpt><trkpt lat="44.541218" lon="34.277683"><ele>14.8</ele><time>2011-10-13T08:13:57.0000000+00:00</time></trkpt><trkpt lat="44.541409" lon="34.277992"><ele>14.9</ele><time>2011-10-13T08:14:02.0000000+00:00</time></trkpt><trkpt lat="44.541588" lon="34.27832"><ele>16.9</ele><time>2011-10-13T08:14:07.0000000+00:00</time></trkpt><trkpt lat="44.541763" lon="34.278568"><ele>19.5</ele><time>2011-10-13T08:14:12.0000000+00:00</time></trkpt><trkpt lat="44.54195" lon="34.27877"><ele>21.9</ele><time>2011-10-13T08:14:17.0000000+00:00</time></trkpt><trkpt lat="44.542088" lon="34.278927"><ele>24.5</ele><time>2011-10-13T08:14:22.0000000+00:00</time></trkpt><trkpt lat="44.542233" lon="34.279053"><ele>27.7</ele><time>2011-10-13T08:14:27.0000000+00:00</time></trkpt><trkpt lat="44.542347" lon="34.279198"><ele>30.5</ele><time>2011-10-13T08:14:32.0000000+00:00</time></trkpt><trkpt lat="44.542442" lon="34.279331"><ele>33.4</ele><time>2011-10-13T08:14:37.0000000+00:00</time></trkpt><trkpt lat="44.54253" lon="34.279343"><ele>36.4</ele><time>2011-10-13T08:14:42.0000000+00:00</time></trkpt><trkpt lat="44.542564" lon="34.27924"><ele>38.6</ele><time>2011-10-13T08:14:47.0000000+00:00</time></trkpt><trkpt lat="44.542614" lon="34.279079"><ele>41.4</ele><time>2011-10-13T08:14:52.0000000+00:00</time></trkpt><trkpt lat="44.542698" lon="34.27903"><ele>43.4</ele><time>2011-10-13T08:14:57.0000000+00:00</time></trkpt><trkpt lat="44.542698" lon="34.279102"><ele>44.3</ele><time>2011-10-13T08:15:02.0000000+00:00</time></trkpt><trkpt lat="44.542717" lon="34.279194"><ele>44.1</ele><time>2011-10-13T08:15:07.0000000+00:00</time></trkpt><trkpt lat="44.542767" lon="34.279316"><ele>44.9</ele><time>2011-10-13T08:15:12.0000000+00:00</time></trkpt><trkpt lat="44.542919" lon="34.27935"><ele>46.9</ele><time>2011-10-13T08:15:17.0000000+00:00</time></trkpt><trkpt lat="44.542953" lon="34.279491"><ele>48.8</ele><time>2011-10-13T08:15:22.0000000+00:00</time></trkpt><trkpt lat="44.542957" lon="34.279655"><ele>49.9</ele><time>2011-10-13T08:15:27.0000000+00:00</time></trkpt><trkpt lat="44.542953" lon="34.27985"><ele>50.6</ele><time>2011-10-13T08:15:32.0000000+00:00</time></trkpt><trkpt lat="44.542938" lon="34.280041"><ele>51.8</ele><time>2011-10-13T08:15:37.0000000+00:00</time></trkpt><trkpt lat="44.542946" lon="34.280201"><ele>53.5</ele><time>2011-10-13T08:15:42.0000000+00:00</time></trkpt><trkpt lat="44.542946" lon="34.280407"><ele>54.9</ele><time>2011-10-13T08:15:47.0000000+00:00</time></trkpt><trkpt lat="44.542931" lon="34.280602"><ele>56.3</ele><time>2011-10-13T08:15:52.0000000+00:00</time></trkpt><trkpt lat="44.542892" lon="34.280769"><ele>58.8</ele><time>2011-10-13T08:15:57.0000000+00:00</time></trkpt><trkpt lat="44.542904" lon="34.280994"><ele>60.5</ele><time>2011-10-13T08:16:02.0000000+00:00</time></trkpt><trkpt lat="44.542873" lon="34.281158"><ele>62.5</ele><time>2011-10-13T08:16:07.0000000+00:00</time></trkpt><trkpt lat="44.542892" lon="34.281319"><ele>61.7</ele><time>2011-10-13T08:16:12.0000000+00:00</time></trkpt><trkpt lat="44.542904" lon="34.281475"><ele>61.7</ele><time>2011-10-13T08:16:17.0000000+00:00</time></trkpt><trkpt lat="44.542934" lon="34.281651"><ele>61.7</ele><time>2011-10-13T08:16:22.0000000+00:00</time></trkpt><trkpt lat="44.542927" lon="34.281799"><ele>61.6</ele><time>2011-10-13T08:16:27.0000000+00:00</time></trkpt><trkpt lat="44.542995" lon="34.28194"><ele>59.2</ele><time>2011-10-13T08:16:32.0000000+00:00</time></trkpt><trkpt lat="44.543041" lon="34.28212"><ele>59.0</ele><time>2011-10-13T08:16:37.0000000+00:00</time></trkpt><trkpt lat="44.543125" lon="34.282303"><ele>58.2</ele><time>2011-10-13T08:16:42.0000000+00:00</time></trkpt><trkpt lat="44.543217" lon="34.282455"><ele>58.9</ele><time>2011-10-13T08:16:47.0000000+00:00</time></trkpt><trkpt lat="44.54332" lon="34.2826"><ele>58.3</ele><time>2011-10-13T08:16:52.0000000+00:00</time></trkpt><trkpt lat="44.543488" lon="34.282772"><ele>57.5</ele><time>2011-10-13T08:16:57.0000000+00:00</time></trkpt><trkpt lat="44.54372" lon="34.283035"><ele>53.6</ele><time>2011-10-13T08:17:02.0000000+00:00</time></trkpt><trkpt lat="44.5439" lon="34.283283"><ele>55.6</ele><time>2011-10-13T08:17:07.0000000+00:00</time></trkpt><trkpt lat="44.544044" lon="34.283527"><ele>57.2</ele><time>2011-10-13T08:17:12.0000000+00:00</time></trkpt><trkpt lat="44.544201" lon="34.283791"><ele>58.9</ele><time>2011-10-13T08:17:17.0000000+00:00</time></trkpt><trkpt lat="44.54438" lon="34.284035"><ele>58.1</ele><time>2011-10-13T08:17:22.0000000+00:00</time></trkpt><trkpt lat="44.544514" lon="34.284283"><ele>60.1</ele><time>2011-10-13T08:17:27.0000000+00:00</time></trkpt><trkpt lat="44.544621" lon="34.284527"><ele>63.0</ele><time>2011-10-13T08:17:32.0000000+00:00</time></trkpt><trkpt lat="44.544849" lon="34.284763"><ele>53.1</ele><time>2011-10-13T08:17:37.0000000+00:00</time></trkpt><trkpt lat="44.54512" lon="34.284935"><ele>46.7</ele><time>2011-10-13T08:17:42.0000000+00:00</time></trkpt><trkpt lat="44.545418" lon="34.285034"><ele>44.7</ele><time>2011-10-13T08:17:47.0000000+00:00</time></trkpt><trkpt lat="44.545738" lon="34.285152"><ele>42.9</ele><time>2011-10-13T08:17:52.0000000+00:00</time></trkpt><trkpt lat="44.546165" lon="34.285252"><ele>40.2</ele><time>2011-10-13T08:17:57.0000000+00:00</time></trkpt><trkpt lat="44.546459" lon="34.285378"><ele>39.7</ele><time>2011-10-13T08:18:02.0000000+00:00</time></trkpt><trkpt lat="44.546562" lon="34.285675"><ele>41.0</ele><time>2011-10-13T08:18:07.0000000+00:00</time></trkpt><trkpt lat="44.546474" lon="34.286026"><ele>43.4</ele><time>2011-10-13T08:18:12.0000000+00:00</time></trkpt><trkpt lat="44.54649" lon="34.2864"><ele>44.3</ele><time>2011-10-13T08:18:17.0000000+00:00</time></trkpt><trkpt lat="44.546577" lon="34.286732"><ele>45.9</ele><time>2011-10-13T08:18:22.0000000+00:00</time></trkpt><trkpt lat="44.54668" lon="34.287037"><ele>46.5</ele><time>2011-10-13T08:18:27.0000000+00:00</time></trkpt><trkpt lat="44.546768" lon="34.287251"><ele>49.5</ele><time>2011-10-13T08:18:32.0000000+00:00</time></trkpt><trkpt lat="44.546886" lon="34.28746"><ele>51.5</ele><time>2011-10-13T08:18:37.0000000+00:00</time></trkpt><trkpt lat="44.546963" lon="34.287689"><ele>53.3</ele><time>2011-10-13T08:18:42.0000000+00:00</time></trkpt><trkpt lat="44.547043" lon="34.287888"><ele>56.0</ele><time>2011-10-13T08:18:47.0000000+00:00</time></trkpt><trkpt lat="44.547112" lon="34.288059"><ele>58.4</ele><time>2011-10-13T08:18:52.0000000+00:00</time></trkpt><trkpt lat="44.547188" lon="34.288219"><ele>59.9</ele><time>2011-10-13T08:18:57.0000000+00:00</time></trkpt><trkpt lat="44.547291" lon="34.288387"><ele>59.9</ele><time>2011-10-13T08:19:02.0000000+00:00</time></trkpt><trkpt lat="44.547367" lon="34.288506"><ele>61.4</ele><time>2011-10-13T08:19:07.0000000+00:00</time></trkpt><trkpt lat="44.547443" lon="34.288673"><ele>63.6</ele><time>2011-10-13T08:19:12.0000000+00:00</time></trkpt><trkpt lat="44.547535" lon="34.288826"><ele>65.5</ele><time>2011-10-13T08:19:17.0000000+00:00</time></trkpt><trkpt lat="44.547634" lon="34.288986"><ele>66.6</ele><time>2011-10-13T08:19:22.0000000+00:00</time></trkpt><trkpt lat="44.547729" lon="34.289108"><ele>67.0</ele><time>2011-10-13T08:19:27.0000000+00:00</time></trkpt><trkpt lat="44.547821" lon="34.289288"><ele>64.7</ele><time>2011-10-13T08:19:32.0000000+00:00</time></trkpt><trkpt lat="44.547863" lon="34.289459"><ele>66.0</ele><time>2011-10-13T08:19:37.0000000+00:00</time></trkpt><trkpt lat="44.547897" lon="34.289627"><ele>67.5</ele><time>2011-10-13T08:19:42.0000000+00:00</time></trkpt><trkpt lat="44.547913" lon="34.28978"><ele>69.1</ele><time>2011-10-13T08:19:47.0000000+00:00</time></trkpt><trkpt lat="44.548012" lon="34.289951"><ele>70.2</ele><time>2011-10-13T08:19:52.0000000+00:00</time></trkpt><trkpt lat="44.548088" lon="34.290119"><ele>72.7</ele><time>2011-10-13T08:19:57.0000000+00:00</time></trkpt><trkpt lat="44.548187" lon="34.290279"><ele>74.1</ele><time>2011-10-13T08:20:02.0000000+00:00</time></trkpt><trkpt lat="44.54826" lon="34.290394"><ele>76.1</ele><time>2011-10-13T08:20:07.0000000+00:00</time></trkpt><trkpt lat="44.548405" lon="34.290462"><ele>76.0</ele><time>2011-10-13T08:20:12.0000000+00:00</time></trkpt><trkpt lat="44.548588" lon="34.290516"><ele>76.4</ele><time>2011-10-13T08:20:17.0000000+00:00</time></trkpt><trkpt lat="44.548748" lon="34.290604"><ele>74.4</ele><time>2011-10-13T08:20:22.0000000+00:00</time></trkpt><trkpt lat="44.548904" lon="34.290768"><ele>75.3</ele><time>2011-10-13T08:20:27.0000000+00:00</time></trkpt><trkpt lat="44.549007" lon="34.291016"><ele>75.5</ele><time>2011-10-13T08:20:32.0000000+00:00</time></trkpt><trkpt lat="44.549149" lon="34.291378"><ele>74.6</ele><time>2011-10-13T08:20:37.0000000+00:00</time></trkpt><trkpt lat="44.549213" lon="34.29192"><ele>71.7</ele><time>2011-10-13T08:20:42.0000000+00:00</time></trkpt><trkpt lat="44.549259" lon="34.29253"><ele>68.5</ele><time>2011-10-13T08:20:47.0000000+00:00</time></trkpt><trkpt lat="44.549393" lon="34.29314"><ele>63.4</ele><time>2011-10-13T08:20:52.0000000+00:00</time></trkpt><trkpt lat="44.549625" lon="34.293758"><ele>59.5</ele><time>2011-10-13T08:20:57.0000000+00:00</time></trkpt><trkpt lat="44.549969" lon="34.294338"><ele>56.4</ele><time>2011-10-13T08:21:02.0000000+00:00</time></trkpt><trkpt lat="44.550297" lon="34.295021"><ele>53.0</ele><time>2011-10-13T08:21:07.0000000+00:00</time></trkpt><trkpt lat="44.550571" lon="34.295631"><ele>50.3</ele><time>2011-10-13T08:21:12.0000000+00:00</time></trkpt><trkpt lat="44.550686" lon="34.296192"><ele>48.5</ele><time>2011-10-13T08:21:17.0000000+00:00</time></trkpt><trkpt lat="44.550571" lon="34.296635"><ele>49.0</ele><time>2011-10-13T08:21:22.0000000+00:00</time></trkpt><trkpt lat="44.55051" lon="34.296967"><ele>49.9</ele><time>2011-10-13T08:21:27.0000000+00:00</time></trkpt><trkpt lat="44.550617" lon="34.297245"><ele>50.1</ele><time>2011-10-13T08:21:32.0000000+00:00</time></trkpt><trkpt lat="44.550735" lon="34.297436"><ele>51.7</ele><time>2011-10-13T08:21:37.0000000+00:00</time></trkpt><trkpt lat="44.550877" lon="34.297592"><ele>53.4</ele><time>2011-10-13T08:21:42.0000000+00:00</time></trkpt><trkpt lat="44.551064" lon="34.297783"><ele>54.4</ele><time>2011-10-13T08:21:47.0000000+00:00</time></trkpt><trkpt lat="44.551258" lon="34.297932"><ele>55.6</ele><time>2011-10-13T08:21:52.0000000+00:00</time></trkpt><trkpt lat="44.551403" lon="34.298157"><ele>57.4</ele><time>2011-10-13T08:21:57.0000000+00:00</time></trkpt><trkpt lat="44.551414" lon="34.298454"><ele>60.3</ele><time>2011-10-13T08:22:02.0000000+00:00</time></trkpt><trkpt lat="44.55146" lon="34.298752"><ele>62.2</ele><time>2011-10-13T08:22:07.0000000+00:00</time></trkpt><trkpt lat="44.551643" lon="34.298992"><ele>63.2</ele><time>2011-10-13T08:22:12.0000000+00:00</time></trkpt><trkpt lat="44.551842" lon="34.299072"><ele>64.5</ele><time>2011-10-13T08:22:17.0000000+00:00</time></trkpt><trkpt lat="44.552078" lon="34.299065"><ele>64.6</ele><time>2011-10-13T08:22:22.0000000+00:00</time></trkpt><trkpt lat="44.552307" lon="34.298992"><ele>65.4</ele><time>2011-10-13T08:22:27.0000000+00:00</time></trkpt><trkpt lat="44.552509" lon="34.29892"><ele>66.6</ele><time>2011-10-13T08:22:32.0000000+00:00</time></trkpt><trkpt lat="44.5527" lon="34.298946"><ele>70.5</ele><time>2011-10-13T08:22:37.0000000+00:00</time></trkpt><trkpt lat="44.552841" lon="34.298996"><ele>75.0</ele><time>2011-10-13T08:22:42.0000000+00:00</time></trkpt><trkpt lat="44.552944" lon="34.299019"><ele>78.9</ele><time>2011-10-13T08:22:47.0000000+00:00</time></trkpt><trkpt lat="44.553074" lon="34.299049"><ele>83.1</ele><time>2011-10-13T08:22:52.0000000+00:00</time></trkpt><trkpt lat="44.553246" lon="34.29911"><ele>84.6</ele><time>2011-10-13T08:22:57.0000000+00:00</time></trkpt><trkpt lat="44.553532" lon="34.299183"><ele>79.9</ele><time>2011-10-13T08:23:02.0000000+00:00</time></trkpt><trkpt lat="44.553699" lon="34.29908"><ele>78.5</ele><time>2011-10-13T08:23:07.0000000+00:00</time></trkpt><trkpt lat="44.553791" lon="34.298962"><ele>79.3</ele><time>2011-10-13T08:23:12.0000000+00:00</time></trkpt><trkpt lat="44.553871" lon="34.298862"><ele>78.7</ele><time>2011-10-13T08:23:17.0000000+00:00</time></trkpt><trkpt lat="44.553772" lon="34.298733"><ele>78.9</ele><time>2011-10-13T08:23:22.0000000+00:00</time></trkpt><trkpt lat="44.553642" lon="34.298538"><ele>79.2</ele><time>2011-10-13T08:23:27.0000000+00:00</time></trkpt><trkpt lat="44.5536" lon="34.298546"><ele>77.5</ele><time>2011-10-13T08:23:32.0000000+00:00</time></trkpt><trkpt lat="44.553604" lon="34.298523"><ele>77.9</ele><time>2011-10-13T08:23:37.0000000+00:00</time></trkpt><trkpt lat="44.553596" lon="34.298512"><ele>78.6</ele><time>2011-10-13T08:23:42.0000000+00:00</time></trkpt><trkpt lat="44.553589" lon="34.298496"><ele>78.9</ele><time>2011-10-13T08:23:47.0000000+00:00</time></trkpt><trkpt lat="44.553581" lon="34.298492"><ele>79.0</ele><time>2011-10-13T08:23:52.0000000+00:00</time></trkpt><trkpt lat="44.553581" lon="34.298489"><ele>78.9</ele><time>2011-10-13T08:23:57.0000000+00:00</time></trkpt><trkpt lat="44.553577" lon="34.298489"><ele>78.8</ele><time>2011-10-13T08:24:02.0000000+00:00</time></trkpt><trkpt lat="44.553574" lon="34.298492"><ele>78.9</ele><time>2011-10-13T08:24:07.0000000+00:00</time></trkpt><trkpt lat="44.553574" lon="34.298489"><ele>79.0</ele><time>2011-10-13T08:24:12.0000000+00:00</time></trkpt><trkpt lat="44.553577" lon="34.298492"><ele>78.8</ele><time>2011-10-13T08:24:17.0000000+00:00</time></trkpt><trkpt lat="44.553585" lon="34.298496"><ele>78.6</ele><time>2011-10-13T08:24:22.0000000+00:00</time></trkpt><trkpt lat="44.553593" lon="34.2985"><ele>78.5</ele><time>2011-10-13T08:24:27.0000000+00:00</time></trkpt><trkpt lat="44.5536" lon="34.298504"><ele>78.5</ele><time>2011-10-13T08:24:32.0000000+00:00</time></trkpt><trkpt lat="44.5536" lon="34.298508"><ele>78.5</ele><time>2011-10-13T08:24:37.0000000+00:00</time></trkpt><trkpt lat="44.553604" lon="34.298508"><ele>78.4</ele><time>2011-10-13T08:24:42.0000000+00:00</time></trkpt><trkpt lat="44.553608" lon="34.298508"><ele>78.4</ele><time>2011-10-13T08:24:47.0000000+00:00</time></trkpt><trkpt lat="44.553612" lon="34.298512"><ele>78.3</ele><time>2011-10-13T08:24:52.0000000+00:00</time></trkpt><trkpt lat="44.553616" lon="34.298515"><ele>78.3</ele><time>2011-10-13T08:24:57.0000000+00:00</time></trkpt><trkpt lat="44.553619" lon="34.298515"><ele>78.2</ele><time>2011-10-13T08:25:02.0000000+00:00</time></trkpt><trkpt lat="44.553627" lon="34.298519"><ele>78.2</ele><time>2011-10-13T08:25:07.0000000+00:00</time></trkpt><trkpt lat="44.553631" lon="34.298523"><ele>78.3</ele><time>2011-10-13T08:25:12.0000000+00:00</time></trkpt><trkpt lat="44.553627" lon="34.298523"><ele>78.3</ele><time>2011-10-13T08:25:17.0000000+00:00</time></trkpt><trkpt lat="44.553623" lon="34.298519"><ele>78.3</ele><time>2011-10-13T08:25:22.0000000+00:00</time></trkpt><trkpt lat="44.553616" lon="34.298515"><ele>78.2</ele><time>2011-10-13T08:25:27.0000000+00:00</time></trkpt><trkpt lat="44.5536" lon="34.298508"><ele>78.2</ele><time>2011-10-13T08:25:32.0000000+00:00</time></trkpt><trkpt lat="44.553596" lon="34.298508"><ele>78.1</ele><time>2011-10-13T08:25:37.0000000+00:00</time></trkpt><trkpt lat="44.553593" lon="34.298504"><ele>78.1</ele><time>2011-10-13T08:25:42.0000000+00:00</time></trkpt><trkpt lat="44.553593" lon="34.298504"><ele>78.1</ele><time>2011-10-13T08:25:47.0000000+00:00</time></trkpt><trkpt lat="44.553589" lon="34.2985"><ele>78.1</ele><time>2011-10-13T08:25:52.0000000+00:00</time></trkpt><trkpt lat="44.553585" lon="34.2985"><ele>78.0</ele><time>2011-10-13T08:25:57.0000000+00:00</time></trkpt><trkpt lat="44.553585" lon="34.2985"><ele>78.0</ele><time>2011-10-13T08:26:02.0000000+00:00</time></trkpt><trkpt lat="44.553585" lon="34.2985"><ele>77.9</ele><time>2011-10-13T08:26:07.0000000+00:00</time></trkpt><trkpt lat="44.553585" lon="34.2985"><ele>77.9</ele><time>2011-10-13T08:26:12.0000000+00:00</time></trkpt><trkpt lat="44.553585" lon="34.2985"><ele>77.9</ele><time>2011-10-13T08:26:17.0000000+00:00</time></trkpt><trkpt lat="44.553585" lon="34.2985"><ele>77.9</ele><time>2011-10-13T08:26:22.0000000+00:00</time></trkpt><trkpt lat="44.553585" lon="34.298504"><ele>77.9</ele><time>2011-10-13T08:26:27.0000000+00:00</time></trkpt><trkpt lat="44.553585" lon="34.298504"><ele>77.9</ele><time>2011-10-13T08:26:32.0000000+00:00</time></trkpt><trkpt lat="44.553585" lon="34.298504"><ele>77.8</ele><time>2011-10-13T08:26:37.0000000+00:00</time></trkpt><trkpt lat="44.553585" lon="34.298504"><ele>77.8</ele><time>2011-10-13T08:26:42.0000000+00:00</time></trkpt><trkpt lat="44.553585" lon="34.298504"><ele>77.8</ele><time>2011-10-13T08:26:47.0000000+00:00</time></trkpt><trkpt lat="44.553585" lon="34.298504"><ele>77.8</ele><time>2011-10-13T08:26:52.0000000+00:00</time></trkpt><trkpt lat="44.553585" lon="34.298504"><ele>77.8</ele><time>2011-10-13T08:26:57.0000000+00:00</time></trkpt><trkpt lat="44.553585" lon="34.298504"><ele>77.8</ele><time>2011-10-13T08:27:02.0000000+00:00</time></trkpt><trkpt lat="44.553585" lon="34.298504"><ele>77.8</ele><time>2011-10-13T08:27:07.0000000+00:00</time></trkpt><trkpt lat="44.553585" lon="34.298504"><ele>77.8</ele><time>2011-10-13T08:27:12.0000000+00:00</time></trkpt><trkpt lat="44.553585" lon="34.2985"><ele>77.8</ele><time>2011-10-13T08:27:17.0000000+00:00</time></trkpt><trkpt lat="44.553581" lon="34.2985"><ele>77.8</ele><time>2011-10-13T08:27:22.0000000+00:00</time></trkpt><trkpt lat="44.553581" lon="34.2985"><ele>77.8</ele><time>2011-10-13T08:27:27.0000000+00:00</time></trkpt><trkpt lat="44.553577" lon="34.298496"><ele>77.8</ele><time>2011-10-13T08:27:32.0000000+00:00</time></trkpt><trkpt lat="44.553577" lon="34.298496"><ele>77.8</ele><time>2011-10-13T08:27:37.0000000+00:00</time></trkpt><trkpt lat="44.553577" lon="34.2985"><ele>77.7</ele><time>2011-10-13T08:27:42.0000000+00:00</time></trkpt><trkpt lat="44.553577" lon="34.2985"><ele>77.7</ele><time>2011-10-13T08:27:47.0000000+00:00</time></trkpt><trkpt lat="44.553581" lon="34.2985"><ele>77.7</ele><time>2011-10-13T08:27:52.0000000+00:00</time></trkpt><trkpt lat="44.553581" lon="34.2985"><ele>77.7</ele><time>2011-10-13T08:27:57.0000000+00:00</time></trkpt><trkpt lat="44.553581" lon="34.2985"><ele>77.7</ele><time>2011-10-13T08:28:02.0000000+00:00</time></trkpt><trkpt lat="44.553581" lon="34.2985"><ele>77.7</ele><time>2011-10-13T08:28:07.0000000+00:00</time></trkpt><trkpt lat="44.553581" lon="34.2985"><ele>77.7</ele><time>2011-10-13T08:28:12.0000000+00:00</time></trkpt><trkpt lat="44.553581" lon="34.2985"><ele>77.6</ele><time>2011-10-13T08:28:17.0000000+00:00</time></trkpt><trkpt lat="44.553581" lon="34.2985"><ele>77.6</ele><time>2011-10-13T08:28:22.0000000+00:00</time></trkpt><trkpt lat="44.553581" lon="34.2985"><ele>77.6</ele><time>2011-10-13T08:28:27.0000000+00:00</time></trkpt><trkpt lat="44.553581" lon="34.2985"><ele>77.5</ele><time>2011-10-13T08:28:32.0000000+00:00</time></trkpt><trkpt lat="44.553581" lon="34.2985"><ele>77.5</ele><time>2011-10-13T08:28:37.0000000+00:00</time></trkpt><trkpt lat="44.553581" lon="34.2985"><ele>77.5</ele><time>2011-10-13T08:28:42.0000000+00:00</time></trkpt><trkpt lat="44.553581" lon="34.2985"><ele>77.5</ele><time>2011-10-13T08:28:47.0000000+00:00</time></trkpt><trkpt lat="44.553581" lon="34.2985"><ele>77.4</ele><time>2011-10-13T08:28:52.0000000+00:00</time></trkpt><trkpt lat="44.553581" lon="34.2985"><ele>77.4</ele><time>2011-10-13T08:28:57.0000000+00:00</time></trkpt><trkpt lat="44.553581" lon="34.2985"><ele>77.4</ele><time>2011-10-13T08:29:02.0000000+00:00</time></trkpt><trkpt lat="44.553581" lon="34.2985"><ele>77.4</ele><time>2011-10-13T08:29:07.0000000+00:00</time></trkpt><trkpt lat="44.553581" lon="34.2985"><ele>77.4</ele><time>2011-10-13T08:29:12.0000000+00:00</time></trkpt><trkpt lat="44.553581" lon="34.2985"><ele>77.3</ele><time>2011-10-13T08:29:17.0000000+00:00</time></trkpt><trkpt lat="44.553581" lon="34.2985"><ele>77.3</ele><time>2011-10-13T08:29:22.0000000+00:00</time></trkpt><trkpt lat="44.553581" lon="34.2985"><ele>77.3</ele><time>2011-10-13T08:29:27.0000000+00:00</time></trkpt><trkpt lat="44.553581" lon="34.2985"><ele>77.3</ele><time>2011-10-13T08:29:32.0000000+00:00</time></trkpt><trkpt lat="44.553581" lon="34.2985"><ele>77.3</ele><time>2011-10-13T08:29:37.0000000+00:00</time></trkpt><trkpt lat="44.553581" lon="34.2985"><ele>77.3</ele><time>2011-10-13T08:29:42.0000000+00:00</time></trkpt><trkpt lat="44.553581" lon="34.2985"><ele>77.3</ele><time>2011-10-13T08:29:47.0000000+00:00</time></trkpt><trkpt lat="44.553581" lon="34.2985"><ele>77.3</ele><time>2011-10-13T08:29:52.0000000+00:00</time></trkpt><trkpt lat="44.553581" lon="34.2985"><ele>77.3</ele><time>2011-10-13T08:29:57.0000000+00:00</time></trkpt><trkpt lat="44.553581" lon="34.2985"><ele>77.3</ele><time>2011-10-13T08:30:02.0000000+00:00</time></trkpt><trkpt lat="44.553581" lon="34.2985"><ele>77.3</ele><time>2011-10-13T08:30:07.0000000+00:00</time></trkpt><trkpt lat="44.553581" lon="34.2985"><ele>77.3</ele><time>2011-10-13T08:30:12.0000000+00:00</time></trkpt><trkpt lat="44.553581" lon="34.2985"><ele>77.3</ele><time>2011-10-13T08:30:17.0000000+00:00</time></trkpt><trkpt lat="44.553581" lon="34.2985"><ele>77.3</ele><time>2011-10-13T08:30:22.0000000+00:00</time></trkpt><trkpt lat="44.553581" lon="34.2985"><ele>77.3</ele><time>2011-10-13T08:30:27.0000000+00:00</time></trkpt><trkpt lat="44.553581" lon="34.2985"><ele>77.3</ele><time>2011-10-13T08:30:32.0000000+00:00</time></trkpt><trkpt lat="44.553581" lon="34.2985"><ele>77.3</ele><time>2011-10-13T08:30:37.0000000+00:00</time></trkpt><trkpt lat="44.553581" lon="34.2985"><ele>77.2</ele><time>2011-10-13T08:30:42.0000000+00:00</time></trkpt><trkpt lat="44.553581" lon="34.2985"><ele>77.2</ele><time>2011-10-13T08:30:47.0000000+00:00</time></trkpt><trkpt lat="44.553581" lon="34.2985"><ele>77.2</ele><time>2011-10-13T08:30:52.0000000+00:00</time></trkpt><trkpt lat="44.553581" lon="34.2985"><ele>77.2</ele><time>2011-10-13T08:30:57.0000000+00:00</time></trkpt><trkpt lat="44.553581" lon="34.2985"><ele>77.1</ele><time>2011-10-13T08:31:02.0000000+00:00</time></trkpt><trkpt lat="44.553581" lon="34.2985"><ele>77.1</ele><time>2011-10-13T08:31:07.0000000+00:00</time></trkpt><trkpt lat="44.553581" lon="34.2985"><ele>77.1</ele><time>2011-10-13T08:31:12.0000000+00:00</time></trkpt><trkpt lat="44.553581" lon="34.2985"><ele>77.1</ele><time>2011-10-13T08:31:17.0000000+00:00</time></trkpt><trkpt lat="44.553581" lon="34.2985"><ele>77.1</ele><time>2011-10-13T08:31:22.0000000+00:00</time></trkpt><trkpt lat="44.553581" lon="34.2985"><ele>77.0</ele><time>2011-10-13T08:31:27.0000000+00:00</time></trkpt><trkpt lat="44.553581" lon="34.2985"><ele>77.0</ele><time>2011-10-13T08:31:32.0000000+00:00</time></trkpt><trkpt lat="44.553581" lon="34.2985"><ele>77.0</ele><time>2011-10-13T08:31:37.0000000+00:00</time></trkpt><trkpt lat="44.553581" lon="34.2985"><ele>77.0</ele><time>2011-10-13T08:31:42.0000000+00:00</time></trkpt><trkpt lat="44.553581" lon="34.2985"><ele>76.9</ele><time>2011-10-13T08:31:47.0000000+00:00</time></trkpt><trkpt lat="44.553585" lon="34.2985"><ele>76.9</ele><time>2011-10-13T08:31:52.0000000+00:00</time></trkpt><trkpt lat="44.553585" lon="34.2985"><ele>76.9</ele><time>2011-10-13T08:31:57.0000000+00:00</time></trkpt><trkpt lat="44.553585" lon="34.2985"><ele>77.0</ele><time>2011-10-13T08:32:02.0000000+00:00</time></trkpt><trkpt lat="44.553585" lon="34.2985"><ele>77.0</ele><time>2011-10-13T08:32:07.0000000+00:00</time></trkpt><trkpt lat="44.553585" lon="34.2985"><ele>77.0</ele><time>2011-10-13T08:32:12.0000000+00:00</time></trkpt><trkpt lat="44.553585" lon="34.2985"><ele>77.0</ele><time>2011-10-13T08:32:17.0000000+00:00</time></trkpt><trkpt lat="44.553585" lon="34.2985"><ele>77.0</ele><time>2011-10-13T08:32:22.0000000+00:00</time></trkpt><trkpt lat="44.553585" lon="34.2985"><ele>77.0</ele><time>2011-10-13T08:32:27.0000000+00:00</time></trkpt><trkpt lat="44.553585" lon="34.2985"><ele>77.0</ele><time>2011-10-13T08:32:32.0000000+00:00</time></trkpt><trkpt lat="44.553589" lon="34.2985"><ele>77.0</ele><time>2011-10-13T08:32:37.0000000+00:00</time></trkpt><trkpt lat="44.553589" lon="34.2985"><ele>77.0</ele><time>2011-10-13T08:32:42.0000000+00:00</time></trkpt><trkpt lat="44.553589" lon="34.2985"><ele>77.0</ele><time>2011-10-13T08:32:47.0000000+00:00</time></trkpt><trkpt lat="44.553589" lon="34.2985"><ele>77.0</ele><time>2011-10-13T08:32:52.0000000+00:00</time></trkpt><trkpt lat="44.553589" lon="34.2985"><ele>77.0</ele><time>2011-10-13T08:32:57.0000000+00:00</time></trkpt><trkpt lat="44.553589" lon="34.2985"><ele>77.1</ele><time>2011-10-13T08:33:02.0000000+00:00</time></trkpt><trkpt lat="44.553589" lon="34.298504"><ele>77.1</ele><time>2011-10-13T08:33:07.0000000+00:00</time></trkpt><trkpt lat="44.553589" lon="34.298504"><ele>77.1</ele><time>2011-10-13T08:33:12.0000000+00:00</time></trkpt><trkpt lat="44.553589" lon="34.298504"><ele>77.1</ele><time>2011-10-13T08:33:17.0000000+00:00</time></trkpt><trkpt lat="44.553589" lon="34.298504"><ele>77.1</ele><time>2011-10-13T08:33:22.0000000+00:00</time></trkpt><trkpt lat="44.553589" lon="34.298504"><ele>77.1</ele><time>2011-10-13T08:33:27.0000000+00:00</time></trkpt><trkpt lat="44.553589" lon="34.298504"><ele>77.2</ele><time>2011-10-13T08:33:32.0000000+00:00</time></trkpt><trkpt lat="44.553589" lon="34.298504"><ele>77.2</ele><time>2011-10-13T08:33:37.0000000+00:00</time></trkpt><trkpt lat="44.553593" lon="34.298504"><ele>77.2</ele><time>2011-10-13T08:33:42.0000000+00:00</time></trkpt><trkpt lat="44.553593" lon="34.298504"><ele>77.2</ele><time>2011-10-13T08:33:47.0000000+00:00</time></trkpt><trkpt lat="44.553593" lon="34.298504"><ele>77.1</ele><time>2011-10-13T08:33:52.0000000+00:00</time></trkpt><trkpt lat="44.553593" lon="34.298504"><ele>77.1</ele><time>2011-10-13T08:33:57.0000000+00:00</time></trkpt><trkpt lat="44.553593" lon="34.298504"><ele>77.1</ele><time>2011-10-13T08:34:02.0000000+00:00</time></trkpt><trkpt lat="44.553593" lon="34.298504"><ele>77.1</ele><time>2011-10-13T08:34:07.0000000+00:00</time></trkpt><trkpt lat="44.553593" lon="34.298504"><ele>77.1</ele><time>2011-10-13T08:34:12.0000000+00:00</time></trkpt><trkpt lat="44.553593" lon="34.298504"><ele>77.1</ele><time>2011-10-13T08:34:17.0000000+00:00</time></trkpt><trkpt lat="44.553593" lon="34.298504"><ele>77.1</ele><time>2011-10-13T08:34:22.0000000+00:00</time></trkpt><trkpt lat="44.553593" lon="34.298504"><ele>77.0</ele><time>2011-10-13T08:34:27.0000000+00:00</time></trkpt><trkpt lat="44.553593" lon="34.298504"><ele>77.0</ele><time>2011-10-13T08:34:32.0000000+00:00</time></trkpt><trkpt lat="44.553593" lon="34.298504"><ele>77.0</ele><time>2011-10-13T08:34:37.0000000+00:00</time></trkpt><trkpt lat="44.553593" lon="34.298504"><ele>77.0</ele><time>2011-10-13T08:34:42.0000000+00:00</time></trkpt><trkpt lat="44.553593" lon="34.298504"><ele>77.0</ele><time>2011-10-13T08:34:47.0000000+00:00</time></trkpt><trkpt lat="44.553593" lon="34.298504"><ele>77.0</ele><time>2011-10-13T08:34:52.0000000+00:00</time></trkpt><trkpt lat="44.553593" lon="34.298504"><ele>76.9</ele><time>2011-10-13T08:34:57.0000000+00:00</time></trkpt><trkpt lat="44.553593" lon="34.298504"><ele>76.9</ele><time>2011-10-13T08:35:02.0000000+00:00</time></trkpt><trkpt lat="44.553593" lon="34.298504"><ele>76.9</ele><time>2011-10-13T08:35:07.0000000+00:00</time></trkpt><trkpt lat="44.553593" lon="34.298504"><ele>76.9</ele><time>2011-10-13T08:35:12.0000000+00:00</time></trkpt><trkpt lat="44.553593" lon="34.298504"><ele>76.9</ele><time>2011-10-13T08:35:17.0000000+00:00</time></trkpt><trkpt lat="44.553593" lon="34.298504"><ele>76.9</ele><time>2011-10-13T08:35:22.0000000+00:00</time></trkpt><trkpt lat="44.553593" lon="34.298504"><ele>76.8</ele><time>2011-10-13T08:35:27.0000000+00:00</time></trkpt><trkpt lat="44.553593" lon="34.298504"><ele>76.8</ele><time>2011-10-13T08:35:32.0000000+00:00</time></trkpt><trkpt lat="44.553593" lon="34.298504"><ele>76.8</ele><time>2011-10-13T08:35:37.0000000+00:00</time></trkpt><trkpt lat="44.553593" lon="34.298504"><ele>76.8</ele><time>2011-10-13T08:35:42.0000000+00:00</time></trkpt><trkpt lat="44.553593" lon="34.298504"><ele>76.8</ele><time>2011-10-13T08:35:47.0000000+00:00</time></trkpt><trkpt lat="44.553593" lon="34.298504"><ele>76.7</ele><time>2011-10-13T08:35:52.0000000+00:00</time></trkpt><trkpt lat="44.553593" lon="34.298504"><ele>76.7</ele><time>2011-10-13T08:35:57.0000000+00:00</time></trkpt><trkpt lat="44.553593" lon="34.298504"><ele>76.7</ele><time>2011-10-13T08:36:02.0000000+00:00</time></trkpt><trkpt lat="44.553593" lon="34.298508"><ele>76.7</ele><time>2011-10-13T08:36:07.0000000+00:00</time></trkpt><trkpt lat="44.553593" lon="34.298508"><ele>76.7</ele><time>2011-10-13T08:36:12.0000000+00:00</time></trkpt><trkpt lat="44.553593" lon="34.298508"><ele>76.7</ele><time>2011-10-13T08:36:17.0000000+00:00</time></trkpt><trkpt lat="44.553593" lon="34.298508"><ele>76.7</ele><time>2011-10-13T08:36:22.0000000+00:00</time></trkpt><trkpt lat="44.553593" lon="34.298508"><ele>76.7</ele><time>2011-10-13T08:36:27.0000000+00:00</time></trkpt><trkpt lat="44.553593" lon="34.298508"><ele>76.7</ele><time>2011-10-13T08:36:32.0000000+00:00</time></trkpt><trkpt lat="44.553593" lon="34.298508"><ele>76.7</ele><time>2011-10-13T08:36:37.0000000+00:00</time></trkpt><trkpt lat="44.553596" lon="34.298512"><ele>76.7</ele><time>2011-10-13T08:36:42.0000000+00:00</time></trkpt><trkpt lat="44.5536" lon="34.298512"><ele>76.7</ele><time>2011-10-13T08:36:47.0000000+00:00</time></trkpt><trkpt lat="44.553604" lon="34.298515"><ele>76.7</ele><time>2011-10-13T08:36:52.0000000+00:00</time></trkpt><trkpt lat="44.553608" lon="34.298515"><ele>76.7</ele><time>2011-10-13T08:36:57.0000000+00:00</time></trkpt><trkpt lat="44.553608" lon="34.298519"><ele>76.7</ele><time>2011-10-13T08:37:02.0000000+00:00</time></trkpt><trkpt lat="44.553612" lon="34.298519"><ele>76.7</ele><time>2011-10-13T08:37:07.0000000+00:00</time></trkpt><trkpt lat="44.553616" lon="34.298523"><ele>76.7</ele><time>2011-10-13T08:37:12.0000000+00:00</time></trkpt><trkpt lat="44.553619" lon="34.298523"><ele>76.7</ele><time>2011-10-13T08:37:17.0000000+00:00</time></trkpt><trkpt lat="44.553619" lon="34.298523"><ele>76.7</ele><time>2011-10-13T08:37:22.0000000+00:00</time></trkpt><trkpt lat="44.553619" lon="34.298523"><ele>76.7</ele><time>2011-10-13T08:37:27.0000000+00:00</time></trkpt><trkpt lat="44.553619" lon="34.298523"><ele>76.7</ele><time>2011-10-13T08:37:32.0000000+00:00</time></trkpt><trkpt lat="44.553619" lon="34.298523"><ele>76.7</ele><time>2011-10-13T08:37:37.0000000+00:00</time></trkpt><trkpt lat="44.553619" lon="34.298523"><ele>76.7</ele><time>2011-10-13T08:37:42.0000000+00:00</time></trkpt><trkpt lat="44.553619" lon="34.298523"><ele>76.7</ele><time>2011-10-13T08:37:47.0000000+00:00</time></trkpt><trkpt lat="44.553619" lon="34.298523"><ele>76.7</ele><time>2011-10-13T08:37:52.0000000+00:00</time></trkpt><trkpt lat="44.553619" lon="34.298523"><ele>76.6</ele><time>2011-10-13T08:37:57.0000000+00:00</time></trkpt><trkpt lat="44.553616" lon="34.298523"><ele>76.6</ele><time>2011-10-13T08:38:02.0000000+00:00</time></trkpt><trkpt lat="44.553616" lon="34.298523"><ele>76.6</ele><time>2011-10-13T08:38:07.0000000+00:00</time></trkpt><trkpt lat="44.553616" lon="34.298523"><ele>76.6</ele><time>2011-10-13T08:38:12.0000000+00:00</time></trkpt><trkpt lat="44.553616" lon="34.298523"><ele>76.5</ele><time>2011-10-13T08:38:17.0000000+00:00</time></trkpt><trkpt lat="44.553616" lon="34.298523"><ele>76.5</ele><time>2011-10-13T08:38:22.0000000+00:00</time></trkpt><trkpt lat="44.553616" lon="34.298523"><ele>76.5</ele><time>2011-10-13T08:38:27.0000000+00:00</time></trkpt><trkpt lat="44.553616" lon="34.298523"><ele>76.5</ele><time>2011-10-13T08:38:32.0000000+00:00</time></trkpt><trkpt lat="44.553616" lon="34.298523"><ele>76.4</ele><time>2011-10-13T08:38:37.0000000+00:00</time></trkpt><trkpt lat="44.553616" lon="34.298519"><ele>76.4</ele><time>2011-10-13T08:38:42.0000000+00:00</time></trkpt><trkpt lat="44.553616" lon="34.298519"><ele>76.4</ele><time>2011-10-13T08:38:47.0000000+00:00</time></trkpt><trkpt lat="44.553616" lon="34.298519"><ele>76.4</ele><time>2011-10-13T08:38:52.0000000+00:00</time></trkpt><trkpt lat="44.553616" lon="34.298519"><ele>76.3</ele><time>2011-10-13T08:38:57.0000000+00:00</time></trkpt><trkpt lat="44.553616" lon="34.298519"><ele>76.3</ele><time>2011-10-13T08:39:02.0000000+00:00</time></trkpt><trkpt lat="44.553616" lon="34.298519"><ele>76.3</ele><time>2011-10-13T08:39:07.0000000+00:00</time></trkpt><trkpt lat="44.553616" lon="34.298519"><ele>76.3</ele><time>2011-10-13T08:39:12.0000000+00:00</time></trkpt><trkpt lat="44.553616" lon="34.298519"><ele>76.2</ele><time>2011-10-13T08:39:17.0000000+00:00</time></trkpt><trkpt lat="44.553616" lon="34.298519"><ele>76.2</ele><time>2011-10-13T08:39:22.0000000+00:00</time></trkpt><trkpt lat="44.553616" lon="34.298519"><ele>76.2</ele><time>2011-10-13T08:39:27.0000000+00:00</time></trkpt><trkpt lat="44.553616" lon="34.298519"><ele>76.2</ele><time>2011-10-13T08:39:32.0000000+00:00</time></trkpt><trkpt lat="44.553616" lon="34.298519"><ele>76.2</ele><time>2011-10-13T08:39:37.0000000+00:00</time></trkpt><trkpt lat="44.553616" lon="34.298519"><ele>76.2</ele><time>2011-10-13T08:39:42.0000000+00:00</time></trkpt><trkpt lat="44.553616" lon="34.298519"><ele>76.2</ele><time>2011-10-13T08:39:47.0000000+00:00</time></trkpt><trkpt lat="44.553616" lon="34.298519"><ele>76.2</ele><time>2011-10-13T08:39:52.0000000+00:00</time></trkpt><trkpt lat="44.553616" lon="34.298519"><ele>76.2</ele><time>2011-10-13T08:39:57.0000000+00:00</time></trkpt><trkpt lat="44.553616" lon="34.298519"><ele>76.2</ele><time>2011-10-13T08:40:02.0000000+00:00</time></trkpt><trkpt lat="44.553616" lon="34.298519"><ele>76.2</ele><time>2011-10-13T08:40:07.0000000+00:00</time></trkpt><trkpt lat="44.553616" lon="34.298519"><ele>76.2</ele><time>2011-10-13T08:40:12.0000000+00:00</time></trkpt><trkpt lat="44.553616" lon="34.298519"><ele>76.2</ele><time>2011-10-13T08:40:17.0000000+00:00</time></trkpt><trkpt lat="44.553616" lon="34.298519"><ele>76.2</ele><time>2011-10-13T08:40:22.0000000+00:00</time></trkpt><trkpt lat="44.553616" lon="34.298519"><ele>76.2</ele><time>2011-10-13T08:40:27.0000000+00:00</time></trkpt><trkpt lat="44.553616" lon="34.298519"><ele>76.1</ele><time>2011-10-13T08:40:32.0000000+00:00</time></trkpt><trkpt lat="44.553616" lon="34.298519"><ele>76.1</ele><time>2011-10-13T08:40:37.0000000+00:00</time></trkpt><trkpt lat="44.553616" lon="34.298515"><ele>76.1</ele><time>2011-10-13T08:40:42.0000000+00:00</time></trkpt><trkpt lat="44.553616" lon="34.298515"><ele>76.1</ele><time>2011-10-13T08:40:47.0000000+00:00</time></trkpt><trkpt lat="44.553616" lon="34.298515"><ele>76.1</ele><time>2011-10-13T08:40:52.0000000+00:00</time></trkpt><trkpt lat="44.553616" lon="34.298515"><ele>76.1</ele><time>2011-10-13T08:40:57.0000000+00:00</time></trkpt><trkpt lat="44.553616" lon="34.298515"><ele>76.1</ele><time>2011-10-13T08:41:02.0000000+00:00</time></trkpt><trkpt lat="44.553616" lon="34.298515"><ele>76.1</ele><time>2011-10-13T08:41:07.0000000+00:00</time></trkpt><trkpt lat="44.553616" lon="34.298515"><ele>76.1</ele><time>2011-10-13T08:41:12.0000000+00:00</time></trkpt><trkpt lat="44.553616" lon="34.298515"><ele>76.1</ele><time>2011-10-13T08:41:17.0000000+00:00</time></trkpt><trkpt lat="44.553616" lon="34.298515"><ele>76.0</ele><time>2011-10-13T08:41:22.0000000+00:00</time></trkpt><trkpt lat="44.553616" lon="34.298515"><ele>76.0</ele><time>2011-10-13T08:41:27.0000000+00:00</time></trkpt><trkpt lat="44.553616" lon="34.298515"><ele>76.0</ele><time>2011-10-13T08:41:32.0000000+00:00</time></trkpt><trkpt lat="44.553616" lon="34.298515"><ele>76.0</ele><time>2011-10-13T08:41:37.0000000+00:00</time></trkpt><trkpt lat="44.553616" lon="34.298515"><ele>76.0</ele><time>2011-10-13T08:41:42.0000000+00:00</time></trkpt><trkpt lat="44.553616" lon="34.298515"><ele>76.0</ele><time>2011-10-13T08:41:47.0000000+00:00</time></trkpt><trkpt lat="44.553616" lon="34.298515"><ele>76.0</ele><time>2011-10-13T08:41:52.0000000+00:00</time></trkpt><trkpt lat="44.553616" lon="34.298515"><ele>76.0</ele><time>2011-10-13T08:41:57.0000000+00:00</time></trkpt><trkpt lat="44.553616" lon="34.298515"><ele>76.0</ele><time>2011-10-13T08:42:02.0000000+00:00</time></trkpt><trkpt lat="44.553616" lon="34.298515"><ele>76.0</ele><time>2011-10-13T08:42:07.0000000+00:00</time></trkpt><trkpt lat="44.553616" lon="34.298515"><ele>76.0</ele><time>2011-10-13T08:42:12.0000000+00:00</time></trkpt><trkpt lat="44.553616" lon="34.298515"><ele>76.0</ele><time>2011-10-13T08:42:17.0000000+00:00</time></trkpt><trkpt lat="44.553616" lon="34.298515"><ele>75.9</ele><time>2011-10-13T08:42:22.0000000+00:00</time></trkpt><trkpt lat="44.553616" lon="34.298512"><ele>75.9</ele><time>2011-10-13T08:42:27.0000000+00:00</time></trkpt><trkpt lat="44.553616" lon="34.298512"><ele>75.9</ele><time>2011-10-13T08:42:32.0000000+00:00</time></trkpt><trkpt lat="44.553616" lon="34.298515"><ele>75.9</ele><time>2011-10-13T08:42:37.0000000+00:00</time></trkpt><trkpt lat="44.553616" lon="34.298515"><ele>75.9</ele><time>2011-10-13T08:42:42.0000000+00:00</time></trkpt><trkpt lat="44.553616" lon="34.298515"><ele>75.9</ele><time>2011-10-13T08:42:47.0000000+00:00</time></trkpt><trkpt lat="44.553616" lon="34.298515"><ele>75.9</ele><time>2011-10-13T08:42:52.0000000+00:00</time></trkpt><trkpt lat="44.553616" lon="34.298515"><ele>75.9</ele><time>2011-10-13T08:42:57.0000000+00:00</time></trkpt><trkpt lat="44.553616" lon="34.298515"><ele>75.8</ele><time>2011-10-13T08:43:02.0000000+00:00</time></trkpt><trkpt lat="44.553616" lon="34.298512"><ele>75.8</ele><time>2011-10-13T08:43:07.0000000+00:00</time></trkpt><trkpt lat="44.553616" lon="34.298512"><ele>75.8</ele><time>2011-10-13T08:43:12.0000000+00:00</time></trkpt><trkpt lat="44.553616" lon="34.298512"><ele>75.8</ele><time>2011-10-13T08:43:17.0000000+00:00</time></trkpt><trkpt lat="44.553616" lon="34.298512"><ele>75.8</ele><time>2011-10-13T08:43:22.0000000+00:00</time></trkpt><trkpt lat="44.553616" lon="34.298512"><ele>75.8</ele><time>2011-10-13T08:43:27.0000000+00:00</time></trkpt><trkpt lat="44.553616" lon="34.298512"><ele>75.8</ele><time>2011-10-13T08:43:32.0000000+00:00</time></trkpt><trkpt lat="44.553616" lon="34.298512"><ele>75.8</ele><time>2011-10-13T08:43:37.0000000+00:00</time></trkpt><trkpt lat="44.553616" lon="34.298512"><ele>75.8</ele><time>2011-10-13T08:43:42.0000000+00:00</time></trkpt><trkpt lat="44.553616" lon="34.298512"><ele>75.8</ele><time>2011-10-13T08:43:47.0000000+00:00</time></trkpt><trkpt lat="44.553616" lon="34.298512"><ele>75.7</ele><time>2011-10-13T08:43:52.0000000+00:00</time></trkpt><trkpt lat="44.553616" lon="34.298512"><ele>75.7</ele><time>2011-10-13T08:43:57.0000000+00:00</time></trkpt><trkpt lat="44.553616" lon="34.298512"><ele>75.7</ele><time>2011-10-13T08:44:02.0000000+00:00</time></trkpt><trkpt lat="44.553616" lon="34.298512"><ele>75.7</ele><time>2011-10-13T08:44:07.0000000+00:00</time></trkpt><trkpt lat="44.553616" lon="34.298512"><ele>75.7</ele><time>2011-10-13T08:44:12.0000000+00:00</time></trkpt><trkpt lat="44.553616" lon="34.298512"><ele>75.6</ele><time>2011-10-13T08:44:17.0000000+00:00</time></trkpt><trkpt lat="44.553616" lon="34.298512"><ele>75.6</ele><time>2011-10-13T08:44:22.0000000+00:00</time></trkpt><trkpt lat="44.553616" lon="34.298512"><ele>75.6</ele><time>2011-10-13T08:44:27.0000000+00:00</time></trkpt><trkpt lat="44.553616" lon="34.298512"><ele>75.6</ele><time>2011-10-13T08:44:32.0000000+00:00</time></trkpt><trkpt lat="44.553616" lon="34.298512"><ele>75.6</ele><time>2011-10-13T08:44:37.0000000+00:00</time></trkpt><trkpt lat="44.553616" lon="34.298512"><ele>75.6</ele><time>2011-10-13T08:44:42.0000000+00:00</time></trkpt><trkpt lat="44.553616" lon="34.298512"><ele>75.6</ele><time>2011-10-13T08:44:47.0000000+00:00</time></trkpt><trkpt lat="44.553616" lon="34.298512"><ele>75.5</ele><time>2011-10-13T08:44:52.0000000+00:00</time></trkpt><trkpt lat="44.553616" lon="34.298512"><ele>75.5</ele><time>2011-10-13T08:44:57.0000000+00:00</time></trkpt><trkpt lat="44.553616" lon="34.298512"><ele>75.5</ele><time>2011-10-13T08:45:02.0000000+00:00</time></trkpt><trkpt lat="44.553616" lon="34.298512"><ele>75.5</ele><time>2011-10-13T08:45:07.0000000+00:00</time></trkpt><trkpt lat="44.553616" lon="34.298512"><ele>75.4</ele><time>2011-10-13T08:45:12.0000000+00:00</time></trkpt><trkpt lat="44.553616" lon="34.298508"><ele>75.4</ele><time>2011-10-13T08:45:17.0000000+00:00</time></trkpt><trkpt lat="44.553616" lon="34.298508"><ele>75.4</ele><time>2011-10-13T08:45:22.0000000+00:00</time></trkpt><trkpt lat="44.553616" lon="34.298508"><ele>75.4</ele><time>2011-10-13T08:45:27.0000000+00:00</time></trkpt><trkpt lat="44.553619" lon="34.298508"><ele>75.4</ele><time>2011-10-13T08:45:32.0000000+00:00</time></trkpt><trkpt lat="44.553619" lon="34.298508"><ele>75.4</ele><time>2011-10-13T08:45:37.0000000+00:00</time></trkpt><trkpt lat="44.553619" lon="34.298508"><ele>75.3</ele><time>2011-10-13T08:45:42.0000000+00:00</time></trkpt><trkpt lat="44.553619" lon="34.298508"><ele>75.3</ele><time>2011-10-13T08:45:47.0000000+00:00</time></trkpt><trkpt lat="44.553616" lon="34.298508"><ele>75.3</ele><time>2011-10-13T08:45:52.0000000+00:00</time></trkpt><trkpt lat="44.553616" lon="34.298508"><ele>75.3</ele><time>2011-10-13T08:45:57.0000000+00:00</time></trkpt><trkpt lat="44.553616" lon="34.298508"><ele>75.3</ele><time>2011-10-13T08:46:02.0000000+00:00</time></trkpt><trkpt lat="44.553616" lon="34.298504"><ele>75.3</ele><time>2011-10-13T08:46:07.0000000+00:00</time></trkpt><trkpt lat="44.553616" lon="34.298504"><ele>75.2</ele><time>2011-10-13T08:46:12.0000000+00:00</time></trkpt><trkpt lat="44.553616" lon="34.298504"><ele>75.2</ele><time>2011-10-13T08:46:17.0000000+00:00</time></trkpt><trkpt lat="44.553616" lon="34.298504"><ele>75.2</ele><time>2011-10-13T08:46:22.0000000+00:00</time></trkpt><trkpt lat="44.553619" lon="34.298504"><ele>75.2</ele><time>2011-10-13T08:46:27.0000000+00:00</time></trkpt><trkpt lat="44.553619" lon="34.298504"><ele>75.2</ele><time>2011-10-13T08:46:32.0000000+00:00</time></trkpt><trkpt lat="44.553616" lon="34.298504"><ele>75.2</ele><time>2011-10-13T08:46:37.0000000+00:00</time></trkpt><trkpt lat="44.553616" lon="34.298504"><ele>75.1</ele><time>2011-10-13T08:46:42.0000000+00:00</time></trkpt><trkpt lat="44.553616" lon="34.298504"><ele>75.1</ele><time>2011-10-13T08:46:47.0000000+00:00</time></trkpt><trkpt lat="44.553616" lon="34.298504"><ele>75.1</ele><time>2011-10-13T08:46:52.0000000+00:00</time></trkpt><trkpt lat="44.553616" lon="34.298504"><ele>75.1</ele><time>2011-10-13T08:46:57.0000000+00:00</time></trkpt><trkpt lat="44.553616" lon="34.298504"><ele>75.1</ele><time>2011-10-13T08:47:02.0000000+00:00</time></trkpt><trkpt lat="44.553616" lon="34.298504"><ele>75.0</ele><time>2011-10-13T08:47:07.0000000+00:00</time></trkpt><trkpt lat="44.553616" lon="34.298504"><ele>75.0</ele><time>2011-10-13T08:47:12.0000000+00:00</time></trkpt><trkpt lat="44.553616" lon="34.298504"><ele>75.0</ele><time>2011-10-13T08:47:17.0000000+00:00</time></trkpt><trkpt lat="44.553616" lon="34.2985"><ele>74.9</ele><time>2011-10-13T08:47:22.0000000+00:00</time></trkpt><trkpt lat="44.553616" lon="34.2985"><ele>74.9</ele><time>2011-10-13T08:47:27.0000000+00:00</time></trkpt><trkpt lat="44.553616" lon="34.2985"><ele>74.9</ele><time>2011-10-13T08:47:32.0000000+00:00</time></trkpt><trkpt lat="44.553616" lon="34.2985"><ele>74.9</ele><time>2011-10-13T08:47:37.0000000+00:00</time></trkpt><trkpt lat="44.553616" lon="34.2985"><ele>74.9</ele><time>2011-10-13T08:47:42.0000000+00:00</time></trkpt><trkpt lat="44.553616" lon="34.2985"><ele>74.9</ele><time>2011-10-13T08:47:47.0000000+00:00</time></trkpt><trkpt lat="44.553616" lon="34.2985"><ele>74.9</ele><time>2011-10-13T08:47:52.0000000+00:00</time></trkpt><trkpt lat="44.553616" lon="34.2985"><ele>74.9</ele><time>2011-10-13T08:47:57.0000000+00:00</time></trkpt><trkpt lat="44.553619" lon="34.2985"><ele>74.8</ele><time>2011-10-13T08:48:02.0000000+00:00</time></trkpt><trkpt lat="44.553619" lon="34.2985"><ele>74.8</ele><time>2011-10-13T08:48:07.0000000+00:00</time></trkpt><trkpt lat="44.553619" lon="34.2985"><ele>74.8</ele><time>2011-10-13T08:48:12.0000000+00:00</time></trkpt><trkpt lat="44.553619" lon="34.2985"><ele>74.8</ele><time>2011-10-13T08:48:17.0000000+00:00</time></trkpt><trkpt lat="44.553619" lon="34.298496"><ele>74.8</ele><time>2011-10-13T08:48:22.0000000+00:00</time></trkpt><trkpt lat="44.553619" lon="34.298496"><ele>74.9</ele><time>2011-10-13T08:48:27.0000000+00:00</time></trkpt><trkpt lat="44.553619" lon="34.298496"><ele>74.9</ele><time>2011-10-13T08:48:32.0000000+00:00</time></trkpt><trkpt lat="44.553619" lon="34.298496"><ele>74.9</ele><time>2011-10-13T08:48:37.0000000+00:00</time></trkpt><trkpt lat="44.553619" lon="34.298496"><ele>74.8</ele><time>2011-10-13T08:48:42.0000000+00:00</time></trkpt><trkpt lat="44.553619" lon="34.298496"><ele>74.8</ele><time>2011-10-13T08:48:47.0000000+00:00</time></trkpt><trkpt lat="44.553619" lon="34.298496"><ele>74.7</ele><time>2011-10-13T08:48:52.0000000+00:00</time></trkpt><trkpt lat="44.553619" lon="34.298496"><ele>74.7</ele><time>2011-10-13T08:48:57.0000000+00:00</time></trkpt><trkpt lat="44.553619" lon="34.298496"><ele>74.7</ele><time>2011-10-13T08:49:02.0000000+00:00</time></trkpt><trkpt lat="44.553619" lon="34.298496"><ele>74.7</ele><time>2011-10-13T08:49:07.0000000+00:00</time></trkpt><trkpt lat="44.553619" lon="34.298496"><ele>74.7</ele><time>2011-10-13T08:49:12.0000000+00:00</time></trkpt><trkpt lat="44.553619" lon="34.298496"><ele>74.7</ele><time>2011-10-13T08:49:17.0000000+00:00</time></trkpt><trkpt lat="44.553619" lon="34.298496"><ele>74.7</ele><time>2011-10-13T08:49:22.0000000+00:00</time></trkpt><trkpt lat="44.553619" lon="34.298496"><ele>74.7</ele><time>2011-10-13T08:49:27.0000000+00:00</time></trkpt><trkpt lat="44.553619" lon="34.298496"><ele>74.6</ele><time>2011-10-13T08:49:32.0000000+00:00</time></trkpt><trkpt lat="44.553619" lon="34.298496"><ele>74.6</ele><time>2011-10-13T08:49:37.0000000+00:00</time></trkpt><trkpt lat="44.553619" lon="34.298496"><ele>74.6</ele><time>2011-10-13T08:49:42.0000000+00:00</time></trkpt><trkpt lat="44.553619" lon="34.298496"><ele>74.6</ele><time>2011-10-13T08:49:47.0000000+00:00</time></trkpt><trkpt lat="44.553619" lon="34.298496"><ele>74.6</ele><time>2011-10-13T08:49:52.0000000+00:00</time></trkpt><trkpt lat="44.553619" lon="34.298496"><ele>74.5</ele><time>2011-10-13T08:49:57.0000000+00:00</time></trkpt><trkpt lat="44.553619" lon="34.298496"><ele>74.5</ele><time>2011-10-13T08:50:02.0000000+00:00</time></trkpt><trkpt lat="44.553619" lon="34.298496"><ele>74.5</ele><time>2011-10-13T08:50:07.0000000+00:00</time></trkpt><trkpt lat="44.553619" lon="34.298496"><ele>74.5</ele><time>2011-10-13T08:50:12.0000000+00:00</time></trkpt><trkpt lat="44.553619" lon="34.298496"><ele>74.5</ele><time>2011-10-13T08:50:17.0000000+00:00</time></trkpt><trkpt lat="44.553623" lon="34.298496"><ele>74.5</ele><time>2011-10-13T08:50:22.0000000+00:00</time></trkpt><trkpt lat="44.553623" lon="34.298496"><ele>74.5</ele><time>2011-10-13T08:50:27.0000000+00:00</time></trkpt><trkpt lat="44.553623" lon="34.298496"><ele>74.5</ele><time>2011-10-13T08:50:32.0000000+00:00</time></trkpt><trkpt lat="44.553623" lon="34.298496"><ele>74.5</ele><time>2011-10-13T08:50:37.0000000+00:00</time></trkpt><trkpt lat="44.553623" lon="34.298496"><ele>74.5</ele><time>2011-10-13T08:50:42.0000000+00:00</time></trkpt><trkpt lat="44.553623" lon="34.298496"><ele>74.4</ele><time>2011-10-13T08:50:47.0000000+00:00</time></trkpt><trkpt lat="44.553623" lon="34.298496"><ele>74.4</ele><time>2011-10-13T08:50:52.0000000+00:00</time></trkpt><trkpt lat="44.553623" lon="34.298496"><ele>74.4</ele><time>2011-10-13T08:50:57.0000000+00:00</time></trkpt><trkpt lat="44.553623" lon="34.298496"><ele>74.4</ele><time>2011-10-13T08:51:02.0000000+00:00</time></trkpt><trkpt lat="44.553623" lon="34.298496"><ele>74.4</ele><time>2011-10-13T08:51:07.0000000+00:00</time></trkpt><trkpt lat="44.553623" lon="34.298496"><ele>74.4</ele><time>2011-10-13T08:51:12.0000000+00:00</time></trkpt><trkpt lat="44.553623" lon="34.298496"><ele>74.4</ele><time>2011-10-13T08:51:17.0000000+00:00</time></trkpt><trkpt lat="44.553623" lon="34.298496"><ele>74.4</ele><time>2011-10-13T08:51:22.0000000+00:00</time></trkpt><trkpt lat="44.553623" lon="34.298496"><ele>74.4</ele><time>2011-10-13T08:51:27.0000000+00:00</time></trkpt><trkpt lat="44.553623" lon="34.298496"><ele>74.4</ele><time>2011-10-13T08:51:32.0000000+00:00</time></trkpt><trkpt lat="44.553623" lon="34.298496"><ele>74.3</ele><time>2011-10-13T08:51:37.0000000+00:00</time></trkpt><trkpt lat="44.553623" lon="34.298496"><ele>74.3</ele><time>2011-10-13T08:51:42.0000000+00:00</time></trkpt><trkpt lat="44.553623" lon="34.298496"><ele>74.3</ele><time>2011-10-13T08:51:47.0000000+00:00</time></trkpt><trkpt lat="44.553623" lon="34.298496"><ele>74.3</ele><time>2011-10-13T08:51:52.0000000+00:00</time></trkpt><trkpt lat="44.553623" lon="34.298496"><ele>74.3</ele><time>2011-10-13T08:51:57.0000000+00:00</time></trkpt><trkpt lat="44.553623" lon="34.298496"><ele>74.3</ele><time>2011-10-13T08:52:02.0000000+00:00</time></trkpt><trkpt lat="44.553623" lon="34.298496"><ele>74.3</ele><time>2011-10-13T08:52:07.0000000+00:00</time></trkpt><trkpt lat="44.553623" lon="34.298496"><ele>74.3</ele><time>2011-10-13T08:52:12.0000000+00:00</time></trkpt><trkpt lat="44.553623" lon="34.298492"><ele>74.3</ele><time>2011-10-13T08:52:17.0000000+00:00</time></trkpt><trkpt lat="44.553623" lon="34.298492"><ele>74.3</ele><time>2011-10-13T08:52:22.0000000+00:00</time></trkpt><trkpt lat="44.553623" lon="34.298492"><ele>74.3</ele><time>2011-10-13T08:52:27.0000000+00:00</time></trkpt><trkpt lat="44.553623" lon="34.298492"><ele>74.3</ele><time>2011-10-13T08:52:32.0000000+00:00</time></trkpt><trkpt lat="44.553623" lon="34.298492"><ele>74.3</ele><time>2011-10-13T08:52:37.0000000+00:00</time></trkpt><trkpt lat="44.553623" lon="34.298492"><ele>74.3</ele><time>2011-10-13T08:52:42.0000000+00:00</time></trkpt><trkpt lat="44.553623" lon="34.298492"><ele>74.2</ele><time>2011-10-13T08:52:47.0000000+00:00</time></trkpt><trkpt lat="44.553623" lon="34.298492"><ele>74.2</ele><time>2011-10-13T08:52:52.0000000+00:00</time></trkpt><trkpt lat="44.553623" lon="34.298492"><ele>74.2</ele><time>2011-10-13T08:52:57.0000000+00:00</time></trkpt><trkpt lat="44.553623" lon="34.298492"><ele>74.2</ele><time>2011-10-13T08:53:02.0000000+00:00</time></trkpt><trkpt lat="44.553623" lon="34.298492"><ele>74.2</ele><time>2011-10-13T08:53:07.0000000+00:00</time></trkpt><trkpt lat="44.553623" lon="34.298492"><ele>74.2</ele><time>2011-10-13T08:53:12.0000000+00:00</time></trkpt><trkpt lat="44.553623" lon="34.298492"><ele>74.2</ele><time>2011-10-13T08:53:17.0000000+00:00</time></trkpt><trkpt lat="44.553623" lon="34.298492"><ele>74.2</ele><time>2011-10-13T08:53:22.0000000+00:00</time></trkpt><trkpt lat="44.553623" lon="34.298492"><ele>74.2</ele><time>2011-10-13T08:53:27.0000000+00:00</time></trkpt><trkpt lat="44.553623" lon="34.298489"><ele>74.2</ele><time>2011-10-13T08:53:32.0000000+00:00</time></trkpt><trkpt lat="44.553623" lon="34.298489"><ele>74.2</ele><time>2011-10-13T08:53:37.0000000+00:00</time></trkpt><trkpt lat="44.553623" lon="34.298489"><ele>74.2</ele><time>2011-10-13T08:53:42.0000000+00:00</time></trkpt><trkpt lat="44.553623" lon="34.298489"><ele>74.2</ele><time>2011-10-13T08:53:47.0000000+00:00</time></trkpt><trkpt lat="44.553623" lon="34.298489"><ele>74.2</ele><time>2011-10-13T08:53:52.0000000+00:00</time></trkpt><trkpt lat="44.553623" lon="34.298489"><ele>74.2</ele><time>2011-10-13T08:53:57.0000000+00:00</time></trkpt><trkpt lat="44.553623" lon="34.298489"><ele>74.2</ele><time>2011-10-13T08:54:02.0000000+00:00</time></trkpt><trkpt lat="44.553623" lon="34.298489"><ele>74.3</ele><time>2011-10-13T08:54:07.0000000+00:00</time></trkpt><trkpt lat="44.553623" lon="34.298489"><ele>74.3</ele><time>2011-10-13T08:54:12.0000000+00:00</time></trkpt><trkpt lat="44.553623" lon="34.298489"><ele>74.3</ele><time>2011-10-13T08:54:17.0000000+00:00</time></trkpt><trkpt lat="44.553623" lon="34.298489"><ele>74.3</ele><time>2011-10-13T08:54:22.0000000+00:00</time></trkpt><trkpt lat="44.553623" lon="34.298489"><ele>74.3</ele><time>2011-10-13T08:54:27.0000000+00:00</time></trkpt><trkpt lat="44.553623" lon="34.298489"><ele>74.3</ele><time>2011-10-13T08:54:32.0000000+00:00</time></trkpt><trkpt lat="44.553623" lon="34.298489"><ele>74.3</ele><time>2011-10-13T08:54:37.0000000+00:00</time></trkpt><trkpt lat="44.553623" lon="34.298489"><ele>74.3</ele><time>2011-10-13T08:54:42.0000000+00:00</time></trkpt><trkpt lat="44.553623" lon="34.298489"><ele>74.3</ele><time>2011-10-13T08:54:47.0000000+00:00</time></trkpt><trkpt lat="44.553623" lon="34.298489"><ele>74.3</ele><time>2011-10-13T08:54:52.0000000+00:00</time></trkpt><trkpt lat="44.553623" lon="34.298485"><ele>74.3</ele><time>2011-10-13T08:54:57.0000000+00:00</time></trkpt><trkpt lat="44.553627" lon="34.298485"><ele>74.3</ele><time>2011-10-13T08:55:02.0000000+00:00</time></trkpt><trkpt lat="44.553627" lon="34.298485"><ele>74.4</ele><time>2011-10-13T08:55:07.0000000+00:00</time></trkpt><trkpt lat="44.553627" lon="34.298485"><ele>74.4</ele><time>2011-10-13T08:55:12.0000000+00:00</time></trkpt><trkpt lat="44.553627" lon="34.298485"><ele>74.4</ele><time>2011-10-13T08:55:17.0000000+00:00</time></trkpt><trkpt lat="44.553627" lon="34.298485"><ele>74.4</ele><time>2011-10-13T08:55:22.0000000+00:00</time></trkpt><trkpt lat="44.553627" lon="34.298485"><ele>74.4</ele><time>2011-10-13T08:55:27.0000000+00:00</time></trkpt><trkpt lat="44.553627" lon="34.298485"><ele>74.4</ele><time>2011-10-13T08:55:32.0000000+00:00</time></trkpt><trkpt lat="44.553627" lon="34.298485"><ele>74.3</ele><time>2011-10-13T08:55:37.0000000+00:00</time></trkpt><trkpt lat="44.553627" lon="34.298485"><ele>74.3</ele><time>2011-10-13T08:55:42.0000000+00:00</time></trkpt><trkpt lat="44.553627" lon="34.298485"><ele>74.3</ele><time>2011-10-13T08:55:47.0000000+00:00</time></trkpt><trkpt lat="44.553627" lon="34.298485"><ele>74.3</ele><time>2011-10-13T08:55:52.0000000+00:00</time></trkpt><trkpt lat="44.553627" lon="34.298485"><ele>74.3</ele><time>2011-10-13T08:55:57.0000000+00:00</time></trkpt><trkpt lat="44.553627" lon="34.298485"><ele>74.3</ele><time>2011-10-13T08:56:02.0000000+00:00</time></trkpt><trkpt lat="44.553627" lon="34.298485"><ele>74.3</ele><time>2011-10-13T08:56:07.0000000+00:00</time></trkpt><trkpt lat="44.553627" lon="34.298485"><ele>74.4</ele><time>2011-10-13T08:56:12.0000000+00:00</time></trkpt><trkpt lat="44.553627" lon="34.298485"><ele>74.4</ele><time>2011-10-13T08:56:17.0000000+00:00</time></trkpt><trkpt lat="44.553627" lon="34.298485"><ele>74.4</ele><time>2011-10-13T08:56:22.0000000+00:00</time></trkpt><trkpt lat="44.553627" lon="34.298485"><ele>74.4</ele><time>2011-10-13T08:56:27.0000000+00:00</time></trkpt><trkpt lat="44.553627" lon="34.298485"><ele>74.4</ele><time>2011-10-13T08:56:32.0000000+00:00</time></trkpt><trkpt lat="44.553627" lon="34.298485"><ele>74.4</ele><time>2011-10-13T08:56:37.0000000+00:00</time></trkpt><trkpt lat="44.553627" lon="34.298485"><ele>74.4</ele><time>2011-10-13T08:56:42.0000000+00:00</time></trkpt><trkpt lat="44.553627" lon="34.298485"><ele>74.5</ele><time>2011-10-13T08:56:47.0000000+00:00</time></trkpt><trkpt lat="44.553627" lon="34.298485"><ele>74.5</ele><time>2011-10-13T08:56:52.0000000+00:00</time></trkpt><trkpt lat="44.553627" lon="34.298485"><ele>74.5</ele><time>2011-10-13T08:56:57.0000000+00:00</time></trkpt><trkpt lat="44.553627" lon="34.298481"><ele>74.5</ele><time>2011-10-13T08:57:02.0000000+00:00</time></trkpt><trkpt lat="44.553627" lon="34.298481"><ele>74.5</ele><time>2011-10-13T08:57:07.0000000+00:00</time></trkpt><trkpt lat="44.553627" lon="34.298481"><ele>74.5</ele><time>2011-10-13T08:57:12.0000000+00:00</time></trkpt><trkpt lat="44.553627" lon="34.298481"><ele>74.5</ele><time>2011-10-13T08:57:17.0000000+00:00</time></trkpt><trkpt lat="44.553627" lon="34.298481"><ele>74.5</ele><time>2011-10-13T08:57:22.0000000+00:00</time></trkpt><trkpt lat="44.553627" lon="34.298481"><ele>74.5</ele><time>2011-10-13T08:57:27.0000000+00:00</time></trkpt><trkpt lat="44.553627" lon="34.298481"><ele>74.5</ele><time>2011-10-13T08:57:32.0000000+00:00</time></trkpt><trkpt lat="44.553627" lon="34.298481"><ele>74.5</ele><time>2011-10-13T08:57:37.0000000+00:00</time></trkpt><trkpt lat="44.553627" lon="34.298481"><ele>74.5</ele><time>2011-10-13T08:57:42.0000000+00:00</time></trkpt><trkpt lat="44.553627" lon="34.298481"><ele>74.5</ele><time>2011-10-13T08:57:47.0000000+00:00</time></trkpt><trkpt lat="44.553627" lon="34.298481"><ele>74.5</ele><time>2011-10-13T08:57:52.0000000+00:00</time></trkpt><trkpt lat="44.553627" lon="34.298481"><ele>74.5</ele><time>2011-10-13T08:57:57.0000000+00:00</time></trkpt><trkpt lat="44.553627" lon="34.298481"><ele>74.5</ele><time>2011-10-13T08:58:02.0000000+00:00</time></trkpt><trkpt lat="44.553627" lon="34.298481"><ele>74.5</ele><time>2011-10-13T08:58:07.0000000+00:00</time></trkpt><trkpt lat="44.553627" lon="34.298481"><ele>74.5</ele><time>2011-10-13T08:58:12.0000000+00:00</time></trkpt><trkpt lat="44.553627" lon="34.298481"><ele>74.5</ele><time>2011-10-13T08:58:17.0000000+00:00</time></trkpt><trkpt lat="44.553627" lon="34.298481"><ele>74.5</ele><time>2011-10-13T08:58:22.0000000+00:00</time></trkpt><trkpt lat="44.553627" lon="34.298481"><ele>74.5</ele><time>2011-10-13T08:58:27.0000000+00:00</time></trkpt><trkpt lat="44.553627" lon="34.298477"><ele>74.4</ele><time>2011-10-13T08:58:32.0000000+00:00</time></trkpt><trkpt lat="44.553627" lon="34.298477"><ele>74.4</ele><time>2011-10-13T08:58:37.0000000+00:00</time></trkpt><trkpt lat="44.553627" lon="34.298477"><ele>74.4</ele><time>2011-10-13T08:58:42.0000000+00:00</time></trkpt><trkpt lat="44.553627" lon="34.298477"><ele>74.4</ele><time>2011-10-13T08:58:47.0000000+00:00</time></trkpt><trkpt lat="44.553627" lon="34.298477"><ele>74.4</ele><time>2011-10-13T08:58:52.0000000+00:00</time></trkpt><trkpt lat="44.553627" lon="34.298477"><ele>74.4</ele><time>2011-10-13T08:58:57.0000000+00:00</time></trkpt><trkpt lat="44.553627" lon="34.298477"><ele>74.4</ele><time>2011-10-13T08:59:02.0000000+00:00</time></trkpt><trkpt lat="44.553627" lon="34.298477"><ele>74.4</ele><time>2011-10-13T08:59:07.0000000+00:00</time></trkpt><trkpt lat="44.553627" lon="34.298477"><ele>74.4</ele><time>2011-10-13T08:59:12.0000000+00:00</time></trkpt><trkpt lat="44.553627" lon="34.298477"><ele>74.4</ele><time>2011-10-13T08:59:17.0000000+00:00</time></trkpt><trkpt lat="44.553627" lon="34.298477"><ele>74.4</ele><time>2011-10-13T08:59:22.0000000+00:00</time></trkpt><trkpt lat="44.553627" lon="34.298477"><ele>74.4</ele><time>2011-10-13T08:59:27.0000000+00:00</time></trkpt><trkpt lat="44.553627" lon="34.298477"><ele>74.4</ele><time>2011-10-13T08:59:32.0000000+00:00</time></trkpt><trkpt lat="44.553627" lon="34.298477"><ele>74.4</ele><time>2011-10-13T08:59:37.0000000+00:00</time></trkpt><trkpt lat="44.553627" lon="34.298477"><ele>74.4</ele><time>2011-10-13T08:59:42.0000000+00:00</time></trkpt><trkpt lat="44.553627" lon="34.298477"><ele>74.4</ele><time>2011-10-13T08:59:47.0000000+00:00</time></trkpt><trkpt lat="44.553627" lon="34.298477"><ele>74.4</ele><time>2011-10-13T08:59:52.0000000+00:00</time></trkpt><trkpt lat="44.553627" lon="34.298477"><ele>74.4</ele><time>2011-10-13T08:59:57.0000000+00:00</time></trkpt><trkpt lat="44.553627" lon="34.298477"><ele>74.4</ele><time>2011-10-13T09:00:02.0000000+00:00</time></trkpt><trkpt lat="44.553627" lon="34.298473"><ele>74.5</ele><time>2011-10-13T09:00:07.0000000+00:00</time></trkpt><trkpt lat="44.553627" lon="34.298473"><ele>74.5</ele><time>2011-10-13T09:00:12.0000000+00:00</time></trkpt><trkpt lat="44.553627" lon="34.298473"><ele>74.5</ele><time>2011-10-13T09:00:17.0000000+00:00</time></trkpt><trkpt lat="44.553627" lon="34.298473"><ele>74.5</ele><time>2011-10-13T09:00:22.0000000+00:00</time></trkpt><trkpt lat="44.553627" lon="34.298473"><ele>74.5</ele><time>2011-10-13T09:00:27.0000000+00:00</time></trkpt><trkpt lat="44.553627" lon="34.298473"><ele>74.5</ele><time>2011-10-13T09:00:32.0000000+00:00</time></trkpt><trkpt lat="44.553627" lon="34.298473"><ele>74.5</ele><time>2011-10-13T09:00:37.0000000+00:00</time></trkpt><trkpt lat="44.553627" lon="34.298473"><ele>74.5</ele><time>2011-10-13T09:00:42.0000000+00:00</time></trkpt><trkpt lat="44.553627" lon="34.29847"><ele>74.6</ele><time>2011-10-13T09:00:47.0000000+00:00</time></trkpt><trkpt lat="44.553627" lon="34.298473"><ele>74.6</ele><time>2011-10-13T09:00:52.0000000+00:00</time></trkpt><trkpt lat="44.553623" lon="34.298477"><ele>74.5</ele><time>2011-10-13T09:00:57.0000000+00:00</time></trkpt><trkpt lat="44.553623" lon="34.298477"><ele>74.5</ele><time>2011-10-13T09:01:02.0000000+00:00</time></trkpt><trkpt lat="44.553623" lon="34.298477"><ele>74.5</ele><time>2011-10-13T09:01:07.0000000+00:00</time></trkpt><trkpt lat="44.553635" lon="34.298492"><ele>74.6</ele><time>2011-10-13T09:01:12.0000000+00:00</time></trkpt><trkpt lat="44.553635" lon="34.298492"><ele>74.8</ele><time>2011-10-13T09:01:17.0000000+00:00</time></trkpt><trkpt lat="44.553635" lon="34.298492"><ele>74.8</ele><time>2011-10-13T09:01:22.0000000+00:00</time></trkpt><trkpt lat="44.553635" lon="34.298492"><ele>74.8</ele><time>2011-10-13T09:01:27.0000000+00:00</time></trkpt><trkpt lat="44.553635" lon="34.298492"><ele>74.9</ele><time>2011-10-13T09:01:32.0000000+00:00</time></trkpt><trkpt lat="44.553635" lon="34.298492"><ele>74.9</ele><time>2011-10-13T09:01:37.0000000+00:00</time></trkpt><trkpt lat="44.553635" lon="34.298492"><ele>74.9</ele><time>2011-10-13T09:01:42.0000000+00:00</time></trkpt><trkpt lat="44.553635" lon="34.298489"><ele>74.9</ele><time>2011-10-13T09:01:47.0000000+00:00</time></trkpt><trkpt lat="44.55365" lon="34.298416"><ele>73.1</ele><time>2011-10-13T09:01:52.0000000+00:00</time></trkpt><trkpt lat="44.553616" lon="34.298351"><ele>72.3</ele><time>2011-10-13T09:01:57.0000000+00:00</time></trkpt><trkpt lat="44.553543" lon="34.298237"><ele>70.9</ele><time>2011-10-13T09:02:02.0000000+00:00</time></trkpt><trkpt lat="44.553524" lon="34.298214"><ele>70.1</ele><time>2011-10-13T09:02:07.0000000+00:00</time></trkpt><trkpt lat="44.553467" lon="34.29813"><ele>69.8</ele><time>2011-10-13T09:02:12.0000000+00:00</time></trkpt><trkpt lat="44.553383" lon="34.298027"><ele>69.9</ele><time>2011-10-13T09:02:17.0000000+00:00</time></trkpt><trkpt lat="44.553204" lon="34.297874"><ele>69.3</ele><time>2011-10-13T09:02:22.0000000+00:00</time></trkpt><trkpt lat="44.553108" lon="34.29776"><ele>70.9</ele><time>2011-10-13T09:02:27.0000000+00:00</time></trkpt><trkpt lat="44.553028" lon="34.297665"><ele>72.0</ele><time>2011-10-13T09:02:32.0000000+00:00</time></trkpt><trkpt lat="44.552948" lon="34.297588"><ele>72.1</ele><time>2011-10-13T09:02:37.0000000+00:00</time></trkpt><trkpt lat="44.552876" lon="34.297531"><ele>72.9</ele><time>2011-10-13T09:02:42.0000000+00:00</time></trkpt><trkpt lat="44.552845" lon="34.297459"><ele>73.8</ele><time>2011-10-13T09:02:47.0000000+00:00</time></trkpt><trkpt lat="44.552814" lon="34.297375"><ele>78.1</ele><time>2011-10-13T09:02:52.0000000+00:00</time></trkpt><trkpt lat="44.552837" lon="34.297302"><ele>80.5</ele><time>2011-10-13T09:02:57.0000000+00:00</time></trkpt><trkpt lat="44.552891" lon="34.297203"><ele>80.6</ele><time>2011-10-13T09:03:02.0000000+00:00</time></trkpt><trkpt lat="44.552956" lon="34.2971"><ele>79.6</ele><time>2011-10-13T09:03:07.0000000+00:00</time></trkpt><trkpt lat="44.553017" lon="34.297016"><ele>79.8</ele><time>2011-10-13T09:03:12.0000000+00:00</time></trkpt><trkpt lat="44.553078" lon="34.296947"><ele>80.3</ele><time>2011-10-13T09:03:17.0000000+00:00</time></trkpt><trkpt lat="44.553127" lon="34.296871"><ele>81.2</ele><time>2011-10-13T09:03:22.0000000+00:00</time></trkpt><trkpt lat="44.553181" lon="34.296825"><ele>81.8</ele><time>2011-10-13T09:03:27.0000000+00:00</time></trkpt><trkpt lat="44.553215" lon="34.296749"><ele>82.6</ele><time>2011-10-13T09:03:32.0000000+00:00</time></trkpt><trkpt lat="44.553246" lon="34.296673"><ele>83.5</ele><time>2011-10-13T09:03:37.0000000+00:00</time></trkpt><trkpt lat="44.553276" lon="34.2966"><ele>85.2</ele><time>2011-10-13T09:03:42.0000000+00:00</time></trkpt><trkpt lat="44.553303" lon="34.296528"><ele>86.5</ele><time>2011-10-13T09:03:47.0000000+00:00</time></trkpt><trkpt lat="44.553333" lon="34.296471"><ele>88.0</ele><time>2011-10-13T09:03:52.0000000+00:00</time></trkpt><trkpt lat="44.553349" lon="34.296406"><ele>90.1</ele><time>2011-10-13T09:03:57.0000000+00:00</time></trkpt><trkpt lat="44.553387" lon="34.296307"><ele>91.3</ele><time>2011-10-13T09:04:02.0000000+00:00</time></trkpt><trkpt lat="44.553391" lon="34.296215"><ele>94.8</ele><time>2011-10-13T09:04:07.0000000+00:00</time></trkpt><trkpt lat="44.553391" lon="34.29615"><ele>98.8</ele><time>2011-10-13T09:04:12.0000000+00:00</time></trkpt><trkpt lat="44.55341" lon="34.296062"><ele>101.3</ele><time>2011-10-13T09:04:17.0000000+00:00</time></trkpt><trkpt lat="44.55344" lon="34.295967"><ele>103.9</ele><time>2011-10-13T09:04:22.0000000+00:00</time></trkpt><trkpt lat="44.553474" lon="34.295868"><ele>105.3</ele><time>2011-10-13T09:04:27.0000000+00:00</time></trkpt><trkpt lat="44.553524" lon="34.295765"><ele>104.3</ele><time>2011-10-13T09:04:32.0000000+00:00</time></trkpt><trkpt lat="44.553543" lon="34.295654"><ele>104.5</ele><time>2011-10-13T09:04:37.0000000+00:00</time></trkpt><trkpt lat="44.553547" lon="34.295525"><ele>104.9</ele><time>2011-10-13T09:04:42.0000000+00:00</time></trkpt><trkpt lat="44.553547" lon="34.295406"><ele>105.3</ele><time>2011-10-13T09:04:47.0000000+00:00</time></trkpt><trkpt lat="44.55352" lon="34.295235"><ele>102.6</ele><time>2011-10-13T09:04:52.0000000+00:00</time></trkpt><trkpt lat="44.553482" lon="34.295097"><ele>102.0</ele><time>2011-10-13T09:04:57.0000000+00:00</time></trkpt><trkpt lat="44.553429" lon="34.294979"><ele>102.3</ele><time>2011-10-13T09:05:02.0000000+00:00</time></trkpt><trkpt lat="44.553406" lon="34.294853"><ele>100.9</ele><time>2011-10-13T09:05:07.0000000+00:00</time></trkpt><trkpt lat="44.553349" lon="34.29472"><ele>101.1</ele><time>2011-10-13T09:05:12.0000000+00:00</time></trkpt><trkpt lat="44.55328" lon="34.294563"><ele>101.9</ele><time>2011-10-13T09:05:17.0000000+00:00</time></trkpt><trkpt lat="44.553215" lon="34.294422"><ele>102.6</ele><time>2011-10-13T09:05:22.0000000+00:00</time></trkpt><trkpt lat="44.553135" lon="34.294304"><ele>104.1</ele><time>2011-10-13T09:05:27.0000000+00:00</time></trkpt><trkpt lat="44.55307" lon="34.294189"><ele>103.9</ele><time>2011-10-13T09:05:32.0000000+00:00</time></trkpt><trkpt lat="44.552998" lon="34.294071"><ele>103.9</ele><time>2011-10-13T09:05:37.0000000+00:00</time></trkpt><trkpt lat="44.552937" lon="34.293968"><ele>105.0</ele><time>2011-10-13T09:05:42.0000000+00:00</time></trkpt><trkpt lat="44.552879" lon="34.29385"><ele>104.9</ele><time>2011-10-13T09:05:47.0000000+00:00</time></trkpt><trkpt lat="44.552826" lon="34.293739"><ele>106.2</ele><time>2011-10-13T09:05:52.0000000+00:00</time></trkpt><trkpt lat="44.552795" lon="34.293617"><ele>106.2</ele><time>2011-10-13T09:05:57.0000000+00:00</time></trkpt><trkpt lat="44.552773" lon="34.293484"><ele>107.6</ele><time>2011-10-13T09:06:02.0000000+00:00</time></trkpt><trkpt lat="44.552765" lon="34.293388"><ele>108.5</ele><time>2011-10-13T09:06:07.0000000+00:00</time></trkpt><trkpt lat="44.552788" lon="34.293308"><ele>110.4</ele><time>2011-10-13T09:06:12.0000000+00:00</time></trkpt><trkpt lat="44.552811" lon="34.293217"><ele>112.7</ele><time>2011-10-13T09:06:17.0000000+00:00</time></trkpt><trkpt lat="44.552845" lon="34.293118"><ele>114.2</ele><time>2011-10-13T09:06:22.0000000+00:00</time></trkpt><trkpt lat="44.552895" lon="34.29303"><ele>115.9</ele><time>2011-10-13T09:06:27.0000000+00:00</time></trkpt><trkpt lat="44.552948" lon="34.29295"><ele>117.2</ele><time>2011-10-13T09:06:32.0000000+00:00</time></trkpt><trkpt lat="44.553005" lon="34.292873"><ele>119.2</ele><time>2011-10-13T09:06:37.0000000+00:00</time></trkpt><trkpt lat="44.55307" lon="34.292767"><ele>119.5</ele><time>2011-10-13T09:06:42.0000000+00:00</time></trkpt><trkpt lat="44.553123" lon="34.292675"><ele>120.0</ele><time>2011-10-13T09:06:47.0000000+00:00</time></trkpt><trkpt lat="44.553169" lon="34.292583"><ele>121.4</ele><time>2011-10-13T09:06:52.0000000+00:00</time></trkpt><trkpt lat="44.553211" lon="34.29248"><ele>121.9</ele><time>2011-10-13T09:06:57.0000000+00:00</time></trkpt><trkpt lat="44.553249" lon="34.292385"><ele>123.2</ele><time>2011-10-13T09:07:02.0000000+00:00</time></trkpt><trkpt lat="44.55328" lon="34.292282"><ele>123.9</ele><time>2011-10-13T09:07:07.0000000+00:00</time></trkpt><trkpt lat="44.553295" lon="34.292175"><ele>124.7</ele><time>2011-10-13T09:07:12.0000000+00:00</time></trkpt><trkpt lat="44.553322" lon="34.292065"><ele>126.0</ele><time>2011-10-13T09:07:17.0000000+00:00</time></trkpt><trkpt lat="44.553341" lon="34.291939"><ele>127.0</ele><time>2011-10-13T09:07:22.0000000+00:00</time></trkpt><trkpt lat="44.553371" lon="34.291828"><ele>128.0</ele><time>2011-10-13T09:07:27.0000000+00:00</time></trkpt><trkpt lat="44.553402" lon="34.291706"><ele>127.2</ele><time>2011-10-13T09:07:32.0000000+00:00</time></trkpt><trkpt lat="44.55341" lon="34.291584"><ele>128.5</ele><time>2011-10-13T09:07:37.0000000+00:00</time></trkpt><trkpt lat="44.55344" lon="34.291447"><ele>129.6</ele><time>2011-10-13T09:07:42.0000000+00:00</time></trkpt><trkpt lat="44.553463" lon="34.291317"><ele>130.8</ele><time>2011-10-13T09:07:47.0000000+00:00</time></trkpt><trkpt lat="44.553493" lon="34.291191"><ele>132.0</ele><time>2011-10-13T09:07:52.0000000+00:00</time></trkpt><trkpt lat="44.553547" lon="34.291073"><ele>131.9</ele><time>2011-10-13T09:07:57.0000000+00:00</time></trkpt><trkpt lat="44.553608" lon="34.290993"><ele>133.3</ele><time>2011-10-13T09:08:02.0000000+00:00</time></trkpt><trkpt lat="44.553673" lon="34.290909"><ele>134.8</ele><time>2011-10-13T09:08:07.0000000+00:00</time></trkpt><trkpt lat="44.553745" lon="34.290825"><ele>134.8</ele><time>2011-10-13T09:08:12.0000000+00:00</time></trkpt><trkpt lat="44.553829" lon="34.290745"><ele>135.6</ele><time>2011-10-13T09:08:17.0000000+00:00</time></trkpt><trkpt lat="44.553905" lon="34.290688"><ele>136.7</ele><time>2011-10-13T09:08:22.0000000+00:00</time></trkpt><trkpt lat="44.553997" lon="34.290642"><ele>137.5</ele><time>2011-10-13T09:08:27.0000000+00:00</time></trkpt><trkpt lat="44.554096" lon="34.290642"><ele>138.5</ele><time>2011-10-13T09:08:32.0000000+00:00</time></trkpt><trkpt lat="44.554195" lon="34.290653"><ele>137.7</ele><time>2011-10-13T09:08:37.0000000+00:00</time></trkpt><trkpt lat="44.554279" lon="34.290646"><ele>138.8</ele><time>2011-10-13T09:08:42.0000000+00:00</time></trkpt><trkpt lat="44.554348" lon="34.290638"><ele>140.1</ele><time>2011-10-13T09:08:47.0000000+00:00</time></trkpt><trkpt lat="44.55439" lon="34.290623"><ele>146.1</ele><time>2011-10-13T09:08:52.0000000+00:00</time></trkpt><trkpt lat="44.554474" lon="34.290607"><ele>146.8</ele><time>2011-10-13T09:08:57.0000000+00:00</time></trkpt><trkpt lat="44.554562" lon="34.290577"><ele>148.3</ele><time>2011-10-13T09:09:02.0000000+00:00</time></trkpt><trkpt lat="44.554649" lon="34.29055"><ele>147.4</ele><time>2011-10-13T09:09:07.0000000+00:00</time></trkpt><trkpt lat="44.554718" lon="34.290489"><ele>147.5</ele><time>2011-10-13T09:09:12.0000000+00:00</time></trkpt><trkpt lat="44.55479" lon="34.290424"><ele>148.7</ele><time>2011-10-13T09:09:17.0000000+00:00</time></trkpt><trkpt lat="44.554863" lon="34.290352"><ele>149.9</ele><time>2011-10-13T09:09:22.0000000+00:00</time></trkpt><trkpt lat="44.554935" lon="34.29026"><ele>150.7</ele><time>2011-10-13T09:09:27.0000000+00:00</time></trkpt><trkpt lat="44.555008" lon="34.290161"><ele>151.5</ele><time>2011-10-13T09:09:32.0000000+00:00</time></trkpt><trkpt lat="44.555058" lon="34.290089"><ele>152.6</ele><time>2011-10-13T09:09:37.0000000+00:00</time></trkpt><trkpt lat="44.555122" lon="34.290012"><ele>154.2</ele><time>2011-10-13T09:09:42.0000000+00:00</time></trkpt><trkpt lat="44.555191" lon="34.289917"><ele>155.5</ele><time>2011-10-13T09:09:47.0000000+00:00</time></trkpt><trkpt lat="44.555248" lon="34.289825"><ele>158.0</ele><time>2011-10-13T09:09:52.0000000+00:00</time></trkpt><trkpt lat="44.555298" lon="34.289757"><ele>158.3</ele><time>2011-10-13T09:09:57.0000000+00:00</time></trkpt><trkpt lat="44.555355" lon="34.289688"><ele>158.4</ele><time>2011-10-13T09:10:02.0000000+00:00</time></trkpt><trkpt lat="44.555412" lon="34.289639"><ele>158.9</ele><time>2011-10-13T09:10:07.0000000+00:00</time></trkpt><trkpt lat="44.555477" lon="34.289604"><ele>159.7</ele><time>2011-10-13T09:10:12.0000000+00:00</time></trkpt><trkpt lat="44.555546" lon="34.289581"><ele>160.9</ele><time>2011-10-13T09:10:17.0000000+00:00</time></trkpt><trkpt lat="44.555618" lon="34.289581"><ele>160.9</ele><time>2011-10-13T09:10:22.0000000+00:00</time></trkpt><trkpt lat="44.555687" lon="34.2896"><ele>161.3</ele><time>2011-10-13T09:10:27.0000000+00:00</time></trkpt><trkpt lat="44.555752" lon="34.289623"><ele>162.3</ele><time>2011-10-13T09:10:32.0000000+00:00</time></trkpt><trkpt lat="44.555805" lon="34.289661"><ele>162.7</ele><time>2011-10-13T09:10:37.0000000+00:00</time></trkpt><trkpt lat="44.555862" lon="34.289692"><ele>163.3</ele><time>2011-10-13T09:10:42.0000000+00:00</time></trkpt><trkpt lat="44.555916" lon="34.28973"><ele>163.5</ele><time>2011-10-13T09:10:47.0000000+00:00</time></trkpt><trkpt lat="44.555969" lon="34.289768"><ele>164.2</ele><time>2011-10-13T09:10:52.0000000+00:00</time></trkpt><trkpt lat="44.55603" lon="34.289814"><ele>164.9</ele><time>2011-10-13T09:10:57.0000000+00:00</time></trkpt><trkpt lat="44.556091" lon="34.289864"><ele>165.7</ele><time>2011-10-13T09:11:02.0000000+00:00</time></trkpt><trkpt lat="44.556145" lon="34.289894"><ele>166.7</ele><time>2011-10-13T09:11:07.0000000+00:00</time></trkpt><trkpt lat="44.556187" lon="34.28994"><ele>168.0</ele><time>2011-10-13T09:11:12.0000000+00:00</time></trkpt><trkpt lat="44.556252" lon="34.289986"><ele>169.4</ele><time>2011-10-13T09:11:17.0000000+00:00</time></trkpt><trkpt lat="44.556309" lon="34.290024"><ele>170.4</ele><time>2011-10-13T09:11:22.0000000+00:00</time></trkpt><trkpt lat="44.556355" lon="34.290054"><ele>171.0</ele><time>2011-10-13T09:11:27.0000000+00:00</time></trkpt><trkpt lat="44.556416" lon="34.29007"><ele>171.8</ele><time>2011-10-13T09:11:32.0000000+00:00</time></trkpt><trkpt lat="44.556454" lon="34.2901"><ele>172.7</ele><time>2011-10-13T09:11:37.0000000+00:00</time></trkpt><trkpt lat="44.556492" lon="34.290131"><ele>174.3</ele><time>2011-10-13T09:11:42.0000000+00:00</time></trkpt><trkpt lat="44.556549" lon="34.290169"><ele>175.1</ele><time>2011-10-13T09:11:47.0000000+00:00</time></trkpt><trkpt lat="44.556587" lon="34.290207"><ele>176.8</ele><time>2011-10-13T09:11:52.0000000+00:00</time></trkpt><trkpt lat="44.55666" lon="34.290241"><ele>178.5</ele><time>2011-10-13T09:11:57.0000000+00:00</time></trkpt><trkpt lat="44.556728" lon="34.290264"><ele>180.1</ele><time>2011-10-13T09:12:02.0000000+00:00</time></trkpt><trkpt lat="44.556801" lon="34.290314"><ele>179.9</ele><time>2011-10-13T09:12:07.0000000+00:00</time></trkpt><trkpt lat="44.556877" lon="34.290352"><ele>180.5</ele><time>2011-10-13T09:12:12.0000000+00:00</time></trkpt><trkpt lat="44.556957" lon="34.290409"><ele>181.4</ele><time>2011-10-13T09:12:17.0000000+00:00</time></trkpt><trkpt lat="44.55703" lon="34.290474"><ele>181.0</ele><time>2011-10-13T09:12:22.0000000+00:00</time></trkpt><trkpt lat="44.557083" lon="34.29052"><ele>180.5</ele><time>2011-10-13T09:12:27.0000000+00:00</time></trkpt><trkpt lat="44.557121" lon="34.290535"><ele>180.5</ele><time>2011-10-13T09:12:32.0000000+00:00</time></trkpt><trkpt lat="44.557163" lon="34.290581"><ele>180.8</ele><time>2011-10-13T09:12:37.0000000+00:00</time></trkpt><trkpt lat="44.557228" lon="34.290619"><ele>181.0</ele><time>2011-10-13T09:12:42.0000000+00:00</time></trkpt><trkpt lat="44.557301" lon="34.290661"><ele>181.1</ele><time>2011-10-13T09:12:47.0000000+00:00</time></trkpt><trkpt lat="44.557373" lon="34.290699"><ele>181.4</ele><time>2011-10-13T09:12:52.0000000+00:00</time></trkpt><trkpt lat="44.557453" lon="34.290741"><ele>181.5</ele><time>2011-10-13T09:12:57.0000000+00:00</time></trkpt><trkpt lat="44.557529" lon="34.290791"><ele>181.9</ele><time>2011-10-13T09:13:02.0000000+00:00</time></trkpt><trkpt lat="44.557613" lon="34.290848"><ele>182.3</ele><time>2011-10-13T09:13:07.0000000+00:00</time></trkpt><trkpt lat="44.55769" lon="34.290901"><ele>183.1</ele><time>2011-10-13T09:13:12.0000000+00:00</time></trkpt><trkpt lat="44.557762" lon="34.290943"><ele>184.1</ele><time>2011-10-13T09:13:17.0000000+00:00</time></trkpt><trkpt lat="44.557835" lon="34.290981"><ele>184.9</ele><time>2011-10-13T09:13:22.0000000+00:00</time></trkpt><trkpt lat="44.557915" lon="34.291019"><ele>185.5</ele><time>2011-10-13T09:13:27.0000000+00:00</time></trkpt><trkpt lat="44.557995" lon="34.291061"><ele>186.6</ele><time>2011-10-13T09:13:32.0000000+00:00</time></trkpt><trkpt lat="44.558071" lon="34.2911"><ele>187.5</ele><time>2011-10-13T09:13:37.0000000+00:00</time></trkpt><trkpt lat="44.558147" lon="34.291119"><ele>188.6</ele><time>2011-10-13T09:13:42.0000000+00:00</time></trkpt><trkpt lat="44.558228" lon="34.291142"><ele>189.4</ele><time>2011-10-13T09:13:47.0000000+00:00</time></trkpt><trkpt lat="44.558311" lon="34.291149"><ele>190.3</ele><time>2011-10-13T09:13:52.0000000+00:00</time></trkpt><trkpt lat="44.558376" lon="34.291126"><ele>191.6</ele><time>2011-10-13T09:13:57.0000000+00:00</time></trkpt><trkpt lat="44.558456" lon="34.291142"><ele>192.4</ele><time>2011-10-13T09:14:02.0000000+00:00</time></trkpt><trkpt lat="44.558525" lon="34.291134"><ele>193.3</ele><time>2011-10-13T09:14:07.0000000+00:00</time></trkpt><trkpt lat="44.558613" lon="34.291126"><ele>193.9</ele><time>2011-10-13T09:14:12.0000000+00:00</time></trkpt><trkpt lat="44.558697" lon="34.291134"><ele>194.4</ele><time>2011-10-13T09:14:17.0000000+00:00</time></trkpt><trkpt lat="44.558777" lon="34.291134"><ele>194.8</ele><time>2011-10-13T09:14:22.0000000+00:00</time></trkpt><trkpt lat="44.558853" lon="34.29113"><ele>195.6</ele><time>2011-10-13T09:14:27.0000000+00:00</time></trkpt><trkpt lat="44.558929" lon="34.291134"><ele>196.2</ele><time>2011-10-13T09:14:32.0000000+00:00</time></trkpt><trkpt lat="44.559013" lon="34.29113"><ele>196.7</ele><time>2011-10-13T09:14:37.0000000+00:00</time></trkpt><trkpt lat="44.55909" lon="34.291122"><ele>197.2</ele><time>2011-10-13T09:14:42.0000000+00:00</time></trkpt><trkpt lat="44.559151" lon="34.291115"><ele>197.6</ele><time>2011-10-13T09:14:47.0000000+00:00</time></trkpt><trkpt lat="44.559238" lon="34.291088"><ele>198.0</ele><time>2011-10-13T09:14:52.0000000+00:00</time></trkpt><trkpt lat="44.559265" lon="34.291084"><ele>198.3</ele><time>2011-10-13T09:14:57.0000000+00:00</time></trkpt><trkpt lat="44.559284" lon="34.291073"><ele>198.5</ele><time>2011-10-13T09:15:02.0000000+00:00</time></trkpt><trkpt lat="44.559353" lon="34.29105"><ele>200.0</ele><time>2011-10-13T09:15:07.0000000+00:00</time></trkpt><trkpt lat="44.559422" lon="34.290962"><ele>200.9</ele><time>2011-10-13T09:15:12.0000000+00:00</time></trkpt><trkpt lat="44.559498" lon="34.290939"><ele>201.7</ele><time>2011-10-13T09:15:17.0000000+00:00</time></trkpt><trkpt lat="44.559586" lon="34.290924"><ele>202.6</ele><time>2011-10-13T09:15:22.0000000+00:00</time></trkpt><trkpt lat="44.559658" lon="34.290874"><ele>203.3</ele><time>2011-10-13T09:15:27.0000000+00:00</time></trkpt><trkpt lat="44.559677" lon="34.290787"><ele>204.2</ele><time>2011-10-13T09:15:32.0000000+00:00</time></trkpt><trkpt lat="44.559669" lon="34.290768"><ele>205.2</ele><time>2011-10-13T09:15:37.0000000+00:00</time></trkpt><trkpt lat="44.559673" lon="34.290756"><ele>205.3</ele><time>2011-10-13T09:15:42.0000000+00:00</time></trkpt><trkpt lat="44.559669" lon="34.290741"><ele>205.4</ele><time>2011-10-13T09:15:47.0000000+00:00</time></trkpt><trkpt lat="44.559673" lon="34.290737"><ele>205.2</ele><time>2011-10-13T09:15:52.0000000+00:00</time></trkpt><trkpt lat="44.559673" lon="34.290737"><ele>205.2</ele><time>2011-10-13T09:15:57.0000000+00:00</time></trkpt><trkpt lat="44.559673" lon="34.290737"><ele>205.2</ele><time>2011-10-13T09:16:02.0000000+00:00</time></trkpt><trkpt lat="44.559673" lon="34.290737"><ele>205.2</ele><time>2011-10-13T09:16:07.0000000+00:00</time></trkpt><trkpt lat="44.559673" lon="34.290737"><ele>205.2</ele><time>2011-10-13T09:16:12.0000000+00:00</time></trkpt><trkpt lat="44.559673" lon="34.290737"><ele>205.2</ele><time>2011-10-13T09:16:17.0000000+00:00</time></trkpt><trkpt lat="44.559673" lon="34.290737"><ele>205.3</ele><time>2011-10-13T09:16:22.0000000+00:00</time></trkpt><trkpt lat="44.559673" lon="34.290737"><ele>205.3</ele><time>2011-10-13T09:16:27.0000000+00:00</time></trkpt><trkpt lat="44.559673" lon="34.290737"><ele>205.3</ele><time>2011-10-13T09:16:32.0000000+00:00</time></trkpt><trkpt lat="44.559673" lon="34.290737"><ele>205.3</ele><time>2011-10-13T09:16:37.0000000+00:00</time></trkpt><trkpt lat="44.559673" lon="34.290737"><ele>205.3</ele><time>2011-10-13T09:16:42.0000000+00:00</time></trkpt><trkpt lat="44.559673" lon="34.290737"><ele>205.2</ele><time>2011-10-13T09:16:47.0000000+00:00</time></trkpt><trkpt lat="44.559673" lon="34.290737"><ele>205.2</ele><time>2011-10-13T09:16:52.0000000+00:00</time></trkpt><trkpt lat="44.559673" lon="34.290737"><ele>205.2</ele><time>2011-10-13T09:16:57.0000000+00:00</time></trkpt><trkpt lat="44.559673" lon="34.290737"><ele>205.2</ele><time>2011-10-13T09:17:02.0000000+00:00</time></trkpt><trkpt lat="44.559673" lon="34.290737"><ele>205.2</ele><time>2011-10-13T09:17:07.0000000+00:00</time></trkpt><trkpt lat="44.559673" lon="34.290737"><ele>205.2</ele><time>2011-10-13T09:17:12.0000000+00:00</time></trkpt><trkpt lat="44.559673" lon="34.290737"><ele>205.2</ele><time>2011-10-13T09:17:17.0000000+00:00</time></trkpt><trkpt lat="44.559673" lon="34.290737"><ele>205.2</ele><time>2011-10-13T09:17:22.0000000+00:00</time></trkpt><trkpt lat="44.559673" lon="34.290737"><ele>205.2</ele><time>2011-10-13T09:17:27.0000000+00:00</time></trkpt><trkpt lat="44.559673" lon="34.290737"><ele>205.2</ele><time>2011-10-13T09:17:32.0000000+00:00</time></trkpt><trkpt lat="44.559673" lon="34.290737"><ele>205.2</ele><time>2011-10-13T09:17:37.0000000+00:00</time></trkpt><trkpt lat="44.559673" lon="34.290737"><ele>205.2</ele><time>2011-10-13T09:17:42.0000000+00:00</time></trkpt><trkpt lat="44.559673" lon="34.290737"><ele>205.2</ele><time>2011-10-13T09:17:47.0000000+00:00</time></trkpt><trkpt lat="44.559673" lon="34.290737"><ele>205.2</ele><time>2011-10-13T09:17:52.0000000+00:00</time></trkpt><trkpt lat="44.559673" lon="34.290737"><ele>205.2</ele><time>2011-10-13T09:17:57.0000000+00:00</time></trkpt><trkpt lat="44.559673" lon="34.290737"><ele>205.2</ele><time>2011-10-13T09:18:02.0000000+00:00</time></trkpt><trkpt lat="44.559673" lon="34.290737"><ele>205.2</ele><time>2011-10-13T09:18:07.0000000+00:00</time></trkpt><trkpt lat="44.559673" lon="34.290733"><ele>205.2</ele><time>2011-10-13T09:18:12.0000000+00:00</time></trkpt><trkpt lat="44.559673" lon="34.290733"><ele>205.2</ele><time>2011-10-13T09:18:17.0000000+00:00</time></trkpt><trkpt lat="44.559673" lon="34.290733"><ele>205.2</ele><time>2011-10-13T09:18:22.0000000+00:00</time></trkpt><trkpt lat="44.559673" lon="34.290733"><ele>205.3</ele><time>2011-10-13T09:18:27.0000000+00:00</time></trkpt><trkpt lat="44.559673" lon="34.290733"><ele>205.3</ele><time>2011-10-13T09:18:32.0000000+00:00</time></trkpt><trkpt lat="44.559673" lon="34.290733"><ele>205.3</ele><time>2011-10-13T09:18:37.0000000+00:00</time></trkpt><trkpt lat="44.559673" lon="34.290733"><ele>205.3</ele><time>2011-10-13T09:18:42.0000000+00:00</time></trkpt><trkpt lat="44.559673" lon="34.290733"><ele>205.3</ele><time>2011-10-13T09:18:47.0000000+00:00</time></trkpt><trkpt lat="44.559673" lon="34.290733"><ele>205.3</ele><time>2011-10-13T09:18:52.0000000+00:00</time></trkpt><trkpt lat="44.559673" lon="34.290733"><ele>205.3</ele><time>2011-10-13T09:18:57.0000000+00:00</time></trkpt><trkpt lat="44.559673" lon="34.290733"><ele>205.3</ele><time>2011-10-13T09:19:02.0000000+00:00</time></trkpt><trkpt lat="44.559673" lon="34.290733"><ele>205.3</ele><time>2011-10-13T09:19:07.0000000+00:00</time></trkpt><trkpt lat="44.559673" lon="34.290733"><ele>205.3</ele><time>2011-10-13T09:19:12.0000000+00:00</time></trkpt><trkpt lat="44.559673" lon="34.290733"><ele>205.3</ele><time>2011-10-13T09:19:17.0000000+00:00</time></trkpt><trkpt lat="44.559658" lon="34.29073"><ele>205.6</ele><time>2011-10-13T09:19:22.0000000+00:00</time></trkpt><trkpt lat="44.559612" lon="34.290646"><ele>207.7</ele><time>2011-10-13T09:19:27.0000000+00:00</time></trkpt><trkpt lat="44.559597" lon="34.290546"><ele>210.1</ele><time>2011-10-13T09:19:32.0000000+00:00</time></trkpt><trkpt lat="44.559624" lon="34.290485"><ele>210.8</ele><time>2011-10-13T09:19:37.0000000+00:00</time></trkpt><trkpt lat="44.559597" lon="34.290409"><ele>210.7</ele><time>2011-10-13T09:19:42.0000000+00:00</time></trkpt><trkpt lat="44.559532" lon="34.290318"><ele>210.1</ele><time>2011-10-13T09:19:47.0000000+00:00</time></trkpt><trkpt lat="44.559494" lon="34.290207"><ele>210.7</ele><time>2011-10-13T09:19:52.0000000+00:00</time></trkpt><trkpt lat="44.559475" lon="34.290092"><ele>211.4</ele><time>2011-10-13T09:19:57.0000000+00:00</time></trkpt><trkpt lat="44.559402" lon="34.289948"><ele>211.5</ele><time>2011-10-13T09:20:02.0000000+00:00</time></trkpt><trkpt lat="44.559334" lon="34.289795"><ele>211.2</ele><time>2011-10-13T09:20:07.0000000+00:00</time></trkpt><trkpt lat="44.559277" lon="34.289658"><ele>211.2</ele><time>2011-10-13T09:20:12.0000000+00:00</time></trkpt><trkpt lat="44.559296" lon="34.289444"><ele>212.3</ele><time>2011-10-13T09:20:17.0000000+00:00</time></trkpt><trkpt lat="44.559242" lon="34.289246"><ele>213.2</ele><time>2011-10-13T09:20:22.0000000+00:00</time></trkpt><trkpt lat="44.559174" lon="34.289032"><ele>214.6</ele><time>2011-10-13T09:20:27.0000000+00:00</time></trkpt><trkpt lat="44.559124" lon="34.28883"><ele>214.6</ele><time>2011-10-13T09:20:32.0000000+00:00</time></trkpt><trkpt lat="44.559052" lon="34.288601"><ele>217.0</ele><time>2011-10-13T09:20:37.0000000+00:00</time></trkpt><trkpt lat="44.558971" lon="34.288383"><ele>218.9</ele><time>2011-10-13T09:20:42.0000000+00:00</time></trkpt><trkpt lat="44.558887" lon="34.288155"><ele>220.3</ele><time>2011-10-13T09:20:47.0000000+00:00</time></trkpt><trkpt lat="44.558838" lon="34.287956"><ele>221.7</ele><time>2011-10-13T09:20:52.0000000+00:00</time></trkpt><trkpt lat="44.558796" lon="34.287758"><ele>221.8</ele><time>2011-10-13T09:20:57.0000000+00:00</time></trkpt><trkpt lat="44.558758" lon="34.287552"><ele>221.3</ele><time>2011-10-13T09:21:02.0000000+00:00</time></trkpt><trkpt lat="44.558674" lon="34.287338"><ele>225.0</ele><time>2011-10-13T09:21:07.0000000+00:00</time></trkpt><trkpt lat="44.558617" lon="34.287102"><ele>223.3</ele><time>2011-10-13T09:21:12.0000000+00:00</time></trkpt><trkpt lat="44.55854" lon="34.286842"><ele>223.1</ele><time>2011-10-13T09:21:17.0000000+00:00</time></trkpt><trkpt lat="44.558468" lon="34.286598"><ele>224.5</ele><time>2011-10-13T09:21:22.0000000+00:00</time></trkpt><trkpt lat="44.558403" lon="34.286339"><ele>225.1</ele><time>2011-10-13T09:21:27.0000000+00:00</time></trkpt><trkpt lat="44.558365" lon="34.28611"><ele>223.6</ele><time>2011-10-13T09:21:32.0000000+00:00</time></trkpt><trkpt lat="44.55827" lon="34.285892"><ele>223.8</ele><time>2011-10-13T09:21:37.0000000+00:00</time></trkpt><trkpt lat="44.558174" lon="34.285622"><ele>225.8</ele><time>2011-10-13T09:21:42.0000000+00:00</time></trkpt><trkpt lat="44.558102" lon="34.285366"><ele>227.1</ele><time>2011-10-13T09:21:47.0000000+00:00</time></trkpt><trkpt lat="44.558029" lon="34.285107"><ele>227.0</ele><time>2011-10-13T09:21:52.0000000+00:00</time></trkpt><trkpt lat="44.557941" lon="34.284851"><ele>228.0</ele><time>2011-10-13T09:21:57.0000000+00:00</time></trkpt><trkpt lat="44.55788" lon="34.284607"><ele>227.6</ele><time>2011-10-13T09:22:02.0000000+00:00</time></trkpt><trkpt lat="44.557812" lon="34.284367"><ele>227.7</ele><time>2011-10-13T09:22:07.0000000+00:00</time></trkpt><trkpt lat="44.557751" lon="34.284138"><ele>228.5</ele><time>2011-10-13T09:22:12.0000000+00:00</time></trkpt><trkpt lat="44.557686" lon="34.283897"><ele>228.8</ele><time>2011-10-13T09:22:17.0000000+00:00</time></trkpt><trkpt lat="44.557621" lon="34.283657"><ele>229.9</ele><time>2011-10-13T09:22:22.0000000+00:00</time></trkpt><trkpt lat="44.557571" lon="34.283401"><ele>229.9</ele><time>2011-10-13T09:22:27.0000000+00:00</time></trkpt><trkpt lat="44.557533" lon="34.283154"><ele>229.8</ele><time>2011-10-13T09:22:32.0000000+00:00</time></trkpt><trkpt lat="44.557507" lon="34.282906"><ele>229.5</ele><time>2011-10-13T09:22:37.0000000+00:00</time></trkpt><trkpt lat="44.557522" lon="34.282639"><ele>229.6</ele><time>2011-10-13T09:22:42.0000000+00:00</time></trkpt><trkpt lat="44.557507" lon="34.282387"><ele>228.9</ele><time>2011-10-13T09:22:47.0000000+00:00</time></trkpt><trkpt lat="44.557476" lon="34.282135"><ele>228.9</ele><time>2011-10-13T09:22:52.0000000+00:00</time></trkpt><trkpt lat="44.557461" lon="34.28186"><ele>228.1</ele><time>2011-10-13T09:22:57.0000000+00:00</time></trkpt><trkpt lat="44.557449" lon="34.281601"><ele>227.5</ele><time>2011-10-13T09:23:02.0000000+00:00</time></trkpt><trkpt lat="44.557419" lon="34.281345"><ele>227.3</ele><time>2011-10-13T09:23:07.0000000+00:00</time></trkpt><trkpt lat="44.5574" lon="34.281071"><ele>227.3</ele><time>2011-10-13T09:23:12.0000000+00:00</time></trkpt><trkpt lat="44.557384" lon="34.280766"><ele>226.7</ele><time>2011-10-13T09:23:17.0000000+00:00</time></trkpt><trkpt lat="44.557369" lon="34.280445"><ele>225.7</ele><time>2011-10-13T09:23:22.0000000+00:00</time></trkpt><trkpt lat="44.557331" lon="34.280075"><ele>223.8</ele><time>2011-10-13T09:23:27.0000000+00:00</time></trkpt><trkpt lat="44.557285" lon="34.27961"><ele>220.7</ele><time>2011-10-13T09:23:32.0000000+00:00</time></trkpt><trkpt lat="44.55711" lon="34.279064"><ele>220.2</ele><time>2011-10-13T09:23:37.0000000+00:00</time></trkpt><trkpt lat="44.556843" lon="34.278404"><ele>219.3</ele><time>2011-10-13T09:23:42.0000000+00:00</time></trkpt><trkpt lat="44.55648" lon="34.277752"><ele>217.5</ele><time>2011-10-13T09:23:47.0000000+00:00</time></trkpt><trkpt lat="44.555954" lon="34.277199"><ele>213.0</ele><time>2011-10-13T09:23:52.0000000+00:00</time></trkpt><trkpt lat="44.555466" lon="34.276745"><ele>209.8</ele><time>2011-10-13T09:23:57.0000000+00:00</time></trkpt><trkpt lat="44.554966" lon="34.276299"><ele>206.8</ele><time>2011-10-13T09:24:02.0000000+00:00</time></trkpt><trkpt lat="44.554573" lon="34.275902"><ele>204.1</ele><time>2011-10-13T09:24:07.0000000+00:00</time></trkpt><trkpt lat="44.554245" lon="34.275421"><ele>201.8</ele><time>2011-10-13T09:24:12.0000000+00:00</time></trkpt><trkpt lat="44.554081" lon="34.274899"><ele>199.0</ele><time>2011-10-13T09:24:17.0000000+00:00</time></trkpt><trkpt lat="44.554043" lon="34.274513"><ele>196.4</ele><time>2011-10-13T09:24:22.0000000+00:00</time></trkpt><trkpt lat="44.554039" lon="34.274426"><ele>195.0</ele><time>2011-10-13T09:24:27.0000000+00:00</time></trkpt><trkpt lat="44.554043" lon="34.274426"><ele>194.8</ele><time>2011-10-13T09:24:32.0000000+00:00</time></trkpt><trkpt lat="44.554043" lon="34.274426"><ele>194.8</ele><time>2011-10-13T09:24:37.0000000+00:00</time></trkpt><trkpt lat="44.554043" lon="34.274426"><ele>194.7</ele><time>2011-10-13T09:24:42.0000000+00:00</time></trkpt><trkpt lat="44.554039" lon="34.274414"><ele>194.6</ele><time>2011-10-13T09:24:47.0000000+00:00</time></trkpt><trkpt lat="44.554039" lon="34.27441"><ele>194.2</ele><time>2011-10-13T09:24:52.0000000+00:00</time></trkpt><trkpt lat="44.554039" lon="34.27441"><ele>194.1</ele><time>2011-10-13T09:24:57.0000000+00:00</time></trkpt><trkpt lat="44.554039" lon="34.27441"><ele>194.1</ele><time>2011-10-13T09:25:02.0000000+00:00</time></trkpt><trkpt lat="44.554035" lon="34.27438"><ele>194.1</ele><time>2011-10-13T09:25:07.0000000+00:00</time></trkpt><trkpt lat="44.554028" lon="34.274353"><ele>194.0</ele><time>2011-10-13T09:25:12.0000000+00:00</time></trkpt><trkpt lat="44.554028" lon="34.274303"><ele>193.9</ele><time>2011-10-13T09:25:17.0000000+00:00</time></trkpt><trkpt lat="44.554024" lon="34.274204"><ele>193.4</ele><time>2011-10-13T09:25:22.0000000+00:00</time></trkpt><trkpt lat="44.554016" lon="34.273968"><ele>192.9</ele><time>2011-10-13T09:25:27.0000000+00:00</time></trkpt><trkpt lat="44.553993" lon="34.273605"><ele>192.5</ele><time>2011-10-13T09:25:32.0000000+00:00</time></trkpt><trkpt lat="44.553936" lon="34.273216"><ele>192.4</ele><time>2011-10-13T09:25:37.0000000+00:00</time></trkpt><trkpt lat="44.553894" lon="34.27282"><ele>191.9</ele><time>2011-10-13T09:25:42.0000000+00:00</time></trkpt><trkpt lat="44.55386" lon="34.272404"><ele>188.9</ele><time>2011-10-13T09:25:47.0000000+00:00</time></trkpt><trkpt lat="44.55381" lon="34.271999"><ele>187.7</ele><time>2011-10-13T09:25:52.0000000+00:00</time></trkpt><trkpt lat="44.553745" lon="34.271553"><ele>188.0</ele><time>2011-10-13T09:25:57.0000000+00:00</time></trkpt><trkpt lat="44.553654" lon="34.271076"><ele>185.6</ele><time>2011-10-13T09:26:02.0000000+00:00</time></trkpt><trkpt lat="44.553528" lon="34.270565"><ele>183.6</ele><time>2011-10-13T09:26:07.0000000+00:00</time></trkpt><trkpt lat="44.553391" lon="34.270061"><ele>181.0</ele><time>2011-10-13T09:26:12.0000000+00:00</time></trkpt><trkpt lat="44.553261" lon="34.269623"><ele>178.1</ele><time>2011-10-13T09:26:17.0000000+00:00</time></trkpt><trkpt lat="44.553055" lon="34.26931"><ele>177.7</ele><time>2011-10-13T09:26:22.0000000+00:00</time></trkpt><trkpt lat="44.552727" lon="34.269028"><ele>177.4</ele><time>2011-10-13T09:26:27.0000000+00:00</time></trkpt><trkpt lat="44.552311" lon="34.268909"><ele>176.4</ele><time>2011-10-13T09:26:32.0000000+00:00</time></trkpt><trkpt lat="44.551922" lon="34.268902"><ele>174.7</ele><time>2011-10-13T09:26:37.0000000+00:00</time></trkpt><trkpt lat="44.551563" lon="34.268871"><ele>172.4</ele><time>2011-10-13T09:26:42.0000000+00:00</time></trkpt><trkpt lat="44.551186" lon="34.268753"><ele>170.2</ele><time>2011-10-13T09:26:47.0000000+00:00</time></trkpt><trkpt lat="44.55085" lon="34.268459"><ele>168.0</ele><time>2011-10-13T09:26:52.0000000+00:00</time></trkpt><trkpt lat="44.550621" lon="34.268047"><ele>166.3</ele><time>2011-10-13T09:26:57.0000000+00:00</time></trkpt><trkpt lat="44.550426" lon="34.267559"><ele>164.5</ele><time>2011-10-13T09:27:02.0000000+00:00</time></trkpt><trkpt lat="44.55024" lon="34.267029"><ele>160.4</ele><time>2011-10-13T09:27:07.0000000+00:00</time></trkpt><trkpt lat="44.550026" lon="34.266472"><ele>157.4</ele><time>2011-10-13T09:27:12.0000000+00:00</time></trkpt><trkpt lat="44.549805" lon="34.265942"><ele>155.4</ele><time>2011-10-13T09:27:17.0000000+00:00</time></trkpt><trkpt lat="44.549503" lon="34.265549"><ele>154.6</ele><time>2011-10-13T09:27:22.0000000+00:00</time></trkpt><trkpt lat="44.549141" lon="34.265297"><ele>154.4</ele><time>2011-10-13T09:27:27.0000000+00:00</time></trkpt><trkpt lat="44.548733" lon="34.265148"><ele>153.4</ele><time>2011-10-13T09:27:32.0000000+00:00</time></trkpt><trkpt lat="44.548344" lon="34.265018"><ele>153.3</ele><time>2011-10-13T09:27:37.0000000+00:00</time></trkpt><trkpt lat="44.548008" lon="34.264893"><ele>154.1</ele><time>2011-10-13T09:27:42.0000000+00:00</time></trkpt><trkpt lat="44.547726" lon="34.264771"><ele>154.9</ele><time>2011-10-13T09:27:47.0000000+00:00</time></trkpt><trkpt lat="44.547443" lon="34.26466"><ele>155.9</ele><time>2011-10-13T09:27:52.0000000+00:00</time></trkpt><trkpt lat="44.547207" lon="34.264584"><ele>156.6</ele><time>2011-10-13T09:27:57.0000000+00:00</time></trkpt><trkpt lat="44.546959" lon="34.264484"><ele>155.0</ele><time>2011-10-13T09:28:02.0000000+00:00</time></trkpt><trkpt lat="44.546749" lon="34.264416"><ele>156.5</ele><time>2011-10-13T09:28:07.0000000+00:00</time></trkpt><trkpt lat="44.54657" lon="34.264355"><ele>157.8</ele><time>2011-10-13T09:28:12.0000000+00:00</time></trkpt><trkpt lat="44.546352" lon="34.264282"><ele>157.6</ele><time>2011-10-13T09:28:17.0000000+00:00</time></trkpt><trkpt lat="44.546154" lon="34.264225"><ele>158.4</ele><time>2011-10-13T09:28:22.0000000+00:00</time></trkpt><trkpt lat="44.545948" lon="34.26416"><ele>158.8</ele><time>2011-10-13T09:28:27.0000000+00:00</time></trkpt><trkpt lat="44.545769" lon="34.264137"><ele>159.1</ele><time>2011-10-13T09:28:32.0000000+00:00</time></trkpt><trkpt lat="44.545582" lon="34.26416"><ele>159.8</ele><time>2011-10-13T09:28:37.0000000+00:00</time></trkpt><trkpt lat="44.545387" lon="34.264229"><ele>160.5</ele><time>2011-10-13T09:28:42.0000000+00:00</time></trkpt><trkpt lat="44.545219" lon="34.264271"><ele>160.1</ele><time>2011-10-13T09:28:47.0000000+00:00</time></trkpt><trkpt lat="44.545033" lon="34.264313"><ele>159.7</ele><time>2011-10-13T09:28:52.0000000+00:00</time></trkpt><trkpt lat="44.544846" lon="34.26437"><ele>160.3</ele><time>2011-10-13T09:28:57.0000000+00:00</time></trkpt><trkpt lat="44.54464" lon="34.264442"><ele>161.4</ele><time>2011-10-13T09:29:02.0000000+00:00</time></trkpt><trkpt lat="44.544418" lon="34.264526"><ele>163.1</ele><time>2011-10-13T09:29:07.0000000+00:00</time></trkpt><trkpt lat="44.544197" lon="34.264622"><ele>164.4</ele><time>2011-10-13T09:29:12.0000000+00:00</time></trkpt><trkpt lat="44.543964" lon="34.26469"><ele>165.7</ele><time>2011-10-13T09:29:17.0000000+00:00</time></trkpt><trkpt lat="44.543793" lon="34.264751"><ele>166.8</ele><time>2011-10-13T09:29:22.0000000+00:00</time></trkpt><trkpt lat="44.543663" lon="34.264801"><ele>167.5</ele><time>2011-10-13T09:29:27.0000000+00:00</time></trkpt><trkpt lat="44.543533" lon="34.264835"><ele>167.6</ele><time>2011-10-13T09:29:32.0000000+00:00</time></trkpt><trkpt lat="44.543415" lon="34.264877"><ele>168.7</ele><time>2011-10-13T09:29:37.0000000+00:00</time></trkpt><trkpt lat="44.543282" lon="34.264915"><ele>169.8</ele><time>2011-10-13T09:29:42.0000000+00:00</time></trkpt><trkpt lat="44.543159" lon="34.264961"><ele>170.7</ele><time>2011-10-13T09:29:47.0000000+00:00</time></trkpt><trkpt lat="44.543037" lon="34.264999"><ele>171.1</ele><time>2011-10-13T09:29:52.0000000+00:00</time></trkpt><trkpt lat="44.542908" lon="34.26503"><ele>172.4</ele><time>2011-10-13T09:29:57.0000000+00:00</time></trkpt><trkpt lat="44.542786" lon="34.265072"><ele>173.5</ele><time>2011-10-13T09:30:02.0000000+00:00</time></trkpt><trkpt lat="44.542652" lon="34.265106"><ele>175.8</ele><time>2011-10-13T09:30:07.0000000+00:00</time></trkpt><trkpt lat="44.542522" lon="34.265137"><ele>177.3</ele><time>2011-10-13T09:30:12.0000000+00:00</time></trkpt><trkpt lat="44.542393" lon="34.265156"><ele>177.5</ele><time>2011-10-13T09:30:17.0000000+00:00</time></trkpt><trkpt lat="44.542259" lon="34.265179"><ele>177.2</ele><time>2011-10-13T09:30:22.0000000+00:00</time></trkpt><trkpt lat="44.542126" lon="34.265182"><ele>177.0</ele><time>2011-10-13T09:30:27.0000000+00:00</time></trkpt><trkpt lat="44.541988" lon="34.26516"><ele>177.4</ele><time>2011-10-13T09:30:32.0000000+00:00</time></trkpt><trkpt lat="44.54187" lon="34.265156"><ele>177.3</ele><time>2011-10-13T09:30:37.0000000+00:00</time></trkpt><trkpt lat="44.541744" lon="34.265144"><ele>178.6</ele><time>2011-10-13T09:30:42.0000000+00:00</time></trkpt><trkpt lat="44.541626" lon="34.265129"><ele>182.5</ele><time>2011-10-13T09:30:47.0000000+00:00</time></trkpt><trkpt lat="44.541519" lon="34.265076"><ele>182.3</ele><time>2011-10-13T09:30:52.0000000+00:00</time></trkpt><trkpt lat="44.541405" lon="34.265034"><ele>183.2</ele><time>2011-10-13T09:30:57.0000000+00:00</time></trkpt><trkpt lat="44.54129" lon="34.264969"><ele>183.9</ele><time>2011-10-13T09:31:02.0000000+00:00</time></trkpt><trkpt lat="44.54118" lon="34.2649"><ele>184.9</ele><time>2011-10-13T09:31:07.0000000+00:00</time></trkpt><trkpt lat="44.541065" lon="34.264839"><ele>185.6</ele><time>2011-10-13T09:31:12.0000000+00:00</time></trkpt><trkpt lat="44.540955" lon="34.264767"><ele>184.9</ele><time>2011-10-13T09:31:17.0000000+00:00</time></trkpt><trkpt lat="44.540852" lon="34.264694"><ele>184.7</ele><time>2011-10-13T09:31:22.0000000+00:00</time></trkpt><trkpt lat="44.540749" lon="34.264629"><ele>186.6</ele><time>2011-10-13T09:31:27.0000000+00:00</time></trkpt><trkpt lat="44.540646" lon="34.264572"><ele>189.3</ele><time>2011-10-13T09:31:32.0000000+00:00</time></trkpt><trkpt lat="44.540543" lon="34.264515"><ele>190.7</ele><time>2011-10-13T09:31:37.0000000+00:00</time></trkpt><trkpt lat="44.540424" lon="34.26445"><ele>190.8</ele><time>2011-10-13T09:31:42.0000000+00:00</time></trkpt><trkpt lat="44.54031" lon="34.264385"><ele>191.6</ele><time>2011-10-13T09:31:47.0000000+00:00</time></trkpt><trkpt lat="44.540195" lon="34.264317"><ele>192.2</ele><time>2011-10-13T09:31:52.0000000+00:00</time></trkpt><trkpt lat="44.540089" lon="34.264248"><ele>192.7</ele><time>2011-10-13T09:31:57.0000000+00:00</time></trkpt><trkpt lat="44.539974" lon="34.264175"><ele>193.4</ele><time>2011-10-13T09:32:02.0000000+00:00</time></trkpt><trkpt lat="44.539875" lon="34.264118"><ele>194.1</ele><time>2011-10-13T09:32:07.0000000+00:00</time></trkpt><trkpt lat="44.539772" lon="34.264053"><ele>194.4</ele><time>2011-10-13T09:32:12.0000000+00:00</time></trkpt><trkpt lat="44.539673" lon="34.264"><ele>195.0</ele><time>2011-10-13T09:32:17.0000000+00:00</time></trkpt><trkpt lat="44.539585" lon="34.263943"><ele>195.7</ele><time>2011-10-13T09:32:22.0000000+00:00</time></trkpt><trkpt lat="44.539494" lon="34.263889"><ele>195.8</ele><time>2011-10-13T09:32:27.0000000+00:00</time></trkpt><trkpt lat="44.539398" lon="34.263847"><ele>195.6</ele><time>2011-10-13T09:32:32.0000000+00:00</time></trkpt><trkpt lat="44.539303" lon="34.263794"><ele>196.2</ele><time>2011-10-13T09:32:37.0000000+00:00</time></trkpt><trkpt lat="44.539211" lon="34.263752"><ele>196.7</ele><time>2011-10-13T09:32:42.0000000+00:00</time></trkpt><trkpt lat="44.539127" lon="34.263706"><ele>196.9</ele><time>2011-10-13T09:32:47.0000000+00:00</time></trkpt><trkpt lat="44.53904" lon="34.263657"><ele>197.3</ele><time>2011-10-13T09:32:52.0000000+00:00</time></trkpt><trkpt lat="44.538944" lon="34.263607"><ele>198.5</ele><time>2011-10-13T09:32:57.0000000+00:00</time></trkpt><trkpt lat="44.538849" lon="34.263554"><ele>198.9</ele><time>2011-10-13T09:33:02.0000000+00:00</time></trkpt><trkpt lat="44.538757" lon="34.263508"><ele>199.5</ele><time>2011-10-13T09:33:07.0000000+00:00</time></trkpt><trkpt lat="44.538631" lon="34.263435"><ele>200.3</ele><time>2011-10-13T09:33:12.0000000+00:00</time></trkpt><trkpt lat="44.538509" lon="34.263359"><ele>200.4</ele><time>2011-10-13T09:33:17.0000000+00:00</time></trkpt><trkpt lat="44.538391" lon="34.263294"><ele>200.4</ele><time>2011-10-13T09:33:22.0000000+00:00</time></trkpt><trkpt lat="44.538269" lon="34.263218"><ele>200.1</ele><time>2011-10-13T09:33:27.0000000+00:00</time></trkpt><trkpt lat="44.538139" lon="34.263142"><ele>200.2</ele><time>2011-10-13T09:33:32.0000000+00:00</time></trkpt><trkpt lat="44.53801" lon="34.263069"><ele>200.5</ele><time>2011-10-13T09:33:37.0000000+00:00</time></trkpt><trkpt lat="44.537876" lon="34.262985"><ele>201.2</ele><time>2011-10-13T09:33:42.0000000+00:00</time></trkpt><trkpt lat="44.537735" lon="34.262897"><ele>201.6</ele><time>2011-10-13T09:33:47.0000000+00:00</time></trkpt><trkpt lat="44.537579" lon="34.262821"><ele>202.2</ele><time>2011-10-13T09:33:52.0000000+00:00</time></trkpt><trkpt lat="44.537418" lon="34.262733"><ele>201.0</ele><time>2011-10-13T09:33:57.0000000+00:00</time></trkpt><trkpt lat="44.537228" lon="34.26263"><ele>200.7</ele><time>2011-10-13T09:34:02.0000000+00:00</time></trkpt><trkpt lat="44.537033" lon="34.262527"><ele>200.8</ele><time>2011-10-13T09:34:07.0000000+00:00</time></trkpt><trkpt lat="44.536816" lon="34.262405"><ele>201.3</ele><time>2011-10-13T09:34:12.0000000+00:00</time></trkpt><trkpt lat="44.536583" lon="34.262268"><ele>201.7</ele><time>2011-10-13T09:34:17.0000000+00:00</time></trkpt><trkpt lat="44.536373" lon="34.262138"><ele>202.1</ele><time>2011-10-13T09:34:22.0000000+00:00</time></trkpt><trkpt lat="44.536156" lon="34.26202"><ele>201.9</ele><time>2011-10-13T09:34:27.0000000+00:00</time></trkpt><trkpt lat="44.535931" lon="34.261898"><ele>200.4</ele><time>2011-10-13T09:34:32.0000000+00:00</time></trkpt><trkpt lat="44.535671" lon="34.261745"><ele>200.3</ele><time>2011-10-13T09:34:37.0000000+00:00</time></trkpt><trkpt lat="44.535339" lon="34.261547"><ele>199.2</ele><time>2011-10-13T09:34:42.0000000+00:00</time></trkpt><trkpt lat="44.534954" lon="34.261333"><ele>200.2</ele><time>2011-10-13T09:34:47.0000000+00:00</time></trkpt><trkpt lat="44.534546" lon="34.261105"><ele>199.7</ele><time>2011-10-13T09:34:52.0000000+00:00</time></trkpt><trkpt lat="44.534168" lon="34.260895"><ele>199.5</ele><time>2011-10-13T09:34:57.0000000+00:00</time></trkpt><trkpt lat="44.533833" lon="34.260719"><ele>199.8</ele><time>2011-10-13T09:35:02.0000000+00:00</time></trkpt><trkpt lat="44.533535" lon="34.260563"><ele>200.6</ele><time>2011-10-13T09:35:07.0000000+00:00</time></trkpt><trkpt lat="44.533241" lon="34.260418"><ele>201.3</ele><time>2011-10-13T09:35:12.0000000+00:00</time></trkpt><trkpt lat="44.532948" lon="34.260265"><ele>202.6</ele><time>2011-10-13T09:35:17.0000000+00:00</time></trkpt><trkpt lat="44.532627" lon="34.260067"><ele>199.9</ele><time>2011-10-13T09:35:22.0000000+00:00</time></trkpt><trkpt lat="44.532349" lon="34.259914"><ele>201.7</ele><time>2011-10-13T09:35:27.0000000+00:00</time></trkpt><trkpt lat="44.532101" lon="34.259754"><ele>201.8</ele><time>2011-10-13T09:35:32.0000000+00:00</time></trkpt><trkpt lat="44.531853" lon="34.259613"><ele>202.2</ele><time>2011-10-13T09:35:37.0000000+00:00</time></trkpt><trkpt lat="44.531616" lon="34.259483"><ele>203.9</ele><time>2011-10-13T09:35:42.0000000+00:00</time></trkpt><trkpt lat="44.531387" lon="34.259354"><ele>204.9</ele><time>2011-10-13T09:35:47.0000000+00:00</time></trkpt><trkpt lat="44.531181" lon="34.259235"><ele>205.7</ele><time>2011-10-13T09:35:52.0000000+00:00</time></trkpt><trkpt lat="44.530968" lon="34.259106"><ele>206.1</ele><time>2011-10-13T09:35:57.0000000+00:00</time></trkpt><trkpt lat="44.530731" lon="34.258926"><ele>204.8</ele><time>2011-10-13T09:36:02.0000000+00:00</time></trkpt><trkpt lat="44.530521" lon="34.258762"><ele>204.6</ele><time>2011-10-13T09:36:07.0000000+00:00</time></trkpt><trkpt lat="44.530354" lon="34.258583"><ele>203.9</ele><time>2011-10-13T09:36:12.0000000+00:00</time></trkpt><trkpt lat="44.530258" lon="34.258457"><ele>202.9</ele><time>2011-10-13T09:36:17.0000000+00:00</time></trkpt><trkpt lat="44.530224" lon="34.258423"><ele>202.6</ele><time>2011-10-13T09:36:22.0000000+00:00</time></trkpt><trkpt lat="44.530224" lon="34.258415"><ele>202.4</ele><time>2011-10-13T09:36:27.0000000+00:00</time></trkpt><trkpt lat="44.530224" lon="34.258415"><ele>202.3</ele><time>2011-10-13T09:36:32.0000000+00:00</time></trkpt><trkpt lat="44.530216" lon="34.258408"><ele>202.3</ele><time>2011-10-13T09:36:37.0000000+00:00</time></trkpt><trkpt lat="44.530201" lon="34.258392"><ele>202.1</ele><time>2011-10-13T09:36:42.0000000+00:00</time></trkpt><trkpt lat="44.530201" lon="34.258392"><ele>202.1</ele><time>2011-10-13T09:36:47.0000000+00:00</time></trkpt><trkpt lat="44.530182" lon="34.258381"><ele>201.4</ele><time>2011-10-13T09:36:52.0000000+00:00</time></trkpt><trkpt lat="44.530121" lon="34.258369"><ele>202.0</ele><time>2011-10-13T09:36:57.0000000+00:00</time></trkpt><trkpt lat="44.530025" lon="34.25827"><ele>201.5</ele><time>2011-10-13T09:37:02.0000000+00:00</time></trkpt><trkpt lat="44.529934" lon="34.258144"><ele>202.6</ele><time>2011-10-13T09:37:07.0000000+00:00</time></trkpt><trkpt lat="44.529823" lon="34.258022"><ele>203.3</ele><time>2011-10-13T09:37:12.0000000+00:00</time></trkpt><trkpt lat="44.529728" lon="34.257889"><ele>202.8</ele><time>2011-10-13T09:37:17.0000000+00:00</time></trkpt><trkpt lat="44.529602" lon="34.257732"><ele>203.8</ele><time>2011-10-13T09:37:22.0000000+00:00</time></trkpt><trkpt lat="44.529461" lon="34.257565"><ele>205.4</ele><time>2011-10-13T09:37:27.0000000+00:00</time></trkpt><trkpt lat="44.529312" lon="34.257378"><ele>206.1</ele><time>2011-10-13T09:37:32.0000000+00:00</time></trkpt><trkpt lat="44.52916" lon="34.257179"><ele>207.5</ele><time>2011-10-13T09:37:37.0000000+00:00</time></trkpt><trkpt lat="44.529018" lon="34.256989"><ele>208.5</ele><time>2011-10-13T09:37:42.0000000+00:00</time></trkpt><trkpt lat="44.528877" lon="34.25679"><ele>209.1</ele><time>2011-10-13T09:37:47.0000000+00:00</time></trkpt><trkpt lat="44.528725" lon="34.256588"><ele>209.6</ele><time>2011-10-13T09:37:52.0000000+00:00</time></trkpt><trkpt lat="44.52858" lon="34.256428"><ele>210.3</ele><time>2011-10-13T09:37:57.0000000+00:00</time></trkpt><trkpt lat="44.528442" lon="34.256271"><ele>210.5</ele><time>2011-10-13T09:38:02.0000000+00:00</time></trkpt><trkpt lat="44.528309" lon="34.256142"><ele>211.4</ele><time>2011-10-13T09:38:07.0000000+00:00</time></trkpt><trkpt lat="44.528141" lon="34.255981"><ele>212.7</ele><time>2011-10-13T09:38:12.0000000+00:00</time></trkpt><trkpt lat="44.527973" lon="34.255833"><ele>213.4</ele><time>2011-10-13T09:38:17.0000000+00:00</time></trkpt><trkpt lat="44.527763" lon="34.255695"><ele>214.3</ele><time>2011-10-13T09:38:22.0000000+00:00</time></trkpt><trkpt lat="44.527534" lon="34.255558"><ele>213.8</ele><time>2011-10-13T09:38:27.0000000+00:00</time></trkpt><trkpt lat="44.527271" lon="34.255444"><ele>213.3</ele><time>2011-10-13T09:38:32.0000000+00:00</time></trkpt><trkpt lat="44.527008" lon="34.25536"><ele>213.6</ele><time>2011-10-13T09:38:37.0000000+00:00</time></trkpt><trkpt lat="44.526752" lon="34.255287"><ele>214.7</ele><time>2011-10-13T09:38:42.0000000+00:00</time></trkpt><trkpt lat="44.526482" lon="34.255203"><ele>214.9</ele><time>2011-10-13T09:38:47.0000000+00:00</time></trkpt><trkpt lat="44.526218" lon="34.255119"><ele>215.0</ele><time>2011-10-13T09:38:52.0000000+00:00</time></trkpt><trkpt lat="44.525959" lon="34.255039"><ele>214.9</ele><time>2011-10-13T09:38:57.0000000+00:00</time></trkpt><trkpt lat="44.525661" lon="34.25494"><ele>213.4</ele><time>2011-10-13T09:39:02.0000000+00:00</time></trkpt><trkpt lat="44.525326" lon="34.254795"><ele>212.6</ele><time>2011-10-13T09:39:07.0000000+00:00</time></trkpt><trkpt lat="44.524952" lon="34.254608"><ele>210.6</ele><time>2011-10-13T09:39:12.0000000+00:00</time></trkpt><trkpt lat="44.524574" lon="34.254375"><ele>208.8</ele><time>2011-10-13T09:39:17.0000000+00:00</time></trkpt><trkpt lat="44.52417" lon="34.254128"><ele>208.2</ele><time>2011-10-13T09:39:22.0000000+00:00</time></trkpt><trkpt lat="44.523811" lon="34.253895"><ele>207.5</ele><time>2011-10-13T09:39:27.0000000+00:00</time></trkpt><trkpt lat="44.523476" lon="34.253658"><ele>207.6</ele><time>2011-10-13T09:39:32.0000000+00:00</time></trkpt><trkpt lat="44.523129" lon="34.253433"><ele>208.1</ele><time>2011-10-13T09:39:37.0000000+00:00</time></trkpt><trkpt lat="44.522797" lon="34.253193"><ele>209.6</ele><time>2011-10-13T09:39:42.0000000+00:00</time></trkpt><trkpt lat="44.522556" lon="34.252975"><ele>211.7</ele><time>2011-10-13T09:39:47.0000000+00:00</time></trkpt><trkpt lat="44.522339" lon="34.252766"><ele>214.5</ele><time>2011-10-13T09:39:52.0000000+00:00</time></trkpt><trkpt lat="44.522141" lon="34.252628"><ele>214.8</ele><time>2011-10-13T09:39:57.0000000+00:00</time></trkpt><trkpt lat="44.521965" lon="34.252525"><ele>215.7</ele><time>2011-10-13T09:40:02.0000000+00:00</time></trkpt><trkpt lat="44.521782" lon="34.252468"><ele>217.8</ele><time>2011-10-13T09:40:07.0000000+00:00</time></trkpt><trkpt lat="44.521591" lon="34.252422"><ele>220.0</ele><time>2011-10-13T09:40:12.0000000+00:00</time></trkpt><trkpt lat="44.521461" lon="34.252434"><ele>227.0</ele><time>2011-10-13T09:40:17.0000000+00:00</time></trkpt><trkpt lat="44.521317" lon="34.25248"><ele>230.0</ele><time>2011-10-13T09:40:22.0000000+00:00</time></trkpt><trkpt lat="44.52116" lon="34.252529"><ele>230.5</ele><time>2011-10-13T09:40:27.0000000+00:00</time></trkpt><trkpt lat="44.521019" lon="34.252502"><ele>229.9</ele><time>2011-10-13T09:40:32.0000000+00:00</time></trkpt><trkpt lat="44.520874" lon="34.25251"><ele>231.3</ele><time>2011-10-13T09:40:37.0000000+00:00</time></trkpt><trkpt lat="44.520679" lon="34.252518"><ele>231.1</ele><time>2011-10-13T09:40:42.0000000+00:00</time></trkpt><trkpt lat="44.5205" lon="34.252522"><ele>230.7</ele><time>2011-10-13T09:40:47.0000000+00:00</time></trkpt><trkpt lat="44.520309" lon="34.252541"><ele>230.3</ele><time>2011-10-13T09:40:52.0000000+00:00</time></trkpt><trkpt lat="44.5201" lon="34.252548"><ele>230.1</ele><time>2011-10-13T09:40:57.0000000+00:00</time></trkpt><trkpt lat="44.519878" lon="34.25256"><ele>230.8</ele><time>2011-10-13T09:41:02.0000000+00:00</time></trkpt><trkpt lat="44.519688" lon="34.252567"><ele>230.5</ele><time>2011-10-13T09:41:07.0000000+00:00</time></trkpt><trkpt lat="44.519482" lon="34.252514"><ele>229.2</ele><time>2011-10-13T09:41:12.0000000+00:00</time></trkpt><trkpt lat="44.519291" lon="34.252449"><ele>226.8</ele><time>2011-10-13T09:41:17.0000000+00:00</time></trkpt><trkpt lat="44.519085" lon="34.252346"><ele>226.6</ele><time>2011-10-13T09:41:22.0000000+00:00</time></trkpt><trkpt lat="44.518845" lon="34.25214"><ele>225.4</ele><time>2011-10-13T09:41:27.0000000+00:00</time></trkpt><trkpt lat="44.518631" lon="34.251858"><ele>225.4</ele><time>2011-10-13T09:41:32.0000000+00:00</time></trkpt><trkpt lat="44.518459" lon="34.25156"><ele>226.1</ele><time>2011-10-13T09:41:37.0000000+00:00</time></trkpt><trkpt lat="44.518299" lon="34.251247"><ele>226.5</ele><time>2011-10-13T09:41:42.0000000+00:00</time></trkpt><trkpt lat="44.518169" lon="34.250961"><ele>226.7</ele><time>2011-10-13T09:41:47.0000000+00:00</time></trkpt><trkpt lat="44.518066" lon="34.250664"><ele>228.0</ele><time>2011-10-13T09:41:52.0000000+00:00</time></trkpt><trkpt lat="44.518005" lon="34.250362"><ele>228.9</ele><time>2011-10-13T09:41:57.0000000+00:00</time></trkpt><trkpt lat="44.517967" lon="34.250088"><ele>230.1</ele><time>2011-10-13T09:42:02.0000000+00:00</time></trkpt><trkpt lat="44.517975" lon="34.249874"><ele>231.6</ele><time>2011-10-13T09:42:07.0000000+00:00</time></trkpt><trkpt lat="44.517967" lon="34.249664"><ele>232.3</ele><time>2011-10-13T09:42:12.0000000+00:00</time></trkpt><trkpt lat="44.517941" lon="34.249481"><ele>230.2</ele><time>2011-10-13T09:42:17.0000000+00:00</time></trkpt><trkpt lat="44.517929" lon="34.24931"><ele>229.8</ele><time>2011-10-13T09:42:22.0000000+00:00</time></trkpt><trkpt lat="44.517929" lon="34.249069"><ele>230.4</ele><time>2011-10-13T09:42:27.0000000+00:00</time></trkpt><trkpt lat="44.517933" lon="34.248802"><ele>233.2</ele><time>2011-10-13T09:42:32.0000000+00:00</time></trkpt><trkpt lat="44.517937" lon="34.248535"><ele>234.6</ele><time>2011-10-13T09:42:37.0000000+00:00</time></trkpt><trkpt lat="44.517933" lon="34.248283"><ele>237.8</ele><time>2011-10-13T09:42:42.0000000+00:00</time></trkpt><trkpt lat="44.517929" lon="34.248062"><ele>238.6</ele><time>2011-10-13T09:42:47.0000000+00:00</time></trkpt><trkpt lat="44.517921" lon="34.247795"><ele>239.4</ele><time>2011-10-13T09:42:52.0000000+00:00</time></trkpt><trkpt lat="44.517906" lon="34.247559"><ele>241.5</ele><time>2011-10-13T09:42:57.0000000+00:00</time></trkpt><trkpt lat="44.517914" lon="34.247322"><ele>241.8</ele><time>2011-10-13T09:43:02.0000000+00:00</time></trkpt><trkpt lat="44.517918" lon="34.247154"><ele>239.9</ele><time>2011-10-13T09:43:07.0000000+00:00</time></trkpt><trkpt lat="44.517918" lon="34.246986"><ele>238.6</ele><time>2011-10-13T09:43:12.0000000+00:00</time></trkpt><trkpt lat="44.517891" lon="34.246788"><ele>239.2</ele><time>2011-10-13T09:43:17.0000000+00:00</time></trkpt><trkpt lat="44.517857" lon="34.24662"><ele>238.8</ele><time>2011-10-13T09:43:22.0000000+00:00</time></trkpt><trkpt lat="44.51786" lon="34.246464"><ele>239.6</ele><time>2011-10-13T09:43:27.0000000+00:00</time></trkpt><trkpt lat="44.51786" lon="34.246292"><ele>239.5</ele><time>2011-10-13T09:43:32.0000000+00:00</time></trkpt><trkpt lat="44.51786" lon="34.246098"><ele>238.2</ele><time>2011-10-13T09:43:37.0000000+00:00</time></trkpt><trkpt lat="44.517826" lon="34.245899"><ele>238.3</ele><time>2011-10-13T09:43:42.0000000+00:00</time></trkpt><trkpt lat="44.517811" lon="34.245674"><ele>238.0</ele><time>2011-10-13T09:43:47.0000000+00:00</time></trkpt><trkpt lat="44.517803" lon="34.24548"><ele>238.6</ele><time>2011-10-13T09:43:52.0000000+00:00</time></trkpt><trkpt lat="44.517807" lon="34.245281"><ele>239.0</ele><time>2011-10-13T09:43:57.0000000+00:00</time></trkpt><trkpt lat="44.517803" lon="34.245068"><ele>240.3</ele><time>2011-10-13T09:44:02.0000000+00:00</time></trkpt><trkpt lat="44.517784" lon="34.244884"><ele>239.6</ele><time>2011-10-13T09:44:07.0000000+00:00</time></trkpt><trkpt lat="44.517746" lon="34.244663"><ele>242.2</ele><time>2011-10-13T09:44:12.0000000+00:00</time></trkpt><trkpt lat="44.517708" lon="34.244457"><ele>242.6</ele><time>2011-10-13T09:44:17.0000000+00:00</time></trkpt><trkpt lat="44.517685" lon="34.244308"><ele>241.9</ele><time>2011-10-13T09:44:22.0000000+00:00</time></trkpt><trkpt lat="44.517662" lon="34.244106"><ele>243.2</ele><time>2011-10-13T09:44:27.0000000+00:00</time></trkpt><trkpt lat="44.517628" lon="34.243904"><ele>245.5</ele><time>2011-10-13T09:44:32.0000000+00:00</time></trkpt><trkpt lat="44.517605" lon="34.243721"><ele>246.9</ele><time>2011-10-13T09:44:37.0000000+00:00</time></trkpt><trkpt lat="44.517578" lon="34.243519"><ele>247.5</ele><time>2011-10-13T09:44:42.0000000+00:00</time></trkpt><trkpt lat="44.517544" lon="34.243343"><ele>249.5</ele><time>2011-10-13T09:44:47.0000000+00:00</time></trkpt><trkpt lat="44.517517" lon="34.243141"><ele>248.9</ele><time>2011-10-13T09:44:52.0000000+00:00</time></trkpt><trkpt lat="44.51746" lon="34.242943"><ele>249.8</ele><time>2011-10-13T09:44:57.0000000+00:00</time></trkpt><trkpt lat="44.517403" lon="34.242741"><ele>249.5</ele><time>2011-10-13T09:45:02.0000000+00:00</time></trkpt><trkpt lat="44.517357" lon="34.24255"><ele>249.9</ele><time>2011-10-13T09:45:07.0000000+00:00</time></trkpt><trkpt lat="44.517315" lon="34.242371"><ele>250.7</ele><time>2011-10-13T09:45:12.0000000+00:00</time></trkpt><trkpt lat="44.517277" lon="34.242222"><ele>254.0</ele><time>2011-10-13T09:45:17.0000000+00:00</time></trkpt><trkpt lat="44.517223" lon="34.242046"><ele>253.5</ele><time>2011-10-13T09:45:22.0000000+00:00</time></trkpt><trkpt lat="44.517178" lon="34.241859"><ele>253.8</ele><time>2011-10-13T09:45:27.0000000+00:00</time></trkpt><trkpt lat="44.517128" lon="34.241669"><ele>254.4</ele><time>2011-10-13T09:45:32.0000000+00:00</time></trkpt><trkpt lat="44.517078" lon="34.24147"><ele>255.8</ele><time>2011-10-13T09:45:37.0000000+00:00</time></trkpt><trkpt lat="44.517033" lon="34.24128"><ele>256.6</ele><time>2011-10-13T09:45:42.0000000+00:00</time></trkpt><trkpt lat="44.516968" lon="34.241074"><ele>257.2</ele><time>2011-10-13T09:45:47.0000000+00:00</time></trkpt><trkpt lat="44.516914" lon="34.240883"><ele>257.8</ele><time>2011-10-13T09:45:52.0000000+00:00</time></trkpt><trkpt lat="44.516861" lon="34.240681"><ele>256.9</ele><time>2011-10-13T09:45:57.0000000+00:00</time></trkpt><trkpt lat="44.5168" lon="34.240482"><ele>257.0</ele><time>2011-10-13T09:46:02.0000000+00:00</time></trkpt><trkpt lat="44.516724" lon="34.240288"><ele>256.9</ele><time>2011-10-13T09:46:07.0000000+00:00</time></trkpt><trkpt lat="44.516666" lon="34.24012"><ele>257.1</ele><time>2011-10-13T09:46:12.0000000+00:00</time></trkpt><trkpt lat="44.516598" lon="34.239922"><ele>256.6</ele><time>2011-10-13T09:46:17.0000000+00:00</time></trkpt><trkpt lat="44.51651" lon="34.2397"><ele>257.6</ele><time>2011-10-13T09:46:22.0000000+00:00</time></trkpt><trkpt lat="44.516438" lon="34.239452"><ele>257.5</ele><time>2011-10-13T09:46:27.0000000+00:00</time></trkpt><trkpt lat="44.516373" lon="34.239212"><ele>258.7</ele><time>2011-10-13T09:46:32.0000000+00:00</time></trkpt><trkpt lat="44.516335" lon="34.238987"><ele>259.4</ele><time>2011-10-13T09:46:37.0000000+00:00</time></trkpt><trkpt lat="44.516296" lon="34.238758"><ele>259.3</ele><time>2011-10-13T09:46:42.0000000+00:00</time></trkpt><trkpt lat="44.5163" lon="34.238556"><ele>260.0</ele><time>2011-10-13T09:46:47.0000000+00:00</time></trkpt><trkpt lat="44.516369" lon="34.238415"><ele>261.2</ele><time>2011-10-13T09:46:52.0000000+00:00</time></trkpt><trkpt lat="44.516468" lon="34.238216"><ele>261.5</ele><time>2011-10-13T09:46:57.0000000+00:00</time></trkpt><trkpt lat="44.516533" lon="34.238026"><ele>262.7</ele><time>2011-10-13T09:47:02.0000000+00:00</time></trkpt><trkpt lat="44.516609" lon="34.23782"><ele>262.7</ele><time>2011-10-13T09:47:07.0000000+00:00</time></trkpt><trkpt lat="44.516678" lon="34.237633"><ele>262.8</ele><time>2011-10-13T09:47:12.0000000+00:00</time></trkpt><trkpt lat="44.516739" lon="34.237438"><ele>261.6</ele><time>2011-10-13T09:47:17.0000000+00:00</time></trkpt><trkpt lat="44.516827" lon="34.237221"><ele>261.9</ele><time>2011-10-13T09:47:22.0000000+00:00</time></trkpt><trkpt lat="44.516922" lon="34.237034"><ele>262.5</ele><time>2011-10-13T09:47:27.0000000+00:00</time></trkpt><trkpt lat="44.516975" lon="34.236862"><ele>262.9</ele><time>2011-10-13T09:47:32.0000000+00:00</time></trkpt><trkpt lat="44.517014" lon="34.236656"><ele>261.8</ele><time>2011-10-13T09:47:37.0000000+00:00</time></trkpt><trkpt lat="44.517021" lon="34.2365"><ele>260.7</ele><time>2011-10-13T09:47:42.0000000+00:00</time></trkpt><trkpt lat="44.517048" lon="34.236309"><ele>261.1</ele><time>2011-10-13T09:47:47.0000000+00:00</time></trkpt><trkpt lat="44.517086" lon="34.236092"><ele>261.1</ele><time>2011-10-13T09:47:52.0000000+00:00</time></trkpt><trkpt lat="44.517132" lon="34.235878"><ele>261.3</ele><time>2011-10-13T09:47:57.0000000+00:00</time></trkpt><trkpt lat="44.517162" lon="34.235668"><ele>261.6</ele><time>2011-10-13T09:48:02.0000000+00:00</time></trkpt><trkpt lat="44.517185" lon="34.235455"><ele>261.7</ele><time>2011-10-13T09:48:07.0000000+00:00</time></trkpt><trkpt lat="44.517174" lon="34.235237"><ele>263.1</ele><time>2011-10-13T09:48:12.0000000+00:00</time></trkpt><trkpt lat="44.517197" lon="34.23502"><ele>263.9</ele><time>2011-10-13T09:48:17.0000000+00:00</time></trkpt><trkpt lat="44.517193" lon="34.234806"><ele>266.0</ele><time>2011-10-13T09:48:22.0000000+00:00</time></trkpt><trkpt lat="44.517197" lon="34.234634"><ele>266.8</ele><time>2011-10-13T09:48:27.0000000+00:00</time></trkpt><trkpt lat="44.517208" lon="34.234478"><ele>267.6</ele><time>2011-10-13T09:48:32.0000000+00:00</time></trkpt><trkpt lat="44.517204" lon="34.234306"><ele>267.9</ele><time>2011-10-13T09:48:37.0000000+00:00</time></trkpt><trkpt lat="44.517204" lon="34.234138"><ele>268.7</ele><time>2011-10-13T09:48:42.0000000+00:00</time></trkpt><trkpt lat="44.517212" lon="34.233955"><ele>269.6</ele><time>2011-10-13T09:48:47.0000000+00:00</time></trkpt><trkpt lat="44.517239" lon="34.233784"><ele>270.1</ele><time>2011-10-13T09:48:52.0000000+00:00</time></trkpt><trkpt lat="44.517281" lon="34.233601"><ele>271.3</ele><time>2011-10-13T09:48:57.0000000+00:00</time></trkpt><trkpt lat="44.517342" lon="34.233429"><ele>271.6</ele><time>2011-10-13T09:49:02.0000000+00:00</time></trkpt><trkpt lat="44.517376" lon="34.233261"><ele>272.7</ele><time>2011-10-13T09:49:07.0000000+00:00</time></trkpt><trkpt lat="44.517414" lon="34.233089"><ele>273.8</ele><time>2011-10-13T09:49:12.0000000+00:00</time></trkpt><trkpt lat="44.517448" lon="34.232918"><ele>273.7</ele><time>2011-10-13T09:49:17.0000000+00:00</time></trkpt><trkpt lat="44.517487" lon="34.232742"><ele>273.7</ele><time>2011-10-13T09:49:22.0000000+00:00</time></trkpt><trkpt lat="44.517517" lon="34.232559"><ele>273.7</ele><time>2011-10-13T09:49:27.0000000+00:00</time></trkpt><trkpt lat="44.517548" lon="34.232376"><ele>274.7</ele><time>2011-10-13T09:49:32.0000000+00:00</time></trkpt><trkpt lat="44.51759" lon="34.232216"><ele>276.4</ele><time>2011-10-13T09:49:37.0000000+00:00</time></trkpt><trkpt lat="44.517605" lon="34.232033"><ele>277.1</ele><time>2011-10-13T09:49:42.0000000+00:00</time></trkpt><trkpt lat="44.517662" lon="34.23185"><ele>277.5</ele><time>2011-10-13T09:49:47.0000000+00:00</time></trkpt><trkpt lat="44.517693" lon="34.231636"><ele>277.6</ele><time>2011-10-13T09:49:52.0000000+00:00</time></trkpt><trkpt lat="44.51775" lon="34.231434"><ele>278.1</ele><time>2011-10-13T09:49:57.0000000+00:00</time></trkpt><trkpt lat="44.517784" lon="34.231213"><ele>279.6</ele><time>2011-10-13T09:50:02.0000000+00:00</time></trkpt><trkpt lat="44.517818" lon="34.231033"><ele>280.4</ele><time>2011-10-13T09:50:07.0000000+00:00</time></trkpt><trkpt lat="44.51786" lon="34.230827"><ele>281.0</ele><time>2011-10-13T09:50:12.0000000+00:00</time></trkpt><trkpt lat="44.51791" lon="34.230644"><ele>280.0</ele><time>2011-10-13T09:50:17.0000000+00:00</time></trkpt><trkpt lat="44.517937" lon="34.230492"><ele>280.1</ele><time>2011-10-13T09:50:22.0000000+00:00</time></trkpt><trkpt lat="44.517979" lon="34.230259"><ele>280.8</ele><time>2011-10-13T09:50:27.0000000+00:00</time></trkpt><trkpt lat="44.518017" lon="34.229977"><ele>281.2</ele><time>2011-10-13T09:50:32.0000000+00:00</time></trkpt><trkpt lat="44.518044" lon="34.229706"><ele>281.0</ele><time>2011-10-13T09:50:37.0000000+00:00</time></trkpt><trkpt lat="44.51807" lon="34.229404"><ele>281.6</ele><time>2011-10-13T09:50:42.0000000+00:00</time></trkpt><trkpt lat="44.51812" lon="34.229061"><ele>281.2</ele><time>2011-10-13T09:50:47.0000000+00:00</time></trkpt><trkpt lat="44.518154" lon="34.228691"><ele>280.9</ele><time>2011-10-13T09:50:52.0000000+00:00</time></trkpt><trkpt lat="44.518192" lon="34.228371"><ele>281.1</ele><time>2011-10-13T09:50:57.0000000+00:00</time></trkpt><trkpt lat="44.518227" lon="34.22802"><ele>281.4</ele><time>2011-10-13T09:51:02.0000000+00:00</time></trkpt><trkpt lat="44.518284" lon="34.227718"><ele>281.3</ele><time>2011-10-13T09:51:07.0000000+00:00</time></trkpt><trkpt lat="44.518314" lon="34.227444"><ele>281.2</ele><time>2011-10-13T09:51:12.0000000+00:00</time></trkpt><trkpt lat="44.518341" lon="34.227188"><ele>280.7</ele><time>2011-10-13T09:51:17.0000000+00:00</time></trkpt><trkpt lat="44.518337" lon="34.226944"><ele>281.1</ele><time>2011-10-13T09:51:22.0000000+00:00</time></trkpt><trkpt lat="44.518341" lon="34.226646"><ele>281.2</ele><time>2011-10-13T09:51:27.0000000+00:00</time></trkpt><trkpt lat="44.518341" lon="34.22636"><ele>282.9</ele><time>2011-10-13T09:51:32.0000000+00:00</time></trkpt><trkpt lat="44.518322" lon="34.226093"><ele>285.5</ele><time>2011-10-13T09:51:37.0000000+00:00</time></trkpt><trkpt lat="44.518291" lon="34.225872"><ele>288.2</ele><time>2011-10-13T09:51:42.0000000+00:00</time></trkpt><trkpt lat="44.518257" lon="34.225666"><ele>287.8</ele><time>2011-10-13T09:51:47.0000000+00:00</time></trkpt><trkpt lat="44.51823" lon="34.225479"><ele>290.5</ele><time>2011-10-13T09:51:52.0000000+00:00</time></trkpt><trkpt lat="44.518192" lon="34.225319"><ele>292.4</ele><time>2011-10-13T09:51:57.0000000+00:00</time></trkpt><trkpt lat="44.518173" lon="34.225216"><ele>294.2</ele><time>2011-10-13T09:52:02.0000000+00:00</time></trkpt><trkpt lat="44.518112" lon="34.225101"><ele>294.0</ele><time>2011-10-13T09:52:07.0000000+00:00</time></trkpt><trkpt lat="44.518112" lon="34.225098"><ele>293.8</ele><time>2011-10-13T09:52:12.0000000+00:00</time></trkpt><trkpt lat="44.518108" lon="34.225094"><ele>294.3</ele><time>2011-10-13T09:52:17.0000000+00:00</time></trkpt><trkpt lat="44.518101" lon="34.225094"><ele>294.3</ele><time>2011-10-13T09:52:22.0000000+00:00</time></trkpt><trkpt lat="44.518097" lon="34.225094"><ele>294.4</ele><time>2011-10-13T09:52:27.0000000+00:00</time></trkpt><trkpt lat="44.518097" lon="34.225094"><ele>294.5</ele><time>2011-10-13T09:52:32.0000000+00:00</time></trkpt><trkpt lat="44.518097" lon="34.225094"><ele>294.6</ele><time>2011-10-13T09:52:37.0000000+00:00</time></trkpt><trkpt lat="44.518097" lon="34.225094"><ele>294.6</ele><time>2011-10-13T09:52:42.0000000+00:00</time></trkpt><trkpt lat="44.518097" lon="34.225094"><ele>294.6</ele><time>2011-10-13T09:52:47.0000000+00:00</time></trkpt><trkpt lat="44.518097" lon="34.225094"><ele>294.6</ele><time>2011-10-13T09:52:52.0000000+00:00</time></trkpt><trkpt lat="44.518097" lon="34.225094"><ele>294.6</ele><time>2011-10-13T09:52:57.0000000+00:00</time></trkpt><trkpt lat="44.518089" lon="34.225086"><ele>293.4</ele><time>2011-10-13T09:53:02.0000000+00:00</time></trkpt><trkpt lat="44.518093" lon="34.22509"><ele>293.1</ele><time>2011-10-13T09:53:07.0000000+00:00</time></trkpt><trkpt lat="44.518097" lon="34.225082"><ele>293.0</ele><time>2011-10-13T09:53:12.0000000+00:00</time></trkpt><trkpt lat="44.518105" lon="34.225075"><ele>291.6</ele><time>2011-10-13T09:53:17.0000000+00:00</time></trkpt><trkpt lat="44.518105" lon="34.225071"><ele>291.3</ele><time>2011-10-13T09:53:22.0000000+00:00</time></trkpt><trkpt lat="44.518108" lon="34.225067"><ele>291.8</ele><time>2011-10-13T09:53:27.0000000+00:00</time></trkpt><trkpt lat="44.518108" lon="34.225063"><ele>292.2</ele><time>2011-10-13T09:53:32.0000000+00:00</time></trkpt><trkpt lat="44.518108" lon="34.22506"><ele>291.9</ele><time>2011-10-13T09:53:37.0000000+00:00</time></trkpt><trkpt lat="44.518093" lon="34.224972"><ele>292.3</ele><time>2011-10-13T09:53:42.0000000+00:00</time></trkpt><trkpt lat="44.518032" lon="34.224762"><ele>292.2</ele><time>2011-10-13T09:53:47.0000000+00:00</time></trkpt><trkpt lat="44.517975" lon="34.224541"><ele>292.4</ele><time>2011-10-13T09:53:52.0000000+00:00</time></trkpt><trkpt lat="44.517937" lon="34.22435"><ele>291.9</ele><time>2011-10-13T09:53:57.0000000+00:00</time></trkpt><trkpt lat="44.517906" lon="34.224152"><ele>290.8</ele><time>2011-10-13T09:54:02.0000000+00:00</time></trkpt><trkpt lat="44.517841" lon="34.223919"><ele>289.3</ele><time>2011-10-13T09:54:07.0000000+00:00</time></trkpt><trkpt lat="44.517773" lon="34.223656"><ele>287.3</ele><time>2011-10-13T09:54:12.0000000+00:00</time></trkpt><trkpt lat="44.517666" lon="34.223309"><ele>286.8</ele><time>2011-10-13T09:54:17.0000000+00:00</time></trkpt><trkpt lat="44.517487" lon="34.222927"><ele>284.9</ele><time>2011-10-13T09:54:22.0000000+00:00</time></trkpt><trkpt lat="44.517216" lon="34.222572"><ele>283.7</ele><time>2011-10-13T09:54:27.0000000+00:00</time></trkpt><trkpt lat="44.516876" lon="34.222153"><ele>280.8</ele><time>2011-10-13T09:54:32.0000000+00:00</time></trkpt><trkpt lat="44.516499" lon="34.221714"><ele>277.0</ele><time>2011-10-13T09:54:37.0000000+00:00</time></trkpt><trkpt lat="44.516132" lon="34.221279"><ele>275.4</ele><time>2011-10-13T09:54:42.0000000+00:00</time></trkpt><trkpt lat="44.515789" lon="34.220814"><ele>273.3</ele><time>2011-10-13T09:54:47.0000000+00:00</time></trkpt><trkpt lat="44.515556" lon="34.220184"><ele>271.9</ele><time>2011-10-13T09:54:52.0000000+00:00</time></trkpt><trkpt lat="44.515404" lon="34.219475"><ele>270.5</ele><time>2011-10-13T09:54:57.0000000+00:00</time></trkpt><trkpt lat="44.515358" lon="34.218822"><ele>270.0</ele><time>2011-10-13T09:55:02.0000000+00:00</time></trkpt><trkpt lat="44.515327" lon="34.218163"><ele>270.3</ele><time>2011-10-13T09:55:07.0000000+00:00</time></trkpt><trkpt lat="44.515301" lon="34.217545"><ele>272.1</ele><time>2011-10-13T09:55:12.0000000+00:00</time></trkpt><trkpt lat="44.515278" lon="34.21703"><ele>270.4</ele><time>2011-10-13T09:55:17.0000000+00:00</time></trkpt><trkpt lat="44.515274" lon="34.216572"><ele>270.2</ele><time>2011-10-13T09:55:22.0000000+00:00</time></trkpt><trkpt lat="44.515266" lon="34.216106"><ele>270.5</ele><time>2011-10-13T09:55:27.0000000+00:00</time></trkpt><trkpt lat="44.51527" lon="34.21563"><ele>267.1</ele><time>2011-10-13T09:55:32.0000000+00:00</time></trkpt><trkpt lat="44.515259" lon="34.215096"><ele>265.0</ele><time>2011-10-13T09:55:37.0000000+00:00</time></trkpt><trkpt lat="44.515232" lon="34.214546"><ele>262.7</ele><time>2011-10-13T09:55:42.0000000+00:00</time></trkpt><trkpt lat="44.515198" lon="34.213955"><ele>259.3</ele><time>2011-10-13T09:55:47.0000000+00:00</time></trkpt><trkpt lat="44.515133" lon="34.21336"><ele>255.8</ele><time>2011-10-13T09:55:52.0000000+00:00</time></trkpt><trkpt lat="44.515068" lon="34.21278"><ele>253.8</ele><time>2011-10-13T09:55:57.0000000+00:00</time></trkpt><trkpt lat="44.515026" lon="34.212246"><ele>252.2</ele><time>2011-10-13T09:56:02.0000000+00:00</time></trkpt><trkpt lat="44.514977" lon="34.211761"><ele>250.5</ele><time>2011-10-13T09:56:07.0000000+00:00</time></trkpt><trkpt lat="44.514915" lon="34.211308"><ele>247.7</ele><time>2011-10-13T09:56:12.0000000+00:00</time></trkpt><trkpt lat="44.514854" lon="34.210884"><ele>245.4</ele><time>2011-10-13T09:56:17.0000000+00:00</time></trkpt><trkpt lat="44.514801" lon="34.210426"><ele>244.3</ele><time>2011-10-13T09:56:22.0000000+00:00</time></trkpt><trkpt lat="44.514698" lon="34.209938"><ele>244.6</ele><time>2011-10-13T09:56:27.0000000+00:00</time></trkpt><trkpt lat="44.514572" lon="34.209454"><ele>243.2</ele><time>2011-10-13T09:56:32.0000000+00:00</time></trkpt><trkpt lat="44.514458" lon="34.208935"><ele>241.8</ele><time>2011-10-13T09:56:37.0000000+00:00</time></trkpt><trkpt lat="44.51432" lon="34.208397"><ele>240.3</ele><time>2011-10-13T09:56:42.0000000+00:00</time></trkpt><trkpt lat="44.514122" lon="34.207832"><ele>238.5</ele><time>2011-10-13T09:56:47.0000000+00:00</time></trkpt><trkpt lat="44.513931" lon="34.207222"><ele>236.9</ele><time>2011-10-13T09:56:52.0000000+00:00</time></trkpt><trkpt lat="44.513702" lon="34.206535"><ele>237.0</ele><time>2011-10-13T09:56:57.0000000+00:00</time></trkpt><trkpt lat="44.513435" lon="34.20583"><ele>236.9</ele><time>2011-10-13T09:57:02.0000000+00:00</time></trkpt><trkpt lat="44.513092" lon="34.205105"><ele>234.5</ele><time>2011-10-13T09:57:07.0000000+00:00</time></trkpt><trkpt lat="44.512764" lon="34.204445"><ele>231.5</ele><time>2011-10-13T09:57:12.0000000+00:00</time></trkpt><trkpt lat="44.512486" lon="34.203899"><ele>230.8</ele><time>2011-10-13T09:57:17.0000000+00:00</time></trkpt><trkpt lat="44.512325" lon="34.203381"><ele>231.5</ele><time>2011-10-13T09:57:22.0000000+00:00</time></trkpt><trkpt lat="44.512325" lon="34.202862"><ele>230.8</ele><time>2011-10-13T09:57:27.0000000+00:00</time></trkpt><trkpt lat="44.512428" lon="34.202396"><ele>230.5</ele><time>2011-10-13T09:57:32.0000000+00:00</time></trkpt><trkpt lat="44.512581" lon="34.201984"><ele>229.1</ele><time>2011-10-13T09:57:37.0000000+00:00</time></trkpt><trkpt lat="44.512718" lon="34.201553"><ele>229.1</ele><time>2011-10-13T09:57:42.0000000+00:00</time></trkpt><trkpt lat="44.512852" lon="34.201057"><ele>229.2</ele><time>2011-10-13T09:57:47.0000000+00:00</time></trkpt><trkpt lat="44.512909" lon="34.200539"><ele>228.5</ele><time>2011-10-13T09:57:52.0000000+00:00</time></trkpt><trkpt lat="44.512905" lon="34.200039"><ele>227.2</ele><time>2011-10-13T09:57:57.0000000+00:00</time></trkpt><trkpt lat="44.512924" lon="34.199532"><ele>226.2</ele><time>2011-10-13T09:58:02.0000000+00:00</time></trkpt><trkpt lat="44.512943" lon="34.199085"><ele>225.6</ele><time>2011-10-13T09:58:07.0000000+00:00</time></trkpt><trkpt lat="44.512951" lon="34.198647"><ele>224.3</ele><time>2011-10-13T09:58:12.0000000+00:00</time></trkpt><trkpt lat="44.512947" lon="34.19817"><ele>221.7</ele><time>2011-10-13T09:58:17.0000000+00:00</time></trkpt><trkpt lat="44.512924" lon="34.197666"><ele>220.0</ele><time>2011-10-13T09:58:22.0000000+00:00</time></trkpt><trkpt lat="44.512875" lon="34.197105"><ele>219.7</ele><time>2011-10-13T09:58:27.0000000+00:00</time></trkpt><trkpt lat="44.512726" lon="34.196522"><ele>218.2</ele><time>2011-10-13T09:58:32.0000000+00:00</time></trkpt><trkpt lat="44.512524" lon="34.19593"><ele>215.5</ele><time>2011-10-13T09:58:37.0000000+00:00</time></trkpt><trkpt lat="44.512302" lon="34.195396"><ele>214.0</ele><time>2011-10-13T09:58:42.0000000+00:00</time></trkpt><trkpt lat="44.51215" lon="34.194893"><ele>213.5</ele><time>2011-10-13T09:58:47.0000000+00:00</time></trkpt><trkpt lat="44.512005" lon="34.19442"><ele>210.6</ele><time>2011-10-13T09:58:52.0000000+00:00</time></trkpt><trkpt lat="44.511826" lon="34.193909"><ele>209.4</ele><time>2011-10-13T09:58:57.0000000+00:00</time></trkpt><trkpt lat="44.511574" lon="34.193378"><ele>207.2</ele><time>2011-10-13T09:59:02.0000000+00:00</time></trkpt><trkpt lat="44.511242" lon="34.192924"><ele>203.9</ele><time>2011-10-13T09:59:07.0000000+00:00</time></trkpt><trkpt lat="44.510906" lon="34.192493"><ele>201.9</ele><time>2011-10-13T09:59:12.0000000+00:00</time></trkpt><trkpt lat="44.510582" lon="34.192062"><ele>198.2</ele><time>2011-10-13T09:59:17.0000000+00:00</time></trkpt><trkpt lat="44.510273" lon="34.191624"><ele>196.9</ele><time>2011-10-13T09:59:22.0000000+00:00</time></trkpt><trkpt lat="44.509991" lon="34.19112"><ele>193.8</ele><time>2011-10-13T09:59:27.0000000+00:00</time></trkpt><trkpt lat="44.509727" lon="34.19062"><ele>191.7</ele><time>2011-10-13T09:59:32.0000000+00:00</time></trkpt><trkpt lat="44.509499" lon="34.190117"><ele>191.1</ele><time>2011-10-13T09:59:37.0000000+00:00</time></trkpt><trkpt lat="44.509396" lon="34.189617"><ele>190.1</ele><time>2011-10-13T09:59:42.0000000+00:00</time></trkpt><trkpt lat="44.509315" lon="34.189129"><ele>189.7</ele><time>2011-10-13T09:59:47.0000000+00:00</time></trkpt><trkpt lat="44.509163" lon="34.188667"><ele>190.5</ele><time>2011-10-13T09:59:52.0000000+00:00</time></trkpt><trkpt lat="44.508907" lon="34.188316"><ele>188.7</ele><time>2011-10-13T09:59:57.0000000+00:00</time></trkpt><trkpt lat="44.508659" lon="34.187984"><ele>187.8</ele><time>2011-10-13T10:00:02.0000000+00:00</time></trkpt><trkpt lat="44.508484" lon="34.18763"><ele>185.6</ele><time>2011-10-13T10:00:07.0000000+00:00</time></trkpt><trkpt lat="44.508533" lon="34.187191"><ele>184.8</ele><time>2011-10-13T10:00:12.0000000+00:00</time></trkpt><trkpt lat="44.508812" lon="34.186913"><ele>186.0</ele><time>2011-10-13T10:00:17.0000000+00:00</time></trkpt><trkpt lat="44.509079" lon="34.18663"><ele>185.0</ele><time>2011-10-13T10:00:22.0000000+00:00</time></trkpt><trkpt lat="44.509319" lon="34.186287"><ele>183.4</ele><time>2011-10-13T10:00:27.0000000+00:00</time></trkpt><trkpt lat="44.50948" lon="34.185822"><ele>182.3</ele><time>2011-10-13T10:00:32.0000000+00:00</time></trkpt><trkpt lat="44.509541" lon="34.185204"><ele>180.0</ele><time>2011-10-13T10:00:37.0000000+00:00</time></trkpt><trkpt lat="44.50964" lon="34.184502"><ele>178.3</ele><time>2011-10-13T10:00:42.0000000+00:00</time></trkpt><trkpt lat="44.509762" lon="34.183762"><ele>175.3</ele><time>2011-10-13T10:00:47.0000000+00:00</time></trkpt><trkpt lat="44.509914" lon="34.183071"><ele>173.1</ele><time>2011-10-13T10:00:52.0000000+00:00</time></trkpt><trkpt lat="44.510109" lon="34.18251"><ele>170.6</ele><time>2011-10-13T10:00:57.0000000+00:00</time></trkpt><trkpt lat="44.510334" lon="34.182007"><ele>167.8</ele><time>2011-10-13T10:01:02.0000000+00:00</time></trkpt><trkpt lat="44.510593" lon="34.181652"><ele>163.7</ele><time>2011-10-13T10:01:07.0000000+00:00</time></trkpt><trkpt lat="44.510639" lon="34.181606"><ele>162.5</ele><time>2011-10-13T10:01:12.0000000+00:00</time></trkpt><trkpt lat="44.510651" lon="34.181591"><ele>162.2</ele><time>2011-10-13T10:01:17.0000000+00:00</time></trkpt><trkpt lat="44.510654" lon="34.181583"><ele>162.4</ele><time>2011-10-13T10:01:22.0000000+00:00</time></trkpt><trkpt lat="44.510651" lon="34.181583"><ele>162.5</ele><time>2011-10-13T10:01:27.0000000+00:00</time></trkpt><trkpt lat="44.510651" lon="34.18158"><ele>162.7</ele><time>2011-10-13T10:01:32.0000000+00:00</time></trkpt><trkpt lat="44.510647" lon="34.181576"><ele>162.7</ele><time>2011-10-13T10:01:37.0000000+00:00</time></trkpt><trkpt lat="44.510647" lon="34.181576"><ele>162.7</ele><time>2011-10-13T10:01:42.0000000+00:00</time></trkpt><trkpt lat="44.510647" lon="34.181576"><ele>162.7</ele><time>2011-10-13T10:01:47.0000000+00:00</time></trkpt><trkpt lat="44.510647" lon="34.181572"><ele>162.8</ele><time>2011-10-13T10:01:52.0000000+00:00</time></trkpt><trkpt lat="44.510647" lon="34.181572"><ele>162.8</ele><time>2011-10-13T10:01:57.0000000+00:00</time></trkpt><trkpt lat="44.510647" lon="34.181572"><ele>162.8</ele><time>2011-10-13T10:02:02.0000000+00:00</time></trkpt><trkpt lat="44.510647" lon="34.181572"><ele>162.8</ele><time>2011-10-13T10:02:07.0000000+00:00</time></trkpt><trkpt lat="44.510647" lon="34.181572"><ele>162.8</ele><time>2011-10-13T10:02:12.0000000+00:00</time></trkpt><trkpt lat="44.510647" lon="34.181572"><ele>162.8</ele><time>2011-10-13T10:02:17.0000000+00:00</time></trkpt><trkpt lat="44.510647" lon="34.181572"><ele>162.8</ele><time>2011-10-13T10:02:22.0000000+00:00</time></trkpt><trkpt lat="44.510647" lon="34.181572"><ele>162.8</ele><time>2011-10-13T10:02:27.0000000+00:00</time></trkpt><trkpt lat="44.510647" lon="34.181572"><ele>162.8</ele><time>2011-10-13T10:02:32.0000000+00:00</time></trkpt><trkpt lat="44.510647" lon="34.181572"><ele>162.9</ele><time>2011-10-13T10:02:37.0000000+00:00</time></trkpt><trkpt lat="44.510643" lon="34.181572"><ele>162.9</ele><time>2011-10-13T10:02:42.0000000+00:00</time></trkpt><trkpt lat="44.510643" lon="34.181572"><ele>162.9</ele><time>2011-10-13T10:02:47.0000000+00:00</time></trkpt><trkpt lat="44.510643" lon="34.181572"><ele>162.9</ele><time>2011-10-13T10:02:52.0000000+00:00</time></trkpt><trkpt lat="44.510662" lon="34.181561"><ele>162.8</ele><time>2011-10-13T10:02:57.0000000+00:00</time></trkpt><trkpt lat="44.510666" lon="34.181557"><ele>162.5</ele><time>2011-10-13T10:03:02.0000000+00:00</time></trkpt><trkpt lat="44.510647" lon="34.181564"><ele>162.6</ele><time>2011-10-13T10:03:07.0000000+00:00</time></trkpt><trkpt lat="44.510624" lon="34.181473"><ele>162.9</ele><time>2011-10-13T10:03:12.0000000+00:00</time></trkpt><trkpt lat="44.510563" lon="34.181461"><ele>163.8</ele><time>2011-10-13T10:03:17.0000000+00:00</time></trkpt><trkpt lat="44.510502" lon="34.181526"><ele>163.8</ele><time>2011-10-13T10:03:22.0000000+00:00</time></trkpt><trkpt lat="44.510418" lon="34.181484"><ele>164.4</ele><time>2011-10-13T10:03:27.0000000+00:00</time></trkpt><trkpt lat="44.51041" lon="34.181374"><ele>163.0</ele><time>2011-10-13T10:03:32.0000000+00:00</time></trkpt><trkpt lat="44.510483" lon="34.181232"><ele>163.3</ele><time>2011-10-13T10:03:37.0000000+00:00</time></trkpt><trkpt lat="44.51062" lon="34.181087"><ele>163.9</ele><time>2011-10-13T10:03:42.0000000+00:00</time></trkpt><trkpt lat="44.510799" lon="34.181046"><ele>164.6</ele><time>2011-10-13T10:03:47.0000000+00:00</time></trkpt><trkpt lat="44.510929" lon="34.181015"><ele>164.1</ele><time>2011-10-13T10:03:52.0000000+00:00</time></trkpt><trkpt lat="44.511028" lon="34.181"><ele>164.2</ele><time>2011-10-13T10:03:57.0000000+00:00</time></trkpt><trkpt lat="44.511101" lon="34.180973"><ele>164.2</ele><time>2011-10-13T10:04:02.0000000+00:00</time></trkpt><trkpt lat="44.511112" lon="34.180973"><ele>164.3</ele><time>2011-10-13T10:04:07.0000000+00:00</time></trkpt><trkpt lat="44.511124" lon="34.180969"><ele>164.8</ele><time>2011-10-13T10:04:12.0000000+00:00</time></trkpt><trkpt lat="44.511143" lon="34.180969"><ele>165.2</ele><time>2011-10-13T10:04:17.0000000+00:00</time></trkpt><trkpt lat="44.511204" lon="34.180954"><ele>165.2</ele><time>2011-10-13T10:04:22.0000000+00:00</time></trkpt><trkpt lat="44.511333" lon="34.180939"><ele>163.5</ele><time>2011-10-13T10:04:27.0000000+00:00</time></trkpt><trkpt lat="44.511497" lon="34.180931"><ele>162.0</ele><time>2011-10-13T10:04:32.0000000+00:00</time></trkpt><trkpt lat="44.511726" lon="34.180943"><ele>160.4</ele><time>2011-10-13T10:04:37.0000000+00:00</time></trkpt><trkpt lat="44.511986" lon="34.180996"><ele>158.4</ele><time>2011-10-13T10:04:42.0000000+00:00</time></trkpt><trkpt lat="44.51226" lon="34.180847"><ele>156.0</ele><time>2011-10-13T10:04:47.0000000+00:00</time></trkpt><trkpt lat="44.512394" lon="34.180439"><ele>153.6</ele><time>2011-10-13T10:04:52.0000000+00:00</time></trkpt><trkpt lat="44.512409" lon="34.18008"><ele>151.4</ele><time>2011-10-13T10:04:57.0000000+00:00</time></trkpt><trkpt lat="44.512226" lon="34.17979"><ele>148.8</ele><time>2011-10-13T10:05:02.0000000+00:00</time></trkpt><trkpt lat="44.512024" lon="34.179581"><ele>147.4</ele><time>2011-10-13T10:05:07.0000000+00:00</time></trkpt><trkpt lat="44.511925" lon="34.179485"><ele>146.2</ele><time>2011-10-13T10:05:12.0000000+00:00</time></trkpt><trkpt lat="44.511906" lon="34.179474"><ele>146.1</ele><time>2011-10-13T10:05:17.0000000+00:00</time></trkpt><trkpt lat="44.511906" lon="34.179474"><ele>146.1</ele><time>2011-10-13T10:05:22.0000000+00:00</time></trkpt><trkpt lat="44.511906" lon="34.179474"><ele>146.1</ele><time>2011-10-13T10:05:27.0000000+00:00</time></trkpt><trkpt lat="44.511906" lon="34.179474"><ele>146.1</ele><time>2011-10-13T10:05:32.0000000+00:00</time></trkpt><trkpt lat="44.511906" lon="34.179474"><ele>146.2</ele><time>2011-10-13T10:05:37.0000000+00:00</time></trkpt><trkpt lat="44.511906" lon="34.179474"><ele>146.1</ele><time>2011-10-13T10:05:42.0000000+00:00</time></trkpt><trkpt lat="44.511906" lon="34.179474"><ele>146.1</ele><time>2011-10-13T10:05:47.0000000+00:00</time></trkpt><trkpt lat="44.511906" lon="34.179474"><ele>146.1</ele><time>2011-10-13T10:05:52.0000000+00:00</time></trkpt><trkpt lat="44.511906" lon="34.179474"><ele>146.1</ele><time>2011-10-13T10:05:57.0000000+00:00</time></trkpt><trkpt lat="44.511814" lon="34.179398"><ele>145.5</ele><time>2011-10-13T10:06:02.0000000+00:00</time></trkpt><trkpt lat="44.511639" lon="34.179253"><ele>142.9</ele><time>2011-10-13T10:06:07.0000000+00:00</time></trkpt><trkpt lat="44.511349" lon="34.179012"><ele>140.6</ele><time>2011-10-13T10:06:12.0000000+00:00</time></trkpt><trkpt lat="44.511013" lon="34.17873"><ele>137.5</ele><time>2011-10-13T10:06:17.0000000+00:00</time></trkpt><trkpt lat="44.510693" lon="34.178699"><ele>135.3</ele><time>2011-10-13T10:06:22.0000000+00:00</time></trkpt><trkpt lat="44.51038" lon="34.178997"><ele>134.6</ele><time>2011-10-13T10:06:27.0000000+00:00</time></trkpt><trkpt lat="44.510075" lon="34.179375"><ele>134.1</ele><time>2011-10-13T10:06:32.0000000+00:00</time></trkpt><trkpt lat="44.50988" lon="34.179836"><ele>133.7</ele><time>2011-10-13T10:06:37.0000000+00:00</time></trkpt><trkpt lat="44.509705" lon="34.180058"><ele>135.1</ele><time>2011-10-13T10:06:42.0000000+00:00</time></trkpt><trkpt lat="44.50943" lon="34.17989"><ele>135.1</ele><time>2011-10-13T10:06:47.0000000+00:00</time></trkpt><trkpt lat="44.509426" lon="34.179489"><ele>134.4</ele><time>2011-10-13T10:06:52.0000000+00:00</time></trkpt><trkpt lat="44.509525" lon="34.179066"><ele>134.8</ele><time>2011-10-13T10:06:57.0000000+00:00</time></trkpt><trkpt lat="44.509594" lon="34.178566"><ele>135.2</ele><time>2011-10-13T10:07:02.0000000+00:00</time></trkpt><trkpt lat="44.509686" lon="34.178082"><ele>131.6</ele><time>2011-10-13T10:07:07.0000000+00:00</time></trkpt><trkpt lat="44.509869" lon="34.177784"><ele>128.0</ele><time>2011-10-13T10:07:12.0000000+00:00</time></trkpt><trkpt lat="44.510063" lon="34.177425"><ele>126.8</ele><time>2011-10-13T10:07:17.0000000+00:00</time></trkpt><trkpt lat="44.510113" lon="34.177044"><ele>125.3</ele><time>2011-10-13T10:07:22.0000000+00:00</time></trkpt><trkpt lat="44.509922" lon="34.176922"><ele>119.2</ele><time>2011-10-13T10:07:27.0000000+00:00</time></trkpt><trkpt lat="44.509621" lon="34.177036"><ele>114.4</ele><time>2011-10-13T10:07:32.0000000+00:00</time></trkpt><trkpt lat="44.50938" lon="34.177307"><ele>111.9</ele><time>2011-10-13T10:07:37.0000000+00:00</time></trkpt><trkpt lat="44.509266" lon="34.177647"><ele>108.4</ele><time>2011-10-13T10:07:42.0000000+00:00</time></trkpt><trkpt lat="44.509029" lon="34.177731"><ele>105.5</ele><time>2011-10-13T10:07:47.0000000+00:00</time></trkpt><trkpt lat="44.508759" lon="34.177448"><ele>101.7</ele><time>2011-10-13T10:07:52.0000000+00:00</time></trkpt><trkpt lat="44.508503" lon="34.17717"><ele>101.2</ele><time>2011-10-13T10:07:57.0000000+00:00</time></trkpt><trkpt lat="44.508263" lon="34.176952"><ele>99.7</ele><time>2011-10-13T10:08:02.0000000+00:00</time></trkpt><trkpt lat="44.507984" lon="34.177006"><ele>97.6</ele><time>2011-10-13T10:08:07.0000000+00:00</time></trkpt><trkpt lat="44.507656" lon="34.177242"><ele>95.4</ele><time>2011-10-13T10:08:12.0000000+00:00</time></trkpt><trkpt lat="44.507477" lon="34.177658"><ele>93.9</ele><time>2011-10-13T10:08:17.0000000+00:00</time></trkpt><trkpt lat="44.507404" lon="34.17802"><ele>92.1</ele><time>2011-10-13T10:08:22.0000000+00:00</time></trkpt><trkpt lat="44.507454" lon="34.178364"><ele>90.2</ele><time>2011-10-13T10:08:27.0000000+00:00</time></trkpt><trkpt lat="44.507347" lon="34.178707"><ele>88.5</ele><time>2011-10-13T10:08:32.0000000+00:00</time></trkpt><trkpt lat="44.507103" lon="34.178738"><ele>88.4</ele><time>2011-10-13T10:08:37.0000000+00:00</time></trkpt><trkpt lat="44.506874" lon="34.178497"><ele>87.1</ele><time>2011-10-13T10:08:42.0000000+00:00</time></trkpt><trkpt lat="44.506687" lon="34.17815"><ele>85.8</ele><time>2011-10-13T10:08:47.0000000+00:00</time></trkpt><trkpt lat="44.506565" lon="34.177658"><ele>84.1</ele><time>2011-10-13T10:08:52.0000000+00:00</time></trkpt><trkpt lat="44.506386" lon="34.177193"><ele>81.9</ele><time>2011-10-13T10:08:57.0000000+00:00</time></trkpt><trkpt lat="44.506126" lon="34.176891"><ele>79.5</ele><time>2011-10-13T10:09:02.0000000+00:00</time></trkpt><trkpt lat="44.505714" lon="34.176765"><ele>77.8</ele><time>2011-10-13T10:09:07.0000000+00:00</time></trkpt><trkpt lat="44.50536" lon="34.176521"><ele>76.0</ele><time>2011-10-13T10:09:12.0000000+00:00</time></trkpt><trkpt lat="44.505089" lon="34.17614"><ele>73.9</ele><time>2011-10-13T10:09:17.0000000+00:00</time></trkpt><trkpt lat="44.505062" lon="34.175617"><ele>72.6</ele><time>2011-10-13T10:09:22.0000000+00:00</time></trkpt><trkpt lat="44.505047" lon="34.175117"><ele>71.9</ele><time>2011-10-13T10:09:27.0000000+00:00</time></trkpt><trkpt lat="44.504997" lon="34.174728"><ele>71.1</ele><time>2011-10-13T10:09:32.0000000+00:00</time></trkpt><trkpt lat="44.504902" lon="34.174404"><ele>70.8</ele><time>2011-10-13T10:09:37.0000000+00:00</time></trkpt><trkpt lat="44.504765" lon="34.174023"><ele>70.2</ele><time>2011-10-13T10:09:42.0000000+00:00</time></trkpt><trkpt lat="44.504555" lon="34.173603"><ele>69.4</ele><time>2011-10-13T10:09:47.0000000+00:00</time></trkpt><trkpt lat="44.504284" lon="34.173405"><ele>64.0</ele><time>2011-10-13T10:09:52.0000000+00:00</time></trkpt><trkpt lat="44.503944" lon="34.173523"><ele>60.5</ele><time>2011-10-13T10:09:57.0000000+00:00</time></trkpt><trkpt lat="44.503582" lon="34.173786"><ele>57.7</ele><time>2011-10-13T10:10:02.0000000+00:00</time></trkpt><trkpt lat="44.50341" lon="34.174053"><ele>53.4</ele><time>2011-10-13T10:10:07.0000000+00:00</time></trkpt><trkpt lat="44.503258" lon="34.174137"><ele>51.4</ele><time>2011-10-13T10:10:12.0000000+00:00</time></trkpt><trkpt lat="44.503017" lon="34.173958"><ele>49.8</ele><time>2011-10-13T10:10:17.0000000+00:00</time></trkpt><trkpt lat="44.502632" lon="34.173603"><ele>46.2</ele><time>2011-10-13T10:10:22.0000000+00:00</time></trkpt><trkpt lat="44.502323" lon="34.173336"><ele>42.8</ele><time>2011-10-13T10:10:27.0000000+00:00</time></trkpt><trkpt lat="44.50201" lon="34.173279"><ele>39.8</ele><time>2011-10-13T10:10:32.0000000+00:00</time></trkpt><trkpt lat="44.501705" lon="34.173462"><ele>34.2</ele><time>2011-10-13T10:10:37.0000000+00:00</time></trkpt><trkpt lat="44.501522" lon="34.17321"><ele>29.6</ele><time>2011-10-13T10:10:42.0000000+00:00</time></trkpt><trkpt lat="44.501217" lon="34.173035"><ele>26.6</ele><time>2011-10-13T10:10:47.0000000+00:00</time></trkpt><trkpt lat="44.50082" lon="34.173145"><ele>29.6</ele><time>2011-10-13T10:10:52.0000000+00:00</time></trkpt><trkpt lat="44.500378" lon="34.173218"><ele>30.9</ele><time>2011-10-13T10:10:57.0000000+00:00</time></trkpt><trkpt lat="44.500008" lon="34.173374"><ele>31.8</ele><time>2011-10-13T10:11:02.0000000+00:00</time></trkpt><trkpt lat="44.499844" lon="34.173458"><ele>28.2</ele><time>2011-10-13T10:11:07.0000000+00:00</time></trkpt><trkpt lat="44.49984" lon="34.173462"><ele>26.9</ele><time>2011-10-13T10:11:12.0000000+00:00</time></trkpt><trkpt lat="44.499844" lon="34.17345"><ele>26.6</ele><time>2011-10-13T10:11:17.0000000+00:00</time></trkpt><trkpt lat="44.499828" lon="34.173443"><ele>26.6</ele><time>2011-10-13T10:11:22.0000000+00:00</time></trkpt><trkpt lat="44.499825" lon="34.173443"><ele>26.5</ele><time>2011-10-13T10:11:27.0000000+00:00</time></trkpt><trkpt lat="44.499817" lon="34.173447"><ele>26.7</ele><time>2011-10-13T10:11:32.0000000+00:00</time></trkpt><trkpt lat="44.499817" lon="34.17345"><ele>26.9</ele><time>2011-10-13T10:11:37.0000000+00:00</time></trkpt><trkpt lat="44.499817" lon="34.173458"><ele>27.0</ele><time>2011-10-13T10:11:42.0000000+00:00</time></trkpt><trkpt lat="44.499821" lon="34.173466"><ele>27.2</ele><time>2011-10-13T10:11:47.0000000+00:00</time></trkpt><trkpt lat="44.499817" lon="34.173466"><ele>27.1</ele><time>2011-10-13T10:11:52.0000000+00:00</time></trkpt><trkpt lat="44.499771" lon="34.173485"><ele>25.8</ele><time>2011-10-13T10:11:57.0000000+00:00</time></trkpt><trkpt lat="44.499638" lon="34.173519"><ele>24.2</ele><time>2011-10-13T10:12:02.0000000+00:00</time></trkpt><trkpt lat="44.499393" lon="34.173538"><ele>22.1</ele><time>2011-10-13T10:12:07.0000000+00:00</time></trkpt><trkpt lat="44.499077" lon="34.17366"><ele>20.1</ele><time>2011-10-13T10:12:12.0000000+00:00</time></trkpt><trkpt lat="44.498844" lon="34.173916"><ele>18.7</ele><time>2011-10-13T10:12:17.0000000+00:00</time></trkpt><trkpt lat="44.498726" lon="34.173954"><ele>16.9</ele><time>2011-10-13T10:12:22.0000000+00:00</time></trkpt><trkpt lat="44.4986" lon="34.173912"><ele>14.6</ele><time>2011-10-13T10:12:27.0000000+00:00</time></trkpt><trkpt lat="44.498589" lon="34.173885"><ele>17.9</ele><time>2011-10-13T10:12:32.0000000+00:00</time></trkpt><trkpt lat="44.498554" lon="34.173847"><ele>18.3</ele><time>2011-10-13T10:12:37.0000000+00:00</time></trkpt><trkpt lat="44.498535" lon="34.173645"><ele>17.7</ele><time>2011-10-13T10:12:42.0000000+00:00</time></trkpt><trkpt lat="44.498585" lon="34.173519"><ele>16.0</ele><time>2011-10-13T10:12:47.0000000+00:00</time></trkpt><trkpt lat="44.498653" lon="34.173416"><ele>13.6</ele><time>2011-10-13T10:12:52.0000000+00:00</time></trkpt><trkpt lat="44.498745" lon="34.173332"><ele>11.5</ele><time>2011-10-13T10:12:57.0000000+00:00</time></trkpt><trkpt lat="44.498783" lon="34.173294"><ele>10.2</ele><time>2011-10-13T10:13:02.0000000+00:00</time></trkpt><trkpt lat="44.498817" lon="34.17329"><ele>8.6</ele><time>2011-10-13T10:13:07.0000000+00:00</time></trkpt><trkpt lat="44.498684" lon="34.173199"><ele>8.6</ele><time>2011-10-13T10:13:12.0000000+00:00</time></trkpt><trkpt lat="44.498581" lon="34.173145"><ele>6.7</ele><time>2011-10-13T10:13:17.0000000+00:00</time></trkpt><trkpt lat="44.498508" lon="34.173115"><ele>4.1</ele><time>2011-10-13T10:13:22.0000000+00:00</time></trkpt><trkpt lat="44.498459" lon="34.173088"><ele>2.6</ele><time>2011-10-13T10:13:27.0000000+00:00</time></trkpt><trkpt lat="44.498405" lon="34.173084"><ele>1.6</ele><time>2011-10-13T10:13:32.0000000+00:00</time></trkpt><trkpt lat="44.498276" lon="34.173046"><ele>-0.5</ele><time>2011-10-13T10:13:37.0000000+00:00</time></trkpt><trkpt lat="44.498177" lon="34.172924"><ele>-2.2</ele><time>2011-10-13T10:13:42.0000000+00:00</time></trkpt><trkpt lat="44.498013" lon="34.172775"><ele>-2.9</ele><time>2011-10-13T10:13:47.0000000+00:00</time></trkpt><trkpt lat="44.497841" lon="34.172573"><ele>-4.9</ele><time>2011-10-13T10:13:52.0000000+00:00</time></trkpt><trkpt lat="44.497768" lon="34.172462"><ele>-6.4</ele><time>2011-10-13T10:13:57.0000000+00:00</time></trkpt><trkpt lat="44.497746" lon="34.172405"><ele>-6.8</ele><time>2011-10-13T10:14:02.0000000+00:00</time></trkpt><trkpt lat="44.497738" lon="34.172394"><ele>-7.6</ele><time>2011-10-13T10:14:07.0000000+00:00</time></trkpt><trkpt lat="44.497738" lon="34.172386"><ele>-8.3</ele><time>2011-10-13T10:14:12.0000000+00:00</time></trkpt><trkpt lat="44.497738" lon="34.172382"><ele>-8.8</ele><time>2011-10-13T10:14:17.0000000+00:00</time></trkpt><trkpt lat="44.497719" lon="34.17234"><ele>-9.3</ele><time>2011-10-13T10:14:22.0000000+00:00</time></trkpt><trkpt lat="44.497704" lon="34.172157"><ele>-9.4</ele><time>2011-10-13T10:14:27.0000000+00:00</time></trkpt><trkpt lat="44.497692" lon="34.171925"><ele>-9.5</ele><time>2011-10-13T10:14:32.0000000+00:00</time></trkpt><trkpt lat="44.497692" lon="34.171692"><ele>-8.7</ele><time>2011-10-13T10:14:37.0000000+00:00</time></trkpt><trkpt lat="44.497665" lon="34.171463"><ele>-9.2</ele><time>2011-10-13T10:14:42.0000000+00:00</time></trkpt><trkpt lat="44.497684" lon="34.171326"><ele>-8.9</ele><time>2011-10-13T10:14:47.0000000+00:00</time></trkpt><trkpt lat="44.497684" lon="34.171165"><ele>-9.0</ele><time>2011-10-13T10:14:52.0000000+00:00</time></trkpt><trkpt lat="44.497631" lon="34.171028"><ele>-9.3</ele><time>2011-10-13T10:14:57.0000000+00:00</time></trkpt><trkpt lat="44.49762" lon="34.170937"><ele>-9.7</ele><time>2011-10-13T10:15:02.0000000+00:00</time></trkpt><trkpt lat="44.497623" lon="34.170704"><ele>-10.1</ele><time>2011-10-13T10:15:07.0000000+00:00</time></trkpt><trkpt lat="44.497646" lon="34.170425"><ele>-10.0</ele><time>2011-10-13T10:15:12.0000000+00:00</time></trkpt><trkpt lat="44.49762" lon="34.170219"><ele>-11.0</ele><time>2011-10-13T10:15:17.0000000+00:00</time></trkpt><trkpt lat="44.497608" lon="34.170094"><ele>-12.4</ele><time>2011-10-13T10:15:22.0000000+00:00</time></trkpt><trkpt lat="44.497589" lon="34.170078"><ele>-12.3</ele><time>2011-10-13T10:15:27.0000000+00:00</time></trkpt><trkpt lat="44.497585" lon="34.170063"><ele>-12.4</ele><time>2011-10-13T10:15:32.0000000+00:00</time></trkpt><trkpt lat="44.497547" lon="34.17001"><ele>-11.4</ele><time>2011-10-13T10:15:37.0000000+00:00</time></trkpt><trkpt lat="44.497551" lon="34.170105"><ele>-11.2</ele><time>2011-10-13T10:15:42.0000000+00:00</time></trkpt><trkpt lat="44.497536" lon="34.170277"><ele>-11.5</ele><time>2011-10-13T10:15:47.0000000+00:00</time></trkpt><trkpt lat="44.497478" lon="34.17038"><ele>-11.7</ele><time>2011-10-13T10:15:52.0000000+00:00</time></trkpt><trkpt lat="44.49744" lon="34.170387"><ele>-11.3</ele><time>2011-10-13T10:15:57.0000000+00:00</time></trkpt><trkpt lat="44.497353" lon="34.170429"><ele>-10.7</ele><time>2011-10-13T10:16:02.0000000+00:00</time></trkpt><trkpt lat="44.497292" lon="34.170475"><ele>-10.1</ele><time>2011-10-13T10:16:07.0000000+00:00</time></trkpt><trkpt lat="44.497162" lon="34.170361"><ele>-8.7</ele><time>2011-10-13T10:16:12.0000000+00:00</time></trkpt><trkpt lat="44.49707" lon="34.170322"><ele>-6.7</ele><time>2011-10-13T10:16:17.0000000+00:00</time></trkpt><trkpt lat="44.496891" lon="34.17028"><ele>-5.0</ele><time>2011-10-13T10:16:22.0000000+00:00</time></trkpt><trkpt lat="44.496769" lon="34.170399"><ele>-6.6</ele><time>2011-10-13T10:16:27.0000000+00:00</time></trkpt><trkpt lat="44.4967" lon="34.170433"><ele>-4.9</ele><time>2011-10-13T10:16:32.0000000+00:00</time></trkpt><trkpt lat="44.496639" lon="34.170357"><ele>-4.1</ele><time>2011-10-13T10:16:37.0000000+00:00</time></trkpt><trkpt lat="44.496563" lon="34.170227"><ele>-5.7</ele><time>2011-10-13T10:16:42.0000000+00:00</time></trkpt><trkpt lat="44.496567" lon="34.170048"><ele>-7.9</ele><time>2011-10-13T10:16:47.0000000+00:00</time></trkpt><trkpt lat="44.496613" lon="34.169903"><ele>-9.3</ele><time>2011-10-13T10:16:52.0000000+00:00</time></trkpt><trkpt lat="44.496624" lon="34.169735"><ele>-9.5</ele><time>2011-10-13T10:16:57.0000000+00:00</time></trkpt><trkpt lat="44.496555" lon="34.169666"><ele>-10.4</ele><time>2011-10-13T10:17:02.0000000+00:00</time></trkpt><trkpt lat="44.496513" lon="34.169674"><ele>-10.4</ele><time>2011-10-13T10:17:07.0000000+00:00</time></trkpt><trkpt lat="44.496544" lon="34.16972"><ele>-10.2</ele><time>2011-10-13T10:17:12.0000000+00:00</time></trkpt><trkpt lat="44.496605" lon="34.169762"><ele>-9.7</ele><time>2011-10-13T10:17:17.0000000+00:00</time></trkpt><trkpt lat="44.496639" lon="34.169762"><ele>-9.6</ele><time>2011-10-13T10:17:22.0000000+00:00</time></trkpt><trkpt lat="44.496655" lon="34.169758"><ele>-9.6</ele><time>2011-10-13T10:17:27.0000000+00:00</time></trkpt><trkpt lat="44.496655" lon="34.169758"><ele>-9.6</ele><time>2011-10-13T10:17:32.0000000+00:00</time></trkpt><trkpt lat="44.496655" lon="34.169758"><ele>-9.6</ele><time>2011-10-13T10:17:37.0000000+00:00</time></trkpt><trkpt lat="44.496655" lon="34.169758"><ele>-9.6</ele><time>2011-10-13T10:17:42.0000000+00:00</time></trkpt><trkpt lat="44.496655" lon="34.169758"><ele>-9.7</ele><time>2011-10-13T10:17:47.0000000+00:00</time></trkpt><trkpt lat="44.496655" lon="34.169758"><ele>-9.7</ele><time>2011-10-13T10:17:52.0000000+00:00</time></trkpt><trkpt lat="44.496655" lon="34.169758"><ele>-9.6</ele><time>2011-10-13T10:17:57.0000000+00:00</time></trkpt><trkpt lat="44.496651" lon="34.169758"><ele>-10.0</ele><time>2011-10-13T10:18:02.0000000+00:00</time></trkpt><trkpt lat="44.496647" lon="34.169758"><ele>-11.2</ele><time>2011-10-13T10:18:07.0000000+00:00</time></trkpt><trkpt lat="44.496647" lon="34.169758"><ele>-11.1</ele><time>2011-10-13T10:18:12.0000000+00:00</time></trkpt><trkpt lat="44.496647" lon="34.169762"><ele>-10.7</ele><time>2011-10-13T10:18:17.0000000+00:00</time></trkpt><trkpt lat="44.496647" lon="34.169762"><ele>-10.7</ele><time>2011-10-13T10:18:22.0000000+00:00</time></trkpt><trkpt lat="44.496643" lon="34.169765"><ele>-11.4</ele><time>2011-10-13T10:18:27.0000000+00:00</time></trkpt><trkpt lat="44.496643" lon="34.169769"><ele>-12.2</ele><time>2011-10-13T10:18:32.0000000+00:00</time></trkpt><trkpt lat="44.496647" lon="34.169765"><ele>-11.9</ele><time>2011-10-13T10:18:37.0000000+00:00</time></trkpt><trkpt lat="44.496548" lon="34.169704"><ele>-12.1</ele><time>2011-10-13T10:18:42.0000000+00:00</time></trkpt><trkpt lat="44.49641" lon="34.169582"><ele>-12.3</ele><time>2011-10-13T10:18:47.0000000+00:00</time></trkpt><trkpt lat="44.496262" lon="34.169472"><ele>-13.2</ele><time>2011-10-13T10:18:52.0000000+00:00</time></trkpt><trkpt lat="44.496124" lon="34.169418"><ele>-14.1</ele><time>2011-10-13T10:18:57.0000000+00:00</time></trkpt><trkpt lat="44.496002" lon="34.169395"><ele>-14.4</ele><time>2011-10-13T10:19:02.0000000+00:00</time></trkpt><trkpt lat="44.495907" lon="34.169552"><ele>-14.7</ele><time>2011-10-13T10:19:07.0000000+00:00</time></trkpt><trkpt lat="44.495846" lon="34.169727"><ele>-15.2</ele><time>2011-10-13T10:19:12.0000000+00:00</time></trkpt><trkpt lat="44.495789" lon="34.169868"><ele>-15.5</ele><time>2011-10-13T10:19:17.0000000+00:00</time></trkpt><trkpt lat="44.495777" lon="34.169964"><ele>-16.0</ele><time>2011-10-13T10:19:22.0000000+00:00</time></trkpt><trkpt lat="44.495796" lon="34.17004"><ele>-15.5</ele><time>2011-10-13T10:19:27.0000000+00:00</time></trkpt><trkpt lat="44.495861" lon="34.17009"><ele>-15.1</ele><time>2011-10-13T10:19:32.0000000+00:00</time></trkpt><trkpt lat="44.495876" lon="34.170109"><ele>-15.0</ele><time>2011-10-13T10:19:37.0000000+00:00</time></trkpt><trkpt lat="44.495884" lon="34.170097"><ele>-14.8</ele><time>2011-10-13T10:19:42.0000000+00:00</time></trkpt><trkpt lat="44.495884" lon="34.170105"><ele>-15.0</ele><time>2011-10-13T10:19:47.0000000+00:00</time></trkpt><trkpt lat="44.495876" lon="34.170113"><ele>-14.9</ele><time>2011-10-13T10:19:52.0000000+00:00</time></trkpt><trkpt lat="44.495865" lon="34.17012"><ele>-14.7</ele><time>2011-10-13T10:19:57.0000000+00:00</time></trkpt><trkpt lat="44.49585" lon="34.170132"><ele>-14.5</ele><time>2011-10-13T10:20:02.0000000+00:00</time></trkpt><trkpt lat="44.49585" lon="34.170139"><ele>-14.7</ele><time>2011-10-13T10:20:07.0000000+00:00</time></trkpt><trkpt lat="44.495853" lon="34.170147"><ele>-14.9</ele><time>2011-10-13T10:20:12.0000000+00:00</time></trkpt><trkpt lat="44.495857" lon="34.170162"><ele>-15.1</ele><time>2011-10-13T10:20:17.0000000+00:00</time></trkpt><trkpt lat="44.495831" lon="34.170124"><ele>-15.5</ele><time>2011-10-13T10:20:22.0000000+00:00</time></trkpt><trkpt lat="44.495865" lon="34.170151"><ele>-15.2</ele><time>2011-10-13T10:20:27.0000000+00:00</time></trkpt><trkpt lat="44.495869" lon="34.170158"><ele>-15.3</ele><time>2011-10-13T10:20:32.0000000+00:00</time></trkpt><trkpt lat="44.49588" lon="34.170158"><ele>-15.5</ele><time>2011-10-13T10:20:37.0000000+00:00</time></trkpt><trkpt lat="44.495888" lon="34.170155"><ele>-15.6</ele><time>2011-10-13T10:20:42.0000000+00:00</time></trkpt><trkpt lat="44.495888" lon="34.170155"><ele>-15.6</ele><time>2011-10-13T10:20:47.0000000+00:00</time></trkpt><trkpt lat="44.495888" lon="34.170155"><ele>-15.6</ele><time>2011-10-13T10:20:52.0000000+00:00</time></trkpt><trkpt lat="44.495884" lon="34.170151"><ele>-15.6</ele><time>2011-10-13T10:20:57.0000000+00:00</time></trkpt><trkpt lat="44.49588" lon="34.170151"><ele>-15.6</ele><time>2011-10-13T10:21:02.0000000+00:00</time></trkpt><trkpt lat="44.495895" lon="34.170143"><ele>-15.3</ele><time>2011-10-13T10:21:07.0000000+00:00</time></trkpt><trkpt lat="44.49585" lon="34.17004"><ele>-14.1</ele><time>2011-10-13T10:21:12.0000000+00:00</time></trkpt><trkpt lat="44.495766" lon="34.169964"><ele>-13.3</ele><time>2011-10-13T10:21:17.0000000+00:00</time></trkpt><trkpt lat="44.495735" lon="34.17004"><ele>-13.8</ele><time>2011-10-13T10:21:22.0000000+00:00</time></trkpt><trkpt lat="44.49572" lon="34.169899"><ele>-12.6</ele><time>2011-10-13T10:21:27.0000000+00:00</time></trkpt><trkpt lat="44.495682" lon="34.169846"><ele>-13.3</ele><time>2011-10-13T10:21:32.0000000+00:00</time></trkpt><trkpt lat="44.495678" lon="34.169849"><ele>-14.3</ele><time>2011-10-13T10:21:37.0000000+00:00</time></trkpt><trkpt lat="44.495674" lon="34.169853"><ele>-14.5</ele><time>2011-10-13T10:21:42.0000000+00:00</time></trkpt><trkpt lat="44.495674" lon="34.169857"><ele>-14.5</ele><time>2011-10-13T10:21:47.0000000+00:00</time></trkpt><trkpt lat="44.495674" lon="34.169857"><ele>-14.6</ele><time>2011-10-13T10:21:52.0000000+00:00</time></trkpt><trkpt lat="44.495674" lon="34.169857"><ele>-14.6</ele><time>2011-10-13T10:21:57.0000000+00:00</time></trkpt><trkpt lat="44.495674" lon="34.169861"><ele>-14.6</ele><time>2011-10-13T10:22:02.0000000+00:00</time></trkpt><trkpt lat="44.495674" lon="34.169857"><ele>-14.6</ele><time>2011-10-13T10:22:07.0000000+00:00</time></trkpt><trkpt lat="44.495674" lon="34.169857"><ele>-14.6</ele><time>2011-10-13T10:22:12.0000000+00:00</time></trkpt><trkpt lat="44.495682" lon="34.169861"><ele>-14.6</ele><time>2011-10-13T10:22:17.0000000+00:00</time></trkpt><trkpt lat="44.495697" lon="34.169868"><ele>-14.6</ele><time>2011-10-13T10:22:22.0000000+00:00</time></trkpt><trkpt lat="44.495766" lon="34.16996"><ele>-14.8</ele><time>2011-10-13T10:22:27.0000000+00:00</time></trkpt><trkpt lat="44.495869" lon="34.17009"><ele>-15.2</ele><time>2011-10-13T10:22:32.0000000+00:00</time></trkpt><trkpt lat="44.495907" lon="34.170116"><ele>-14.4</ele><time>2011-10-13T10:22:37.0000000+00:00</time></trkpt><trkpt lat="44.495911" lon="34.170116"><ele>-14.3</ele><time>2011-10-13T10:22:42.0000000+00:00</time></trkpt><trkpt lat="44.495911" lon="34.170109"><ele>-14.4</ele><time>2011-10-13T10:22:47.0000000+00:00</time></trkpt><trkpt lat="44.495911" lon="34.170113"><ele>-14.3</ele><time>2011-10-13T10:22:52.0000000+00:00</time></trkpt><trkpt lat="44.495914" lon="34.170113"><ele>-14.4</ele><time>2011-10-13T10:22:57.0000000+00:00</time></trkpt><trkpt lat="44.495918" lon="34.170116"><ele>-14.3</ele><time>2011-10-13T10:23:02.0000000+00:00</time></trkpt><trkpt lat="44.495911" lon="34.170113"><ele>-14.0</ele><time>2011-10-13T10:23:07.0000000+00:00</time></trkpt><trkpt lat="44.495911" lon="34.170116"><ele>-13.9</ele><time>2011-10-13T10:23:12.0000000+00:00</time></trkpt><trkpt lat="44.495911" lon="34.170116"><ele>-13.8</ele><time>2011-10-13T10:23:17.0000000+00:00</time></trkpt><trkpt lat="44.495911" lon="34.170116"><ele>-13.8</ele><time>2011-10-13T10:23:22.0000000+00:00</time></trkpt><trkpt lat="44.495899" lon="34.170128"><ele>-13.7</ele><time>2011-10-13T10:23:27.0000000+00:00</time></trkpt><trkpt lat="44.495892" lon="34.170139"><ele>-13.9</ele><time>2011-10-13T10:23:32.0000000+00:00</time></trkpt><trkpt lat="44.495888" lon="34.170135"><ele>-14.1</ele><time>2011-10-13T10:23:37.0000000+00:00</time></trkpt><trkpt lat="44.495888" lon="34.170135"><ele>-14.1</ele><time>2011-10-13T10:23:42.0000000+00:00</time></trkpt><trkpt lat="44.495888" lon="34.170135"><ele>-14.1</ele><time>2011-10-13T10:23:47.0000000+00:00</time></trkpt><trkpt lat="44.495892" lon="34.170135"><ele>-14.1</ele><time>2011-10-13T10:23:52.0000000+00:00</time></trkpt><trkpt lat="44.495892" lon="34.170135"><ele>-14.0</ele><time>2011-10-13T10:23:57.0000000+00:00</time></trkpt><trkpt lat="44.495892" lon="34.170135"><ele>-14.0</ele><time>2011-10-13T10:24:02.0000000+00:00</time></trkpt><trkpt lat="44.495892" lon="34.170135"><ele>-14.0</ele><time>2011-10-13T10:24:07.0000000+00:00</time></trkpt><trkpt lat="44.495892" lon="34.170135"><ele>-14.0</ele><time>2011-10-13T10:24:12.0000000+00:00</time></trkpt><trkpt lat="44.495892" lon="34.170135"><ele>-14.0</ele><time>2011-10-13T10:24:17.0000000+00:00</time></trkpt><trkpt lat="44.495892" lon="34.170135"><ele>-14.0</ele><time>2011-10-13T10:24:22.0000000+00:00</time></trkpt><trkpt lat="44.495892" lon="34.170135"><ele>-14.0</ele><time>2011-10-13T10:24:27.0000000+00:00</time></trkpt><trkpt lat="44.495892" lon="34.170135"><ele>-14.0</ele><time>2011-10-13T10:24:32.0000000+00:00</time></trkpt><trkpt lat="44.495892" lon="34.170135"><ele>-14.0</ele><time>2011-10-13T10:24:37.0000000+00:00</time></trkpt><trkpt lat="44.495892" lon="34.170135"><ele>-14.0</ele><time>2011-10-13T10:24:42.0000000+00:00</time></trkpt><trkpt lat="44.495892" lon="34.170135"><ele>-14.0</ele><time>2011-10-13T10:24:47.0000000+00:00</time></trkpt><trkpt lat="44.495888" lon="34.170135"><ele>-14.0</ele><time>2011-10-13T10:24:52.0000000+00:00</time></trkpt><trkpt lat="44.495892" lon="34.170135"><ele>-14.0</ele><time>2011-10-13T10:24:57.0000000+00:00</time></trkpt><trkpt lat="44.495892" lon="34.170135"><ele>-14.0</ele><time>2011-10-13T10:25:02.0000000+00:00</time></trkpt><trkpt lat="44.495892" lon="34.170135"><ele>-14.0</ele><time>2011-10-13T10:25:07.0000000+00:00</time></trkpt><trkpt lat="44.495892" lon="34.170135"><ele>-14.0</ele><time>2011-10-13T10:25:12.0000000+00:00</time></trkpt><trkpt lat="44.495892" lon="34.170135"><ele>-14.0</ele><time>2011-10-13T10:25:17.0000000+00:00</time></trkpt><trkpt lat="44.495892" lon="34.170135"><ele>-14.0</ele><time>2011-10-13T10:25:22.0000000+00:00</time></trkpt><trkpt lat="44.495892" lon="34.170135"><ele>-14.0</ele><time>2011-10-13T10:25:27.0000000+00:00</time></trkpt><trkpt lat="44.495892" lon="34.170135"><ele>-14.0</ele><time>2011-10-13T10:25:32.0000000+00:00</time></trkpt><trkpt lat="44.495914" lon="34.170132"><ele>-14.0</ele><time>2011-10-13T10:25:37.0000000+00:00</time></trkpt><trkpt lat="44.495918" lon="34.170132"><ele>-13.6</ele><time>2011-10-13T10:25:42.0000000+00:00</time></trkpt><trkpt lat="44.495918" lon="34.170135"><ele>-13.3</ele><time>2011-10-13T10:25:47.0000000+00:00</time></trkpt><trkpt lat="44.495918" lon="34.170135"><ele>-13.3</ele><time>2011-10-13T10:25:52.0000000+00:00</time></trkpt><trkpt lat="44.495918" lon="34.170135"><ele>-13.3</ele><time>2011-10-13T10:25:57.0000000+00:00</time></trkpt><trkpt lat="44.495918" lon="34.170135"><ele>-13.3</ele><time>2011-10-13T10:26:02.0000000+00:00</time></trkpt><trkpt lat="44.495918" lon="34.170135"><ele>-13.3</ele><time>2011-10-13T10:26:07.0000000+00:00</time></trkpt><trkpt lat="44.495918" lon="34.170135"><ele>-13.3</ele><time>2011-10-13T10:26:12.0000000+00:00</time></trkpt><trkpt lat="44.495918" lon="34.170135"><ele>-13.3</ele><time>2011-10-13T10:26:17.0000000+00:00</time></trkpt><trkpt lat="44.495918" lon="34.170135"><ele>-13.4</ele><time>2011-10-13T10:26:22.0000000+00:00</time></trkpt><trkpt lat="44.495918" lon="34.170135"><ele>-13.4</ele><time>2011-10-13T10:26:27.0000000+00:00</time></trkpt><trkpt lat="44.495918" lon="34.170135"><ele>-13.4</ele><time>2011-10-13T10:26:32.0000000+00:00</time></trkpt><trkpt lat="44.495914" lon="34.170139"><ele>-13.4</ele><time>2011-10-13T10:26:37.0000000+00:00</time></trkpt><trkpt lat="44.495914" lon="34.170139"><ele>-13.4</ele><time>2011-10-13T10:26:42.0000000+00:00</time></trkpt><trkpt lat="44.495914" lon="34.170143"><ele>-13.4</ele><time>2011-10-13T10:26:47.0000000+00:00</time></trkpt><trkpt lat="44.495918" lon="34.170155"><ele>-13.4</ele><time>2011-10-13T10:26:52.0000000+00:00</time></trkpt><trkpt lat="44.495922" lon="34.170162"><ele>-13.4</ele><time>2011-10-13T10:26:57.0000000+00:00</time></trkpt><trkpt lat="44.495926" lon="34.17017"><ele>-13.4</ele><time>2011-10-13T10:27:02.0000000+00:00</time></trkpt><trkpt lat="44.49593" lon="34.170177"><ele>-13.4</ele><time>2011-10-13T10:27:07.0000000+00:00</time></trkpt><trkpt lat="44.495934" lon="34.170181"><ele>-13.4</ele><time>2011-10-13T10:27:12.0000000+00:00</time></trkpt><trkpt lat="44.495937" lon="34.170181"><ele>-13.4</ele><time>2011-10-13T10:27:17.0000000+00:00</time></trkpt><trkpt lat="44.495941" lon="34.170181"><ele>-13.4</ele><time>2011-10-13T10:27:22.0000000+00:00</time></trkpt><trkpt lat="44.495934" lon="34.170174"><ele>-13.4</ele><time>2011-10-13T10:27:27.0000000+00:00</time></trkpt><trkpt lat="44.495922" lon="34.170166"><ele>-13.6</ele><time>2011-10-13T10:27:32.0000000+00:00</time></trkpt><trkpt lat="44.495914" lon="34.170158"><ele>-13.6</ele><time>2011-10-13T10:27:37.0000000+00:00</time></trkpt><trkpt lat="44.495914" lon="34.170158"><ele>-13.8</ele><time>2011-10-13T10:27:42.0000000+00:00</time></trkpt><trkpt lat="44.495911" lon="34.170162"><ele>-13.7</ele><time>2011-10-13T10:27:47.0000000+00:00</time></trkpt><trkpt lat="44.495911" lon="34.170158"><ele>-13.8</ele><time>2011-10-13T10:27:52.0000000+00:00</time></trkpt><trkpt lat="44.495911" lon="34.170151"><ele>-13.7</ele><time>2011-10-13T10:27:57.0000000+00:00</time></trkpt><trkpt lat="44.495914" lon="34.170143"><ele>-14.4</ele><time>2011-10-13T10:28:02.0000000+00:00</time></trkpt><trkpt lat="44.495922" lon="34.170143"><ele>-14.6</ele><time>2011-10-13T10:28:07.0000000+00:00</time></trkpt><trkpt lat="44.495922" lon="34.170143"><ele>-14.8</ele><time>2011-10-13T10:28:12.0000000+00:00</time></trkpt><trkpt lat="44.495922" lon="34.170143"><ele>-14.8</ele><time>2011-10-13T10:28:17.0000000+00:00</time></trkpt><trkpt lat="44.495922" lon="34.170147"><ele>-14.8</ele><time>2011-10-13T10:28:22.0000000+00:00</time></trkpt><trkpt lat="44.495922" lon="34.170151"><ele>-14.8</ele><time>2011-10-13T10:28:27.0000000+00:00</time></trkpt><trkpt lat="44.495922" lon="34.170155"><ele>-14.8</ele><time>2011-10-13T10:28:32.0000000+00:00</time></trkpt><trkpt lat="44.495926" lon="34.170155"><ele>-14.7</ele><time>2011-10-13T10:28:37.0000000+00:00</time></trkpt><trkpt lat="44.495926" lon="34.170155"><ele>-14.8</ele><time>2011-10-13T10:28:42.0000000+00:00</time></trkpt><trkpt lat="44.495922" lon="34.170155"><ele>-14.8</ele><time>2011-10-13T10:28:47.0000000+00:00</time></trkpt><trkpt lat="44.495922" lon="34.170158"><ele>-14.9</ele><time>2011-10-13T10:28:52.0000000+00:00</time></trkpt><trkpt lat="44.495926" lon="34.170181"><ele>-14.7</ele><time>2011-10-13T10:28:57.0000000+00:00</time></trkpt><trkpt lat="44.495922" lon="34.170185"><ele>-14.6</ele><time>2011-10-13T10:29:02.0000000+00:00</time></trkpt><trkpt lat="44.49593" lon="34.170185"><ele>-14.5</ele><time>2011-10-13T10:29:07.0000000+00:00</time></trkpt><trkpt lat="44.495941" lon="34.17017"><ele>-15.3</ele><time>2011-10-13T10:29:12.0000000+00:00</time></trkpt><trkpt lat="44.495949" lon="34.170166"><ele>-15.9</ele><time>2011-10-13T10:29:17.0000000+00:00</time></trkpt><trkpt lat="44.495926" lon="34.170158"><ele>-16.5</ele><time>2011-10-13T10:29:22.0000000+00:00</time></trkpt><trkpt lat="44.495926" lon="34.170158"><ele>-16.7</ele><time>2011-10-13T10:29:27.0000000+00:00</time></trkpt><trkpt lat="44.49593" lon="34.170158"><ele>-16.9</ele><time>2011-10-13T10:29:32.0000000+00:00</time></trkpt><trkpt lat="44.495914" lon="34.170162"><ele>-17.7</ele><time>2011-10-13T10:29:37.0000000+00:00</time></trkpt><trkpt lat="44.495911" lon="34.170166"><ele>-18.3</ele><time>2011-10-13T10:29:42.0000000+00:00</time></trkpt><trkpt lat="44.495903" lon="34.170151"><ele>-17.7</ele><time>2011-10-13T10:29:47.0000000+00:00</time></trkpt><trkpt lat="44.495903" lon="34.170151"><ele>-17.7</ele><time>2011-10-13T10:29:52.0000000+00:00</time></trkpt><trkpt lat="44.495907" lon="34.170158"><ele>-17.8</ele><time>2011-10-13T10:29:57.0000000+00:00</time></trkpt><trkpt lat="44.495914" lon="34.170166"><ele>-17.8</ele><time>2011-10-13T10:30:02.0000000+00:00</time></trkpt><trkpt lat="44.495922" lon="34.170185"><ele>-17.9</ele><time>2011-10-13T10:30:07.0000000+00:00</time></trkpt><trkpt lat="44.495911" lon="34.170162"><ele>-17.9</ele><time>2011-10-13T10:30:12.0000000+00:00</time></trkpt><trkpt lat="44.495911" lon="34.170158"><ele>-17.9</ele><time>2011-10-13T10:30:17.0000000+00:00</time></trkpt><trkpt lat="44.495926" lon="34.170155"><ele>-17.8</ele><time>2011-10-13T10:30:22.0000000+00:00</time></trkpt><trkpt lat="44.495937" lon="34.170151"><ele>-17.6</ele><time>2011-10-13T10:30:27.0000000+00:00</time></trkpt><trkpt lat="44.495926" lon="34.17017"><ele>-18.3</ele><time>2011-10-13T10:30:32.0000000+00:00</time></trkpt><trkpt lat="44.495922" lon="34.170189"><ele>-18.0</ele><time>2011-10-13T10:30:37.0000000+00:00</time></trkpt><trkpt lat="44.495918" lon="34.170181"><ele>-17.2</ele><time>2011-10-13T10:30:42.0000000+00:00</time></trkpt><trkpt lat="44.495911" lon="34.1702"><ele>-17.5</ele><time>2011-10-13T10:30:47.0000000+00:00</time></trkpt><trkpt lat="44.495895" lon="34.170212"><ele>-16.6</ele><time>2011-10-13T10:30:52.0000000+00:00</time></trkpt><trkpt lat="44.495899" lon="34.170212"><ele>-15.9</ele><time>2011-10-13T10:30:57.0000000+00:00</time></trkpt><trkpt lat="44.495907" lon="34.170197"><ele>-16.1</ele><time>2011-10-13T10:31:02.0000000+00:00</time></trkpt><trkpt lat="44.495907" lon="34.170197"><ele>-16.2</ele><time>2011-10-13T10:31:07.0000000+00:00</time></trkpt><trkpt lat="44.495899" lon="34.170185"><ele>-15.7</ele><time>2011-10-13T10:31:12.0000000+00:00</time></trkpt><trkpt lat="44.495907" lon="34.170181"><ele>-15.2</ele><time>2011-10-13T10:31:17.0000000+00:00</time></trkpt><trkpt lat="44.495911" lon="34.170181"><ele>-15.2</ele><time>2011-10-13T10:31:22.0000000+00:00</time></trkpt><trkpt lat="44.495918" lon="34.170185"><ele>-15.0</ele><time>2011-10-13T10:31:27.0000000+00:00</time></trkpt><trkpt lat="44.495922" lon="34.170189"><ele>-14.8</ele><time>2011-10-13T10:31:32.0000000+00:00</time></trkpt><trkpt lat="44.495922" lon="34.170193"><ele>-14.8</ele><time>2011-10-13T10:31:37.0000000+00:00</time></trkpt><trkpt lat="44.495926" lon="34.170193"><ele>-14.9</ele><time>2011-10-13T10:31:42.0000000+00:00</time></trkpt><trkpt lat="44.495934" lon="34.170193"><ele>-14.7</ele><time>2011-10-13T10:31:47.0000000+00:00</time></trkpt><trkpt lat="44.495945" lon="34.170189"><ele>-14.4</ele><time>2011-10-13T10:31:52.0000000+00:00</time></trkpt><trkpt lat="44.495949" lon="34.170158"><ele>-13.9</ele><time>2011-10-13T10:31:57.0000000+00:00</time></trkpt><trkpt lat="44.495956" lon="34.170124"><ele>-14.4</ele><time>2011-10-13T10:32:02.0000000+00:00</time></trkpt><trkpt lat="44.495953" lon="34.170116"><ele>-14.2</ele><time>2011-10-13T10:32:07.0000000+00:00</time></trkpt><trkpt lat="44.495945" lon="34.170116"><ele>-14.0</ele><time>2011-10-13T10:32:12.0000000+00:00</time></trkpt><trkpt lat="44.495941" lon="34.170113"><ele>-13.9</ele><time>2011-10-13T10:32:17.0000000+00:00</time></trkpt><trkpt lat="44.495934" lon="34.170116"><ele>-14.0</ele><time>2011-10-13T10:32:22.0000000+00:00</time></trkpt><trkpt lat="44.495937" lon="34.170113"><ele>-14.2</ele><time>2011-10-13T10:32:27.0000000+00:00</time></trkpt><trkpt lat="44.495941" lon="34.170113"><ele>-14.4</ele><time>2011-10-13T10:32:32.0000000+00:00</time></trkpt><trkpt lat="44.49593" lon="34.170124"><ele>-14.5</ele><time>2011-10-13T10:32:37.0000000+00:00</time></trkpt><trkpt lat="44.495922" lon="34.170128"><ele>-14.5</ele><time>2011-10-13T10:32:42.0000000+00:00</time></trkpt><trkpt lat="44.495941" lon="34.170132"><ele>-14.0</ele><time>2011-10-13T10:32:47.0000000+00:00</time></trkpt><trkpt lat="44.495941" lon="34.170128"><ele>-13.8</ele><time>2011-10-13T10:32:52.0000000+00:00</time></trkpt><trkpt lat="44.495941" lon="34.170124"><ele>-13.9</ele><time>2011-10-13T10:32:57.0000000+00:00</time></trkpt><trkpt lat="44.495941" lon="34.170124"><ele>-13.9</ele><time>2011-10-13T10:33:02.0000000+00:00</time></trkpt><trkpt lat="44.495941" lon="34.170132"><ele>-14.0</ele><time>2011-10-13T10:33:07.0000000+00:00</time></trkpt><trkpt lat="44.495918" lon="34.170124"><ele>-15.8</ele><time>2011-10-13T10:33:12.0000000+00:00</time></trkpt><trkpt lat="44.495914" lon="34.17012"><ele>-15.9</ele><time>2011-10-13T10:33:17.0000000+00:00</time></trkpt><trkpt lat="44.495918" lon="34.17012"><ele>-16.5</ele><time>2011-10-13T10:33:22.0000000+00:00</time></trkpt><trkpt lat="44.495922" lon="34.170124"><ele>-16.1</ele><time>2011-10-13T10:33:27.0000000+00:00</time></trkpt><trkpt lat="44.495926" lon="34.170124"><ele>-15.5</ele><time>2011-10-13T10:33:32.0000000+00:00</time></trkpt><trkpt lat="44.495922" lon="34.17012"><ele>-15.5</ele><time>2011-10-13T10:33:37.0000000+00:00</time></trkpt><trkpt lat="44.495926" lon="34.170124"><ele>-15.8</ele><time>2011-10-13T10:33:42.0000000+00:00</time></trkpt><trkpt lat="44.495926" lon="34.170124"><ele>-15.9</ele><time>2011-10-13T10:33:47.0000000+00:00</time></trkpt><trkpt lat="44.495926" lon="34.170124"><ele>-15.8</ele><time>2011-10-13T10:33:52.0000000+00:00</time></trkpt><trkpt lat="44.49593" lon="34.170132"><ele>-15.4</ele><time>2011-10-13T10:33:57.0000000+00:00</time></trkpt><trkpt lat="44.49593" lon="34.170128"><ele>-15.3</ele><time>2011-10-13T10:34:02.0000000+00:00</time></trkpt><trkpt lat="44.495934" lon="34.170135"><ele>-15.1</ele><time>2011-10-13T10:34:07.0000000+00:00</time></trkpt><trkpt lat="44.495945" lon="34.170139"><ele>-14.8</ele><time>2011-10-13T10:34:12.0000000+00:00</time></trkpt><trkpt lat="44.495956" lon="34.170147"><ele>-13.9</ele><time>2011-10-13T10:34:17.0000000+00:00</time></trkpt><trkpt lat="44.495964" lon="34.170155"><ele>-13.6</ele><time>2011-10-13T10:34:22.0000000+00:00</time></trkpt><trkpt lat="44.495953" lon="34.170158"><ele>-14.0</ele><time>2011-10-13T10:34:27.0000000+00:00</time></trkpt><trkpt lat="44.495937" lon="34.170151"><ele>-12.3</ele><time>2011-10-13T10:34:32.0000000+00:00</time></trkpt><trkpt lat="44.495918" lon="34.170132"><ele>-12.7</ele><time>2011-10-13T10:34:37.0000000+00:00</time></trkpt><trkpt lat="44.495899" lon="34.17012"><ele>-12.7</ele><time>2011-10-13T10:34:42.0000000+00:00</time></trkpt><trkpt lat="44.495899" lon="34.170097"><ele>-12.5</ele><time>2011-10-13T10:34:47.0000000+00:00</time></trkpt><trkpt lat="44.495895" lon="34.170094"><ele>-12.7</ele><time>2011-10-13T10:34:52.0000000+00:00</time></trkpt><trkpt lat="44.495903" lon="34.170067"><ele>-13.0</ele><time>2011-10-13T10:34:57.0000000+00:00</time></trkpt><trkpt lat="44.49588" lon="34.170052"><ele>-14.6</ele><time>2011-10-13T10:35:02.0000000+00:00</time></trkpt><trkpt lat="44.495834" lon="34.170025"><ele>-16.0</ele><time>2011-10-13T10:35:07.0000000+00:00</time></trkpt><trkpt lat="44.495796" lon="34.169975"><ele>-16.9</ele><time>2011-10-13T10:35:12.0000000+00:00</time></trkpt><trkpt lat="44.49577" lon="34.169899"><ele>-17.7</ele><time>2011-10-13T10:35:17.0000000+00:00</time></trkpt><trkpt lat="44.495728" lon="34.169781"><ele>-18.7</ele><time>2011-10-13T10:35:22.0000000+00:00</time></trkpt><trkpt lat="44.495701" lon="34.169628"><ele>-18.9</ele><time>2011-10-13T10:35:27.0000000+00:00</time></trkpt><trkpt lat="44.495663" lon="34.16946"><ele>-18.5</ele><time>2011-10-13T10:35:32.0000000+00:00</time></trkpt><trkpt lat="44.495636" lon="34.169254"><ele>-18.8</ele><time>2011-10-13T10:35:37.0000000+00:00</time></trkpt><trkpt lat="44.495613" lon="34.16906"><ele>-18.3</ele><time>2011-10-13T10:35:42.0000000+00:00</time></trkpt><trkpt lat="44.495602" lon="34.1689"><ele>-17.8</ele><time>2011-10-13T10:35:47.0000000+00:00</time></trkpt><trkpt lat="44.495586" lon="34.168739"><ele>-17.4</ele><time>2011-10-13T10:35:52.0000000+00:00</time></trkpt><trkpt lat="44.495548" lon="34.168552"><ele>-17.3</ele><time>2011-10-13T10:35:57.0000000+00:00</time></trkpt><trkpt lat="44.49548" lon="34.168419"><ele>-17.7</ele><time>2011-10-13T10:36:02.0000000+00:00</time></trkpt><trkpt lat="44.495403" lon="34.168301"><ele>-18.5</ele><time>2011-10-13T10:36:07.0000000+00:00</time></trkpt><trkpt lat="44.495338" lon="34.168201"><ele>-19.4</ele><time>2011-10-13T10:36:12.0000000+00:00</time></trkpt><trkpt lat="44.495281" lon="34.168102"><ele>-18.5</ele><time>2011-10-13T10:36:17.0000000+00:00</time></trkpt><trkpt lat="44.495197" lon="34.167976"><ele>-18.0</ele><time>2011-10-13T10:36:22.0000000+00:00</time></trkpt><trkpt lat="44.495121" lon="34.167858"><ele>-17.3</ele><time>2011-10-13T10:36:27.0000000+00:00</time></trkpt><trkpt lat="44.49506" lon="34.167744"><ele>-17.4</ele><time>2011-10-13T10:36:32.0000000+00:00</time></trkpt><trkpt lat="44.494991" lon="34.167603"><ele>-17.3</ele><time>2011-10-13T10:36:37.0000000+00:00</time></trkpt><trkpt lat="44.494938" lon="34.167496"><ele>-18.3</ele><time>2011-10-13T10:36:42.0000000+00:00</time></trkpt><trkpt lat="44.494919" lon="34.167416"><ele>-18.3</ele><time>2011-10-13T10:36:47.0000000+00:00</time></trkpt><trkpt lat="44.494919" lon="34.167366"><ele>-18.9</ele><time>2011-10-13T10:36:52.0000000+00:00</time></trkpt><trkpt lat="44.494934" lon="34.167351"><ele>-20.7</ele><time>2011-10-13T10:36:57.0000000+00:00</time></trkpt><trkpt lat="44.494957" lon="34.167343"><ele>-22.5</ele><time>2011-10-13T10:37:02.0000000+00:00</time></trkpt><trkpt lat="44.494957" lon="34.167343"><ele>-23.6</ele><time>2011-10-13T10:37:07.0000000+00:00</time></trkpt><trkpt lat="44.494961" lon="34.167336"><ele>-23.6</ele><time>2011-10-13T10:37:12.0000000+00:00</time></trkpt><trkpt lat="44.494972" lon="34.167324"><ele>-22.9</ele><time>2011-10-13T10:37:17.0000000+00:00</time></trkpt><trkpt lat="44.494923" lon="34.167263"><ele>-20.3</ele><time>2011-10-13T10:37:22.0000000+00:00</time></trkpt><trkpt lat="44.494827" lon="34.16716"><ele>-18.8</ele><time>2011-10-13T10:37:27.0000000+00:00</time></trkpt><trkpt lat="44.494812" lon="34.167118"><ele>-18.8</ele><time>2011-10-13T10:37:32.0000000+00:00</time></trkpt><trkpt lat="44.494808" lon="34.167118"><ele>-19.2</ele><time>2011-10-13T10:37:37.0000000+00:00</time></trkpt><trkpt lat="44.494808" lon="34.167114"><ele>-19.3</ele><time>2011-10-13T10:37:42.0000000+00:00</time></trkpt><trkpt lat="44.494808" lon="34.167114"><ele>-19.4</ele><time>2011-10-13T10:37:47.0000000+00:00</time></trkpt><trkpt lat="44.494804" lon="34.167088"><ele>-19.2</ele><time>2011-10-13T10:37:52.0000000+00:00</time></trkpt><trkpt lat="44.494755" lon="34.167019"><ele>-18.5</ele><time>2011-10-13T10:37:57.0000000+00:00</time></trkpt><trkpt lat="44.494717" lon="34.166935"><ele>-17.7</ele><time>2011-10-13T10:38:02.0000000+00:00</time></trkpt><trkpt lat="44.494682" lon="34.166859"><ele>-17.1</ele><time>2011-10-13T10:38:07.0000000+00:00</time></trkpt><trkpt lat="44.494701" lon="34.166824"><ele>-17.5</ele><time>2011-10-13T10:38:12.0000000+00:00</time></trkpt><trkpt lat="44.494682" lon="34.166794"><ele>-17.4</ele><time>2011-10-13T10:38:17.0000000+00:00</time></trkpt><trkpt lat="44.494652" lon="34.166782"><ele>-16.9</ele><time>2011-10-13T10:38:22.0000000+00:00</time></trkpt><trkpt lat="44.494606" lon="34.166767"><ele>-16.5</ele><time>2011-10-13T10:38:27.0000000+00:00</time></trkpt><trkpt lat="44.494644" lon="34.166744"><ele>-16.9</ele><time>2011-10-13T10:38:32.0000000+00:00</time></trkpt><trkpt lat="44.494652" lon="34.166767"><ele>-17.1</ele><time>2011-10-13T10:38:37.0000000+00:00</time></trkpt><trkpt lat="44.49461" lon="34.166729"><ele>-17.3</ele><time>2011-10-13T10:38:42.0000000+00:00</time></trkpt><trkpt lat="44.494564" lon="34.166679"><ele>-16.8</ele><time>2011-10-13T10:38:47.0000000+00:00</time></trkpt><trkpt lat="44.494514" lon="34.166618"><ele>-16.0</ele><time>2011-10-13T10:38:52.0000000+00:00</time></trkpt><trkpt lat="44.494457" lon="34.166573"><ele>-15.5</ele><time>2011-10-13T10:38:57.0000000+00:00</time></trkpt><trkpt lat="44.494404" lon="34.1665"><ele>-15.4</ele><time>2011-10-13T10:39:02.0000000+00:00</time></trkpt><trkpt lat="44.494335" lon="34.166466"><ele>-14.9</ele><time>2011-10-13T10:39:07.0000000+00:00</time></trkpt><trkpt lat="44.494255" lon="34.166367"><ele>-14.6</ele><time>2011-10-13T10:39:12.0000000+00:00</time></trkpt><trkpt lat="44.494171" lon="34.166283"><ele>-12.9</ele><time>2011-10-13T10:39:17.0000000+00:00</time></trkpt><trkpt lat="44.494091" lon="34.166199"><ele>-11.9</ele><time>2011-10-13T10:39:22.0000000+00:00</time></trkpt><trkpt lat="44.493999" lon="34.166111"><ele>-10.7</ele><time>2011-10-13T10:39:27.0000000+00:00</time></trkpt><trkpt lat="44.4939" lon="34.166016"><ele>-10.2</ele><time>2011-10-13T10:39:32.0000000+00:00</time></trkpt><trkpt lat="44.493805" lon="34.16592"><ele>-9.8</ele><time>2011-10-13T10:39:37.0000000+00:00</time></trkpt><trkpt lat="44.493721" lon="34.165821"><ele>-9.7</ele><time>2011-10-13T10:39:42.0000000+00:00</time></trkpt><trkpt lat="44.493633" lon="34.16573"><ele>-9.8</ele><time>2011-10-13T10:39:47.0000000+00:00</time></trkpt><trkpt lat="44.493542" lon="34.165646"><ele>-10.6</ele><time>2011-10-13T10:39:52.0000000+00:00</time></trkpt><trkpt lat="44.493534" lon="34.165596"><ele>-13.1</ele><time>2011-10-13T10:39:57.0000000+00:00</time></trkpt><trkpt lat="44.493534" lon="34.165565"><ele>-13.4</ele><time>2011-10-13T10:40:02.0000000+00:00</time></trkpt><trkpt lat="44.49353" lon="34.165558"><ele>-13.9</ele><time>2011-10-13T10:40:07.0000000+00:00</time></trkpt><trkpt lat="44.493572" lon="34.1656"><ele>-13.5</ele><time>2011-10-13T10:40:12.0000000+00:00</time></trkpt><trkpt lat="44.493652" lon="34.165657"><ele>-13.3</ele><time>2011-10-13T10:40:17.0000000+00:00</time></trkpt><trkpt lat="44.493683" lon="34.165653"><ele>-13.3</ele><time>2011-10-13T10:40:22.0000000+00:00</time></trkpt><trkpt lat="44.493683" lon="34.165653"><ele>-13.3</ele><time>2011-10-13T10:40:27.0000000+00:00</time></trkpt><trkpt lat="44.49369" lon="34.165649"><ele>-13.3</ele><time>2011-10-13T10:40:32.0000000+00:00</time></trkpt><trkpt lat="44.493698" lon="34.165657"><ele>-14.6</ele><time>2011-10-13T10:40:37.0000000+00:00</time></trkpt><trkpt lat="44.493702" lon="34.165661"><ele>-15.7</ele><time>2011-10-13T10:40:42.0000000+00:00</time></trkpt><trkpt lat="44.493702" lon="34.165661"><ele>-16.0</ele><time>2011-10-13T10:40:47.0000000+00:00</time></trkpt><trkpt lat="44.493702" lon="34.165668"><ele>-16.3</ele><time>2011-10-13T10:40:52.0000000+00:00</time></trkpt><trkpt lat="44.493694" lon="34.165665"><ele>-16.7</ele><time>2011-10-13T10:40:57.0000000+00:00</time></trkpt><trkpt lat="44.49369" lon="34.165661"><ele>-16.6</ele><time>2011-10-13T10:41:02.0000000+00:00</time></trkpt><trkpt lat="44.493683" lon="34.165661"><ele>-16.4</ele><time>2011-10-13T10:41:07.0000000+00:00</time></trkpt><trkpt lat="44.493675" lon="34.165661"><ele>-16.3</ele><time>2011-10-13T10:41:12.0000000+00:00</time></trkpt><trkpt lat="44.493683" lon="34.165661"><ele>-16.4</ele><time>2011-10-13T10:41:17.0000000+00:00</time></trkpt><trkpt lat="44.493687" lon="34.165665"><ele>-16.4</ele><time>2011-10-13T10:41:22.0000000+00:00</time></trkpt><trkpt lat="44.49369" lon="34.165665"><ele>-16.4</ele><time>2011-10-13T10:41:27.0000000+00:00</time></trkpt><trkpt lat="44.49369" lon="34.165665"><ele>-16.4</ele><time>2011-10-13T10:41:32.0000000+00:00</time></trkpt><trkpt lat="44.493694" lon="34.165668"><ele>-16.4</ele><time>2011-10-13T10:41:37.0000000+00:00</time></trkpt><trkpt lat="44.493694" lon="34.165672"><ele>-16.3</ele><time>2011-10-13T10:41:42.0000000+00:00</time></trkpt><trkpt lat="44.493706" lon="34.165672"><ele>-16.1</ele><time>2011-10-13T10:41:47.0000000+00:00</time></trkpt><trkpt lat="44.493717" lon="34.165676"><ele>-16.2</ele><time>2011-10-13T10:41:52.0000000+00:00</time></trkpt><trkpt lat="44.49371" lon="34.165665"><ele>-16.4</ele><time>2011-10-13T10:41:57.0000000+00:00</time></trkpt><trkpt lat="44.493706" lon="34.165668"><ele>-16.3</ele><time>2011-10-13T10:42:02.0000000+00:00</time></trkpt><trkpt lat="44.493706" lon="34.165672"><ele>-16.1</ele><time>2011-10-13T10:42:07.0000000+00:00</time></trkpt><trkpt lat="44.493706" lon="34.165672"><ele>-16.5</ele><time>2011-10-13T10:42:12.0000000+00:00</time></trkpt><trkpt lat="44.493706" lon="34.165672"><ele>-17.0</ele><time>2011-10-13T10:42:17.0000000+00:00</time></trkpt><trkpt lat="44.493706" lon="34.165676"><ele>-17.0</ele><time>2011-10-13T10:42:22.0000000+00:00</time></trkpt><trkpt lat="44.493706" lon="34.165676"><ele>-16.9</ele><time>2011-10-13T10:42:27.0000000+00:00</time></trkpt><trkpt lat="44.493706" lon="34.16568"><ele>-16.9</ele><time>2011-10-13T10:42:32.0000000+00:00</time></trkpt><trkpt lat="44.493702" lon="34.16568"><ele>-16.7</ele><time>2011-10-13T10:42:37.0000000+00:00</time></trkpt><trkpt lat="44.493702" lon="34.165684"><ele>-16.4</ele><time>2011-10-13T10:42:42.0000000+00:00</time></trkpt><trkpt lat="44.493698" lon="34.165684"><ele>-16.3</ele><time>2011-10-13T10:42:47.0000000+00:00</time></trkpt><trkpt lat="44.493694" lon="34.165688"><ele>-16.4</ele><time>2011-10-13T10:42:52.0000000+00:00</time></trkpt><trkpt lat="44.49369" lon="34.165695"><ele>-16.6</ele><time>2011-10-13T10:42:57.0000000+00:00</time></trkpt><trkpt lat="44.49369" lon="34.165699"><ele>-16.7</ele><time>2011-10-13T10:43:02.0000000+00:00</time></trkpt><trkpt lat="44.49369" lon="34.165703"><ele>-17.2</ele><time>2011-10-13T10:43:07.0000000+00:00</time></trkpt><trkpt lat="44.493683" lon="34.165707"><ele>-16.6</ele><time>2011-10-13T10:43:12.0000000+00:00</time></trkpt><trkpt lat="44.493687" lon="34.165699"><ele>-16.5</ele><time>2011-10-13T10:43:17.0000000+00:00</time></trkpt><trkpt lat="44.49369" lon="34.165691"><ele>-16.4</ele><time>2011-10-13T10:43:22.0000000+00:00</time></trkpt><trkpt lat="44.493694" lon="34.165684"><ele>-16.4</ele><time>2011-10-13T10:43:27.0000000+00:00</time></trkpt><trkpt lat="44.493694" lon="34.165676"><ele>-16.3</ele><time>2011-10-13T10:43:32.0000000+00:00</time></trkpt><trkpt lat="44.493698" lon="34.165676"><ele>-16.3</ele><time>2011-10-13T10:43:37.0000000+00:00</time></trkpt><trkpt lat="44.493698" lon="34.165672"><ele>-16.3</ele><time>2011-10-13T10:43:42.0000000+00:00</time></trkpt><trkpt lat="44.493694" lon="34.165653"><ele>-15.8</ele><time>2011-10-13T10:43:47.0000000+00:00</time></trkpt><trkpt lat="44.493687" lon="34.165634"><ele>-15.0</ele><time>2011-10-13T10:43:52.0000000+00:00</time></trkpt><trkpt lat="44.493679" lon="34.165627"><ele>-14.5</ele><time>2011-10-13T10:43:57.0000000+00:00</time></trkpt><trkpt lat="44.493679" lon="34.165627"><ele>-14.5</ele><time>2011-10-13T10:44:02.0000000+00:00</time></trkpt><trkpt lat="44.493679" lon="34.165627"><ele>-14.5</ele><time>2011-10-13T10:44:07.0000000+00:00</time></trkpt><trkpt lat="44.493679" lon="34.165623"><ele>-14.5</ele><time>2011-10-13T10:44:12.0000000+00:00</time></trkpt><trkpt lat="44.493679" lon="34.165627"><ele>-14.5</ele><time>2011-10-13T10:44:17.0000000+00:00</time></trkpt><trkpt lat="44.493671" lon="34.165661"><ele>-15.0</ele><time>2011-10-13T10:44:22.0000000+00:00</time></trkpt><trkpt lat="44.493629" lon="34.165668"><ele>-15.2</ele><time>2011-10-13T10:44:27.0000000+00:00</time></trkpt><trkpt lat="44.493557" lon="34.165627"><ele>-14.7</ele><time>2011-10-13T10:44:32.0000000+00:00</time></trkpt><trkpt lat="44.493477" lon="34.165604"><ele>-14.2</ele><time>2011-10-13T10:44:37.0000000+00:00</time></trkpt><trkpt lat="44.493393" lon="34.165527"><ele>-12.2</ele><time>2011-10-13T10:44:42.0000000+00:00</time></trkpt><trkpt lat="44.493328" lon="34.16544"><ele>-11.0</ele><time>2011-10-13T10:44:47.0000000+00:00</time></trkpt><trkpt lat="44.493256" lon="34.165348"><ele>-9.8</ele><time>2011-10-13T10:44:52.0000000+00:00</time></trkpt><trkpt lat="44.49316" lon="34.165253"><ele>-8.0</ele><time>2011-10-13T10:44:57.0000000+00:00</time></trkpt><trkpt lat="44.493065" lon="34.165165"><ele>-7.3</ele><time>2011-10-13T10:45:02.0000000+00:00</time></trkpt><trkpt lat="44.49297" lon="34.165092"><ele>-6.7</ele><time>2011-10-13T10:45:07.0000000+00:00</time></trkpt><trkpt lat="44.492855" lon="34.165005"><ele>-6.6</ele><time>2011-10-13T10:45:12.0000000+00:00</time></trkpt><trkpt lat="44.492748" lon="34.164925"><ele>-6.6</ele><time>2011-10-13T10:45:17.0000000+00:00</time></trkpt><trkpt lat="44.492622" lon="34.164825"><ele>-7.0</ele><time>2011-10-13T10:45:22.0000000+00:00</time></trkpt><trkpt lat="44.492485" lon="34.164707"><ele>-7.0</ele><time>2011-10-13T10:45:27.0000000+00:00</time></trkpt><trkpt lat="44.492378" lon="34.164642"><ele>-7.2</ele><time>2011-10-13T10:45:32.0000000+00:00</time></trkpt><trkpt lat="44.492287" lon="34.164612"><ele>-7.0</ele><time>2011-10-13T10:45:37.0000000+00:00</time></trkpt><trkpt lat="44.492207" lon="34.16457"><ele>-7.3</ele><time>2011-10-13T10:45:42.0000000+00:00</time></trkpt><trkpt lat="44.492126" lon="34.16452"><ele>-9.4</ele><time>2011-10-13T10:45:47.0000000+00:00</time></trkpt><trkpt lat="44.4921" lon="34.164516"><ele>-10.4</ele><time>2011-10-13T10:45:52.0000000+00:00</time></trkpt><trkpt lat="44.492096" lon="34.164471"><ele>-11.8</ele><time>2011-10-13T10:45:57.0000000+00:00</time></trkpt><trkpt lat="44.492111" lon="34.164421"><ele>-11.7</ele><time>2011-10-13T10:46:02.0000000+00:00</time></trkpt><trkpt lat="44.492119" lon="34.164394"><ele>-12.2</ele><time>2011-10-13T10:46:07.0000000+00:00</time></trkpt><trkpt lat="44.492119" lon="34.164383"><ele>-12.6</ele><time>2011-10-13T10:46:12.0000000+00:00</time></trkpt><trkpt lat="44.492123" lon="34.164391"><ele>-12.5</ele><time>2011-10-13T10:46:17.0000000+00:00</time></trkpt><trkpt lat="44.492126" lon="34.164387"><ele>-12.2</ele><time>2011-10-13T10:46:22.0000000+00:00</time></trkpt><trkpt lat="44.492134" lon="34.164391"><ele>-12.0</ele><time>2011-10-13T10:46:27.0000000+00:00</time></trkpt><trkpt lat="44.492142" lon="34.164391"><ele>-12.0</ele><time>2011-10-13T10:46:32.0000000+00:00</time></trkpt><trkpt lat="44.492138" lon="34.164394"><ele>-11.9</ele><time>2011-10-13T10:46:37.0000000+00:00</time></trkpt><trkpt lat="44.492142" lon="34.164391"><ele>-12.5</ele><time>2011-10-13T10:46:42.0000000+00:00</time></trkpt><trkpt lat="44.492142" lon="34.164402"><ele>-12.1</ele><time>2011-10-13T10:46:47.0000000+00:00</time></trkpt><trkpt lat="44.492146" lon="34.164402"><ele>-11.9</ele><time>2011-10-13T10:46:52.0000000+00:00</time></trkpt><trkpt lat="44.492146" lon="34.164394"><ele>-11.8</ele><time>2011-10-13T10:46:57.0000000+00:00</time></trkpt><trkpt lat="44.492142" lon="34.164394"><ele>-11.1</ele><time>2011-10-13T10:47:02.0000000+00:00</time></trkpt><trkpt lat="44.492146" lon="34.164394"><ele>-11.3</ele><time>2011-10-13T10:47:07.0000000+00:00</time></trkpt><trkpt lat="44.492149" lon="34.164391"><ele>-11.3</ele><time>2011-10-13T10:47:12.0000000+00:00</time></trkpt><trkpt lat="44.492149" lon="34.164391"><ele>-11.3</ele><time>2011-10-13T10:47:17.0000000+00:00</time></trkpt><trkpt lat="44.492149" lon="34.164387"><ele>-11.3</ele><time>2011-10-13T10:47:22.0000000+00:00</time></trkpt><trkpt lat="44.492149" lon="34.164387"><ele>-11.3</ele><time>2011-10-13T10:47:27.0000000+00:00</time></trkpt><trkpt lat="44.492149" lon="34.164387"><ele>-11.3</ele><time>2011-10-13T10:47:32.0000000+00:00</time></trkpt><trkpt lat="44.492149" lon="34.164387"><ele>-11.3</ele><time>2011-10-13T10:47:37.0000000+00:00</time></trkpt><trkpt lat="44.492149" lon="34.164387"><ele>-11.3</ele><time>2011-10-13T10:47:42.0000000+00:00</time></trkpt><trkpt lat="44.492149" lon="34.164387"><ele>-11.3</ele><time>2011-10-13T10:47:47.0000000+00:00</time></trkpt><trkpt lat="44.492153" lon="34.164387"><ele>-11.3</ele><time>2011-10-13T10:47:52.0000000+00:00</time></trkpt><trkpt lat="44.492153" lon="34.164387"><ele>-11.2</ele><time>2011-10-13T10:47:57.0000000+00:00</time></trkpt><trkpt lat="44.492149" lon="34.164379"><ele>-11.1</ele><time>2011-10-13T10:48:02.0000000+00:00</time></trkpt><trkpt lat="44.492085" lon="34.164318"><ele>-10.2</ele><time>2011-10-13T10:48:07.0000000+00:00</time></trkpt><trkpt lat="44.491993" lon="34.164276"><ele>-9.8</ele><time>2011-10-13T10:48:12.0000000+00:00</time></trkpt><trkpt lat="44.49192" lon="34.164211"><ele>-9.1</ele><time>2011-10-13T10:48:17.0000000+00:00</time></trkpt><trkpt lat="44.491833" lon="34.16415"><ele>-8.0</ele><time>2011-10-13T10:48:22.0000000+00:00</time></trkpt><trkpt lat="44.491722" lon="34.164089"><ele>-6.5</ele><time>2011-10-13T10:48:27.0000000+00:00</time></trkpt><trkpt lat="44.491611" lon="34.164017"><ele>-5.2</ele><time>2011-10-13T10:48:32.0000000+00:00</time></trkpt><trkpt lat="44.491489" lon="34.163963"><ele>-3.6</ele><time>2011-10-13T10:48:37.0000000+00:00</time></trkpt><trkpt lat="44.49136" lon="34.163925"><ele>-2.0</ele><time>2011-10-13T10:48:42.0000000+00:00</time></trkpt><trkpt lat="44.491264" lon="34.163864"><ele>-0.6</ele><time>2011-10-13T10:48:47.0000000+00:00</time></trkpt><trkpt lat="44.491161" lon="34.163799"><ele>0.5</ele><time>2011-10-13T10:48:52.0000000+00:00</time></trkpt><trkpt lat="44.491051" lon="34.163734"><ele>1.4</ele><time>2011-10-13T10:48:57.0000000+00:00</time></trkpt><trkpt lat="44.490959" lon="34.163662"><ele>1.2</ele><time>2011-10-13T10:49:02.0000000+00:00</time></trkpt><trkpt lat="44.490856" lon="34.163589"><ele>1.7</ele><time>2011-10-13T10:49:07.0000000+00:00</time></trkpt><trkpt lat="44.490746" lon="34.163532"><ele>1.7</ele><time>2011-10-13T10:49:12.0000000+00:00</time></trkpt><trkpt lat="44.490654" lon="34.163486"><ele>1.8</ele><time>2011-10-13T10:49:17.0000000+00:00</time></trkpt><trkpt lat="44.490574" lon="34.163445"><ele>2.4</ele><time>2011-10-13T10:49:22.0000000+00:00</time></trkpt><trkpt lat="44.490509" lon="34.163395"><ele>3.2</ele><time>2011-10-13T10:49:27.0000000+00:00</time></trkpt><trkpt lat="44.490387" lon="34.163288"><ele>0.4</ele><time>2011-10-13T10:49:32.0000000+00:00</time></trkpt><trkpt lat="44.490307" lon="34.163177"><ele>-0.4</ele><time>2011-10-13T10:49:37.0000000+00:00</time></trkpt><trkpt lat="44.490253" lon="34.163097"><ele>-0.8</ele><time>2011-10-13T10:49:42.0000000+00:00</time></trkpt><trkpt lat="44.490204" lon="34.163021"><ele>-0.5</ele><time>2011-10-13T10:49:47.0000000+00:00</time></trkpt><trkpt lat="44.490139" lon="34.162945"><ele>-0.2</ele><time>2011-10-13T10:49:52.0000000+00:00</time></trkpt><trkpt lat="44.490067" lon="34.162872"><ele>1.3</ele><time>2011-10-13T10:49:57.0000000+00:00</time></trkpt><trkpt lat="44.490009" lon="34.162811"><ele>2.7</ele><time>2011-10-13T10:50:02.0000000+00:00</time></trkpt><trkpt lat="44.489975" lon="34.162766"><ele>1.6</ele><time>2011-10-13T10:50:07.0000000+00:00</time></trkpt><trkpt lat="44.489941" lon="34.162731"><ele>-0.3</ele><time>2011-10-13T10:50:12.0000000+00:00</time></trkpt><trkpt lat="44.489929" lon="34.16272"><ele>-0.7</ele><time>2011-10-13T10:50:17.0000000+00:00</time></trkpt><trkpt lat="44.489925" lon="34.162697"><ele>0.3</ele><time>2011-10-13T10:50:22.0000000+00:00</time></trkpt><trkpt lat="44.489918" lon="34.162697"><ele>0.9</ele><time>2011-10-13T10:50:27.0000000+00:00</time></trkpt><trkpt lat="44.489906" lon="34.162701"><ele>0.7</ele><time>2011-10-13T10:50:32.0000000+00:00</time></trkpt><trkpt lat="44.489899" lon="34.162693"><ele>0.6</ele><time>2011-10-13T10:50:37.0000000+00:00</time></trkpt><trkpt lat="44.489891" lon="34.162685"><ele>1.1</ele><time>2011-10-13T10:50:42.0000000+00:00</time></trkpt><trkpt lat="44.489876" lon="34.162685"><ele>1.5</ele><time>2011-10-13T10:50:47.0000000+00:00</time></trkpt><trkpt lat="44.489857" lon="34.162682"><ele>1.6</ele><time>2011-10-13T10:50:52.0000000+00:00</time></trkpt><trkpt lat="44.489853" lon="34.162678"><ele>1.9</ele><time>2011-10-13T10:50:57.0000000+00:00</time></trkpt><trkpt lat="44.489857" lon="34.162674"><ele>2.3</ele><time>2011-10-13T10:51:02.0000000+00:00</time></trkpt><trkpt lat="44.489864" lon="34.162666"><ele>2.6</ele><time>2011-10-13T10:51:07.0000000+00:00</time></trkpt><trkpt lat="44.489868" lon="34.162663"><ele>2.8</ele><time>2011-10-13T10:51:12.0000000+00:00</time></trkpt><trkpt lat="44.489868" lon="34.162655"><ele>3.1</ele><time>2011-10-13T10:51:17.0000000+00:00</time></trkpt><trkpt lat="44.489868" lon="34.162655"><ele>3.3</ele><time>2011-10-13T10:51:22.0000000+00:00</time></trkpt><trkpt lat="44.489864" lon="34.162651"><ele>3.6</ele><time>2011-10-13T10:51:27.0000000+00:00</time></trkpt><trkpt lat="44.489864" lon="34.162647"><ele>3.7</ele><time>2011-10-13T10:51:32.0000000+00:00</time></trkpt><trkpt lat="44.489864" lon="34.162647"><ele>3.8</ele><time>2011-10-13T10:51:37.0000000+00:00</time></trkpt><trkpt lat="44.489864" lon="34.162647"><ele>3.8</ele><time>2011-10-13T10:51:42.0000000+00:00</time></trkpt><trkpt lat="44.489861" lon="34.162647"><ele>3.8</ele><time>2011-10-13T10:51:47.0000000+00:00</time></trkpt><trkpt lat="44.489861" lon="34.162647"><ele>3.8</ele><time>2011-10-13T10:51:52.0000000+00:00</time></trkpt><trkpt lat="44.489861" lon="34.162647"><ele>3.8</ele><time>2011-10-13T10:51:57.0000000+00:00</time></trkpt><trkpt lat="44.489861" lon="34.162647"><ele>3.8</ele><time>2011-10-13T10:52:02.0000000+00:00</time></trkpt><trkpt lat="44.489861" lon="34.162647"><ele>3.8</ele><time>2011-10-13T10:52:07.0000000+00:00</time></trkpt><trkpt lat="44.489861" lon="34.162647"><ele>3.8</ele><time>2011-10-13T10:52:12.0000000+00:00</time></trkpt><trkpt lat="44.489861" lon="34.162647"><ele>3.8</ele><time>2011-10-13T10:52:17.0000000+00:00</time></trkpt><trkpt lat="44.489861" lon="34.162647"><ele>3.8</ele><time>2011-10-13T10:52:22.0000000+00:00</time></trkpt><trkpt lat="44.489861" lon="34.162647"><ele>3.9</ele><time>2011-10-13T10:52:27.0000000+00:00</time></trkpt><trkpt lat="44.489861" lon="34.162643"><ele>3.9</ele><time>2011-10-13T10:52:32.0000000+00:00</time></trkpt><trkpt lat="44.489861" lon="34.162643"><ele>3.9</ele><time>2011-10-13T10:52:37.0000000+00:00</time></trkpt><trkpt lat="44.489861" lon="34.162643"><ele>3.9</ele><time>2011-10-13T10:52:42.0000000+00:00</time></trkpt><trkpt lat="44.489861" lon="34.162643"><ele>3.9</ele><time>2011-10-13T10:52:47.0000000+00:00</time></trkpt><trkpt lat="44.489861" lon="34.162643"><ele>4.0</ele><time>2011-10-13T10:52:52.0000000+00:00</time></trkpt><trkpt lat="44.489861" lon="34.162643"><ele>4.0</ele><time>2011-10-13T10:52:57.0000000+00:00</time></trkpt><trkpt lat="44.489861" lon="34.162643"><ele>4.0</ele><time>2011-10-13T10:53:02.0000000+00:00</time></trkpt><trkpt lat="44.489857" lon="34.162643"><ele>4.0</ele><time>2011-10-13T10:53:07.0000000+00:00</time></trkpt><trkpt lat="44.489857" lon="34.16264"><ele>3.9</ele><time>2011-10-13T10:53:12.0000000+00:00</time></trkpt><trkpt lat="44.489857" lon="34.16264"><ele>3.9</ele><time>2011-10-13T10:53:17.0000000+00:00</time></trkpt><trkpt lat="44.489857" lon="34.16264"><ele>3.9</ele><time>2011-10-13T10:53:22.0000000+00:00</time></trkpt><trkpt lat="44.489857" lon="34.16264"><ele>3.9</ele><time>2011-10-13T10:53:27.0000000+00:00</time></trkpt><trkpt lat="44.489857" lon="34.16264"><ele>3.9</ele><time>2011-10-13T10:53:32.0000000+00:00</time></trkpt><trkpt lat="44.489857" lon="34.16264"><ele>3.9</ele><time>2011-10-13T10:53:37.0000000+00:00</time></trkpt><trkpt lat="44.489857" lon="34.16264"><ele>3.8</ele><time>2011-10-13T10:53:42.0000000+00:00</time></trkpt><trkpt lat="44.489857" lon="34.16264"><ele>3.8</ele><time>2011-10-13T10:53:47.0000000+00:00</time></trkpt><trkpt lat="44.489857" lon="34.16264"><ele>3.8</ele><time>2011-10-13T10:53:52.0000000+00:00</time></trkpt><trkpt lat="44.489857" lon="34.16264"><ele>3.7</ele><time>2011-10-13T10:53:57.0000000+00:00</time></trkpt><trkpt lat="44.489857" lon="34.16264"><ele>3.8</ele><time>2011-10-13T10:54:02.0000000+00:00</time></trkpt><trkpt lat="44.489857" lon="34.16264"><ele>3.8</ele><time>2011-10-13T10:54:07.0000000+00:00</time></trkpt><trkpt lat="44.489857" lon="34.16264"><ele>3.8</ele><time>2011-10-13T10:54:12.0000000+00:00</time></trkpt><trkpt lat="44.489857" lon="34.16264"><ele>3.8</ele><time>2011-10-13T10:54:17.0000000+00:00</time></trkpt><trkpt lat="44.489853" lon="34.16264"><ele>3.8</ele><time>2011-10-13T10:54:22.0000000+00:00</time></trkpt><trkpt lat="44.489853" lon="34.16264"><ele>3.8</ele><time>2011-10-13T10:54:27.0000000+00:00</time></trkpt><trkpt lat="44.489857" lon="34.162636"><ele>3.7</ele><time>2011-10-13T10:54:32.0000000+00:00</time></trkpt><trkpt lat="44.489826" lon="34.162601"><ele>3.6</ele><time>2011-10-13T10:54:37.0000000+00:00</time></trkpt><trkpt lat="44.489784" lon="34.162586"><ele>1.3</ele><time>2011-10-13T10:54:42.0000000+00:00</time></trkpt><trkpt lat="44.489773" lon="34.162598"><ele>1.3</ele><time>2011-10-13T10:54:47.0000000+00:00</time></trkpt><trkpt lat="44.48975" lon="34.162609"><ele>2.2</ele><time>2011-10-13T10:54:52.0000000+00:00</time></trkpt><trkpt lat="44.489746" lon="34.162663"><ele>2.2</ele><time>2011-10-13T10:54:57.0000000+00:00</time></trkpt><trkpt lat="44.489735" lon="34.162697"><ele>2.3</ele><time>2011-10-13T10:55:02.0000000+00:00</time></trkpt><trkpt lat="44.489731" lon="34.162701"><ele>2.4</ele><time>2011-10-13T10:55:07.0000000+00:00</time></trkpt><trkpt lat="44.489742" lon="34.162701"><ele>2.2</ele><time>2011-10-13T10:55:12.0000000+00:00</time></trkpt><trkpt lat="44.489754" lon="34.162697"><ele>2.2</ele><time>2011-10-13T10:55:17.0000000+00:00</time></trkpt><trkpt lat="44.489735" lon="34.162746"><ele>1.7</ele><time>2011-10-13T10:55:22.0000000+00:00</time></trkpt><trkpt lat="44.489738" lon="34.162743"><ele>1.7</ele><time>2011-10-13T10:55:27.0000000+00:00</time></trkpt><trkpt lat="44.489761" lon="34.162731"><ele>0.5</ele><time>2011-10-13T10:55:32.0000000+00:00</time></trkpt><trkpt lat="44.489765" lon="34.162727"><ele>0.3</ele><time>2011-10-13T10:55:37.0000000+00:00</time></trkpt><trkpt lat="44.489769" lon="34.162724"><ele>0.7</ele><time>2011-10-13T10:55:42.0000000+00:00</time></trkpt><trkpt lat="44.48978" lon="34.16272"><ele>1.0</ele><time>2011-10-13T10:55:47.0000000+00:00</time></trkpt><trkpt lat="44.489792" lon="34.16272"><ele>1.3</ele><time>2011-10-13T10:55:52.0000000+00:00</time></trkpt><trkpt lat="44.48983" lon="34.162735"><ele>1.2</ele><time>2011-10-13T10:55:57.0000000+00:00</time></trkpt><trkpt lat="44.489849" lon="34.16275"><ele>0.9</ele><time>2011-10-13T10:56:02.0000000+00:00</time></trkpt><trkpt lat="44.489838" lon="34.162785"><ele>0.9</ele><time>2011-10-13T10:56:07.0000000+00:00</time></trkpt><trkpt lat="44.48983" lon="34.162796"><ele>1.3</ele><time>2011-10-13T10:56:12.0000000+00:00</time></trkpt><trkpt lat="44.48983" lon="34.162804"><ele>1.6</ele><time>2011-10-13T10:56:17.0000000+00:00</time></trkpt><trkpt lat="44.489834" lon="34.162811"><ele>1.8</ele><time>2011-10-13T10:56:22.0000000+00:00</time></trkpt><trkpt lat="44.489834" lon="34.162815"><ele>2.1</ele><time>2011-10-13T10:56:27.0000000+00:00</time></trkpt><trkpt lat="44.489841" lon="34.162819"><ele>2.4</ele><time>2011-10-13T10:56:32.0000000+00:00</time></trkpt><trkpt lat="44.489845" lon="34.162819"><ele>2.7</ele><time>2011-10-13T10:56:37.0000000+00:00</time></trkpt><trkpt lat="44.489849" lon="34.162819"><ele>2.9</ele><time>2011-10-13T10:56:42.0000000+00:00</time></trkpt><trkpt lat="44.489849" lon="34.162823"><ele>3.2</ele><time>2011-10-13T10:56:47.0000000+00:00</time></trkpt><trkpt lat="44.489853" lon="34.162823"><ele>3.4</ele><time>2011-10-13T10:56:52.0000000+00:00</time></trkpt><trkpt lat="44.489861" lon="34.162827"><ele>3.6</ele><time>2011-10-13T10:56:57.0000000+00:00</time></trkpt><trkpt lat="44.489872" lon="34.162842"><ele>3.6</ele><time>2011-10-13T10:57:02.0000000+00:00</time></trkpt><trkpt lat="44.489887" lon="34.162857"><ele>3.4</ele><time>2011-10-13T10:57:07.0000000+00:00</time></trkpt><trkpt lat="44.489872" lon="34.162823"><ele>3.0</ele><time>2011-10-13T10:57:12.0000000+00:00</time></trkpt><trkpt lat="44.489861" lon="34.162773"><ele>3.1</ele><time>2011-10-13T10:57:17.0000000+00:00</time></trkpt><trkpt lat="44.489811" lon="34.162766"><ele>3.2</ele><time>2011-10-13T10:57:22.0000000+00:00</time></trkpt><trkpt lat="44.489777" lon="34.162792"><ele>3.3</ele><time>2011-10-13T10:57:27.0000000+00:00</time></trkpt><trkpt lat="44.489784" lon="34.162796"><ele>3.3</ele><time>2011-10-13T10:57:32.0000000+00:00</time></trkpt><trkpt lat="44.489777" lon="34.162796"><ele>3.5</ele><time>2011-10-13T10:57:37.0000000+00:00</time></trkpt><trkpt lat="44.489777" lon="34.162796"><ele>3.5</ele><time>2011-10-13T10:57:42.0000000+00:00</time></trkpt><trkpt lat="44.489807" lon="34.162781"><ele>3.4</ele><time>2011-10-13T10:57:47.0000000+00:00</time></trkpt><trkpt lat="44.489838" lon="34.162777"><ele>3.2</ele><time>2011-10-13T10:57:52.0000000+00:00</time></trkpt><trkpt lat="44.489845" lon="34.162807"><ele>3.2</ele><time>2011-10-13T10:57:57.0000000+00:00</time></trkpt><trkpt lat="44.489826" lon="34.162834"><ele>3.5</ele><time>2011-10-13T10:58:02.0000000+00:00</time></trkpt><trkpt lat="44.489822" lon="34.162853"><ele>3.7</ele><time>2011-10-13T10:58:07.0000000+00:00</time></trkpt><trkpt lat="44.489826" lon="34.162853"><ele>3.8</ele><time>2011-10-13T10:58:12.0000000+00:00</time></trkpt><trkpt lat="44.489826" lon="34.162853"><ele>3.9</ele><time>2011-10-13T10:58:17.0000000+00:00</time></trkpt><trkpt lat="44.489826" lon="34.162853"><ele>3.9</ele><time>2011-10-13T10:58:22.0000000+00:00</time></trkpt><trkpt lat="44.489826" lon="34.162853"><ele>3.9</ele><time>2011-10-13T10:58:27.0000000+00:00</time></trkpt><trkpt lat="44.48983" lon="34.162857"><ele>4.0</ele><time>2011-10-13T10:58:32.0000000+00:00</time></trkpt><trkpt lat="44.48983" lon="34.162857"><ele>4.0</ele><time>2011-10-13T10:58:37.0000000+00:00</time></trkpt><trkpt lat="44.48983" lon="34.162857"><ele>4.0</ele><time>2011-10-13T10:58:42.0000000+00:00</time></trkpt><trkpt lat="44.48983" lon="34.162857"><ele>4.0</ele><time>2011-10-13T10:58:47.0000000+00:00</time></trkpt><trkpt lat="44.48983" lon="34.162857"><ele>4.0</ele><time>2011-10-13T10:58:52.0000000+00:00</time></trkpt><trkpt lat="44.48983" lon="34.162857"><ele>4.0</ele><time>2011-10-13T10:58:57.0000000+00:00</time></trkpt><trkpt lat="44.48983" lon="34.162857"><ele>4.0</ele><time>2011-10-13T10:59:02.0000000+00:00</time></trkpt><trkpt lat="44.489834" lon="34.162857"><ele>4.0</ele><time>2011-10-13T10:59:07.0000000+00:00</time></trkpt><trkpt lat="44.489841" lon="34.162853"><ele>4.0</ele><time>2011-10-13T10:59:12.0000000+00:00</time></trkpt><trkpt lat="44.489849" lon="34.162861"><ele>4.0</ele><time>2011-10-13T10:59:17.0000000+00:00</time></trkpt><trkpt lat="44.489849" lon="34.162857"><ele>4.0</ele><time>2011-10-13T10:59:22.0000000+00:00</time></trkpt><trkpt lat="44.489861" lon="34.162865"><ele>5.0</ele><time>2011-10-13T10:59:27.0000000+00:00</time></trkpt><trkpt lat="44.489868" lon="34.162865"><ele>5.6</ele><time>2011-10-13T10:59:32.0000000+00:00</time></trkpt><trkpt lat="44.48988" lon="34.162865"><ele>6.3</ele><time>2011-10-13T10:59:37.0000000+00:00</time></trkpt><trkpt lat="44.489887" lon="34.162868"><ele>6.9</ele><time>2011-10-13T10:59:42.0000000+00:00</time></trkpt><trkpt lat="44.489895" lon="34.162872"><ele>7.5</ele><time>2011-10-13T10:59:47.0000000+00:00</time></trkpt><trkpt lat="44.489887" lon="34.162872"><ele>7.7</ele><time>2011-10-13T10:59:52.0000000+00:00</time></trkpt><trkpt lat="44.489895" lon="34.162865"><ele>8.2</ele><time>2011-10-13T10:59:57.0000000+00:00</time></trkpt><trkpt lat="44.489891" lon="34.162865"><ele>8.4</ele><time>2011-10-13T11:00:02.0000000+00:00</time></trkpt><trkpt lat="44.489895" lon="34.162868"><ele>8.9</ele><time>2011-10-13T11:00:07.0000000+00:00</time></trkpt><trkpt lat="44.489895" lon="34.162868"><ele>9.5</ele><time>2011-10-13T11:00:12.0000000+00:00</time></trkpt><trkpt lat="44.489895" lon="34.162876"><ele>10.1</ele><time>2011-10-13T11:00:17.0000000+00:00</time></trkpt><trkpt lat="44.489876" lon="34.162891"><ele>10.5</ele><time>2011-10-13T11:00:22.0000000+00:00</time></trkpt><trkpt lat="44.489876" lon="34.162926"><ele>10.8</ele><time>2011-10-13T11:00:27.0000000+00:00</time></trkpt><trkpt lat="44.489815" lon="34.162933"><ele>11.3</ele><time>2011-10-13T11:00:32.0000000+00:00</time></trkpt><trkpt lat="44.489758" lon="34.162926"><ele>11.8</ele><time>2011-10-13T11:00:37.0000000+00:00</time></trkpt><trkpt lat="44.489719" lon="34.162949"><ele>12.3</ele><time>2011-10-13T11:00:42.0000000+00:00</time></trkpt><trkpt lat="44.4897" lon="34.162979"><ele>12.8</ele><time>2011-10-13T11:00:47.0000000+00:00</time></trkpt><trkpt lat="44.489693" lon="34.162994"><ele>13.3</ele><time>2011-10-13T11:00:52.0000000+00:00</time></trkpt><trkpt lat="44.489708" lon="34.162983"><ele>13.8</ele><time>2011-10-13T11:00:57.0000000+00:00</time></trkpt><trkpt lat="44.489719" lon="34.162983"><ele>14.3</ele><time>2011-10-13T11:01:02.0000000+00:00</time></trkpt><trkpt lat="44.489723" lon="34.162991"><ele>14.8</ele><time>2011-10-13T11:01:07.0000000+00:00</time></trkpt><trkpt lat="44.48975" lon="34.162991"><ele>15.1</ele><time>2011-10-13T11:01:12.0000000+00:00</time></trkpt><trkpt lat="44.489754" lon="34.162994"><ele>15.6</ele><time>2011-10-13T11:01:17.0000000+00:00</time></trkpt><trkpt lat="44.489758" lon="34.162994"><ele>16.1</ele><time>2011-10-13T11:01:22.0000000+00:00</time></trkpt><trkpt lat="44.489765" lon="34.162994"><ele>16.6</ele><time>2011-10-13T11:01:27.0000000+00:00</time></trkpt><trkpt lat="44.489765" lon="34.162998"><ele>17.1</ele><time>2011-10-13T11:01:32.0000000+00:00</time></trkpt><trkpt lat="44.489769" lon="34.162998"><ele>17.6</ele><time>2011-10-13T11:01:37.0000000+00:00</time></trkpt><trkpt lat="44.489769" lon="34.163002"><ele>18.1</ele><time>2011-10-13T11:01:42.0000000+00:00</time></trkpt><trkpt lat="44.489723" lon="34.163074"><ele>18.7</ele><time>2011-10-13T11:01:47.0000000+00:00</time></trkpt><trkpt lat="44.4897" lon="34.163105"><ele>18.4</ele><time>2011-10-13T11:01:52.0000000+00:00</time></trkpt><trkpt lat="44.489685" lon="34.16312"><ele>18.5</ele><time>2011-10-13T11:01:57.0000000+00:00</time></trkpt><trkpt lat="44.489655" lon="34.163116"><ele>17.5</ele><time>2011-10-13T11:02:02.0000000+00:00</time></trkpt><trkpt lat="44.489613" lon="34.163101"><ele>17.1</ele><time>2011-10-13T11:02:07.0000000+00:00</time></trkpt><trkpt lat="44.489594" lon="34.163059"><ele>16.7</ele><time>2011-10-13T11:02:12.0000000+00:00</time></trkpt><trkpt lat="44.489594" lon="34.163021"><ele>16.3</ele><time>2011-10-13T11:02:17.0000000+00:00</time></trkpt><trkpt lat="44.489605" lon="34.163002"><ele>16.0</ele><time>2011-10-13T11:02:22.0000000+00:00</time></trkpt><trkpt lat="44.489639" lon="34.16291"><ele>15.7</ele><time>2011-10-13T11:02:27.0000000+00:00</time></trkpt><trkpt lat="44.489628" lon="34.162846"><ele>15.4</ele><time>2011-10-13T11:02:32.0000000+00:00</time></trkpt><trkpt lat="44.48962" lon="34.1628"><ele>15.0</ele><time>2011-10-13T11:02:37.0000000+00:00</time></trkpt><trkpt lat="44.489605" lon="34.16264"><ele>12.2</ele><time>2011-10-13T11:02:42.0000000+00:00</time></trkpt><trkpt lat="44.48967" lon="34.16256"><ele>8.4</ele><time>2011-10-13T11:02:47.0000000+00:00</time></trkpt><trkpt lat="44.489651" lon="34.162537"><ele>6.9</ele><time>2011-10-13T11:02:52.0000000+00:00</time></trkpt><trkpt lat="44.489647" lon="34.162521"><ele>6.7</ele><time>2011-10-13T11:02:57.0000000+00:00</time></trkpt><trkpt lat="44.489632" lon="34.16251"><ele>7.3</ele><time>2011-10-13T11:03:02.0000000+00:00</time></trkpt><trkpt lat="44.489632" lon="34.162518"><ele>8.0</ele><time>2011-10-13T11:03:07.0000000+00:00</time></trkpt><trkpt lat="44.489628" lon="34.162518"><ele>7.9</ele><time>2011-10-13T11:03:12.0000000+00:00</time></trkpt><trkpt lat="44.489632" lon="34.162525"><ele>8.5</ele><time>2011-10-13T11:03:17.0000000+00:00</time></trkpt><trkpt lat="44.489639" lon="34.16254"><ele>7.7</ele><time>2011-10-13T11:03:22.0000000+00:00</time></trkpt><trkpt lat="44.489662" lon="34.16256"><ele>6.9</ele><time>2011-10-13T11:03:27.0000000+00:00</time></trkpt><trkpt lat="44.489685" lon="34.162556"><ele>6.3</ele><time>2011-10-13T11:03:32.0000000+00:00</time></trkpt><trkpt lat="44.489677" lon="34.162567"><ele>6.2</ele><time>2011-10-13T11:03:37.0000000+00:00</time></trkpt><trkpt lat="44.489681" lon="34.162571"><ele>5.5</ele><time>2011-10-13T11:03:42.0000000+00:00</time></trkpt><trkpt lat="44.489681" lon="34.162575"><ele>6.2</ele><time>2011-10-13T11:03:47.0000000+00:00</time></trkpt><trkpt lat="44.489674" lon="34.162582"><ele>7.3</ele><time>2011-10-13T11:03:52.0000000+00:00</time></trkpt><trkpt lat="44.489674" lon="34.16259"><ele>8.2</ele><time>2011-10-13T11:03:57.0000000+00:00</time></trkpt><trkpt lat="44.489674" lon="34.162594"><ele>8.4</ele><time>2011-10-13T11:04:02.0000000+00:00</time></trkpt><trkpt lat="44.489674" lon="34.162605"><ele>8.2</ele><time>2011-10-13T11:04:07.0000000+00:00</time></trkpt><trkpt lat="44.489677" lon="34.162586"><ele>7.2</ele><time>2011-10-13T11:04:12.0000000+00:00</time></trkpt><trkpt lat="44.489677" lon="34.16259"><ele>6.9</ele><time>2011-10-13T11:04:17.0000000+00:00</time></trkpt><trkpt lat="44.489677" lon="34.16259"><ele>6.9</ele><time>2011-10-13T11:04:22.0000000+00:00</time></trkpt><trkpt lat="44.489677" lon="34.16259"><ele>6.9</ele><time>2011-10-13T11:04:27.0000000+00:00</time></trkpt><trkpt lat="44.489677" lon="34.16259"><ele>6.8</ele><time>2011-10-13T11:04:32.0000000+00:00</time></trkpt><trkpt lat="44.489677" lon="34.16259"><ele>6.8</ele><time>2011-10-13T11:04:37.0000000+00:00</time></trkpt><trkpt lat="44.489677" lon="34.16259"><ele>6.8</ele><time>2011-10-13T11:04:42.0000000+00:00</time></trkpt><trkpt lat="44.489677" lon="34.16259"><ele>6.8</ele><time>2011-10-13T11:04:47.0000000+00:00</time></trkpt><trkpt lat="44.489677" lon="34.16259"><ele>6.7</ele><time>2011-10-13T11:04:52.0000000+00:00</time></trkpt><trkpt lat="44.489677" lon="34.16259"><ele>6.7</ele><time>2011-10-13T11:04:57.0000000+00:00</time></trkpt><trkpt lat="44.489677" lon="34.16259"><ele>6.7</ele><time>2011-10-13T11:05:02.0000000+00:00</time></trkpt><trkpt lat="44.489677" lon="34.16259"><ele>6.6</ele><time>2011-10-13T11:05:07.0000000+00:00</time></trkpt><trkpt lat="44.489677" lon="34.16259"><ele>6.6</ele><time>2011-10-13T11:05:12.0000000+00:00</time></trkpt><trkpt lat="44.489677" lon="34.16259"><ele>6.6</ele><time>2011-10-13T11:05:17.0000000+00:00</time></trkpt><trkpt lat="44.489677" lon="34.16259"><ele>6.6</ele><time>2011-10-13T11:05:22.0000000+00:00</time></trkpt><trkpt lat="44.489677" lon="34.16259"><ele>6.5</ele><time>2011-10-13T11:05:27.0000000+00:00</time></trkpt><trkpt lat="44.489677" lon="34.16259"><ele>6.5</ele><time>2011-10-13T11:05:32.0000000+00:00</time></trkpt><trkpt lat="44.489677" lon="34.16259"><ele>6.5</ele><time>2011-10-13T11:05:37.0000000+00:00</time></trkpt><trkpt lat="44.489677" lon="34.162594"><ele>6.5</ele><time>2011-10-13T11:05:42.0000000+00:00</time></trkpt><trkpt lat="44.48967" lon="34.162594"><ele>5.8</ele><time>2011-10-13T11:05:47.0000000+00:00</time></trkpt><trkpt lat="44.489674" lon="34.162609"><ele>5.9</ele><time>2011-10-13T11:05:52.0000000+00:00</time></trkpt><trkpt lat="44.48967" lon="34.162605"><ele>5.7</ele><time>2011-10-13T11:05:57.0000000+00:00</time></trkpt><trkpt lat="44.489677" lon="34.162613"><ele>5.2</ele><time>2011-10-13T11:06:02.0000000+00:00</time></trkpt><trkpt lat="44.489681" lon="34.162605"><ele>4.5</ele><time>2011-10-13T11:06:07.0000000+00:00</time></trkpt><trkpt lat="44.489681" lon="34.162613"><ele>4.8</ele><time>2011-10-13T11:06:12.0000000+00:00</time></trkpt><trkpt lat="44.489677" lon="34.162613"><ele>5.1</ele><time>2011-10-13T11:06:17.0000000+00:00</time></trkpt><trkpt lat="44.489681" lon="34.162605"><ele>5.3</ele><time>2011-10-13T11:06:22.0000000+00:00</time></trkpt><trkpt lat="44.489685" lon="34.162609"><ele>5.3</ele><time>2011-10-13T11:06:27.0000000+00:00</time></trkpt><trkpt lat="44.489685" lon="34.162605"><ele>5.3</ele><time>2011-10-13T11:06:32.0000000+00:00</time></trkpt><trkpt lat="44.489674" lon="34.162571"><ele>5.6</ele><time>2011-10-13T11:06:37.0000000+00:00</time></trkpt><trkpt lat="44.489693" lon="34.162525"><ele>5.7</ele><time>2011-10-13T11:06:42.0000000+00:00</time></trkpt><trkpt lat="44.489674" lon="34.162495"><ele>6.3</ele><time>2011-10-13T11:06:47.0000000+00:00</time></trkpt><trkpt lat="44.489685" lon="34.162502"><ele>6.3</ele><time>2011-10-13T11:06:52.0000000+00:00</time></trkpt><trkpt lat="44.4897" lon="34.162498"><ele>6.9</ele><time>2011-10-13T11:06:57.0000000+00:00</time></trkpt><trkpt lat="44.4897" lon="34.162495"><ele>7.3</ele><time>2011-10-13T11:07:02.0000000+00:00</time></trkpt><trkpt lat="44.4897" lon="34.162491"><ele>7.6</ele><time>2011-10-13T11:07:07.0000000+00:00</time></trkpt><trkpt lat="44.489697" lon="34.162487"><ele>8.0</ele><time>2011-10-13T11:07:12.0000000+00:00</time></trkpt><trkpt lat="44.489697" lon="34.162487"><ele>8.4</ele><time>2011-10-13T11:07:17.0000000+00:00</time></trkpt><trkpt lat="44.489693" lon="34.162491"><ele>8.8</ele><time>2011-10-13T11:07:22.0000000+00:00</time></trkpt><trkpt lat="44.489689" lon="34.162491"><ele>9.3</ele><time>2011-10-13T11:07:27.0000000+00:00</time></trkpt><trkpt lat="44.489685" lon="34.162487"><ele>9.7</ele><time>2011-10-13T11:07:32.0000000+00:00</time></trkpt><trkpt lat="44.489693" lon="34.162483"><ele>10.1</ele><time>2011-10-13T11:07:37.0000000+00:00</time></trkpt><trkpt lat="44.4897" lon="34.162483"><ele>10.5</ele><time>2011-10-13T11:07:42.0000000+00:00</time></trkpt><trkpt lat="44.489712" lon="34.162479"><ele>10.9</ele><time>2011-10-13T11:07:47.0000000+00:00</time></trkpt><trkpt lat="44.489719" lon="34.162479"><ele>11.4</ele><time>2011-10-13T11:07:52.0000000+00:00</time></trkpt><trkpt lat="44.489731" lon="34.162476"><ele>11.8</ele><time>2011-10-13T11:07:57.0000000+00:00</time></trkpt><trkpt lat="44.489727" lon="34.162472"><ele>12.3</ele><time>2011-10-13T11:08:02.0000000+00:00</time></trkpt><trkpt lat="44.489723" lon="34.162472"><ele>12.7</ele><time>2011-10-13T11:08:07.0000000+00:00</time></trkpt><trkpt lat="44.489754" lon="34.162472"><ele>13.2</ele><time>2011-10-13T11:08:12.0000000+00:00</time></trkpt><trkpt lat="44.489761" lon="34.162361"><ele>13.8</ele><time>2011-10-13T11:08:17.0000000+00:00</time></trkpt><trkpt lat="44.489784" lon="34.162224"><ele>14.1</ele><time>2011-10-13T11:08:22.0000000+00:00</time></trkpt><trkpt lat="44.489777" lon="34.162174"><ele>14.0</ele><time>2011-10-13T11:08:27.0000000+00:00</time></trkpt><trkpt lat="44.489727" lon="34.162159"><ele>14.2</ele><time>2011-10-13T11:08:32.0000000+00:00</time></trkpt><trkpt lat="44.489655" lon="34.162045"><ele>16.7</ele><time>2011-10-13T11:08:37.0000000+00:00</time></trkpt><trkpt lat="44.489525" lon="34.161976"><ele>21.2</ele><time>2011-10-13T11:08:42.0000000+00:00</time></trkpt><trkpt lat="44.48941" lon="34.16188"><ele>24.3</ele><time>2011-10-13T11:08:47.0000000+00:00</time></trkpt><trkpt lat="44.489403" lon="34.161716"><ele>27.8</ele><time>2011-10-13T11:08:52.0000000+00:00</time></trkpt><trkpt lat="44.489418" lon="34.161552"><ele>30.8</ele><time>2011-10-13T11:08:57.0000000+00:00</time></trkpt><trkpt lat="44.489407" lon="34.161415"><ele>35.8</ele><time>2011-10-13T11:09:02.0000000+00:00</time></trkpt><trkpt lat="44.489372" lon="34.161301"><ele>40.7</ele><time>2011-10-13T11:09:07.0000000+00:00</time></trkpt><trkpt lat="44.489326" lon="34.161175"><ele>45.0</ele><time>2011-10-13T11:09:12.0000000+00:00</time></trkpt><trkpt lat="44.489292" lon="34.161018"><ele>48.3</ele><time>2011-10-13T11:09:17.0000000+00:00</time></trkpt><trkpt lat="44.489254" lon="34.160938"><ele>52.2</ele><time>2011-10-13T11:09:22.0000000+00:00</time></trkpt><trkpt lat="44.489216" lon="34.160862"><ele>52.1</ele><time>2011-10-13T11:09:27.0000000+00:00</time></trkpt><trkpt lat="44.489166" lon="34.160789"><ele>52.4</ele><time>2011-10-13T11:09:32.0000000+00:00</time></trkpt><trkpt lat="44.489117" lon="34.160744"><ele>51.8</ele><time>2011-10-13T11:09:37.0000000+00:00</time></trkpt><trkpt lat="44.488995" lon="34.160755"><ele>51.5</ele><time>2011-10-13T11:09:42.0000000+00:00</time></trkpt><trkpt lat="44.488995" lon="34.16074"><ele>52.0</ele><time>2011-10-13T11:09:47.0000000+00:00</time></trkpt><trkpt lat="44.488949" lon="34.160664"><ele>53.4</ele><time>2011-10-13T11:09:52.0000000+00:00</time></trkpt><trkpt lat="44.488899" lon="34.160564"><ele>54.1</ele><time>2011-10-13T11:09:57.0000000+00:00</time></trkpt><trkpt lat="44.488834" lon="34.160484"><ele>54.6</ele><time>2011-10-13T11:10:02.0000000+00:00</time></trkpt><trkpt lat="44.488762" lon="34.160347"><ele>56.2</ele><time>2011-10-13T11:10:07.0000000+00:00</time></trkpt><trkpt lat="44.488697" lon="34.160236"><ele>57.1</ele><time>2011-10-13T11:10:12.0000000+00:00</time></trkpt><trkpt lat="44.488617" lon="34.160149"><ele>57.8</ele><time>2011-10-13T11:10:17.0000000+00:00</time></trkpt><trkpt lat="44.488537" lon="34.160084"><ele>57.9</ele><time>2011-10-13T11:10:22.0000000+00:00</time></trkpt><trkpt lat="44.48851" lon="34.159992"><ele>58.8</ele><time>2011-10-13T11:10:27.0000000+00:00</time></trkpt><trkpt lat="44.488491" lon="34.159931"><ele>59.6</ele><time>2011-10-13T11:10:32.0000000+00:00</time></trkpt><trkpt lat="44.488411" lon="34.159882"><ele>57.6</ele><time>2011-10-13T11:10:37.0000000+00:00</time></trkpt><trkpt lat="44.488369" lon="34.159828"><ele>55.5</ele><time>2011-10-13T11:10:42.0000000+00:00</time></trkpt><trkpt lat="44.488335" lon="34.159805"><ele>55.2</ele><time>2011-10-13T11:10:47.0000000+00:00</time></trkpt><trkpt lat="44.488281" lon="34.159801"><ele>54.7</ele><time>2011-10-13T11:10:52.0000000+00:00</time></trkpt><trkpt lat="44.488228" lon="34.15979"><ele>54.2</ele><time>2011-10-13T11:10:57.0000000+00:00</time></trkpt><trkpt lat="44.488171" lon="34.15974"><ele>53.8</ele><time>2011-10-13T11:11:02.0000000+00:00</time></trkpt><trkpt lat="44.488026" lon="34.159721"><ele>52.7</ele><time>2011-10-13T11:11:07.0000000+00:00</time></trkpt><trkpt lat="44.487793" lon="34.159592"><ele>52.0</ele><time>2011-10-13T11:11:12.0000000+00:00</time></trkpt><trkpt lat="44.487656" lon="34.159565"><ele>49.5</ele><time>2011-10-13T11:11:17.0000000+00:00</time></trkpt><trkpt lat="44.487526" lon="34.159573"><ele>50.3</ele><time>2011-10-13T11:11:22.0000000+00:00</time></trkpt><trkpt lat="44.487427" lon="34.159512"><ele>51.9</ele><time>2011-10-13T11:11:27.0000000+00:00</time></trkpt><trkpt lat="44.487392" lon="34.159386"><ele>53.4</ele><time>2011-10-13T11:11:32.0000000+00:00</time></trkpt><trkpt lat="44.48735" lon="34.159241"><ele>54.4</ele><time>2011-10-13T11:11:37.0000000+00:00</time></trkpt><trkpt lat="44.487286" lon="34.159119"><ele>55.3</ele><time>2011-10-13T11:11:42.0000000+00:00</time></trkpt><trkpt lat="44.487217" lon="34.158974"><ele>56.7</ele><time>2011-10-13T11:11:47.0000000+00:00</time></trkpt><trkpt lat="44.487183" lon="34.158848"><ele>56.0</ele><time>2011-10-13T11:11:52.0000000+00:00</time></trkpt><trkpt lat="44.487103" lon="34.158764"><ele>50.9</ele><time>2011-10-13T11:11:57.0000000+00:00</time></trkpt><trkpt lat="44.486958" lon="34.158714"><ele>50.3</ele><time>2011-10-13T11:12:02.0000000+00:00</time></trkpt><trkpt lat="44.486832" lon="34.158623"><ele>50.8</ele><time>2011-10-13T11:12:07.0000000+00:00</time></trkpt><trkpt lat="44.486736" lon="34.158504"><ele>52.4</ele><time>2011-10-13T11:12:12.0000000+00:00</time></trkpt><trkpt lat="44.48666" lon="34.158451"><ele>53.6</ele><time>2011-10-13T11:12:17.0000000+00:00</time></trkpt><trkpt lat="44.486588" lon="34.158405"><ele>56.1</ele><time>2011-10-13T11:12:22.0000000+00:00</time></trkpt><trkpt lat="44.486465" lon="34.158417"><ele>55.4</ele><time>2011-10-13T11:12:27.0000000+00:00</time></trkpt><trkpt lat="44.486465" lon="34.158279"><ele>53.2</ele><time>2011-10-13T11:12:32.0000000+00:00</time></trkpt><trkpt lat="44.486454" lon="34.158237"><ele>53.9</ele><time>2011-10-13T11:12:37.0000000+00:00</time></trkpt><trkpt lat="44.486465" lon="34.158176"><ele>55.8</ele><time>2011-10-13T11:12:42.0000000+00:00</time></trkpt><trkpt lat="44.486458" lon="34.158142"><ele>57.7</ele><time>2011-10-13T11:12:47.0000000+00:00</time></trkpt><trkpt lat="44.486401" lon="34.158077"><ele>57.5</ele><time>2011-10-13T11:12:52.0000000+00:00</time></trkpt><trkpt lat="44.486282" lon="34.158085"><ele>55.1</ele><time>2011-10-13T11:12:57.0000000+00:00</time></trkpt><trkpt lat="44.486248" lon="34.157883"><ele>55.8</ele><time>2011-10-13T11:13:02.0000000+00:00</time></trkpt><trkpt lat="44.486164" lon="34.157764"><ele>54.7</ele><time>2011-10-13T11:13:07.0000000+00:00</time></trkpt><trkpt lat="44.48613" lon="34.157715"><ele>57.0</ele><time>2011-10-13T11:13:12.0000000+00:00</time></trkpt><trkpt lat="44.486111" lon="34.157627"><ele>61.5</ele><time>2011-10-13T11:13:17.0000000+00:00</time></trkpt><trkpt lat="44.486073" lon="34.157589"><ele>65.9</ele><time>2011-10-13T11:13:22.0000000+00:00</time></trkpt><trkpt lat="44.486069" lon="34.157513"><ele>68.7</ele><time>2011-10-13T11:13:27.0000000+00:00</time></trkpt><trkpt lat="44.486023" lon="34.157551"><ele>71.9</ele><time>2011-10-13T11:13:32.0000000+00:00</time></trkpt><trkpt lat="44.485901" lon="34.157597"><ele>73.3</ele><time>2011-10-13T11:13:37.0000000+00:00</time></trkpt><trkpt lat="44.485725" lon="34.157677"><ele>74.2</ele><time>2011-10-13T11:13:42.0000000+00:00</time></trkpt><trkpt lat="44.485573" lon="34.157654"><ele>79.1</ele><time>2011-10-13T11:13:47.0000000+00:00</time></trkpt><trkpt lat="44.485485" lon="34.1576"><ele>83.9</ele><time>2011-10-13T11:13:52.0000000+00:00</time></trkpt><trkpt lat="44.485344" lon="34.157623"><ele>88.3</ele><time>2011-10-13T11:13:57.0000000+00:00</time></trkpt><trkpt lat="44.485188" lon="34.157654"><ele>92.7</ele><time>2011-10-13T11:14:02.0000000+00:00</time></trkpt><trkpt lat="44.485031" lon="34.157635"><ele>96.9</ele><time>2011-10-13T11:14:07.0000000+00:00</time></trkpt><trkpt lat="44.484894" lon="34.157623"><ele>100.3</ele><time>2011-10-13T11:14:12.0000000+00:00</time></trkpt><trkpt lat="44.484825" lon="34.157528"><ele>104.1</ele><time>2011-10-13T11:14:17.0000000+00:00</time></trkpt><trkpt lat="44.484825" lon="34.157413"><ele>108.9</ele><time>2011-10-13T11:14:22.0000000+00:00</time></trkpt><trkpt lat="44.484905" lon="34.1572"><ele>113.8</ele><time>2011-10-13T11:14:27.0000000+00:00</time></trkpt><trkpt lat="44.484955" lon="34.15704"><ele>118.5</ele><time>2011-10-13T11:14:32.0000000+00:00</time></trkpt><trkpt lat="44.484985" lon="34.156845"><ele>122.3</ele><time>2011-10-13T11:14:37.0000000+00:00</time></trkpt><trkpt lat="44.484821" lon="34.15683"><ele>126.4</ele><time>2011-10-13T11:14:42.0000000+00:00</time></trkpt><trkpt lat="44.484653" lon="34.156811"><ele>130.6</ele><time>2011-10-13T11:14:47.0000000+00:00</time></trkpt><trkpt lat="44.484497" lon="34.156857"><ele>133.1</ele><time>2011-10-13T11:14:52.0000000+00:00</time></trkpt><trkpt lat="44.484383" lon="34.156826"><ele>135.7</ele><time>2011-10-13T11:14:57.0000000+00:00</time></trkpt><trkpt lat="44.484364" lon="34.156754"><ele>139.0</ele><time>2011-10-13T11:15:02.0000000+00:00</time></trkpt><trkpt lat="44.484329" lon="34.156681"><ele>141.3</ele><time>2011-10-13T11:15:07.0000000+00:00</time></trkpt><trkpt lat="44.484291" lon="34.156612"><ele>143.1</ele><time>2011-10-13T11:15:12.0000000+00:00</time></trkpt><trkpt lat="44.484337" lon="34.156464"><ele>145.6</ele><time>2011-10-13T11:15:17.0000000+00:00</time></trkpt><trkpt lat="44.48436" lon="34.156319"><ele>147.6</ele><time>2011-10-13T11:15:22.0000000+00:00</time></trkpt><trkpt lat="44.484299" lon="34.156212"><ele>149.4</ele><time>2011-10-13T11:15:27.0000000+00:00</time></trkpt><trkpt lat="44.484215" lon="34.156139"><ele>152.9</ele><time>2011-10-13T11:15:32.0000000+00:00</time></trkpt><trkpt lat="44.484016" lon="34.156185"><ele>155.6</ele><time>2011-10-13T11:15:37.0000000+00:00</time></trkpt><trkpt lat="44.483814" lon="34.156189"><ele>158.3</ele><time>2011-10-13T11:15:42.0000000+00:00</time></trkpt><trkpt lat="44.483627" lon="34.156242"><ele>158.0</ele><time>2011-10-13T11:15:47.0000000+00:00</time></trkpt><trkpt lat="44.483459" lon="34.1562"><ele>159.5</ele><time>2011-10-13T11:15:52.0000000+00:00</time></trkpt><trkpt lat="44.483311" lon="34.156178"><ele>161.1</ele><time>2011-10-13T11:15:57.0000000+00:00</time></trkpt><trkpt lat="44.483257" lon="34.156059"><ele>164.4</ele><time>2011-10-13T11:16:02.0000000+00:00</time></trkpt><trkpt lat="44.483158" lon="34.156059"><ele>167.9</ele><time>2011-10-13T11:16:07.0000000+00:00</time></trkpt><trkpt lat="44.483051" lon="34.156075"><ele>172.1</ele><time>2011-10-13T11:16:12.0000000+00:00</time></trkpt><trkpt lat="44.482979" lon="34.155987"><ele>172.6</ele><time>2011-10-13T11:16:17.0000000+00:00</time></trkpt><trkpt lat="44.48296" lon="34.155693"><ele>170.0</ele><time>2011-10-13T11:16:22.0000000+00:00</time></trkpt><trkpt lat="44.482925" lon="34.155556"><ele>170.0</ele><time>2011-10-13T11:16:27.0000000+00:00</time></trkpt><trkpt lat="44.482883" lon="34.155445"><ele>169.5</ele><time>2011-10-13T11:16:32.0000000+00:00</time></trkpt><trkpt lat="44.482841" lon="34.15527"><ele>172.7</ele><time>2011-10-13T11:16:37.0000000+00:00</time></trkpt><trkpt lat="44.482849" lon="34.155197"><ele>176.1</ele><time>2011-10-13T11:16:42.0000000+00:00</time></trkpt><trkpt lat="44.482841" lon="34.155128"><ele>178.2</ele><time>2011-10-13T11:16:47.0000000+00:00</time></trkpt><trkpt lat="44.482841" lon="34.155087"><ele>178.7</ele><time>2011-10-13T11:16:52.0000000+00:00</time></trkpt><trkpt lat="44.48283" lon="34.155029"><ele>178.4</ele><time>2011-10-13T11:16:57.0000000+00:00</time></trkpt><trkpt lat="44.482792" lon="34.155029"><ele>177.8</ele><time>2011-10-13T11:17:02.0000000+00:00</time></trkpt><trkpt lat="44.482788" lon="34.154995"><ele>177.7</ele><time>2011-10-13T11:17:07.0000000+00:00</time></trkpt><trkpt lat="44.48278" lon="34.154922"><ele>177.5</ele><time>2011-10-13T11:17:12.0000000+00:00</time></trkpt><trkpt lat="44.482807" lon="34.154606"><ele>173.1</ele><time>2011-10-13T11:17:17.0000000+00:00</time></trkpt><trkpt lat="44.482761" lon="34.154457"><ele>173.3</ele><time>2011-10-13T11:17:22.0000000+00:00</time></trkpt><trkpt lat="44.482719" lon="34.154285"><ele>169.8</ele><time>2011-10-13T11:17:27.0000000+00:00</time></trkpt><trkpt lat="44.482712" lon="34.15411"><ele>169.0</ele><time>2011-10-13T11:17:32.0000000+00:00</time></trkpt><trkpt lat="44.482674" lon="34.153961"><ele>170.9</ele><time>2011-10-13T11:17:37.0000000+00:00</time></trkpt><trkpt lat="44.482624" lon="34.153683"><ele>170.7</ele><time>2011-10-13T11:17:42.0000000+00:00</time></trkpt><trkpt lat="44.482399" lon="34.15353"><ele>169.8</ele><time>2011-10-13T11:17:47.0000000+00:00</time></trkpt><trkpt lat="44.482281" lon="34.15345"><ele>169.2</ele><time>2011-10-13T11:17:52.0000000+00:00</time></trkpt><trkpt lat="44.482098" lon="34.153416"><ele>168.6</ele><time>2011-10-13T11:17:57.0000000+00:00</time></trkpt><trkpt lat="44.481819" lon="34.153484"><ele>166.6</ele><time>2011-10-13T11:18:02.0000000+00:00</time></trkpt><trkpt lat="44.48167" lon="34.15345"><ele>165.4</ele><time>2011-10-13T11:18:07.0000000+00:00</time></trkpt><trkpt lat="44.481571" lon="34.153378"><ele>164.5</ele><time>2011-10-13T11:18:12.0000000+00:00</time></trkpt><trkpt lat="44.481518" lon="34.153294"><ele>163.5</ele><time>2011-10-13T11:18:17.0000000+00:00</time></trkpt><trkpt lat="44.481495" lon="34.153156"><ele>162.8</ele><time>2011-10-13T11:18:22.0000000+00:00</time></trkpt><trkpt lat="44.481441" lon="34.153076"><ele>161.0</ele><time>2011-10-13T11:18:27.0000000+00:00</time></trkpt><trkpt lat="44.481373" lon="34.153"><ele>162.3</ele><time>2011-10-13T11:18:32.0000000+00:00</time></trkpt><trkpt lat="44.481293" lon="34.152901"><ele>164.0</ele><time>2011-10-13T11:18:37.0000000+00:00</time></trkpt><trkpt lat="44.48122" lon="34.152828"><ele>164.9</ele><time>2011-10-13T11:18:42.0000000+00:00</time></trkpt><trkpt lat="44.481178" lon="34.152714"><ele>165.1</ele><time>2011-10-13T11:18:47.0000000+00:00</time></trkpt><trkpt lat="44.481129" lon="34.152603"><ele>167.8</ele><time>2011-10-13T11:18:52.0000000+00:00</time></trkpt><trkpt lat="44.481071" lon="34.152458"><ele>169.8</ele><time>2011-10-13T11:18:57.0000000+00:00</time></trkpt><trkpt lat="44.481026" lon="34.152325"><ele>171.0</ele><time>2011-10-13T11:19:02.0000000+00:00</time></trkpt><trkpt lat="44.480972" lon="34.152248"><ele>172.2</ele><time>2011-10-13T11:19:07.0000000+00:00</time></trkpt><trkpt lat="44.48093" lon="34.152172"><ele>173.1</ele><time>2011-10-13T11:19:12.0000000+00:00</time></trkpt><trkpt lat="44.480865" lon="34.152073"><ele>173.8</ele><time>2011-10-13T11:19:17.0000000+00:00</time></trkpt><trkpt lat="44.480808" lon="34.152023"><ele>173.2</ele><time>2011-10-13T11:19:22.0000000+00:00</time></trkpt><trkpt lat="44.480789" lon="34.15192"><ele>172.1</ele><time>2011-10-13T11:19:27.0000000+00:00</time></trkpt><trkpt lat="44.480709" lon="34.15189"><ele>173.9</ele><time>2011-10-13T11:19:32.0000000+00:00</time></trkpt><trkpt lat="44.480637" lon="34.151871"><ele>174.4</ele><time>2011-10-13T11:19:37.0000000+00:00</time></trkpt><trkpt lat="44.480595" lon="34.151779"><ele>175.3</ele><time>2011-10-13T11:19:42.0000000+00:00</time></trkpt><trkpt lat="44.480556" lon="34.151627"><ele>172.6</ele><time>2011-10-13T11:19:47.0000000+00:00</time></trkpt><trkpt lat="44.48053" lon="34.151497"><ele>170.4</ele><time>2011-10-13T11:19:52.0000000+00:00</time></trkpt><trkpt lat="44.480473" lon="34.151443"><ele>171.6</ele><time>2011-10-13T11:19:57.0000000+00:00</time></trkpt><trkpt lat="44.480419" lon="34.151329"><ele>172.8</ele><time>2011-10-13T11:20:02.0000000+00:00</time></trkpt><trkpt lat="44.480381" lon="34.151192"><ele>173.9</ele><time>2011-10-13T11:20:07.0000000+00:00</time></trkpt><trkpt lat="44.480419" lon="34.150944"><ele>174.2</ele><time>2011-10-13T11:20:12.0000000+00:00</time></trkpt><trkpt lat="44.480465" lon="34.150692"><ele>173.0</ele><time>2011-10-13T11:20:17.0000000+00:00</time></trkpt><trkpt lat="44.480469" lon="34.150497"><ele>173.1</ele><time>2011-10-13T11:20:22.0000000+00:00</time></trkpt><trkpt lat="44.480518" lon="34.150433"><ele>169.5</ele><time>2011-10-13T11:20:27.0000000+00:00</time></trkpt><trkpt lat="44.480419" lon="34.150269"><ele>174.1</ele><time>2011-10-13T11:20:32.0000000+00:00</time></trkpt><trkpt lat="44.480328" lon="34.150112"><ele>170.2</ele><time>2011-10-13T11:20:37.0000000+00:00</time></trkpt><trkpt lat="44.480297" lon="34.150085"><ele>168.2</ele><time>2011-10-13T11:20:42.0000000+00:00</time></trkpt><trkpt lat="44.480274" lon="34.150173"><ele>164.9</ele><time>2011-10-13T11:20:47.0000000+00:00</time></trkpt><trkpt lat="44.480236" lon="34.150215"><ele>159.2</ele><time>2011-10-13T11:20:52.0000000+00:00</time></trkpt><trkpt lat="44.480217" lon="34.150173"><ele>154.3</ele><time>2011-10-13T11:20:57.0000000+00:00</time></trkpt><trkpt lat="44.480164" lon="34.150211"><ele>149.6</ele><time>2011-10-13T11:21:02.0000000+00:00</time></trkpt><trkpt lat="44.480118" lon="34.150238"><ele>146.4</ele><time>2011-10-13T11:21:07.0000000+00:00</time></trkpt><trkpt lat="44.480061" lon="34.150303"><ele>145.4</ele><time>2011-10-13T11:21:12.0000000+00:00</time></trkpt><trkpt lat="44.47995" lon="34.150406"><ele>142.9</ele><time>2011-10-13T11:21:17.0000000+00:00</time></trkpt><trkpt lat="44.479866" lon="34.150486"><ele>141.5</ele><time>2011-10-13T11:21:22.0000000+00:00</time></trkpt><trkpt lat="44.479809" lon="34.150555"><ele>141.2</ele><time>2011-10-13T11:21:27.0000000+00:00</time></trkpt><trkpt lat="44.479774" lon="34.150616"><ele>141.0</ele><time>2011-10-13T11:21:32.0000000+00:00</time></trkpt><trkpt lat="44.479759" lon="34.150661"><ele>140.8</ele><time>2011-10-13T11:21:37.0000000+00:00</time></trkpt><trkpt lat="44.479755" lon="34.150688"><ele>139.9</ele><time>2011-10-13T11:21:42.0000000+00:00</time></trkpt><trkpt lat="44.479752" lon="34.150711"><ele>138.9</ele><time>2011-10-13T11:21:47.0000000+00:00</time></trkpt><trkpt lat="44.479748" lon="34.150726"><ele>139.1</ele><time>2011-10-13T11:21:52.0000000+00:00</time></trkpt><trkpt lat="44.479733" lon="34.150745"><ele>139.2</ele><time>2011-10-13T11:21:57.0000000+00:00</time></trkpt><trkpt lat="44.479637" lon="34.150803"><ele>139.4</ele><time>2011-10-13T11:22:02.0000000+00:00</time></trkpt><trkpt lat="44.479633" lon="34.150841"><ele>138.9</ele><time>2011-10-13T11:22:07.0000000+00:00</time></trkpt><trkpt lat="44.47966" lon="34.150845"><ele>138.0</ele><time>2011-10-13T11:22:12.0000000+00:00</time></trkpt><trkpt lat="44.479725" lon="34.150841"><ele>135.0</ele><time>2011-10-13T11:22:17.0000000+00:00</time></trkpt><trkpt lat="44.479805" lon="34.150715"><ele>133.2</ele><time>2011-10-13T11:22:22.0000000+00:00</time></trkpt><trkpt lat="44.4799" lon="34.150585"><ele>131.7</ele><time>2011-10-13T11:22:27.0000000+00:00</time></trkpt><trkpt lat="44.479973" lon="34.150471"><ele>131.8</ele><time>2011-10-13T11:22:32.0000000+00:00</time></trkpt><trkpt lat="44.480045" lon="34.150368"><ele>130.6</ele><time>2011-10-13T11:22:37.0000000+00:00</time></trkpt><trkpt lat="44.480148" lon="34.150284"><ele>131.5</ele><time>2011-10-13T11:22:42.0000000+00:00</time></trkpt><trkpt lat="44.480282" lon="34.150211"><ele>134.4</ele><time>2011-10-13T11:22:47.0000000+00:00</time></trkpt><trkpt lat="44.480419" lon="34.150146"><ele>135.9</ele><time>2011-10-13T11:22:52.0000000+00:00</time></trkpt><trkpt lat="44.480572" lon="34.150097"><ele>135.7</ele><time>2011-10-13T11:22:57.0000000+00:00</time></trkpt><trkpt lat="44.480701" lon="34.150021"><ele>137.6</ele><time>2011-10-13T11:23:02.0000000+00:00</time></trkpt><trkpt lat="44.480785" lon="34.149986"><ele>140.2</ele><time>2011-10-13T11:23:07.0000000+00:00</time></trkpt><trkpt lat="44.480858" lon="34.149986"><ele>142.9</ele><time>2011-10-13T11:23:12.0000000+00:00</time></trkpt><trkpt lat="44.480923" lon="34.150009"><ele>146.7</ele><time>2011-10-13T11:23:17.0000000+00:00</time></trkpt><trkpt lat="44.481045" lon="34.150085"><ele>146.6</ele><time>2011-10-13T11:23:22.0000000+00:00</time></trkpt><trkpt lat="44.481155" lon="34.150204"><ele>146.2</ele><time>2011-10-13T11:23:27.0000000+00:00</time></trkpt><trkpt lat="44.481243" lon="34.150322"><ele>148.3</ele><time>2011-10-13T11:23:32.0000000+00:00</time></trkpt><trkpt lat="44.481304" lon="34.150406"><ele>150.5</ele><time>2011-10-13T11:23:37.0000000+00:00</time></trkpt><trkpt lat="44.481377" lon="34.150471"><ele>152.2</ele><time>2011-10-13T11:23:42.0000000+00:00</time></trkpt><trkpt lat="44.481449" lon="34.150589"><ele>153.0</ele><time>2011-10-13T11:23:47.0000000+00:00</time></trkpt><trkpt lat="44.481625" lon="34.150734"><ele>151.7</ele><time>2011-10-13T11:23:52.0000000+00:00</time></trkpt><trkpt lat="44.481838" lon="34.150928"><ele>149.2</ele><time>2011-10-13T11:23:57.0000000+00:00</time></trkpt><trkpt lat="44.481979" lon="34.151066"><ele>148.2</ele><time>2011-10-13T11:24:02.0000000+00:00</time></trkpt><trkpt lat="44.482159" lon="34.151241"><ele>147.3</ele><time>2011-10-13T11:24:07.0000000+00:00</time></trkpt><trkpt lat="44.482296" lon="34.15136"><ele>147.5</ele><time>2011-10-13T11:24:12.0000000+00:00</time></trkpt><trkpt lat="44.48246" lon="34.151451"><ele>144.8</ele><time>2011-10-13T11:24:17.0000000+00:00</time></trkpt><trkpt lat="44.482651" lon="34.151508"><ele>139.0</ele><time>2011-10-13T11:24:22.0000000+00:00</time></trkpt><trkpt lat="44.482803" lon="34.151512"><ele>134.8</ele><time>2011-10-13T11:24:27.0000000+00:00</time></trkpt><trkpt lat="44.482918" lon="34.15147"><ele>131.1</ele><time>2011-10-13T11:24:32.0000000+00:00</time></trkpt><trkpt lat="44.483006" lon="34.151413"><ele>129.5</ele><time>2011-10-13T11:24:37.0000000+00:00</time></trkpt><trkpt lat="44.483009" lon="34.151363"><ele>130.7</ele><time>2011-10-13T11:24:42.0000000+00:00</time></trkpt><trkpt lat="44.482986" lon="34.151321"><ele>132.7</ele><time>2011-10-13T11:24:47.0000000+00:00</time></trkpt><trkpt lat="44.482952" lon="34.151299"><ele>134.1</ele><time>2011-10-13T11:24:52.0000000+00:00</time></trkpt><trkpt lat="44.482903" lon="34.151253"><ele>136.8</ele><time>2011-10-13T11:24:57.0000000+00:00</time></trkpt><trkpt lat="44.482899" lon="34.151276"><ele>137.8</ele><time>2011-10-13T11:25:02.0000000+00:00</time></trkpt><trkpt lat="44.48288" lon="34.151192"><ele>141.0</ele><time>2011-10-13T11:25:07.0000000+00:00</time></trkpt><trkpt lat="44.482826" lon="34.151112"><ele>145.4</ele><time>2011-10-13T11:25:12.0000000+00:00</time></trkpt><trkpt lat="44.482769" lon="34.151058"><ele>150.4</ele><time>2011-10-13T11:25:17.0000000+00:00</time></trkpt><trkpt lat="44.482677" lon="34.151028"><ele>155.9</ele><time>2011-10-13T11:25:22.0000000+00:00</time></trkpt><trkpt lat="44.482616" lon="34.150944"><ele>161.9</ele><time>2011-10-13T11:25:27.0000000+00:00</time></trkpt><trkpt lat="44.482552" lon="34.150784"><ele>167.2</ele><time>2011-10-13T11:25:32.0000000+00:00</time></trkpt><trkpt lat="44.482513" lon="34.150578"><ele>171.3</ele><time>2011-10-13T11:25:37.0000000+00:00</time></trkpt><trkpt lat="44.48246" lon="34.150421"><ele>174.7</ele><time>2011-10-13T11:25:42.0000000+00:00</time></trkpt><trkpt lat="44.482399" lon="34.150303"><ele>178.4</ele><time>2011-10-13T11:25:47.0000000+00:00</time></trkpt><trkpt lat="44.482323" lon="34.150211"><ele>182.4</ele><time>2011-10-13T11:25:52.0000000+00:00</time></trkpt><trkpt lat="44.482246" lon="34.150124"><ele>186.9</ele><time>2011-10-13T11:25:57.0000000+00:00</time></trkpt><trkpt lat="44.482178" lon="34.150021"><ele>191.2</ele><time>2011-10-13T11:26:02.0000000+00:00</time></trkpt><trkpt lat="44.48209" lon="34.149967"><ele>195.5</ele><time>2011-10-13T11:26:07.0000000+00:00</time></trkpt><trkpt lat="44.48201" lon="34.149899"><ele>198.4</ele><time>2011-10-13T11:26:12.0000000+00:00</time></trkpt><trkpt lat="44.481937" lon="34.149807"><ele>202.1</ele><time>2011-10-13T11:26:17.0000000+00:00</time></trkpt><trkpt lat="44.481865" lon="34.149715"><ele>205.9</ele><time>2011-10-13T11:26:22.0000000+00:00</time></trkpt><trkpt lat="44.481773" lon="34.149666"><ele>209.5</ele><time>2011-10-13T11:26:27.0000000+00:00</time></trkpt><trkpt lat="44.481663" lon="34.149593"><ele>211.7</ele><time>2011-10-13T11:26:32.0000000+00:00</time></trkpt><trkpt lat="44.481583" lon="34.149517"><ele>213.7</ele><time>2011-10-13T11:26:37.0000000+00:00</time></trkpt><trkpt lat="44.481499" lon="34.14946"><ele>216.1</ele><time>2011-10-13T11:26:42.0000000+00:00</time></trkpt><trkpt lat="44.481422" lon="34.149376"><ele>219.2</ele><time>2011-10-13T11:26:47.0000000+00:00</time></trkpt><trkpt lat="44.48135" lon="34.149311"><ele>222.6</ele><time>2011-10-13T11:26:52.0000000+00:00</time></trkpt><trkpt lat="44.481266" lon="34.149265"><ele>226.0</ele><time>2011-10-13T11:26:57.0000000+00:00</time></trkpt><trkpt lat="44.481197" lon="34.149189"><ele>229.1</ele><time>2011-10-13T11:27:02.0000000+00:00</time></trkpt><trkpt lat="44.481075" lon="34.149189"><ele>232.8</ele><time>2011-10-13T11:27:07.0000000+00:00</time></trkpt><trkpt lat="44.480953" lon="34.149136"><ele>236.1</ele><time>2011-10-13T11:27:12.0000000+00:00</time></trkpt><trkpt lat="44.480824" lon="34.149063"><ele>240.9</ele><time>2011-10-13T11:27:17.0000000+00:00</time></trkpt><trkpt lat="44.480751" lon="34.148926"><ele>244.2</ele><time>2011-10-13T11:27:22.0000000+00:00</time></trkpt><trkpt lat="44.480648" lon="34.148861"><ele>245.0</ele><time>2011-10-13T11:27:27.0000000+00:00</time></trkpt><trkpt lat="44.480572" lon="34.148804"><ele>245.7</ele><time>2011-10-13T11:27:32.0000000+00:00</time></trkpt><trkpt lat="44.480484" lon="34.148735"><ele>247.2</ele><time>2011-10-13T11:27:37.0000000+00:00</time></trkpt><trkpt lat="44.480427" lon="34.148586"><ele>247.4</ele><time>2011-10-13T11:27:42.0000000+00:00</time></trkpt><trkpt lat="44.480358" lon="34.148483"><ele>250.1</ele><time>2011-10-13T11:27:47.0000000+00:00</time></trkpt><trkpt lat="44.48027" lon="34.148422"><ele>253.7</ele><time>2011-10-13T11:27:52.0000000+00:00</time></trkpt><trkpt lat="44.480198" lon="34.148369"><ele>256.2</ele><time>2011-10-13T11:27:57.0000000+00:00</time></trkpt><trkpt lat="44.480125" lon="34.148281"><ele>258.8</ele><time>2011-10-13T11:28:02.0000000+00:00</time></trkpt><trkpt lat="44.480042" lon="34.148209"><ele>263.3</ele><time>2011-10-13T11:28:07.0000000+00:00</time></trkpt><trkpt lat="44.479961" lon="34.148056"><ele>266.3</ele><time>2011-10-13T11:28:12.0000000+00:00</time></trkpt><trkpt lat="44.479912" lon="34.147907"><ele>269.3</ele><time>2011-10-13T11:28:17.0000000+00:00</time></trkpt><trkpt lat="44.479866" lon="34.147774"><ele>273.0</ele><time>2011-10-13T11:28:22.0000000+00:00</time></trkpt><trkpt lat="44.479786" lon="34.147644"><ele>276.6</ele><time>2011-10-13T11:28:27.0000000+00:00</time></trkpt><trkpt lat="44.479725" lon="34.147533"><ele>278.1</ele><time>2011-10-13T11:28:32.0000000+00:00</time></trkpt><trkpt lat="44.479656" lon="34.147404"><ele>280.7</ele><time>2011-10-13T11:28:37.0000000+00:00</time></trkpt><trkpt lat="44.479622" lon="34.147221"><ele>283.3</ele><time>2011-10-13T11:28:42.0000000+00:00</time></trkpt><trkpt lat="44.479584" lon="34.147038"><ele>284.7</ele><time>2011-10-13T11:28:47.0000000+00:00</time></trkpt><trkpt lat="44.47953" lon="34.146935"><ele>287.1</ele><time>2011-10-13T11:28:52.0000000+00:00</time></trkpt><trkpt lat="44.479465" lon="34.146809"><ele>288.8</ele><time>2011-10-13T11:28:57.0000000+00:00</time></trkpt><trkpt lat="44.479408" lon="34.146709"><ele>290.7</ele><time>2011-10-13T11:29:02.0000000+00:00</time></trkpt><trkpt lat="44.479385" lon="34.146564"><ele>293.1</ele><time>2011-10-13T11:29:07.0000000+00:00</time></trkpt><trkpt lat="44.479343" lon="34.146416"><ele>295.9</ele><time>2011-10-13T11:29:12.0000000+00:00</time></trkpt><trkpt lat="44.479313" lon="34.14624"><ele>297.9</ele><time>2011-10-13T11:29:17.0000000+00:00</time></trkpt><trkpt lat="44.479229" lon="34.146114"><ele>298.8</ele><time>2011-10-13T11:29:22.0000000+00:00</time></trkpt><trkpt lat="44.47916" lon="34.145977"><ele>298.6</ele><time>2011-10-13T11:29:27.0000000+00:00</time></trkpt><trkpt lat="44.479076" lon="34.145847"><ele>298.8</ele><time>2011-10-13T11:29:32.0000000+00:00</time></trkpt><trkpt lat="44.478981" lon="34.14579"><ele>300.0</ele><time>2011-10-13T11:29:37.0000000+00:00</time></trkpt><trkpt lat="44.478874" lon="34.145641"><ele>300.7</ele><time>2011-10-13T11:29:42.0000000+00:00</time></trkpt><trkpt lat="44.478825" lon="34.1455"><ele>302.2</ele><time>2011-10-13T11:29:47.0000000+00:00</time></trkpt><trkpt lat="44.478737" lon="34.145424"><ele>303.6</ele><time>2011-10-13T11:29:52.0000000+00:00</time></trkpt><trkpt lat="44.478676" lon="34.145283"><ele>306.2</ele><time>2011-10-13T11:29:57.0000000+00:00</time></trkpt><trkpt lat="44.478558" lon="34.14526"><ele>308.7</ele><time>2011-10-13T11:30:02.0000000+00:00</time></trkpt><trkpt lat="44.47847" lon="34.145153"><ele>311.8</ele><time>2011-10-13T11:30:07.0000000+00:00</time></trkpt><trkpt lat="44.478458" lon="34.145153"><ele>309.0</ele><time>2011-10-13T11:30:12.0000000+00:00</time></trkpt><trkpt lat="44.478252" lon="34.145374"><ele>309.2</ele><time>2011-10-13T11:30:17.0000000+00:00</time></trkpt><trkpt lat="44.478218" lon="34.145321"><ele>307.9</ele><time>2011-10-13T11:30:22.0000000+00:00</time></trkpt><trkpt lat="44.478153" lon="34.14521"><ele>299.6</ele><time>2011-10-13T11:30:27.0000000+00:00</time></trkpt><trkpt lat="44.478146" lon="34.14513"><ele>297.2</ele><time>2011-10-13T11:30:32.0000000+00:00</time></trkpt><trkpt lat="44.478149" lon="34.144962"><ele>289.7</ele><time>2011-10-13T11:30:37.0000000+00:00</time></trkpt><trkpt lat="44.478142" lon="34.144947"><ele>288.0</ele><time>2011-10-13T11:30:42.0000000+00:00</time></trkpt><trkpt lat="44.478138" lon="34.144936"><ele>286.3</ele><time>2011-10-13T11:30:47.0000000+00:00</time></trkpt><trkpt lat="44.478134" lon="34.144917"><ele>284.0</ele><time>2011-10-13T11:30:52.0000000+00:00</time></trkpt><trkpt lat="44.478134" lon="34.14489"><ele>281.9</ele><time>2011-10-13T11:30:57.0000000+00:00</time></trkpt><trkpt lat="44.478138" lon="34.144871"><ele>280.3</ele><time>2011-10-13T11:31:02.0000000+00:00</time></trkpt><trkpt lat="44.478149" lon="34.144825"><ele>278.3</ele><time>2011-10-13T11:31:07.0000000+00:00</time></trkpt><trkpt lat="44.478149" lon="34.144833"><ele>278.6</ele><time>2011-10-13T11:31:12.0000000+00:00</time></trkpt><trkpt lat="44.478146" lon="34.144848"><ele>278.8</ele><time>2011-10-13T11:31:17.0000000+00:00</time></trkpt><trkpt lat="44.478146" lon="34.144859"><ele>279.1</ele><time>2011-10-13T11:31:22.0000000+00:00</time></trkpt><trkpt lat="44.478142" lon="34.144855"><ele>278.6</ele><time>2011-10-13T11:31:27.0000000+00:00</time></trkpt><trkpt lat="44.478146" lon="34.144833"><ele>277.1</ele><time>2011-10-13T11:31:32.0000000+00:00</time></trkpt><trkpt lat="44.478165" lon="34.144772"><ele>274.4</ele><time>2011-10-13T11:31:37.0000000+00:00</time></trkpt><trkpt lat="44.47818" lon="34.144745"><ele>273.4</ele><time>2011-10-13T11:31:42.0000000+00:00</time></trkpt><trkpt lat="44.478172" lon="34.144756"><ele>273.3</ele><time>2011-10-13T11:31:47.0000000+00:00</time></trkpt><trkpt lat="44.478172" lon="34.14476"><ele>273.1</ele><time>2011-10-13T11:31:52.0000000+00:00</time></trkpt><trkpt lat="44.478176" lon="34.144749"><ele>273.0</ele><time>2011-10-13T11:31:57.0000000+00:00</time></trkpt><trkpt lat="44.478195" lon="34.144695"><ele>272.5</ele><time>2011-10-13T11:32:02.0000000+00:00</time></trkpt><trkpt lat="44.478249" lon="34.144527"><ele>270.8</ele><time>2011-10-13T11:32:07.0000000+00:00</time></trkpt><trkpt lat="44.478279" lon="34.144241"><ele>269.3</ele><time>2011-10-13T11:32:12.0000000+00:00</time></trkpt><trkpt lat="44.478367" lon="34.14394"><ele>266.5</ele><time>2011-10-13T11:32:17.0000000+00:00</time></trkpt><trkpt lat="44.478363" lon="34.143887"><ele>265.1</ele><time>2011-10-13T11:32:22.0000000+00:00</time></trkpt><trkpt lat="44.478371" lon="34.143864"><ele>264.2</ele><time>2011-10-13T11:32:27.0000000+00:00</time></trkpt><trkpt lat="44.478371" lon="34.14386"><ele>264.0</ele><time>2011-10-13T11:32:32.0000000+00:00</time></trkpt><trkpt lat="44.47821" lon="34.143684"><ele>263.1</ele><time>2011-10-13T11:32:37.0000000+00:00</time></trkpt><trkpt lat="44.478054" lon="34.143559"><ele>264.2</ele><time>2011-10-13T11:32:42.0000000+00:00</time></trkpt><trkpt lat="44.477818" lon="34.143532"><ele>266.4</ele><time>2011-10-13T11:32:47.0000000+00:00</time></trkpt><trkpt lat="44.477566" lon="34.143616"><ele>270.3</ele><time>2011-10-13T11:32:52.0000000+00:00</time></trkpt><trkpt lat="44.477379" lon="34.143646"><ele>274.7</ele><time>2011-10-13T11:32:57.0000000+00:00</time></trkpt><trkpt lat="44.477158" lon="34.143646"><ele>278.2</ele><time>2011-10-13T11:33:02.0000000+00:00</time></trkpt><trkpt lat="44.476841" lon="34.1437"><ele>282.2</ele><time>2011-10-13T11:33:07.0000000+00:00</time></trkpt><trkpt lat="44.476448" lon="34.143845"><ele>285.3</ele><time>2011-10-13T11:33:12.0000000+00:00</time></trkpt><trkpt lat="44.476173" lon="34.144077"><ele>289.6</ele><time>2011-10-13T11:33:17.0000000+00:00</time></trkpt><trkpt lat="44.476128" lon="34.144073"><ele>294.7</ele><time>2011-10-13T11:33:22.0000000+00:00</time></trkpt><trkpt lat="44.476208" lon="34.143986"><ele>298.7</ele><time>2011-10-13T11:33:27.0000000+00:00</time></trkpt><trkpt lat="44.476284" lon="34.144058"><ele>303.6</ele><time>2011-10-13T11:33:32.0000000+00:00</time></trkpt><trkpt lat="44.476334" lon="34.143997"><ele>312.0</ele><time>2011-10-13T11:33:37.0000000+00:00</time></trkpt><trkpt lat="44.47644" lon="34.143894"><ele>320.3</ele><time>2011-10-13T11:33:42.0000000+00:00</time></trkpt><trkpt lat="44.476368" lon="34.143784"><ele>309.8</ele><time>2011-10-13T11:33:47.0000000+00:00</time></trkpt><trkpt lat="44.476337" lon="34.143559"><ele>312.0</ele><time>2011-10-13T11:33:52.0000000+00:00</time></trkpt><trkpt lat="44.476295" lon="34.143353"><ele>315.2</ele><time>2011-10-13T11:33:57.0000000+00:00</time></trkpt><trkpt lat="44.476273" lon="34.143326"><ele>319.9</ele><time>2011-10-13T11:34:02.0000000+00:00</time></trkpt><trkpt lat="44.476124" lon="34.142838"><ele>321.4</ele><time>2011-10-13T11:34:07.0000000+00:00</time></trkpt><trkpt lat="44.476559" lon="34.142357"><ele>322.0</ele><time>2011-10-13T11:34:12.0000000+00:00</time></trkpt><trkpt lat="44.476807" lon="34.141891"><ele>323.3</ele><time>2011-10-13T11:34:17.0000000+00:00</time></trkpt><trkpt lat="44.476997" lon="34.141499"><ele>314.0</ele><time>2011-10-13T11:34:22.0000000+00:00</time></trkpt><trkpt lat="44.476997" lon="34.141441"><ele>317.1</ele><time>2011-10-13T11:34:27.0000000+00:00</time></trkpt><trkpt lat="44.476883" lon="34.141613"><ele>321.6</ele><time>2011-10-13T11:34:32.0000000+00:00</time></trkpt><trkpt lat="44.476715" lon="34.141808"><ele>326.6</ele><time>2011-10-13T11:34:37.0000000+00:00</time></trkpt><trkpt lat="44.476421" lon="34.142117"><ele>332.1</ele><time>2011-10-13T11:34:42.0000000+00:00</time></trkpt><trkpt lat="44.476227" lon="34.142178"><ele>337.4</ele><time>2011-10-13T11:34:47.0000000+00:00</time></trkpt><trkpt lat="44.476051" lon="34.142372"><ele>343.6</ele><time>2011-10-13T11:34:52.0000000+00:00</time></trkpt><trkpt lat="44.475777" lon="34.142384"><ele>348.5</ele><time>2011-10-13T11:34:57.0000000+00:00</time></trkpt><trkpt lat="44.47551" lon="34.142548"><ele>353.9</ele><time>2011-10-13T11:35:02.0000000+00:00</time></trkpt><trkpt lat="44.475246" lon="34.142654"><ele>360.3</ele><time>2011-10-13T11:35:07.0000000+00:00</time></trkpt><trkpt lat="44.475063" lon="34.14278"><ele>365.2</ele><time>2011-10-13T11:35:12.0000000+00:00</time></trkpt><trkpt lat="44.474976" lon="34.14286"><ele>370.6</ele><time>2011-10-13T11:35:17.0000000+00:00</time></trkpt><trkpt lat="44.474777" lon="34.143032"><ele>377.0</ele><time>2011-10-13T11:35:22.0000000+00:00</time></trkpt><trkpt lat="44.474594" lon="34.14299"><ele>381.9</ele><time>2011-10-13T11:35:27.0000000+00:00</time></trkpt><trkpt lat="44.474365" lon="34.143017"><ele>387.9</ele><time>2011-10-13T11:35:32.0000000+00:00</time></trkpt><trkpt lat="44.474194" lon="34.142963"><ele>394.1</ele><time>2011-10-13T11:35:37.0000000+00:00</time></trkpt><trkpt lat="44.474079" lon="34.142895"><ele>399.1</ele><time>2011-10-13T11:35:42.0000000+00:00</time></trkpt><trkpt lat="44.474041" lon="34.142757"><ele>402.2</ele><time>2011-10-13T11:35:47.0000000+00:00</time></trkpt><trkpt lat="44.474098" lon="34.142426"><ele>405.8</ele><time>2011-10-13T11:35:52.0000000+00:00</time></trkpt><trkpt lat="44.47403" lon="34.142258"><ele>410.6</ele><time>2011-10-13T11:35:57.0000000+00:00</time></trkpt><trkpt lat="44.473969" lon="34.142197"><ele>415.9</ele><time>2011-10-13T11:36:02.0000000+00:00</time></trkpt><trkpt lat="44.473877" lon="34.142227"><ele>421.1</ele><time>2011-10-13T11:36:07.0000000+00:00</time></trkpt><trkpt lat="44.473785" lon="34.142105"><ele>425.7</ele><time>2011-10-13T11:36:12.0000000+00:00</time></trkpt><trkpt lat="44.473732" lon="34.14193"><ele>428.7</ele><time>2011-10-13T11:36:17.0000000+00:00</time></trkpt><trkpt lat="44.473564" lon="34.141701"><ele>431.4</ele><time>2011-10-13T11:36:22.0000000+00:00</time></trkpt><trkpt lat="44.473484" lon="34.141613"><ele>433.7</ele><time>2011-10-13T11:36:27.0000000+00:00</time></trkpt><trkpt lat="44.4734" lon="34.141552"><ele>436.5</ele><time>2011-10-13T11:36:32.0000000+00:00</time></trkpt><trkpt lat="44.473213" lon="34.141567"><ele>439.7</ele><time>2011-10-13T11:36:37.0000000+00:00</time></trkpt><trkpt lat="44.473114" lon="34.141495"><ele>442.2</ele><time>2011-10-13T11:36:42.0000000+00:00</time></trkpt><trkpt lat="44.473" lon="34.141357"><ele>442.8</ele><time>2011-10-13T11:36:47.0000000+00:00</time></trkpt><trkpt lat="44.473015" lon="34.141075"><ele>443.7</ele><time>2011-10-13T11:36:52.0000000+00:00</time></trkpt><trkpt lat="44.473137" lon="34.140736"><ele>443.4</ele><time>2011-10-13T11:36:57.0000000+00:00</time></trkpt><trkpt lat="44.473206" lon="34.140499"><ele>443.7</ele><time>2011-10-13T11:37:02.0000000+00:00</time></trkpt><trkpt lat="44.473186" lon="34.140343"><ele>444.4</ele><time>2011-10-13T11:37:07.0000000+00:00</time></trkpt><trkpt lat="44.473213" lon="34.140263"><ele>445.3</ele><time>2011-10-13T11:37:12.0000000+00:00</time></trkpt><trkpt lat="44.473267" lon="34.140163"><ele>446.4</ele><time>2011-10-13T11:37:17.0000000+00:00</time></trkpt><trkpt lat="44.473232" lon="34.140087"><ele>447.7</ele><time>2011-10-13T11:37:22.0000000+00:00</time></trkpt><trkpt lat="44.472984" lon="34.140102"><ele>449.2</ele><time>2011-10-13T11:37:27.0000000+00:00</time></trkpt><trkpt lat="44.472923" lon="34.140022"><ele>451.3</ele><time>2011-10-13T11:37:32.0000000+00:00</time></trkpt><trkpt lat="44.472885" lon="34.139988"><ele>452.7</ele><time>2011-10-13T11:37:37.0000000+00:00</time></trkpt><trkpt lat="44.472858" lon="34.13998"><ele>452.9</ele><time>2011-10-13T11:37:42.0000000+00:00</time></trkpt><trkpt lat="44.472801" lon="34.139999"><ele>452.8</ele><time>2011-10-13T11:37:47.0000000+00:00</time></trkpt><trkpt lat="44.472775" lon="34.139988"><ele>452.6</ele><time>2011-10-13T11:37:52.0000000+00:00</time></trkpt><trkpt lat="44.472748" lon="34.139999"><ele>452.5</ele><time>2011-10-13T11:37:57.0000000+00:00</time></trkpt><trkpt lat="44.47271" lon="34.140034"><ele>452.4</ele><time>2011-10-13T11:38:02.0000000+00:00</time></trkpt><trkpt lat="44.472683" lon="34.140034"><ele>452.3</ele><time>2011-10-13T11:38:07.0000000+00:00</time></trkpt><trkpt lat="44.472637" lon="34.140049"><ele>452.0</ele><time>2011-10-13T11:38:12.0000000+00:00</time></trkpt><trkpt lat="44.472557" lon="34.140102"><ele>451.8</ele><time>2011-10-13T11:38:17.0000000+00:00</time></trkpt><trkpt lat="44.472492" lon="34.140148"><ele>451.0</ele><time>2011-10-13T11:38:22.0000000+00:00</time></trkpt><trkpt lat="44.472435" lon="34.140171"><ele>450.3</ele><time>2011-10-13T11:38:27.0000000+00:00</time></trkpt><trkpt lat="44.472404" lon="34.140194"><ele>449.5</ele><time>2011-10-13T11:38:32.0000000+00:00</time></trkpt><trkpt lat="44.472355" lon="34.140255"><ele>448.9</ele><time>2011-10-13T11:38:37.0000000+00:00</time></trkpt><trkpt lat="44.472321" lon="34.140289"><ele>448.3</ele><time>2011-10-13T11:38:42.0000000+00:00</time></trkpt><trkpt lat="44.472324" lon="34.140217"><ele>447.1</ele><time>2011-10-13T11:38:47.0000000+00:00</time></trkpt><trkpt lat="44.471966" lon="34.140797"><ele>439.2</ele><time>2011-10-13T11:38:52.0000000+00:00</time></trkpt><trkpt lat="44.473171" lon="34.138779"><ele>433.7</ele><time>2011-10-13T11:38:57.0000000+00:00</time></trkpt><trkpt lat="44.472919" lon="34.138939"><ele>433.5</ele><time>2011-10-13T11:39:02.0000000+00:00</time></trkpt><trkpt lat="44.472881" lon="34.139111"><ele>433.5</ele><time>2011-10-13T11:39:07.0000000+00:00</time></trkpt><trkpt lat="44.472713" lon="34.13932"><ele>433.6</ele><time>2011-10-13T11:39:12.0000000+00:00</time></trkpt><trkpt lat="44.47271" lon="34.139484"><ele>432.9</ele><time>2011-10-13T11:39:17.0000000+00:00</time></trkpt><trkpt lat="44.472588" lon="34.139641"><ele>432.4</ele><time>2011-10-13T11:39:22.0000000+00:00</time></trkpt><trkpt lat="44.472546" lon="34.139805"><ele>432.0</ele><time>2011-10-13T11:39:27.0000000+00:00</time></trkpt><trkpt lat="44.472488" lon="34.139904"><ele>431.7</ele><time>2011-10-13T11:39:32.0000000+00:00</time></trkpt><trkpt lat="44.47242" lon="34.139938"><ele>432.4</ele><time>2011-10-13T11:39:37.0000000+00:00</time></trkpt><trkpt lat="44.472298" lon="34.140072"><ele>431.5</ele><time>2011-10-13T11:39:42.0000000+00:00</time></trkpt><trkpt lat="44.470066" lon="34.143551"><ele>452.8</ele><time>2011-10-13T11:39:47.0000000+00:00</time></trkpt><trkpt lat="44.470058" lon="34.143551"><ele>452.7</ele><time>2011-10-13T11:39:52.0000000+00:00</time></trkpt><trkpt lat="44.46981" lon="34.143559"><ele>446.2</ele><time>2011-10-13T11:39:57.0000000+00:00</time></trkpt><trkpt lat="44.469727" lon="34.143581"><ele>443.1</ele><time>2011-10-13T11:40:02.0000000+00:00</time></trkpt><trkpt lat="44.46973" lon="34.143585"><ele>443.7</ele><time>2011-10-13T11:40:07.0000000+00:00</time></trkpt><trkpt lat="44.46973" lon="34.143593"><ele>442.8</ele><time>2011-10-13T11:40:12.0000000+00:00</time></trkpt><trkpt lat="44.469715" lon="34.143574"><ele>442.2</ele><time>2011-10-13T11:40:17.0000000+00:00</time></trkpt><trkpt lat="44.469669" lon="34.143536"><ele>436.4</ele><time>2011-10-13T11:40:22.0000000+00:00</time></trkpt><trkpt lat="44.469589" lon="34.143528"><ele>428.1</ele><time>2011-10-13T11:40:27.0000000+00:00</time></trkpt><trkpt lat="44.469444" lon="34.143551"><ele>406.2</ele><time>2011-10-13T11:40:32.0000000+00:00</time></trkpt><trkpt lat="44.469379" lon="34.143562"><ele>399.1</ele><time>2011-10-13T11:40:37.0000000+00:00</time></trkpt><trkpt lat="44.469322" lon="34.143562"><ele>391.6</ele><time>2011-10-13T11:40:42.0000000+00:00</time></trkpt><trkpt lat="44.469254" lon="34.143509"><ele>387.6</ele><time>2011-10-13T11:40:47.0000000+00:00</time></trkpt><trkpt lat="44.468964" lon="34.143543"><ele>368.1</ele><time>2011-10-13T11:40:52.0000000+00:00</time></trkpt><trkpt lat="44.468933" lon="34.143578"><ele>351.3</ele><time>2011-10-13T11:40:57.0000000+00:00</time></trkpt><trkpt lat="44.468861" lon="34.1436"><ele>328.4</ele><time>2011-10-13T11:41:02.0000000+00:00</time></trkpt><trkpt lat="44.468826" lon="34.143616"><ele>312.1</ele><time>2011-10-13T11:41:07.0000000+00:00</time></trkpt><trkpt lat="44.468796" lon="34.143623"><ele>302.6</ele><time>2011-10-13T11:41:12.0000000+00:00</time></trkpt><trkpt lat="44.468769" lon="34.143654"><ele>296.6</ele><time>2011-10-13T11:41:17.0000000+00:00</time></trkpt><trkpt lat="44.468754" lon="34.143677"><ele>294.1</ele><time>2011-10-13T11:41:22.0000000+00:00</time></trkpt><trkpt lat="44.46875" lon="34.143707"><ele>292.7</ele><time>2011-10-13T11:41:27.0000000+00:00</time></trkpt><trkpt lat="44.468731" lon="34.143745"><ele>291.1</ele><time>2011-10-13T11:41:32.0000000+00:00</time></trkpt><trkpt lat="44.468697" lon="34.143677"><ele>288.0</ele><time>2011-10-13T11:41:37.0000000+00:00</time></trkpt><trkpt lat="44.468681" lon="34.143677"><ele>286.0</ele><time>2011-10-13T11:41:42.0000000+00:00</time></trkpt><trkpt lat="44.468639" lon="34.143692"><ele>281.9</ele><time>2011-10-13T11:41:47.0000000+00:00</time></trkpt><trkpt lat="44.468647" lon="34.143646"><ele>280.6</ele><time>2011-10-13T11:41:52.0000000+00:00</time></trkpt><trkpt lat="44.468658" lon="34.143673"><ele>279.6</ele><time>2011-10-13T11:41:57.0000000+00:00</time></trkpt><trkpt lat="44.468624" lon="34.143764"><ele>279.1</ele><time>2011-10-13T11:42:02.0000000+00:00</time></trkpt><trkpt lat="44.468575" lon="34.143837"><ele>279.2</ele><time>2011-10-13T11:42:07.0000000+00:00</time></trkpt><trkpt lat="44.468506" lon="34.144016"><ele>279.6</ele><time>2011-10-13T11:42:12.0000000+00:00</time></trkpt><trkpt lat="44.468479" lon="34.144051"><ele>280.1</ele><time>2011-10-13T11:42:17.0000000+00:00</time></trkpt><trkpt lat="44.468502" lon="34.144161"><ele>280.1</ele><time>2011-10-13T11:42:22.0000000+00:00</time></trkpt><trkpt lat="44.468441" lon="34.144199"><ele>280.4</ele><time>2011-10-13T11:42:27.0000000+00:00</time></trkpt><trkpt lat="44.46838" lon="34.144211"><ele>279.7</ele><time>2011-10-13T11:42:32.0000000+00:00</time></trkpt><trkpt lat="44.468388" lon="34.144241"><ele>280.4</ele><time>2011-10-13T11:42:37.0000000+00:00</time></trkpt><trkpt lat="44.468479" lon="34.144188"><ele>280.8</ele><time>2011-10-13T11:42:42.0000000+00:00</time></trkpt><trkpt lat="44.468586" lon="34.144337"><ele>281.2</ele><time>2011-10-13T11:42:47.0000000+00:00</time></trkpt><trkpt lat="44.468636" lon="34.144371"><ele>281.3</ele><time>2011-10-13T11:42:52.0000000+00:00</time></trkpt><trkpt lat="44.468742" lon="34.144325"><ele>277.8</ele><time>2011-10-13T11:42:57.0000000+00:00</time></trkpt><trkpt lat="44.468807" lon="34.144329"><ele>276.0</ele><time>2011-10-13T11:43:02.0000000+00:00</time></trkpt><trkpt lat="44.468826" lon="34.144344"><ele>275.7</ele><time>2011-10-13T11:43:07.0000000+00:00</time></trkpt><trkpt lat="44.468811" lon="34.144363"><ele>275.7</ele><time>2011-10-13T11:43:12.0000000+00:00</time></trkpt><trkpt lat="44.4688" lon="34.144405"><ele>275.7</ele><time>2011-10-13T11:43:17.0000000+00:00</time></trkpt><trkpt lat="44.468765" lon="34.144398"><ele>275.3</ele><time>2011-10-13T11:43:22.0000000+00:00</time></trkpt><trkpt lat="44.468746" lon="34.144394"><ele>275.3</ele><time>2011-10-13T11:43:27.0000000+00:00</time></trkpt><trkpt lat="44.468739" lon="34.14436"><ele>274.9</ele><time>2011-10-13T11:43:32.0000000+00:00</time></trkpt><trkpt lat="44.468761" lon="34.144253"><ele>275.0</ele><time>2011-10-13T11:43:37.0000000+00:00</time></trkpt><trkpt lat="44.468754" lon="34.144199"><ele>275.0</ele><time>2011-10-13T11:43:42.0000000+00:00</time></trkpt><trkpt lat="44.468624" lon="34.144146"><ele>275.0</ele><time>2011-10-13T11:43:47.0000000+00:00</time></trkpt><trkpt lat="44.468563" lon="34.144093"><ele>275.8</ele><time>2011-10-13T11:43:52.0000000+00:00</time></trkpt><trkpt lat="44.468502" lon="34.144066"><ele>277.4</ele><time>2011-10-13T11:43:57.0000000+00:00</time></trkpt><trkpt lat="44.46846" lon="34.144035"><ele>279.0</ele><time>2011-10-13T11:44:02.0000000+00:00</time></trkpt><trkpt lat="44.468498" lon="34.143826"><ele>279.7</ele><time>2011-10-13T11:44:07.0000000+00:00</time></trkpt><trkpt lat="44.467541" lon="34.144451"><ele>280.1</ele><time>2011-10-13T11:44:12.0000000+00:00</time></trkpt><trkpt lat="44.467297" lon="34.144932"><ele>281.1</ele><time>2011-10-13T11:44:17.0000000+00:00</time></trkpt><trkpt lat="44.467175" lon="34.144733"><ele>278.4</ele><time>2011-10-13T11:44:22.0000000+00:00</time></trkpt><trkpt lat="44.467251" lon="34.144783"><ele>278.9</ele><time>2011-10-13T11:44:27.0000000+00:00</time></trkpt><trkpt lat="44.467274" lon="34.144741"><ele>278.2</ele><time>2011-10-13T11:44:32.0000000+00:00</time></trkpt><trkpt lat="44.467251" lon="34.144741"><ele>277.4</ele><time>2011-10-13T11:44:37.0000000+00:00</time></trkpt><trkpt lat="44.467278" lon="34.14476"><ele>276.4</ele><time>2011-10-13T11:44:42.0000000+00:00</time></trkpt><trkpt lat="44.467319" lon="34.144779"><ele>275.7</ele><time>2011-10-13T11:44:47.0000000+00:00</time></trkpt><trkpt lat="44.467281" lon="34.144756"><ele>275.9</ele><time>2011-10-13T11:44:52.0000000+00:00</time></trkpt><trkpt lat="44.467278" lon="34.14476"><ele>276.5</ele><time>2011-10-13T11:44:57.0000000+00:00</time></trkpt><trkpt lat="44.467274" lon="34.144768"><ele>277.2</ele><time>2011-10-13T11:45:02.0000000+00:00</time></trkpt><trkpt lat="44.467289" lon="34.144817"><ele>277.5</ele><time>2011-10-13T11:45:07.0000000+00:00</time></trkpt><trkpt lat="44.467323" lon="34.144936"><ele>277.6</ele><time>2011-10-13T11:45:12.0000000+00:00</time></trkpt><trkpt lat="44.467319" lon="34.145081"><ele>277.6</ele><time>2011-10-13T11:45:17.0000000+00:00</time></trkpt><trkpt lat="44.467331" lon="34.145172"><ele>277.5</ele><time>2011-10-13T11:45:22.0000000+00:00</time></trkpt><trkpt lat="44.467323" lon="34.145172"><ele>278.0</ele><time>2011-10-13T11:45:27.0000000+00:00</time></trkpt><trkpt lat="44.467327" lon="34.145187"><ele>278.6</ele><time>2011-10-13T11:45:32.0000000+00:00</time></trkpt><trkpt lat="44.467327" lon="34.145199"><ele>279.2</ele><time>2011-10-13T11:45:37.0000000+00:00</time></trkpt><trkpt lat="44.467319" lon="34.14521"><ele>279.8</ele><time>2011-10-13T11:45:42.0000000+00:00</time></trkpt><trkpt lat="44.467308" lon="34.145195"><ele>280.2</ele><time>2011-10-13T11:45:47.0000000+00:00</time></trkpt><trkpt lat="44.467285" lon="34.145153"><ele>280.3</ele><time>2011-10-13T11:45:52.0000000+00:00</time></trkpt><trkpt lat="44.467278" lon="34.145191"><ele>280.3</ele><time>2011-10-13T11:45:57.0000000+00:00</time></trkpt><trkpt lat="44.467274" lon="34.14521"><ele>280.8</ele><time>2011-10-13T11:46:02.0000000+00:00</time></trkpt><trkpt lat="44.467281" lon="34.14521"><ele>281.0</ele><time>2011-10-13T11:46:07.0000000+00:00</time></trkpt><trkpt lat="44.467285" lon="34.14521"><ele>281.3</ele><time>2011-10-13T11:46:12.0000000+00:00</time></trkpt><trkpt lat="44.467297" lon="34.145206"><ele>281.8</ele><time>2011-10-13T11:46:17.0000000+00:00</time></trkpt><trkpt lat="44.467304" lon="34.14526"><ele>281.2</ele><time>2011-10-13T11:46:22.0000000+00:00</time></trkpt><trkpt lat="44.467312" lon="34.14537"><ele>280.5</ele><time>2011-10-13T11:46:27.0000000+00:00</time></trkpt><trkpt lat="44.467358" lon="34.145485"><ele>280.1</ele><time>2011-10-13T11:46:32.0000000+00:00</time></trkpt><trkpt lat="44.467388" lon="34.145508"><ele>280.0</ele><time>2011-10-13T11:46:37.0000000+00:00</time></trkpt><trkpt lat="44.467422" lon="34.145546"><ele>280.0</ele><time>2011-10-13T11:46:42.0000000+00:00</time></trkpt><trkpt lat="44.467468" lon="34.145584"><ele>280.0</ele><time>2011-10-13T11:46:47.0000000+00:00</time></trkpt><trkpt lat="44.467518" lon="34.14563"><ele>280.2</ele><time>2011-10-13T11:46:52.0000000+00:00</time></trkpt><trkpt lat="44.467567" lon="34.145683"><ele>280.0</ele><time>2011-10-13T11:46:57.0000000+00:00</time></trkpt><trkpt lat="44.467556" lon="34.145741"><ele>279.8</ele><time>2011-10-13T11:47:02.0000000+00:00</time></trkpt><trkpt lat="44.467579" lon="34.145805"><ele>278.8</ele><time>2011-10-13T11:47:07.0000000+00:00</time></trkpt><trkpt lat="44.467575" lon="34.145809"><ele>278.1</ele><time>2011-10-13T11:47:12.0000000+00:00</time></trkpt><trkpt lat="44.467606" lon="34.145794"><ele>278.0</ele><time>2011-10-13T11:47:17.0000000+00:00</time></trkpt><trkpt lat="44.467609" lon="34.14584"><ele>276.9</ele><time>2011-10-13T11:47:22.0000000+00:00</time></trkpt><trkpt lat="44.467598" lon="34.145824"><ele>275.7</ele><time>2011-10-13T11:47:27.0000000+00:00</time></trkpt><trkpt lat="44.467587" lon="34.145794"><ele>274.9</ele><time>2011-10-13T11:47:32.0000000+00:00</time></trkpt><trkpt lat="44.467602" lon="34.145802"><ele>274.1</ele><time>2011-10-13T11:47:37.0000000+00:00</time></trkpt><trkpt lat="44.467609" lon="34.145794"><ele>273.6</ele><time>2011-10-13T11:47:42.0000000+00:00</time></trkpt><trkpt lat="44.467636" lon="34.145832"><ele>273.2</ele><time>2011-10-13T11:47:47.0000000+00:00</time></trkpt><trkpt lat="44.467651" lon="34.145855"><ele>272.7</ele><time>2011-10-13T11:47:52.0000000+00:00</time></trkpt><trkpt lat="44.46764" lon="34.145836"><ele>272.3</ele><time>2011-10-13T11:47:57.0000000+00:00</time></trkpt><trkpt lat="44.467636" lon="34.145828"><ele>272.2</ele><time>2011-10-13T11:48:02.0000000+00:00</time></trkpt><trkpt lat="44.467602" lon="34.145786"><ele>272.0</ele><time>2011-10-13T11:48:07.0000000+00:00</time></trkpt><trkpt lat="44.467606" lon="34.145782"><ele>271.9</ele><time>2011-10-13T11:48:12.0000000+00:00</time></trkpt><trkpt lat="44.46759" lon="34.145756"><ele>271.6</ele><time>2011-10-13T11:48:17.0000000+00:00</time></trkpt><trkpt lat="44.467552" lon="34.145653"><ele>271.0</ele><time>2011-10-13T11:48:22.0000000+00:00</time></trkpt><trkpt lat="44.467529" lon="34.145626"><ele>271.2</ele><time>2011-10-13T11:48:27.0000000+00:00</time></trkpt><trkpt lat="44.467506" lon="34.14558"><ele>271.4</ele><time>2011-10-13T11:48:32.0000000+00:00</time></trkpt><trkpt lat="44.467499" lon="34.145569"><ele>271.9</ele><time>2011-10-13T11:48:37.0000000+00:00</time></trkpt><trkpt lat="44.467476" lon="34.145557"><ele>272.4</ele><time>2011-10-13T11:48:42.0000000+00:00</time></trkpt><trkpt lat="44.467442" lon="34.145535"><ele>272.7</ele><time>2011-10-13T11:48:47.0000000+00:00</time></trkpt><trkpt lat="44.467426" lon="34.1455"><ele>273.0</ele><time>2011-10-13T11:48:52.0000000+00:00</time></trkpt><trkpt lat="44.467396" lon="34.14547"><ele>273.3</ele><time>2011-10-13T11:48:57.0000000+00:00</time></trkpt><trkpt lat="44.467354" lon="34.145405"><ele>273.5</ele><time>2011-10-13T11:49:02.0000000+00:00</time></trkpt><trkpt lat="44.467335" lon="34.145378"><ele>274.0</ele><time>2011-10-13T11:49:07.0000000+00:00</time></trkpt><trkpt lat="44.467319" lon="34.14534"><ele>274.5</ele><time>2011-10-13T11:49:12.0000000+00:00</time></trkpt><trkpt lat="44.467266" lon="34.145336"><ele>275.0</ele><time>2011-10-13T11:49:17.0000000+00:00</time></trkpt><trkpt lat="44.467262" lon="34.145309"><ele>275.6</ele><time>2011-10-13T11:49:22.0000000+00:00</time></trkpt><trkpt lat="44.467247" lon="34.145264"><ele>276.1</ele><time>2011-10-13T11:49:27.0000000+00:00</time></trkpt><trkpt lat="44.467209" lon="34.145226"><ele>276.5</ele><time>2011-10-13T11:49:32.0000000+00:00</time></trkpt><trkpt lat="44.467564" lon="34.145519"><ele>279.5</ele><time>2011-10-13T11:49:38.0000000+00:00</time></trkpt><trkpt lat="44.467594" lon="34.1455"><ele>271.8</ele><time>2011-10-13T11:49:43.0000000+00:00</time></trkpt><trkpt lat="44.467598" lon="34.145489"><ele>271.5</ele><time>2011-10-13T11:49:48.0000000+00:00</time></trkpt><trkpt lat="44.467602" lon="34.145485"><ele>271.4</ele><time>2011-10-13T11:49:53.0000000+00:00</time></trkpt><trkpt lat="44.467606" lon="34.145481"><ele>271.2</ele><time>2011-10-13T11:49:58.0000000+00:00</time></trkpt><trkpt lat="44.467609" lon="34.145477"><ele>271.1</ele><time>2011-10-13T11:50:03.0000000+00:00</time></trkpt><trkpt lat="44.467613" lon="34.145477"><ele>271.0</ele><time>2011-10-13T11:50:08.0000000+00:00</time></trkpt><trkpt lat="44.467609" lon="34.145477"><ele>270.9</ele><time>2011-10-13T11:50:13.0000000+00:00</time></trkpt><trkpt lat="44.467587" lon="34.1455"><ele>267.3</ele><time>2011-10-13T11:50:18.0000000+00:00</time></trkpt><trkpt lat="44.467575" lon="34.145519"><ele>263.8</ele><time>2011-10-13T11:50:23.0000000+00:00</time></trkpt><trkpt lat="44.467541" lon="34.145592"><ele>259.6</ele><time>2011-10-13T11:50:28.0000000+00:00</time></trkpt><trkpt lat="44.467537" lon="34.145596"><ele>258.5</ele><time>2011-10-13T11:50:33.0000000+00:00</time></trkpt><trkpt lat="44.467518" lon="34.145569"><ele>258.1</ele><time>2011-10-13T11:50:38.0000000+00:00</time></trkpt><trkpt lat="44.467472" lon="34.145531"><ele>257.1</ele><time>2011-10-13T11:50:43.0000000+00:00</time></trkpt><trkpt lat="44.467434" lon="34.145508"><ele>255.1</ele><time>2011-10-13T11:50:48.0000000+00:00</time></trkpt><trkpt lat="44.467422" lon="34.145481"><ele>254.3</ele><time>2011-10-13T11:50:53.0000000+00:00</time></trkpt><trkpt lat="44.467407" lon="34.145504"><ele>253.6</ele><time>2011-10-13T11:50:58.0000000+00:00</time></trkpt><trkpt lat="44.4674" lon="34.145531"><ele>253.4</ele><time>2011-10-13T11:51:03.0000000+00:00</time></trkpt><trkpt lat="44.467365" lon="34.145512"><ele>253.3</ele><time>2011-10-13T11:51:08.0000000+00:00</time></trkpt><trkpt lat="44.467251" lon="34.145485"><ele>253.9</ele><time>2011-10-13T11:51:13.0000000+00:00</time></trkpt><trkpt lat="44.467178" lon="34.145359"><ele>254.3</ele><time>2011-10-13T11:51:18.0000000+00:00</time></trkpt><trkpt lat="44.467072" lon="34.145294"><ele>257.0</ele><time>2011-10-13T11:51:23.0000000+00:00</time></trkpt><trkpt lat="44.466991" lon="34.145199"><ele>259.9</ele><time>2011-10-13T11:51:28.0000000+00:00</time></trkpt><trkpt lat="44.466972" lon="34.145077"><ele>257.8</ele><time>2011-10-13T11:51:33.0000000+00:00</time></trkpt><trkpt lat="44.46693" lon="34.145065"><ele>256.2</ele><time>2011-10-13T11:51:38.0000000+00:00</time></trkpt><trkpt lat="44.466843" lon="34.145023"><ele>255.8</ele><time>2011-10-13T11:51:43.0000000+00:00</time></trkpt><trkpt lat="44.466805" lon="34.144997"><ele>254.8</ele><time>2011-10-13T11:51:48.0000000+00:00</time></trkpt><trkpt lat="44.466732" lon="34.144962"><ele>253.4</ele><time>2011-10-13T11:51:53.0000000+00:00</time></trkpt><trkpt lat="44.466705" lon="34.144848"><ele>251.8</ele><time>2011-10-13T11:51:58.0000000+00:00</time></trkpt><trkpt lat="44.46669" lon="34.144829"><ele>250.4</ele><time>2011-10-13T11:52:03.0000000+00:00</time></trkpt><trkpt lat="44.466682" lon="34.14481"><ele>249.7</ele><time>2011-10-13T11:52:08.0000000+00:00</time></trkpt><trkpt lat="44.466637" lon="34.144802"><ele>249.7</ele><time>2011-10-13T11:52:13.0000000+00:00</time></trkpt><trkpt lat="44.466545" lon="34.144783"><ele>250.1</ele><time>2011-10-13T11:52:18.0000000+00:00</time></trkpt><trkpt lat="44.466469" lon="34.144691"><ele>250.7</ele><time>2011-10-13T11:52:23.0000000+00:00</time></trkpt><trkpt lat="44.466381" lon="34.1446"><ele>250.9</ele><time>2011-10-13T11:52:28.0000000+00:00</time></trkpt><trkpt lat="44.466263" lon="34.144516"><ele>253.4</ele><time>2011-10-13T11:52:33.0000000+00:00</time></trkpt><trkpt lat="44.466125" lon="34.144436"><ele>256.6</ele><time>2011-10-13T11:52:38.0000000+00:00</time></trkpt><trkpt lat="44.466106" lon="34.144276"><ele>258.9</ele><time>2011-10-13T11:52:43.0000000+00:00</time></trkpt><trkpt lat="44.466122" lon="34.144218"><ele>260.0</ele><time>2011-10-13T11:52:48.0000000+00:00</time></trkpt><trkpt lat="44.466095" lon="34.144138"><ele>263.8</ele><time>2011-10-13T11:52:53.0000000+00:00</time></trkpt><trkpt lat="44.466084" lon="34.143913"><ele>264.2</ele><time>2011-10-13T11:52:58.0000000+00:00</time></trkpt><trkpt lat="44.465981" lon="34.143627"><ele>266.6</ele><time>2011-10-13T11:53:03.0000000+00:00</time></trkpt><trkpt lat="44.465889" lon="34.143406"><ele>269.4</ele><time>2011-10-13T11:53:08.0000000+00:00</time></trkpt><trkpt lat="44.465775" lon="34.14315"><ele>272.0</ele><time>2011-10-13T11:53:13.0000000+00:00</time></trkpt><trkpt lat="44.465698" lon="34.14283"><ele>275.5</ele><time>2011-10-13T11:53:18.0000000+00:00</time></trkpt><trkpt lat="44.465702" lon="34.142487"><ele>278.9</ele><time>2011-10-13T11:53:23.0000000+00:00</time></trkpt><trkpt lat="44.46571" lon="34.142139"><ele>283.0</ele><time>2011-10-13T11:53:28.0000000+00:00</time></trkpt><trkpt lat="44.465736" lon="34.141968"><ele>288.8</ele><time>2011-10-13T11:53:33.0000000+00:00</time></trkpt><trkpt lat="44.465744" lon="34.141808"><ele>294.6</ele><time>2011-10-13T11:53:38.0000000+00:00</time></trkpt><trkpt lat="44.465683" lon="34.141514"><ele>298.4</ele><time>2011-10-13T11:53:43.0000000+00:00</time></trkpt><trkpt lat="44.46571" lon="34.141396"><ele>303.0</ele><time>2011-10-13T11:53:48.0000000+00:00</time></trkpt><trkpt lat="44.46574" lon="34.14151"><ele>306.9</ele><time>2011-10-13T11:53:53.0000000+00:00</time></trkpt><trkpt lat="44.465782" lon="34.141586"><ele>312.3</ele><time>2011-10-13T11:53:58.0000000+00:00</time></trkpt><trkpt lat="44.465572" lon="34.141865"><ele>316.8</ele><time>2011-10-13T11:54:03.0000000+00:00</time></trkpt><trkpt lat="44.463604" lon="34.143719"><ele>319.1</ele><time>2011-10-13T11:54:08.0000000+00:00</time></trkpt><trkpt lat="44.46365" lon="34.144016"><ele>323.3</ele><time>2011-10-13T11:54:13.0000000+00:00</time></trkpt><trkpt lat="44.463703" lon="34.144218"><ele>328.1</ele><time>2011-10-13T11:54:18.0000000+00:00</time></trkpt><trkpt lat="44.46368" lon="34.144581"><ele>332.3</ele><time>2011-10-13T11:54:23.0000000+00:00</time></trkpt><trkpt lat="44.463737" lon="34.144794"><ele>336.7</ele><time>2011-10-13T11:54:28.0000000+00:00</time></trkpt><trkpt lat="44.463749" lon="34.14505"><ele>341.1</ele><time>2011-10-13T11:54:33.0000000+00:00</time></trkpt><trkpt lat="44.463745" lon="34.145195"><ele>344.5</ele><time>2011-10-13T11:54:38.0000000+00:00</time></trkpt><trkpt lat="44.463768" lon="34.14534"><ele>348.2</ele><time>2011-10-13T11:54:43.0000000+00:00</time></trkpt><trkpt lat="44.463661" lon="34.145611"><ele>350.7</ele><time>2011-10-13T11:54:48.0000000+00:00</time></trkpt><trkpt lat="44.463657" lon="34.145626"><ele>351.4</ele><time>2011-10-13T11:54:53.0000000+00:00</time></trkpt><trkpt lat="44.463634" lon="34.145706"><ele>351.1</ele><time>2011-10-13T11:54:58.0000000+00:00</time></trkpt><trkpt lat="44.46357" lon="34.145836"><ele>349.8</ele><time>2011-10-13T11:55:03.0000000+00:00</time></trkpt><trkpt lat="44.463593" lon="34.14595"><ele>347.2</ele><time>2011-10-13T11:55:08.0000000+00:00</time></trkpt><trkpt lat="44.463604" lon="34.146046"><ele>344.3</ele><time>2011-10-13T11:55:13.0000000+00:00</time></trkpt><trkpt lat="44.463604" lon="34.146221"><ele>341.6</ele><time>2011-10-13T11:55:18.0000000+00:00</time></trkpt><trkpt lat="44.463657" lon="34.146374"><ele>338.6</ele><time>2011-10-13T11:55:23.0000000+00:00</time></trkpt><trkpt lat="44.463688" lon="34.146446"><ele>337.9</ele><time>2011-10-13T11:55:28.0000000+00:00</time></trkpt><trkpt lat="44.46373" lon="34.146515"><ele>337.0</ele><time>2011-10-13T11:55:33.0000000+00:00</time></trkpt><trkpt lat="44.463726" lon="34.146519"><ele>336.8</ele><time>2011-10-13T11:55:38.0000000+00:00</time></trkpt><trkpt lat="44.463699" lon="34.14661"><ele>336.1</ele><time>2011-10-13T11:55:43.0000000+00:00</time></trkpt><trkpt lat="44.463703" lon="34.146664"><ele>335.8</ele><time>2011-10-13T11:55:48.0000000+00:00</time></trkpt><trkpt lat="44.463737" lon="34.146645"><ele>336.0</ele><time>2011-10-13T11:55:53.0000000+00:00</time></trkpt><trkpt lat="44.463779" lon="34.146664"><ele>336.4</ele><time>2011-10-13T11:55:58.0000000+00:00</time></trkpt><trkpt lat="44.463818" lon="34.146744"><ele>337.0</ele><time>2011-10-13T11:56:03.0000000+00:00</time></trkpt><trkpt lat="44.463856" lon="34.146851"><ele>337.9</ele><time>2011-10-13T11:56:08.0000000+00:00</time></trkpt><trkpt lat="44.463924" lon="34.146927"><ele>338.5</ele><time>2011-10-13T11:56:13.0000000+00:00</time></trkpt><trkpt lat="44.464012" lon="34.14706"><ele>339.3</ele><time>2011-10-13T11:56:18.0000000+00:00</time></trkpt><trkpt lat="44.4641" lon="34.147003"><ele>340.1</ele><time>2011-10-13T11:56:23.0000000+00:00</time></trkpt><trkpt lat="44.464169" lon="34.147392"><ele>337.3</ele><time>2011-10-13T11:56:28.0000000+00:00</time></trkpt><trkpt lat="44.464226" lon="34.147644"><ele>338.5</ele><time>2011-10-13T11:56:33.0000000+00:00</time></trkpt><trkpt lat="44.464306" lon="34.14798"><ele>336.3</ele><time>2011-10-13T11:56:38.0000000+00:00</time></trkpt><trkpt lat="44.464439" lon="34.148151"><ele>331.9</ele><time>2011-10-13T11:56:43.0000000+00:00</time></trkpt><trkpt lat="44.464497" lon="34.148338"><ele>328.1</ele><time>2011-10-13T11:56:48.0000000+00:00</time></trkpt><trkpt lat="44.464516" lon="34.148403"><ele>326.5</ele><time>2011-10-13T11:56:53.0000000+00:00</time></trkpt><trkpt lat="44.464581" lon="34.148491"><ele>322.1</ele><time>2011-10-13T11:56:58.0000000+00:00</time></trkpt><trkpt lat="44.46463" lon="34.148533"><ele>320.1</ele><time>2011-10-13T11:57:03.0000000+00:00</time></trkpt><trkpt lat="44.464695" lon="34.148628"><ele>316.8</ele><time>2011-10-13T11:57:08.0000000+00:00</time></trkpt><trkpt lat="44.464714" lon="34.148705"><ele>315.5</ele><time>2011-10-13T11:57:13.0000000+00:00</time></trkpt><trkpt lat="44.464722" lon="34.148712"><ele>315.4</ele><time>2011-10-13T11:57:18.0000000+00:00</time></trkpt><trkpt lat="44.464722" lon="34.148716"><ele>315.4</ele><time>2011-10-13T11:57:23.0000000+00:00</time></trkpt><trkpt lat="44.464741" lon="34.148731"><ele>315.3</ele><time>2011-10-13T11:57:29.0000000+00:00</time></trkpt><trkpt lat="44.464756" lon="34.14867"><ele>313.6</ele><time>2011-10-13T11:57:36.0000000+00:00</time></trkpt><trkpt lat="44.464748" lon="34.148674"><ele>313.2</ele><time>2011-10-13T11:57:41.0000000+00:00</time></trkpt><trkpt lat="44.464729" lon="34.148666"><ele>313.9</ele><time>2011-10-13T11:57:46.0000000+00:00</time></trkpt><trkpt lat="44.464699" lon="34.14867"><ele>314.9</ele><time>2011-10-13T11:57:51.0000000+00:00</time></trkpt><trkpt lat="44.464672" lon="34.148663"><ele>315.9</ele><time>2011-10-13T11:57:56.0000000+00:00</time></trkpt><trkpt lat="44.464695" lon="34.148598"><ele>315.0</ele><time>2011-10-13T11:58:01.0000000+00:00</time></trkpt><trkpt lat="44.464901" lon="34.148842"><ele>309.3</ele><time>2011-10-13T11:58:06.0000000+00:00</time></trkpt><trkpt lat="44.464893" lon="34.148979"><ele>307.4</ele><time>2011-10-13T11:58:11.0000000+00:00</time></trkpt><trkpt lat="44.464954" lon="34.148972"><ele>308.3</ele><time>2011-10-13T11:58:16.0000000+00:00</time></trkpt><trkpt lat="44.464924" lon="34.149002"><ele>308.9</ele><time>2011-10-13T11:58:21.0000000+00:00</time></trkpt><trkpt lat="44.464924" lon="34.149002"><ele>308.9</ele><time>2011-10-13T11:58:26.0000000+00:00</time></trkpt><trkpt lat="44.464886" lon="34.149006"><ele>309.0</ele><time>2011-10-13T11:58:31.0000000+00:00</time></trkpt><trkpt lat="44.464867" lon="34.148983"><ele>307.0</ele><time>2011-10-13T11:58:36.0000000+00:00</time></trkpt><trkpt lat="44.464825" lon="34.148869"><ele>298.0</ele><time>2011-10-13T11:58:41.0000000+00:00</time></trkpt><trkpt lat="44.464779" lon="34.148849"><ele>298.0</ele><time>2011-10-13T11:58:46.0000000+00:00</time></trkpt><trkpt lat="44.464706" lon="34.148849"><ele>297.4</ele><time>2011-10-13T11:58:51.0000000+00:00</time></trkpt><trkpt lat="44.464622" lon="34.148861"><ele>295.7</ele><time>2011-10-13T11:58:56.0000000+00:00</time></trkpt><trkpt lat="44.464615" lon="34.148766"><ele>297.5</ele><time>2011-10-13T11:59:01.0000000+00:00</time></trkpt><trkpt lat="44.464607" lon="34.148766"><ele>299.6</ele><time>2011-10-13T11:59:06.0000000+00:00</time></trkpt><trkpt lat="44.464607" lon="34.148762"><ele>299.5</ele><time>2011-10-13T11:59:11.0000000+00:00</time></trkpt><trkpt lat="44.4646" lon="34.148785"><ele>301.6</ele><time>2011-10-13T11:59:16.0000000+00:00</time></trkpt><trkpt lat="44.464626" lon="34.148762"><ele>302.8</ele><time>2011-10-13T11:59:21.0000000+00:00</time></trkpt><trkpt lat="44.464657" lon="34.148712"><ele>302.2</ele><time>2011-10-13T11:59:26.0000000+00:00</time></trkpt><trkpt lat="44.46468" lon="34.148674"><ele>301.8</ele><time>2011-10-13T11:59:31.0000000+00:00</time></trkpt><trkpt lat="44.464714" lon="34.148624"><ele>301.4</ele><time>2011-10-13T11:59:36.0000000+00:00</time></trkpt><trkpt lat="44.464725" lon="34.14859"><ele>301.4</ele><time>2011-10-13T11:59:41.0000000+00:00</time></trkpt><trkpt lat="44.464752" lon="34.14851"><ele>301.6</ele><time>2011-10-13T11:59:46.0000000+00:00</time></trkpt><trkpt lat="44.46476" lon="34.148464"><ele>301.8</ele><time>2011-10-13T11:59:51.0000000+00:00</time></trkpt><trkpt lat="44.464798" lon="34.148453"><ele>302.1</ele><time>2011-10-13T11:59:56.0000000+00:00</time></trkpt><trkpt lat="44.464809" lon="34.14846"><ele>302.2</ele><time>2011-10-13T12:00:01.0000000+00:00</time></trkpt><trkpt lat="44.464809" lon="34.14843"><ele>302.3</ele><time>2011-10-13T12:00:06.0000000+00:00</time></trkpt><trkpt lat="44.464806" lon="34.148422"><ele>302.4</ele><time>2011-10-13T12:00:11.0000000+00:00</time></trkpt><trkpt lat="44.464809" lon="34.148331"><ele>301.9</ele><time>2011-10-13T12:00:16.0000000+00:00</time></trkpt><trkpt lat="44.464809" lon="34.148277"><ele>302.1</ele><time>2011-10-13T12:00:21.0000000+00:00</time></trkpt><trkpt lat="44.464756" lon="34.148247"><ele>302.1</ele><time>2011-10-13T12:00:26.0000000+00:00</time></trkpt><trkpt lat="44.464684" lon="34.148254"><ele>302.3</ele><time>2011-10-13T12:00:31.0000000+00:00</time></trkpt><trkpt lat="44.464615" lon="34.14827"><ele>304.1</ele><time>2011-10-13T12:00:36.0000000+00:00</time></trkpt><trkpt lat="44.464565" lon="34.14819"><ele>306.3</ele><time>2011-10-13T12:00:41.0000000+00:00</time></trkpt><trkpt lat="44.46452" lon="34.148129"><ele>308.9</ele><time>2011-10-13T12:00:46.0000000+00:00</time></trkpt><trkpt lat="44.464466" lon="34.14806"><ele>310.3</ele><time>2011-10-13T12:00:51.0000000+00:00</time></trkpt><trkpt lat="44.464378" lon="34.147942"><ele>312.0</ele><time>2011-10-13T12:00:56.0000000+00:00</time></trkpt><trkpt lat="44.464272" lon="34.147842"><ele>313.8</ele><time>2011-10-13T12:01:01.0000000+00:00</time></trkpt><trkpt lat="44.464249" lon="34.147713"><ele>316.8</ele><time>2011-10-13T12:01:06.0000000+00:00</time></trkpt><trkpt lat="44.464066" lon="34.147694"><ele>320.2</ele><time>2011-10-13T12:01:11.0000000+00:00</time></trkpt><trkpt lat="44.464058" lon="34.147713"><ele>321.9</ele><time>2011-10-13T12:01:16.0000000+00:00</time></trkpt><trkpt lat="44.463936" lon="34.147652"><ele>322.0</ele><time>2011-10-13T12:01:21.0000000+00:00</time></trkpt><trkpt lat="44.463863" lon="34.14761"><ele>322.2</ele><time>2011-10-13T12:01:26.0000000+00:00</time></trkpt><trkpt lat="44.463879" lon="34.147583"><ele>323.0</ele><time>2011-10-13T12:01:31.0000000+00:00</time></trkpt><trkpt lat="44.463928" lon="34.147629"><ele>324.4</ele><time>2011-10-13T12:01:36.0000000+00:00</time></trkpt><trkpt lat="44.463913" lon="34.147621"><ele>325.8</ele><time>2011-10-13T12:01:41.0000000+00:00</time></trkpt><trkpt lat="44.46386" lon="34.14761"><ele>327.1</ele><time>2011-10-13T12:01:46.0000000+00:00</time></trkpt><trkpt lat="44.463867" lon="34.147396"><ele>328.6</ele><time>2011-10-13T12:01:51.0000000+00:00</time></trkpt><trkpt lat="44.463909" lon="34.147251"><ele>329.0</ele><time>2011-10-13T12:01:56.0000000+00:00</time></trkpt><trkpt lat="44.463997" lon="34.147099"><ele>328.6</ele><time>2011-10-13T12:02:01.0000000+00:00</time></trkpt><trkpt lat="44.4641" lon="34.146942"><ele>328.3</ele><time>2011-10-13T12:02:06.0000000+00:00</time></trkpt><trkpt lat="44.464054" lon="34.146942"><ele>329.1</ele><time>2011-10-13T12:02:11.0000000+00:00</time></trkpt><trkpt lat="44.464008" lon="34.146866"><ele>330.3</ele><time>2011-10-13T12:02:16.0000000+00:00</time></trkpt><trkpt lat="44.463978" lon="34.146736"><ele>332.0</ele><time>2011-10-13T12:02:21.0000000+00:00</time></trkpt><trkpt lat="44.463947" lon="34.146618"><ele>334.1</ele><time>2011-10-13T12:02:26.0000000+00:00</time></trkpt><trkpt lat="44.463928" lon="34.146442"><ele>336.0</ele><time>2011-10-13T12:02:31.0000000+00:00</time></trkpt><trkpt lat="44.463932" lon="34.14624"><ele>337.8</ele><time>2011-10-13T12:02:36.0000000+00:00</time></trkpt><trkpt lat="44.463936" lon="34.146088"><ele>339.8</ele><time>2011-10-13T12:02:41.0000000+00:00</time></trkpt><trkpt lat="44.46394" lon="34.145943"><ele>341.9</ele><time>2011-10-13T12:02:46.0000000+00:00</time></trkpt><trkpt lat="44.463921" lon="34.145859"><ele>343.7</ele><time>2011-10-13T12:02:51.0000000+00:00</time></trkpt><trkpt lat="44.463928" lon="34.14571"><ele>345.7</ele><time>2011-10-13T12:02:56.0000000+00:00</time></trkpt><trkpt lat="44.463932" lon="34.145569"><ele>347.5</ele><time>2011-10-13T12:03:01.0000000+00:00</time></trkpt><trkpt lat="44.463936" lon="34.145382"><ele>349.3</ele><time>2011-10-13T12:03:06.0000000+00:00</time></trkpt><trkpt lat="44.463928" lon="34.145226"><ele>351.2</ele><time>2011-10-13T12:03:11.0000000+00:00</time></trkpt><trkpt lat="44.463894" lon="34.145161"><ele>353.2</ele><time>2011-10-13T12:03:16.0000000+00:00</time></trkpt><trkpt lat="44.463818" lon="34.145126"><ele>355.7</ele><time>2011-10-13T12:03:21.0000000+00:00</time></trkpt><trkpt lat="44.463703" lon="34.145069"><ele>358.3</ele><time>2011-10-13T12:03:26.0000000+00:00</time></trkpt><trkpt lat="44.463615" lon="34.145039"><ele>360.9</ele><time>2011-10-13T12:03:31.0000000+00:00</time></trkpt><trkpt lat="44.463501" lon="34.14502"><ele>362.3</ele><time>2011-10-13T12:03:36.0000000+00:00</time></trkpt><trkpt lat="44.463478" lon="34.145035"><ele>361.8</ele><time>2011-10-13T12:03:41.0000000+00:00</time></trkpt><trkpt lat="44.463459" lon="34.145039"><ele>361.6</ele><time>2011-10-13T12:03:46.0000000+00:00</time></trkpt><trkpt lat="44.463459" lon="34.145035"><ele>361.6</ele><time>2011-10-13T12:03:51.0000000+00:00</time></trkpt><trkpt lat="44.463474" lon="34.145012"><ele>361.6</ele><time>2011-10-13T12:03:56.0000000+00:00</time></trkpt><trkpt lat="44.463539" lon="34.144909"><ele>361.6</ele><time>2011-10-13T12:04:01.0000000+00:00</time></trkpt><trkpt lat="44.463539" lon="34.144913"><ele>361.5</ele><time>2011-10-13T12:04:06.0000000+00:00</time></trkpt><trkpt lat="44.463554" lon="34.144909"><ele>361.4</ele><time>2011-10-13T12:04:11.0000000+00:00</time></trkpt><trkpt lat="44.463558" lon="34.144901"><ele>361.0</ele><time>2011-10-13T12:04:16.0000000+00:00</time></trkpt><trkpt lat="44.463501" lon="34.144909"><ele>361.2</ele><time>2011-10-13T12:04:21.0000000+00:00</time></trkpt><trkpt lat="44.463463" lon="34.144924"><ele>361.5</ele><time>2011-10-13T12:04:26.0000000+00:00</time></trkpt><trkpt lat="44.463432" lon="34.144871"><ele>360.6</ele><time>2011-10-13T12:04:31.0000000+00:00</time></trkpt><trkpt lat="44.463436" lon="34.144829"><ele>359.4</ele><time>2011-10-13T12:04:36.0000000+00:00</time></trkpt><trkpt lat="44.463432" lon="34.144588"><ele>355.6</ele><time>2011-10-13T12:04:41.0000000+00:00</time></trkpt><trkpt lat="44.463448" lon="34.144371"><ele>352.5</ele><time>2011-10-13T12:04:46.0000000+00:00</time></trkpt><trkpt lat="44.463467" lon="34.144276"><ele>350.1</ele><time>2011-10-13T12:04:51.0000000+00:00</time></trkpt><trkpt lat="44.463528" lon="34.144203"><ele>347.6</ele><time>2011-10-13T12:04:56.0000000+00:00</time></trkpt><trkpt lat="44.463615" lon="34.144218"><ele>345.1</ele><time>2011-10-13T12:05:01.0000000+00:00</time></trkpt><trkpt lat="44.463657" lon="34.144234"><ele>342.0</ele><time>2011-10-13T12:05:06.0000000+00:00</time></trkpt><trkpt lat="44.463711" lon="34.144192"><ele>340.8</ele><time>2011-10-13T12:05:11.0000000+00:00</time></trkpt><trkpt lat="44.463806" lon="34.144062"><ele>337.8</ele><time>2011-10-13T12:05:16.0000000+00:00</time></trkpt><trkpt lat="44.463879" lon="34.143902"><ele>335.3</ele><time>2011-10-13T12:05:21.0000000+00:00</time></trkpt><trkpt lat="44.463913" lon="34.143829"><ele>334.8</ele><time>2011-10-13T12:05:26.0000000+00:00</time></trkpt><trkpt lat="44.46394" lon="34.143841"><ele>334.3</ele><time>2011-10-13T12:05:31.0000000+00:00</time></trkpt><trkpt lat="44.463974" lon="34.143833"><ele>333.4</ele><time>2011-10-13T12:05:36.0000000+00:00</time></trkpt><trkpt lat="44.46397" lon="34.143871"><ele>332.4</ele><time>2011-10-13T12:05:41.0000000+00:00</time></trkpt><trkpt lat="44.463997" lon="34.143906"><ele>330.6</ele><time>2011-10-13T12:05:46.0000000+00:00</time></trkpt><trkpt lat="44.464005" lon="34.14389"><ele>329.8</ele><time>2011-10-13T12:05:51.0000000+00:00</time></trkpt><trkpt lat="44.464008" lon="34.143894"><ele>329.8</ele><time>2011-10-13T12:05:56.0000000+00:00</time></trkpt><trkpt lat="44.464008" lon="34.143909"><ele>325.7</ele><time>2011-10-13T12:06:01.0000000+00:00</time></trkpt><trkpt lat="44.464012" lon="34.143913"><ele>325.2</ele><time>2011-10-13T12:06:06.0000000+00:00</time></trkpt><trkpt lat="44.464054" lon="34.143944"><ele>321.9</ele><time>2011-10-13T12:06:11.0000000+00:00</time></trkpt><trkpt lat="44.464153" lon="34.143951"><ele>318.0</ele><time>2011-10-13T12:06:16.0000000+00:00</time></trkpt><trkpt lat="44.464252" lon="34.144009"><ele>314.7</ele><time>2011-10-13T12:06:21.0000000+00:00</time></trkpt><trkpt lat="44.464294" lon="34.144039"><ele>313.3</ele><time>2011-10-13T12:06:26.0000000+00:00</time></trkpt><trkpt lat="44.464314" lon="34.144077"><ele>312.2</ele><time>2011-10-13T12:06:31.0000000+00:00</time></trkpt><trkpt lat="44.464352" lon="34.144165"><ele>310.4</ele><time>2011-10-13T12:06:36.0000000+00:00</time></trkpt><trkpt lat="44.464359" lon="34.144218"><ele>309.5</ele><time>2011-10-13T12:06:41.0000000+00:00</time></trkpt><trkpt lat="44.464432" lon="34.144295"><ele>309.3</ele><time>2011-10-13T12:06:46.0000000+00:00</time></trkpt><trkpt lat="44.464481" lon="34.144409"><ele>306.6</ele><time>2011-10-13T12:06:51.0000000+00:00</time></trkpt><trkpt lat="44.464516" lon="34.144459"><ele>300.1</ele><time>2011-10-13T12:06:56.0000000+00:00</time></trkpt><trkpt lat="44.464558" lon="34.144428"><ele>298.4</ele><time>2011-10-13T12:07:01.0000000+00:00</time></trkpt><trkpt lat="44.464619" lon="34.14439"><ele>295.3</ele><time>2011-10-13T12:07:06.0000000+00:00</time></trkpt><trkpt lat="44.464695" lon="34.144413"><ele>291.4</ele><time>2011-10-13T12:07:11.0000000+00:00</time></trkpt><trkpt lat="44.464775" lon="34.144367"><ele>287.1</ele><time>2011-10-13T12:07:16.0000000+00:00</time></trkpt><trkpt lat="44.46489" lon="34.144299"><ele>284.2</ele><time>2011-10-13T12:07:21.0000000+00:00</time></trkpt><trkpt lat="44.464962" lon="34.144249"><ele>283.4</ele><time>2011-10-13T12:07:26.0000000+00:00</time></trkpt><trkpt lat="44.465031" lon="34.144207"><ele>283.3</ele><time>2011-10-13T12:07:31.0000000+00:00</time></trkpt><trkpt lat="44.465176" lon="34.144218"><ele>283.4</ele><time>2011-10-13T12:07:36.0000000+00:00</time></trkpt><trkpt lat="44.465324" lon="34.144211"><ele>282.3</ele><time>2011-10-13T12:07:41.0000000+00:00</time></trkpt><trkpt lat="44.465405" lon="34.14426"><ele>282.6</ele><time>2011-10-13T12:07:46.0000000+00:00</time></trkpt><trkpt lat="44.465527" lon="34.144299"><ele>270.5</ele><time>2011-10-13T12:07:51.0000000+00:00</time></trkpt><trkpt lat="44.465565" lon="34.144314"><ele>265.5</ele><time>2011-10-13T12:07:56.0000000+00:00</time></trkpt><trkpt lat="44.465591" lon="34.144302"><ele>258.4</ele><time>2011-10-13T12:08:01.0000000+00:00</time></trkpt><trkpt lat="44.465614" lon="34.144283"><ele>253.3</ele><time>2011-10-13T12:08:06.0000000+00:00</time></trkpt><trkpt lat="44.465645" lon="34.144279"><ele>249.4</ele><time>2011-10-13T12:08:11.0000000+00:00</time></trkpt><trkpt lat="44.465679" lon="34.144268"><ele>245.9</ele><time>2011-10-13T12:08:16.0000000+00:00</time></trkpt><trkpt lat="44.465729" lon="34.144234"><ele>239.0</ele><time>2011-10-13T12:08:21.0000000+00:00</time></trkpt><trkpt lat="44.465748" lon="34.144222"><ele>237.2</ele><time>2011-10-13T12:08:26.0000000+00:00</time></trkpt><trkpt lat="44.465755" lon="34.144218"><ele>236.4</ele><time>2011-10-13T12:08:31.0000000+00:00</time></trkpt><trkpt lat="44.465755" lon="34.144211"><ele>235.9</ele><time>2011-10-13T12:08:36.0000000+00:00</time></trkpt><trkpt lat="44.465755" lon="34.144222"><ele>235.5</ele><time>2011-10-13T12:08:41.0000000+00:00</time></trkpt><trkpt lat="44.465801" lon="34.144211"><ele>233.7</ele><time>2011-10-13T12:08:46.0000000+00:00</time></trkpt><trkpt lat="44.465809" lon="34.144188"><ele>232.0</ele><time>2011-10-13T12:08:51.0000000+00:00</time></trkpt><trkpt lat="44.465828" lon="34.14415"><ele>230.4</ele><time>2011-10-13T12:08:56.0000000+00:00</time></trkpt><trkpt lat="44.465828" lon="34.144119"><ele>229.9</ele><time>2011-10-13T12:09:01.0000000+00:00</time></trkpt><trkpt lat="44.465836" lon="34.144043"><ele>229.0</ele><time>2011-10-13T12:09:06.0000000+00:00</time></trkpt><trkpt lat="44.465836" lon="34.143936"><ele>228.1</ele><time>2011-10-13T12:09:11.0000000+00:00</time></trkpt><trkpt lat="44.465832" lon="34.143745"><ele>227.0</ele><time>2011-10-13T12:09:16.0000000+00:00</time></trkpt><trkpt lat="44.465836" lon="34.143597"><ele>225.9</ele><time>2011-10-13T12:09:21.0000000+00:00</time></trkpt><trkpt lat="44.465816" lon="34.143555"><ele>225.3</ele><time>2011-10-13T12:09:26.0000000+00:00</time></trkpt><trkpt lat="44.46579" lon="34.143539"><ele>225.2</ele><time>2011-10-13T12:09:31.0000000+00:00</time></trkpt><trkpt lat="44.465736" lon="34.143555"><ele>224.6</ele><time>2011-10-13T12:09:36.0000000+00:00</time></trkpt><trkpt lat="44.465664" lon="34.143551"><ele>224.2</ele><time>2011-10-13T12:09:41.0000000+00:00</time></trkpt><trkpt lat="44.46563" lon="34.143532"><ele>223.8</ele><time>2011-10-13T12:09:46.0000000+00:00</time></trkpt><trkpt lat="44.465553" lon="34.143539"><ele>223.5</ele><time>2011-10-13T12:09:51.0000000+00:00</time></trkpt><trkpt lat="44.4655" lon="34.143486"><ele>224.2</ele><time>2011-10-13T12:09:56.0000000+00:00</time></trkpt><trkpt lat="44.465477" lon="34.143318"><ele>223.0</ele><time>2011-10-13T12:10:01.0000000+00:00</time></trkpt><trkpt lat="44.465435" lon="34.143211"><ele>221.2</ele><time>2011-10-13T12:10:06.0000000+00:00</time></trkpt><trkpt lat="44.465267" lon="34.143326"><ele>216.2</ele><time>2011-10-13T12:10:11.0000000+00:00</time></trkpt><trkpt lat="44.465187" lon="34.143391"><ele>211.1</ele><time>2011-10-13T12:10:16.0000000+00:00</time></trkpt><trkpt lat="44.46516" lon="34.143429"><ele>207.9</ele><time>2011-10-13T12:10:21.0000000+00:00</time></trkpt><trkpt lat="44.465149" lon="34.143459"><ele>205.4</ele><time>2011-10-13T12:10:26.0000000+00:00</time></trkpt><trkpt lat="44.465141" lon="34.143475"><ele>203.1</ele><time>2011-10-13T12:10:31.0000000+00:00</time></trkpt><trkpt lat="44.465134" lon="34.143494"><ele>201.6</ele><time>2011-10-13T12:10:36.0000000+00:00</time></trkpt><trkpt lat="44.465137" lon="34.14349"><ele>200.2</ele><time>2011-10-13T12:10:41.0000000+00:00</time></trkpt><trkpt lat="44.465145" lon="34.143478"><ele>198.4</ele><time>2011-10-13T12:10:46.0000000+00:00</time></trkpt><trkpt lat="44.465145" lon="34.143456"><ele>195.7</ele><time>2011-10-13T12:10:51.0000000+00:00</time></trkpt><trkpt lat="44.465168" lon="34.143425"><ele>192.6</ele><time>2011-10-13T12:10:56.0000000+00:00</time></trkpt><trkpt lat="44.465179" lon="34.143402"><ele>190.4</ele><time>2011-10-13T12:11:01.0000000+00:00</time></trkpt><trkpt lat="44.465195" lon="34.143364"><ele>188.3</ele><time>2011-10-13T12:11:06.0000000+00:00</time></trkpt><trkpt lat="44.465187" lon="34.14333"><ele>187.3</ele><time>2011-10-13T12:11:11.0000000+00:00</time></trkpt><trkpt lat="44.465164" lon="34.143272"><ele>186.4</ele><time>2011-10-13T12:11:16.0000000+00:00</time></trkpt><trkpt lat="44.465153" lon="34.143177"><ele>184.3</ele><time>2011-10-13T12:11:21.0000000+00:00</time></trkpt><trkpt lat="44.465118" lon="34.143097"><ele>183.5</ele><time>2011-10-13T12:11:26.0000000+00:00</time></trkpt><trkpt lat="44.465057" lon="34.142967"><ele>183.1</ele><time>2011-10-13T12:11:31.0000000+00:00</time></trkpt><trkpt lat="44.464973" lon="34.142834"><ele>182.4</ele><time>2011-10-13T12:11:36.0000000+00:00</time></trkpt><trkpt lat="44.46489" lon="34.142677"><ele>182.7</ele><time>2011-10-13T12:11:41.0000000+00:00</time></trkpt><trkpt lat="44.464779" lon="34.142544"><ele>183.2</ele><time>2011-10-13T12:11:46.0000000+00:00</time></trkpt><trkpt lat="44.464752" lon="34.142326"><ele>183.6</ele><time>2011-10-13T12:11:51.0000000+00:00</time></trkpt><trkpt lat="44.464741" lon="34.14212"><ele>183.9</ele><time>2011-10-13T12:11:56.0000000+00:00</time></trkpt><trkpt lat="44.464638" lon="34.141861"><ele>188.2</ele><time>2011-10-13T12:12:01.0000000+00:00</time></trkpt><trkpt lat="44.464607" lon="34.141651"><ele>190.9</ele><time>2011-10-13T12:12:06.0000000+00:00</time></trkpt><trkpt lat="44.46452" lon="34.141506"><ele>190.2</ele><time>2011-10-13T12:12:11.0000000+00:00</time></trkpt><trkpt lat="44.464386" lon="34.141361"><ele>190.2</ele><time>2011-10-13T12:12:16.0000000+00:00</time></trkpt><trkpt lat="44.464302" lon="34.141212"><ele>188.9</ele><time>2011-10-13T12:12:21.0000000+00:00</time></trkpt><trkpt lat="44.464222" lon="34.141052"><ele>185.1</ele><time>2011-10-13T12:12:26.0000000+00:00</time></trkpt><trkpt lat="44.464119" lon="34.14098"><ele>184.3</ele><time>2011-10-13T12:12:31.0000000+00:00</time></trkpt><trkpt lat="44.464027" lon="34.140797"><ele>182.9</ele><time>2011-10-13T12:12:36.0000000+00:00</time></trkpt><trkpt lat="44.463947" lon="34.140663"><ele>182.9</ele><time>2011-10-13T12:12:41.0000000+00:00</time></trkpt><trkpt lat="44.463879" lon="34.140511"><ele>184.6</ele><time>2011-10-13T12:12:46.0000000+00:00</time></trkpt><trkpt lat="44.463772" lon="34.140354"><ele>185.4</ele><time>2011-10-13T12:12:51.0000000+00:00</time></trkpt><trkpt lat="44.46368" lon="34.140198"><ele>186.7</ele><time>2011-10-13T12:12:56.0000000+00:00</time></trkpt><trkpt lat="44.463589" lon="34.140083"><ele>187.8</ele><time>2011-10-13T12:13:01.0000000+00:00</time></trkpt><trkpt lat="44.463497" lon="34.140011"><ele>189.6</ele><time>2011-10-13T12:13:06.0000000+00:00</time></trkpt><trkpt lat="44.463406" lon="34.139847"><ele>190.3</ele><time>2011-10-13T12:13:11.0000000+00:00</time></trkpt><trkpt lat="44.463295" lon="34.139729"><ele>192.2</ele><time>2011-10-13T12:13:16.0000000+00:00</time></trkpt><trkpt lat="44.463142" lon="34.139729"><ele>193.6</ele><time>2011-10-13T12:13:21.0000000+00:00</time></trkpt><trkpt lat="44.463043" lon="34.139671"><ele>196.0</ele><time>2011-10-13T12:13:26.0000000+00:00</time></trkpt><trkpt lat="44.462902" lon="34.139576"><ele>197.8</ele><time>2011-10-13T12:13:31.0000000+00:00</time></trkpt><trkpt lat="44.462749" lon="34.139492"><ele>200.1</ele><time>2011-10-13T12:13:36.0000000+00:00</time></trkpt><trkpt lat="44.462635" lon="34.139454"><ele>202.4</ele><time>2011-10-13T12:13:41.0000000+00:00</time></trkpt><trkpt lat="44.462612" lon="34.139389"><ele>205.5</ele><time>2011-10-13T12:13:46.0000000+00:00</time></trkpt><trkpt lat="44.462502" lon="34.139294"><ele>208.1</ele><time>2011-10-13T12:13:51.0000000+00:00</time></trkpt><trkpt lat="44.462383" lon="34.13916"><ele>212.2</ele><time>2011-10-13T12:13:56.0000000+00:00</time></trkpt><trkpt lat="44.462238" lon="34.139095"><ele>215.5</ele><time>2011-10-13T12:14:01.0000000+00:00</time></trkpt><trkpt lat="44.462074" lon="34.139023"><ele>218.9</ele><time>2011-10-13T12:14:06.0000000+00:00</time></trkpt><trkpt lat="44.461956" lon="34.138958"><ele>221.5</ele><time>2011-10-13T12:14:11.0000000+00:00</time></trkpt><trkpt lat="44.461853" lon="34.13884"><ele>223.2</ele><time>2011-10-13T12:14:16.0000000+00:00</time></trkpt><trkpt lat="44.461761" lon="34.138752"><ele>223.5</ele><time>2011-10-13T12:14:21.0000000+00:00</time></trkpt><trkpt lat="44.461723" lon="34.138763"><ele>225.4</ele><time>2011-10-13T12:14:26.0000000+00:00</time></trkpt><trkpt lat="44.461681" lon="34.138767"><ele>228.5</ele><time>2011-10-13T12:14:31.0000000+00:00</time></trkpt><trkpt lat="44.461563" lon="34.138931"><ele>234.3</ele><time>2011-10-13T12:14:36.0000000+00:00</time></trkpt><trkpt lat="44.461452" lon="34.139076"><ele>238.9</ele><time>2011-10-13T12:14:41.0000000+00:00</time></trkpt><trkpt lat="44.461281" lon="34.139194"><ele>244.2</ele><time>2011-10-13T12:14:46.0000000+00:00</time></trkpt><trkpt lat="44.46114" lon="34.139313"><ele>249.3</ele><time>2011-10-13T12:14:51.0000000+00:00</time></trkpt><trkpt lat="44.461063" lon="34.139507"><ele>252.3</ele><time>2011-10-13T12:14:56.0000000+00:00</time></trkpt><trkpt lat="44.460991" lon="34.139664"><ele>257.8</ele><time>2011-10-13T12:15:01.0000000+00:00</time></trkpt><trkpt lat="44.460892" lon="34.139832"><ele>263.4</ele><time>2011-10-13T12:15:06.0000000+00:00</time></trkpt><trkpt lat="44.46077" lon="34.13995"><ele>271.9</ele><time>2011-10-13T12:15:11.0000000+00:00</time></trkpt><trkpt lat="44.460484" lon="34.140259"><ele>271.3</ele><time>2011-10-13T12:15:16.0000000+00:00</time></trkpt><trkpt lat="44.46032" lon="34.140488"><ele>273.4</ele><time>2011-10-13T12:15:21.0000000+00:00</time></trkpt><trkpt lat="44.460094" lon="34.140594"><ele>272.8</ele><time>2011-10-13T12:15:26.0000000+00:00</time></trkpt><trkpt lat="44.459957" lon="34.140663"><ele>269.1</ele><time>2011-10-13T12:15:31.0000000+00:00</time></trkpt><trkpt lat="44.459942" lon="34.140663"><ele>269.5</ele><time>2011-10-13T12:15:36.0000000+00:00</time></trkpt><trkpt lat="44.459946" lon="34.140598"><ele>266.9</ele><time>2011-10-13T12:15:41.0000000+00:00</time></trkpt><trkpt lat="44.459919" lon="34.140579"><ele>265.6</ele><time>2011-10-13T12:15:46.0000000+00:00</time></trkpt><trkpt lat="44.459881" lon="34.140564"><ele>263.4</ele><time>2011-10-13T12:15:51.0000000+00:00</time></trkpt><trkpt lat="44.459866" lon="34.140526"><ele>259.2</ele><time>2011-10-13T12:15:56.0000000+00:00</time></trkpt><trkpt lat="44.459839" lon="34.140499"><ele>256.7</ele><time>2011-10-13T12:16:01.0000000+00:00</time></trkpt><trkpt lat="44.459801" lon="34.140476"><ele>252.0</ele><time>2011-10-13T12:16:06.0000000+00:00</time></trkpt><trkpt lat="44.45977" lon="34.140442"><ele>248.2</ele><time>2011-10-13T12:16:11.0000000+00:00</time></trkpt><trkpt lat="44.459717" lon="34.140438"><ele>245.0</ele><time>2011-10-13T12:16:16.0000000+00:00</time></trkpt><trkpt lat="44.459656" lon="34.140453"><ele>242.2</ele><time>2011-10-13T12:16:21.0000000+00:00</time></trkpt><trkpt lat="44.45961" lon="34.14043"><ele>239.5</ele><time>2011-10-13T12:16:26.0000000+00:00</time></trkpt><trkpt lat="44.45956" lon="34.140415"><ele>236.9</ele><time>2011-10-13T12:16:31.0000000+00:00</time></trkpt><trkpt lat="44.459473" lon="34.140385"><ele>234.4</ele><time>2011-10-13T12:16:36.0000000+00:00</time></trkpt><trkpt lat="44.459408" lon="34.140282"><ele>227.3</ele><time>2011-10-13T12:16:41.0000000+00:00</time></trkpt><trkpt lat="44.459354" lon="34.140171"><ele>224.0</ele><time>2011-10-13T12:16:46.0000000+00:00</time></trkpt><trkpt lat="44.459335" lon="34.14011"><ele>222.8</ele><time>2011-10-13T12:16:51.0000000+00:00</time></trkpt><trkpt lat="44.459305" lon="34.140125"><ele>220.5</ele><time>2011-10-13T12:16:56.0000000+00:00</time></trkpt><trkpt lat="44.459297" lon="34.140121"><ele>219.6</ele><time>2011-10-13T12:17:01.0000000+00:00</time></trkpt><trkpt lat="44.459297" lon="34.140129"><ele>219.9</ele><time>2011-10-13T12:17:06.0000000+00:00</time></trkpt><trkpt lat="44.459297" lon="34.140133"><ele>220.1</ele><time>2011-10-13T12:17:11.0000000+00:00</time></trkpt><trkpt lat="44.459297" lon="34.140133"><ele>220.3</ele><time>2011-10-13T12:17:16.0000000+00:00</time></trkpt><trkpt lat="44.459301" lon="34.140133"><ele>220.4</ele><time>2011-10-13T12:17:21.0000000+00:00</time></trkpt><trkpt lat="44.459297" lon="34.140133"><ele>220.4</ele><time>2011-10-13T12:17:26.0000000+00:00</time></trkpt><trkpt lat="44.459297" lon="34.140133"><ele>220.4</ele><time>2011-10-13T12:17:31.0000000+00:00</time></trkpt><trkpt lat="44.459297" lon="34.140129"><ele>220.4</ele><time>2011-10-13T12:17:36.0000000+00:00</time></trkpt><trkpt lat="44.459282" lon="34.140087"><ele>220.0</ele><time>2011-10-13T12:17:41.0000000+00:00</time></trkpt><trkpt lat="44.459244" lon="34.139938"><ele>217.8</ele><time>2011-10-13T12:17:46.0000000+00:00</time></trkpt><trkpt lat="44.459187" lon="34.139748"><ele>214.7</ele><time>2011-10-13T12:17:51.0000000+00:00</time></trkpt><trkpt lat="44.459137" lon="34.13958"><ele>211.9</ele><time>2011-10-13T12:17:56.0000000+00:00</time></trkpt><trkpt lat="44.459034" lon="34.139473"><ele>209.3</ele><time>2011-10-13T12:18:01.0000000+00:00</time></trkpt><trkpt lat="44.458969" lon="34.139381"><ele>208.4</ele><time>2011-10-13T12:18:06.0000000+00:00</time></trkpt><trkpt lat="44.458965" lon="34.139282"><ele>209.2</ele><time>2011-10-13T12:18:11.0000000+00:00</time></trkpt><trkpt lat="44.458874" lon="34.139225"><ele>210.2</ele><time>2011-10-13T12:18:16.0000000+00:00</time></trkpt><trkpt lat="44.458775" lon="34.139214"><ele>213.1</ele><time>2011-10-13T12:18:21.0000000+00:00</time></trkpt><trkpt lat="44.458698" lon="34.139145"><ele>216.0</ele><time>2011-10-13T12:18:26.0000000+00:00</time></trkpt><trkpt lat="44.458649" lon="34.139072"><ele>218.9</ele><time>2011-10-13T12:18:31.0000000+00:00</time></trkpt><trkpt lat="44.458546" lon="34.139057"><ele>222.6</ele><time>2011-10-13T12:18:36.0000000+00:00</time></trkpt><trkpt lat="44.458458" lon="34.13905"><ele>227.2</ele><time>2011-10-13T12:18:41.0000000+00:00</time></trkpt><trkpt lat="44.458431" lon="34.138935"><ele>229.8</ele><time>2011-10-13T12:18:46.0000000+00:00</time></trkpt><trkpt lat="44.458389" lon="34.138714"><ele>226.7</ele><time>2011-10-13T12:18:51.0000000+00:00</time></trkpt><trkpt lat="44.458294" lon="34.13858"><ele>220.1</ele><time>2011-10-13T12:18:56.0000000+00:00</time></trkpt><trkpt lat="44.458241" lon="34.138546"><ele>216.9</ele><time>2011-10-13T12:19:01.0000000+00:00</time></trkpt><trkpt lat="44.458183" lon="34.13847"><ele>210.3</ele><time>2011-10-13T12:19:06.0000000+00:00</time></trkpt><trkpt lat="44.458153" lon="34.138474"><ele>207.6</ele><time>2011-10-13T12:19:11.0000000+00:00</time></trkpt><trkpt lat="44.458107" lon="34.138489"><ele>205.3</ele><time>2011-10-13T12:19:16.0000000+00:00</time></trkpt><trkpt lat="44.458092" lon="34.138504"><ele>203.3</ele><time>2011-10-13T12:19:21.0000000+00:00</time></trkpt><trkpt lat="44.458088" lon="34.138508"><ele>203.1</ele><time>2011-10-13T12:19:26.0000000+00:00</time></trkpt><trkpt lat="44.458088" lon="34.138508"><ele>202.8</ele><time>2011-10-13T12:19:31.0000000+00:00</time></trkpt><trkpt lat="44.458084" lon="34.138512"><ele>202.5</ele><time>2011-10-13T12:19:36.0000000+00:00</time></trkpt><trkpt lat="44.45808" lon="34.138519"><ele>202.7</ele><time>2011-10-13T12:19:41.0000000+00:00</time></trkpt><trkpt lat="44.458073" lon="34.138531"><ele>202.8</ele><time>2011-10-13T12:19:46.0000000+00:00</time></trkpt><trkpt lat="44.458065" lon="34.138535"><ele>202.8</ele><time>2011-10-13T12:19:51.0000000+00:00</time></trkpt><trkpt lat="44.457981" lon="34.1385"><ele>201.6</ele><time>2011-10-13T12:19:56.0000000+00:00</time></trkpt><trkpt lat="44.457935" lon="34.138477"><ele>200.7</ele><time>2011-10-13T12:20:01.0000000+00:00</time></trkpt><trkpt lat="44.457912" lon="34.138493"><ele>191.5</ele><time>2011-10-13T12:20:06.0000000+00:00</time></trkpt><trkpt lat="44.457901" lon="34.138496"><ele>191.4</ele><time>2011-10-13T12:20:11.0000000+00:00</time></trkpt><trkpt lat="44.457897" lon="34.138493"><ele>191.3</ele><time>2011-10-13T12:20:16.0000000+00:00</time></trkpt><trkpt lat="44.45789" lon="34.138489"><ele>191.3</ele><time>2011-10-13T12:20:21.0000000+00:00</time></trkpt><trkpt lat="44.45789" lon="34.138485"><ele>191.3</ele><time>2011-10-13T12:20:26.0000000+00:00</time></trkpt><trkpt lat="44.457886" lon="34.138477"><ele>191.2</ele><time>2011-10-13T12:20:31.0000000+00:00</time></trkpt><trkpt lat="44.457878" lon="34.13847"><ele>191.0</ele><time>2011-10-13T12:20:36.0000000+00:00</time></trkpt><trkpt lat="44.457874" lon="34.138466"><ele>190.8</ele><time>2011-10-13T12:20:41.0000000+00:00</time></trkpt><trkpt lat="44.45787" lon="34.138466"><ele>190.7</ele><time>2011-10-13T12:20:46.0000000+00:00</time></trkpt><trkpt lat="44.457867" lon="34.13847"><ele>190.7</ele><time>2011-10-13T12:20:51.0000000+00:00</time></trkpt><trkpt lat="44.457863" lon="34.138474"><ele>190.6</ele><time>2011-10-13T12:20:56.0000000+00:00</time></trkpt><trkpt lat="44.457859" lon="34.13847"><ele>190.4</ele><time>2011-10-13T12:21:01.0000000+00:00</time></trkpt><trkpt lat="44.457863" lon="34.13847"><ele>190.4</ele><time>2011-10-13T12:21:06.0000000+00:00</time></trkpt><trkpt lat="44.457859" lon="34.13847"><ele>190.3</ele><time>2011-10-13T12:21:11.0000000+00:00</time></trkpt><trkpt lat="44.457859" lon="34.138474"><ele>190.4</ele><time>2011-10-13T12:21:16.0000000+00:00</time></trkpt><trkpt lat="44.457859" lon="34.138481"><ele>190.5</ele><time>2011-10-13T12:21:21.0000000+00:00</time></trkpt><trkpt lat="44.45787" lon="34.13847"><ele>190.2</ele><time>2011-10-13T12:21:26.0000000+00:00</time></trkpt><trkpt lat="44.45784" lon="34.138424"><ele>189.5</ele><time>2011-10-13T12:21:31.0000000+00:00</time></trkpt><trkpt lat="44.457783" lon="34.138302"><ele>187.8</ele><time>2011-10-13T12:21:36.0000000+00:00</time></trkpt><trkpt lat="44.457771" lon="34.13821"><ele>187.3</ele><time>2011-10-13T12:21:41.0000000+00:00</time></trkpt><trkpt lat="44.457771" lon="34.138065"><ele>187.0</ele><time>2011-10-13T12:21:46.0000000+00:00</time></trkpt><trkpt lat="44.457737" lon="34.137909"><ele>187.3</ele><time>2011-10-13T12:21:51.0000000+00:00</time></trkpt><trkpt lat="44.457748" lon="34.137726"><ele>188.7</ele><time>2011-10-13T12:21:56.0000000+00:00</time></trkpt><trkpt lat="44.457726" lon="34.137653"><ele>192.6</ele><time>2011-10-13T12:22:01.0000000+00:00</time></trkpt><trkpt lat="44.457714" lon="34.13763"><ele>196.3</ele><time>2011-10-13T12:22:06.0000000+00:00</time></trkpt><trkpt lat="44.457706" lon="34.137634"><ele>197.3</ele><time>2011-10-13T12:22:11.0000000+00:00</time></trkpt><trkpt lat="44.457748" lon="34.137642"><ele>197.5</ele><time>2011-10-13T12:22:16.0000000+00:00</time></trkpt><trkpt lat="44.457775" lon="34.13755"><ele>197.4</ele><time>2011-10-13T12:22:21.0000000+00:00</time></trkpt><trkpt lat="44.457832" lon="34.137413"><ele>196.7</ele><time>2011-10-13T12:22:26.0000000+00:00</time></trkpt><trkpt lat="44.457878" lon="34.137306"><ele>196.2</ele><time>2011-10-13T12:22:31.0000000+00:00</time></trkpt><trkpt lat="44.45792" lon="34.137226"><ele>195.6</ele><time>2011-10-13T12:22:36.0000000+00:00</time></trkpt><trkpt lat="44.457951" lon="34.137161"><ele>194.6</ele><time>2011-10-13T12:22:41.0000000+00:00</time></trkpt><trkpt lat="44.457993" lon="34.137085"><ele>194.5</ele><time>2011-10-13T12:22:46.0000000+00:00</time></trkpt><trkpt lat="44.457993" lon="34.137104"><ele>194.0</ele><time>2011-10-13T12:22:51.0000000+00:00</time></trkpt><trkpt lat="44.458069" lon="34.136974"><ele>191.9</ele><time>2011-10-13T12:22:56.0000000+00:00</time></trkpt><trkpt lat="44.458138" lon="34.136929"><ele>191.5</ele><time>2011-10-13T12:23:01.0000000+00:00</time></trkpt><trkpt lat="44.45821" lon="34.136902"><ele>191.2</ele><time>2011-10-13T12:23:06.0000000+00:00</time></trkpt><trkpt lat="44.458256" lon="34.136845"><ele>191.0</ele><time>2011-10-13T12:23:11.0000000+00:00</time></trkpt><trkpt lat="44.458336" lon="34.136768"><ele>190.1</ele><time>2011-10-13T12:23:16.0000000+00:00</time></trkpt><trkpt lat="44.458385" lon="34.136768"><ele>189.1</ele><time>2011-10-13T12:23:21.0000000+00:00</time></trkpt><trkpt lat="44.458389" lon="34.136799"><ele>188.3</ele><time>2011-10-13T12:23:26.0000000+00:00</time></trkpt><trkpt lat="44.458382" lon="34.136871"><ele>187.3</ele><time>2011-10-13T12:23:31.0000000+00:00</time></trkpt><trkpt lat="44.458359" lon="34.136906"><ele>186.7</ele><time>2011-10-13T12:23:36.0000000+00:00</time></trkpt><trkpt lat="44.458324" lon="34.136852"><ele>186.4</ele><time>2011-10-13T12:23:41.0000000+00:00</time></trkpt><trkpt lat="44.458298" lon="34.136803"><ele>185.4</ele><time>2011-10-13T12:23:46.0000000+00:00</time></trkpt><trkpt lat="44.458267" lon="34.136745"><ele>184.0</ele><time>2011-10-13T12:23:51.0000000+00:00</time></trkpt><trkpt lat="44.458241" lon="34.136673"><ele>181.7</ele><time>2011-10-13T12:23:56.0000000+00:00</time></trkpt><trkpt lat="44.45821" lon="34.136597"><ele>181.5</ele><time>2011-10-13T12:24:01.0000000+00:00</time></trkpt><trkpt lat="44.458179" lon="34.136551"><ele>181.3</ele><time>2011-10-13T12:24:06.0000000+00:00</time></trkpt><trkpt lat="44.458141" lon="34.136528"><ele>181.2</ele><time>2011-10-13T12:24:11.0000000+00:00</time></trkpt><trkpt lat="44.458092" lon="34.136478"><ele>181.3</ele><time>2011-10-13T12:24:16.0000000+00:00</time></trkpt><trkpt lat="44.458008" lon="34.136444"><ele>182.1</ele><time>2011-10-13T12:24:21.0000000+00:00</time></trkpt><trkpt lat="44.457909" lon="34.136383"><ele>183.2</ele><time>2011-10-13T12:24:26.0000000+00:00</time></trkpt><trkpt lat="44.457771" lon="34.136387"><ele>184.9</ele><time>2011-10-13T12:24:31.0000000+00:00</time></trkpt><trkpt lat="44.457684" lon="34.136383"><ele>186.9</ele><time>2011-10-13T12:24:36.0000000+00:00</time></trkpt><trkpt lat="44.45755" lon="34.136314"><ele>190.5</ele><time>2011-10-13T12:24:41.0000000+00:00</time></trkpt><trkpt lat="44.457447" lon="34.13623"><ele>193.6</ele><time>2011-10-13T12:24:46.0000000+00:00</time></trkpt><trkpt lat="44.457355" lon="34.136147"><ele>196.8</ele><time>2011-10-13T12:24:51.0000000+00:00</time></trkpt><trkpt lat="44.457233" lon="34.135986"><ele>200.2</ele><time>2011-10-13T12:24:56.0000000+00:00</time></trkpt><trkpt lat="44.457138" lon="34.135742"><ele>203.6</ele><time>2011-10-13T12:25:01.0000000+00:00</time></trkpt><trkpt lat="44.457043" lon="34.135643"><ele>206.0</ele><time>2011-10-13T12:25:06.0000000+00:00</time></trkpt><trkpt lat="44.456959" lon="34.135601"><ele>208.1</ele><time>2011-10-13T12:25:11.0000000+00:00</time></trkpt><trkpt lat="44.456821" lon="34.135601"><ele>212.0</ele><time>2011-10-13T12:25:16.0000000+00:00</time></trkpt><trkpt lat="44.456673" lon="34.135551"><ele>216.4</ele><time>2011-10-13T12:25:21.0000000+00:00</time></trkpt><trkpt lat="44.456543" lon="34.135502"><ele>222.9</ele><time>2011-10-13T12:25:26.0000000+00:00</time></trkpt><trkpt lat="44.456394" lon="34.135464"><ele>225.3</ele><time>2011-10-13T12:25:31.0000000+00:00</time></trkpt><trkpt lat="44.456253" lon="34.135376"><ele>228.1</ele><time>2011-10-13T12:25:36.0000000+00:00</time></trkpt><trkpt lat="44.456135" lon="34.135231"><ele>230.4</ele><time>2011-10-13T12:25:41.0000000+00:00</time></trkpt><trkpt lat="44.456062" lon="34.135078"><ele>232.3</ele><time>2011-10-13T12:25:46.0000000+00:00</time></trkpt><trkpt lat="44.456017" lon="34.134968"><ele>232.5</ele><time>2011-10-13T12:25:51.0000000+00:00</time></trkpt><trkpt lat="44.455978" lon="34.134857"><ele>232.1</ele><time>2011-10-13T12:25:56.0000000+00:00</time></trkpt><trkpt lat="44.455944" lon="34.134777"><ele>231.1</ele><time>2011-10-13T12:26:01.0000000+00:00</time></trkpt><trkpt lat="44.455894" lon="34.134701"><ele>230.3</ele><time>2011-10-13T12:26:06.0000000+00:00</time></trkpt><trkpt lat="44.455833" lon="34.13464"><ele>229.3</ele><time>2011-10-13T12:26:11.0000000+00:00</time></trkpt><trkpt lat="44.455803" lon="34.134548"><ele>227.4</ele><time>2011-10-13T12:26:16.0000000+00:00</time></trkpt><trkpt lat="44.455753" lon="34.134403"><ele>225.0</ele><time>2011-10-13T12:26:21.0000000+00:00</time></trkpt><trkpt lat="44.455685" lon="34.134392"><ele>221.9</ele><time>2011-10-13T12:26:26.0000000+00:00</time></trkpt><trkpt lat="44.45562" lon="34.134354"><ele>220.4</ele><time>2011-10-13T12:26:31.0000000+00:00</time></trkpt><trkpt lat="44.45562" lon="34.134209"><ele>217.2</ele><time>2011-10-13T12:26:36.0000000+00:00</time></trkpt><trkpt lat="44.455589" lon="34.134178"><ele>215.5</ele><time>2011-10-13T12:26:41.0000000+00:00</time></trkpt><trkpt lat="44.455544" lon="34.134136"><ele>214.6</ele><time>2011-10-13T12:26:46.0000000+00:00</time></trkpt><trkpt lat="44.455475" lon="34.134102"><ele>213.7</ele><time>2011-10-13T12:26:51.0000000+00:00</time></trkpt><trkpt lat="44.455376" lon="34.134087"><ele>213.1</ele><time>2011-10-13T12:26:56.0000000+00:00</time></trkpt><trkpt lat="44.45533" lon="34.134048"><ele>212.7</ele><time>2011-10-13T12:27:01.0000000+00:00</time></trkpt><trkpt lat="44.455238" lon="34.134003"><ele>211.1</ele><time>2011-10-13T12:27:06.0000000+00:00</time></trkpt><trkpt lat="44.455097" lon="34.133915"><ele>207.2</ele><time>2011-10-13T12:27:11.0000000+00:00</time></trkpt><trkpt lat="44.455009" lon="34.133755"><ele>204.7</ele><time>2011-10-13T12:27:16.0000000+00:00</time></trkpt><trkpt lat="44.454926" lon="34.133614"><ele>204.2</ele><time>2011-10-13T12:27:21.0000000+00:00</time></trkpt><trkpt lat="44.454865" lon="34.133469"><ele>204.5</ele><time>2011-10-13T12:27:26.0000000+00:00</time></trkpt><trkpt lat="44.454777" lon="34.133247"><ele>206.5</ele><time>2011-10-13T12:27:31.0000000+00:00</time></trkpt><trkpt lat="44.454731" lon="34.133064"><ele>206.1</ele><time>2011-10-13T12:27:36.0000000+00:00</time></trkpt><trkpt lat="44.454727" lon="34.132969"><ele>204.1</ele><time>2011-10-13T12:27:41.0000000+00:00</time></trkpt><trkpt lat="44.454723" lon="34.132942"><ele>201.5</ele><time>2011-10-13T12:27:46.0000000+00:00</time></trkpt><trkpt lat="44.454685" lon="34.132885"><ele>201.3</ele><time>2011-10-13T12:27:51.0000000+00:00</time></trkpt><trkpt lat="44.454674" lon="34.132767"><ele>201.8</ele><time>2011-10-13T12:27:56.0000000+00:00</time></trkpt><trkpt lat="44.454636" lon="34.132698"><ele>195.9</ele><time>2011-10-13T12:28:01.0000000+00:00</time></trkpt><trkpt lat="44.45446" lon="34.132526"><ele>194.7</ele><time>2011-10-13T12:28:06.0000000+00:00</time></trkpt><trkpt lat="44.454414" lon="34.132412"><ele>192.4</ele><time>2011-10-13T12:28:11.0000000+00:00</time></trkpt><trkpt lat="44.454399" lon="34.132324"><ele>189.8</ele><time>2011-10-13T12:28:16.0000000+00:00</time></trkpt><trkpt lat="44.45438" lon="34.132259"><ele>181.0</ele><time>2011-10-13T12:28:21.0000000+00:00</time></trkpt><trkpt lat="44.454399" lon="34.132156"><ele>177.9</ele><time>2011-10-13T12:28:26.0000000+00:00</time></trkpt><trkpt lat="44.454441" lon="34.132057"><ele>173.5</ele><time>2011-10-13T12:28:31.0000000+00:00</time></trkpt><trkpt lat="44.454487" lon="34.131939"><ele>170.7</ele><time>2011-10-13T12:28:36.0000000+00:00</time></trkpt><trkpt lat="44.454468" lon="34.131882"><ele>169.5</ele><time>2011-10-13T12:28:41.0000000+00:00</time></trkpt><trkpt lat="44.454437" lon="34.131809"><ele>167.7</ele><time>2011-10-13T12:28:46.0000000+00:00</time></trkpt><trkpt lat="44.454369" lon="34.131725"><ele>165.6</ele><time>2011-10-13T12:28:51.0000000+00:00</time></trkpt><trkpt lat="44.454334" lon="34.131615"><ele>165.7</ele><time>2011-10-13T12:28:56.0000000+00:00</time></trkpt><trkpt lat="44.454304" lon="34.131527"><ele>166.7</ele><time>2011-10-13T12:29:01.0000000+00:00</time></trkpt><trkpt lat="44.454292" lon="34.13142"><ele>167.6</ele><time>2011-10-13T12:29:06.0000000+00:00</time></trkpt><trkpt lat="44.454296" lon="34.131351"><ele>168.5</ele><time>2011-10-13T12:29:11.0000000+00:00</time></trkpt><trkpt lat="44.454323" lon="34.131271"><ele>169.5</ele><time>2011-10-13T12:29:16.0000000+00:00</time></trkpt><trkpt lat="44.45435" lon="34.131222"><ele>170.5</ele><time>2011-10-13T12:29:21.0000000+00:00</time></trkpt><trkpt lat="44.454372" lon="34.131172"><ele>171.6</ele><time>2011-10-13T12:29:26.0000000+00:00</time></trkpt><trkpt lat="44.454342" lon="34.131092"><ele>173.8</ele><time>2011-10-13T12:29:31.0000000+00:00</time></trkpt><trkpt lat="44.454296" lon="34.131008"><ele>174.6</ele><time>2011-10-13T12:29:36.0000000+00:00</time></trkpt><trkpt lat="44.454269" lon="34.130974"><ele>174.5</ele><time>2011-10-13T12:29:41.0000000+00:00</time></trkpt><trkpt lat="44.45425" lon="34.130932"><ele>174.3</ele><time>2011-10-13T12:29:46.0000000+00:00</time></trkpt><trkpt lat="44.454235" lon="34.130886"><ele>173.7</ele><time>2011-10-13T12:29:51.0000000+00:00</time></trkpt><trkpt lat="44.454224" lon="34.13084"><ele>173.0</ele><time>2011-10-13T12:29:56.0000000+00:00</time></trkpt><trkpt lat="44.454201" lon="34.13076"><ele>171.3</ele><time>2011-10-13T12:30:01.0000000+00:00</time></trkpt><trkpt lat="44.454197" lon="34.130703"><ele>170.6</ele><time>2011-10-13T12:30:06.0000000+00:00</time></trkpt><trkpt lat="44.454205" lon="34.130608"><ele>169.5</ele><time>2011-10-13T12:30:11.0000000+00:00</time></trkpt><trkpt lat="44.454235" lon="34.130421"><ele>168.9</ele><time>2011-10-13T12:30:16.0000000+00:00</time></trkpt><trkpt lat="44.454224" lon="34.130379"><ele>168.0</ele><time>2011-10-13T12:30:21.0000000+00:00</time></trkpt><trkpt lat="44.454224" lon="34.130375"><ele>167.8</ele><time>2011-10-13T12:30:26.0000000+00:00</time></trkpt><trkpt lat="44.45422" lon="34.130367"><ele>167.5</ele><time>2011-10-13T12:30:31.0000000+00:00</time></trkpt><trkpt lat="44.45422" lon="34.130341"><ele>167.2</ele><time>2011-10-13T12:30:36.0000000+00:00</time></trkpt><trkpt lat="44.454212" lon="34.130299"><ele>167.3</ele><time>2011-10-13T12:30:41.0000000+00:00</time></trkpt><trkpt lat="44.454201" lon="34.130272"><ele>167.4</ele><time>2011-10-13T12:30:46.0000000+00:00</time></trkpt><trkpt lat="44.45417" lon="34.130211"><ele>167.6</ele><time>2011-10-13T12:30:51.0000000+00:00</time></trkpt><trkpt lat="44.454121" lon="34.130119"><ele>167.2</ele><time>2011-10-13T12:30:56.0000000+00:00</time></trkpt><trkpt lat="44.454105" lon="34.130005"><ele>166.6</ele><time>2011-10-13T12:31:01.0000000+00:00</time></trkpt><trkpt lat="44.454094" lon="34.129963"><ele>166.9</ele><time>2011-10-13T12:31:06.0000000+00:00</time></trkpt><trkpt lat="44.454056" lon="34.129944"><ele>167.4</ele><time>2011-10-13T12:31:11.0000000+00:00</time></trkpt><trkpt lat="44.45401" lon="34.129929"><ele>168.2</ele><time>2011-10-13T12:31:16.0000000+00:00</time></trkpt><trkpt lat="44.45396" lon="34.129868"><ele>169.2</ele><time>2011-10-13T12:31:21.0000000+00:00</time></trkpt><trkpt lat="44.453892" lon="34.129768"><ele>170.6</ele><time>2011-10-13T12:31:26.0000000+00:00</time></trkpt><trkpt lat="44.453819" lon="34.129658"><ele>172.1</ele><time>2011-10-13T12:31:31.0000000+00:00</time></trkpt><trkpt lat="44.453751" lon="34.129536"><ele>173.9</ele><time>2011-10-13T12:31:36.0000000+00:00</time></trkpt><trkpt lat="44.453659" lon="34.129421"><ele>176.0</ele><time>2011-10-13T12:31:41.0000000+00:00</time></trkpt><trkpt lat="44.453609" lon="34.129337"><ele>177.1</ele><time>2011-10-13T12:31:46.0000000+00:00</time></trkpt><trkpt lat="44.453529" lon="34.129314"><ele>178.6</ele><time>2011-10-13T12:31:51.0000000+00:00</time></trkpt><trkpt lat="44.453419" lon="34.129284"><ele>180.5</ele><time>2011-10-13T12:31:56.0000000+00:00</time></trkpt><trkpt lat="44.453289" lon="34.129383"><ele>183.9</ele><time>2011-10-13T12:32:01.0000000+00:00</time></trkpt><trkpt lat="44.453236" lon="34.129459"><ele>188.6</ele><time>2011-10-13T12:32:06.0000000+00:00</time></trkpt><trkpt lat="44.453182" lon="34.129578"><ele>194.2</ele><time>2011-10-13T12:32:11.0000000+00:00</time></trkpt><trkpt lat="44.453117" lon="34.129692"><ele>201.1</ele><time>2011-10-13T12:32:16.0000000+00:00</time></trkpt><trkpt lat="44.453068" lon="34.129692"><ele>205.0</ele><time>2011-10-13T12:32:21.0000000+00:00</time></trkpt><trkpt lat="44.453037" lon="34.129623"><ele>207.2</ele><time>2011-10-13T12:32:26.0000000+00:00</time></trkpt><trkpt lat="44.453022" lon="34.129642"><ele>211.7</ele><time>2011-10-13T12:32:31.0000000+00:00</time></trkpt><trkpt lat="44.45303" lon="34.129581"><ele>215.8</ele><time>2011-10-13T12:32:36.0000000+00:00</time></trkpt><trkpt lat="44.452862" lon="34.129677"><ele>224.7</ele><time>2011-10-13T12:32:41.0000000+00:00</time></trkpt><trkpt lat="44.452686" lon="34.129684"><ele>232.5</ele><time>2011-10-13T12:32:46.0000000+00:00</time></trkpt><trkpt lat="44.452534" lon="34.129742"><ele>236.8</ele><time>2011-10-13T12:32:51.0000000+00:00</time></trkpt><trkpt lat="44.452396" lon="34.129772"><ele>240.8</ele><time>2011-10-13T12:32:56.0000000+00:00</time></trkpt><trkpt lat="44.452232" lon="34.129749"><ele>244.8</ele><time>2011-10-13T12:33:01.0000000+00:00</time></trkpt><trkpt lat="44.45216" lon="34.129768"><ele>249.6</ele><time>2011-10-13T12:33:06.0000000+00:00</time></trkpt><trkpt lat="44.452087" lon="34.129566"><ele>250.6</ele><time>2011-10-13T12:33:11.0000000+00:00</time></trkpt><trkpt lat="44.451996" lon="34.129498"><ele>251.0</ele><time>2011-10-13T12:33:16.0000000+00:00</time></trkpt><trkpt lat="44.451962" lon="34.12944"><ele>256.0</ele><time>2011-10-13T12:33:21.0000000+00:00</time></trkpt><trkpt lat="44.451904" lon="34.129501"><ele>261.9</ele><time>2011-10-13T12:33:26.0000000+00:00</time></trkpt><trkpt lat="44.451801" lon="34.129795"><ele>266.4</ele><time>2011-10-13T12:33:31.0000000+00:00</time></trkpt><trkpt lat="44.451439" lon="34.129955"><ele>274.2</ele><time>2011-10-13T12:33:36.0000000+00:00</time></trkpt><trkpt lat="44.451286" lon="34.129971"><ele>274.9</ele><time>2011-10-13T12:33:41.0000000+00:00</time></trkpt><trkpt lat="44.451237" lon="34.129856"><ele>276.7</ele><time>2011-10-13T12:33:46.0000000+00:00</time></trkpt><trkpt lat="44.451187" lon="34.129757"><ele>278.5</ele><time>2011-10-13T12:33:51.0000000+00:00</time></trkpt><trkpt lat="44.45113" lon="34.129684"><ele>280.7</ele><time>2011-10-13T12:33:56.0000000+00:00</time></trkpt><trkpt lat="44.451057" lon="34.129627"><ele>283.3</ele><time>2011-10-13T12:34:01.0000000+00:00</time></trkpt><trkpt lat="44.450996" lon="34.129581"><ele>284.2</ele><time>2011-10-13T12:34:06.0000000+00:00</time></trkpt><trkpt lat="44.451008" lon="34.129658"><ele>285.3</ele><time>2011-10-13T12:34:11.0000000+00:00</time></trkpt><trkpt lat="44.450981" lon="34.129742"><ele>286.8</ele><time>2011-10-13T12:34:16.0000000+00:00</time></trkpt><trkpt lat="44.450951" lon="34.129772"><ele>288.6</ele><time>2011-10-13T12:34:21.0000000+00:00</time></trkpt><trkpt lat="44.450901" lon="34.129616"><ele>287.9</ele><time>2011-10-13T12:34:26.0000000+00:00</time></trkpt><trkpt lat="44.450863" lon="34.129475"><ele>291.3</ele><time>2011-10-13T12:34:31.0000000+00:00</time></trkpt><trkpt lat="44.450821" lon="34.129486"><ele>292.5</ele><time>2011-10-13T12:34:36.0000000+00:00</time></trkpt><trkpt lat="44.450733" lon="34.129517"><ele>293.0</ele><time>2011-10-13T12:34:41.0000000+00:00</time></trkpt><trkpt lat="44.450642" lon="34.129559"><ele>294.7</ele><time>2011-10-13T12:34:46.0000000+00:00</time></trkpt><trkpt lat="44.450523" lon="34.129528"><ele>295.6</ele><time>2011-10-13T12:34:51.0000000+00:00</time></trkpt><trkpt lat="44.450478" lon="34.129536"><ele>295.7</ele><time>2011-10-13T12:34:56.0000000+00:00</time></trkpt><trkpt lat="44.450245" lon="34.129532"><ele>292.5</ele><time>2011-10-13T12:35:01.0000000+00:00</time></trkpt><trkpt lat="44.4501" lon="34.129505"><ele>293.8</ele><time>2011-10-13T12:35:06.0000000+00:00</time></trkpt><trkpt lat="44.450024" lon="34.129459"><ele>294.8</ele><time>2011-10-13T12:35:11.0000000+00:00</time></trkpt><trkpt lat="44.449883" lon="34.129436"><ele>296.6</ele><time>2011-10-13T12:35:16.0000000+00:00</time></trkpt><trkpt lat="44.449783" lon="34.129364"><ele>298.6</ele><time>2011-10-13T12:35:21.0000000+00:00</time></trkpt><trkpt lat="44.449677" lon="34.129292"><ele>299.0</ele><time>2011-10-13T12:35:26.0000000+00:00</time></trkpt><trkpt lat="44.44957" lon="34.129257"><ele>299.7</ele><time>2011-10-13T12:35:31.0000000+00:00</time></trkpt><trkpt lat="44.449471" lon="34.129219"><ele>300.8</ele><time>2011-10-13T12:35:36.0000000+00:00</time></trkpt><trkpt lat="44.449257" lon="34.129131"><ele>301.8</ele><time>2011-10-13T12:35:41.0000000+00:00</time></trkpt><trkpt lat="44.449135" lon="34.12904"><ele>301.8</ele><time>2011-10-13T12:35:46.0000000+00:00</time></trkpt><trkpt lat="44.449009" lon="34.128956"><ele>302.3</ele><time>2011-10-13T12:35:51.0000000+00:00</time></trkpt><trkpt lat="44.448895" lon="34.128826"><ele>303.3</ele><time>2011-10-13T12:35:56.0000000+00:00</time></trkpt><trkpt lat="44.448452" lon="34.128983"><ele>299.0</ele><time>2011-10-13T12:36:01.0000000+00:00</time></trkpt><trkpt lat="44.448483" lon="34.12886"><ele>299.9</ele><time>2011-10-13T12:36:06.0000000+00:00</time></trkpt><trkpt lat="44.448444" lon="34.128799"><ele>300.4</ele><time>2011-10-13T12:36:11.0000000+00:00</time></trkpt><trkpt lat="44.448395" lon="34.128757"><ele>299.0</ele><time>2011-10-13T12:36:16.0000000+00:00</time></trkpt><trkpt lat="44.448318" lon="34.128681"><ele>299.5</ele><time>2011-10-13T12:36:21.0000000+00:00</time></trkpt><trkpt lat="44.448242" lon="34.128597"><ele>300.2</ele><time>2011-10-13T12:36:26.0000000+00:00</time></trkpt><trkpt lat="44.448257" lon="34.128475"><ele>301.0</ele><time>2011-10-13T12:36:31.0000000+00:00</time></trkpt><trkpt lat="44.448212" lon="34.128464"><ele>302.5</ele><time>2011-10-13T12:36:36.0000000+00:00</time></trkpt><trkpt lat="44.448189" lon="34.128433"><ele>303.7</ele><time>2011-10-13T12:36:41.0000000+00:00</time></trkpt><trkpt lat="44.44804" lon="34.12833"><ele>306.0</ele><time>2011-10-13T12:36:46.0000000+00:00</time></trkpt><trkpt lat="44.447872" lon="34.128189"><ele>309.1</ele><time>2011-10-13T12:36:51.0000000+00:00</time></trkpt><trkpt lat="44.447731" lon="34.128216"><ele>310.7</ele><time>2011-10-13T12:36:56.0000000+00:00</time></trkpt><trkpt lat="44.447582" lon="34.128223"><ele>312.3</ele><time>2011-10-13T12:37:01.0000000+00:00</time></trkpt><trkpt lat="44.447445" lon="34.128239"><ele>313.5</ele><time>2011-10-13T12:37:06.0000000+00:00</time></trkpt><trkpt lat="44.447319" lon="34.128254"><ele>314.9</ele><time>2011-10-13T12:37:11.0000000+00:00</time></trkpt><trkpt lat="44.447212" lon="34.128239"><ele>316.9</ele><time>2011-10-13T12:37:16.0000000+00:00</time></trkpt><trkpt lat="44.44717" lon="34.128269"><ele>319.7</ele><time>2011-10-13T12:37:21.0000000+00:00</time></trkpt><trkpt lat="44.447094" lon="34.128323"><ele>323.0</ele><time>2011-10-13T12:37:26.0000000+00:00</time></trkpt><trkpt lat="44.447048" lon="34.128399"><ele>327.0</ele><time>2011-10-13T12:37:31.0000000+00:00</time></trkpt><trkpt lat="44.446972" lon="34.128311"><ele>327.0</ele><time>2011-10-13T12:37:36.0000000+00:00</time></trkpt><trkpt lat="44.4468" lon="34.128349"><ele>327.7</ele><time>2011-10-13T12:37:41.0000000+00:00</time></trkpt><trkpt lat="44.446671" lon="34.128548"><ele>331.0</ele><time>2011-10-13T12:37:46.0000000+00:00</time></trkpt><trkpt lat="44.44659" lon="34.128563"><ele>332.1</ele><time>2011-10-13T12:37:51.0000000+00:00</time></trkpt><trkpt lat="44.446507" lon="34.128578"><ele>333.2</ele><time>2011-10-13T12:37:56.0000000+00:00</time></trkpt><trkpt lat="44.44635" lon="34.128723"><ele>334.4</ele><time>2011-10-13T12:38:01.0000000+00:00</time></trkpt><trkpt lat="44.446136" lon="34.128819"><ele>335.9</ele><time>2011-10-13T12:38:06.0000000+00:00</time></trkpt><trkpt lat="44.445843" lon="34.12899"><ele>337.7</ele><time>2011-10-13T12:38:11.0000000+00:00</time></trkpt><trkpt lat="44.44566" lon="34.129002"><ele>341.0</ele><time>2011-10-13T12:38:16.0000000+00:00</time></trkpt><trkpt lat="44.445541" lon="34.128971"><ele>344.8</ele><time>2011-10-13T12:38:21.0000000+00:00</time></trkpt><trkpt lat="44.445457" lon="34.128975"><ele>348.6</ele><time>2011-10-13T12:38:26.0000000+00:00</time></trkpt><trkpt lat="44.445282" lon="34.128925"><ele>366.6</ele><time>2011-10-13T12:38:31.0000000+00:00</time></trkpt><trkpt lat="44.445129" lon="34.129047"><ele>373.9</ele><time>2011-10-13T12:38:36.0000000+00:00</time></trkpt><trkpt lat="44.445007" lon="34.129196"><ele>379.3</ele><time>2011-10-13T12:38:41.0000000+00:00</time></trkpt><trkpt lat="44.444862" lon="34.129307"><ele>381.7</ele><time>2011-10-13T12:38:46.0000000+00:00</time></trkpt><trkpt lat="44.444595" lon="34.129425"><ele>386.2</ele><time>2011-10-13T12:38:51.0000000+00:00</time></trkpt><trkpt lat="44.444374" lon="34.129406"><ele>383.2</ele><time>2011-10-13T12:38:56.0000000+00:00</time></trkpt><trkpt lat="44.444244" lon="34.129395"><ele>383.0</ele><time>2011-10-13T12:39:01.0000000+00:00</time></trkpt><trkpt lat="44.444168" lon="34.129356"><ele>383.8</ele><time>2011-10-13T12:39:06.0000000+00:00</time></trkpt><trkpt lat="44.444027" lon="34.129395"><ele>385.8</ele><time>2011-10-13T12:39:11.0000000+00:00</time></trkpt><trkpt lat="44.443871" lon="34.12944"><ele>386.5</ele><time>2011-10-13T12:39:16.0000000+00:00</time></trkpt><trkpt lat="44.443741" lon="34.129486"><ele>389.5</ele><time>2011-10-13T12:39:21.0000000+00:00</time></trkpt><trkpt lat="44.443649" lon="34.129494"><ele>393.5</ele><time>2011-10-13T12:39:26.0000000+00:00</time></trkpt><trkpt lat="44.443451" lon="34.129593"><ele>390.9</ele><time>2011-10-13T12:39:31.0000000+00:00</time></trkpt><trkpt lat="44.443363" lon="34.129597"><ele>393.8</ele><time>2011-10-13T12:39:36.0000000+00:00</time></trkpt><trkpt lat="44.443409" lon="34.129452"><ele>396.4</ele><time>2011-10-13T12:39:41.0000000+00:00</time></trkpt><trkpt lat="44.443451" lon="34.12944"><ele>399.9</ele><time>2011-10-13T12:39:46.0000000+00:00</time></trkpt><trkpt lat="44.443329" lon="34.129608"><ele>406.6</ele><time>2011-10-13T12:39:51.0000000+00:00</time></trkpt><trkpt lat="44.443218" lon="34.129745"><ele>412.8</ele><time>2011-10-13T12:39:56.0000000+00:00</time></trkpt><trkpt lat="44.443127" lon="34.129845"><ele>418.3</ele><time>2011-10-13T12:40:01.0000000+00:00</time></trkpt><trkpt lat="44.442902" lon="34.130051"><ele>421.7</ele><time>2011-10-13T12:40:06.0000000+00:00</time></trkpt><trkpt lat="44.442688" lon="34.13007"><ele>424.9</ele><time>2011-10-13T12:40:11.0000000+00:00</time></trkpt><trkpt lat="44.442459" lon="34.130096"><ele>429.3</ele><time>2011-10-13T12:40:16.0000000+00:00</time></trkpt><trkpt lat="44.442238" lon="34.130184"><ele>428.7</ele><time>2011-10-13T12:40:21.0000000+00:00</time></trkpt><trkpt lat="44.442017" lon="34.130371"><ele>431.1</ele><time>2011-10-13T12:40:26.0000000+00:00</time></trkpt><trkpt lat="44.441765" lon="34.130444"><ele>437.1</ele><time>2011-10-13T12:40:31.0000000+00:00</time></trkpt><trkpt lat="44.441544" lon="34.130535"><ele>442.1</ele><time>2011-10-13T12:40:36.0000000+00:00</time></trkpt><trkpt lat="44.441341" lon="34.130531"><ele>443.0</ele><time>2011-10-13T12:40:41.0000000+00:00</time></trkpt><trkpt lat="44.441105" lon="34.130577"><ele>441.8</ele><time>2011-10-13T12:40:46.0000000+00:00</time></trkpt><trkpt lat="44.440769" lon="34.130638"><ele>433.9</ele><time>2011-10-13T12:40:51.0000000+00:00</time></trkpt><trkpt lat="44.440544" lon="34.1306"><ele>428.3</ele><time>2011-10-13T12:40:56.0000000+00:00</time></trkpt><trkpt lat="44.440468" lon="34.130562"><ele>429.1</ele><time>2011-10-13T12:41:01.0000000+00:00</time></trkpt><trkpt lat="44.440388" lon="34.130466"><ele>428.2</ele><time>2011-10-13T12:41:06.0000000+00:00</time></trkpt><trkpt lat="44.440327" lon="34.130451"><ele>426.6</ele><time>2011-10-13T12:41:11.0000000+00:00</time></trkpt><trkpt lat="44.440277" lon="34.13039"><ele>426.6</ele><time>2011-10-13T12:41:16.0000000+00:00</time></trkpt><trkpt lat="44.440269" lon="34.13039"><ele>427.2</ele><time>2011-10-13T12:41:21.0000000+00:00</time></trkpt><trkpt lat="44.440258" lon="34.130386"><ele>428.1</ele><time>2011-10-13T12:41:26.0000000+00:00</time></trkpt><trkpt lat="44.439507" lon="34.130348"><ele>426.1</ele><time>2011-10-13T12:41:31.0000000+00:00</time></trkpt><trkpt lat="44.439037" lon="34.130222"><ele>424.0</ele><time>2011-10-13T12:41:36.0000000+00:00</time></trkpt><trkpt lat="44.43906" lon="34.130241"><ele>423.1</ele><time>2011-10-13T12:41:41.0000000+00:00</time></trkpt><trkpt lat="44.439056" lon="34.130238"><ele>424.1</ele><time>2011-10-13T12:41:46.0000000+00:00</time></trkpt><trkpt lat="44.439053" lon="34.130238"><ele>424.9</ele><time>2011-10-13T12:41:51.0000000+00:00</time></trkpt><trkpt lat="44.439049" lon="34.130234"><ele>425.8</ele><time>2011-10-13T12:41:56.0000000+00:00</time></trkpt><trkpt lat="44.439037" lon="34.130234"><ele>426.5</ele><time>2011-10-13T12:42:01.0000000+00:00</time></trkpt><trkpt lat="44.43903" lon="34.130238"><ele>427.1</ele><time>2011-10-13T12:42:06.0000000+00:00</time></trkpt><trkpt lat="44.439026" lon="34.130238"><ele>427.7</ele><time>2011-10-13T12:42:11.0000000+00:00</time></trkpt><trkpt lat="44.439026" lon="34.130241"><ele>428.1</ele><time>2011-10-13T12:42:16.0000000+00:00</time></trkpt><trkpt lat="44.439034" lon="34.130249"><ele>428.4</ele><time>2011-10-13T12:42:21.0000000+00:00</time></trkpt><trkpt lat="44.439022" lon="34.13026"><ele>428.4</ele><time>2011-10-13T12:42:26.0000000+00:00</time></trkpt><trkpt lat="44.43903" lon="34.130257"><ele>428.7</ele><time>2011-10-13T12:42:31.0000000+00:00</time></trkpt><trkpt lat="44.439034" lon="34.13023"><ele>428.6</ele><time>2011-10-13T12:42:36.0000000+00:00</time></trkpt><trkpt lat="44.439034" lon="34.130222"><ele>428.7</ele><time>2011-10-13T12:42:41.0000000+00:00</time></trkpt><trkpt lat="44.43903" lon="34.130219"><ele>428.9</ele><time>2011-10-13T12:42:46.0000000+00:00</time></trkpt><trkpt lat="44.439034" lon="34.130219"><ele>429.0</ele><time>2011-10-13T12:42:51.0000000+00:00</time></trkpt><trkpt lat="44.439037" lon="34.130215"><ele>429.2</ele><time>2011-10-13T12:42:56.0000000+00:00</time></trkpt><trkpt lat="44.439045" lon="34.130211"><ele>429.3</ele><time>2011-10-13T12:43:01.0000000+00:00</time></trkpt><trkpt lat="44.439053" lon="34.130207"><ele>429.5</ele><time>2011-10-13T12:43:06.0000000+00:00</time></trkpt><trkpt lat="44.439053" lon="34.130207"><ele>429.6</ele><time>2011-10-13T12:43:11.0000000+00:00</time></trkpt><trkpt lat="44.43906" lon="34.130215"><ele>429.5</ele><time>2011-10-13T12:43:16.0000000+00:00</time></trkpt><trkpt lat="44.439087" lon="34.130226"><ele>429.2</ele><time>2011-10-13T12:43:21.0000000+00:00</time></trkpt><trkpt lat="44.439117" lon="34.130226"><ele>428.8</ele><time>2011-10-13T12:43:26.0000000+00:00</time></trkpt><trkpt lat="44.439152" lon="34.130226"><ele>428.3</ele><time>2011-10-13T12:43:31.0000000+00:00</time></trkpt><trkpt lat="44.439331" lon="34.130157"><ele>426.0</ele><time>2011-10-13T12:43:36.0000000+00:00</time></trkpt><trkpt lat="44.439369" lon="34.130138"><ele>424.6</ele><time>2011-10-13T12:43:41.0000000+00:00</time></trkpt><trkpt lat="44.439384" lon="34.130123"><ele>423.4</ele><time>2011-10-13T12:43:46.0000000+00:00</time></trkpt><trkpt lat="44.439411" lon="34.13015"><ele>422.9</ele><time>2011-10-13T12:43:51.0000000+00:00</time></trkpt><trkpt lat="44.439476" lon="34.130257"><ele>421.1</ele><time>2011-10-13T12:43:56.0000000+00:00</time></trkpt><trkpt lat="44.43956" lon="34.130405"><ele>418.2</ele><time>2011-10-13T12:44:01.0000000+00:00</time></trkpt><trkpt lat="44.439644" lon="34.130383"><ele>415.4</ele><time>2011-10-13T12:44:06.0000000+00:00</time></trkpt><trkpt lat="44.439583" lon="34.130379"><ele>412.2</ele><time>2011-10-13T12:44:11.0000000+00:00</time></trkpt><trkpt lat="44.439476" lon="34.130379"><ele>410.4</ele><time>2011-10-13T12:44:16.0000000+00:00</time></trkpt><trkpt lat="44.439369" lon="34.130371"><ele>408.0</ele><time>2011-10-13T12:44:21.0000000+00:00</time></trkpt><trkpt lat="44.439297" lon="34.130299"><ele>404.0</ele><time>2011-10-13T12:44:26.0000000+00:00</time></trkpt><trkpt lat="44.439224" lon="34.130222"><ele>402.5</ele><time>2011-10-13T12:44:31.0000000+00:00</time></trkpt><trkpt lat="44.439194" lon="34.130192"><ele>402.6</ele><time>2011-10-13T12:44:36.0000000+00:00</time></trkpt><trkpt lat="44.439114" lon="34.130077"><ele>400.9</ele><time>2011-10-13T12:44:41.0000000+00:00</time></trkpt><trkpt lat="44.439022" lon="34.129997"><ele>399.8</ele><time>2011-10-13T12:44:46.0000000+00:00</time></trkpt><trkpt lat="44.438988" lon="34.129951"><ele>399.0</ele><time>2011-10-13T12:44:51.0000000+00:00</time></trkpt><trkpt lat="44.439011" lon="34.12973"><ele>397.2</ele><time>2011-10-13T12:44:56.0000000+00:00</time></trkpt><trkpt lat="44.439037" lon="34.129604"><ele>394.3</ele><time>2011-10-13T12:45:01.0000000+00:00</time></trkpt><trkpt lat="44.439049" lon="34.129585"><ele>392.6</ele><time>2011-10-13T12:45:06.0000000+00:00</time></trkpt><trkpt lat="44.439018" lon="34.129539"><ele>389.7</ele><time>2011-10-13T12:45:11.0000000+00:00</time></trkpt><trkpt lat="44.439011" lon="34.129478"><ele>385.7</ele><time>2011-10-13T12:45:16.0000000+00:00</time></trkpt><trkpt lat="44.439003" lon="34.129452"><ele>383.6</ele><time>2011-10-13T12:45:21.0000000+00:00</time></trkpt><trkpt lat="44.438988" lon="34.129414"><ele>382.1</ele><time>2011-10-13T12:45:26.0000000+00:00</time></trkpt><trkpt lat="44.438965" lon="34.129322"><ele>380.1</ele><time>2011-10-13T12:45:31.0000000+00:00</time></trkpt><trkpt lat="44.4389" lon="34.129238"><ele>378.6</ele><time>2011-10-13T12:45:36.0000000+00:00</time></trkpt><trkpt lat="44.438812" lon="34.12915"><ele>377.9</ele><time>2011-10-13T12:45:41.0000000+00:00</time></trkpt><trkpt lat="44.43874" lon="34.129017"><ele>377.9</ele><time>2011-10-13T12:45:46.0000000+00:00</time></trkpt><trkpt lat="44.438705" lon="34.128929"><ele>378.2</ele><time>2011-10-13T12:45:51.0000000+00:00</time></trkpt><trkpt lat="44.438599" lon="34.128754"><ele>377.3</ele><time>2011-10-13T12:45:56.0000000+00:00</time></trkpt><trkpt lat="44.438351" lon="34.128399"><ele>375.2</ele><time>2011-10-13T12:46:01.0000000+00:00</time></trkpt><trkpt lat="44.438076" lon="34.128094"><ele>374.2</ele><time>2011-10-13T12:46:06.0000000+00:00</time></trkpt><trkpt lat="44.437954" lon="34.127815"><ele>374.3</ele><time>2011-10-13T12:46:11.0000000+00:00</time></trkpt><trkpt lat="44.437798" lon="34.127544"><ele>374.4</ele><time>2011-10-13T12:46:16.0000000+00:00</time></trkpt><trkpt lat="44.437603" lon="34.127254"><ele>374.9</ele><time>2011-10-13T12:46:21.0000000+00:00</time></trkpt><trkpt lat="44.437504" lon="34.127087"><ele>376.5</ele><time>2011-10-13T12:46:26.0000000+00:00</time></trkpt><trkpt lat="44.437389" lon="34.126873"><ele>378.4</ele><time>2011-10-13T12:46:31.0000000+00:00</time></trkpt><trkpt lat="44.437408" lon="34.126717"><ele>378.9</ele><time>2011-10-13T12:46:36.0000000+00:00</time></trkpt><trkpt lat="44.437408" lon="34.126545"><ele>381.0</ele><time>2011-10-13T12:46:41.0000000+00:00</time></trkpt><trkpt lat="44.437527" lon="34.126465"><ele>380.3</ele><time>2011-10-13T12:46:46.0000000+00:00</time></trkpt><trkpt lat="44.437595" lon="34.126366"><ele>382.4</ele><time>2011-10-13T12:46:51.0000000+00:00</time></trkpt><trkpt lat="44.437656" lon="34.126198"><ele>387.2</ele><time>2011-10-13T12:46:56.0000000+00:00</time></trkpt><trkpt lat="44.437622" lon="34.125973"><ele>391.4</ele><time>2011-10-13T12:47:01.0000000+00:00</time></trkpt><trkpt lat="44.437645" lon="34.125751"><ele>395.8</ele><time>2011-10-13T12:47:06.0000000+00:00</time></trkpt><trkpt lat="44.437801" lon="34.125568"><ele>401.5</ele><time>2011-10-13T12:47:11.0000000+00:00</time></trkpt><trkpt lat="44.437943" lon="34.125362"><ele>407.1</ele><time>2011-10-13T12:47:16.0000000+00:00</time></trkpt><trkpt lat="44.438046" lon="34.125179"><ele>412.3</ele><time>2011-10-13T12:47:21.0000000+00:00</time></trkpt><trkpt lat="44.438091" lon="34.125072"><ele>414.6</ele><time>2011-10-13T12:47:26.0000000+00:00</time></trkpt><trkpt lat="44.438091" lon="34.124996"><ele>416.7</ele><time>2011-10-13T12:47:31.0000000+00:00</time></trkpt><trkpt lat="44.438007" lon="34.124893"><ele>419.1</ele><time>2011-10-13T12:47:36.0000000+00:00</time></trkpt><trkpt lat="44.437836" lon="34.124813"><ele>420.8</ele><time>2011-10-13T12:47:41.0000000+00:00</time></trkpt><trkpt lat="44.437679" lon="34.12468"><ele>424.6</ele><time>2011-10-13T12:47:46.0000000+00:00</time></trkpt><trkpt lat="44.437603" lon="34.124481"><ele>428.6</ele><time>2011-10-13T12:47:51.0000000+00:00</time></trkpt><trkpt lat="44.437546" lon="34.124302"><ele>433.2</ele><time>2011-10-13T12:47:56.0000000+00:00</time></trkpt><trkpt lat="44.43742" lon="34.124111"><ele>439.7</ele><time>2011-10-13T12:48:01.0000000+00:00</time></trkpt><trkpt lat="44.437305" lon="34.123989"><ele>446.2</ele><time>2011-10-13T12:48:06.0000000+00:00</time></trkpt><trkpt lat="44.437176" lon="34.123817"><ele>451.2</ele><time>2011-10-13T12:48:11.0000000+00:00</time></trkpt><trkpt lat="44.437119" lon="34.123604"><ele>457.4</ele><time>2011-10-13T12:48:16.0000000+00:00</time></trkpt><trkpt lat="44.437042" lon="34.123417"><ele>464.1</ele><time>2011-10-13T12:48:21.0000000+00:00</time></trkpt><trkpt lat="44.437012" lon="34.123173"><ele>469.3</ele><time>2011-10-13T12:48:26.0000000+00:00</time></trkpt><trkpt lat="44.436966" lon="34.122917"><ele>475.2</ele><time>2011-10-13T12:48:31.0000000+00:00</time></trkpt><trkpt lat="44.436935" lon="34.122818"><ele>476.4</ele><time>2011-10-13T12:48:36.0000000+00:00</time></trkpt><trkpt lat="44.43671" lon="34.122871"><ele>477.1</ele><time>2011-10-13T12:48:41.0000000+00:00</time></trkpt><trkpt lat="44.436508" lon="34.122879"><ele>482.3</ele><time>2011-10-13T12:48:46.0000000+00:00</time></trkpt><trkpt lat="44.436459" lon="34.122894"><ele>482.4</ele><time>2011-10-13T12:48:51.0000000+00:00</time></trkpt><trkpt lat="44.436459" lon="34.122887"><ele>482.8</ele><time>2011-10-13T12:48:56.0000000+00:00</time></trkpt><trkpt lat="44.436459" lon="34.122883"><ele>483.2</ele><time>2011-10-13T12:49:01.0000000+00:00</time></trkpt><trkpt lat="44.436459" lon="34.122879"><ele>483.7</ele><time>2011-10-13T12:49:06.0000000+00:00</time></trkpt><trkpt lat="44.436455" lon="34.122875"><ele>484.3</ele><time>2011-10-13T12:49:11.0000000+00:00</time></trkpt><trkpt lat="44.43644" lon="34.122868"><ele>485.1</ele><time>2011-10-13T12:49:16.0000000+00:00</time></trkpt><trkpt lat="44.436367" lon="34.12249"><ele>486.4</ele><time>2011-10-13T12:49:21.0000000+00:00</time></trkpt><trkpt lat="44.436306" lon="34.122368"><ele>487.7</ele><time>2011-10-13T12:49:26.0000000+00:00</time></trkpt><trkpt lat="44.436272" lon="34.122269"><ele>487.9</ele><time>2011-10-13T12:49:31.0000000+00:00</time></trkpt><trkpt lat="44.436241" lon="34.122223"><ele>487.8</ele><time>2011-10-13T12:49:36.0000000+00:00</time></trkpt><trkpt lat="44.436222" lon="34.122189"><ele>488.5</ele><time>2011-10-13T12:49:41.0000000+00:00</time></trkpt><trkpt lat="44.436218" lon="34.122189"><ele>489.3</ele><time>2011-10-13T12:49:46.0000000+00:00</time></trkpt><trkpt lat="44.436211" lon="34.12207"><ele>490.1</ele><time>2011-10-13T12:49:51.0000000+00:00</time></trkpt><trkpt lat="44.436169" lon="34.121922"><ele>489.8</ele><time>2011-10-13T12:49:56.0000000+00:00</time></trkpt><trkpt lat="44.435562" lon="34.119801"><ele>481.5</ele><time>2011-10-13T12:50:01.0000000+00:00</time></trkpt><trkpt lat="44.435646" lon="34.118927"><ele>477.6</ele><time>2011-10-13T12:50:06.0000000+00:00</time></trkpt><trkpt lat="44.435749" lon="34.118641"><ele>475.8</ele><time>2011-10-13T12:50:11.0000000+00:00</time></trkpt><trkpt lat="44.435753" lon="34.11853"><ele>472.0</ele><time>2011-10-13T12:50:16.0000000+00:00</time></trkpt><trkpt lat="44.435791" lon="34.1185"><ele>464.6</ele><time>2011-10-13T12:50:21.0000000+00:00</time></trkpt><trkpt lat="44.435699" lon="34.118477"><ele>458.9</ele><time>2011-10-13T12:50:26.0000000+00:00</time></trkpt><trkpt lat="44.435566" lon="34.118477"><ele>452.5</ele><time>2011-10-13T12:50:31.0000000+00:00</time></trkpt><trkpt lat="44.435535" lon="34.118488"><ele>446.5</ele><time>2011-10-13T12:50:36.0000000+00:00</time></trkpt><trkpt lat="44.435509" lon="34.118481"><ele>434.4</ele><time>2011-10-13T12:50:41.0000000+00:00</time></trkpt><trkpt lat="44.435448" lon="34.118481"><ele>425.3</ele><time>2011-10-13T12:50:46.0000000+00:00</time></trkpt><trkpt lat="44.435463" lon="34.11853"><ele>412.7</ele><time>2011-10-13T12:50:51.0000000+00:00</time></trkpt><trkpt lat="44.43544" lon="34.11853"><ele>398.2</ele><time>2011-10-13T12:50:56.0000000+00:00</time></trkpt><trkpt lat="44.435406" lon="34.118511"><ele>391.4</ele><time>2011-10-13T12:51:01.0000000+00:00</time></trkpt><trkpt lat="44.435402" lon="34.118511"><ele>391.1</ele><time>2011-10-13T12:51:06.0000000+00:00</time></trkpt><trkpt lat="44.435406" lon="34.118515"><ele>391.1</ele><time>2011-10-13T12:51:11.0000000+00:00</time></trkpt><trkpt lat="44.435364" lon="34.118572"><ele>388.9</ele><time>2011-10-13T12:51:16.0000000+00:00</time></trkpt><trkpt lat="44.435223" lon="34.118633"><ele>379.9</ele><time>2011-10-13T12:51:21.0000000+00:00</time></trkpt><trkpt lat="44.435123" lon="34.118599"><ele>373.7</ele><time>2011-10-13T12:51:26.0000000+00:00</time></trkpt><trkpt lat="44.435005" lon="34.11853"><ele>369.1</ele><time>2011-10-13T12:51:31.0000000+00:00</time></trkpt><trkpt lat="44.434875" lon="34.118473"><ele>365.1</ele><time>2011-10-13T12:51:36.0000000+00:00</time></trkpt><trkpt lat="44.434734" lon="34.118462"><ele>357.1</ele><time>2011-10-13T12:51:41.0000000+00:00</time></trkpt><trkpt lat="44.434624" lon="34.118679"><ele>352.2</ele><time>2011-10-13T12:51:46.0000000+00:00</time></trkpt><trkpt lat="44.434483" lon="34.119068"><ele>343.2</ele><time>2011-10-13T12:51:51.0000000+00:00</time></trkpt><trkpt lat="44.434242" lon="34.119568"><ele>325.8</ele><time>2011-10-13T12:51:56.0000000+00:00</time></trkpt><trkpt lat="44.43396" lon="34.120037"><ele>310.4</ele><time>2011-10-13T12:52:01.0000000+00:00</time></trkpt><trkpt lat="44.433876" lon="34.120556"><ele>301.6</ele><time>2011-10-13T12:52:06.0000000+00:00</time></trkpt><trkpt lat="44.433975" lon="34.12101"><ele>298.0</ele><time>2011-10-13T12:52:11.0000000+00:00</time></trkpt><trkpt lat="44.43409" lon="34.121521"><ele>290.7</ele><time>2011-10-13T12:52:16.0000000+00:00</time></trkpt><trkpt lat="44.434231" lon="34.122097"><ele>281.7</ele><time>2011-10-13T12:52:21.0000000+00:00</time></trkpt><trkpt lat="44.434284" lon="34.122585"><ele>278.1</ele><time>2011-10-13T12:52:26.0000000+00:00</time></trkpt><trkpt lat="44.434429" lon="34.122856"><ele>277.7</ele><time>2011-10-13T12:52:31.0000000+00:00</time></trkpt><trkpt lat="44.434368" lon="34.122738"><ele>277.6</ele><time>2011-10-13T12:52:36.0000000+00:00</time></trkpt><trkpt lat="44.434879" lon="34.12513"><ele>283.2</ele><time>2011-10-13T12:52:41.0000000+00:00</time></trkpt><trkpt lat="44.434723" lon="34.124649"><ele>256.0</ele><time>2011-10-13T12:52:46.0000000+00:00</time></trkpt><trkpt lat="44.434544" lon="34.124088"><ele>236.2</ele><time>2011-10-13T12:52:51.0000000+00:00</time></trkpt><trkpt lat="44.434425" lon="34.123554"><ele>227.0</ele><time>2011-10-13T12:52:56.0000000+00:00</time></trkpt><trkpt lat="44.43433" lon="34.123013"><ele>218.4</ele><time>2011-10-13T12:53:01.0000000+00:00</time></trkpt><trkpt lat="44.434132" lon="34.122505"><ele>211.4</ele><time>2011-10-13T12:53:06.0000000+00:00</time></trkpt><trkpt lat="44.433693" lon="34.122124"><ele>198.6</ele><time>2011-10-13T12:53:11.0000000+00:00</time></trkpt><trkpt lat="44.433167" lon="34.121616"><ele>175.0</ele><time>2011-10-13T12:53:16.0000000+00:00</time></trkpt><trkpt lat="44.432659" lon="34.121296"><ele>165.1</ele><time>2011-10-13T12:53:21.0000000+00:00</time></trkpt><trkpt lat="44.432117" lon="34.121132"><ele>153.7</ele><time>2011-10-13T12:53:26.0000000+00:00</time></trkpt><trkpt lat="44.431828" lon="34.121334"><ele>133.4</ele><time>2011-10-13T12:53:31.0000000+00:00</time></trkpt><trkpt lat="44.432163" lon="34.121929"><ele>126.1</ele><time>2011-10-13T12:53:36.0000000+00:00</time></trkpt><trkpt lat="44.432571" lon="34.122501"><ele>119.1</ele><time>2011-10-13T12:53:41.0000000+00:00</time></trkpt><trkpt lat="44.432995" lon="34.123093"><ele>113.1</ele><time>2011-10-13T12:53:46.0000000+00:00</time></trkpt><trkpt lat="44.433399" lon="34.123516"><ele>109.3</ele><time>2011-10-13T12:53:51.0000000+00:00</time></trkpt><trkpt lat="44.433624" lon="34.123886"><ele>107.0</ele><time>2011-10-13T12:53:56.0000000+00:00</time></trkpt><trkpt lat="44.433609" lon="34.124325"><ele>108.5</ele><time>2011-10-13T12:54:01.0000000+00:00</time></trkpt><trkpt lat="44.433552" lon="34.124561"><ele>109.8</ele><time>2011-10-13T12:54:06.0000000+00:00</time></trkpt><trkpt lat="44.433529" lon="34.124638"><ele>108.1</ele><time>2011-10-13T12:54:11.0000000+00:00</time></trkpt><trkpt lat="44.433514" lon="34.12466"><ele>109.4</ele><time>2011-10-13T12:54:16.0000000+00:00</time></trkpt><trkpt lat="44.433502" lon="34.124645"><ele>110.7</ele><time>2011-10-13T12:54:21.0000000+00:00</time></trkpt><trkpt lat="44.433525" lon="34.124748"><ele>108.8</ele><time>2011-10-13T12:54:26.0000000+00:00</time></trkpt><trkpt lat="44.433548" lon="34.124821"><ele>108.7</ele><time>2011-10-13T12:54:31.0000000+00:00</time></trkpt><trkpt lat="44.433567" lon="34.124901"><ele>110.8</ele><time>2011-10-13T12:54:36.0000000+00:00</time></trkpt><trkpt lat="44.433575" lon="34.124901"><ele>111.6</ele><time>2011-10-13T12:54:41.0000000+00:00</time></trkpt><trkpt lat="44.433559" lon="34.124981"><ele>112.8</ele><time>2011-10-13T12:54:46.0000000+00:00</time></trkpt><trkpt lat="44.433567" lon="34.124985"><ele>113.4</ele><time>2011-10-13T12:54:51.0000000+00:00</time></trkpt><trkpt lat="44.433571" lon="34.124989"><ele>113.6</ele><time>2011-10-13T12:54:56.0000000+00:00</time></trkpt><trkpt lat="44.433578" lon="34.124992"><ele>113.8</ele><time>2011-10-13T12:55:01.0000000+00:00</time></trkpt><trkpt lat="44.433586" lon="34.124992"><ele>114.0</ele><time>2011-10-13T12:55:06.0000000+00:00</time></trkpt><trkpt lat="44.433594" lon="34.124996"><ele>114.3</ele><time>2011-10-13T12:55:11.0000000+00:00</time></trkpt><trkpt lat="44.433598" lon="34.125"><ele>114.5</ele><time>2011-10-13T12:55:16.0000000+00:00</time></trkpt><trkpt lat="44.433601" lon="34.125004"><ele>114.8</ele><time>2011-10-13T12:55:21.0000000+00:00</time></trkpt><trkpt lat="44.433609" lon="34.125008"><ele>115.1</ele><time>2011-10-13T12:55:26.0000000+00:00</time></trkpt><trkpt lat="44.43362" lon="34.125011"><ele>115.5</ele><time>2011-10-13T12:55:31.0000000+00:00</time></trkpt><trkpt lat="44.433628" lon="34.125011"><ele>116.0</ele><time>2011-10-13T12:55:36.0000000+00:00</time></trkpt><trkpt lat="44.43364" lon="34.125015"><ele>116.4</ele><time>2011-10-13T12:55:41.0000000+00:00</time></trkpt><trkpt lat="44.433647" lon="34.125015"><ele>116.9</ele><time>2011-10-13T12:55:46.0000000+00:00</time></trkpt><trkpt lat="44.433659" lon="34.125019"><ele>117.4</ele><time>2011-10-13T12:55:51.0000000+00:00</time></trkpt><trkpt lat="44.433666" lon="34.125019"><ele>117.9</ele><time>2011-10-13T12:55:56.0000000+00:00</time></trkpt><trkpt lat="44.433674" lon="34.125023"><ele>118.4</ele><time>2011-10-13T12:56:01.0000000+00:00</time></trkpt><trkpt lat="44.433678" lon="34.125023"><ele>118.7</ele><time>2011-10-13T12:56:06.0000000+00:00</time></trkpt><trkpt lat="44.433685" lon="34.125023"><ele>119.0</ele><time>2011-10-13T12:56:11.0000000+00:00</time></trkpt><trkpt lat="44.433689" lon="34.125027"><ele>119.3</ele><time>2011-10-13T12:56:16.0000000+00:00</time></trkpt><trkpt lat="44.433693" lon="34.125027"><ele>119.6</ele><time>2011-10-13T12:56:21.0000000+00:00</time></trkpt><trkpt lat="44.433701" lon="34.125027"><ele>120.1</ele><time>2011-10-13T12:56:26.0000000+00:00</time></trkpt><trkpt lat="44.433708" lon="34.125031"><ele>120.5</ele><time>2011-10-13T12:56:31.0000000+00:00</time></trkpt><trkpt lat="44.433712" lon="34.125053"><ele>123.0</ele><time>2011-10-13T12:56:36.0000000+00:00</time></trkpt><trkpt lat="44.433701" lon="34.125092"><ele>123.9</ele><time>2011-10-13T12:56:41.0000000+00:00</time></trkpt><trkpt lat="44.433697" lon="34.125099"><ele>124.0</ele><time>2011-10-13T12:56:46.0000000+00:00</time></trkpt><trkpt lat="44.433689" lon="34.125099"><ele>124.1</ele><time>2011-10-13T12:56:51.0000000+00:00</time></trkpt><trkpt lat="44.433643" lon="34.125267"><ele>124.4</ele><time>2011-10-13T12:56:56.0000000+00:00</time></trkpt><trkpt lat="44.433647" lon="34.125343"><ele>124.4</ele><time>2011-10-13T12:57:01.0000000+00:00</time></trkpt><trkpt lat="44.433624" lon="34.12537"><ele>125.1</ele><time>2011-10-13T12:57:06.0000000+00:00</time></trkpt><trkpt lat="44.433613" lon="34.125412"><ele>125.4</ele><time>2011-10-13T12:57:11.0000000+00:00</time></trkpt><trkpt lat="44.433617" lon="34.125416"><ele>125.8</ele><time>2011-10-13T12:57:16.0000000+00:00</time></trkpt><trkpt lat="44.433624" lon="34.125431"><ele>126.1</ele><time>2011-10-13T12:57:21.0000000+00:00</time></trkpt><trkpt lat="44.433628" lon="34.125439"><ele>126.3</ele><time>2011-10-13T12:57:26.0000000+00:00</time></trkpt><trkpt lat="44.433624" lon="34.125443"><ele>126.6</ele><time>2011-10-13T12:57:31.0000000+00:00</time></trkpt><trkpt lat="44.43362" lon="34.12545"><ele>126.8</ele><time>2011-10-13T12:57:36.0000000+00:00</time></trkpt><trkpt lat="44.433613" lon="34.125454"><ele>127.0</ele><time>2011-10-13T12:57:41.0000000+00:00</time></trkpt><trkpt lat="44.433605" lon="34.125462"><ele>127.3</ele><time>2011-10-13T12:57:46.0000000+00:00</time></trkpt><trkpt lat="44.433598" lon="34.125469"><ele>127.7</ele><time>2011-10-13T12:57:51.0000000+00:00</time></trkpt><trkpt lat="44.43359" lon="34.125477"><ele>128.0</ele><time>2011-10-13T12:57:56.0000000+00:00</time></trkpt><trkpt lat="44.433594" lon="34.125504"><ele>128.1</ele><time>2011-10-13T12:58:01.0000000+00:00</time></trkpt><trkpt lat="44.433586" lon="34.125507"><ele>128.4</ele><time>2011-10-13T12:58:06.0000000+00:00</time></trkpt><trkpt lat="44.433578" lon="34.125515"><ele>128.6</ele><time>2011-10-13T12:58:11.0000000+00:00</time></trkpt><trkpt lat="44.433575" lon="34.125519"><ele>128.8</ele><time>2011-10-13T12:58:16.0000000+00:00</time></trkpt><trkpt lat="44.433563" lon="34.125542"><ele>129.2</ele><time>2011-10-13T12:58:21.0000000+00:00</time></trkpt><trkpt lat="44.433559" lon="34.125546"><ele>129.6</ele><time>2011-10-13T12:58:26.0000000+00:00</time></trkpt><trkpt lat="44.433556" lon="34.125546"><ele>129.9</ele><time>2011-10-13T12:58:31.0000000+00:00</time></trkpt><trkpt lat="44.433556" lon="34.125549"><ele>130.3</ele><time>2011-10-13T12:58:36.0000000+00:00</time></trkpt><trkpt lat="44.433578" lon="34.12558"><ele>129.8</ele><time>2011-10-13T12:58:41.0000000+00:00</time></trkpt><trkpt lat="44.433575" lon="34.125587"><ele>130.0</ele><time>2011-10-13T12:58:46.0000000+00:00</time></trkpt><trkpt lat="44.433578" lon="34.125587"><ele>130.0</ele><time>2011-10-13T12:58:51.0000000+00:00</time></trkpt><trkpt lat="44.433578" lon="34.125591"><ele>130.0</ele><time>2011-10-13T12:58:56.0000000+00:00</time></trkpt><trkpt lat="44.433578" lon="34.125591"><ele>130.1</ele><time>2011-10-13T12:59:01.0000000+00:00</time></trkpt><trkpt lat="44.433578" lon="34.125591"><ele>130.2</ele><time>2011-10-13T12:59:06.0000000+00:00</time></trkpt><trkpt lat="44.433578" lon="34.125591"><ele>130.2</ele><time>2011-10-13T12:59:11.0000000+00:00</time></trkpt><trkpt lat="44.433578" lon="34.125591"><ele>130.2</ele><time>2011-10-13T12:59:16.0000000+00:00</time></trkpt><trkpt lat="44.433578" lon="34.125595"><ele>130.2</ele><time>2011-10-13T12:59:21.0000000+00:00</time></trkpt><trkpt lat="44.433578" lon="34.125595"><ele>130.2</ele><time>2011-10-13T12:59:26.0000000+00:00</time></trkpt><trkpt lat="44.433582" lon="34.125595"><ele>130.2</ele><time>2011-10-13T12:59:31.0000000+00:00</time></trkpt><trkpt lat="44.433582" lon="34.125595"><ele>130.2</ele><time>2011-10-13T12:59:36.0000000+00:00</time></trkpt><trkpt lat="44.433582" lon="34.125595"><ele>130.2</ele><time>2011-10-13T12:59:41.0000000+00:00</time></trkpt><trkpt lat="44.433582" lon="34.125595"><ele>130.2</ele><time>2011-10-13T12:59:46.0000000+00:00</time></trkpt><trkpt lat="44.433582" lon="34.125595"><ele>130.2</ele><time>2011-10-13T12:59:51.0000000+00:00</time></trkpt><trkpt lat="44.433582" lon="34.125595"><ele>130.2</ele><time>2011-10-13T12:59:56.0000000+00:00</time></trkpt><trkpt lat="44.433582" lon="34.125599"><ele>130.2</ele><time>2011-10-13T13:00:01.0000000+00:00</time></trkpt><trkpt lat="44.433582" lon="34.125599"><ele>130.2</ele><time>2011-10-13T13:00:06.0000000+00:00</time></trkpt><trkpt lat="44.433582" lon="34.125599"><ele>130.2</ele><time>2011-10-13T13:00:11.0000000+00:00</time></trkpt><trkpt lat="44.433582" lon="34.125599"><ele>130.2</ele><time>2011-10-13T13:00:16.0000000+00:00</time></trkpt><trkpt lat="44.433582" lon="34.125599"><ele>130.2</ele><time>2011-10-13T13:00:21.0000000+00:00</time></trkpt><trkpt lat="44.433582" lon="34.125599"><ele>130.2</ele><time>2011-10-13T13:00:26.0000000+00:00</time></trkpt><trkpt lat="44.433582" lon="34.125599"><ele>130.2</ele><time>2011-10-13T13:00:31.0000000+00:00</time></trkpt><trkpt lat="44.433582" lon="34.125599"><ele>130.2</ele><time>2011-10-13T13:00:36.0000000+00:00</time></trkpt><trkpt lat="44.433582" lon="34.125599"><ele>130.2</ele><time>2011-10-13T13:00:41.0000000+00:00</time></trkpt><trkpt lat="44.433582" lon="34.125599"><ele>130.2</ele><time>2011-10-13T13:00:46.0000000+00:00</time></trkpt><trkpt lat="44.433582" lon="34.125599"><ele>130.2</ele><time>2011-10-13T13:00:51.0000000+00:00</time></trkpt><trkpt lat="44.433582" lon="34.125599"><ele>130.2</ele><time>2011-10-13T13:00:56.0000000+00:00</time></trkpt><trkpt lat="44.433586" lon="34.125603"><ele>130.2</ele><time>2011-10-13T13:01:01.0000000+00:00</time></trkpt><trkpt lat="44.433586" lon="34.125603"><ele>130.2</ele><time>2011-10-13T13:01:06.0000000+00:00</time></trkpt><trkpt lat="44.433586" lon="34.125603"><ele>130.2</ele><time>2011-10-13T13:01:11.0000000+00:00</time></trkpt><trkpt lat="44.433586" lon="34.125603"><ele>130.2</ele><time>2011-10-13T13:01:16.0000000+00:00</time></trkpt><trkpt lat="44.433586" lon="34.125603"><ele>130.2</ele><time>2011-10-13T13:01:21.0000000+00:00</time></trkpt><trkpt lat="44.433586" lon="34.125603"><ele>130.2</ele><time>2011-10-13T13:01:26.0000000+00:00</time></trkpt><trkpt lat="44.433586" lon="34.125603"><ele>130.2</ele><time>2011-10-13T13:01:31.0000000+00:00</time></trkpt><trkpt lat="44.433586" lon="34.125603"><ele>130.2</ele><time>2011-10-13T13:01:36.0000000+00:00</time></trkpt><trkpt lat="44.433586" lon="34.125603"><ele>130.2</ele><time>2011-10-13T13:01:41.0000000+00:00</time></trkpt><trkpt lat="44.433586" lon="34.125603"><ele>130.2</ele><time>2011-10-13T13:01:46.0000000+00:00</time></trkpt><trkpt lat="44.433586" lon="34.125603"><ele>130.2</ele><time>2011-10-13T13:01:51.0000000+00:00</time></trkpt><trkpt lat="44.433586" lon="34.125599"><ele>130.2</ele><time>2011-10-13T13:01:56.0000000+00:00</time></trkpt><trkpt lat="44.433586" lon="34.125599"><ele>130.2</ele><time>2011-10-13T13:02:01.0000000+00:00</time></trkpt><trkpt lat="44.433586" lon="34.125595"><ele>130.2</ele><time>2011-10-13T13:02:06.0000000+00:00</time></trkpt><trkpt lat="44.433586" lon="34.125595"><ele>130.2</ele><time>2011-10-13T13:02:11.0000000+00:00</time></trkpt><trkpt lat="44.433586" lon="34.125595"><ele>130.2</ele><time>2011-10-13T13:02:16.0000000+00:00</time></trkpt><trkpt lat="44.433586" lon="34.125595"><ele>130.2</ele><time>2011-10-13T13:02:21.0000000+00:00</time></trkpt><trkpt lat="44.433586" lon="34.125595"><ele>130.2</ele><time>2011-10-13T13:02:26.0000000+00:00</time></trkpt><trkpt lat="44.433586" lon="34.125595"><ele>130.2</ele><time>2011-10-13T13:02:31.0000000+00:00</time></trkpt><trkpt lat="44.433586" lon="34.125599"><ele>130.2</ele><time>2011-10-13T13:02:36.0000000+00:00</time></trkpt><trkpt lat="44.433586" lon="34.125614"><ele>130.2</ele><time>2011-10-13T13:02:41.0000000+00:00</time></trkpt><trkpt lat="44.433559" lon="34.125694"><ele>129.8</ele><time>2011-10-13T13:02:46.0000000+00:00</time></trkpt><trkpt lat="44.433483" lon="34.125767"><ele>129.5</ele><time>2011-10-13T13:02:51.0000000+00:00</time></trkpt><trkpt lat="44.43343" lon="34.125793"><ele>129.3</ele><time>2011-10-13T13:02:56.0000000+00:00</time></trkpt><trkpt lat="44.433395" lon="34.125851"><ele>129.1</ele><time>2011-10-13T13:03:01.0000000+00:00</time></trkpt><trkpt lat="44.433369" lon="34.125854"><ele>128.9</ele><time>2011-10-13T13:03:06.0000000+00:00</time></trkpt><trkpt lat="44.433323" lon="34.125874"><ele>128.7</ele><time>2011-10-13T13:03:11.0000000+00:00</time></trkpt><trkpt lat="44.433315" lon="34.125877"><ele>128.4</ele><time>2011-10-13T13:03:16.0000000+00:00</time></trkpt><trkpt lat="44.433285" lon="34.125835"><ele>128.0</ele><time>2011-10-13T13:03:21.0000000+00:00</time></trkpt><trkpt lat="44.433266" lon="34.125801"><ele>127.7</ele><time>2011-10-13T13:03:26.0000000+00:00</time></trkpt><trkpt lat="44.433243" lon="34.125748"><ele>127.4</ele><time>2011-10-13T13:03:31.0000000+00:00</time></trkpt><trkpt lat="44.433273" lon="34.125652"><ele>127.0</ele><time>2011-10-13T13:03:36.0000000+00:00</time></trkpt><trkpt lat="44.433254" lon="34.125687"><ele>126.7</ele><time>2011-10-13T13:03:41.0000000+00:00</time></trkpt><trkpt lat="44.433247" lon="34.12571"><ele>126.6</ele><time>2011-10-13T13:03:46.0000000+00:00</time></trkpt><trkpt lat="44.433189" lon="34.125748"><ele>125.8</ele><time>2011-10-13T13:03:51.0000000+00:00</time></trkpt><trkpt lat="44.433159" lon="34.125786"><ele>125.2</ele><time>2011-10-13T13:03:56.0000000+00:00</time></trkpt><trkpt lat="44.433163" lon="34.125835"><ele>124.6</ele><time>2011-10-13T13:04:01.0000000+00:00</time></trkpt><trkpt lat="44.433159" lon="34.125881"><ele>124.2</ele><time>2011-10-13T13:04:06.0000000+00:00</time></trkpt><trkpt lat="44.433144" lon="34.125896"><ele>123.8</ele><time>2011-10-13T13:04:11.0000000+00:00</time></trkpt><trkpt lat="44.433136" lon="34.125893"><ele>123.4</ele><time>2011-10-13T13:04:16.0000000+00:00</time></trkpt><trkpt lat="44.433128" lon="34.1259"><ele>123.2</ele><time>2011-10-13T13:04:21.0000000+00:00</time></trkpt><trkpt lat="44.433067" lon="34.125946"><ele>122.3</ele><time>2011-10-13T13:04:26.0000000+00:00</time></trkpt><trkpt lat="44.433041" lon="34.125992"><ele>119.9</ele><time>2011-10-13T13:04:31.0000000+00:00</time></trkpt><trkpt lat="44.433025" lon="34.126064"><ele>117.0</ele><time>2011-10-13T13:04:36.0000000+00:00</time></trkpt><trkpt lat="44.432995" lon="34.126137"><ele>114.5</ele><time>2011-10-13T13:04:41.0000000+00:00</time></trkpt><trkpt lat="44.432961" lon="34.126213"><ele>111.9</ele><time>2011-10-13T13:04:46.0000000+00:00</time></trkpt><trkpt lat="44.432938" lon="34.126266"><ele>108.1</ele><time>2011-10-13T13:04:51.0000000+00:00</time></trkpt><trkpt lat="44.432899" lon="34.126328"><ele>105.6</ele><time>2011-10-13T13:04:56.0000000+00:00</time></trkpt><trkpt lat="44.432842" lon="34.126385"><ele>102.5</ele><time>2011-10-13T13:05:01.0000000+00:00</time></trkpt><trkpt lat="44.432835" lon="34.126446"><ele>99.8</ele><time>2011-10-13T13:05:06.0000000+00:00</time></trkpt><trkpt lat="44.432861" lon="34.126534"><ele>96.7</ele><time>2011-10-13T13:05:11.0000000+00:00</time></trkpt><trkpt lat="44.432816" lon="34.126587"><ele>94.4</ele><time>2011-10-13T13:05:16.0000000+00:00</time></trkpt><trkpt lat="44.432789" lon="34.126667"><ele>92.4</ele><time>2011-10-13T13:05:21.0000000+00:00</time></trkpt><trkpt lat="44.432739" lon="34.126694"><ele>90.5</ele><time>2011-10-13T13:05:26.0000000+00:00</time></trkpt><trkpt lat="44.432716" lon="34.126747"><ele>87.9</ele><time>2011-10-13T13:05:31.0000000+00:00</time></trkpt><trkpt lat="44.432693" lon="34.126797"><ele>87.4</ele><time>2011-10-13T13:05:36.0000000+00:00</time></trkpt><trkpt lat="44.432663" lon="34.126842"><ele>85.4</ele><time>2011-10-13T13:05:41.0000000+00:00</time></trkpt><trkpt lat="44.432629" lon="34.1269"><ele>83.3</ele><time>2011-10-13T13:05:46.0000000+00:00</time></trkpt><trkpt lat="44.43264" lon="34.127007"><ele>80.2</ele><time>2011-10-13T13:05:51.0000000+00:00</time></trkpt><trkpt lat="44.432613" lon="34.127041"><ele>78.0</ele><time>2011-10-13T13:05:56.0000000+00:00</time></trkpt><trkpt lat="44.432571" lon="34.127045"><ele>75.3</ele><time>2011-10-13T13:06:01.0000000+00:00</time></trkpt><trkpt lat="44.432564" lon="34.127064"><ele>73.7</ele><time>2011-10-13T13:06:06.0000000+00:00</time></trkpt><trkpt lat="44.43256" lon="34.127071"><ele>72.5</ele><time>2011-10-13T13:06:11.0000000+00:00</time></trkpt><trkpt lat="44.432552" lon="34.127075"><ele>71.3</ele><time>2011-10-13T13:06:16.0000000+00:00</time></trkpt><trkpt lat="44.432549" lon="34.127075"><ele>70.0</ele><time>2011-10-13T13:06:21.0000000+00:00</time></trkpt><trkpt lat="44.432533" lon="34.127083"><ele>70.1</ele><time>2011-10-13T13:06:26.0000000+00:00</time></trkpt><trkpt lat="44.432507" lon="34.127102"><ele>67.7</ele><time>2011-10-13T13:06:31.0000000+00:00</time></trkpt><trkpt lat="44.432503" lon="34.127098"><ele>65.2</ele><time>2011-10-13T13:06:36.0000000+00:00</time></trkpt><trkpt lat="44.432461" lon="34.12709"><ele>62.3</ele><time>2011-10-13T13:06:41.0000000+00:00</time></trkpt><trkpt lat="44.432438" lon="34.127075"><ele>60.6</ele><time>2011-10-13T13:06:46.0000000+00:00</time></trkpt><trkpt lat="44.432381" lon="34.127117"><ele>61.8</ele><time>2011-10-13T13:06:51.0000000+00:00</time></trkpt><trkpt lat="44.432396" lon="34.127201"><ele>56.9</ele><time>2011-10-13T13:06:56.0000000+00:00</time></trkpt><trkpt lat="44.432396" lon="34.127243"><ele>52.7</ele><time>2011-10-13T13:07:01.0000000+00:00</time></trkpt><trkpt lat="44.432404" lon="34.127254"><ele>50.3</ele><time>2011-10-13T13:07:06.0000000+00:00</time></trkpt><trkpt lat="44.4324" lon="34.127258"><ele>49.0</ele><time>2011-10-13T13:07:11.0000000+00:00</time></trkpt><trkpt lat="44.432373" lon="34.127243"><ele>48.6</ele><time>2011-10-13T13:07:16.0000000+00:00</time></trkpt><trkpt lat="44.432354" lon="34.127228"><ele>47.7</ele><time>2011-10-13T13:07:21.0000000+00:00</time></trkpt><trkpt lat="44.432339" lon="34.127216"><ele>47.6</ele><time>2011-10-13T13:07:26.0000000+00:00</time></trkpt><trkpt lat="44.432278" lon="34.127178"><ele>45.7</ele><time>2011-10-13T13:07:31.0000000+00:00</time></trkpt><trkpt lat="44.432266" lon="34.127171"><ele>44.7</ele><time>2011-10-13T13:07:36.0000000+00:00</time></trkpt><trkpt lat="44.432255" lon="34.127171"><ele>43.8</ele><time>2011-10-13T13:07:41.0000000+00:00</time></trkpt><trkpt lat="44.432255" lon="34.127171"><ele>43.1</ele><time>2011-10-13T13:07:46.0000000+00:00</time></trkpt><trkpt lat="44.432255" lon="34.127167"><ele>42.4</ele><time>2011-10-13T13:07:51.0000000+00:00</time></trkpt><trkpt lat="44.432255" lon="34.127159"><ele>41.6</ele><time>2011-10-13T13:07:56.0000000+00:00</time></trkpt><trkpt lat="44.432255" lon="34.127151"><ele>40.8</ele><time>2011-10-13T13:08:01.0000000+00:00</time></trkpt><trkpt lat="44.432251" lon="34.127144"><ele>40.0</ele><time>2011-10-13T13:08:06.0000000+00:00</time></trkpt><trkpt lat="44.43224" lon="34.127083"><ele>39.1</ele><time>2011-10-13T13:08:11.0000000+00:00</time></trkpt><trkpt lat="44.432213" lon="34.126995"><ele>38.5</ele><time>2011-10-13T13:08:16.0000000+00:00</time></trkpt><trkpt lat="44.432217" lon="34.127022"><ele>37.9</ele><time>2011-10-13T13:08:21.0000000+00:00</time></trkpt><trkpt lat="44.432209" lon="34.127022"><ele>37.9</ele><time>2011-10-13T13:08:26.0000000+00:00</time></trkpt><trkpt lat="44.432205" lon="34.127018"><ele>37.3</ele><time>2011-10-13T13:08:31.0000000+00:00</time></trkpt><trkpt lat="44.432201" lon="34.127007"><ele>36.8</ele><time>2011-10-13T13:08:36.0000000+00:00</time></trkpt><trkpt lat="44.432194" lon="34.127007"><ele>36.1</ele><time>2011-10-13T13:08:41.0000000+00:00</time></trkpt><trkpt lat="44.432194" lon="34.127022"><ele>35.5</ele><time>2011-10-13T13:08:46.0000000+00:00</time></trkpt><trkpt lat="44.43227" lon="34.127117"><ele>33.6</ele><time>2011-10-13T13:08:51.0000000+00:00</time></trkpt><trkpt lat="44.43227" lon="34.127224"><ele>32.3</ele><time>2011-10-13T13:08:56.0000000+00:00</time></trkpt><trkpt lat="44.432228" lon="34.127239"><ele>30.9</ele><time>2011-10-13T13:09:01.0000000+00:00</time></trkpt><trkpt lat="44.432163" lon="34.127235"><ele>28.9</ele><time>2011-10-13T13:09:06.0000000+00:00</time></trkpt><trkpt lat="44.432095" lon="34.127209"><ele>26.7</ele><time>2011-10-13T13:09:11.0000000+00:00</time></trkpt><trkpt lat="44.432076" lon="34.127186"><ele>25.4</ele><time>2011-10-13T13:09:16.0000000+00:00</time></trkpt><trkpt lat="44.432091" lon="34.127094"><ele>24.1</ele><time>2011-10-13T13:09:21.0000000+00:00</time></trkpt><trkpt lat="44.43206" lon="34.127071"><ele>22.7</ele><time>2011-10-13T13:09:26.0000000+00:00</time></trkpt><trkpt lat="44.43206" lon="34.127098"><ele>20.7</ele><time>2011-10-13T13:09:31.0000000+00:00</time></trkpt><trkpt lat="44.432064" lon="34.127132"><ele>19.3</ele><time>2011-10-13T13:09:36.0000000+00:00</time></trkpt><trkpt lat="44.43206" lon="34.127136"><ele>18.4</ele><time>2011-10-13T13:09:41.0000000+00:00</time></trkpt><trkpt lat="44.432037" lon="34.127167"><ele>18.1</ele><time>2011-10-13T13:09:46.0000000+00:00</time></trkpt><trkpt lat="44.432011" lon="34.127193"><ele>18.6</ele><time>2011-10-13T13:09:51.0000000+00:00</time></trkpt><trkpt lat="44.431957" lon="34.127243"><ele>21.3</ele><time>2011-10-13T13:09:56.0000000+00:00</time></trkpt><trkpt lat="44.431938" lon="34.127281"><ele>22.2</ele><time>2011-10-13T13:10:01.0000000+00:00</time></trkpt><trkpt lat="44.43185" lon="34.127293"><ele>20.4</ele><time>2011-10-13T13:10:06.0000000+00:00</time></trkpt><trkpt lat="44.431755" lon="34.127262"><ele>18.7</ele><time>2011-10-13T13:10:11.0000000+00:00</time></trkpt><trkpt lat="44.431728" lon="34.127258"><ele>19.4</ele><time>2011-10-13T13:10:16.0000000+00:00</time></trkpt><trkpt lat="44.431694" lon="34.127316"><ele>22.4</ele><time>2011-10-13T13:10:21.0000000+00:00</time></trkpt><trkpt lat="44.43169" lon="34.127357"><ele>24.5</ele><time>2011-10-13T13:10:26.0000000+00:00</time></trkpt><trkpt lat="44.431641" lon="34.127403"><ele>27.0</ele><time>2011-10-13T13:10:31.0000000+00:00</time></trkpt><trkpt lat="44.431618" lon="34.127457"><ele>30.1</ele><time>2011-10-13T13:10:36.0000000+00:00</time></trkpt><trkpt lat="44.431614" lon="34.12751"><ele>32.1</ele><time>2011-10-13T13:10:41.0000000+00:00</time></trkpt><trkpt lat="44.43161" lon="34.127548"><ele>34.1</ele><time>2011-10-13T13:10:46.0000000+00:00</time></trkpt><trkpt lat="44.431614" lon="34.127602"><ele>35.5</ele><time>2011-10-13T13:10:51.0000000+00:00</time></trkpt><trkpt lat="44.431583" lon="34.127628"><ele>37.5</ele><time>2011-10-13T13:10:56.0000000+00:00</time></trkpt><trkpt lat="44.431473" lon="34.127636"><ele>39.5</ele><time>2011-10-13T13:11:01.0000000+00:00</time></trkpt><trkpt lat="44.431377" lon="34.127682"><ele>39.7</ele><time>2011-10-13T13:11:06.0000000+00:00</time></trkpt><trkpt lat="44.431313" lon="34.127701"><ele>40.5</ele><time>2011-10-13T13:11:11.0000000+00:00</time></trkpt><trkpt lat="44.43129" lon="34.12772"><ele>41.6</ele><time>2011-10-13T13:11:16.0000000+00:00</time></trkpt><trkpt lat="44.431267" lon="34.127777"><ele>41.7</ele><time>2011-10-13T13:11:21.0000000+00:00</time></trkpt><trkpt lat="44.431274" lon="34.127876"><ele>41.9</ele><time>2011-10-13T13:11:26.0000000+00:00</time></trkpt><trkpt lat="44.431252" lon="34.127911"><ele>42.7</ele><time>2011-10-13T13:11:31.0000000+00:00</time></trkpt><trkpt lat="44.431213" lon="34.127937"><ele>43.3</ele><time>2011-10-13T13:11:36.0000000+00:00</time></trkpt><trkpt lat="44.431164" lon="34.127934"><ele>43.6</ele><time>2011-10-13T13:11:41.0000000+00:00</time></trkpt><trkpt lat="44.431114" lon="34.127895"><ele>43.9</ele><time>2011-10-13T13:11:46.0000000+00:00</time></trkpt><trkpt lat="44.431053" lon="34.127861"><ele>44.3</ele><time>2011-10-13T13:11:51.0000000+00:00</time></trkpt><trkpt lat="44.430988" lon="34.127831"><ele>45.0</ele><time>2011-10-13T13:11:56.0000000+00:00</time></trkpt><trkpt lat="44.43092" lon="34.127811"><ele>45.7</ele><time>2011-10-13T13:12:01.0000000+00:00</time></trkpt><trkpt lat="44.430866" lon="34.127792"><ele>46.3</ele><time>2011-10-13T13:12:06.0000000+00:00</time></trkpt><trkpt lat="44.430832" lon="34.127777"><ele>47.1</ele><time>2011-10-13T13:12:11.0000000+00:00</time></trkpt><trkpt lat="44.430809" lon="34.127754"><ele>47.7</ele><time>2011-10-13T13:12:16.0000000+00:00</time></trkpt><trkpt lat="44.430809" lon="34.127777"><ele>47.9</ele><time>2011-10-13T13:12:21.0000000+00:00</time></trkpt><trkpt lat="44.43079" lon="34.127785"><ele>48.2</ele><time>2011-10-13T13:12:26.0000000+00:00</time></trkpt><trkpt lat="44.430771" lon="34.127766"><ele>48.5</ele><time>2011-10-13T13:12:31.0000000+00:00</time></trkpt><trkpt lat="44.430779" lon="34.127712"><ele>48.8</ele><time>2011-10-13T13:12:36.0000000+00:00</time></trkpt><trkpt lat="44.430801" lon="34.127579"><ele>49.3</ele><time>2011-10-13T13:12:41.0000000+00:00</time></trkpt><trkpt lat="44.430798" lon="34.127563"><ele>50.2</ele><time>2011-10-13T13:12:46.0000000+00:00</time></trkpt><trkpt lat="44.430801" lon="34.12756"><ele>51.1</ele><time>2011-10-13T13:12:51.0000000+00:00</time></trkpt><trkpt lat="44.430805" lon="34.127552"><ele>51.9</ele><time>2011-10-13T13:12:56.0000000+00:00</time></trkpt><trkpt lat="44.430809" lon="34.127548"><ele>52.7</ele><time>2011-10-13T13:13:01.0000000+00:00</time></trkpt><trkpt lat="44.430817" lon="34.127548"><ele>53.4</ele><time>2011-10-13T13:13:06.0000000+00:00</time></trkpt><trkpt lat="44.43082" lon="34.127548"><ele>54.0</ele><time>2011-10-13T13:13:11.0000000+00:00</time></trkpt><trkpt lat="44.430817" lon="34.127544"><ele>54.6</ele><time>2011-10-13T13:13:16.0000000+00:00</time></trkpt><trkpt lat="44.430813" lon="34.127541"><ele>55.0</ele><time>2011-10-13T13:13:21.0000000+00:00</time></trkpt><trkpt lat="44.430809" lon="34.127529"><ele>55.3</ele><time>2011-10-13T13:13:26.0000000+00:00</time></trkpt><trkpt lat="44.430805" lon="34.12743"><ele>54.6</ele><time>2011-10-13T13:13:31.0000000+00:00</time></trkpt><trkpt lat="44.430782" lon="34.12735"><ele>53.5</ele><time>2011-10-13T13:13:36.0000000+00:00</time></trkpt><trkpt lat="44.430748" lon="34.127304"><ele>52.2</ele><time>2011-10-13T13:13:41.0000000+00:00</time></trkpt><trkpt lat="44.430729" lon="34.127296"><ele>51.5</ele><time>2011-10-13T13:13:46.0000000+00:00</time></trkpt><trkpt lat="44.430729" lon="34.127316"><ele>50.5</ele><time>2011-10-13T13:13:51.0000000+00:00</time></trkpt><trkpt lat="44.430725" lon="34.127308"><ele>50.4</ele><time>2011-10-13T13:13:56.0000000+00:00</time></trkpt><trkpt lat="44.430717" lon="34.127304"><ele>50.1</ele><time>2011-10-13T13:14:01.0000000+00:00</time></trkpt><trkpt lat="44.43071" lon="34.127296"><ele>49.8</ele><time>2011-10-13T13:14:06.0000000+00:00</time></trkpt><trkpt lat="44.430683" lon="34.127293"><ele>47.3</ele><time>2011-10-13T13:14:11.0000000+00:00</time></trkpt><trkpt lat="44.43066" lon="34.12727"><ele>44.9</ele><time>2011-10-13T13:14:16.0000000+00:00</time></trkpt><trkpt lat="44.43066" lon="34.127235"><ele>43.1</ele><time>2011-10-13T13:14:21.0000000+00:00</time></trkpt><trkpt lat="44.43063" lon="34.127213"><ele>41.0</ele><time>2011-10-13T13:14:26.0000000+00:00</time></trkpt><trkpt lat="44.430576" lon="34.12714"><ele>37.5</ele><time>2011-10-13T13:14:31.0000000+00:00</time></trkpt><trkpt lat="44.430576" lon="34.127094"><ele>36.6</ele><time>2011-10-13T13:14:36.0000000+00:00</time></trkpt><trkpt lat="44.430576" lon="34.127106"><ele>35.8</ele><time>2011-10-13T13:14:41.0000000+00:00</time></trkpt><trkpt lat="44.430595" lon="34.12714"><ele>33.7</ele><time>2011-10-13T13:14:46.0000000+00:00</time></trkpt><trkpt lat="44.430603" lon="34.127144"><ele>32.1</ele><time>2011-10-13T13:14:51.0000000+00:00</time></trkpt><trkpt lat="44.430607" lon="34.127144"><ele>31.2</ele><time>2011-10-13T13:14:56.0000000+00:00</time></trkpt><trkpt lat="44.430611" lon="34.127155"><ele>30.3</ele><time>2011-10-13T13:15:01.0000000+00:00</time></trkpt><trkpt lat="44.430618" lon="34.127171"><ele>29.5</ele><time>2011-10-13T13:15:06.0000000+00:00</time></trkpt><trkpt lat="44.430634" lon="34.12722"><ele>29.4</ele><time>2011-10-13T13:15:11.0000000+00:00</time></trkpt><trkpt lat="44.430653" lon="34.127277"><ele>29.1</ele><time>2011-10-13T13:15:16.0000000+00:00</time></trkpt><trkpt lat="44.430672" lon="34.127346"><ele>28.4</ele><time>2011-10-13T13:15:21.0000000+00:00</time></trkpt><trkpt lat="44.430649" lon="34.127548"><ele>27.8</ele><time>2011-10-13T13:15:26.0000000+00:00</time></trkpt><trkpt lat="44.430649" lon="34.127617"><ele>27.3</ele><time>2011-10-13T13:15:31.0000000+00:00</time></trkpt><trkpt lat="44.430645" lon="34.127625"><ele>27.1</ele><time>2011-10-13T13:15:36.0000000+00:00</time></trkpt><trkpt lat="44.430706" lon="34.127605"><ele>27.0</ele><time>2011-10-13T13:15:41.0000000+00:00</time></trkpt><trkpt lat="44.430683" lon="34.127632"><ele>28.6</ele><time>2011-10-13T13:15:46.0000000+00:00</time></trkpt><trkpt lat="44.43066" lon="34.127644"><ele>29.4</ele><time>2011-10-13T13:15:51.0000000+00:00</time></trkpt><trkpt lat="44.430679" lon="34.127655"><ele>30.0</ele><time>2011-10-13T13:15:56.0000000+00:00</time></trkpt><trkpt lat="44.43066" lon="34.127682"><ele>30.2</ele><time>2011-10-13T13:16:01.0000000+00:00</time></trkpt><trkpt lat="44.430626" lon="34.127647"><ele>30.9</ele><time>2011-10-13T13:16:06.0000000+00:00</time></trkpt><trkpt lat="44.430576" lon="34.12759"><ele>31.6</ele><time>2011-10-13T13:16:11.0000000+00:00</time></trkpt><trkpt lat="44.430565" lon="34.127579"><ele>32.4</ele><time>2011-10-13T13:16:16.0000000+00:00</time></trkpt><trkpt lat="44.430511" lon="34.127583"><ele>32.4</ele><time>2011-10-13T13:16:21.0000000+00:00</time></trkpt><trkpt lat="44.430492" lon="34.127602"><ele>33.0</ele><time>2011-10-13T13:16:26.0000000+00:00</time></trkpt><trkpt lat="44.430492" lon="34.127644"><ele>33.5</ele><time>2011-10-13T13:16:31.0000000+00:00</time></trkpt><trkpt lat="44.430481" lon="34.12772"><ele>35.3</ele><time>2011-10-13T13:16:36.0000000+00:00</time></trkpt><trkpt lat="44.430489" lon="34.127808"><ele>37.7</ele><time>2011-10-13T13:16:41.0000000+00:00</time></trkpt><trkpt lat="44.430492" lon="34.12788"><ele>40.6</ele><time>2011-10-13T13:16:46.0000000+00:00</time></trkpt><trkpt lat="44.430504" lon="34.12796"><ele>44.6</ele><time>2011-10-13T13:16:51.0000000+00:00</time></trkpt><trkpt lat="44.430531" lon="34.128052"><ele>47.8</ele><time>2011-10-13T13:16:56.0000000+00:00</time></trkpt><trkpt lat="44.430527" lon="34.128098"><ele>50.6</ele><time>2011-10-13T13:17:01.0000000+00:00</time></trkpt><trkpt lat="44.430515" lon="34.128113"><ele>52.0</ele><time>2011-10-13T13:17:06.0000000+00:00</time></trkpt><trkpt lat="44.430511" lon="34.128124"><ele>52.9</ele><time>2011-10-13T13:17:11.0000000+00:00</time></trkpt><trkpt lat="44.430511" lon="34.128128"><ele>53.7</ele><time>2011-10-13T13:17:16.0000000+00:00</time></trkpt><trkpt lat="44.43047" lon="34.128166"><ele>51.9</ele><time>2011-10-13T13:17:21.0000000+00:00</time></trkpt><trkpt lat="44.43045" lon="34.128239"><ele>51.3</ele><time>2011-10-13T13:17:26.0000000+00:00</time></trkpt><trkpt lat="44.430454" lon="34.128315"><ele>51.3</ele><time>2011-10-13T13:17:31.0000000+00:00</time></trkpt><trkpt lat="44.430462" lon="34.128395"><ele>51.3</ele><time>2011-10-13T13:17:36.0000000+00:00</time></trkpt><trkpt lat="44.43047" lon="34.128628"><ele>50.8</ele><time>2011-10-13T13:17:41.0000000+00:00</time></trkpt><trkpt lat="44.430511" lon="34.128647"><ele>50.6</ele><time>2011-10-13T13:17:46.0000000+00:00</time></trkpt><trkpt lat="44.430561" lon="34.128677"><ele>50.2</ele><time>2011-10-13T13:17:51.0000000+00:00</time></trkpt><trkpt lat="44.430592" lon="34.128708"><ele>49.9</ele><time>2011-10-13T13:17:56.0000000+00:00</time></trkpt><trkpt lat="44.430672" lon="34.128708"><ele>49.2</ele><time>2011-10-13T13:18:01.0000000+00:00</time></trkpt><trkpt lat="44.430706" lon="34.128681"><ele>48.6</ele><time>2011-10-13T13:18:06.0000000+00:00</time></trkpt><trkpt lat="44.43074" lon="34.128635"><ele>47.8</ele><time>2011-10-13T13:18:11.0000000+00:00</time></trkpt><trkpt lat="44.430744" lon="34.128597"><ele>47.9</ele><time>2011-10-13T13:18:16.0000000+00:00</time></trkpt><trkpt lat="44.430706" lon="34.128525"><ele>47.7</ele><time>2011-10-13T13:18:21.0000000+00:00</time></trkpt><trkpt lat="44.430683" lon="34.128429"><ele>47.9</ele><time>2011-10-13T13:18:26.0000000+00:00</time></trkpt><trkpt lat="44.430622" lon="34.128372"><ele>48.0</ele><time>2011-10-13T13:18:31.0000000+00:00</time></trkpt><trkpt lat="44.430569" lon="34.128365"><ele>48.1</ele><time>2011-10-13T13:18:36.0000000+00:00</time></trkpt><trkpt lat="44.430542" lon="34.128391"><ele>48.7</ele><time>2011-10-13T13:18:41.0000000+00:00</time></trkpt><trkpt lat="44.430492" lon="34.12841"><ele>47.5</ele><time>2011-10-13T13:18:46.0000000+00:00</time></trkpt><trkpt lat="44.430492" lon="34.128418"><ele>47.7</ele><time>2011-10-13T13:18:51.0000000+00:00</time></trkpt><trkpt lat="44.430492" lon="34.128429"><ele>47.8</ele><time>2011-10-13T13:18:56.0000000+00:00</time></trkpt><trkpt lat="44.430496" lon="34.128426"><ele>48.0</ele><time>2011-10-13T13:19:01.0000000+00:00</time></trkpt><trkpt lat="44.430496" lon="34.128418"><ele>48.2</ele><time>2011-10-13T13:19:06.0000000+00:00</time></trkpt><trkpt lat="44.4305" lon="34.128418"><ele>48.4</ele><time>2011-10-13T13:19:11.0000000+00:00</time></trkpt><trkpt lat="44.4305" lon="34.12841"><ele>48.7</ele><time>2011-10-13T13:19:16.0000000+00:00</time></trkpt><trkpt lat="44.430504" lon="34.128407"><ele>49.0</ele><time>2011-10-13T13:19:21.0000000+00:00</time></trkpt><trkpt lat="44.430504" lon="34.128407"><ele>49.2</ele><time>2011-10-13T13:19:26.0000000+00:00</time></trkpt><trkpt lat="44.430519" lon="34.128407"><ele>49.5</ele><time>2011-10-13T13:19:31.0000000+00:00</time></trkpt><trkpt lat="44.430489" lon="34.128414"><ele>48.6</ele><time>2011-10-13T13:19:36.0000000+00:00</time></trkpt><trkpt lat="44.430477" lon="34.128391"><ele>49.0</ele><time>2011-10-13T13:19:41.0000000+00:00</time></trkpt><trkpt lat="44.430473" lon="34.128384"><ele>49.2</ele><time>2011-10-13T13:19:46.0000000+00:00</time></trkpt><trkpt lat="44.43047" lon="34.128376"><ele>49.4</ele><time>2011-10-13T13:19:51.0000000+00:00</time></trkpt><trkpt lat="44.43047" lon="34.128372"><ele>49.6</ele><time>2011-10-13T13:19:56.0000000+00:00</time></trkpt><trkpt lat="44.43047" lon="34.128368"><ele>49.9</ele><time>2011-10-13T13:20:01.0000000+00:00</time></trkpt><trkpt lat="44.43047" lon="34.128365"><ele>50.1</ele><time>2011-10-13T13:20:06.0000000+00:00</time></trkpt><trkpt lat="44.43047" lon="34.128365"><ele>50.2</ele><time>2011-10-13T13:20:11.0000000+00:00</time></trkpt><trkpt lat="44.43047" lon="34.128365"><ele>50.1</ele><time>2011-10-13T13:20:16.0000000+00:00</time></trkpt><trkpt lat="44.43047" lon="34.128368"><ele>50.1</ele><time>2011-10-13T13:20:21.0000000+00:00</time></trkpt><trkpt lat="44.43047" lon="34.128368"><ele>50.1</ele><time>2011-10-13T13:20:26.0000000+00:00</time></trkpt><trkpt lat="44.43047" lon="34.128368"><ele>50.1</ele><time>2011-10-13T13:20:31.0000000+00:00</time></trkpt><trkpt lat="44.43047" lon="34.128368"><ele>50.1</ele><time>2011-10-13T13:20:36.0000000+00:00</time></trkpt><trkpt lat="44.43047" lon="34.128368"><ele>50.1</ele><time>2011-10-13T13:20:41.0000000+00:00</time></trkpt><trkpt lat="44.43047" lon="34.128368"><ele>50.1</ele><time>2011-10-13T13:20:46.0000000+00:00</time></trkpt><trkpt lat="44.43047" lon="34.128368"><ele>50.0</ele><time>2011-10-13T13:20:51.0000000+00:00</time></trkpt><trkpt lat="44.43047" lon="34.128372"><ele>50.0</ele><time>2011-10-13T13:20:56.0000000+00:00</time></trkpt><trkpt lat="44.430473" lon="34.128376"><ele>49.7</ele><time>2011-10-13T13:21:01.0000000+00:00</time></trkpt><trkpt lat="44.430481" lon="34.128399"><ele>49.6</ele><time>2011-10-13T13:21:06.0000000+00:00</time></trkpt><trkpt lat="44.430489" lon="34.128399"><ele>49.2</ele><time>2011-10-13T13:21:11.0000000+00:00</time></trkpt><trkpt lat="44.430489" lon="34.128414"><ele>49.3</ele><time>2011-10-13T13:21:16.0000000+00:00</time></trkpt><trkpt lat="44.430489" lon="34.128403"><ele>49.0</ele><time>2011-10-13T13:21:21.0000000+00:00</time></trkpt><trkpt lat="44.430492" lon="34.128407"><ele>49.0</ele><time>2011-10-13T13:21:26.0000000+00:00</time></trkpt><trkpt lat="44.430496" lon="34.128395"><ele>48.6</ele><time>2011-10-13T13:21:31.0000000+00:00</time></trkpt><trkpt lat="44.430496" lon="34.128387"><ele>48.3</ele><time>2011-10-13T13:21:36.0000000+00:00</time></trkpt><trkpt lat="44.4305" lon="34.128357"><ele>48.2</ele><time>2011-10-13T13:21:41.0000000+00:00</time></trkpt><trkpt lat="44.430508" lon="34.128353"><ele>47.7</ele><time>2011-10-13T13:21:46.0000000+00:00</time></trkpt><trkpt lat="44.430508" lon="34.128345"><ele>47.0</ele><time>2011-10-13T13:21:51.0000000+00:00</time></trkpt><trkpt lat="44.430504" lon="34.128349"><ele>45.8</ele><time>2011-10-13T13:21:56.0000000+00:00</time></trkpt><trkpt lat="44.430489" lon="34.128372"><ele>45.6</ele><time>2011-10-13T13:22:01.0000000+00:00</time></trkpt><trkpt lat="44.430496" lon="34.128372"><ele>44.9</ele><time>2011-10-13T13:22:06.0000000+00:00</time></trkpt><trkpt lat="44.430492" lon="34.128368"><ele>45.0</ele><time>2011-10-13T13:22:11.0000000+00:00</time></trkpt><trkpt lat="44.4305" lon="34.128368"><ele>46.8</ele><time>2011-10-13T13:22:16.0000000+00:00</time></trkpt><trkpt lat="44.430492" lon="34.128372"><ele>46.2</ele><time>2011-10-13T13:22:21.0000000+00:00</time></trkpt><trkpt lat="44.430485" lon="34.128368"><ele>45.7</ele><time>2011-10-13T13:22:26.0000000+00:00</time></trkpt><trkpt lat="44.430477" lon="34.128372"><ele>45.7</ele><time>2011-10-13T13:22:31.0000000+00:00</time></trkpt><trkpt lat="44.430485" lon="34.128368"><ele>44.6</ele><time>2011-10-13T13:22:36.0000000+00:00</time></trkpt><trkpt lat="44.430481" lon="34.128365"><ele>44.4</ele><time>2011-10-13T13:22:41.0000000+00:00</time></trkpt><trkpt lat="44.430489" lon="34.128365"><ele>44.0</ele><time>2011-10-13T13:22:46.0000000+00:00</time></trkpt><trkpt lat="44.430492" lon="34.128353"><ele>44.6</ele><time>2011-10-13T13:22:51.0000000+00:00</time></trkpt><trkpt lat="44.4305" lon="34.128342"><ele>44.7</ele><time>2011-10-13T13:22:56.0000000+00:00</time></trkpt><trkpt lat="44.430508" lon="34.128353"><ele>44.2</ele><time>2011-10-13T13:23:01.0000000+00:00</time></trkpt><trkpt lat="44.430523" lon="34.128342"><ele>43.7</ele><time>2011-10-13T13:23:06.0000000+00:00</time></trkpt><trkpt lat="44.430565" lon="34.128323"><ele>41.2</ele><time>2011-10-13T13:23:11.0000000+00:00</time></trkpt><trkpt lat="44.43058" lon="34.128288"><ele>40.4</ele><time>2011-10-13T13:23:16.0000000+00:00</time></trkpt><trkpt lat="44.43058" lon="34.128185"><ele>40.4</ele><time>2011-10-13T13:23:21.0000000+00:00</time></trkpt><trkpt lat="44.430595" lon="34.128136"><ele>41.8</ele><time>2011-10-13T13:23:26.0000000+00:00</time></trkpt><trkpt lat="44.430618" lon="34.128162"><ele>41.1</ele><time>2011-10-13T13:23:31.0000000+00:00</time></trkpt><trkpt lat="44.430634" lon="34.128189"><ele>40.6</ele><time>2011-10-13T13:23:36.0000000+00:00</time></trkpt><trkpt lat="44.430637" lon="34.128212"><ele>40.7</ele><time>2011-10-13T13:23:41.0000000+00:00</time></trkpt><trkpt lat="44.43063" lon="34.128216"><ele>40.9</ele><time>2011-10-13T13:23:46.0000000+00:00</time></trkpt><trkpt lat="44.430599" lon="34.128181"><ele>41.5</ele><time>2011-10-13T13:23:51.0000000+00:00</time></trkpt><trkpt lat="44.430565" lon="34.128143"><ele>43.4</ele><time>2011-10-13T13:23:56.0000000+00:00</time></trkpt><trkpt lat="44.430508" lon="34.128147"><ele>43.2</ele><time>2011-10-13T13:24:01.0000000+00:00</time></trkpt><trkpt lat="44.430466" lon="34.128113"><ele>43.9</ele><time>2011-10-13T13:24:06.0000000+00:00</time></trkpt><trkpt lat="44.430412" lon="34.128021"><ele>44.8</ele><time>2011-10-13T13:24:11.0000000+00:00</time></trkpt><trkpt lat="44.430378" lon="34.128036"><ele>45.6</ele><time>2011-10-13T13:24:16.0000000+00:00</time></trkpt><trkpt lat="44.430332" lon="34.128094"><ele>46.1</ele><time>2011-10-13T13:24:21.0000000+00:00</time></trkpt><trkpt lat="44.430321" lon="34.12812"><ele>47.3</ele><time>2011-10-13T13:24:26.0000000+00:00</time></trkpt><trkpt lat="44.430313" lon="34.128147"><ele>47.5</ele><time>2011-10-13T13:24:31.0000000+00:00</time></trkpt><trkpt lat="44.430302" lon="34.12817"><ele>47.6</ele><time>2011-10-13T13:24:36.0000000+00:00</time></trkpt><trkpt lat="44.430302" lon="34.12817"><ele>47.7</ele><time>2011-10-13T13:24:41.0000000+00:00</time></trkpt><trkpt lat="44.430283" lon="34.128147"><ele>47.4</ele><time>2011-10-13T13:24:46.0000000+00:00</time></trkpt><trkpt lat="44.430252" lon="34.128117"><ele>46.9</ele><time>2011-10-13T13:24:51.0000000+00:00</time></trkpt><trkpt lat="44.430244" lon="34.128109"><ele>46.7</ele><time>2011-10-13T13:24:56.0000000+00:00</time></trkpt><trkpt lat="44.430229" lon="34.128101"><ele>46.2</ele><time>2011-10-13T13:25:01.0000000+00:00</time></trkpt><trkpt lat="44.430214" lon="34.128128"><ele>45.7</ele><time>2011-10-13T13:25:06.0000000+00:00</time></trkpt><trkpt lat="44.430222" lon="34.128132"><ele>45.6</ele><time>2011-10-13T13:25:11.0000000+00:00</time></trkpt><trkpt lat="44.430225" lon="34.12812"><ele>45.7</ele><time>2011-10-13T13:25:16.0000000+00:00</time></trkpt><trkpt lat="44.430233" lon="34.128101"><ele>46.6</ele><time>2011-10-13T13:25:21.0000000+00:00</time></trkpt><trkpt lat="44.430252" lon="34.12809"><ele>45.4</ele><time>2011-10-13T13:25:26.0000000+00:00</time></trkpt><trkpt lat="44.430275" lon="34.128105"><ele>44.9</ele><time>2011-10-13T13:25:31.0000000+00:00</time></trkpt><trkpt lat="44.430302" lon="34.128086"><ele>42.4</ele><time>2011-10-13T13:25:36.0000000+00:00</time></trkpt><trkpt lat="44.43034" lon="34.128075"><ele>41.3</ele><time>2011-10-13T13:25:41.0000000+00:00</time></trkpt><trkpt lat="44.430351" lon="34.128059"><ele>41.6</ele><time>2011-10-13T13:25:46.0000000+00:00</time></trkpt><trkpt lat="44.430355" lon="34.12801"><ele>40.9</ele><time>2011-10-13T13:25:51.0000000+00:00</time></trkpt><trkpt lat="44.430363" lon="34.128006"><ele>40.7</ele><time>2011-10-13T13:25:56.0000000+00:00</time></trkpt><trkpt lat="44.430374" lon="34.127991"><ele>39.0</ele><time>2011-10-13T13:26:01.0000000+00:00</time></trkpt><trkpt lat="44.430389" lon="34.127987"><ele>38.5</ele><time>2011-10-13T13:26:06.0000000+00:00</time></trkpt><trkpt lat="44.430424" lon="34.127983"><ele>38.3</ele><time>2011-10-13T13:26:11.0000000+00:00</time></trkpt><trkpt lat="44.430439" lon="34.12801"><ele>37.8</ele><time>2011-10-13T13:26:16.0000000+00:00</time></trkpt><trkpt lat="44.43047" lon="34.128052"><ele>37.3</ele><time>2011-10-13T13:26:21.0000000+00:00</time></trkpt><trkpt lat="44.430531" lon="34.128117"><ele>35.5</ele><time>2011-10-13T13:26:26.0000000+00:00</time></trkpt><trkpt lat="44.430553" lon="34.128044"><ele>34.7</ele><time>2011-10-13T13:26:31.0000000+00:00</time></trkpt><trkpt lat="44.430542" lon="34.127941"><ele>34.5</ele><time>2011-10-13T13:26:36.0000000+00:00</time></trkpt><trkpt lat="44.430531" lon="34.127842"><ele>34.5</ele><time>2011-10-13T13:26:41.0000000+00:00</time></trkpt><trkpt lat="44.430515" lon="34.12775"><ele>34.6</ele><time>2011-10-13T13:26:46.0000000+00:00</time></trkpt><trkpt lat="44.430508" lon="34.127659"><ele>35.3</ele><time>2011-10-13T13:26:51.0000000+00:00</time></trkpt><trkpt lat="44.430515" lon="34.127609"><ele>33.7</ele><time>2011-10-13T13:26:56.0000000+00:00</time></trkpt><trkpt lat="44.430542" lon="34.127617"><ele>33.8</ele><time>2011-10-13T13:27:01.0000000+00:00</time></trkpt><trkpt lat="44.430576" lon="34.127636"><ele>33.6</ele><time>2011-10-13T13:27:06.0000000+00:00</time></trkpt><trkpt lat="44.430637" lon="34.127628"><ele>32.6</ele><time>2011-10-13T13:27:11.0000000+00:00</time></trkpt><trkpt lat="44.430687" lon="34.127571"><ele>31.5</ele><time>2011-10-13T13:27:16.0000000+00:00</time></trkpt><trkpt lat="44.430744" lon="34.127602"><ele>30.1</ele><time>2011-10-13T13:27:21.0000000+00:00</time></trkpt><trkpt lat="44.430782" lon="34.127636"><ele>29.4</ele><time>2011-10-13T13:27:26.0000000+00:00</time></trkpt><trkpt lat="44.430817" lon="34.127663"><ele>27.8</ele><time>2011-10-13T13:27:31.0000000+00:00</time></trkpt><trkpt lat="44.430859" lon="34.127693"><ele>26.0</ele><time>2011-10-13T13:27:36.0000000+00:00</time></trkpt><trkpt lat="44.430893" lon="34.12772"><ele>22.2</ele><time>2011-10-13T13:27:41.0000000+00:00</time></trkpt><trkpt lat="44.43092" lon="34.127735"><ele>19.4</ele><time>2011-10-13T13:27:46.0000000+00:00</time></trkpt><trkpt lat="44.430946" lon="34.127747"><ele>19.5</ele><time>2011-10-13T13:27:51.0000000+00:00</time></trkpt><trkpt lat="44.430981" lon="34.127781"><ele>17.1</ele><time>2011-10-13T13:27:56.0000000+00:00</time></trkpt><trkpt lat="44.431023" lon="34.127804"><ele>14.9</ele><time>2011-10-13T13:28:01.0000000+00:00</time></trkpt><trkpt lat="44.431061" lon="34.127808"><ele>13.5</ele><time>2011-10-13T13:28:06.0000000+00:00</time></trkpt><trkpt lat="44.431091" lon="34.127785"><ele>12.2</ele><time>2011-10-13T13:28:11.0000000+00:00</time></trkpt><trkpt lat="44.431095" lon="34.127766"><ele>11.5</ele><time>2011-10-13T13:28:16.0000000+00:00</time></trkpt><trkpt lat="44.431099" lon="34.127773"><ele>10.5</ele><time>2011-10-13T13:28:21.0000000+00:00</time></trkpt><trkpt lat="44.431095" lon="34.127777"><ele>10.5</ele><time>2011-10-13T13:28:26.0000000+00:00</time></trkpt><trkpt lat="44.431099" lon="34.127777"><ele>10.8</ele><time>2011-10-13T13:28:31.0000000+00:00</time></trkpt><trkpt lat="44.431095" lon="34.127781"><ele>10.7</ele><time>2011-10-13T13:28:36.0000000+00:00</time></trkpt><trkpt lat="44.431091" lon="34.127777"><ele>10.1</ele><time>2011-10-13T13:28:41.0000000+00:00</time></trkpt><trkpt lat="44.43111" lon="34.127785"><ele>9.9</ele><time>2011-10-13T13:28:46.0000000+00:00</time></trkpt><trkpt lat="44.431137" lon="34.127766"><ele>10.1</ele><time>2011-10-13T13:28:51.0000000+00:00</time></trkpt><trkpt lat="44.431149" lon="34.127758"><ele>10.0</ele><time>2011-10-13T13:28:56.0000000+00:00</time></trkpt><trkpt lat="44.431149" lon="34.127762"><ele>10.2</ele><time>2011-10-13T13:29:01.0000000+00:00</time></trkpt><trkpt lat="44.431164" lon="34.12775"><ele>10.5</ele><time>2011-10-13T13:29:06.0000000+00:00</time></trkpt><trkpt lat="44.43116" lon="34.127766"><ele>11.1</ele><time>2011-10-13T13:29:11.0000000+00:00</time></trkpt><trkpt lat="44.431164" lon="34.127769"><ele>11.1</ele><time>2011-10-13T13:29:16.0000000+00:00</time></trkpt><trkpt lat="44.431198" lon="34.127743"><ele>11.1</ele><time>2011-10-13T13:29:21.0000000+00:00</time></trkpt><trkpt lat="44.431221" lon="34.127701"><ele>10.4</ele><time>2011-10-13T13:29:26.0000000+00:00</time></trkpt><trkpt lat="44.431248" lon="34.127659"><ele>9.6</ele><time>2011-10-13T13:29:31.0000000+00:00</time></trkpt><trkpt lat="44.431286" lon="34.127666"><ele>9.5</ele><time>2011-10-13T13:29:36.0000000+00:00</time></trkpt><trkpt lat="44.431305" lon="34.127659"><ele>8.9</ele><time>2011-10-13T13:29:41.0000000+00:00</time></trkpt><trkpt lat="44.431343" lon="34.127632"><ele>8.4</ele><time>2011-10-13T13:29:46.0000000+00:00</time></trkpt><trkpt lat="44.431362" lon="34.127594"><ele>7.8</ele><time>2011-10-13T13:29:51.0000000+00:00</time></trkpt><trkpt lat="44.431366" lon="34.127586"><ele>7.7</ele><time>2011-10-13T13:29:56.0000000+00:00</time></trkpt><trkpt lat="44.431362" lon="34.127579"><ele>7.7</ele><time>2011-10-13T13:30:01.0000000+00:00</time></trkpt><trkpt lat="44.431358" lon="34.127571"><ele>7.7</ele><time>2011-10-13T13:30:06.0000000+00:00</time></trkpt><trkpt lat="44.431366" lon="34.127567"><ele>7.6</ele><time>2011-10-13T13:30:11.0000000+00:00</time></trkpt><trkpt lat="44.431393" lon="34.127552"><ele>7.4</ele><time>2011-10-13T13:30:16.0000000+00:00</time></trkpt><trkpt lat="44.431438" lon="34.12751"><ele>6.3</ele><time>2011-10-13T13:30:21.0000000+00:00</time></trkpt><trkpt lat="44.431484" lon="34.127468"><ele>5.8</ele><time>2011-10-13T13:30:26.0000000+00:00</time></trkpt><trkpt lat="44.43153" lon="34.12743"><ele>5.7</ele><time>2011-10-13T13:30:31.0000000+00:00</time></trkpt><trkpt lat="44.43158" lon="34.127396"><ele>6.6</ele><time>2011-10-13T13:30:36.0000000+00:00</time></trkpt><trkpt lat="44.431633" lon="34.127369"><ele>7.4</ele><time>2011-10-13T13:30:41.0000000+00:00</time></trkpt><trkpt lat="44.431698" lon="34.127335"><ele>7.9</ele><time>2011-10-13T13:30:46.0000000+00:00</time></trkpt><trkpt lat="44.431755" lon="34.127293"><ele>8.2</ele><time>2011-10-13T13:30:51.0000000+00:00</time></trkpt><trkpt lat="44.431808" lon="34.127254"><ele>8.5</ele><time>2011-10-13T13:30:56.0000000+00:00</time></trkpt><trkpt lat="44.431866" lon="34.127209"><ele>8.8</ele><time>2011-10-13T13:31:01.0000000+00:00</time></trkpt><trkpt lat="44.431911" lon="34.127182"><ele>10.8</ele><time>2011-10-13T13:31:06.0000000+00:00</time></trkpt><trkpt lat="44.431934" lon="34.127159"><ele>11.9</ele><time>2011-10-13T13:31:11.0000000+00:00</time></trkpt><trkpt lat="44.431953" lon="34.127148"><ele>12.7</ele><time>2011-10-13T13:31:16.0000000+00:00</time></trkpt><trkpt lat="44.431969" lon="34.127144"><ele>13.0</ele><time>2011-10-13T13:31:21.0000000+00:00</time></trkpt><trkpt lat="44.431973" lon="34.127144"><ele>13.3</ele><time>2011-10-13T13:31:26.0000000+00:00</time></trkpt><trkpt lat="44.431973" lon="34.127098"><ele>15.1</ele><time>2011-10-13T13:31:31.0000000+00:00</time></trkpt><trkpt lat="44.431976" lon="34.127083"><ele>17.5</ele><time>2011-10-13T13:31:36.0000000+00:00</time></trkpt><trkpt lat="44.431992" lon="34.127079"><ele>18.9</ele><time>2011-10-13T13:31:41.0000000+00:00</time></trkpt><trkpt lat="44.432007" lon="34.127087"><ele>19.9</ele><time>2011-10-13T13:31:46.0000000+00:00</time></trkpt><trkpt lat="44.432041" lon="34.127113"><ele>21.4</ele><time>2011-10-13T13:31:51.0000000+00:00</time></trkpt><trkpt lat="44.432064" lon="34.127121"><ele>22.3</ele><time>2011-10-13T13:31:56.0000000+00:00</time></trkpt><trkpt lat="44.432083" lon="34.127144"><ele>23.5</ele><time>2011-10-13T13:32:01.0000000+00:00</time></trkpt><trkpt lat="44.432117" lon="34.127171"><ele>24.5</ele><time>2011-10-13T13:32:06.0000000+00:00</time></trkpt><trkpt lat="44.43214" lon="34.127182"><ele>25.6</ele><time>2011-10-13T13:32:11.0000000+00:00</time></trkpt><trkpt lat="44.432175" lon="34.12719"><ele>25.8</ele><time>2011-10-13T13:32:16.0000000+00:00</time></trkpt><trkpt lat="44.432198" lon="34.127171"><ele>25.4</ele><time>2011-10-13T13:32:21.0000000+00:00</time></trkpt><trkpt lat="44.432224" lon="34.127151"><ele>25.9</ele><time>2011-10-13T13:32:26.0000000+00:00</time></trkpt><trkpt lat="44.432247" lon="34.127132"><ele>26.6</ele><time>2011-10-13T13:32:31.0000000+00:00</time></trkpt><trkpt lat="44.432281" lon="34.12711"><ele>27.1</ele><time>2011-10-13T13:32:36.0000000+00:00</time></trkpt><trkpt lat="44.432327" lon="34.127068"><ele>27.0</ele><time>2011-10-13T13:32:41.0000000+00:00</time></trkpt><trkpt lat="44.432362" lon="34.127026"><ele>27.2</ele><time>2011-10-13T13:32:46.0000000+00:00</time></trkpt><trkpt lat="44.432396" lon="34.127018"><ele>28.1</ele><time>2011-10-13T13:32:51.0000000+00:00</time></trkpt><trkpt lat="44.432438" lon="34.127026"><ele>30.0</ele><time>2011-10-13T13:32:56.0000000+00:00</time></trkpt><trkpt lat="44.432491" lon="34.127022"><ele>30.8</ele><time>2011-10-13T13:33:01.0000000+00:00</time></trkpt><trkpt lat="44.432518" lon="34.126999"><ele>32.4</ele><time>2011-10-13T13:33:06.0000000+00:00</time></trkpt><trkpt lat="44.432541" lon="34.12698"><ele>34.7</ele><time>2011-10-13T13:33:11.0000000+00:00</time></trkpt><trkpt lat="44.432575" lon="34.126949"><ele>36.4</ele><time>2011-10-13T13:33:16.0000000+00:00</time></trkpt><trkpt lat="44.432598" lon="34.126919"><ele>38.0</ele><time>2011-10-13T13:33:21.0000000+00:00</time></trkpt><trkpt lat="44.432617" lon="34.126884"><ele>39.8</ele><time>2011-10-13T13:33:26.0000000+00:00</time></trkpt><trkpt lat="44.432644" lon="34.126869"><ele>41.1</ele><time>2011-10-13T13:33:31.0000000+00:00</time></trkpt><trkpt lat="44.432663" lon="34.126804"><ele>41.2</ele><time>2011-10-13T13:33:36.0000000+00:00</time></trkpt><trkpt lat="44.432682" lon="34.126743"><ele>42.7</ele><time>2011-10-13T13:33:41.0000000+00:00</time></trkpt><trkpt lat="44.432705" lon="34.126671"><ele>43.9</ele><time>2011-10-13T13:33:46.0000000+00:00</time></trkpt><trkpt lat="44.43272" lon="34.126598"><ele>44.1</ele><time>2011-10-13T13:33:51.0000000+00:00</time></trkpt><trkpt lat="44.432724" lon="34.12653"><ele>44.5</ele><time>2011-10-13T13:33:56.0000000+00:00</time></trkpt><trkpt lat="44.432739" lon="34.126476"><ele>45.8</ele><time>2011-10-13T13:34:01.0000000+00:00</time></trkpt><trkpt lat="44.432762" lon="34.126427"><ele>47.0</ele><time>2011-10-13T13:34:06.0000000+00:00</time></trkpt><trkpt lat="44.432796" lon="34.126373"><ele>47.1</ele><time>2011-10-13T13:34:11.0000000+00:00</time></trkpt><trkpt lat="44.432831" lon="34.126312"><ele>47.4</ele><time>2011-10-13T13:34:16.0000000+00:00</time></trkpt><trkpt lat="44.432873" lon="34.126266"><ele>47.7</ele><time>2011-10-13T13:34:21.0000000+00:00</time></trkpt><trkpt lat="44.432919" lon="34.126244"><ele>48.8</ele><time>2011-10-13T13:34:26.0000000+00:00</time></trkpt><trkpt lat="44.432957" lon="34.126205"><ele>50.7</ele><time>2011-10-13T13:34:31.0000000+00:00</time></trkpt><trkpt lat="44.432987" lon="34.126198"><ele>52.3</ele><time>2011-10-13T13:34:36.0000000+00:00</time></trkpt><trkpt lat="44.433025" lon="34.126183"><ele>54.2</ele><time>2011-10-13T13:34:41.0000000+00:00</time></trkpt><trkpt lat="44.433064" lon="34.126137"><ele>56.4</ele><time>2011-10-13T13:34:46.0000000+00:00</time></trkpt><trkpt lat="44.433125" lon="34.126095"><ele>58.6</ele><time>2011-10-13T13:34:51.0000000+00:00</time></trkpt><trkpt lat="44.433174" lon="34.126076"><ele>56.9</ele><time>2011-10-13T13:34:56.0000000+00:00</time></trkpt><trkpt lat="44.433182" lon="34.126007"><ele>57.7</ele><time>2011-10-13T13:35:01.0000000+00:00</time></trkpt><trkpt lat="44.433208" lon="34.125942"><ele>57.5</ele><time>2011-10-13T13:35:06.0000000+00:00</time></trkpt><trkpt lat="44.433216" lon="34.125881"><ele>57.7</ele><time>2011-10-13T13:35:11.0000000+00:00</time></trkpt><trkpt lat="44.433247" lon="34.125816"><ele>58.8</ele><time>2011-10-13T13:35:16.0000000+00:00</time></trkpt><trkpt lat="44.433258" lon="34.125763"><ele>60.6</ele><time>2011-10-13T13:35:21.0000000+00:00</time></trkpt><trkpt lat="44.433292" lon="34.125748"><ele>62.3</ele><time>2011-10-13T13:35:26.0000000+00:00</time></trkpt><trkpt lat="44.433338" lon="34.125706"><ele>64.4</ele><time>2011-10-13T13:35:31.0000000+00:00</time></trkpt><trkpt lat="44.433369" lon="34.125679"><ele>64.3</ele><time>2011-10-13T13:35:36.0000000+00:00</time></trkpt><trkpt lat="44.43338" lon="34.125687"><ele>64.6</ele><time>2011-10-13T13:35:41.0000000+00:00</time></trkpt><trkpt lat="44.433399" lon="34.125687"><ele>64.9</ele><time>2011-10-13T13:35:46.0000000+00:00</time></trkpt><trkpt lat="44.433403" lon="34.125706"><ele>63.9</ele><time>2011-10-13T13:35:51.0000000+00:00</time></trkpt><trkpt lat="44.433422" lon="34.125713"><ele>63.0</ele><time>2011-10-13T13:35:56.0000000+00:00</time></trkpt><trkpt lat="44.433456" lon="34.12574"><ele>63.2</ele><time>2011-10-13T13:36:01.0000000+00:00</time></trkpt><trkpt lat="44.433502" lon="34.125751"><ele>65.5</ele><time>2011-10-13T13:36:06.0000000+00:00</time></trkpt><trkpt lat="44.433506" lon="34.125809"><ele>69.2</ele><time>2011-10-13T13:36:11.0000000+00:00</time></trkpt><trkpt lat="44.433517" lon="34.125862"><ele>70.9</ele><time>2011-10-13T13:36:16.0000000+00:00</time></trkpt><trkpt lat="44.433498" lon="34.125961"><ele>73.3</ele><time>2011-10-13T13:36:21.0000000+00:00</time></trkpt><trkpt lat="44.433517" lon="34.126019"><ele>75.6</ele><time>2011-10-13T13:36:26.0000000+00:00</time></trkpt><trkpt lat="44.433559" lon="34.126083"><ele>77.4</ele><time>2011-10-13T13:36:31.0000000+00:00</time></trkpt><trkpt lat="44.433643" lon="34.126083"><ele>77.1</ele><time>2011-10-13T13:36:36.0000000+00:00</time></trkpt><trkpt lat="44.433708" lon="34.126072"><ele>74.2</ele><time>2011-10-13T13:36:41.0000000+00:00</time></trkpt><trkpt lat="44.433723" lon="34.126041"><ele>75.3</ele><time>2011-10-13T13:36:46.0000000+00:00</time></trkpt><trkpt lat="44.433731" lon="34.126026"><ele>76.7</ele><time>2011-10-13T13:36:51.0000000+00:00</time></trkpt><trkpt lat="44.433765" lon="34.126011"><ele>76.0</ele><time>2011-10-13T13:36:56.0000000+00:00</time></trkpt><trkpt lat="44.4338" lon="34.126041"><ele>76.7</ele><time>2011-10-13T13:37:01.0000000+00:00</time></trkpt><trkpt lat="44.43383" lon="34.126102"><ele>76.3</ele><time>2011-10-13T13:37:06.0000000+00:00</time></trkpt><trkpt lat="44.433857" lon="34.126152"><ele>78.0</ele><time>2011-10-13T13:37:11.0000000+00:00</time></trkpt><trkpt lat="44.433891" lon="34.126171"><ele>79.7</ele><time>2011-10-13T13:37:16.0000000+00:00</time></trkpt><trkpt lat="44.433907" lon="34.126228"><ele>80.0</ele><time>2011-10-13T13:37:21.0000000+00:00</time></trkpt><trkpt lat="44.433918" lon="34.126266"><ele>79.3</ele><time>2011-10-13T13:37:26.0000000+00:00</time></trkpt><trkpt lat="44.433922" lon="34.126297"><ele>79.2</ele><time>2011-10-13T13:37:31.0000000+00:00</time></trkpt><trkpt lat="44.433922" lon="34.126297"><ele>79.3</ele><time>2011-10-13T13:37:36.0000000+00:00</time></trkpt><trkpt lat="44.433918" lon="34.126297"><ele>79.5</ele><time>2011-10-13T13:37:41.0000000+00:00</time></trkpt><trkpt lat="44.433918" lon="34.126301"><ele>79.5</ele><time>2011-10-13T13:37:46.0000000+00:00</time></trkpt><trkpt lat="44.433914" lon="34.126301"><ele>79.4</ele><time>2011-10-13T13:37:51.0000000+00:00</time></trkpt><trkpt lat="44.433918" lon="34.126301"><ele>79.4</ele><time>2011-10-13T13:37:56.0000000+00:00</time></trkpt><trkpt lat="44.433918" lon="34.126301"><ele>79.4</ele><time>2011-10-13T13:38:01.0000000+00:00</time></trkpt><trkpt lat="44.433918" lon="34.126301"><ele>79.3</ele><time>2011-10-13T13:38:06.0000000+00:00</time></trkpt><trkpt lat="44.433918" lon="34.126301"><ele>79.4</ele><time>2011-10-13T13:38:11.0000000+00:00</time></trkpt><trkpt lat="44.433918" lon="34.126305"><ele>79.4</ele><time>2011-10-13T13:38:16.0000000+00:00</time></trkpt><trkpt lat="44.433918" lon="34.126312"><ele>78.8</ele><time>2011-10-13T13:38:21.0000000+00:00</time></trkpt><trkpt lat="44.433918" lon="34.126312"><ele>78.5</ele><time>2011-10-13T13:38:26.0000000+00:00</time></trkpt><trkpt lat="44.433918" lon="34.126308"><ele>77.6</ele><time>2011-10-13T13:38:31.0000000+00:00</time></trkpt><trkpt lat="44.433922" lon="34.126305"><ele>77.0</ele><time>2011-10-13T13:38:36.0000000+00:00</time></trkpt><trkpt lat="44.433922" lon="34.126305"><ele>77.0</ele><time>2011-10-13T13:38:41.0000000+00:00</time></trkpt><trkpt lat="44.433922" lon="34.126305"><ele>77.0</ele><time>2011-10-13T13:38:46.0000000+00:00</time></trkpt><trkpt lat="44.433922" lon="34.126305"><ele>77.0</ele><time>2011-10-13T13:38:51.0000000+00:00</time></trkpt><trkpt lat="44.433922" lon="34.126305"><ele>77.0</ele><time>2011-10-13T13:38:56.0000000+00:00</time></trkpt><trkpt lat="44.433922" lon="34.126305"><ele>77.0</ele><time>2011-10-13T13:39:01.0000000+00:00</time></trkpt><trkpt lat="44.433922" lon="34.126305"><ele>77.0</ele><time>2011-10-13T13:39:06.0000000+00:00</time></trkpt><trkpt lat="44.433922" lon="34.126305"><ele>77.0</ele><time>2011-10-13T13:39:11.0000000+00:00</time></trkpt><trkpt lat="44.433922" lon="34.126305"><ele>77.0</ele><time>2011-10-13T13:39:16.0000000+00:00</time></trkpt><trkpt lat="44.433922" lon="34.126305"><ele>77.0</ele><time>2011-10-13T13:39:21.0000000+00:00</time></trkpt><trkpt lat="44.433922" lon="34.126305"><ele>77.0</ele><time>2011-10-13T13:39:26.0000000+00:00</time></trkpt><trkpt lat="44.433922" lon="34.126305"><ele>77.0</ele><time>2011-10-13T13:39:31.0000000+00:00</time></trkpt><trkpt lat="44.433922" lon="34.126305"><ele>77.0</ele><time>2011-10-13T13:39:36.0000000+00:00</time></trkpt><trkpt lat="44.433926" lon="34.126305"><ele>77.0</ele><time>2011-10-13T13:39:41.0000000+00:00</time></trkpt><trkpt lat="44.433922" lon="34.126305"><ele>77.0</ele><time>2011-10-13T13:39:46.0000000+00:00</time></trkpt><trkpt lat="44.433922" lon="34.126305"><ele>77.0</ele><time>2011-10-13T13:39:51.0000000+00:00</time></trkpt><trkpt lat="44.433922" lon="34.126305"><ele>77.0</ele><time>2011-10-13T13:39:56.0000000+00:00</time></trkpt><trkpt lat="44.433922" lon="34.126305"><ele>77.0</ele><time>2011-10-13T13:40:01.0000000+00:00</time></trkpt><trkpt lat="44.433926" lon="34.126305"><ele>77.1</ele><time>2011-10-13T13:40:06.0000000+00:00</time></trkpt><trkpt lat="44.433922" lon="34.126305"><ele>77.1</ele><time>2011-10-13T13:40:11.0000000+00:00</time></trkpt><trkpt lat="44.433926" lon="34.126301"><ele>76.9</ele><time>2011-10-13T13:40:16.0000000+00:00</time></trkpt><trkpt lat="44.433922" lon="34.126301"><ele>76.9</ele><time>2011-10-13T13:40:21.0000000+00:00</time></trkpt><trkpt lat="44.433922" lon="34.126301"><ele>76.9</ele><time>2011-10-13T13:40:26.0000000+00:00</time></trkpt><trkpt lat="44.433922" lon="34.126305"><ele>76.9</ele><time>2011-10-13T13:40:31.0000000+00:00</time></trkpt><trkpt lat="44.433914" lon="34.126297"><ele>77.1</ele><time>2011-10-13T13:40:36.0000000+00:00</time></trkpt><trkpt lat="44.433903" lon="34.126293"><ele>77.3</ele><time>2011-10-13T13:40:41.0000000+00:00</time></trkpt><trkpt lat="44.433907" lon="34.126289"><ele>77.3</ele><time>2011-10-13T13:40:46.0000000+00:00</time></trkpt><trkpt lat="44.433907" lon="34.126282"><ele>77.4</ele><time>2011-10-13T13:40:51.0000000+00:00</time></trkpt><trkpt lat="44.433907" lon="34.126286"><ele>77.4</ele><time>2011-10-13T13:40:56.0000000+00:00</time></trkpt><trkpt lat="44.433907" lon="34.126286"><ele>77.4</ele><time>2011-10-13T13:41:01.0000000+00:00</time></trkpt><trkpt lat="44.433907" lon="34.126286"><ele>77.5</ele><time>2011-10-13T13:41:06.0000000+00:00</time></trkpt><trkpt lat="44.433903" lon="34.12627"><ele>77.5</ele><time>2011-10-13T13:41:11.0000000+00:00</time></trkpt><trkpt lat="44.433899" lon="34.126263"><ele>77.7</ele><time>2011-10-13T13:41:16.0000000+00:00</time></trkpt><trkpt lat="44.433899" lon="34.126263"><ele>77.7</ele><time>2011-10-13T13:41:21.0000000+00:00</time></trkpt><trkpt lat="44.433899" lon="34.126266"><ele>77.7</ele><time>2011-10-13T13:41:26.0000000+00:00</time></trkpt><trkpt lat="44.433899" lon="34.126266"><ele>77.7</ele><time>2011-10-13T13:41:31.0000000+00:00</time></trkpt><trkpt lat="44.433899" lon="34.126266"><ele>77.7</ele><time>2011-10-13T13:41:36.0000000+00:00</time></trkpt><trkpt lat="44.433899" lon="34.126266"><ele>77.7</ele><time>2011-10-13T13:41:41.0000000+00:00</time></trkpt><trkpt lat="44.433899" lon="34.126266"><ele>77.7</ele><time>2011-10-13T13:41:46.0000000+00:00</time></trkpt><trkpt lat="44.433899" lon="34.126266"><ele>77.7</ele><time>2011-10-13T13:41:51.0000000+00:00</time></trkpt><trkpt lat="44.433899" lon="34.126266"><ele>77.7</ele><time>2011-10-13T13:41:56.0000000+00:00</time></trkpt><trkpt lat="44.433899" lon="34.126266"><ele>77.7</ele><time>2011-10-13T13:42:01.0000000+00:00</time></trkpt><trkpt lat="44.433899" lon="34.126266"><ele>77.7</ele><time>2011-10-13T13:42:06.0000000+00:00</time></trkpt><trkpt lat="44.433899" lon="34.126266"><ele>77.7</ele><time>2011-10-13T13:42:11.0000000+00:00</time></trkpt><trkpt lat="44.433899" lon="34.126266"><ele>77.7</ele><time>2011-10-13T13:42:16.0000000+00:00</time></trkpt><trkpt lat="44.433899" lon="34.126266"><ele>77.7</ele><time>2011-10-13T13:42:21.0000000+00:00</time></trkpt><trkpt lat="44.433899" lon="34.126263"><ele>77.6</ele><time>2011-10-13T13:42:26.0000000+00:00</time></trkpt><trkpt lat="44.433918" lon="34.126266"><ele>78.2</ele><time>2011-10-13T13:42:31.0000000+00:00</time></trkpt><trkpt lat="44.433937" lon="34.126293"><ele>78.6</ele><time>2011-10-13T13:42:36.0000000+00:00</time></trkpt><trkpt lat="44.433956" lon="34.126289"><ele>78.9</ele><time>2011-10-13T13:42:41.0000000+00:00</time></trkpt><trkpt lat="44.433964" lon="34.126293"><ele>79.3</ele><time>2011-10-13T13:42:46.0000000+00:00</time></trkpt><trkpt lat="44.433968" lon="34.126293"><ele>79.5</ele><time>2011-10-13T13:42:51.0000000+00:00</time></trkpt><trkpt lat="44.433968" lon="34.126293"><ele>79.6</ele><time>2011-10-13T13:42:56.0000000+00:00</time></trkpt><trkpt lat="44.433968" lon="34.126293"><ele>79.7</ele><time>2011-10-13T13:43:01.0000000+00:00</time></trkpt><trkpt lat="44.433968" lon="34.126293"><ele>79.7</ele><time>2011-10-13T13:43:06.0000000+00:00</time></trkpt><trkpt lat="44.433968" lon="34.126293"><ele>79.7</ele><time>2011-10-13T13:43:11.0000000+00:00</time></trkpt><trkpt lat="44.433968" lon="34.126293"><ele>79.7</ele><time>2011-10-13T13:43:16.0000000+00:00</time></trkpt><trkpt lat="44.433968" lon="34.126293"><ele>79.7</ele><time>2011-10-13T13:43:21.0000000+00:00</time></trkpt><trkpt lat="44.433968" lon="34.126293"><ele>79.7</ele><time>2011-10-13T13:43:26.0000000+00:00</time></trkpt><trkpt lat="44.433968" lon="34.126293"><ele>79.7</ele><time>2011-10-13T13:43:31.0000000+00:00</time></trkpt><trkpt lat="44.433968" lon="34.126293"><ele>79.7</ele><time>2011-10-13T13:43:36.0000000+00:00</time></trkpt><trkpt lat="44.433968" lon="34.126293"><ele>79.7</ele><time>2011-10-13T13:43:41.0000000+00:00</time></trkpt><trkpt lat="44.433952" lon="34.126293"><ele>80.8</ele><time>2011-10-13T13:43:46.0000000+00:00</time></trkpt><trkpt lat="44.433956" lon="34.126293"><ele>81.2</ele><time>2011-10-13T13:43:51.0000000+00:00</time></trkpt><trkpt lat="44.433956" lon="34.126293"><ele>81.6</ele><time>2011-10-13T13:43:56.0000000+00:00</time></trkpt><trkpt lat="44.433956" lon="34.126293"><ele>81.8</ele><time>2011-10-13T13:44:01.0000000+00:00</time></trkpt><trkpt lat="44.433945" lon="34.126286"><ele>82.4</ele><time>2011-10-13T13:44:06.0000000+00:00</time></trkpt><trkpt lat="44.433945" lon="34.126286"><ele>82.4</ele><time>2011-10-13T13:44:11.0000000+00:00</time></trkpt><trkpt lat="44.433945" lon="34.126286"><ele>82.4</ele><time>2011-10-13T13:44:16.0000000+00:00</time></trkpt><trkpt lat="44.433945" lon="34.126282"><ele>82.3</ele><time>2011-10-13T13:44:21.0000000+00:00</time></trkpt><trkpt lat="44.433945" lon="34.126282"><ele>82.3</ele><time>2011-10-13T13:44:26.0000000+00:00</time></trkpt><trkpt lat="44.433945" lon="34.126282"><ele>82.2</ele><time>2011-10-13T13:44:31.0000000+00:00</time></trkpt><trkpt lat="44.433945" lon="34.126282"><ele>82.2</ele><time>2011-10-13T13:44:36.0000000+00:00</time></trkpt><trkpt lat="44.433945" lon="34.126282"><ele>82.2</ele><time>2011-10-13T13:44:41.0000000+00:00</time></trkpt><trkpt lat="44.433945" lon="34.126282"><ele>82.2</ele><time>2011-10-13T13:44:46.0000000+00:00</time></trkpt><trkpt lat="44.433945" lon="34.126282"><ele>82.2</ele><time>2011-10-13T13:44:51.0000000+00:00</time></trkpt><trkpt lat="44.433945" lon="34.126278"><ele>82.2</ele><time>2011-10-13T13:44:56.0000000+00:00</time></trkpt><trkpt lat="44.433945" lon="34.126278"><ele>82.3</ele><time>2011-10-13T13:45:01.0000000+00:00</time></trkpt><trkpt lat="44.433945" lon="34.126278"><ele>82.3</ele><time>2011-10-13T13:45:06.0000000+00:00</time></trkpt><trkpt lat="44.433945" lon="34.126278"><ele>82.3</ele><time>2011-10-13T13:45:11.0000000+00:00</time></trkpt><trkpt lat="44.433945" lon="34.126278"><ele>82.3</ele><time>2011-10-13T13:45:16.0000000+00:00</time></trkpt><trkpt lat="44.433945" lon="34.126278"><ele>82.3</ele><time>2011-10-13T13:45:21.0000000+00:00</time></trkpt><trkpt lat="44.433945" lon="34.126278"><ele>82.3</ele><time>2011-10-13T13:45:26.0000000+00:00</time></trkpt><trkpt lat="44.433945" lon="34.126278"><ele>82.3</ele><time>2011-10-13T13:45:31.0000000+00:00</time></trkpt><trkpt lat="44.433945" lon="34.126278"><ele>82.3</ele><time>2011-10-13T13:45:36.0000000+00:00</time></trkpt><trkpt lat="44.433945" lon="34.126278"><ele>82.3</ele><time>2011-10-13T13:45:41.0000000+00:00</time></trkpt><trkpt lat="44.433945" lon="34.126278"><ele>82.3</ele><time>2011-10-13T13:45:46.0000000+00:00</time></trkpt><trkpt lat="44.433945" lon="34.126278"><ele>82.3</ele><time>2011-10-13T13:45:51.0000000+00:00</time></trkpt><trkpt lat="44.433941" lon="34.126278"><ele>82.2</ele><time>2011-10-13T13:45:56.0000000+00:00</time></trkpt><trkpt lat="44.433941" lon="34.126278"><ele>82.2</ele><time>2011-10-13T13:46:01.0000000+00:00</time></trkpt><trkpt lat="44.433941" lon="34.126278"><ele>82.2</ele><time>2011-10-13T13:46:06.0000000+00:00</time></trkpt><trkpt lat="44.433941" lon="34.126278"><ele>82.3</ele><time>2011-10-13T13:46:11.0000000+00:00</time></trkpt><trkpt lat="44.433941" lon="34.126274"><ele>82.3</ele><time>2011-10-13T13:46:16.0000000+00:00</time></trkpt><trkpt lat="44.433941" lon="34.126274"><ele>82.4</ele><time>2011-10-13T13:46:21.0000000+00:00</time></trkpt><trkpt lat="44.433941" lon="34.126274"><ele>82.5</ele><time>2011-10-13T13:46:26.0000000+00:00</time></trkpt><trkpt lat="44.433945" lon="34.12627"><ele>82.7</ele><time>2011-10-13T13:46:31.0000000+00:00</time></trkpt><trkpt lat="44.433941" lon="34.126274"><ele>83.0</ele><time>2011-10-13T13:46:36.0000000+00:00</time></trkpt><trkpt lat="44.433941" lon="34.12627"><ele>83.1</ele><time>2011-10-13T13:46:41.0000000+00:00</time></trkpt><trkpt lat="44.433941" lon="34.12627"><ele>83.1</ele><time>2011-10-13T13:46:46.0000000+00:00</time></trkpt><trkpt lat="44.433941" lon="34.12627"><ele>83.2</ele><time>2011-10-13T13:46:51.0000000+00:00</time></trkpt><trkpt lat="44.433945" lon="34.12627"><ele>83.1</ele><time>2011-10-13T13:46:56.0000000+00:00</time></trkpt><trkpt lat="44.433945" lon="34.12627"><ele>83.1</ele><time>2011-10-13T13:47:01.0000000+00:00</time></trkpt><trkpt lat="44.433941" lon="34.126286"><ele>82.6</ele><time>2011-10-13T13:47:06.0000000+00:00</time></trkpt><trkpt lat="44.433933" lon="34.126286"><ele>82.7</ele><time>2011-10-13T13:47:11.0000000+00:00</time></trkpt><trkpt lat="44.433926" lon="34.126289"><ele>82.8</ele><time>2011-10-13T13:47:16.0000000+00:00</time></trkpt><trkpt lat="44.433918" lon="34.126274"><ele>83.9</ele><time>2011-10-13T13:47:21.0000000+00:00</time></trkpt><trkpt lat="44.433918" lon="34.126274"><ele>84.2</ele><time>2011-10-13T13:47:26.0000000+00:00</time></trkpt><trkpt lat="44.433918" lon="34.126274"><ele>84.2</ele><time>2011-10-13T13:47:31.0000000+00:00</time></trkpt><trkpt lat="44.433918" lon="34.126274"><ele>84.2</ele><time>2011-10-13T13:47:36.0000000+00:00</time></trkpt><trkpt lat="44.433918" lon="34.126274"><ele>84.2</ele><time>2011-10-13T13:47:41.0000000+00:00</time></trkpt><trkpt lat="44.433918" lon="34.126274"><ele>84.2</ele><time>2011-10-13T13:47:46.0000000+00:00</time></trkpt><trkpt lat="44.433918" lon="34.126274"><ele>84.2</ele><time>2011-10-13T13:47:51.0000000+00:00</time></trkpt><trkpt lat="44.433918" lon="34.126278"><ele>84.2</ele><time>2011-10-13T13:47:56.0000000+00:00</time></trkpt><trkpt lat="44.433918" lon="34.126278"><ele>84.2</ele><time>2011-10-13T13:48:01.0000000+00:00</time></trkpt><trkpt lat="44.433922" lon="34.126274"><ele>84.1</ele><time>2011-10-13T13:48:06.0000000+00:00</time></trkpt><trkpt lat="44.433918" lon="34.126213"><ele>81.8</ele><time>2011-10-13T13:48:11.0000000+00:00</time></trkpt><trkpt lat="44.433853" lon="34.126034"><ele>78.2</ele><time>2011-10-13T13:48:16.0000000+00:00</time></trkpt><trkpt lat="44.433765" lon="34.125793"><ele>75.0</ele><time>2011-10-13T13:48:21.0000000+00:00</time></trkpt><trkpt lat="44.433659" lon="34.125504"><ele>72.4</ele><time>2011-10-13T13:48:26.0000000+00:00</time></trkpt><trkpt lat="44.433586" lon="34.125179"><ele>71.0</ele><time>2011-10-13T13:48:31.0000000+00:00</time></trkpt><trkpt lat="44.433563" lon="34.124859"><ele>70.0</ele><time>2011-10-13T13:48:36.0000000+00:00</time></trkpt><trkpt lat="44.433571" lon="34.124611"><ele>70.1</ele><time>2011-10-13T13:48:41.0000000+00:00</time></trkpt><trkpt lat="44.433529" lon="34.12439"><ele>69.3</ele><time>2011-10-13T13:48:46.0000000+00:00</time></trkpt><trkpt lat="44.43346" lon="34.124222"><ele>69.0</ele><time>2011-10-13T13:48:51.0000000+00:00</time></trkpt><trkpt lat="44.43338" lon="34.124088"><ele>68.4</ele><time>2011-10-13T13:48:56.0000000+00:00</time></trkpt><trkpt lat="44.433266" lon="34.123989"><ele>67.2</ele><time>2011-10-13T13:49:01.0000000+00:00</time></trkpt><trkpt lat="44.433056" lon="34.12392"><ele>64.9</ele><time>2011-10-13T13:49:06.0000000+00:00</time></trkpt><trkpt lat="44.432739" lon="34.123802"><ele>62.4</ele><time>2011-10-13T13:49:11.0000000+00:00</time></trkpt><trkpt lat="44.432438" lon="34.123516"><ele>59.9</ele><time>2011-10-13T13:49:16.0000000+00:00</time></trkpt><trkpt lat="44.432102" lon="34.123268"><ele>57.6</ele><time>2011-10-13T13:49:21.0000000+00:00</time></trkpt><trkpt lat="44.431725" lon="34.123154"><ele>56.0</ele><time>2011-10-13T13:49:26.0000000+00:00</time></trkpt><trkpt lat="44.431419" lon="34.122795"><ele>54.6</ele><time>2011-10-13T13:49:31.0000000+00:00</time></trkpt><trkpt lat="44.431091" lon="34.122498"><ele>53.3</ele><time>2011-10-13T13:49:36.0000000+00:00</time></trkpt><trkpt lat="44.430828" lon="34.122089"><ele>51.5</ele><time>2011-10-13T13:49:41.0000000+00:00</time></trkpt><trkpt lat="44.430725" lon="34.121552"><ele>49.5</ele><time>2011-10-13T13:49:46.0000000+00:00</time></trkpt><trkpt lat="44.430717" lon="34.121021"><ele>47.6</ele><time>2011-10-13T13:49:51.0000000+00:00</time></trkpt><trkpt lat="44.430847" lon="34.120564"><ele>47.2</ele><time>2011-10-13T13:49:56.0000000+00:00</time></trkpt><trkpt lat="44.430958" lon="34.120132"><ele>46.9</ele><time>2011-10-13T13:50:01.0000000+00:00</time></trkpt><trkpt lat="44.431015" lon="34.119732"><ele>46.9</ele><time>2011-10-13T13:50:06.0000000+00:00</time></trkpt><trkpt lat="44.431068" lon="34.119335"><ele>48.1</ele><time>2011-10-13T13:50:11.0000000+00:00</time></trkpt><trkpt lat="44.431137" lon="34.118958"><ele>48.5</ele><time>2011-10-13T13:50:16.0000000+00:00</time></trkpt><trkpt lat="44.43119" lon="34.118618"><ele>49.7</ele><time>2011-10-13T13:50:21.0000000+00:00</time></trkpt><trkpt lat="44.431236" lon="34.118275"><ele>50.6</ele><time>2011-10-13T13:50:26.0000000+00:00</time></trkpt><trkpt lat="44.43129" lon="34.117981"><ele>50.9</ele><time>2011-10-13T13:50:31.0000000+00:00</time></trkpt><trkpt lat="44.431324" lon="34.117699"><ele>52.4</ele><time>2011-10-13T13:50:36.0000000+00:00</time></trkpt><trkpt lat="44.431328" lon="34.117458"><ele>53.6</ele><time>2011-10-13T13:50:41.0000000+00:00</time></trkpt><trkpt lat="44.431313" lon="34.117252"><ele>54.8</ele><time>2011-10-13T13:50:46.0000000+00:00</time></trkpt><trkpt lat="44.431278" lon="34.117069"><ele>56.1</ele><time>2011-10-13T13:50:51.0000000+00:00</time></trkpt><trkpt lat="44.431232" lon="34.116943"><ele>59.5</ele><time>2011-10-13T13:50:56.0000000+00:00</time></trkpt><trkpt lat="44.431194" lon="34.116768"><ele>61.3</ele><time>2011-10-13T13:51:01.0000000+00:00</time></trkpt><trkpt lat="44.431141" lon="34.116592"><ele>63.5</ele><time>2011-10-13T13:51:06.0000000+00:00</time></trkpt><trkpt lat="44.431057" lon="34.116314"><ele>66.6</ele><time>2011-10-13T13:51:11.0000000+00:00</time></trkpt><trkpt lat="44.431057" lon="34.116081"><ele>70.1</ele><time>2011-10-13T13:51:16.0000000+00:00</time></trkpt><trkpt lat="44.431038" lon="34.11586"><ele>74.5</ele><time>2011-10-13T13:51:21.0000000+00:00</time></trkpt><trkpt lat="44.431023" lon="34.11554"><ele>77.4</ele><time>2011-10-13T13:51:26.0000000+00:00</time></trkpt><trkpt lat="44.431007" lon="34.115284"><ele>82.1</ele><time>2011-10-13T13:51:31.0000000+00:00</time></trkpt><trkpt lat="44.431" lon="34.115074"><ele>86.3</ele><time>2011-10-13T13:51:36.0000000+00:00</time></trkpt><trkpt lat="44.430973" lon="34.11488"><ele>89.7</ele><time>2011-10-13T13:51:41.0000000+00:00</time></trkpt><trkpt lat="44.430965" lon="34.114628"><ele>93.3</ele><time>2011-10-13T13:51:46.0000000+00:00</time></trkpt><trkpt lat="44.430916" lon="34.114365"><ele>96.0</ele><time>2011-10-13T13:51:51.0000000+00:00</time></trkpt><trkpt lat="44.430851" lon="34.11401"><ele>93.1</ele><time>2011-10-13T13:51:56.0000000+00:00</time></trkpt><trkpt lat="44.430767" lon="34.113667"><ele>88.0</ele><time>2011-10-13T13:52:01.0000000+00:00</time></trkpt><trkpt lat="44.430676" lon="34.113346"><ele>83.6</ele><time>2011-10-13T13:52:06.0000000+00:00</time></trkpt><trkpt lat="44.430691" lon="34.112938"><ele>79.8</ele><time>2011-10-13T13:52:11.0000000+00:00</time></trkpt><trkpt lat="44.430798" lon="34.112537"><ele>77.7</ele><time>2011-10-13T13:52:16.0000000+00:00</time></trkpt><trkpt lat="44.430889" lon="34.112171"><ele>76.8</ele><time>2011-10-13T13:52:21.0000000+00:00</time></trkpt><trkpt lat="44.430931" lon="34.111847"><ele>74.8</ele><time>2011-10-13T13:52:26.0000000+00:00</time></trkpt><trkpt lat="44.430943" lon="34.111549"><ele>72.5</ele><time>2011-10-13T13:52:31.0000000+00:00</time></trkpt><trkpt lat="44.430912" lon="34.111206"><ele>70.3</ele><time>2011-10-13T13:52:36.0000000+00:00</time></trkpt><trkpt lat="44.430874" lon="34.110783"><ele>68.5</ele><time>2011-10-13T13:52:41.0000000+00:00</time></trkpt><trkpt lat="44.430958" lon="34.110279"><ele>65.6</ele><time>2011-10-13T13:52:46.0000000+00:00</time></trkpt><trkpt lat="44.431095" lon="34.109921"><ele>64.2</ele><time>2011-10-13T13:52:51.0000000+00:00</time></trkpt><trkpt lat="44.431217" lon="34.10965"><ele>62.9</ele><time>2011-10-13T13:52:56.0000000+00:00</time></trkpt><trkpt lat="44.431385" lon="34.109287"><ele>61.3</ele><time>2011-10-13T13:53:01.0000000+00:00</time></trkpt><trkpt lat="44.431492" lon="34.108932"><ele>60.7</ele><time>2011-10-13T13:53:06.0000000+00:00</time></trkpt><trkpt lat="44.431271" lon="34.108768"><ele>60.8</ele><time>2011-10-13T13:53:11.0000000+00:00</time></trkpt><trkpt lat="44.430984" lon="34.108707"><ele>60.2</ele><time>2011-10-13T13:53:16.0000000+00:00</time></trkpt><trkpt lat="44.430817" lon="34.108479"><ele>59.7</ele><time>2011-10-13T13:53:21.0000000+00:00</time></trkpt><trkpt lat="44.430756" lon="34.108212"><ele>60.8</ele><time>2011-10-13T13:53:26.0000000+00:00</time></trkpt><trkpt lat="44.430714" lon="34.107944"><ele>62.1</ele><time>2011-10-13T13:53:31.0000000+00:00</time></trkpt><trkpt lat="44.43071" lon="34.107716"><ele>62.3</ele><time>2011-10-13T13:53:36.0000000+00:00</time></trkpt><trkpt lat="44.430695" lon="34.107479"><ele>63.5</ele><time>2011-10-13T13:53:41.0000000+00:00</time></trkpt><trkpt lat="44.430626" lon="34.107269"><ele>65.4</ele><time>2011-10-13T13:53:46.0000000+00:00</time></trkpt><trkpt lat="44.430538" lon="34.107094"><ele>68.8</ele><time>2011-10-13T13:53:51.0000000+00:00</time></trkpt><trkpt lat="44.430454" lon="34.106915"><ele>71.0</ele><time>2011-10-13T13:53:56.0000000+00:00</time></trkpt><trkpt lat="44.43045" lon="34.106716"><ele>72.8</ele><time>2011-10-13T13:54:01.0000000+00:00</time></trkpt><trkpt lat="44.430557" lon="34.106552"><ele>72.2</ele><time>2011-10-13T13:54:06.0000000+00:00</time></trkpt><trkpt lat="44.430683" lon="34.106491"><ele>74.1</ele><time>2011-10-13T13:54:11.0000000+00:00</time></trkpt><trkpt lat="44.430809" lon="34.106415"><ele>78.9</ele><time>2011-10-13T13:54:16.0000000+00:00</time></trkpt><trkpt lat="44.430889" lon="34.10635"><ele>81.9</ele><time>2011-10-13T13:54:21.0000000+00:00</time></trkpt><trkpt lat="44.430939" lon="34.106293"><ele>84.6</ele><time>2011-10-13T13:54:26.0000000+00:00</time></trkpt><trkpt lat="44.430962" lon="34.106281"><ele>86.3</ele><time>2011-10-13T13:54:31.0000000+00:00</time></trkpt><trkpt lat="44.430969" lon="34.106285"><ele>87.4</ele><time>2011-10-13T13:54:36.0000000+00:00</time></trkpt><trkpt lat="44.430969" lon="34.106285"><ele>87.7</ele><time>2011-10-13T13:54:41.0000000+00:00</time></trkpt><trkpt lat="44.430969" lon="34.106281"><ele>87.9</ele><time>2011-10-13T13:54:46.0000000+00:00</time></trkpt><trkpt lat="44.430981" lon="34.106266"><ele>88.3</ele><time>2011-10-13T13:54:51.0000000+00:00</time></trkpt><trkpt lat="44.431011" lon="34.106251"><ele>83.8</ele><time>2011-10-13T13:54:56.0000000+00:00</time></trkpt><trkpt lat="44.431019" lon="34.106182"><ele>82.2</ele><time>2011-10-13T13:55:01.0000000+00:00</time></trkpt><trkpt lat="44.430988" lon="34.106041"><ele>82.6</ele><time>2011-10-13T13:55:06.0000000+00:00</time></trkpt><trkpt lat="44.430965" lon="34.105976"><ele>80.5</ele><time>2011-10-13T13:55:11.0000000+00:00</time></trkpt><trkpt lat="44.430954" lon="34.105892"><ele>79.3</ele><time>2011-10-13T13:55:16.0000000+00:00</time></trkpt><trkpt lat="44.430939" lon="34.105843"><ele>77.8</ele><time>2011-10-13T13:55:21.0000000+00:00</time></trkpt><trkpt lat="44.430962" lon="34.105797"><ele>75.9</ele><time>2011-10-13T13:55:26.0000000+00:00</time></trkpt><trkpt lat="44.430969" lon="34.105797"><ele>75.1</ele><time>2011-10-13T13:55:31.0000000+00:00</time></trkpt><trkpt lat="44.430958" lon="34.105736"><ele>74.3</ele><time>2011-10-13T13:55:36.0000000+00:00</time></trkpt><trkpt lat="44.430946" lon="34.105675"><ele>73.9</ele><time>2011-10-13T13:55:41.0000000+00:00</time></trkpt><trkpt lat="44.430946" lon="34.105679"><ele>73.5</ele><time>2011-10-13T13:55:46.0000000+00:00</time></trkpt><trkpt lat="44.430943" lon="34.105682"><ele>73.5</ele><time>2011-10-13T13:55:51.0000000+00:00</time></trkpt><trkpt lat="44.430943" lon="34.105682"><ele>73.5</ele><time>2011-10-13T13:55:56.0000000+00:00</time></trkpt><trkpt lat="44.430946" lon="34.105682"><ele>73.5</ele><time>2011-10-13T13:56:01.0000000+00:00</time></trkpt><trkpt lat="44.43095" lon="34.105675"><ele>73.4</ele><time>2011-10-13T13:56:06.0000000+00:00</time></trkpt><trkpt lat="44.430943" lon="34.105671"><ele>73.3</ele><time>2011-10-13T13:56:11.0000000+00:00</time></trkpt><trkpt lat="44.430878" lon="34.105721"><ele>70.6</ele><time>2011-10-13T13:56:16.0000000+00:00</time></trkpt><trkpt lat="44.430862" lon="34.105717"><ele>69.6</ele><time>2011-10-13T13:56:21.0000000+00:00</time></trkpt><trkpt lat="44.430862" lon="34.105713"><ele>69.6</ele><time>2011-10-13T13:56:26.0000000+00:00</time></trkpt><trkpt lat="44.430862" lon="34.105713"><ele>69.5</ele><time>2011-10-13T13:56:31.0000000+00:00</time></trkpt><trkpt lat="44.430862" lon="34.105713"><ele>69.4</ele><time>2011-10-13T13:56:36.0000000+00:00</time></trkpt><trkpt lat="44.430862" lon="34.105713"><ele>68.9</ele><time>2011-10-13T13:56:41.0000000+00:00</time></trkpt><trkpt lat="44.430859" lon="34.10569"><ele>68.3</ele><time>2011-10-13T13:56:46.0000000+00:00</time></trkpt><trkpt lat="44.430843" lon="34.105663"><ele>67.7</ele><time>2011-10-13T13:56:51.0000000+00:00</time></trkpt><trkpt lat="44.430851" lon="34.105644"><ele>67.3</ele><time>2011-10-13T13:56:56.0000000+00:00</time></trkpt><trkpt lat="44.430828" lon="34.105606"><ele>66.6</ele><time>2011-10-13T13:57:01.0000000+00:00</time></trkpt><trkpt lat="44.430809" lon="34.105507"><ele>65.5</ele><time>2011-10-13T13:57:06.0000000+00:00</time></trkpt><trkpt lat="44.430786" lon="34.105442"><ele>64.1</ele><time>2011-10-13T13:57:11.0000000+00:00</time></trkpt><trkpt lat="44.430779" lon="34.105404"><ele>64.4</ele><time>2011-10-13T13:57:16.0000000+00:00</time></trkpt><trkpt lat="44.430809" lon="34.105335"><ele>63.6</ele><time>2011-10-13T13:57:21.0000000+00:00</time></trkpt><trkpt lat="44.430744" lon="34.105274"><ele>61.6</ele><time>2011-10-13T13:57:26.0000000+00:00</time></trkpt><trkpt lat="44.430714" lon="34.105125"><ele>61.2</ele><time>2011-10-13T13:57:31.0000000+00:00</time></trkpt><trkpt lat="44.430656" lon="34.104927"><ele>59.7</ele><time>2011-10-13T13:57:36.0000000+00:00</time></trkpt><trkpt lat="44.430611" lon="34.104832"><ele>58.2</ele><time>2011-10-13T13:57:41.0000000+00:00</time></trkpt><trkpt lat="44.430618" lon="34.104828"><ele>57.2</ele><time>2011-10-13T13:57:46.0000000+00:00</time></trkpt><trkpt lat="44.430618" lon="34.104824"><ele>56.9</ele><time>2011-10-13T13:57:51.0000000+00:00</time></trkpt><trkpt lat="44.430618" lon="34.104824"><ele>57.0</ele><time>2011-10-13T13:57:56.0000000+00:00</time></trkpt><trkpt lat="44.430618" lon="34.104824"><ele>57.0</ele><time>2011-10-13T13:58:01.0000000+00:00</time></trkpt><trkpt lat="44.430618" lon="34.104824"><ele>57.0</ele><time>2011-10-13T13:58:06.0000000+00:00</time></trkpt><trkpt lat="44.430618" lon="34.104824"><ele>57.0</ele><time>2011-10-13T13:58:11.0000000+00:00</time></trkpt><trkpt lat="44.430618" lon="34.104824"><ele>57.0</ele><time>2011-10-13T13:58:16.0000000+00:00</time></trkpt><trkpt lat="44.430618" lon="34.104824"><ele>57.0</ele><time>2011-10-13T13:58:21.0000000+00:00</time></trkpt><trkpt lat="44.430618" lon="34.104824"><ele>57.0</ele><time>2011-10-13T13:58:26.0000000+00:00</time></trkpt><trkpt lat="44.430618" lon="34.104824"><ele>57.0</ele><time>2011-10-13T13:58:31.0000000+00:00</time></trkpt><trkpt lat="44.430618" lon="34.104824"><ele>57.0</ele><time>2011-10-13T13:58:36.0000000+00:00</time></trkpt><trkpt lat="44.430618" lon="34.104824"><ele>57.0</ele><time>2011-10-13T13:58:41.0000000+00:00</time></trkpt><trkpt lat="44.430618" lon="34.104824"><ele>57.0</ele><time>2011-10-13T13:58:46.0000000+00:00</time></trkpt><trkpt lat="44.430618" lon="34.104824"><ele>57.0</ele><time>2011-10-13T13:58:51.0000000+00:00</time></trkpt><trkpt lat="44.430618" lon="34.104824"><ele>56.9</ele><time>2011-10-13T13:58:56.0000000+00:00</time></trkpt><trkpt lat="44.430622" lon="34.10482"><ele>56.9</ele><time>2011-10-13T13:59:01.0000000+00:00</time></trkpt><trkpt lat="44.430626" lon="34.10482"><ele>56.9</ele><time>2011-10-13T13:59:06.0000000+00:00</time></trkpt><trkpt lat="44.43063" lon="34.10482"><ele>56.7</ele><time>2011-10-13T13:59:11.0000000+00:00</time></trkpt><trkpt lat="44.43063" lon="34.10482"><ele>56.7</ele><time>2011-10-13T13:59:16.0000000+00:00</time></trkpt><trkpt lat="44.430634" lon="34.10482"><ele>56.7</ele><time>2011-10-13T13:59:21.0000000+00:00</time></trkpt><trkpt lat="44.430634" lon="34.104816"><ele>56.8</ele><time>2011-10-13T13:59:26.0000000+00:00</time></trkpt><trkpt lat="44.430614" lon="34.104809"><ele>56.7</ele><time>2011-10-13T13:59:31.0000000+00:00</time></trkpt><trkpt lat="44.430611" lon="34.104809"><ele>56.6</ele><time>2011-10-13T13:59:36.0000000+00:00</time></trkpt><trkpt lat="44.430611" lon="34.104809"><ele>56.5</ele><time>2011-10-13T13:59:41.0000000+00:00</time></trkpt><trkpt lat="44.430611" lon="34.104809"><ele>56.5</ele><time>2011-10-13T13:59:46.0000000+00:00</time></trkpt><trkpt lat="44.430607" lon="34.104809"><ele>56.6</ele><time>2011-10-13T13:59:51.0000000+00:00</time></trkpt><trkpt lat="44.430603" lon="34.104809"><ele>56.7</ele><time>2011-10-13T13:59:56.0000000+00:00</time></trkpt><trkpt lat="44.430599" lon="34.104816"><ele>56.9</ele><time>2011-10-13T14:00:01.0000000+00:00</time></trkpt><trkpt lat="44.430595" lon="34.104828"><ele>57.2</ele><time>2011-10-13T14:00:06.0000000+00:00</time></trkpt><trkpt lat="44.430588" lon="34.104836"><ele>57.5</ele><time>2011-10-13T14:00:11.0000000+00:00</time></trkpt><trkpt lat="44.430588" lon="34.104839"><ele>57.7</ele><time>2011-10-13T14:00:16.0000000+00:00</time></trkpt><trkpt lat="44.430557" lon="34.104824"><ele>57.1</ele><time>2011-10-13T14:00:21.0000000+00:00</time></trkpt><trkpt lat="44.430603" lon="34.104965"><ele>57.2</ele><time>2011-10-13T14:00:26.0000000+00:00</time></trkpt><trkpt lat="44.430733" lon="34.10519"><ele>60.5</ele><time>2011-10-13T14:00:31.0000000+00:00</time></trkpt><trkpt lat="44.430824" lon="34.105427"><ele>65.0</ele><time>2011-10-13T14:00:36.0000000+00:00</time></trkpt><trkpt lat="44.430912" lon="34.105671"><ele>66.2</ele><time>2011-10-13T14:00:41.0000000+00:00</time></trkpt><trkpt lat="44.430977" lon="34.105911"><ele>67.4</ele><time>2011-10-13T14:00:46.0000000+00:00</time></trkpt><trkpt lat="44.430988" lon="34.106079"><ele>70.0</ele><time>2011-10-13T14:00:51.0000000+00:00</time></trkpt><trkpt lat="44.430984" lon="34.10619"><ele>69.3</ele><time>2011-10-13T14:00:56.0000000+00:00</time></trkpt><trkpt lat="44.43092" lon="34.106258"><ele>68.8</ele><time>2011-10-13T14:01:01.0000000+00:00</time></trkpt><trkpt lat="44.43079" lon="34.106331"><ele>68.6</ele><time>2011-10-13T14:01:06.0000000+00:00</time></trkpt><trkpt lat="44.43063" lon="34.1064"><ele>66.4</ele><time>2011-10-13T14:01:11.0000000+00:00</time></trkpt><trkpt lat="44.430534" lon="34.106445"><ele>64.8</ele><time>2011-10-13T14:01:16.0000000+00:00</time></trkpt><trkpt lat="44.430447" lon="34.106571"><ele>62.8</ele><time>2011-10-13T14:01:21.0000000+00:00</time></trkpt><trkpt lat="44.430462" lon="34.106846"><ele>60.7</ele><time>2011-10-13T14:01:26.0000000+00:00</time></trkpt><trkpt lat="44.430546" lon="34.107052"><ele>59.8</ele><time>2011-10-13T14:01:31.0000000+00:00</time></trkpt><trkpt lat="44.430649" lon="34.107315"><ele>58.7</ele><time>2011-10-13T14:01:36.0000000+00:00</time></trkpt><trkpt lat="44.430672" lon="34.107639"><ele>57.2</ele><time>2011-10-13T14:01:41.0000000+00:00</time></trkpt><trkpt lat="44.430687" lon="34.107906"><ele>56.3</ele><time>2011-10-13T14:01:46.0000000+00:00</time></trkpt><trkpt lat="44.430756" lon="34.108212"><ele>55.5</ele><time>2011-10-13T14:01:51.0000000+00:00</time></trkpt><trkpt lat="44.430851" lon="34.108555"><ele>54.1</ele><time>2011-10-13T14:01:56.0000000+00:00</time></trkpt><trkpt lat="44.431049" lon="34.108742"><ele>53.0</ele><time>2011-10-13T14:02:01.0000000+00:00</time></trkpt><trkpt lat="44.431274" lon="34.108742"><ele>51.6</ele><time>2011-10-13T14:02:06.0000000+00:00</time></trkpt><trkpt lat="44.431347" lon="34.108768"><ele>48.9</ele><time>2011-10-13T14:02:11.0000000+00:00</time></trkpt><trkpt lat="44.431435" lon="34.108799"><ele>49.8</ele><time>2011-10-13T14:02:16.0000000+00:00</time></trkpt><trkpt lat="44.431515" lon="34.108784"><ele>51.3</ele><time>2011-10-13T14:02:21.0000000+00:00</time></trkpt><trkpt lat="44.431576" lon="34.108692"><ele>53.9</ele><time>2011-10-13T14:02:26.0000000+00:00</time></trkpt><trkpt lat="44.431671" lon="34.108723"><ele>57.2</ele><time>2011-10-13T14:02:31.0000000+00:00</time></trkpt><trkpt lat="44.431702" lon="34.108711"><ele>58.6</ele><time>2011-10-13T14:02:36.0000000+00:00</time></trkpt><trkpt lat="44.431717" lon="34.108704"><ele>59.5</ele><time>2011-10-13T14:02:41.0000000+00:00</time></trkpt><trkpt lat="44.43169" lon="34.108662"><ele>61.0</ele><time>2011-10-13T14:02:46.0000000+00:00</time></trkpt><trkpt lat="44.431652" lon="34.108658"><ele>62.9</ele><time>2011-10-13T14:02:51.0000000+00:00</time></trkpt><trkpt lat="44.431591" lon="34.108696"><ele>63.0</ele><time>2011-10-13T14:02:56.0000000+00:00</time></trkpt><trkpt lat="44.431538" lon="34.108742"><ele>63.7</ele><time>2011-10-13T14:03:01.0000000+00:00</time></trkpt><trkpt lat="44.431355" lon="34.108711"><ele>64.4</ele><time>2011-10-13T14:03:06.0000000+00:00</time></trkpt><trkpt lat="44.431137" lon="34.108715"><ele>68.2</ele><time>2011-10-13T14:03:11.0000000+00:00</time></trkpt><trkpt lat="44.430908" lon="34.108555"><ele>63.1</ele><time>2011-10-13T14:03:16.0000000+00:00</time></trkpt><trkpt lat="44.430798" lon="34.108246"><ele>61.2</ele><time>2011-10-13T14:03:21.0000000+00:00</time></trkpt><trkpt lat="44.430733" lon="34.107964"><ele>60.7</ele><time>2011-10-13T14:03:26.0000000+00:00</time></trkpt><trkpt lat="44.430702" lon="34.107655"><ele>60.7</ele><time>2011-10-13T14:03:31.0000000+00:00</time></trkpt><trkpt lat="44.430668" lon="34.107368"><ele>60.5</ele><time>2011-10-13T14:03:36.0000000+00:00</time></trkpt><trkpt lat="44.430553" lon="34.107121"><ele>62.0</ele><time>2011-10-13T14:03:41.0000000+00:00</time></trkpt><trkpt lat="44.43045" lon="34.106865"><ele>63.2</ele><time>2011-10-13T14:03:46.0000000+00:00</time></trkpt><trkpt lat="44.430466" lon="34.106632"><ele>65.2</ele><time>2011-10-13T14:03:51.0000000+00:00</time></trkpt><trkpt lat="44.430573" lon="34.10648"><ele>63.4</ele><time>2011-10-13T14:03:56.0000000+00:00</time></trkpt><trkpt lat="44.430595" lon="34.10648"><ele>63.8</ele><time>2011-10-13T14:04:01.0000000+00:00</time></trkpt><trkpt lat="44.430595" lon="34.106476"><ele>63.8</ele><time>2011-10-13T14:04:06.0000000+00:00</time></trkpt><trkpt lat="44.430599" lon="34.106476"><ele>63.9</ele><time>2011-10-13T14:04:11.0000000+00:00</time></trkpt><trkpt lat="44.430614" lon="34.106476"><ele>64.0</ele><time>2011-10-13T14:04:16.0000000+00:00</time></trkpt><trkpt lat="44.43066" lon="34.106453"><ele>65.1</ele><time>2011-10-13T14:04:21.0000000+00:00</time></trkpt><trkpt lat="44.430679" lon="34.106434"><ele>65.1</ele><time>2011-10-13T14:04:26.0000000+00:00</time></trkpt><trkpt lat="44.430695" lon="34.106403"><ele>66.2</ele><time>2011-10-13T14:04:31.0000000+00:00</time></trkpt><trkpt lat="44.43074" lon="34.106388"><ele>70.6</ele><time>2011-10-13T14:04:36.0000000+00:00</time></trkpt><trkpt lat="44.430912" lon="34.106319"><ele>75.1</ele><time>2011-10-13T14:04:41.0000000+00:00</time></trkpt><trkpt lat="44.431011" lon="34.106117"><ele>76.8</ele><time>2011-10-13T14:04:46.0000000+00:00</time></trkpt><trkpt lat="44.430988" lon="34.105911"><ele>75.3</ele><time>2011-10-13T14:04:51.0000000+00:00</time></trkpt><trkpt lat="44.430893" lon="34.105705"><ele>72.7</ele><time>2011-10-13T14:04:56.0000000+00:00</time></trkpt><trkpt lat="44.430798" lon="34.10548"><ele>69.1</ele><time>2011-10-13T14:05:01.0000000+00:00</time></trkpt><trkpt lat="44.430809" lon="34.105461"><ele>67.2</ele><time>2011-10-13T14:05:06.0000000+00:00</time></trkpt><trkpt lat="44.430847" lon="34.105537"><ele>67.5</ele><time>2011-10-13T14:05:11.0000000+00:00</time></trkpt><trkpt lat="44.430923" lon="34.105709"><ele>69.7</ele><time>2011-10-13T14:05:16.0000000+00:00</time></trkpt><trkpt lat="44.430977" lon="34.105778"><ele>70.1</ele><time>2011-10-13T14:05:21.0000000+00:00</time></trkpt><trkpt lat="44.431026" lon="34.105709"><ele>72.6</ele><time>2011-10-13T14:05:26.0000000+00:00</time></trkpt><trkpt lat="44.431049" lon="34.105556"><ele>72.4</ele><time>2011-10-13T14:05:31.0000000+00:00</time></trkpt><trkpt lat="44.431076" lon="34.105465"><ele>72.0</ele><time>2011-10-13T14:05:36.0000000+00:00</time></trkpt><trkpt lat="44.431164" lon="34.105354"><ele>72.7</ele><time>2011-10-13T14:05:41.0000000+00:00</time></trkpt><trkpt lat="44.431286" lon="34.105263"><ele>73.4</ele><time>2011-10-13T14:05:46.0000000+00:00</time></trkpt><trkpt lat="44.431374" lon="34.105198"><ele>73.6</ele><time>2011-10-13T14:05:51.0000000+00:00</time></trkpt><trkpt lat="44.431446" lon="34.105152"><ele>73.0</ele><time>2011-10-13T14:05:56.0000000+00:00</time></trkpt><trkpt lat="44.43137" lon="34.105194"><ele>71.2</ele><time>2011-10-13T14:06:01.0000000+00:00</time></trkpt><trkpt lat="44.43124" lon="34.105267"><ele>69.9</ele><time>2011-10-13T14:06:06.0000000+00:00</time></trkpt><trkpt lat="44.431145" lon="34.105469"><ele>67.6</ele><time>2011-10-13T14:06:11.0000000+00:00</time></trkpt><trkpt lat="44.431076" lon="34.105698"><ele>66.9</ele><time>2011-10-13T14:06:16.0000000+00:00</time></trkpt><trkpt lat="44.431011" lon="34.105862"><ele>65.1</ele><time>2011-10-13T14:06:21.0000000+00:00</time></trkpt><trkpt lat="44.431" lon="34.105938"><ele>65.2</ele><time>2011-10-13T14:06:26.0000000+00:00</time></trkpt><trkpt lat="44.430973" lon="34.105862"><ele>65.1</ele><time>2011-10-13T14:06:31.0000000+00:00</time></trkpt><trkpt lat="44.430969" lon="34.105839"><ele>65.9</ele><time>2011-10-13T14:06:36.0000000+00:00</time></trkpt><trkpt lat="44.430962" lon="34.105827"><ele>66.4</ele><time>2011-10-13T14:06:41.0000000+00:00</time></trkpt><trkpt lat="44.430965" lon="34.105816"><ele>66.7</ele><time>2011-10-13T14:06:46.0000000+00:00</time></trkpt><trkpt lat="44.430962" lon="34.105808"><ele>66.9</ele><time>2011-10-13T14:06:51.0000000+00:00</time></trkpt><trkpt lat="44.430965" lon="34.105816"><ele>66.8</ele><time>2011-10-13T14:06:56.0000000+00:00</time></trkpt><trkpt lat="44.430977" lon="34.105831"><ele>66.4</ele><time>2011-10-13T14:07:01.0000000+00:00</time></trkpt><trkpt lat="44.430984" lon="34.105808"><ele>65.2</ele><time>2011-10-13T14:07:06.0000000+00:00</time></trkpt><trkpt lat="44.430889" lon="34.105862"><ele>65.2</ele><time>2011-10-13T14:07:11.0000000+00:00</time></trkpt><trkpt lat="44.430759" lon="34.105942"><ele>65.4</ele><time>2011-10-13T14:07:16.0000000+00:00</time></trkpt><trkpt lat="44.430698" lon="34.105957"><ele>65.3</ele><time>2011-10-13T14:07:21.0000000+00:00</time></trkpt><trkpt lat="44.430576" lon="34.105988"><ele>64.8</ele><time>2011-10-13T14:07:26.0000000+00:00</time></trkpt><trkpt lat="44.430508" lon="34.106014"><ele>63.9</ele><time>2011-10-13T14:07:31.0000000+00:00</time></trkpt><trkpt lat="44.4305" lon="34.105991"><ele>64.7</ele><time>2011-10-13T14:07:36.0000000+00:00</time></trkpt><trkpt lat="44.430496" lon="34.106003"><ele>66.0</ele><time>2011-10-13T14:07:41.0000000+00:00</time></trkpt><trkpt lat="44.430454" lon="34.105995"><ele>64.7</ele><time>2011-10-13T14:07:46.0000000+00:00</time></trkpt><trkpt lat="44.430408" lon="34.105988"><ele>63.3</ele><time>2011-10-13T14:07:51.0000000+00:00</time></trkpt><trkpt lat="44.430405" lon="34.105965"><ele>63.4</ele><time>2011-10-13T14:07:56.0000000+00:00</time></trkpt><trkpt lat="44.430393" lon="34.105961"><ele>63.6</ele><time>2011-10-13T14:08:01.0000000+00:00</time></trkpt><trkpt lat="44.430374" lon="34.105942"><ele>63.7</ele><time>2011-10-13T14:08:06.0000000+00:00</time></trkpt><trkpt lat="44.430305" lon="34.105927"><ele>63.7</ele><time>2011-10-13T14:08:11.0000000+00:00</time></trkpt><trkpt lat="44.430283" lon="34.105915"><ele>63.8</ele><time>2011-10-13T14:08:16.0000000+00:00</time></trkpt><trkpt lat="44.430283" lon="34.105911"><ele>63.8</ele><time>2011-10-13T14:08:21.0000000+00:00</time></trkpt><trkpt lat="44.430286" lon="34.105915"><ele>63.8</ele><time>2011-10-13T14:08:26.0000000+00:00</time></trkpt><trkpt lat="44.43029" lon="34.105911"><ele>63.7</ele><time>2011-10-13T14:08:31.0000000+00:00</time></trkpt><trkpt lat="44.430279" lon="34.105873"><ele>63.8</ele><time>2011-10-13T14:08:36.0000000+00:00</time></trkpt><trkpt lat="44.430275" lon="34.105873"><ele>63.8</ele><time>2011-10-13T14:08:41.0000000+00:00</time></trkpt><trkpt lat="44.430279" lon="34.105873"><ele>63.8</ele><time>2011-10-13T14:08:46.0000000+00:00</time></trkpt><trkpt lat="44.430279" lon="34.105877"><ele>63.8</ele><time>2011-10-13T14:08:51.0000000+00:00</time></trkpt><trkpt lat="44.43026" lon="34.105865"><ele>63.7</ele><time>2011-10-13T14:08:56.0000000+00:00</time></trkpt><trkpt lat="44.430252" lon="34.10585"><ele>63.6</ele><time>2011-10-13T14:09:01.0000000+00:00</time></trkpt><trkpt lat="44.430248" lon="34.105831"><ele>63.4</ele><time>2011-10-13T14:09:06.0000000+00:00</time></trkpt><trkpt lat="44.430256" lon="34.105816"><ele>63.4</ele><time>2011-10-13T14:09:11.0000000+00:00</time></trkpt><trkpt lat="44.43026" lon="34.105827"><ele>63.8</ele><time>2011-10-13T14:09:16.0000000+00:00</time></trkpt><trkpt lat="44.43026" lon="34.105816"><ele>63.8</ele><time>2011-10-13T14:09:21.0000000+00:00</time></trkpt><trkpt lat="44.430256" lon="34.105793"><ele>63.8</ele><time>2011-10-13T14:09:26.0000000+00:00</time></trkpt><trkpt lat="44.430256" lon="34.105789"><ele>63.7</ele><time>2011-10-13T14:09:31.0000000+00:00</time></trkpt><trkpt lat="44.43026" lon="34.105747"><ele>63.6</ele><time>2011-10-13T14:09:36.0000000+00:00</time></trkpt><trkpt lat="44.430271" lon="34.10574"><ele>63.3</ele><time>2011-10-13T14:09:41.0000000+00:00</time></trkpt><trkpt lat="44.430294" lon="34.10574"><ele>63.2</ele><time>2011-10-13T14:09:46.0000000+00:00</time></trkpt><trkpt lat="44.430286" lon="34.105705"><ele>63.7</ele><time>2011-10-13T14:09:51.0000000+00:00</time></trkpt></trkseg><trkseg><trkpt lat="44.430344" lon="34.105839"><ele>-38.0</ele><time>2011-10-13T15:56:40.0000000+00:00</time></trkpt><trkpt lat="44.430405" lon="34.105854"><ele>-36.2</ele><time>2011-10-13T15:56:46.0000000+00:00</time></trkpt><trkpt lat="44.430202" lon="34.106003"><ele>71.2</ele><time>2011-10-13T15:56:51.0000000+00:00</time></trkpt><trkpt lat="44.43029" lon="34.106037"><ele>71.7</ele><time>2011-10-13T15:56:56.0000000+00:00</time></trkpt><trkpt lat="44.430321" lon="34.106033"><ele>70.6</ele><time>2011-10-13T15:57:01.0000000+00:00</time></trkpt><trkpt lat="44.430336" lon="34.106041"><ele>70.9</ele><time>2011-10-13T15:57:06.0000000+00:00</time></trkpt><trkpt lat="44.430363" lon="34.106041"><ele>68.1</ele><time>2011-10-13T15:57:11.0000000+00:00</time></trkpt><trkpt lat="44.430397" lon="34.106018"><ele>67.0</ele><time>2011-10-13T15:57:16.0000000+00:00</time></trkpt><trkpt lat="44.430431" lon="34.105995"><ele>67.1</ele><time>2011-10-13T15:57:21.0000000+00:00</time></trkpt><trkpt lat="44.430481" lon="34.105976"><ele>67.0</ele><time>2011-10-13T15:57:26.0000000+00:00</time></trkpt><trkpt lat="44.430576" lon="34.105934"><ele>66.4</ele><time>2011-10-13T15:57:31.0000000+00:00</time></trkpt><trkpt lat="44.430672" lon="34.105904"><ele>66.8</ele><time>2011-10-13T15:57:36.0000000+00:00</time></trkpt><trkpt lat="44.430744" lon="34.105907"><ele>67.2</ele><time>2011-10-13T15:57:41.0000000+00:00</time></trkpt><trkpt lat="44.430866" lon="34.105846"><ele>66.8</ele><time>2011-10-13T15:57:46.0000000+00:00</time></trkpt><trkpt lat="44.430897" lon="34.105812"><ele>67.3</ele><time>2011-10-13T15:57:51.0000000+00:00</time></trkpt><trkpt lat="44.43092" lon="34.105778"><ele>67.8</ele><time>2011-10-13T15:57:56.0000000+00:00</time></trkpt><trkpt lat="44.430908" lon="34.105663"><ele>68.7</ele><time>2011-10-13T15:58:01.0000000+00:00</time></trkpt><trkpt lat="44.430836" lon="34.105564"><ele>70.1</ele><time>2011-10-13T15:58:06.0000000+00:00</time></trkpt><trkpt lat="44.430851" lon="34.105537"><ele>71.3</ele><time>2011-10-13T15:58:11.0000000+00:00</time></trkpt><trkpt lat="44.430862" lon="34.10553"><ele>71.5</ele><time>2011-10-13T15:58:16.0000000+00:00</time></trkpt><trkpt lat="44.43087" lon="34.105534"><ele>71.7</ele><time>2011-10-13T15:58:21.0000000+00:00</time></trkpt><trkpt lat="44.430912" lon="34.105526"><ele>71.8</ele><time>2011-10-13T15:58:26.0000000+00:00</time></trkpt><trkpt lat="44.430958" lon="34.105492"><ele>72.1</ele><time>2011-10-13T15:58:31.0000000+00:00</time></trkpt><trkpt lat="44.430996" lon="34.10548"><ele>72.0</ele><time>2011-10-13T15:58:36.0000000+00:00</time></trkpt><trkpt lat="44.431015" lon="34.10548"><ele>72.0</ele><time>2011-10-13T15:58:41.0000000+00:00</time></trkpt><trkpt lat="44.431007" lon="34.105488"><ele>72.4</ele><time>2011-10-13T15:58:46.0000000+00:00</time></trkpt><trkpt lat="44.430996" lon="34.105499"><ele>72.6</ele><time>2011-10-13T15:58:51.0000000+00:00</time></trkpt><trkpt lat="44.430996" lon="34.105476"><ele>72.3</ele><time>2011-10-13T15:58:56.0000000+00:00</time></trkpt><trkpt lat="44.431007" lon="34.10548"><ele>72.9</ele><time>2011-10-13T15:59:01.0000000+00:00</time></trkpt><trkpt lat="44.431011" lon="34.105469"><ele>73.3</ele><time>2011-10-13T15:59:06.0000000+00:00</time></trkpt><trkpt lat="44.431007" lon="34.105461"><ele>73.3</ele><time>2011-10-13T15:59:11.0000000+00:00</time></trkpt><trkpt lat="44.431011" lon="34.105461"><ele>73.4</ele><time>2011-10-13T15:59:16.0000000+00:00</time></trkpt><trkpt lat="44.431015" lon="34.105457"><ele>73.5</ele><time>2011-10-13T15:59:21.0000000+00:00</time></trkpt><trkpt lat="44.431015" lon="34.10545"><ele>73.6</ele><time>2011-10-13T15:59:26.0000000+00:00</time></trkpt><trkpt lat="44.431019" lon="34.105453"><ele>73.7</ele><time>2011-10-13T15:59:31.0000000+00:00</time></trkpt><trkpt lat="44.431023" lon="34.10545"><ele>73.7</ele><time>2011-10-13T15:59:36.0000000+00:00</time></trkpt><trkpt lat="44.431026" lon="34.105446"><ele>73.8</ele><time>2011-10-13T15:59:41.0000000+00:00</time></trkpt><trkpt lat="44.431026" lon="34.105438"><ele>73.8</ele><time>2011-10-13T15:59:46.0000000+00:00</time></trkpt><trkpt lat="44.431026" lon="34.105434"><ele>73.9</ele><time>2011-10-13T15:59:51.0000000+00:00</time></trkpt><trkpt lat="44.431019" lon="34.105438"><ele>74.0</ele><time>2011-10-13T15:59:56.0000000+00:00</time></trkpt><trkpt lat="44.431011" lon="34.105438"><ele>74.0</ele><time>2011-10-13T16:00:01.0000000+00:00</time></trkpt><trkpt lat="44.431007" lon="34.105434"><ele>74.1</ele><time>2011-10-13T16:00:06.0000000+00:00</time></trkpt><trkpt lat="44.431004" lon="34.105434"><ele>74.1</ele><time>2011-10-13T16:00:11.0000000+00:00</time></trkpt><trkpt lat="44.43095" lon="34.105408"><ele>74.1</ele><time>2011-10-13T16:00:16.0000000+00:00</time></trkpt><trkpt lat="44.430916" lon="34.105392"><ele>74.1</ele><time>2011-10-13T16:00:21.0000000+00:00</time></trkpt><trkpt lat="44.430878" lon="34.105389"><ele>74.2</ele><time>2011-10-13T16:00:26.0000000+00:00</time></trkpt><trkpt lat="44.430832" lon="34.105373"><ele>74.4</ele><time>2011-10-13T16:00:31.0000000+00:00</time></trkpt><trkpt lat="44.430775" lon="34.105289"><ele>74.8</ele><time>2011-10-13T16:00:36.0000000+00:00</time></trkpt><trkpt lat="44.430748" lon="34.105225"><ele>75.1</ele><time>2011-10-13T16:00:41.0000000+00:00</time></trkpt><trkpt lat="44.430737" lon="34.105152"><ele>75.3</ele><time>2011-10-13T16:00:46.0000000+00:00</time></trkpt><trkpt lat="44.430668" lon="34.105057"><ele>73.3</ele><time>2011-10-13T16:00:51.0000000+00:00</time></trkpt><trkpt lat="44.430614" lon="34.105022"><ele>72.5</ele><time>2011-10-13T16:00:56.0000000+00:00</time></trkpt><trkpt lat="44.43058" lon="34.105003"><ele>73.1</ele><time>2011-10-13T16:01:01.0000000+00:00</time></trkpt><trkpt lat="44.430492" lon="34.104954"><ele>74.4</ele><time>2011-10-13T16:01:06.0000000+00:00</time></trkpt><trkpt lat="44.430431" lon="34.104961"><ele>75.4</ele><time>2011-10-13T16:01:11.0000000+00:00</time></trkpt><trkpt lat="44.430405" lon="34.104958"><ele>75.8</ele><time>2011-10-13T16:01:16.0000000+00:00</time></trkpt><trkpt lat="44.430344" lon="34.104942"><ele>76.9</ele><time>2011-10-13T16:01:21.0000000+00:00</time></trkpt><trkpt lat="44.430279" lon="34.10495"><ele>78.0</ele><time>2011-10-13T16:01:26.0000000+00:00</time></trkpt><trkpt lat="44.43021" lon="34.104969"><ele>79.0</ele><time>2011-10-13T16:01:31.0000000+00:00</time></trkpt><trkpt lat="44.430164" lon="34.105007"><ele>80.2</ele><time>2011-10-13T16:01:36.0000000+00:00</time></trkpt><trkpt lat="44.430107" lon="34.105164"><ele>78.1</ele><time>2011-10-13T16:01:41.0000000+00:00</time></trkpt><trkpt lat="44.430065" lon="34.105221"><ele>76.5</ele><time>2011-10-13T16:01:46.0000000+00:00</time></trkpt><trkpt lat="44.430031" lon="34.105286"><ele>76.8</ele><time>2011-10-13T16:01:51.0000000+00:00</time></trkpt><trkpt lat="44.429943" lon="34.105335"><ele>76.2</ele><time>2011-10-13T16:01:56.0000000+00:00</time></trkpt><trkpt lat="44.429893" lon="34.105328"><ele>76.6</ele><time>2011-10-13T16:02:01.0000000+00:00</time></trkpt><trkpt lat="44.42984" lon="34.105289"><ele>77.6</ele><time>2011-10-13T16:02:06.0000000+00:00</time></trkpt><trkpt lat="44.429787" lon="34.105278"><ele>77.5</ele><time>2011-10-13T16:02:11.0000000+00:00</time></trkpt><trkpt lat="44.429737" lon="34.105247"><ele>78.8</ele><time>2011-10-13T16:02:16.0000000+00:00</time></trkpt><trkpt lat="44.429665" lon="34.105225"><ele>80.2</ele><time>2011-10-13T16:02:21.0000000+00:00</time></trkpt><trkpt lat="44.429565" lon="34.105206"><ele>81.5</ele><time>2011-10-13T16:02:26.0000000+00:00</time></trkpt><trkpt lat="44.429501" lon="34.105156"><ele>82.3</ele><time>2011-10-13T16:02:31.0000000+00:00</time></trkpt><trkpt lat="44.429451" lon="34.105106"><ele>84.5</ele><time>2011-10-13T16:02:36.0000000+00:00</time></trkpt><trkpt lat="44.429398" lon="34.105072"><ele>85.3</ele><time>2011-10-13T16:02:41.0000000+00:00</time></trkpt><trkpt lat="44.429325" lon="34.105038"><ele>85.4</ele><time>2011-10-13T16:02:46.0000000+00:00</time></trkpt><trkpt lat="44.42926" lon="34.10498"><ele>86.4</ele><time>2011-10-13T16:02:51.0000000+00:00</time></trkpt><trkpt lat="44.429203" lon="34.104935"><ele>86.7</ele><time>2011-10-13T16:02:56.0000000+00:00</time></trkpt><trkpt lat="44.429138" lon="34.104885"><ele>88.2</ele><time>2011-10-13T16:03:01.0000000+00:00</time></trkpt><trkpt lat="44.429089" lon="34.104733"><ele>78.7</ele><time>2011-10-13T16:03:06.0000000+00:00</time></trkpt><trkpt lat="44.429058" lon="34.104675"><ele>80.1</ele><time>2011-10-13T16:03:11.0000000+00:00</time></trkpt><trkpt lat="44.428997" lon="34.104595"><ele>77.0</ele><time>2011-10-13T16:03:16.0000000+00:00</time></trkpt><trkpt lat="44.428967" lon="34.104523"><ele>76.2</ele><time>2011-10-13T16:03:21.0000000+00:00</time></trkpt><trkpt lat="44.428917" lon="34.10442"><ele>73.3</ele><time>2011-10-13T16:03:26.0000000+00:00</time></trkpt><trkpt lat="44.428871" lon="34.104347"><ele>71.8</ele><time>2011-10-13T16:03:31.0000000+00:00</time></trkpt><trkpt lat="44.428848" lon="34.104244"><ele>71.1</ele><time>2011-10-13T16:03:36.0000000+00:00</time></trkpt><trkpt lat="44.428818" lon="34.104156"><ele>72.6</ele><time>2011-10-13T16:03:41.0000000+00:00</time></trkpt><trkpt lat="44.428802" lon="34.104057"><ele>71.7</ele><time>2011-10-13T16:03:46.0000000+00:00</time></trkpt><trkpt lat="44.428753" lon="34.10397"><ele>71.1</ele><time>2011-10-13T16:03:51.0000000+00:00</time></trkpt><trkpt lat="44.428768" lon="34.103897"><ele>72.6</ele><time>2011-10-13T16:03:56.0000000+00:00</time></trkpt><trkpt lat="44.428776" lon="34.10376"><ele>71.4</ele><time>2011-10-13T16:04:01.0000000+00:00</time></trkpt><trkpt lat="44.42878" lon="34.103653"><ele>70.0</ele><time>2011-10-13T16:04:06.0000000+00:00</time></trkpt><trkpt lat="44.42878" lon="34.103542"><ele>68.8</ele><time>2011-10-13T16:04:11.0000000+00:00</time></trkpt><trkpt lat="44.428795" lon="34.103424"><ele>67.2</ele><time>2011-10-13T16:04:16.0000000+00:00</time></trkpt><trkpt lat="44.428795" lon="34.103355"><ele>68.3</ele><time>2011-10-13T16:04:21.0000000+00:00</time></trkpt><trkpt lat="44.428806" lon="34.103298"><ele>69.5</ele><time>2011-10-13T16:04:26.0000000+00:00</time></trkpt><trkpt lat="44.428795" lon="34.103245"><ele>69.6</ele><time>2011-10-13T16:04:31.0000000+00:00</time></trkpt><trkpt lat="44.428791" lon="34.103176"><ele>70.4</ele><time>2011-10-13T16:04:36.0000000+00:00</time></trkpt><trkpt lat="44.428772" lon="34.103088"><ele>69.7</ele><time>2011-10-13T16:04:41.0000000+00:00</time></trkpt><trkpt lat="44.428802" lon="34.103043"><ele>70.0</ele><time>2011-10-13T16:04:46.0000000+00:00</time></trkpt><trkpt lat="44.428848" lon="34.102993"><ele>70.1</ele><time>2011-10-13T16:04:51.0000000+00:00</time></trkpt><trkpt lat="44.428871" lon="34.102913"><ele>70.8</ele><time>2011-10-13T16:04:56.0000000+00:00</time></trkpt><trkpt lat="44.428909" lon="34.102821"><ele>69.0</ele><time>2011-10-13T16:05:01.0000000+00:00</time></trkpt><trkpt lat="44.428951" lon="34.102722"><ele>69.9</ele><time>2011-10-13T16:05:06.0000000+00:00</time></trkpt><trkpt lat="44.428982" lon="34.102612"><ele>69.7</ele><time>2011-10-13T16:05:11.0000000+00:00</time></trkpt><trkpt lat="44.429008" lon="34.102539"><ele>70.9</ele><time>2011-10-13T16:05:16.0000000+00:00</time></trkpt><trkpt lat="44.429035" lon="34.102478"><ele>72.1</ele><time>2011-10-13T16:05:21.0000000+00:00</time></trkpt><trkpt lat="44.429096" lon="34.102402"><ele>69.7</ele><time>2011-10-13T16:05:26.0000000+00:00</time></trkpt><trkpt lat="44.429115" lon="34.102367"><ele>70.1</ele><time>2011-10-13T16:05:31.0000000+00:00</time></trkpt><trkpt lat="44.42915" lon="34.102333"><ele>70.0</ele><time>2011-10-13T16:05:36.0000000+00:00</time></trkpt><trkpt lat="44.429176" lon="34.10228"><ele>69.5</ele><time>2011-10-13T16:05:41.0000000+00:00</time></trkpt><trkpt lat="44.429253" lon="34.102127"><ele>68.1</ele><time>2011-10-13T16:05:46.0000000+00:00</time></trkpt><trkpt lat="44.429314" lon="34.102047"><ele>68.8</ele><time>2011-10-13T16:05:51.0000000+00:00</time></trkpt><trkpt lat="44.429379" lon="34.10199"><ele>70.6</ele><time>2011-10-13T16:05:56.0000000+00:00</time></trkpt><trkpt lat="44.429436" lon="34.101913"><ele>71.6</ele><time>2011-10-13T16:06:01.0000000+00:00</time></trkpt><trkpt lat="44.429504" lon="34.101852"><ele>71.9</ele><time>2011-10-13T16:06:06.0000000+00:00</time></trkpt><trkpt lat="44.429554" lon="34.101814"><ele>72.6</ele><time>2011-10-13T16:06:11.0000000+00:00</time></trkpt><trkpt lat="44.429615" lon="34.101795"><ele>70.5</ele><time>2011-10-13T16:06:16.0000000+00:00</time></trkpt><trkpt lat="44.429672" lon="34.101749"><ele>70.9</ele><time>2011-10-13T16:06:21.0000000+00:00</time></trkpt><trkpt lat="44.42971" lon="34.101662"><ele>70.8</ele><time>2011-10-13T16:06:26.0000000+00:00</time></trkpt><trkpt lat="44.429749" lon="34.101601"><ele>72.0</ele><time>2011-10-13T16:06:31.0000000+00:00</time></trkpt><trkpt lat="44.429821" lon="34.101467"><ele>72.0</ele><time>2011-10-13T16:06:36.0000000+00:00</time></trkpt><trkpt lat="44.429871" lon="34.101334"><ele>73.3</ele><time>2011-10-13T16:06:41.0000000+00:00</time></trkpt><trkpt lat="44.429909" lon="34.101246"><ele>72.4</ele><time>2011-10-13T16:06:46.0000000+00:00</time></trkpt><trkpt lat="44.429935" lon="34.101177"><ele>70.9</ele><time>2011-10-13T16:06:51.0000000+00:00</time></trkpt><trkpt lat="44.429955" lon="34.101112"><ele>72.2</ele><time>2011-10-13T16:06:56.0000000+00:00</time></trkpt><trkpt lat="44.429977" lon="34.101055"><ele>73.7</ele><time>2011-10-13T16:07:01.0000000+00:00</time></trkpt><trkpt lat="44.429977" lon="34.100967"><ele>75.8</ele><time>2011-10-13T16:07:06.0000000+00:00</time></trkpt><trkpt lat="44.430012" lon="34.100868"><ele>77.8</ele><time>2011-10-13T16:07:11.0000000+00:00</time></trkpt><trkpt lat="44.430012" lon="34.100769"><ele>77.2</ele><time>2011-10-13T16:07:16.0000000+00:00</time></trkpt><trkpt lat="44.430038" lon="34.100677"><ele>79.0</ele><time>2011-10-13T16:07:21.0000000+00:00</time></trkpt><trkpt lat="44.430069" lon="34.100616"><ele>80.9</ele><time>2011-10-13T16:07:26.0000000+00:00</time></trkpt><trkpt lat="44.430084" lon="34.100533"><ele>82.7</ele><time>2011-10-13T16:07:31.0000000+00:00</time></trkpt><trkpt lat="44.430096" lon="34.100418"><ele>85.0</ele><time>2011-10-13T16:07:36.0000000+00:00</time></trkpt><trkpt lat="44.430111" lon="34.100319"><ele>86.8</ele><time>2011-10-13T16:07:41.0000000+00:00</time></trkpt><trkpt lat="44.430119" lon="34.100224"><ele>82.2</ele><time>2011-10-13T16:07:46.0000000+00:00</time></trkpt><trkpt lat="44.430141" lon="34.100143"><ele>82.4</ele><time>2011-10-13T16:07:51.0000000+00:00</time></trkpt><trkpt lat="44.430164" lon="34.100056"><ele>76.4</ele><time>2011-10-13T16:07:56.0000000+00:00</time></trkpt><trkpt lat="44.430191" lon="34.100044"><ele>76.6</ele><time>2011-10-13T16:08:01.0000000+00:00</time></trkpt><trkpt lat="44.430214" lon="34.100006"><ele>73.9</ele><time>2011-10-13T16:08:06.0000000+00:00</time></trkpt><trkpt lat="44.43021" lon="34.099995"><ele>74.6</ele><time>2011-10-13T16:08:11.0000000+00:00</time></trkpt><trkpt lat="44.430237" lon="34.099957"><ele>74.9</ele><time>2011-10-13T16:08:16.0000000+00:00</time></trkpt><trkpt lat="44.430275" lon="34.099934"><ele>72.1</ele><time>2011-10-13T16:08:21.0000000+00:00</time></trkpt><trkpt lat="44.430367" lon="34.099834"><ele>65.6</ele><time>2011-10-13T16:08:26.0000000+00:00</time></trkpt><trkpt lat="44.430401" lon="34.099804"><ele>61.3</ele><time>2011-10-13T16:08:31.0000000+00:00</time></trkpt><trkpt lat="44.430378" lon="34.099785"><ele>58.5</ele><time>2011-10-13T16:08:36.0000000+00:00</time></trkpt><trkpt lat="44.430363" lon="34.099751"><ele>57.4</ele><time>2011-10-13T16:08:41.0000000+00:00</time></trkpt><trkpt lat="44.430298" lon="34.099724"><ele>53.6</ele><time>2011-10-13T16:08:46.0000000+00:00</time></trkpt><trkpt lat="44.430248" lon="34.099785"><ele>50.2</ele><time>2011-10-13T16:08:51.0000000+00:00</time></trkpt><trkpt lat="44.430206" lon="34.09967"><ele>50.4</ele><time>2011-10-13T16:08:56.0000000+00:00</time></trkpt><trkpt lat="44.430191" lon="34.099472"><ele>51.2</ele><time>2011-10-13T16:09:01.0000000+00:00</time></trkpt><trkpt lat="44.430176" lon="34.09935"><ele>51.9</ele><time>2011-10-13T16:09:06.0000000+00:00</time></trkpt><trkpt lat="44.430183" lon="34.099304"><ele>51.5</ele><time>2011-10-13T16:09:11.0000000+00:00</time></trkpt><trkpt lat="44.430187" lon="34.099316"><ele>50.3</ele><time>2011-10-13T16:09:16.0000000+00:00</time></trkpt><trkpt lat="44.430225" lon="34.099373"><ele>50.4</ele><time>2011-10-13T16:09:21.0000000+00:00</time></trkpt><trkpt lat="44.430233" lon="34.09943"><ele>49.8</ele><time>2011-10-13T16:09:26.0000000+00:00</time></trkpt><trkpt lat="44.430229" lon="34.099445"><ele>48.0</ele><time>2011-10-13T16:09:31.0000000+00:00</time></trkpt><trkpt lat="44.430225" lon="34.099411"><ele>47.9</ele><time>2011-10-13T16:09:36.0000000+00:00</time></trkpt><trkpt lat="44.430206" lon="34.09938"><ele>47.1</ele><time>2011-10-13T16:09:41.0000000+00:00</time></trkpt><trkpt lat="44.430202" lon="34.09938"><ele>46.8</ele><time>2011-10-13T16:09:46.0000000+00:00</time></trkpt><trkpt lat="44.430202" lon="34.099316"><ele>46.5</ele><time>2011-10-13T16:09:51.0000000+00:00</time></trkpt><trkpt lat="44.430195" lon="34.099174"><ele>46.9</ele><time>2011-10-13T16:09:56.0000000+00:00</time></trkpt><trkpt lat="44.43018" lon="34.099049"><ele>47.8</ele><time>2011-10-13T16:10:01.0000000+00:00</time></trkpt><trkpt lat="44.430183" lon="34.098961"><ele>48.7</ele><time>2011-10-13T16:10:06.0000000+00:00</time></trkpt><trkpt lat="44.430176" lon="34.09885"><ele>50.2</ele><time>2011-10-13T16:10:11.0000000+00:00</time></trkpt><trkpt lat="44.430164" lon="34.098816"><ele>51.9</ele><time>2011-10-13T16:10:16.0000000+00:00</time></trkpt><trkpt lat="44.430157" lon="34.098736"><ele>53.5</ele><time>2011-10-13T16:10:21.0000000+00:00</time></trkpt><trkpt lat="44.430153" lon="34.098679"><ele>54.9</ele><time>2011-10-13T16:10:26.0000000+00:00</time></trkpt><trkpt lat="44.430153" lon="34.098595"><ele>56.3</ele><time>2011-10-13T16:10:31.0000000+00:00</time></trkpt><trkpt lat="44.430138" lon="34.098541"><ele>57.6</ele><time>2011-10-13T16:10:36.0000000+00:00</time></trkpt><trkpt lat="44.430172" lon="34.098507"><ele>56.9</ele><time>2011-10-13T16:10:41.0000000+00:00</time></trkpt><trkpt lat="44.430191" lon="34.098392"><ele>54.9</ele><time>2011-10-13T16:10:46.0000000+00:00</time></trkpt><trkpt lat="44.430206" lon="34.098293"><ele>53.9</ele><time>2011-10-13T16:10:51.0000000+00:00</time></trkpt><trkpt lat="44.430214" lon="34.098183"><ele>53.1</ele><time>2011-10-13T16:10:56.0000000+00:00</time></trkpt><trkpt lat="44.430256" lon="34.098057"><ele>52.2</ele><time>2011-10-13T16:11:01.0000000+00:00</time></trkpt><trkpt lat="44.430302" lon="34.097942"><ele>51.4</ele><time>2011-10-13T16:11:06.0000000+00:00</time></trkpt><trkpt lat="44.430344" lon="34.097839"><ele>49.0</ele><time>2011-10-13T16:11:11.0000000+00:00</time></trkpt><trkpt lat="44.430405" lon="34.097717"><ele>47.5</ele><time>2011-10-13T16:11:16.0000000+00:00</time></trkpt><trkpt lat="44.430504" lon="34.097542"><ele>46.1</ele><time>2011-10-13T16:11:21.0000000+00:00</time></trkpt><trkpt lat="44.430634" lon="34.097351"><ele>45.6</ele><time>2011-10-13T16:11:26.0000000+00:00</time></trkpt><trkpt lat="44.430775" lon="34.097233"><ele>45.9</ele><time>2011-10-13T16:11:31.0000000+00:00</time></trkpt><trkpt lat="44.430923" lon="34.097103"><ele>45.9</ele><time>2011-10-13T16:11:36.0000000+00:00</time></trkpt><trkpt lat="44.431046" lon="34.096947"><ele>47.0</ele><time>2011-10-13T16:11:41.0000000+00:00</time></trkpt><trkpt lat="44.431053" lon="34.096844"><ele>48.7</ele><time>2011-10-13T16:11:46.0000000+00:00</time></trkpt><trkpt lat="44.431004" lon="34.096714"><ele>49.2</ele><time>2011-10-13T16:11:51.0000000+00:00</time></trkpt><trkpt lat="44.430889" lon="34.096584"><ele>50.1</ele><time>2011-10-13T16:11:56.0000000+00:00</time></trkpt><trkpt lat="44.430706" lon="34.096443"><ele>51.1</ele><time>2011-10-13T16:12:01.0000000+00:00</time></trkpt><trkpt lat="44.430603" lon="34.096394"><ele>52.1</ele><time>2011-10-13T16:12:06.0000000+00:00</time></trkpt><trkpt lat="44.430576" lon="34.096371"><ele>53.5</ele><time>2011-10-13T16:12:11.0000000+00:00</time></trkpt><trkpt lat="44.430588" lon="34.096382"><ele>54.7</ele><time>2011-10-13T16:12:16.0000000+00:00</time></trkpt><trkpt lat="44.430607" lon="34.096378"><ele>56.2</ele><time>2011-10-13T16:12:21.0000000+00:00</time></trkpt><trkpt lat="44.430618" lon="34.096378"><ele>57.6</ele><time>2011-10-13T16:12:26.0000000+00:00</time></trkpt><trkpt lat="44.43063" lon="34.096382"><ele>59.0</ele><time>2011-10-13T16:12:31.0000000+00:00</time></trkpt><trkpt lat="44.430645" lon="34.096382"><ele>60.4</ele><time>2011-10-13T16:12:36.0000000+00:00</time></trkpt><trkpt lat="44.43066" lon="34.096371"><ele>61.9</ele><time>2011-10-13T16:12:41.0000000+00:00</time></trkpt><trkpt lat="44.430668" lon="34.096371"><ele>62.8</ele><time>2011-10-13T16:12:46.0000000+00:00</time></trkpt><trkpt lat="44.430672" lon="34.096371"><ele>63.4</ele><time>2011-10-13T16:12:51.0000000+00:00</time></trkpt><trkpt lat="44.430683" lon="34.096378"><ele>63.9</ele><time>2011-10-13T16:12:56.0000000+00:00</time></trkpt><trkpt lat="44.430698" lon="34.096378"><ele>64.3</ele><time>2011-10-13T16:13:01.0000000+00:00</time></trkpt><trkpt lat="44.43071" lon="34.096375"><ele>64.7</ele><time>2011-10-13T16:13:06.0000000+00:00</time></trkpt><trkpt lat="44.430714" lon="34.096375"><ele>64.9</ele><time>2011-10-13T16:13:11.0000000+00:00</time></trkpt><trkpt lat="44.430714" lon="34.096375"><ele>65.1</ele><time>2011-10-13T16:13:16.0000000+00:00</time></trkpt><trkpt lat="44.430714" lon="34.096378"><ele>65.1</ele><time>2011-10-13T16:13:21.0000000+00:00</time></trkpt><trkpt lat="44.430717" lon="34.096382"><ele>65.2</ele><time>2011-10-13T16:13:26.0000000+00:00</time></trkpt><trkpt lat="44.430717" lon="34.09639"><ele>65.3</ele><time>2011-10-13T16:13:31.0000000+00:00</time></trkpt><trkpt lat="44.430721" lon="34.096397"><ele>65.3</ele><time>2011-10-13T16:13:36.0000000+00:00</time></trkpt><trkpt lat="44.430725" lon="34.096401"><ele>65.4</ele><time>2011-10-13T16:13:41.0000000+00:00</time></trkpt><trkpt lat="44.430729" lon="34.096405"><ele>65.6</ele><time>2011-10-13T16:13:46.0000000+00:00</time></trkpt><trkpt lat="44.430725" lon="34.096409"><ele>65.6</ele><time>2011-10-13T16:13:51.0000000+00:00</time></trkpt><trkpt lat="44.430721" lon="34.096413"><ele>65.7</ele><time>2011-10-13T16:13:56.0000000+00:00</time></trkpt><trkpt lat="44.430725" lon="34.096416"><ele>65.8</ele><time>2011-10-13T16:14:01.0000000+00:00</time></trkpt><trkpt lat="44.430725" lon="34.096416"><ele>65.8</ele><time>2011-10-13T16:14:06.0000000+00:00</time></trkpt><trkpt lat="44.430729" lon="34.096416"><ele>65.8</ele><time>2011-10-13T16:14:11.0000000+00:00</time></trkpt><trkpt lat="44.430729" lon="34.096416"><ele>65.9</ele><time>2011-10-13T16:14:16.0000000+00:00</time></trkpt><trkpt lat="44.430725" lon="34.09642"><ele>66.0</ele><time>2011-10-13T16:14:21.0000000+00:00</time></trkpt><trkpt lat="44.430725" lon="34.09642"><ele>66.0</ele><time>2011-10-13T16:14:26.0000000+00:00</time></trkpt><trkpt lat="44.430729" lon="34.096432"><ele>66.1</ele><time>2011-10-13T16:14:31.0000000+00:00</time></trkpt><trkpt lat="44.430733" lon="34.096436"><ele>66.1</ele><time>2011-10-13T16:14:36.0000000+00:00</time></trkpt><trkpt lat="44.43074" lon="34.096439"><ele>66.3</ele><time>2011-10-13T16:14:41.0000000+00:00</time></trkpt><trkpt lat="44.43074" lon="34.096439"><ele>66.4</ele><time>2011-10-13T16:14:46.0000000+00:00</time></trkpt><trkpt lat="44.43074" lon="34.096447"><ele>66.4</ele><time>2011-10-13T16:14:51.0000000+00:00</time></trkpt><trkpt lat="44.43074" lon="34.096451"><ele>66.5</ele><time>2011-10-13T16:14:56.0000000+00:00</time></trkpt><trkpt lat="44.430756" lon="34.096458"><ele>66.6</ele><time>2011-10-13T16:15:01.0000000+00:00</time></trkpt><trkpt lat="44.430767" lon="34.096458"><ele>66.8</ele><time>2011-10-13T16:15:06.0000000+00:00</time></trkpt><trkpt lat="44.430779" lon="34.096458"><ele>66.9</ele><time>2011-10-13T16:15:11.0000000+00:00</time></trkpt><trkpt lat="44.430786" lon="34.096458"><ele>67.2</ele><time>2011-10-13T16:15:16.0000000+00:00</time></trkpt><trkpt lat="44.430779" lon="34.096458"><ele>67.5</ele><time>2011-10-13T16:15:21.0000000+00:00</time></trkpt><trkpt lat="44.430767" lon="34.096455"><ele>68.0</ele><time>2011-10-13T16:15:26.0000000+00:00</time></trkpt><trkpt lat="44.430752" lon="34.096451"><ele>68.6</ele><time>2011-10-13T16:15:31.0000000+00:00</time></trkpt><trkpt lat="44.430744" lon="34.096443"><ele>69.3</ele><time>2011-10-13T16:15:36.0000000+00:00</time></trkpt><trkpt lat="44.430733" lon="34.096439"><ele>70.0</ele><time>2011-10-13T16:15:41.0000000+00:00</time></trkpt><trkpt lat="44.430729" lon="34.096436"><ele>70.8</ele><time>2011-10-13T16:15:46.0000000+00:00</time></trkpt><trkpt lat="44.430729" lon="34.096432"><ele>71.7</ele><time>2011-10-13T16:15:51.0000000+00:00</time></trkpt><trkpt lat="44.430721" lon="34.096432"><ele>72.6</ele><time>2011-10-13T16:15:56.0000000+00:00</time></trkpt><trkpt lat="44.430714" lon="34.096439"><ele>73.2</ele><time>2011-10-13T16:16:01.0000000+00:00</time></trkpt><trkpt lat="44.430702" lon="34.096443"><ele>73.9</ele><time>2011-10-13T16:16:06.0000000+00:00</time></trkpt><trkpt lat="44.430691" lon="34.096451"><ele>74.5</ele><time>2011-10-13T16:16:11.0000000+00:00</time></trkpt><trkpt lat="44.430706" lon="34.096436"><ele>74.6</ele><time>2011-10-13T16:16:16.0000000+00:00</time></trkpt><trkpt lat="44.430706" lon="34.096447"><ele>75.2</ele><time>2011-10-13T16:16:21.0000000+00:00</time></trkpt><trkpt lat="44.430656" lon="34.096481"><ele>74.3</ele><time>2011-10-13T16:16:26.0000000+00:00</time></trkpt><trkpt lat="44.430649" lon="34.096489"><ele>74.4</ele><time>2011-10-13T16:16:31.0000000+00:00</time></trkpt><trkpt lat="44.430618" lon="34.096523"><ele>74.2</ele><time>2011-10-13T16:16:36.0000000+00:00</time></trkpt><trkpt lat="44.430676" lon="34.096531"><ele>74.0</ele><time>2011-10-13T16:16:41.0000000+00:00</time></trkpt><trkpt lat="44.43074" lon="34.096577"><ele>74.3</ele><time>2011-10-13T16:16:46.0000000+00:00</time></trkpt><trkpt lat="44.43084" lon="34.096622"><ele>75.7</ele><time>2011-10-13T16:16:51.0000000+00:00</time></trkpt><trkpt lat="44.430969" lon="34.096725"><ele>74.7</ele><time>2011-10-13T16:16:56.0000000+00:00</time></trkpt><trkpt lat="44.430882" lon="34.096931"><ele>72.4</ele><time>2011-10-13T16:17:01.0000000+00:00</time></trkpt><trkpt lat="44.430737" lon="34.09705"><ele>71.9</ele><time>2011-10-13T16:17:06.0000000+00:00</time></trkpt><trkpt lat="44.430614" lon="34.097172"><ele>70.3</ele><time>2011-10-13T16:17:11.0000000+00:00</time></trkpt><trkpt lat="44.430531" lon="34.097271"><ele>67.3</ele><time>2011-10-13T16:17:16.0000000+00:00</time></trkpt><trkpt lat="44.430481" lon="34.097359"><ele>67.0</ele><time>2011-10-13T16:17:21.0000000+00:00</time></trkpt><trkpt lat="44.430424" lon="34.097435"><ele>67.1</ele><time>2011-10-13T16:17:26.0000000+00:00</time></trkpt><trkpt lat="44.430393" lon="34.097511"><ele>68.0</ele><time>2011-10-13T16:17:31.0000000+00:00</time></trkpt><trkpt lat="44.43034" lon="34.097588"><ele>68.6</ele><time>2011-10-13T16:17:36.0000000+00:00</time></trkpt><trkpt lat="44.430309" lon="34.097668"><ele>69.2</ele><time>2011-10-13T16:17:41.0000000+00:00</time></trkpt><trkpt lat="44.430286" lon="34.097733"><ele>67.4</ele><time>2011-10-13T16:17:46.0000000+00:00</time></trkpt><trkpt lat="44.430237" lon="34.097813"><ele>64.5</ele><time>2011-10-13T16:17:51.0000000+00:00</time></trkpt><trkpt lat="44.43018" lon="34.097885"><ele>61.2</ele><time>2011-10-13T16:17:56.0000000+00:00</time></trkpt><trkpt lat="44.430145" lon="34.098003"><ele>56.0</ele><time>2011-10-13T16:18:01.0000000+00:00</time></trkpt><trkpt lat="44.430122" lon="34.098099"><ele>55.4</ele><time>2011-10-13T16:18:06.0000000+00:00</time></trkpt><trkpt lat="44.430107" lon="34.098206"><ele>55.9</ele><time>2011-10-13T16:18:11.0000000+00:00</time></trkpt><trkpt lat="44.430103" lon="34.098309"><ele>53.9</ele><time>2011-10-13T16:18:16.0000000+00:00</time></trkpt><trkpt lat="44.430111" lon="34.098431"><ele>51.6</ele><time>2011-10-13T16:18:21.0000000+00:00</time></trkpt><trkpt lat="44.430119" lon="34.09853"><ele>50.0</ele><time>2011-10-13T16:18:26.0000000+00:00</time></trkpt><trkpt lat="44.430119" lon="34.09864"><ele>48.7</ele><time>2011-10-13T16:18:31.0000000+00:00</time></trkpt><trkpt lat="44.430134" lon="34.098766"><ele>45.7</ele><time>2011-10-13T16:18:36.0000000+00:00</time></trkpt><trkpt lat="44.430141" lon="34.098866"><ele>44.9</ele><time>2011-10-13T16:18:41.0000000+00:00</time></trkpt><trkpt lat="44.430149" lon="34.098961"><ele>45.8</ele><time>2011-10-13T16:18:46.0000000+00:00</time></trkpt><trkpt lat="44.430157" lon="34.099045"><ele>47.6</ele><time>2011-10-13T16:18:51.0000000+00:00</time></trkpt><trkpt lat="44.430153" lon="34.09914"><ele>49.3</ele><time>2011-10-13T16:18:56.0000000+00:00</time></trkpt><trkpt lat="44.430176" lon="34.099243"><ele>50.1</ele><time>2011-10-13T16:19:01.0000000+00:00</time></trkpt><trkpt lat="44.430172" lon="34.099339"><ele>50.6</ele><time>2011-10-13T16:19:06.0000000+00:00</time></trkpt><trkpt lat="44.430191" lon="34.09943"><ele>51.1</ele><time>2011-10-13T16:19:11.0000000+00:00</time></trkpt><trkpt lat="44.430191" lon="34.099541"><ele>53.9</ele><time>2011-10-13T16:19:16.0000000+00:00</time></trkpt><trkpt lat="44.430183" lon="34.09964"><ele>52.6</ele><time>2011-10-13T16:19:21.0000000+00:00</time></trkpt><trkpt lat="44.430164" lon="34.099758"><ele>50.2</ele><time>2011-10-13T16:19:26.0000000+00:00</time></trkpt><trkpt lat="44.430157" lon="34.099895"><ele>50.1</ele><time>2011-10-13T16:19:31.0000000+00:00</time></trkpt><trkpt lat="44.430149" lon="34.100006"><ele>49.7</ele><time>2011-10-13T16:19:36.0000000+00:00</time></trkpt><trkpt lat="44.430145" lon="34.100094"><ele>50.7</ele><time>2011-10-13T16:19:41.0000000+00:00</time></trkpt><trkpt lat="44.430126" lon="34.100178"><ele>51.6</ele><time>2011-10-13T16:19:46.0000000+00:00</time></trkpt><trkpt lat="44.430103" lon="34.100262"><ele>53.2</ele><time>2011-10-13T16:19:51.0000000+00:00</time></trkpt><trkpt lat="44.43008" lon="34.100349"><ele>55.0</ele><time>2011-10-13T16:19:56.0000000+00:00</time></trkpt><trkpt lat="44.43008" lon="34.100464"><ele>55.6</ele><time>2011-10-13T16:20:01.0000000+00:00</time></trkpt><trkpt lat="44.430065" lon="34.100567"><ele>54.3</ele><time>2011-10-13T16:20:06.0000000+00:00</time></trkpt><trkpt lat="44.43005" lon="34.100651"><ele>54.8</ele><time>2011-10-13T16:20:11.0000000+00:00</time></trkpt><trkpt lat="44.430031" lon="34.100719"><ele>55.5</ele><time>2011-10-13T16:20:16.0000000+00:00</time></trkpt><trkpt lat="44.430016" lon="34.100811"><ele>56.6</ele><time>2011-10-13T16:20:21.0000000+00:00</time></trkpt><trkpt lat="44.429962" lon="34.100933"><ele>57.2</ele><time>2011-10-13T16:20:26.0000000+00:00</time></trkpt><trkpt lat="44.429935" lon="34.101028"><ele>59.0</ele><time>2011-10-13T16:20:31.0000000+00:00</time></trkpt><trkpt lat="44.429924" lon="34.101147"><ele>62.2</ele><time>2011-10-13T16:20:36.0000000+00:00</time></trkpt><trkpt lat="44.429905" lon="34.101227"><ele>63.0</ele><time>2011-10-13T16:20:41.0000000+00:00</time></trkpt><trkpt lat="44.429855" lon="34.101265"><ele>63.9</ele><time>2011-10-13T16:20:46.0000000+00:00</time></trkpt><trkpt lat="44.429825" lon="34.101326"><ele>64.6</ele><time>2011-10-13T16:20:51.0000000+00:00</time></trkpt><trkpt lat="44.429775" lon="34.101395"><ele>66.0</ele><time>2011-10-13T16:20:56.0000000+00:00</time></trkpt><trkpt lat="44.429718" lon="34.101467"><ele>66.4</ele><time>2011-10-13T16:21:01.0000000+00:00</time></trkpt><trkpt lat="44.42968" lon="34.101517"><ele>67.5</ele><time>2011-10-13T16:21:06.0000000+00:00</time></trkpt><trkpt lat="44.429623" lon="34.101574"><ele>68.8</ele><time>2011-10-13T16:21:11.0000000+00:00</time></trkpt><trkpt lat="44.429565" lon="34.101662"><ele>68.5</ele><time>2011-10-13T16:21:16.0000000+00:00</time></trkpt><trkpt lat="44.429489" lon="34.101734"><ele>69.1</ele><time>2011-10-13T16:21:21.0000000+00:00</time></trkpt><trkpt lat="44.42942" lon="34.101772"><ele>70.4</ele><time>2011-10-13T16:21:26.0000000+00:00</time></trkpt><trkpt lat="44.429344" lon="34.101826"><ele>70.4</ele><time>2011-10-13T16:21:31.0000000+00:00</time></trkpt><trkpt lat="44.429291" lon="34.101898"><ele>71.5</ele><time>2011-10-13T16:21:36.0000000+00:00</time></trkpt><trkpt lat="44.42926" lon="34.101929"><ele>72.2</ele><time>2011-10-13T16:21:41.0000000+00:00</time></trkpt><trkpt lat="44.429237" lon="34.101971"><ele>72.8</ele><time>2011-10-13T16:21:46.0000000+00:00</time></trkpt><trkpt lat="44.429207" lon="34.10202"><ele>73.6</ele><time>2011-10-13T16:21:51.0000000+00:00</time></trkpt><trkpt lat="44.42918" lon="34.1021"><ele>72.8</ele><time>2011-10-13T16:21:56.0000000+00:00</time></trkpt><trkpt lat="44.429157" lon="34.102184"><ele>74.2</ele><time>2011-10-13T16:22:01.0000000+00:00</time></trkpt><trkpt lat="44.429131" lon="34.102249"><ele>75.0</ele><time>2011-10-13T16:22:06.0000000+00:00</time></trkpt><trkpt lat="44.4291" lon="34.102325"><ele>75.9</ele><time>2011-10-13T16:22:11.0000000+00:00</time></trkpt><trkpt lat="44.429054" lon="34.102451"><ele>77.8</ele><time>2011-10-13T16:22:16.0000000+00:00</time></trkpt><trkpt lat="44.42902" lon="34.102554"><ele>79.4</ele><time>2011-10-13T16:22:21.0000000+00:00</time></trkpt><trkpt lat="44.429001" lon="34.102642"><ele>80.1</ele><time>2011-10-13T16:22:26.0000000+00:00</time></trkpt><trkpt lat="44.428898" lon="34.102699"><ele>80.5</ele><time>2011-10-13T16:22:31.0000000+00:00</time></trkpt><trkpt lat="44.428837" lon="34.102745"><ele>82.0</ele><time>2011-10-13T16:22:36.0000000+00:00</time></trkpt><trkpt lat="44.428806" lon="34.102833"><ele>82.9</ele><time>2011-10-13T16:22:41.0000000+00:00</time></trkpt><trkpt lat="44.42881" lon="34.102909"><ele>81.8</ele><time>2011-10-13T16:22:46.0000000+00:00</time></trkpt><trkpt lat="44.428818" lon="34.103004"><ele>82.1</ele><time>2011-10-13T16:22:51.0000000+00:00</time></trkpt><trkpt lat="44.428814" lon="34.103157"><ele>79.9</ele><time>2011-10-13T16:22:56.0000000+00:00</time></trkpt><trkpt lat="44.428825" lon="34.103241"><ele>75.5</ele><time>2011-10-13T16:23:01.0000000+00:00</time></trkpt><trkpt lat="44.428814" lon="34.103287"><ele>74.2</ele><time>2011-10-13T16:23:06.0000000+00:00</time></trkpt><trkpt lat="44.42878" lon="34.103344"><ele>72.9</ele><time>2011-10-13T16:23:11.0000000+00:00</time></trkpt><trkpt lat="44.42873" lon="34.103409"><ele>71.3</ele><time>2011-10-13T16:23:16.0000000+00:00</time></trkpt><trkpt lat="44.42873" lon="34.103531"><ele>68.2</ele><time>2011-10-13T16:23:21.0000000+00:00</time></trkpt><trkpt lat="44.428745" lon="34.103622"><ele>66.8</ele><time>2011-10-13T16:23:26.0000000+00:00</time></trkpt><trkpt lat="44.428726" lon="34.10371"><ele>67.1</ele><time>2011-10-13T16:23:31.0000000+00:00</time></trkpt><trkpt lat="44.428745" lon="34.103783"><ele>68.3</ele><time>2011-10-13T16:23:36.0000000+00:00</time></trkpt><trkpt lat="44.428753" lon="34.103909"><ele>68.2</ele><time>2011-10-13T16:23:41.0000000+00:00</time></trkpt><trkpt lat="44.428783" lon="34.104012"><ele>68.7</ele><time>2011-10-13T16:23:46.0000000+00:00</time></trkpt><trkpt lat="44.428776" lon="34.104092"><ele>69.9</ele><time>2011-10-13T16:23:51.0000000+00:00</time></trkpt><trkpt lat="44.42881" lon="34.104149"><ele>71.3</ele><time>2011-10-13T16:23:56.0000000+00:00</time></trkpt><trkpt lat="44.42886" lon="34.104191"><ele>70.3</ele><time>2011-10-13T16:24:01.0000000+00:00</time></trkpt><trkpt lat="44.428898" lon="34.104256"><ele>71.8</ele><time>2011-10-13T16:24:06.0000000+00:00</time></trkpt><trkpt lat="44.428936" lon="34.104324"><ele>73.0</ele><time>2011-10-13T16:24:11.0000000+00:00</time></trkpt><trkpt lat="44.428967" lon="34.104389"><ele>74.0</ele><time>2011-10-13T16:24:16.0000000+00:00</time></trkpt><trkpt lat="44.429012" lon="34.10445"><ele>75.6</ele><time>2011-10-13T16:24:21.0000000+00:00</time></trkpt><trkpt lat="44.429066" lon="34.104549"><ele>75.5</ele><time>2011-10-13T16:24:26.0000000+00:00</time></trkpt><trkpt lat="44.429115" lon="34.104603"><ele>75.8</ele><time>2011-10-13T16:24:31.0000000+00:00</time></trkpt><trkpt lat="44.429161" lon="34.104645"><ele>76.1</ele><time>2011-10-13T16:24:36.0000000+00:00</time></trkpt><trkpt lat="44.429211" lon="34.104694"><ele>77.5</ele><time>2011-10-13T16:24:41.0000000+00:00</time></trkpt><trkpt lat="44.429272" lon="34.104771"><ele>76.7</ele><time>2011-10-13T16:24:46.0000000+00:00</time></trkpt><trkpt lat="44.429333" lon="34.104851"><ele>76.6</ele><time>2011-10-13T16:24:51.0000000+00:00</time></trkpt><trkpt lat="44.429394" lon="34.104908"><ele>76.2</ele><time>2011-10-13T16:24:56.0000000+00:00</time></trkpt><trkpt lat="44.429462" lon="34.104954"><ele>75.5</ele><time>2011-10-13T16:25:01.0000000+00:00</time></trkpt><trkpt lat="44.42952" lon="34.105007"><ele>76.8</ele><time>2011-10-13T16:25:06.0000000+00:00</time></trkpt><trkpt lat="44.429577" lon="34.105034"><ele>77.5</ele><time>2011-10-13T16:25:11.0000000+00:00</time></trkpt><trkpt lat="44.429649" lon="34.105061"><ele>79.1</ele><time>2011-10-13T16:25:16.0000000+00:00</time></trkpt><trkpt lat="44.429726" lon="34.105106"><ele>79.0</ele><time>2011-10-13T16:25:21.0000000+00:00</time></trkpt><trkpt lat="44.429798" lon="34.105129"><ele>78.4</ele><time>2011-10-13T16:25:26.0000000+00:00</time></trkpt><trkpt lat="44.429859" lon="34.105141"><ele>77.2</ele><time>2011-10-13T16:25:31.0000000+00:00</time></trkpt><trkpt lat="44.429932" lon="34.105145"><ele>78.1</ele><time>2011-10-13T16:25:36.0000000+00:00</time></trkpt><trkpt lat="44.430008" lon="34.105156"><ele>74.5</ele><time>2011-10-13T16:25:41.0000000+00:00</time></trkpt><trkpt lat="44.430065" lon="34.10516"><ele>68.4</ele><time>2011-10-13T16:25:46.0000000+00:00</time></trkpt><trkpt lat="44.430103" lon="34.105122"><ele>67.4</ele><time>2011-10-13T16:25:51.0000000+00:00</time></trkpt><trkpt lat="44.430149" lon="34.105072"><ele>65.8</ele><time>2011-10-13T16:25:56.0000000+00:00</time></trkpt><trkpt lat="44.43018" lon="34.105011"><ele>65.0</ele><time>2011-10-13T16:26:01.0000000+00:00</time></trkpt><trkpt lat="44.430225" lon="34.104958"><ele>64.9</ele><time>2011-10-13T16:26:06.0000000+00:00</time></trkpt><trkpt lat="44.430286" lon="34.1049"><ele>65.0</ele><time>2011-10-13T16:26:11.0000000+00:00</time></trkpt><trkpt lat="44.430351" lon="34.104847"><ele>64.2</ele><time>2011-10-13T16:26:16.0000000+00:00</time></trkpt><trkpt lat="44.430428" lon="34.104828"><ele>64.0</ele><time>2011-10-13T16:26:21.0000000+00:00</time></trkpt><trkpt lat="44.430485" lon="34.104851"><ele>65.7</ele><time>2011-10-13T16:26:26.0000000+00:00</time></trkpt><trkpt lat="44.430534" lon="34.104874"><ele>66.9</ele><time>2011-10-13T16:26:31.0000000+00:00</time></trkpt><trkpt lat="44.43058" lon="34.104919"><ele>68.7</ele><time>2011-10-13T16:26:36.0000000+00:00</time></trkpt><trkpt lat="44.430622" lon="34.104984"><ele>69.1</ele><time>2011-10-13T16:26:41.0000000+00:00</time></trkpt><trkpt lat="44.430645" lon="34.105045"><ele>71.0</ele><time>2011-10-13T16:26:46.0000000+00:00</time></trkpt><trkpt lat="44.43066" lon="34.105103"><ele>68.9</ele><time>2011-10-13T16:26:51.0000000+00:00</time></trkpt><trkpt lat="44.430656" lon="34.105106"><ele>68.2</ele><time>2011-10-13T16:26:56.0000000+00:00</time></trkpt><trkpt lat="44.430679" lon="34.105167"><ele>67.0</ele><time>2011-10-13T16:27:01.0000000+00:00</time></trkpt><trkpt lat="44.430702" lon="34.105236"><ele>67.0</ele><time>2011-10-13T16:27:06.0000000+00:00</time></trkpt><trkpt lat="44.430744" lon="34.105362"><ele>65.8</ele><time>2011-10-13T16:27:11.0000000+00:00</time></trkpt><trkpt lat="44.430767" lon="34.105427"><ele>67.5</ele><time>2011-10-13T16:27:16.0000000+00:00</time></trkpt><trkpt lat="44.430775" lon="34.105484"><ele>68.9</ele><time>2011-10-13T16:27:21.0000000+00:00</time></trkpt><trkpt lat="44.43082" lon="34.105495"><ele>70.2</ele><time>2011-10-13T16:27:26.0000000+00:00</time></trkpt><trkpt lat="44.430862" lon="34.105511"><ele>71.4</ele><time>2011-10-13T16:27:31.0000000+00:00</time></trkpt><trkpt lat="44.430904" lon="34.105499"><ele>72.8</ele><time>2011-10-13T16:27:36.0000000+00:00</time></trkpt><trkpt lat="44.430943" lon="34.105469"><ele>74.2</ele><time>2011-10-13T16:27:41.0000000+00:00</time></trkpt><trkpt lat="44.430969" lon="34.105446"><ele>75.7</ele><time>2011-10-13T16:27:46.0000000+00:00</time></trkpt><trkpt lat="44.431007" lon="34.105427"><ele>77.1</ele><time>2011-10-13T16:27:51.0000000+00:00</time></trkpt><trkpt lat="44.431034" lon="34.105419"><ele>78.4</ele><time>2011-10-13T16:27:56.0000000+00:00</time></trkpt><trkpt lat="44.431026" lon="34.105412"><ele>78.7</ele><time>2011-10-13T16:28:01.0000000+00:00</time></trkpt><trkpt lat="44.431019" lon="34.105389"><ele>79.2</ele><time>2011-10-13T16:28:06.0000000+00:00</time></trkpt><trkpt lat="44.430988" lon="34.105389"><ele>80.0</ele><time>2011-10-13T16:28:11.0000000+00:00</time></trkpt><trkpt lat="44.430965" lon="34.105408"><ele>80.3</ele><time>2011-10-13T16:28:16.0000000+00:00</time></trkpt><trkpt lat="44.430962" lon="34.105412"><ele>80.8</ele><time>2011-10-13T16:28:21.0000000+00:00</time></trkpt><trkpt lat="44.430958" lon="34.105404"><ele>81.3</ele><time>2011-10-13T16:28:26.0000000+00:00</time></trkpt><trkpt lat="44.430958" lon="34.105396"><ele>81.8</ele><time>2011-10-13T16:28:31.0000000+00:00</time></trkpt><trkpt lat="44.430958" lon="34.105389"><ele>82.3</ele><time>2011-10-13T16:28:36.0000000+00:00</time></trkpt><trkpt lat="44.430958" lon="34.105385"><ele>82.7</ele><time>2011-10-13T16:28:41.0000000+00:00</time></trkpt><trkpt lat="44.430958" lon="34.105381"><ele>83.0</ele><time>2011-10-13T16:28:46.0000000+00:00</time></trkpt><trkpt lat="44.430954" lon="34.105381"><ele>83.2</ele><time>2011-10-13T16:28:51.0000000+00:00</time></trkpt><trkpt lat="44.430954" lon="34.105381"><ele>83.4</ele><time>2011-10-13T16:28:56.0000000+00:00</time></trkpt><trkpt lat="44.430954" lon="34.105377"><ele>83.5</ele><time>2011-10-13T16:29:01.0000000+00:00</time></trkpt><trkpt lat="44.430954" lon="34.105373"><ele>83.7</ele><time>2011-10-13T16:29:06.0000000+00:00</time></trkpt><trkpt lat="44.430954" lon="34.10537"><ele>83.8</ele><time>2011-10-13T16:29:11.0000000+00:00</time></trkpt><trkpt lat="44.430954" lon="34.10537"><ele>84.0</ele><time>2011-10-13T16:29:16.0000000+00:00</time></trkpt><trkpt lat="44.430954" lon="34.105366"><ele>84.2</ele><time>2011-10-13T16:29:21.0000000+00:00</time></trkpt><trkpt lat="44.430954" lon="34.105366"><ele>84.3</ele><time>2011-10-13T16:29:26.0000000+00:00</time></trkpt><trkpt lat="44.430954" lon="34.105358"><ele>84.5</ele><time>2011-10-13T16:29:31.0000000+00:00</time></trkpt><trkpt lat="44.430954" lon="34.105354"><ele>84.6</ele><time>2011-10-13T16:29:36.0000000+00:00</time></trkpt><trkpt lat="44.430954" lon="34.105354"><ele>84.8</ele><time>2011-10-13T16:29:41.0000000+00:00</time></trkpt><trkpt lat="44.430954" lon="34.105354"><ele>85.0</ele><time>2011-10-13T16:29:46.0000000+00:00</time></trkpt><trkpt lat="44.430954" lon="34.105354"><ele>85.2</ele><time>2011-10-13T16:29:51.0000000+00:00</time></trkpt><trkpt lat="44.430954" lon="34.105354"><ele>85.4</ele><time>2011-10-13T16:29:56.0000000+00:00</time></trkpt><trkpt lat="44.430954" lon="34.105354"><ele>85.6</ele><time>2011-10-13T16:30:01.0000000+00:00</time></trkpt><trkpt lat="44.430954" lon="34.105354"><ele>85.8</ele><time>2011-10-13T16:30:06.0000000+00:00</time></trkpt><trkpt lat="44.43095" lon="34.10535"><ele>86.0</ele><time>2011-10-13T16:30:11.0000000+00:00</time></trkpt><trkpt lat="44.43095" lon="34.10535"><ele>86.2</ele><time>2011-10-13T16:30:16.0000000+00:00</time></trkpt><trkpt lat="44.43095" lon="34.10535"><ele>86.4</ele><time>2011-10-13T16:30:21.0000000+00:00</time></trkpt><trkpt lat="44.43095" lon="34.105354"><ele>86.5</ele><time>2011-10-13T16:30:26.0000000+00:00</time></trkpt><trkpt lat="44.43095" lon="34.105354"><ele>86.7</ele><time>2011-10-13T16:30:31.0000000+00:00</time></trkpt><trkpt lat="44.43095" lon="34.105358"><ele>86.9</ele><time>2011-10-13T16:30:36.0000000+00:00</time></trkpt><trkpt lat="44.43095" lon="34.105358"><ele>87.1</ele><time>2011-10-13T16:30:41.0000000+00:00</time></trkpt><trkpt lat="44.43095" lon="34.105354"><ele>87.3</ele><time>2011-10-13T16:30:46.0000000+00:00</time></trkpt><trkpt lat="44.430946" lon="34.105354"><ele>87.5</ele><time>2011-10-13T16:30:51.0000000+00:00</time></trkpt><trkpt lat="44.430946" lon="34.10535"><ele>87.7</ele><time>2011-10-13T16:30:56.0000000+00:00</time></trkpt><trkpt lat="44.430946" lon="34.105347"><ele>87.9</ele><time>2011-10-13T16:31:01.0000000+00:00</time></trkpt><trkpt lat="44.43095" lon="34.105339"><ele>88.1</ele><time>2011-10-13T16:31:06.0000000+00:00</time></trkpt><trkpt lat="44.43095" lon="34.105331"><ele>88.3</ele><time>2011-10-13T16:31:11.0000000+00:00</time></trkpt><trkpt lat="44.43095" lon="34.105331"><ele>88.5</ele><time>2011-10-13T16:31:16.0000000+00:00</time></trkpt><trkpt lat="44.430946" lon="34.105331"><ele>88.7</ele><time>2011-10-13T16:31:21.0000000+00:00</time></trkpt><trkpt lat="44.430946" lon="34.105331"><ele>89.0</ele><time>2011-10-13T16:31:26.0000000+00:00</time></trkpt><trkpt lat="44.430946" lon="34.105328"><ele>89.2</ele><time>2011-10-13T16:31:31.0000000+00:00</time></trkpt><trkpt lat="44.430946" lon="34.105328"><ele>89.4</ele><time>2011-10-13T16:31:36.0000000+00:00</time></trkpt><trkpt lat="44.430946" lon="34.105335"><ele>89.6</ele><time>2011-10-13T16:31:41.0000000+00:00</time></trkpt><trkpt lat="44.430943" lon="34.105343"><ele>89.8</ele><time>2011-10-13T16:31:46.0000000+00:00</time></trkpt><trkpt lat="44.430943" lon="34.105358"><ele>90.0</ele><time>2011-10-13T16:31:51.0000000+00:00</time></trkpt><trkpt lat="44.430939" lon="34.10537"><ele>90.2</ele><time>2011-10-13T16:31:56.0000000+00:00</time></trkpt><trkpt lat="44.430939" lon="34.105381"><ele>90.4</ele><time>2011-10-13T16:32:01.0000000+00:00</time></trkpt><trkpt lat="44.430935" lon="34.105389"><ele>90.6</ele><time>2011-10-13T16:32:06.0000000+00:00</time></trkpt><trkpt lat="44.430935" lon="34.105392"><ele>90.8</ele><time>2011-10-13T16:32:11.0000000+00:00</time></trkpt><trkpt lat="44.430935" lon="34.105396"><ele>91.0</ele><time>2011-10-13T16:32:16.0000000+00:00</time></trkpt><trkpt lat="44.430935" lon="34.105396"><ele>91.2</ele><time>2011-10-13T16:32:21.0000000+00:00</time></trkpt><trkpt lat="44.430935" lon="34.105392"><ele>91.3</ele><time>2011-10-13T16:32:26.0000000+00:00</time></trkpt><trkpt lat="44.430935" lon="34.105389"><ele>91.5</ele><time>2011-10-13T16:32:31.0000000+00:00</time></trkpt><trkpt lat="44.430935" lon="34.105389"><ele>91.7</ele><time>2011-10-13T16:32:36.0000000+00:00</time></trkpt><trkpt lat="44.430935" lon="34.105389"><ele>91.9</ele><time>2011-10-13T16:32:41.0000000+00:00</time></trkpt><trkpt lat="44.430935" lon="34.105381"><ele>92.1</ele><time>2011-10-13T16:32:46.0000000+00:00</time></trkpt><trkpt lat="44.430935" lon="34.105373"><ele>92.3</ele><time>2011-10-13T16:32:51.0000000+00:00</time></trkpt><trkpt lat="44.430935" lon="34.10537"><ele>92.5</ele><time>2011-10-13T16:32:56.0000000+00:00</time></trkpt><trkpt lat="44.430935" lon="34.105366"><ele>92.7</ele><time>2011-10-13T16:33:01.0000000+00:00</time></trkpt><trkpt lat="44.430935" lon="34.105358"><ele>92.9</ele><time>2011-10-13T16:33:06.0000000+00:00</time></trkpt><trkpt lat="44.430935" lon="34.105347"><ele>93.1</ele><time>2011-10-13T16:33:11.0000000+00:00</time></trkpt><trkpt lat="44.430939" lon="34.105335"><ele>93.3</ele><time>2011-10-13T16:33:16.0000000+00:00</time></trkpt><trkpt lat="44.430939" lon="34.105328"><ele>93.6</ele><time>2011-10-13T16:33:21.0000000+00:00</time></trkpt><trkpt lat="44.430935" lon="34.10532"><ele>93.8</ele><time>2011-10-13T16:33:26.0000000+00:00</time></trkpt><trkpt lat="44.430931" lon="34.10532"><ele>94.0</ele><time>2011-10-13T16:33:31.0000000+00:00</time></trkpt><trkpt lat="44.43095" lon="34.105446"><ele>89.1</ele><time>2011-10-13T16:33:36.0000000+00:00</time></trkpt><trkpt lat="44.430965" lon="34.105526"><ele>88.7</ele><time>2011-10-13T16:33:41.0000000+00:00</time></trkpt><trkpt lat="44.430939" lon="34.105598"><ele>88.3</ele><time>2011-10-13T16:33:46.0000000+00:00</time></trkpt><trkpt lat="44.430954" lon="34.105667"><ele>85.6</ele><time>2011-10-13T16:33:51.0000000+00:00</time></trkpt><trkpt lat="44.430977" lon="34.105682"><ele>85.5</ele><time>2011-10-13T16:33:56.0000000+00:00</time></trkpt><trkpt lat="44.430992" lon="34.105671"><ele>85.8</ele><time>2011-10-13T16:34:01.0000000+00:00</time></trkpt><trkpt lat="44.431011" lon="34.105659"><ele>86.4</ele><time>2011-10-13T16:34:06.0000000+00:00</time></trkpt><trkpt lat="44.431019" lon="34.105659"><ele>87.0</ele><time>2011-10-13T16:34:11.0000000+00:00</time></trkpt><trkpt lat="44.431023" lon="34.105652"><ele>87.6</ele><time>2011-10-13T16:34:16.0000000+00:00</time></trkpt><trkpt lat="44.431023" lon="34.105652"><ele>88.2</ele><time>2011-10-13T16:34:21.0000000+00:00</time></trkpt></trkseg></trk></gpx>